<?xml version='1.0' encoding='UTF-8'?><gpx version="1.1" creator="JPX - https://github.com/jenetics/jpx" xmlns="http://www.topografix.com/GPX/1/1"><trk><trkseg><trkpt lat="43.1250507" lon="12.351906"><ele>361.0</ele><time>2026-04-01T07:50:02.531Z</time></trkpt><trkpt lat="43.1249621" lon="12.3519149"><ele>361.0</ele><time>2026-04-01T07:50:04.531Z</time></trkpt><trkpt lat="43.1248816" lon="12.3518653"><ele>361.0</ele><time>2026-04-01T07:50:06.532Z</time></trkpt><trkpt lat="43.1248209" lon="12.3517309"><ele>361.0</ele><time>2026-04-01T07:50:08.532Z</time></trkpt><trkpt lat="43.1248052" lon="12.3516466"><ele>361.0</ele><time>2026-04-01T07:50:09.532Z</time></trkpt><trkpt lat="43.1248369" lon="12.351528"><ele>361.0</ele><time>2026-04-01T07:50:10.532Z</time></trkpt><trkpt lat="43.1248482" lon="12.3513977"><ele>359.4</ele><time>2026-04-01T07:50:12.53Z</time></trkpt><trkpt lat="43.1248548" lon="12.351287"><ele>357.8</ele><time>2026-04-01T07:50:14.531Z</time></trkpt><trkpt lat="43.1248875" lon="12.3511883"><ele>356.2</ele><time>2026-04-01T07:50:17.531Z</time></trkpt><trkpt lat="43.1249232" lon="12.3510865"><ele>354.59999999999997</ele><time>2026-04-01T07:50:34.533Z</time></trkpt><trkpt lat="43.124955" lon="12.3509947"><ele>353.0</ele><time>2026-04-01T07:50:36.532Z</time></trkpt><trkpt lat="43.1251065" lon="12.3509865"><ele>353.0</ele><time>2026-04-01T07:50:38.532Z</time></trkpt><trkpt lat="43.1252205" lon="12.3509323"><ele>353.0</ele><time>2026-04-01T07:50:40.531Z</time></trkpt><trkpt lat="43.1253024" lon="12.350902"><ele>353.0</ele><time>2026-04-01T07:50:41.531Z</time></trkpt><trkpt lat="43.1254245" lon="12.3508584"><ele>353.0</ele><time>2026-04-01T07:50:42.531Z</time></trkpt><trkpt lat="43.1255538" lon="12.3508559"><ele>353.0</ele><time>2026-04-01T07:50:43.532Z</time></trkpt><trkpt lat="43.1256657" lon="12.3508475"><ele>353.0</ele><time>2026-04-01T07:50:44.531Z</time></trkpt><trkpt lat="43.1257742" lon="12.3508483"><ele>353.0</ele><time>2026-04-01T07:50:45.531Z</time></trkpt><trkpt lat="43.1258505" lon="12.3508427"><ele>353.0</ele><time>2026-04-01T07:50:46.532Z</time></trkpt><trkpt lat="43.1259598" lon="12.3508489"><ele>353.0</ele><time>2026-04-01T07:50:47.531Z</time></trkpt><trkpt lat="43.1260529" lon="12.3508765"><ele>353.25</ele><time>2026-04-01T07:50:48.531Z</time></trkpt><trkpt lat="43.1261866" lon="12.3509089"><ele>353.5</ele><time>2026-04-01T07:50:49.531Z</time></trkpt><trkpt lat="43.1263039" lon="12.3509447"><ele>353.75</ele><time>2026-04-01T07:50:50.532Z</time></trkpt><trkpt lat="43.1264668" lon="12.3509982"><ele>354.0</ele><time>2026-04-01T07:50:51.532Z</time></trkpt><trkpt lat="43.1266006" lon="12.3510436"><ele>352.79999999999995</ele><time>2026-04-01T07:50:52.532Z</time></trkpt><trkpt lat="43.126735" lon="12.3510819"><ele>351.59999999999997</ele><time>2026-04-01T07:50:53.532Z</time></trkpt><trkpt lat="43.1268321" lon="12.3510969"><ele>350.4</ele><time>2026-04-01T07:50:54.531Z</time></trkpt><trkpt lat="43.126923" lon="12.351112"><ele>349.2</ele><time>2026-04-01T07:50:55.531Z</time></trkpt><trkpt lat="43.1269988" lon="12.3511246"><ele>348.0</ele><time>2026-04-01T07:50:56.531Z</time></trkpt><trkpt lat="43.1271102" lon="12.3510561"><ele>348.0</ele><time>2026-04-01T07:50:58.532Z</time></trkpt><trkpt lat="43.127148" lon="12.3509387"><ele>348.0</ele><time>2026-04-01T07:50:59.532Z</time></trkpt><trkpt lat="43.1272064" lon="12.3508025"><ele>348.0</ele><time>2026-04-01T07:51:00.53Z</time></trkpt><trkpt lat="43.1272772" lon="12.3506556"><ele>348.0</ele><time>2026-04-01T07:51:01.53Z</time></trkpt><trkpt lat="43.1273461" lon="12.3504965"><ele>349.2</ele><time>2026-04-01T07:51:02.532Z</time></trkpt><trkpt lat="43.1274093" lon="12.3503414"><ele>350.4</ele><time>2026-04-01T07:51:03.532Z</time></trkpt><trkpt lat="43.1274613" lon="12.3502166"><ele>351.59999999999997</ele><time>2026-04-01T07:51:04.53Z</time></trkpt><trkpt lat="43.1275174" lon="12.3501199"><ele>352.79999999999995</ele><time>2026-04-01T07:51:05.53Z</time></trkpt><trkpt lat="43.1275449" lon="12.350021"><ele>354.0</ele><time>2026-04-01T07:51:06.53Z</time></trkpt><trkpt lat="43.1275031" lon="12.349874"><ele>354.0</ele><time>2026-04-01T07:51:08.531Z</time></trkpt><trkpt lat="43.1274197" lon="12.3497492"><ele>354.0</ele><time>2026-04-01T07:51:10.532Z</time></trkpt><trkpt lat="43.1272734" lon="12.3496265"><ele>354.0</ele><time>2026-04-01T07:51:12.531Z</time></trkpt><trkpt lat="43.1269946" lon="12.3494018"><ele>352.75</ele><time>2026-04-01T07:51:13.532Z</time></trkpt><trkpt lat="43.1268609" lon="12.3492976"><ele>351.5</ele><time>2026-04-01T07:51:14.531Z</time></trkpt><trkpt lat="43.126734" lon="12.3492023"><ele>350.25</ele><time>2026-04-01T07:51:15.53Z</time></trkpt><trkpt lat="43.1266153" lon="12.3491202"><ele>349.0</ele><time>2026-04-01T07:51:16.531Z</time></trkpt><trkpt lat="43.126499" lon="12.3490335"><ele>347.0</ele><time>2026-04-01T07:51:17.53Z</time></trkpt><trkpt lat="43.1264075" lon="12.3489646"><ele>345.0</ele><time>2026-04-01T07:51:18.532Z</time></trkpt><trkpt lat="43.1263119" lon="12.348866"><ele>343.0</ele><time>2026-04-01T07:51:19.532Z</time></trkpt><trkpt lat="43.1262812" lon="12.3487851"><ele>341.0</ele><time>2026-04-01T07:51:20.532Z</time></trkpt><trkpt lat="43.1262321" lon="12.3487136"><ele>339.0</ele><time>2026-04-01T07:51:21.53Z</time></trkpt><trkpt lat="43.1261073" lon="12.3486811"><ele>339.0</ele><time>2026-04-01T07:51:23.532Z</time></trkpt><trkpt lat="43.1260446" lon="12.3487575"><ele>339.0</ele><time>2026-04-01T07:51:24.531Z</time></trkpt><trkpt lat="43.1259729" lon="12.3488138"><ele>339.0</ele><time>2026-04-01T07:51:25.53Z</time></trkpt><trkpt lat="43.1259041" lon="12.3488763"><ele>339.0</ele><time>2026-04-01T07:51:26.53Z</time></trkpt><trkpt lat="43.1258263" lon="12.348953"><ele>339.0</ele><time>2026-04-01T07:51:27.531Z</time></trkpt><trkpt lat="43.1257376" lon="12.349037"><ele>336.25</ele><time>2026-04-01T07:51:28.532Z</time></trkpt><trkpt lat="43.1256469" lon="12.3491958"><ele>333.5</ele><time>2026-04-01T07:51:29.531Z</time></trkpt><trkpt lat="43.1255581" lon="12.3493172"><ele>330.75</ele><time>2026-04-01T07:51:30.53Z</time></trkpt><trkpt lat="43.1254348" lon="12.3494433"><ele>328.0</ele><time>2026-04-01T07:51:31.532Z</time></trkpt><trkpt lat="43.1253028" lon="12.3495518"><ele>328.0</ele><time>2026-04-01T07:51:32.531Z</time></trkpt><trkpt lat="43.1251704" lon="12.3496782"><ele>328.0</ele><time>2026-04-01T07:51:33.531Z</time></trkpt><trkpt lat="43.1250047" lon="12.3497894"><ele>328.0</ele><time>2026-04-01T07:51:34.531Z</time></trkpt><trkpt lat="43.1248007" lon="12.349859"><ele>327.66666666666663</ele><time>2026-04-01T07:51:35.531Z</time></trkpt><trkpt lat="43.1246318" lon="12.349952"><ele>327.3333333333333</ele><time>2026-04-01T07:51:36.532Z</time></trkpt><trkpt lat="43.124465" lon="12.3500888"><ele>327.0</ele><time>2026-04-01T07:51:37.532Z</time></trkpt><trkpt lat="43.1243024" lon="12.3501925"><ele>327.0</ele><time>2026-04-01T07:51:38.532Z</time></trkpt><trkpt lat="43.124134" lon="12.3503391"><ele>327.0</ele><time>2026-04-01T07:51:39.532Z</time></trkpt><trkpt lat="43.1239862" lon="12.3504408"><ele>327.0</ele><time>2026-04-01T07:51:40.532Z</time></trkpt><trkpt lat="43.1238433" lon="12.3505288"><ele>326.0</ele><time>2026-04-01T07:51:41.533Z</time></trkpt><trkpt lat="43.1237097" lon="12.3506452"><ele>325.0</ele><time>2026-04-01T07:51:42.533Z</time></trkpt><trkpt lat="43.1236233" lon="12.3507841"><ele>324.0</ele><time>2026-04-01T07:51:43.533Z</time></trkpt><trkpt lat="43.123512" lon="12.3509214"><ele>323.0</ele><time>2026-04-01T07:51:44.532Z</time></trkpt><trkpt lat="43.1233831" lon="12.3510618"><ele>323.0</ele><time>2026-04-01T07:51:45.532Z</time></trkpt><trkpt lat="43.1232503" lon="12.3511852"><ele>323.0</ele><time>2026-04-01T07:51:46.532Z</time></trkpt><trkpt lat="43.123143" lon="12.3513509"><ele>323.0</ele><time>2026-04-01T07:51:47.532Z</time></trkpt><trkpt lat="43.1230521" lon="12.3514778"><ele>321.5</ele><time>2026-04-01T07:51:48.531Z</time></trkpt><trkpt lat="43.1229438" lon="12.3516182"><ele>320.0</ele><time>2026-04-01T07:51:49.532Z</time></trkpt><trkpt lat="43.1228355" lon="12.3517429"><ele>318.5</ele><time>2026-04-01T07:51:50.533Z</time></trkpt><trkpt lat="43.1227311" lon="12.3518636"><ele>317.0</ele><time>2026-04-01T07:51:51.533Z</time></trkpt><trkpt lat="43.1226305" lon="12.351981"><ele>317.0</ele><time>2026-04-01T07:51:52.532Z</time></trkpt><trkpt lat="43.1225531" lon="12.3521127"><ele>317.0</ele><time>2026-04-01T07:51:53.532Z</time></trkpt><trkpt lat="43.1224876" lon="12.3522839"><ele>317.0</ele><time>2026-04-01T07:51:54.532Z</time></trkpt><trkpt lat="43.1224194" lon="12.3524963"><ele>317.0</ele><time>2026-04-01T07:51:55.531Z</time></trkpt><trkpt lat="43.1223376" lon="12.3526343"><ele>314.8</ele><time>2026-04-01T07:51:56.533Z</time></trkpt><trkpt lat="43.1222744" lon="12.3527981"><ele>312.6</ele><time>2026-04-01T07:51:57.532Z</time></trkpt><trkpt lat="43.1222032" lon="12.3528735"><ele>310.40000000000003</ele><time>2026-04-01T07:51:58.532Z</time></trkpt><trkpt lat="43.1221636" lon="12.3529999"><ele>308.2</ele><time>2026-04-01T07:52:00.532Z</time></trkpt><trkpt lat="43.1220823" lon="12.3530291"><ele>306.0</ele><time>2026-04-01T07:52:01.533Z</time></trkpt><trkpt lat="43.1219996" lon="12.3530072"><ele>306.0</ele><time>2026-04-01T07:52:02.532Z</time></trkpt><trkpt lat="43.1219546" lon="12.3528885"><ele>306.0</ele><time>2026-04-01T07:52:03.532Z</time></trkpt><trkpt lat="43.1218682" lon="12.352833"><ele>306.0</ele><time>2026-04-01T07:52:04.533Z</time></trkpt><trkpt lat="43.1217745" lon="12.352796"><ele>306.0</ele><time>2026-04-01T07:52:05.532Z</time></trkpt><trkpt lat="43.1216789" lon="12.3527872"><ele>306.0</ele><time>2026-04-01T07:52:06.531Z</time></trkpt><trkpt lat="43.1215761" lon="12.3527474"><ele>302.0</ele><time>2026-04-01T07:52:07.532Z</time></trkpt><trkpt lat="43.1214607" lon="12.3527188"><ele>298.0</ele><time>2026-04-01T07:52:08.532Z</time></trkpt><trkpt lat="43.1213267" lon="12.3526668"><ele>294.0</ele><time>2026-04-01T07:52:09.532Z</time></trkpt><trkpt lat="43.1211522" lon="12.3525169"><ele>294.0</ele><time>2026-04-01T07:52:10.533Z</time></trkpt><trkpt lat="43.1209875" lon="12.352413"><ele>294.0</ele><time>2026-04-01T07:52:11.532Z</time></trkpt><trkpt lat="43.1208004" lon="12.3523009"><ele>294.0</ele><time>2026-04-01T07:52:12.532Z</time></trkpt><trkpt lat="43.1206305" lon="12.352182"><ele>293.0</ele><time>2026-04-01T07:52:13.532Z</time></trkpt><trkpt lat="43.1204648" lon="12.3520845"><ele>292.0</ele><time>2026-04-01T07:52:14.532Z</time></trkpt><trkpt lat="43.1202975" lon="12.3519802"><ele>291.0</ele><time>2026-04-01T07:52:15.532Z</time></trkpt><trkpt lat="43.1201907" lon="12.3518982"><ele>291.0</ele><time>2026-04-01T07:52:16.532Z</time></trkpt><trkpt lat="43.1200751" lon="12.35182"><ele>291.0</ele><time>2026-04-01T07:52:17.531Z</time></trkpt><trkpt lat="43.119961" lon="12.3517757"><ele>291.0</ele><time>2026-04-01T07:52:18.531Z</time></trkpt><trkpt lat="43.1198349" lon="12.3517565"><ele>291.0</ele><time>2026-04-01T07:52:19.53Z</time></trkpt><trkpt lat="43.1197115" lon="12.3517536"><ele>290.0</ele><time>2026-04-01T07:52:20.531Z</time></trkpt><trkpt lat="43.1195468" lon="12.3518256"><ele>289.0</ele><time>2026-04-01T07:52:21.532Z</time></trkpt><trkpt lat="43.1193811" lon="12.3519089"><ele>288.0</ele><time>2026-04-01T07:52:22.531Z</time></trkpt><trkpt lat="43.1192067" lon="12.3519833"><ele>287.6666666666667</ele><time>2026-04-01T07:52:23.531Z</time></trkpt><trkpt lat="43.1190167" lon="12.3520659"><ele>287.33333333333337</ele><time>2026-04-01T07:52:24.531Z</time></trkpt><trkpt lat="43.1188286" lon="12.3521504"><ele>287.0</ele><time>2026-04-01T07:52:25.531Z</time></trkpt><trkpt lat="43.1186307" lon="12.3522327"><ele>286.6666666666667</ele><time>2026-04-01T07:52:26.531Z</time></trkpt><trkpt lat="43.1184452" lon="12.3523216"><ele>286.3333333333333</ele><time>2026-04-01T07:52:27.531Z</time></trkpt><trkpt lat="43.1182627" lon="12.3524068"><ele>286.0</ele><time>2026-04-01T07:52:28.531Z</time></trkpt><trkpt lat="43.1181054" lon="12.3524751"><ele>284.3333333333333</ele><time>2026-04-01T07:52:29.533Z</time></trkpt><trkpt lat="43.1179392" lon="12.3525516"><ele>282.6666666666667</ele><time>2026-04-01T07:52:30.531Z</time></trkpt><trkpt lat="43.1177897" lon="12.3526228"><ele>281.0</ele><time>2026-04-01T07:52:31.532Z</time></trkpt><trkpt lat="43.1176289" lon="12.3527008"><ele>281.0</ele><time>2026-04-01T07:52:32.531Z</time></trkpt><trkpt lat="43.1174785" lon="12.352768"><ele>281.0</ele><time>2026-04-01T07:52:33.531Z</time></trkpt><trkpt lat="43.1173384" lon="12.3528393"><ele>281.0</ele><time>2026-04-01T07:52:34.532Z</time></trkpt><trkpt lat="43.117199" lon="12.3529056"><ele>281.2</ele><time>2026-04-01T07:52:35.532Z</time></trkpt><trkpt lat="43.1170727" lon="12.352945"><ele>281.40000000000003</ele><time>2026-04-01T07:52:36.531Z</time></trkpt><trkpt lat="43.1169736" lon="12.3529886"><ele>281.6</ele><time>2026-04-01T07:52:37.531Z</time></trkpt><trkpt lat="43.1168707" lon="12.3530394"><ele>281.8</ele><time>2026-04-01T07:52:38.533Z</time></trkpt><trkpt lat="43.1167838" lon="12.3530778"><ele>282.0</ele><time>2026-04-01T07:52:39.532Z</time></trkpt><trkpt lat="43.1166949" lon="12.3530853"><ele>282.4</ele><time>2026-04-01T07:52:41.531Z</time></trkpt><trkpt lat="43.1166056" lon="12.3531559"><ele>282.79999999999995</ele><time>2026-04-01T07:52:43.532Z</time></trkpt><trkpt lat="43.116538" lon="12.3533003"><ele>283.2</ele><time>2026-04-01T07:52:45.531Z</time></trkpt><trkpt lat="43.1164976" lon="12.3533784"><ele>283.59999999999997</ele><time>2026-04-01T07:52:46.531Z</time></trkpt><trkpt lat="43.1164443" lon="12.3534313"><ele>284.0</ele><time>2026-04-01T07:52:47.531Z</time></trkpt><trkpt lat="43.1163427" lon="12.3535488"><ele>284.0</ele><time>2026-04-01T07:52:48.534Z</time></trkpt><trkpt lat="43.1162566" lon="12.3536328"><ele>284.0</ele><time>2026-04-01T07:52:49.533Z</time></trkpt><trkpt lat="43.1161412" lon="12.35374"><ele>284.0</ele><time>2026-04-01T07:52:50.532Z</time></trkpt><trkpt lat="43.1159423" lon="12.3538333"><ele>283.33333333333337</ele><time>2026-04-01T07:52:51.532Z</time></trkpt><trkpt lat="43.1157642" lon="12.3539416"><ele>282.6666666666667</ele><time>2026-04-01T07:52:52.532Z</time></trkpt><trkpt lat="43.1155901" lon="12.3540477"><ele>282.0</ele><time>2026-04-01T07:52:53.532Z</time></trkpt><trkpt lat="43.1154348" lon="12.3541962"><ele>281.3333333333333</ele><time>2026-04-01T07:52:54.532Z</time></trkpt><trkpt lat="43.1152693" lon="12.3543298"><ele>280.66666666666663</ele><time>2026-04-01T07:52:55.531Z</time></trkpt><trkpt lat="43.1150907" lon="12.3544719"><ele>280.0</ele><time>2026-04-01T07:52:56.533Z</time></trkpt><trkpt lat="43.1149862" lon="12.3546894"><ele>279.3333333333333</ele><time>2026-04-01T07:52:57.532Z</time></trkpt><trkpt lat="43.1148519" lon="12.354874"><ele>278.6666666666667</ele><time>2026-04-01T07:52:58.533Z</time></trkpt><trkpt lat="43.1147318" lon="12.3550856"><ele>278.0</ele><time>2026-04-01T07:52:59.533Z</time></trkpt><trkpt lat="43.1146137" lon="12.3553388"><ele>278.5</ele><time>2026-04-01T07:53:00.532Z</time></trkpt><trkpt lat="43.1144825" lon="12.3556685"><ele>279.0</ele><time>2026-04-01T07:53:01.533Z</time></trkpt><trkpt lat="43.1144118" lon="12.3560244"><ele>279.0</ele><time>2026-04-01T07:53:02.533Z</time></trkpt><trkpt lat="43.1143161" lon="12.3563153"><ele>279.0</ele><time>2026-04-01T07:53:03.533Z</time></trkpt><trkpt lat="43.1142389" lon="12.3566415"><ele>279.0</ele><time>2026-04-01T07:53:04.532Z</time></trkpt><trkpt lat="43.1141577" lon="12.3569246"><ele>279.0</ele><time>2026-04-01T07:53:05.532Z</time></trkpt><trkpt lat="43.1140672" lon="12.3571958"><ele>279.0</ele><time>2026-04-01T07:53:06.532Z</time></trkpt><trkpt lat="43.1139788" lon="12.3574482"><ele>278.6666666666667</ele><time>2026-04-01T07:53:07.533Z</time></trkpt><trkpt lat="43.1138982" lon="12.3576946"><ele>278.33333333333337</ele><time>2026-04-01T07:53:08.532Z</time></trkpt><trkpt lat="43.1138253" lon="12.3579489"><ele>278.0</ele><time>2026-04-01T07:53:09.533Z</time></trkpt><trkpt lat="43.113748" lon="12.3581959"><ele>279.0</ele><time>2026-04-01T07:53:10.532Z</time></trkpt><trkpt lat="43.1136693" lon="12.3584528"><ele>280.0</ele><time>2026-04-01T07:53:11.532Z</time></trkpt><trkpt lat="43.1135909" lon="12.3587097"><ele>281.0</ele><time>2026-04-01T07:53:12.532Z</time></trkpt><trkpt lat="43.1135199" lon="12.3589579"><ele>281.0</ele><time>2026-04-01T07:53:13.532Z</time></trkpt><trkpt lat="43.1134673" lon="12.3591908"><ele>281.0</ele><time>2026-04-01T07:53:14.531Z</time></trkpt><trkpt lat="43.1134157" lon="12.359427"><ele>281.0</ele><time>2026-04-01T07:53:15.531Z</time></trkpt><trkpt lat="43.1133658" lon="12.3596539"><ele>281.6666666666667</ele><time>2026-04-01T07:53:16.532Z</time></trkpt><trkpt lat="43.1133268" lon="12.3598805"><ele>282.3333333333333</ele><time>2026-04-01T07:53:17.531Z</time></trkpt><trkpt lat="43.1132798" lon="12.3601006"><ele>283.0</ele><time>2026-04-01T07:53:18.531Z</time></trkpt><trkpt lat="43.1132477" lon="12.3603076"><ele>281.66666666666663</ele><time>2026-04-01T07:53:19.531Z</time></trkpt><trkpt lat="43.1132111" lon="12.3605173"><ele>280.3333333333333</ele><time>2026-04-01T07:53:20.531Z</time></trkpt><trkpt lat="43.1131735" lon="12.3607228"><ele>279.0</ele><time>2026-04-01T07:53:21.531Z</time></trkpt><trkpt lat="43.1131343" lon="12.360918"><ele>279.0</ele><time>2026-04-01T07:53:22.531Z</time></trkpt><trkpt lat="43.1131125" lon="12.3610976"><ele>279.0</ele><time>2026-04-01T07:53:23.532Z</time></trkpt><trkpt lat="43.1130825" lon="12.3612478"><ele>279.0</ele><time>2026-04-01T07:53:24.532Z</time></trkpt><trkpt lat="43.1130565" lon="12.3613641"><ele>279.0</ele><time>2026-04-01T07:53:25.53Z</time></trkpt><trkpt lat="43.1130403" lon="12.3614633"><ele>279.0</ele><time>2026-04-01T07:53:26.531Z</time></trkpt><trkpt lat="43.1130068" lon="12.3615558"><ele>279.2</ele><time>2026-04-01T07:53:27.531Z</time></trkpt><trkpt lat="43.11294" lon="12.3616273"><ele>279.4</ele><time>2026-04-01T07:53:28.532Z</time></trkpt><trkpt lat="43.112868" lon="12.3616743"><ele>279.6</ele><time>2026-04-01T07:53:29.531Z</time></trkpt><trkpt lat="43.1127936" lon="12.3617116"><ele>279.8</ele><time>2026-04-01T07:53:30.532Z</time></trkpt><trkpt lat="43.1126922" lon="12.3616246"><ele>280.0</ele><time>2026-04-01T07:53:31.533Z</time></trkpt><trkpt lat="43.1126058" lon="12.3615605"><ele>280.0</ele><time>2026-04-01T07:53:32.531Z</time></trkpt><trkpt lat="43.1125145" lon="12.3614696"><ele>280.0</ele><time>2026-04-01T07:53:33.532Z</time></trkpt><trkpt lat="43.1124139" lon="12.361363"><ele>280.0</ele><time>2026-04-01T07:53:34.532Z</time></trkpt><trkpt lat="43.1123022" lon="12.3612148"><ele>280.0</ele><time>2026-04-01T07:53:35.532Z</time></trkpt><trkpt lat="43.1121806" lon="12.3610474"><ele>279.25</ele><time>2026-04-01T07:53:36.532Z</time></trkpt><trkpt lat="43.1120667" lon="12.3608942"><ele>278.5</ele><time>2026-04-01T07:53:37.53Z</time></trkpt><trkpt lat="43.1119665" lon="12.360762"><ele>277.75</ele><time>2026-04-01T07:53:38.532Z</time></trkpt><trkpt lat="43.1118574" lon="12.3606497"><ele>277.0</ele><time>2026-04-01T07:53:39.532Z</time></trkpt><trkpt lat="43.111768" lon="12.3605548"><ele>277.16666666666663</ele><time>2026-04-01T07:53:40.531Z</time></trkpt><trkpt lat="43.1116995" lon="12.3604765"><ele>277.3333333333333</ele><time>2026-04-01T07:53:41.531Z</time></trkpt><trkpt lat="43.1116296" lon="12.360409"><ele>277.5</ele><time>2026-04-01T07:53:42.531Z</time></trkpt><trkpt lat="43.1115692" lon="12.3603635"><ele>277.6666666666667</ele><time>2026-04-01T07:53:43.531Z</time></trkpt><trkpt lat="43.1114611" lon="12.3603235"><ele>277.83333333333337</ele><time>2026-04-01T07:53:45.532Z</time></trkpt><trkpt lat="43.1113942" lon="12.3602594"><ele>278.0</ele><time>2026-04-01T07:53:48.532Z</time></trkpt><trkpt lat="43.1113394" lon="12.3601728"><ele>277.2</ele><time>2026-04-01T07:53:50.532Z</time></trkpt><trkpt lat="43.1112467" lon="12.3600895"><ele>276.4</ele><time>2026-04-01T07:53:52.531Z</time></trkpt><trkpt lat="43.1111745" lon="12.360073"><ele>275.59999999999997</ele><time>2026-04-01T07:53:53.532Z</time></trkpt><trkpt lat="43.1110836" lon="12.3600804"><ele>274.8</ele><time>2026-04-01T07:53:54.532Z</time></trkpt><trkpt lat="43.1109812" lon="12.3600789"><ele>274.0</ele><time>2026-04-01T07:53:55.531Z</time></trkpt><trkpt lat="43.1108808" lon="12.3600546"><ele>274.0</ele><time>2026-04-01T07:53:56.532Z</time></trkpt><trkpt lat="43.1107877" lon="12.3599609"><ele>274.0</ele><time>2026-04-01T07:53:57.532Z</time></trkpt><trkpt lat="43.1106848" lon="12.3598525"><ele>274.0</ele><time>2026-04-01T07:53:58.532Z</time></trkpt><trkpt lat="43.1105774" lon="12.3597526"><ele>274.0</ele><time>2026-04-01T07:53:59.531Z</time></trkpt><trkpt lat="43.1103417" lon="12.3595343"><ele>274.0</ele><time>2026-04-01T07:54:00.532Z</time></trkpt><trkpt lat="43.1101717" lon="12.3593802"><ele>274.0</ele><time>2026-04-01T07:54:01.533Z</time></trkpt><trkpt lat="43.110026" lon="12.3591732"><ele>274.0</ele><time>2026-04-01T07:54:02.532Z</time></trkpt><trkpt lat="43.1098946" lon="12.359007"><ele>273.66666666666663</ele><time>2026-04-01T07:54:03.532Z</time></trkpt><trkpt lat="43.1097686" lon="12.3588373"><ele>273.3333333333333</ele><time>2026-04-01T07:54:04.533Z</time></trkpt><trkpt lat="43.1096562" lon="12.358678"><ele>273.0</ele><time>2026-04-01T07:54:05.531Z</time></trkpt><trkpt lat="43.1095589" lon="12.3585233"><ele>273.0</ele><time>2026-04-01T07:54:06.533Z</time></trkpt><trkpt lat="43.1094756" lon="12.3583793"><ele>273.0</ele><time>2026-04-01T07:54:07.532Z</time></trkpt><trkpt lat="43.109382" lon="12.3582539"><ele>273.0</ele><time>2026-04-01T07:54:08.532Z</time></trkpt><trkpt lat="43.1093183" lon="12.3581299"><ele>273.0</ele><time>2026-04-01T07:54:09.53Z</time></trkpt><trkpt lat="43.1092999" lon="12.3580149"><ele>272.5</ele><time>2026-04-01T07:54:10.53Z</time></trkpt><trkpt lat="43.109293" lon="12.3579005"><ele>272.0</ele><time>2026-04-01T07:54:11.53Z</time></trkpt><trkpt lat="43.1092736" lon="12.3577995"><ele>271.5</ele><time>2026-04-01T07:54:12.532Z</time></trkpt><trkpt lat="43.1092088" lon="12.357718"><ele>271.0</ele><time>2026-04-01T07:54:13.531Z</time></trkpt><trkpt lat="43.1091536" lon="12.3576718"><ele>270.5</ele><time>2026-04-01T07:54:14.531Z</time></trkpt><trkpt lat="43.1090379" lon="12.357685"><ele>270.0</ele><time>2026-04-01T07:54:16.531Z</time></trkpt><trkpt lat="43.1089415" lon="12.3577742"><ele>269.6</ele><time>2026-04-01T07:54:18.532Z</time></trkpt><trkpt lat="43.1088804" lon="12.3578133"><ele>269.2</ele><time>2026-04-01T07:54:19.532Z</time></trkpt><trkpt lat="43.1088203" lon="12.3578579"><ele>268.8</ele><time>2026-04-01T07:54:20.532Z</time></trkpt><trkpt lat="43.1087314" lon="12.3578697"><ele>268.4</ele><time>2026-04-01T07:54:21.532Z</time></trkpt><trkpt lat="43.1086443" lon="12.3578824"><ele>268.0</ele><time>2026-04-01T07:54:22.531Z</time></trkpt><trkpt lat="43.1085005" lon="12.3579417"><ele>268.0</ele><time>2026-04-01T07:54:23.532Z</time></trkpt><trkpt lat="43.1083707" lon="12.3579831"><ele>268.0</ele><time>2026-04-01T07:54:24.53Z</time></trkpt><trkpt lat="43.1081968" lon="12.3580651"><ele>268.0</ele><time>2026-04-01T07:54:25.534Z</time></trkpt><trkpt lat="43.1080382" lon="12.3581312"><ele>268.0</ele><time>2026-04-01T07:54:26.532Z</time></trkpt><trkpt lat="43.1078406" lon="12.3582621"><ele>268.0</ele><time>2026-04-01T07:54:27.532Z</time></trkpt><trkpt lat="43.1076613" lon="12.3583631"><ele>268.0</ele><time>2026-04-01T07:54:28.531Z</time></trkpt><trkpt lat="43.1074853" lon="12.3584685"><ele>268.0</ele><time>2026-04-01T07:54:29.532Z</time></trkpt><trkpt lat="43.1073384" lon="12.3585563"><ele>268.0</ele><time>2026-04-01T07:54:30.532Z</time></trkpt><trkpt lat="43.1071846" lon="12.3586598"><ele>268.0</ele><time>2026-04-01T07:54:31.532Z</time></trkpt><trkpt lat="43.106993" lon="12.3587645"><ele>267.3333333333333</ele><time>2026-04-01T07:54:32.532Z</time></trkpt><trkpt lat="43.1067917" lon="12.3588792"><ele>266.6666666666667</ele><time>2026-04-01T07:54:33.532Z</time></trkpt><trkpt lat="43.1065802" lon="12.3589804"><ele>266.0</ele><time>2026-04-01T07:54:34.531Z</time></trkpt><trkpt lat="43.1063782" lon="12.3590837"><ele>265.5</ele><time>2026-04-01T07:54:35.531Z</time></trkpt><trkpt lat="43.1061626" lon="12.3591858"><ele>265.0</ele><time>2026-04-01T07:54:36.531Z</time></trkpt><trkpt lat="43.1059341" lon="12.3592888"><ele>265.5</ele><time>2026-04-01T07:54:37.531Z</time></trkpt><trkpt lat="43.1056945" lon="12.3593904"><ele>266.0</ele><time>2026-04-01T07:54:38.531Z</time></trkpt><trkpt lat="43.1054637" lon="12.3594843"><ele>266.0</ele><time>2026-04-01T07:54:39.532Z</time></trkpt><trkpt lat="43.1052282" lon="12.3595852"><ele>266.0</ele><time>2026-04-01T07:54:40.531Z</time></trkpt><trkpt lat="43.1050044" lon="12.359678"><ele>266.33333333333337</ele><time>2026-04-01T07:54:41.533Z</time></trkpt><trkpt lat="43.10479" lon="12.3597654"><ele>266.6666666666667</ele><time>2026-04-01T07:54:42.532Z</time></trkpt><trkpt lat="43.1045832" lon="12.359821"><ele>267.0</ele><time>2026-04-01T07:54:43.532Z</time></trkpt><trkpt lat="43.1043808" lon="12.359853"><ele>267.0</ele><time>2026-04-01T07:54:44.532Z</time></trkpt><trkpt lat="43.1041623" lon="12.3598615"><ele>267.0</ele><time>2026-04-01T07:54:45.531Z</time></trkpt><trkpt lat="43.103946" lon="12.3598488"><ele>267.0</ele><time>2026-04-01T07:54:46.53Z</time></trkpt><trkpt lat="43.103725" lon="12.3598051"><ele>267.0</ele><time>2026-04-01T07:54:47.531Z</time></trkpt><trkpt lat="43.1034826" lon="12.3596997"><ele>267.0</ele><time>2026-04-01T07:54:48.532Z</time></trkpt><trkpt lat="43.1032582" lon="12.3595781"><ele>266.5</ele><time>2026-04-01T07:54:49.533Z</time></trkpt><trkpt lat="43.1030351" lon="12.3594293"><ele>266.0</ele><time>2026-04-01T07:54:50.531Z</time></trkpt><trkpt lat="43.1028279" lon="12.3592706"><ele>266.0</ele><time>2026-04-01T07:54:51.532Z</time></trkpt><trkpt lat="43.1026531" lon="12.3590996"><ele>266.0</ele><time>2026-04-01T07:54:52.532Z</time></trkpt><trkpt lat="43.1024867" lon="12.3589564"><ele>266.0</ele><time>2026-04-01T07:54:53.531Z</time></trkpt><trkpt lat="43.1022991" lon="12.3588238"><ele>266.0</ele><time>2026-04-01T07:54:54.533Z</time></trkpt><trkpt lat="43.1021727" lon="12.3586858"><ele>266.0</ele><time>2026-04-01T07:54:55.532Z</time></trkpt><trkpt lat="43.1020208" lon="12.3585619"><ele>266.0</ele><time>2026-04-01T07:54:56.531Z</time></trkpt><trkpt lat="43.101864" lon="12.358441"><ele>266.0</ele><time>2026-04-01T07:54:57.532Z</time></trkpt><trkpt lat="43.1017061" lon="12.3583202"><ele>266.0</ele><time>2026-04-01T07:54:58.532Z</time></trkpt><trkpt lat="43.1015574" lon="12.3581858"><ele>266.0</ele><time>2026-04-01T07:54:59.532Z</time></trkpt><trkpt lat="43.1014" lon="12.3580535"><ele>265.6666666666667</ele><time>2026-04-01T07:55:00.532Z</time></trkpt><trkpt lat="43.1012554" lon="12.3579371"><ele>265.3333333333333</ele><time>2026-04-01T07:55:01.532Z</time></trkpt><trkpt lat="43.1011149" lon="12.35782"><ele>265.0</ele><time>2026-04-01T07:55:02.532Z</time></trkpt><trkpt lat="43.1010005" lon="12.3577267"><ele>265.0</ele><time>2026-04-01T07:55:03.531Z</time></trkpt><trkpt lat="43.1008979" lon="12.3576301"><ele>265.0</ele><time>2026-04-01T07:55:04.531Z</time></trkpt><trkpt lat="43.1008568" lon="12.3575407"><ele>265.0</ele><time>2026-04-01T07:55:05.532Z</time></trkpt><trkpt lat="43.1007948" lon="12.3574413"><ele>265.0</ele><time>2026-04-01T07:55:06.532Z</time></trkpt><trkpt lat="43.1007232" lon="12.3573805"><ele>265.0</ele><time>2026-04-01T07:55:07.532Z</time></trkpt><trkpt lat="43.1006368" lon="12.357342"><ele>264.2</ele><time>2026-04-01T07:55:08.533Z</time></trkpt><trkpt lat="43.1005509" lon="12.35731"><ele>263.4</ele><time>2026-04-01T07:55:09.533Z</time></trkpt><trkpt lat="43.1004689" lon="12.3572496"><ele>262.6</ele><time>2026-04-01T07:55:10.533Z</time></trkpt><trkpt lat="43.1003909" lon="12.3571862"><ele>261.8</ele><time>2026-04-01T07:55:11.532Z</time></trkpt><trkpt lat="43.1003086" lon="12.3571439"><ele>261.0</ele><time>2026-04-01T07:55:12.531Z</time></trkpt><trkpt lat="43.1001624" lon="12.3570763"><ele>261.0</ele><time>2026-04-01T07:55:13.531Z</time></trkpt><trkpt lat="43.1000015" lon="12.3569995"><ele>261.0</ele><time>2026-04-01T07:55:14.532Z</time></trkpt><trkpt lat="43.0998498" lon="12.3569356"><ele>261.0</ele><time>2026-04-01T07:55:15.533Z</time></trkpt><trkpt lat="43.099661" lon="12.3568124"><ele>261.0</ele><time>2026-04-01T07:55:16.532Z</time></trkpt><trkpt lat="43.0994814" lon="12.3567218"><ele>261.0</ele><time>2026-04-01T07:55:17.532Z</time></trkpt><trkpt lat="43.0993154" lon="12.356635"><ele>261.0</ele><time>2026-04-01T07:55:18.533Z</time></trkpt><trkpt lat="43.0991497" lon="12.3565513"><ele>261.5</ele><time>2026-04-01T07:55:19.533Z</time></trkpt><trkpt lat="43.0990227" lon="12.3565307"><ele>262.0</ele><time>2026-04-01T07:55:20.532Z</time></trkpt><trkpt lat="43.098892" lon="12.3564901"><ele>262.5</ele><time>2026-04-01T07:55:21.532Z</time></trkpt><trkpt lat="43.0987688" lon="12.3564664"><ele>263.0</ele><time>2026-04-01T07:55:22.53Z</time></trkpt><trkpt lat="43.0986975" lon="12.356457"><ele>263.0</ele><time>2026-04-01T07:55:23.531Z</time></trkpt><trkpt lat="43.0985668" lon="12.3564636"><ele>263.0</ele><time>2026-04-01T07:55:25.531Z</time></trkpt><trkpt lat="43.0984875" lon="12.3564558"><ele>263.0</ele><time>2026-04-01T07:55:26.532Z</time></trkpt><trkpt lat="43.0983983" lon="12.3564271"><ele>263.0</ele><time>2026-04-01T07:55:27.532Z</time></trkpt><trkpt lat="43.0983155" lon="12.3563973"><ele>263.0</ele><time>2026-04-01T07:55:28.532Z</time></trkpt><trkpt lat="43.0982372" lon="12.3563117"><ele>262.7142857142857</ele><time>2026-04-01T07:55:29.532Z</time></trkpt><trkpt lat="43.0981583" lon="12.3562479"><ele>262.4285714285714</ele><time>2026-04-01T07:55:30.532Z</time></trkpt><trkpt lat="43.098101" lon="12.356202"><ele>262.1428571428571</ele><time>2026-04-01T07:55:31.531Z</time></trkpt><trkpt lat="43.0980353" lon="12.3561857"><ele>261.85714285714283</ele><time>2026-04-01T07:55:32.533Z</time></trkpt><trkpt lat="43.097969" lon="12.3561965"><ele>261.57142857142856</ele><time>2026-04-01T07:55:33.532Z</time></trkpt><trkpt lat="43.097912" lon="12.3562341"><ele>261.2857142857143</ele><time>2026-04-01T07:55:34.533Z</time></trkpt><trkpt lat="43.0978577" lon="12.356306"><ele>261.0</ele><time>2026-04-01T07:55:35.532Z</time></trkpt><trkpt lat="43.0977975" lon="12.3563754"><ele>261.8</ele><time>2026-04-01T07:55:36.532Z</time></trkpt><trkpt lat="43.09777" lon="12.3564791"><ele>262.6</ele><time>2026-04-01T07:55:37.532Z</time></trkpt><trkpt lat="43.097803" lon="12.3565971"><ele>263.4</ele><time>2026-04-01T07:55:38.532Z</time></trkpt><trkpt lat="43.0978467" lon="12.3567118"><ele>264.2</ele><time>2026-04-01T07:55:39.531Z</time></trkpt><trkpt lat="43.0979087" lon="12.3568263"><ele>265.0</ele><time>2026-04-01T07:55:40.532Z</time></trkpt><trkpt lat="43.0979676" lon="12.3569775"><ele>265.0</ele><time>2026-04-01T07:55:41.532Z</time></trkpt><trkpt lat="43.0980092" lon="12.3571617"><ele>265.0</ele><time>2026-04-01T07:55:42.533Z</time></trkpt><trkpt lat="43.0980322" lon="12.3573614"><ele>265.0</ele><time>2026-04-01T07:55:43.532Z</time></trkpt><trkpt lat="43.0979783" lon="12.3575766"><ele>267.66666666666663</ele><time>2026-04-01T07:55:44.533Z</time></trkpt><trkpt lat="43.0979295" lon="12.3578171"><ele>270.3333333333333</ele><time>2026-04-01T07:55:45.532Z</time></trkpt><trkpt lat="43.0978562" lon="12.3580598"><ele>273.0</ele><time>2026-04-01T07:55:46.533Z</time></trkpt><trkpt lat="43.0977879" lon="12.3583133"><ele>273.0</ele><time>2026-04-01T07:55:47.532Z</time></trkpt><trkpt lat="43.0976328" lon="12.3584668"><ele>273.0</ele><time>2026-04-01T07:55:48.532Z</time></trkpt><trkpt lat="43.0975332" lon="12.3586554"><ele>273.0</ele><time>2026-04-01T07:55:49.532Z</time></trkpt><trkpt lat="43.0973052" lon="12.3585732"><ele>272.25</ele><time>2026-04-01T07:55:50.532Z</time></trkpt><trkpt lat="43.097152" lon="12.3585974"><ele>271.5</ele><time>2026-04-01T07:55:51.532Z</time></trkpt><trkpt lat="43.0970262" lon="12.3585786"><ele>270.75</ele><time>2026-04-01T07:55:52.532Z</time></trkpt><trkpt lat="43.096903" lon="12.3584869"><ele>270.0</ele><time>2026-04-01T07:55:53.532Z</time></trkpt><trkpt lat="43.0968352" lon="12.3583181"><ele>270.0</ele><time>2026-04-01T07:55:54.532Z</time></trkpt><trkpt lat="43.0968021" lon="12.3581401"><ele>270.0</ele><time>2026-04-01T07:55:55.533Z</time></trkpt><trkpt lat="43.0968802" lon="12.3579374"><ele>270.0</ele><time>2026-04-01T07:55:56.533Z</time></trkpt><trkpt lat="43.0969061" lon="12.3577509"><ele>270.0</ele><time>2026-04-01T07:55:57.533Z</time></trkpt><trkpt lat="43.0969609" lon="12.3575407"><ele>270.0</ele><time>2026-04-01T07:55:58.531Z</time></trkpt><trkpt lat="43.0970463" lon="12.3573156"><ele>270.0</ele><time>2026-04-01T07:55:59.531Z</time></trkpt><trkpt lat="43.097162" lon="12.3570752"><ele>270.0</ele><time>2026-04-01T07:56:00.533Z</time></trkpt><trkpt lat="43.0972804" lon="12.3568095"><ele>266.5</ele><time>2026-04-01T07:56:01.532Z</time></trkpt><trkpt lat="43.0974015" lon="12.3565462"><ele>263.0</ele><time>2026-04-01T07:56:02.531Z</time></trkpt><trkpt lat="43.0975391" lon="12.356247"><ele>262.0</ele><time>2026-04-01T07:56:03.533Z</time></trkpt><trkpt lat="43.0976846" lon="12.3559601"><ele>261.0</ele><time>2026-04-01T07:56:04.533Z</time></trkpt><trkpt lat="43.0978325" lon="12.3556621"><ele>261.0</ele><time>2026-04-01T07:56:05.532Z</time></trkpt><trkpt lat="43.0979772" lon="12.3553539"><ele>261.0</ele><time>2026-04-01T07:56:06.531Z</time></trkpt><trkpt lat="43.0981193" lon="12.3550397"><ele>263.0</ele><time>2026-04-01T07:56:07.532Z</time></trkpt><trkpt lat="43.0982671" lon="12.35473"><ele>265.0</ele><time>2026-04-01T07:56:08.532Z</time></trkpt><trkpt lat="43.0984189" lon="12.3544292"><ele>265.0</ele><time>2026-04-01T07:56:09.531Z</time></trkpt><trkpt lat="43.0985665" lon="12.3541187"><ele>265.0</ele><time>2026-04-01T07:56:10.532Z</time></trkpt><trkpt lat="43.0987084" lon="12.3538034"><ele>266.5</ele><time>2026-04-01T07:56:11.531Z</time></trkpt><trkpt lat="43.098858" lon="12.3534835"><ele>268.0</ele><time>2026-04-01T07:56:12.532Z</time></trkpt><trkpt lat="43.0990035" lon="12.3531695"><ele>269.0</ele><time>2026-04-01T07:56:13.531Z</time></trkpt><trkpt lat="43.0991475" lon="12.3528584"><ele>270.0</ele><time>2026-04-01T07:56:14.532Z</time></trkpt><trkpt lat="43.0993036" lon="12.352554"><ele>270.0</ele><time>2026-04-01T07:56:15.532Z</time></trkpt><trkpt lat="43.0994485" lon="12.3522323"><ele>270.0</ele><time>2026-04-01T07:56:16.533Z</time></trkpt><trkpt lat="43.0995822" lon="12.3519193"><ele>271.0</ele><time>2026-04-01T07:56:17.533Z</time></trkpt><trkpt lat="43.0997239" lon="12.3516143"><ele>272.0</ele><time>2026-04-01T07:56:18.532Z</time></trkpt><trkpt lat="43.0998511" lon="12.3512997"><ele>271.5</ele><time>2026-04-01T07:56:19.532Z</time></trkpt><trkpt lat="43.0999702" lon="12.3509818"><ele>271.0</ele><time>2026-04-01T07:56:20.531Z</time></trkpt><trkpt lat="43.1000898" lon="12.350669"><ele>274.5</ele><time>2026-04-01T07:56:21.532Z</time></trkpt><trkpt lat="43.100194" lon="12.3503553"><ele>278.0</ele><time>2026-04-01T07:56:22.532Z</time></trkpt><trkpt lat="43.1002904" lon="12.3500321"><ele>283.5</ele><time>2026-04-01T07:56:23.533Z</time></trkpt><trkpt lat="43.100382" lon="12.3497007"><ele>289.0</ele><time>2026-04-01T07:56:24.533Z</time></trkpt><trkpt lat="43.1004687" lon="12.3493705"><ele>289.0</ele><time>2026-04-01T07:56:25.531Z</time></trkpt><trkpt lat="43.1005487" lon="12.34904"><ele>289.0</ele><time>2026-04-01T07:56:26.531Z</time></trkpt><trkpt lat="43.1006259" lon="12.3486989"><ele>288.0</ele><time>2026-04-01T07:56:27.532Z</time></trkpt><trkpt lat="43.1007036" lon="12.3483519"><ele>287.0</ele><time>2026-04-01T07:56:28.533Z</time></trkpt><trkpt lat="43.1007745" lon="12.3479992"><ele>287.0</ele><time>2026-04-01T07:56:29.531Z</time></trkpt><trkpt lat="43.1008479" lon="12.3476583"><ele>287.0</ele><time>2026-04-01T07:56:30.532Z</time></trkpt><trkpt lat="43.1009207" lon="12.3473146"><ele>288.0</ele><time>2026-04-01T07:56:31.533Z</time></trkpt><trkpt lat="43.1009878" lon="12.3469748"><ele>289.0</ele><time>2026-04-01T07:56:32.532Z</time></trkpt><trkpt lat="43.101052" lon="12.3466296"><ele>290.5</ele><time>2026-04-01T07:56:33.533Z</time></trkpt><trkpt lat="43.1011309" lon="12.3462919"><ele>292.0</ele><time>2026-04-01T07:56:34.533Z</time></trkpt><trkpt lat="43.1012018" lon="12.3459557"><ele>292.0</ele><time>2026-04-01T07:56:35.532Z</time></trkpt><trkpt lat="43.1012699" lon="12.3456218"><ele>292.0</ele><time>2026-04-01T07:56:36.532Z</time></trkpt><trkpt lat="43.1013344" lon="12.345283"><ele>296.0</ele><time>2026-04-01T07:56:37.532Z</time></trkpt><trkpt lat="43.1014317" lon="12.3449745"><ele>300.0</ele><time>2026-04-01T07:56:38.533Z</time></trkpt><trkpt lat="43.1015337" lon="12.3446576"><ele>299.5</ele><time>2026-04-01T07:56:39.532Z</time></trkpt><trkpt lat="43.1016913" lon="12.344367"><ele>299.0</ele><time>2026-04-01T07:56:40.534Z</time></trkpt><trkpt lat="43.1018339" lon="12.3440688"><ele>299.5</ele><time>2026-04-01T07:56:41.533Z</time></trkpt><trkpt lat="43.101992" lon="12.3437907"><ele>300.0</ele><time>2026-04-01T07:56:42.532Z</time></trkpt><trkpt lat="43.1021466" lon="12.3434981"><ele>300.0</ele><time>2026-04-01T07:56:43.531Z</time></trkpt><trkpt lat="43.1023038" lon="12.343196"><ele>300.0</ele><time>2026-04-01T07:56:44.531Z</time></trkpt><trkpt lat="43.1024558" lon="12.3429155"><ele>298.5</ele><time>2026-04-01T07:56:45.532Z</time></trkpt><trkpt lat="43.1026091" lon="12.3426289"><ele>297.0</ele><time>2026-04-01T07:56:46.533Z</time></trkpt><trkpt lat="43.1027632" lon="12.3423361"><ele>300.5</ele><time>2026-04-01T07:56:47.532Z</time></trkpt><trkpt lat="43.1029106" lon="12.3420423"><ele>304.0</ele><time>2026-04-01T07:56:48.533Z</time></trkpt><trkpt lat="43.1030627" lon="12.3417489"><ele>304.0</ele><time>2026-04-01T07:56:49.532Z</time></trkpt><trkpt lat="43.1032174" lon="12.3414693"><ele>304.0</ele><time>2026-04-01T07:56:50.532Z</time></trkpt><trkpt lat="43.1033764" lon="12.3411881"><ele>303.0</ele><time>2026-04-01T07:56:51.533Z</time></trkpt><trkpt lat="43.1035267" lon="12.3408926"><ele>302.0</ele><time>2026-04-01T07:56:52.532Z</time></trkpt><trkpt lat="43.1036734" lon="12.3405994"><ele>303.5</ele><time>2026-04-01T07:56:53.533Z</time></trkpt><trkpt lat="43.1038219" lon="12.3403079"><ele>305.0</ele><time>2026-04-01T07:56:54.531Z</time></trkpt><trkpt lat="43.1039599" lon="12.3400085"><ele>304.0</ele><time>2026-04-01T07:56:55.534Z</time></trkpt><trkpt lat="43.1040985" lon="12.3397136"><ele>303.0</ele><time>2026-04-01T07:56:56.533Z</time></trkpt><trkpt lat="43.1042267" lon="12.3394078"><ele>303.0</ele><time>2026-04-01T07:56:57.532Z</time></trkpt><trkpt lat="43.1043385" lon="12.3390877"><ele>303.0</ele><time>2026-04-01T07:56:58.533Z</time></trkpt><trkpt lat="43.104457" lon="12.3387726"><ele>303.5</ele><time>2026-04-01T07:56:59.532Z</time></trkpt><trkpt lat="43.1045655" lon="12.3384509"><ele>304.0</ele><time>2026-04-01T07:57:00.532Z</time></trkpt><trkpt lat="43.1046696" lon="12.3381396"><ele>306.0</ele><time>2026-04-01T07:57:01.533Z</time></trkpt><trkpt lat="43.1047461" lon="12.337799"><ele>308.0</ele><time>2026-04-01T07:57:02.532Z</time></trkpt><trkpt lat="43.1048355" lon="12.3374632"><ele>306.0</ele><time>2026-04-01T07:57:03.531Z</time></trkpt><trkpt lat="43.1049051" lon="12.3371227"><ele>304.0</ele><time>2026-04-01T07:57:04.532Z</time></trkpt><trkpt lat="43.1049834" lon="12.3367861"><ele>304.0</ele><time>2026-04-01T07:57:05.532Z</time></trkpt><trkpt lat="43.1050558" lon="12.3364612"><ele>304.0</ele><time>2026-04-01T07:57:06.532Z</time></trkpt><trkpt lat="43.1051232" lon="12.3361492"><ele>305.0</ele><time>2026-04-01T07:57:07.532Z</time></trkpt><trkpt lat="43.1051959" lon="12.3358474"><ele>306.0</ele><time>2026-04-01T07:57:08.532Z</time></trkpt><trkpt lat="43.1052646" lon="12.3355382"><ele>309.5</ele><time>2026-04-01T07:57:09.532Z</time></trkpt><trkpt lat="43.1053341" lon="12.3352233"><ele>313.0</ele><time>2026-04-01T07:57:10.532Z</time></trkpt><trkpt lat="43.1054019" lon="12.3349178"><ele>314.0</ele><time>2026-04-01T07:57:11.533Z</time></trkpt><trkpt lat="43.1054685" lon="12.3346131"><ele>315.0</ele><time>2026-04-01T07:57:12.532Z</time></trkpt><trkpt lat="43.1055253" lon="12.3343254"><ele>315.0</ele><time>2026-04-01T07:57:13.532Z</time></trkpt><trkpt lat="43.1055806" lon="12.3340579"><ele>315.0</ele><time>2026-04-01T07:57:14.532Z</time></trkpt><trkpt lat="43.1056282" lon="12.3337938"><ele>315.0</ele><time>2026-04-01T07:57:15.532Z</time></trkpt><trkpt lat="43.1056756" lon="12.3335278"><ele>315.0</ele><time>2026-04-01T07:57:16.533Z</time></trkpt><trkpt lat="43.1057214" lon="12.3332752"><ele>315.0</ele><time>2026-04-01T07:57:17.532Z</time></trkpt><trkpt lat="43.1057752" lon="12.3330053"><ele>315.0</ele><time>2026-04-01T07:57:18.531Z</time></trkpt><trkpt lat="43.1058327" lon="12.3327288"><ele>310.5</ele><time>2026-04-01T07:57:19.533Z</time></trkpt><trkpt lat="43.1058997" lon="12.3324381"><ele>306.0</ele><time>2026-04-01T07:57:20.532Z</time></trkpt><trkpt lat="43.1059583" lon="12.3321267"><ele>306.0</ele><time>2026-04-01T07:57:21.531Z</time></trkpt><trkpt lat="43.1060086" lon="12.3318058"><ele>306.0</ele><time>2026-04-01T07:57:22.532Z</time></trkpt><trkpt lat="43.1060559" lon="12.3314754"><ele>308.0</ele><time>2026-04-01T07:57:23.533Z</time></trkpt><trkpt lat="43.1060926" lon="12.3311295"><ele>310.0</ele><time>2026-04-01T07:57:24.533Z</time></trkpt><trkpt lat="43.1061113" lon="12.3307847"><ele>311.5</ele><time>2026-04-01T07:57:25.532Z</time></trkpt><trkpt lat="43.106126" lon="12.330434"><ele>313.0</ele><time>2026-04-01T07:57:26.533Z</time></trkpt><trkpt lat="43.1061252" lon="12.3300906"><ele>313.0</ele><time>2026-04-01T07:57:27.533Z</time></trkpt><trkpt lat="43.106109" lon="12.3297364"><ele>313.0</ele><time>2026-04-01T07:57:28.534Z</time></trkpt><trkpt lat="43.1060647" lon="12.3293944"><ele>309.0</ele><time>2026-04-01T07:57:29.533Z</time></trkpt><trkpt lat="43.106012" lon="12.3290396"><ele>305.0</ele><time>2026-04-01T07:57:30.532Z</time></trkpt><trkpt lat="43.1059698" lon="12.3286903"><ele>302.0</ele><time>2026-04-01T07:57:31.533Z</time></trkpt><trkpt lat="43.1059037" lon="12.3283532"><ele>299.0</ele><time>2026-04-01T07:57:32.532Z</time></trkpt><trkpt lat="43.1058279" lon="12.3280157"><ele>298.0</ele><time>2026-04-01T07:57:33.532Z</time></trkpt><trkpt lat="43.1057484" lon="12.3276741"><ele>297.0</ele><time>2026-04-01T07:57:34.534Z</time></trkpt><trkpt lat="43.1056499" lon="12.3273467"><ele>295.5</ele><time>2026-04-01T07:57:35.532Z</time></trkpt><trkpt lat="43.1055324" lon="12.3270234"><ele>294.0</ele><time>2026-04-01T07:57:36.532Z</time></trkpt><trkpt lat="43.1054189" lon="12.3266997"><ele>292.0</ele><time>2026-04-01T07:57:37.533Z</time></trkpt><trkpt lat="43.105312" lon="12.3263776"><ele>290.0</ele><time>2026-04-01T07:57:38.532Z</time></trkpt><trkpt lat="43.1051939" lon="12.3260531"><ele>290.0</ele><time>2026-04-01T07:57:39.533Z</time></trkpt><trkpt lat="43.1050802" lon="12.3257423"><ele>290.0</ele><time>2026-04-01T07:57:40.532Z</time></trkpt><trkpt lat="43.1049681" lon="12.3254164"><ele>287.0</ele><time>2026-04-01T07:57:41.533Z</time></trkpt><trkpt lat="43.1048585" lon="12.3250955"><ele>284.0</ele><time>2026-04-01T07:57:42.532Z</time></trkpt><trkpt lat="43.1047456" lon="12.3247719"><ele>283.0</ele><time>2026-04-01T07:57:43.532Z</time></trkpt><trkpt lat="43.1046297" lon="12.3244525"><ele>282.0</ele><time>2026-04-01T07:57:44.532Z</time></trkpt><trkpt lat="43.1045164" lon="12.3241328"><ele>282.5</ele><time>2026-04-01T07:57:45.531Z</time></trkpt><trkpt lat="43.1044132" lon="12.323808"><ele>283.0</ele><time>2026-04-01T07:57:46.532Z</time></trkpt><trkpt lat="43.1043087" lon="12.3234957"><ele>283.0</ele><time>2026-04-01T07:57:47.533Z</time></trkpt><trkpt lat="43.1041996" lon="12.3231672"><ele>283.0</ele><time>2026-04-01T07:57:48.531Z</time></trkpt><trkpt lat="43.1040941" lon="12.3228315"><ele>281.0</ele><time>2026-04-01T07:57:49.533Z</time></trkpt><trkpt lat="43.103983" lon="12.3225101"><ele>279.0</ele><time>2026-04-01T07:57:50.531Z</time></trkpt><trkpt lat="43.1038653" lon="12.3221874"><ele>279.0</ele><time>2026-04-01T07:57:51.532Z</time></trkpt><trkpt lat="43.1037513" lon="12.3218607"><ele>279.0</ele><time>2026-04-01T07:57:52.532Z</time></trkpt><trkpt lat="43.103647" lon="12.3215323"><ele>279.5</ele><time>2026-04-01T07:57:53.533Z</time></trkpt><trkpt lat="43.1035463" lon="12.321193"><ele>280.0</ele><time>2026-04-01T07:57:54.533Z</time></trkpt><trkpt lat="43.1034396" lon="12.3208549"><ele>280.0</ele><time>2026-04-01T07:57:55.531Z</time></trkpt><trkpt lat="43.103337" lon="12.3205585"><ele>280.0</ele><time>2026-04-01T07:57:56.531Z</time></trkpt><trkpt lat="43.1032304" lon="12.320228"><ele>278.0</ele><time>2026-04-01T07:57:57.532Z</time></trkpt><trkpt lat="43.1031327" lon="12.3198965"><ele>276.0</ele><time>2026-04-01T07:57:58.532Z</time></trkpt><trkpt lat="43.1030129" lon="12.3195905"><ele>276.0</ele><time>2026-04-01T07:57:59.532Z</time></trkpt><trkpt lat="43.1029247" lon="12.319293"><ele>276.0</ele><time>2026-04-01T07:58:00.533Z</time></trkpt><trkpt lat="43.1028317" lon="12.3189576"><ele>275.5</ele><time>2026-04-01T07:58:01.532Z</time></trkpt><trkpt lat="43.1027535" lon="12.3186027"><ele>275.0</ele><time>2026-04-01T07:58:02.533Z</time></trkpt><trkpt lat="43.1026397" lon="12.3182843"><ele>274.5</ele><time>2026-04-01T07:58:03.532Z</time></trkpt><trkpt lat="43.1025476" lon="12.3179446"><ele>274.0</ele><time>2026-04-01T07:58:04.533Z</time></trkpt><trkpt lat="43.1024729" lon="12.3175913"><ele>271.0</ele><time>2026-04-01T07:58:05.533Z</time></trkpt><trkpt lat="43.1024024" lon="12.3172521"><ele>268.0</ele><time>2026-04-01T07:58:06.533Z</time></trkpt><trkpt lat="43.102332" lon="12.3169145"><ele>267.5</ele><time>2026-04-01T07:58:07.532Z</time></trkpt><trkpt lat="43.1022669" lon="12.316558"><ele>267.0</ele><time>2026-04-01T07:58:08.533Z</time></trkpt><trkpt lat="43.1022038" lon="12.3161845"><ele>267.0</ele><time>2026-04-01T07:58:09.532Z</time></trkpt><trkpt lat="43.1021473" lon="12.3158349"><ele>267.0</ele><time>2026-04-01T07:58:10.531Z</time></trkpt><trkpt lat="43.1020977" lon="12.3154743"><ele>267.0</ele><time>2026-04-01T07:58:11.534Z</time></trkpt><trkpt lat="43.1020483" lon="12.3151233"><ele>267.0</ele><time>2026-04-01T07:58:12.532Z</time></trkpt><trkpt lat="43.1019974" lon="12.3147648"><ele>266.5</ele><time>2026-04-01T07:58:13.534Z</time></trkpt><trkpt lat="43.1019525" lon="12.3144123"><ele>266.0</ele><time>2026-04-01T07:58:14.532Z</time></trkpt><trkpt lat="43.1019085" lon="12.3140761"><ele>265.5</ele><time>2026-04-01T07:58:15.531Z</time></trkpt><trkpt lat="43.1018515" lon="12.3137094"><ele>265.0</ele><time>2026-04-01T07:58:16.533Z</time></trkpt><trkpt lat="43.1017988" lon="12.3133608"><ele>264.0</ele><time>2026-04-01T07:58:17.532Z</time></trkpt><trkpt lat="43.1017409" lon="12.3130272"><ele>263.0</ele><time>2026-04-01T07:58:18.533Z</time></trkpt><trkpt lat="43.101698" lon="12.3126748"><ele>263.0</ele><time>2026-04-01T07:58:19.532Z</time></trkpt><trkpt lat="43.101654" lon="12.3123291"><ele>263.0</ele><time>2026-04-01T07:58:20.532Z</time></trkpt><trkpt lat="43.1015947" lon="12.3119679"><ele>261.0</ele><time>2026-04-01T07:58:21.533Z</time></trkpt><trkpt lat="43.1015485" lon="12.3116095"><ele>259.0</ele><time>2026-04-01T07:58:22.532Z</time></trkpt><trkpt lat="43.1014817" lon="12.3112103"><ele>257.0</ele><time>2026-04-01T07:58:23.532Z</time></trkpt><trkpt lat="43.1014111" lon="12.3107794"><ele>255.0</ele><time>2026-04-01T07:58:24.532Z</time></trkpt><trkpt lat="43.1013538" lon="12.3103484"><ele>254.5</ele><time>2026-04-01T07:58:25.534Z</time></trkpt><trkpt lat="43.1012872" lon="12.3099353"><ele>254.0</ele><time>2026-04-01T07:58:26.532Z</time></trkpt><trkpt lat="43.101234" lon="12.3095384"><ele>254.0</ele><time>2026-04-01T07:58:27.533Z</time></trkpt><trkpt lat="43.1011872" lon="12.3091696"><ele>254.0</ele><time>2026-04-01T07:58:28.533Z</time></trkpt><trkpt lat="43.1011426" lon="12.3088191"><ele>252.0</ele><time>2026-04-01T07:58:29.531Z</time></trkpt><trkpt lat="43.1011023" lon="12.3084747"><ele>250.0</ele><time>2026-04-01T07:58:30.531Z</time></trkpt><trkpt lat="43.1010544" lon="12.3081497"><ele>251.0</ele><time>2026-04-01T07:58:31.533Z</time></trkpt><trkpt lat="43.1010113" lon="12.3078394"><ele>252.0</ele><time>2026-04-01T07:58:32.532Z</time></trkpt><trkpt lat="43.1009832" lon="12.3075405"><ele>252.0</ele><time>2026-04-01T07:58:33.533Z</time></trkpt><trkpt lat="43.1009567" lon="12.3072304"><ele>252.0</ele><time>2026-04-01T07:58:34.533Z</time></trkpt><trkpt lat="43.1009236" lon="12.3069111"><ele>252.0</ele><time>2026-04-01T07:58:35.532Z</time></trkpt><trkpt lat="43.1008954" lon="12.3065351"><ele>252.0</ele><time>2026-04-01T07:58:36.532Z</time></trkpt><trkpt lat="43.1008762" lon="12.3061297"><ele>251.0</ele><time>2026-04-01T07:58:37.533Z</time></trkpt><trkpt lat="43.1008897" lon="12.3056832"><ele>250.0</ele><time>2026-04-01T07:58:38.532Z</time></trkpt><trkpt lat="43.1009085" lon="12.3052161"><ele>247.5</ele><time>2026-04-01T07:58:39.532Z</time></trkpt><trkpt lat="43.1009362" lon="12.3047434"><ele>245.0</ele><time>2026-04-01T07:58:40.531Z</time></trkpt><trkpt lat="43.1009709" lon="12.3042726"><ele>245.0</ele><time>2026-04-01T07:58:41.532Z</time></trkpt><trkpt lat="43.1010095" lon="12.30382"><ele>245.0</ele><time>2026-04-01T07:58:42.532Z</time></trkpt><trkpt lat="43.1010401" lon="12.3033574"><ele>246.0</ele><time>2026-04-01T07:58:43.532Z</time></trkpt><trkpt lat="43.1010849" lon="12.302944"><ele>247.0</ele><time>2026-04-01T07:58:44.532Z</time></trkpt><trkpt lat="43.1011162" lon="12.3025522"><ele>248.0</ele><time>2026-04-01T07:58:45.533Z</time></trkpt><trkpt lat="43.1011463" lon="12.3021581"><ele>249.0</ele><time>2026-04-01T07:58:46.534Z</time></trkpt><trkpt lat="43.1011812" lon="12.3017698"><ele>248.0</ele><time>2026-04-01T07:58:47.532Z</time></trkpt><trkpt lat="43.1012165" lon="12.3013879"><ele>247.0</ele><time>2026-04-01T07:58:48.533Z</time></trkpt><trkpt lat="43.1012477" lon="12.3010155"><ele>247.0</ele><time>2026-04-01T07:58:49.532Z</time></trkpt><trkpt lat="43.1012759" lon="12.3006607"><ele>247.0</ele><time>2026-04-01T07:58:50.532Z</time></trkpt><trkpt lat="43.1013133" lon="12.3003043"><ele>245.0</ele><time>2026-04-01T07:58:51.533Z</time></trkpt><trkpt lat="43.10135" lon="12.2999592"><ele>243.0</ele><time>2026-04-01T07:58:52.532Z</time></trkpt><trkpt lat="43.1014098" lon="12.2996329"><ele>241.5</ele><time>2026-04-01T07:58:53.533Z</time></trkpt><trkpt lat="43.1014612" lon="12.2993331"><ele>240.0</ele><time>2026-04-01T07:58:54.532Z</time></trkpt><trkpt lat="43.1015277" lon="12.2990143"><ele>241.33333333333331</ele><time>2026-04-01T07:58:55.532Z</time></trkpt><trkpt lat="43.1015972" lon="12.2987137"><ele>242.66666666666666</ele><time>2026-04-01T07:58:56.534Z</time></trkpt><trkpt lat="43.1016606" lon="12.298438"><ele>244.0</ele><time>2026-04-01T07:58:57.533Z</time></trkpt><trkpt lat="43.1017215" lon="12.298199"><ele>243.33333333333331</ele><time>2026-04-01T07:58:58.533Z</time></trkpt><trkpt lat="43.1018006" lon="12.2979982"><ele>242.66666666666669</ele><time>2026-04-01T07:58:59.533Z</time></trkpt><trkpt lat="43.1019039" lon="12.2978447"><ele>242.0</ele><time>2026-04-01T07:59:00.531Z</time></trkpt><trkpt lat="43.1020055" lon="12.2976925"><ele>242.0</ele><time>2026-04-01T07:59:01.533Z</time></trkpt><trkpt lat="43.1021111" lon="12.2976258"><ele>242.0</ele><time>2026-04-01T07:59:02.535Z</time></trkpt><trkpt lat="43.1022834" lon="12.2976279"><ele>242.0</ele><time>2026-04-01T07:59:03.533Z</time></trkpt><trkpt lat="43.1024128" lon="12.2976195"><ele>242.0</ele><time>2026-04-01T07:59:04.533Z</time></trkpt><trkpt lat="43.1025384" lon="12.297599"><ele>243.5</ele><time>2026-04-01T07:59:05.531Z</time></trkpt><trkpt lat="43.1026445" lon="12.2975375"><ele>245.0</ele><time>2026-04-01T07:59:06.533Z</time></trkpt><trkpt lat="43.1027439" lon="12.2974366"><ele>246.5</ele><time>2026-04-01T07:59:07.532Z</time></trkpt><trkpt lat="43.1028201" lon="12.2973052"><ele>248.0</ele><time>2026-04-01T07:59:08.532Z</time></trkpt><trkpt lat="43.1028615" lon="12.2971508"><ele>248.2</ele><time>2026-04-01T07:59:09.533Z</time></trkpt><trkpt lat="43.1028883" lon="12.2970013"><ele>248.4</ele><time>2026-04-01T07:59:10.533Z</time></trkpt><trkpt lat="43.1028694" lon="12.2968528"><ele>248.59999999999997</ele><time>2026-04-01T07:59:11.532Z</time></trkpt><trkpt lat="43.1028311" lon="12.2967159"><ele>248.79999999999998</ele><time>2026-04-01T07:59:12.533Z</time></trkpt><trkpt lat="43.1027825" lon="12.2965907"><ele>249.0</ele><time>2026-04-01T07:59:13.534Z</time></trkpt><trkpt lat="43.1027536" lon="12.296469"><ele>248.5</ele><time>2026-04-01T07:59:14.534Z</time></trkpt><trkpt lat="43.1027324" lon="12.2963497"><ele>248.0</ele><time>2026-04-01T07:59:15.533Z</time></trkpt><trkpt lat="43.102822" lon="12.2962351"><ele>247.5</ele><time>2026-04-01T07:59:17.533Z</time></trkpt><trkpt lat="43.1028948" lon="12.2962297"><ele>247.0</ele><time>2026-04-01T07:59:18.533Z</time></trkpt><trkpt lat="43.1029675" lon="12.2962323"><ele>246.5</ele><time>2026-04-01T07:59:19.532Z</time></trkpt><trkpt lat="43.1030347" lon="12.2962436"><ele>246.0</ele><time>2026-04-01T07:59:20.532Z</time></trkpt><trkpt lat="43.1031" lon="12.2962772"><ele>246.0</ele><time>2026-04-01T07:59:21.532Z</time></trkpt><trkpt lat="43.1031916" lon="12.2962981"><ele>246.00000000000003</ele><time>2026-04-01T07:59:22.532Z</time></trkpt><trkpt lat="43.1032741" lon="12.29629"><ele>246.00000000000003</ele><time>2026-04-01T07:59:23.533Z</time></trkpt><trkpt lat="43.1033602" lon="12.2962347"><ele>246.0</ele><time>2026-04-01T07:59:24.534Z</time></trkpt><trkpt lat="43.1034256" lon="12.296124"><ele>246.0</ele><time>2026-04-01T07:59:25.532Z</time></trkpt><trkpt lat="43.1034749" lon="12.2959716"><ele>247.0</ele><time>2026-04-01T07:59:26.534Z</time></trkpt><trkpt lat="43.1035376" lon="12.2957708"><ele>248.0</ele><time>2026-04-01T07:59:27.534Z</time></trkpt><trkpt lat="43.1036086" lon="12.2955574"><ele>249.0</ele><time>2026-04-01T07:59:28.532Z</time></trkpt><trkpt lat="43.1037314" lon="12.2953002"><ele>249.0</ele><time>2026-04-01T07:59:29.534Z</time></trkpt><trkpt lat="43.103832" lon="12.2950318"><ele>249.0</ele><time>2026-04-01T07:59:30.531Z</time></trkpt><trkpt lat="43.103934" lon="12.2947384"><ele>249.5</ele><time>2026-04-01T07:59:31.533Z</time></trkpt><trkpt lat="43.104031" lon="12.2944607"><ele>250.0</ele><time>2026-04-01T07:59:32.532Z</time></trkpt><trkpt lat="43.1041241" lon="12.2941559"><ele>253.5</ele><time>2026-04-01T07:59:33.533Z</time></trkpt><trkpt lat="43.1042298" lon="12.2938358"><ele>257.0</ele><time>2026-04-01T07:59:34.534Z</time></trkpt><trkpt lat="43.1043295" lon="12.293513"><ele>257.0</ele><time>2026-04-01T07:59:35.533Z</time></trkpt><trkpt lat="43.104415" lon="12.293209"><ele>257.0</ele><time>2026-04-01T07:59:36.533Z</time></trkpt><trkpt lat="43.1045014" lon="12.2929081"><ele>256.33333333333337</ele><time>2026-04-01T07:59:37.532Z</time></trkpt><trkpt lat="43.104591" lon="12.2926308"><ele>255.66666666666669</ele><time>2026-04-01T07:59:38.535Z</time></trkpt><trkpt lat="43.1046731" lon="12.2923494"><ele>255.0</ele><time>2026-04-01T07:59:39.532Z</time></trkpt><trkpt lat="43.1047485" lon="12.2920935"><ele>254.0</ele><time>2026-04-01T07:59:40.533Z</time></trkpt><trkpt lat="43.1048231" lon="12.2918376"><ele>253.0</ele><time>2026-04-01T07:59:41.534Z</time></trkpt><trkpt lat="43.1048835" lon="12.2915735"><ele>252.0</ele><time>2026-04-01T07:59:42.531Z</time></trkpt><trkpt lat="43.1049277" lon="12.2913209"><ele>251.0</ele><time>2026-04-01T07:59:43.533Z</time></trkpt><trkpt lat="43.1049544" lon="12.2910662"><ele>250.0</ele><time>2026-04-01T07:59:44.532Z</time></trkpt><trkpt lat="43.104984" lon="12.2908266"><ele>249.0</ele><time>2026-04-01T07:59:45.531Z</time></trkpt><trkpt lat="43.1050156" lon="12.2905993"><ele>249.5</ele><time>2026-04-01T07:59:46.532Z</time></trkpt><trkpt lat="43.1050316" lon="12.2903831"><ele>250.0</ele><time>2026-04-01T07:59:47.534Z</time></trkpt><trkpt lat="43.1050495" lon="12.2901784"><ele>250.5</ele><time>2026-04-01T07:59:48.534Z</time></trkpt><trkpt lat="43.1050621" lon="12.2899878"><ele>251.0</ele><time>2026-04-01T07:59:49.532Z</time></trkpt><trkpt lat="43.1050749" lon="12.2897998"><ele>251.0</ele><time>2026-04-01T07:59:50.533Z</time></trkpt><trkpt lat="43.1050884" lon="12.2896123"><ele>251.0</ele><time>2026-04-01T07:59:51.534Z</time></trkpt><trkpt lat="43.1051273" lon="12.2894263"><ele>251.0</ele><time>2026-04-01T07:59:52.533Z</time></trkpt><trkpt lat="43.1051634" lon="12.2892349"><ele>251.0</ele><time>2026-04-01T07:59:53.533Z</time></trkpt><trkpt lat="43.105206" lon="12.289045"><ele>251.0</ele><time>2026-04-01T07:59:54.533Z</time></trkpt><trkpt lat="43.1052566" lon="12.2888638"><ele>251.0</ele><time>2026-04-01T07:59:55.532Z</time></trkpt><trkpt lat="43.1053745" lon="12.2886968"><ele>251.0</ele><time>2026-04-01T07:59:56.532Z</time></trkpt><trkpt lat="43.1054767" lon="12.2885251"><ele>251.0</ele><time>2026-04-01T07:59:57.532Z</time></trkpt><trkpt lat="43.1055957" lon="12.2883766"><ele>251.0</ele><time>2026-04-01T07:59:58.532Z</time></trkpt><trkpt lat="43.1057451" lon="12.2882348"><ele>251.0</ele><time>2026-04-01T07:59:59.531Z</time></trkpt><trkpt lat="43.1058885" lon="12.2880936"><ele>250.0</ele><time>2026-04-01T08:00:00.531Z</time></trkpt><trkpt lat="43.1060209" lon="12.2879574"><ele>249.0</ele><time>2026-04-01T08:00:01.532Z</time></trkpt><trkpt lat="43.1061278" lon="12.2878501"><ele>248.0</ele><time>2026-04-01T08:00:02.531Z</time></trkpt><trkpt lat="43.1062173" lon="12.2877713"><ele>247.0</ele><time>2026-04-01T08:00:03.534Z</time></trkpt><trkpt lat="43.1062886" lon="12.2877032"><ele>247.0</ele><time>2026-04-01T08:00:04.533Z</time></trkpt><trkpt lat="43.1063451" lon="12.2876283"><ele>247.0</ele><time>2026-04-01T08:00:05.532Z</time></trkpt><trkpt lat="43.106367" lon="12.287518"><ele>247.0</ele><time>2026-04-01T08:00:06.533Z</time></trkpt><trkpt lat="43.1063998" lon="12.2873822"><ele>247.0</ele><time>2026-04-01T08:00:07.533Z</time></trkpt><trkpt lat="43.1064586" lon="12.2872151"><ele>247.0</ele><time>2026-04-01T08:00:08.533Z</time></trkpt><trkpt lat="43.1065152" lon="12.287025"><ele>246.66666666666666</ele><time>2026-04-01T08:00:09.533Z</time></trkpt><trkpt lat="43.1065685" lon="12.2868124"><ele>246.33333333333331</ele><time>2026-04-01T08:00:10.532Z</time></trkpt><trkpt lat="43.1066043" lon="12.2865967"><ele>246.0</ele><time>2026-04-01T08:00:11.533Z</time></trkpt><trkpt lat="43.1066306" lon="12.2863906"><ele>244.8</ele><time>2026-04-01T08:00:12.533Z</time></trkpt><trkpt lat="43.1066434" lon="12.2862122"><ele>243.60000000000002</ele><time>2026-04-01T08:00:13.533Z</time></trkpt><trkpt lat="43.1066585" lon="12.2860542"><ele>242.4</ele><time>2026-04-01T08:00:14.533Z</time></trkpt><trkpt lat="43.1066726" lon="12.2859139"><ele>241.2</ele><time>2026-04-01T08:00:15.531Z</time></trkpt><trkpt lat="43.1066837" lon="12.2857975"><ele>240.0</ele><time>2026-04-01T08:00:16.532Z</time></trkpt><trkpt lat="43.1066955" lon="12.2856852"><ele>239.0</ele><time>2026-04-01T08:00:17.533Z</time></trkpt><trkpt lat="43.1067566" lon="12.2855915"><ele>238.0</ele><time>2026-04-01T08:00:18.532Z</time></trkpt><trkpt lat="43.1068087" lon="12.2854791"><ele>237.0</ele><time>2026-04-01T08:00:19.533Z</time></trkpt><trkpt lat="43.1068583" lon="12.2853691"><ele>236.0</ele><time>2026-04-01T08:00:20.532Z</time></trkpt><trkpt lat="43.1068998" lon="12.2852594"><ele>235.0</ele><time>2026-04-01T08:00:21.535Z</time></trkpt><trkpt lat="43.1069464" lon="12.2851741"><ele>235.0</ele><time>2026-04-01T08:00:22.533Z</time></trkpt><trkpt lat="43.106975" lon="12.2850788"><ele>235.0</ele><time>2026-04-01T08:00:23.534Z</time></trkpt><trkpt lat="43.1070185" lon="12.2849385"><ele>235.0</ele><time>2026-04-01T08:00:25.532Z</time></trkpt><trkpt lat="43.1070447" lon="12.2847531"><ele>235.0</ele><time>2026-04-01T08:00:27.533Z</time></trkpt><trkpt lat="43.1070427" lon="12.2845852"><ele>235.0</ele><time>2026-04-01T08:00:28.533Z</time></trkpt><trkpt lat="43.1070336" lon="12.2844081"><ele>234.0</ele><time>2026-04-01T08:00:29.533Z</time></trkpt><trkpt lat="43.1070198" lon="12.2842208"><ele>233.0</ele><time>2026-04-01T08:00:30.532Z</time></trkpt><trkpt lat="43.1070302" lon="12.2838928"><ele>232.0</ele><time>2026-04-01T08:00:31.533Z</time></trkpt><trkpt lat="43.1069891" lon="12.2835793"><ele>230.5</ele><time>2026-04-01T08:00:32.532Z</time></trkpt><trkpt lat="43.1069456" lon="12.2832489"><ele>229.0</ele><time>2026-04-01T08:00:33.534Z</time></trkpt><trkpt lat="43.1069162" lon="12.2828881"><ele>227.5</ele><time>2026-04-01T08:00:34.533Z</time></trkpt><trkpt lat="43.1068682" lon="12.2825179"><ele>226.0</ele><time>2026-04-01T08:00:35.533Z</time></trkpt><trkpt lat="43.1068187" lon="12.2821308"><ele>226.0</ele><time>2026-04-01T08:00:36.533Z</time></trkpt><trkpt lat="43.1067903" lon="12.2817448"><ele>226.0</ele><time>2026-04-01T08:00:37.533Z</time></trkpt><trkpt lat="43.106765" lon="12.2813593"><ele>225.5</ele><time>2026-04-01T08:00:38.532Z</time></trkpt><trkpt lat="43.1067448" lon="12.2809837"><ele>225.0</ele><time>2026-04-01T08:00:39.531Z</time></trkpt><trkpt lat="43.106716" lon="12.2806096"><ele>225.0</ele><time>2026-04-01T08:00:40.532Z</time></trkpt><trkpt lat="43.1066914" lon="12.2802412"><ele>225.0</ele><time>2026-04-01T08:00:41.534Z</time></trkpt><trkpt lat="43.1066652" lon="12.279876"><ele>226.0</ele><time>2026-04-01T08:00:42.534Z</time></trkpt><trkpt lat="43.1066382" lon="12.2795074"><ele>227.0</ele><time>2026-04-01T08:00:43.532Z</time></trkpt><trkpt lat="43.1066028" lon="12.2791243"><ele>226.0</ele><time>2026-04-01T08:00:44.534Z</time></trkpt><trkpt lat="43.1065782" lon="12.2787603"><ele>225.0</ele><time>2026-04-01T08:00:45.533Z</time></trkpt><trkpt lat="43.106545" lon="12.2784018"><ele>224.0</ele><time>2026-04-01T08:00:46.533Z</time></trkpt><trkpt lat="43.1065247" lon="12.2780502"><ele>223.0</ele><time>2026-04-01T08:00:47.533Z</time></trkpt><trkpt lat="43.1064816" lon="12.2777437"><ele>223.0</ele><time>2026-04-01T08:00:48.534Z</time></trkpt><trkpt lat="43.1064789" lon="12.2774362"><ele>223.0</ele><time>2026-04-01T08:00:49.533Z</time></trkpt><trkpt lat="43.1064591" lon="12.2771054"><ele>223.0</ele><time>2026-04-01T08:00:50.532Z</time></trkpt><trkpt lat="43.1064425" lon="12.2767812"><ele>223.0</ele><time>2026-04-01T08:00:51.533Z</time></trkpt><trkpt lat="43.1064272" lon="12.2764566"><ele>223.0</ele><time>2026-04-01T08:00:52.532Z</time></trkpt><trkpt lat="43.1063921" lon="12.2761236"><ele>223.0</ele><time>2026-04-01T08:00:53.534Z</time></trkpt><trkpt lat="43.1063634" lon="12.2757898"><ele>223.0</ele><time>2026-04-01T08:00:54.533Z</time></trkpt><trkpt lat="43.1063331" lon="12.2754678"><ele>223.0</ele><time>2026-04-01T08:00:55.533Z</time></trkpt><trkpt lat="43.1063027" lon="12.2751404"><ele>223.0</ele><time>2026-04-01T08:00:56.533Z</time></trkpt><trkpt lat="43.1062807" lon="12.2747858"><ele>223.0</ele><time>2026-04-01T08:00:57.533Z</time></trkpt><trkpt lat="43.1062566" lon="12.2744486"><ele>223.5</ele><time>2026-04-01T08:00:58.533Z</time></trkpt><trkpt lat="43.1062354" lon="12.2741121"><ele>224.0</ele><time>2026-04-01T08:00:59.533Z</time></trkpt><trkpt lat="43.1062129" lon="12.2737849"><ele>224.0</ele><time>2026-04-01T08:01:00.533Z</time></trkpt><trkpt lat="43.1061869" lon="12.2734522"><ele>224.0</ele><time>2026-04-01T08:01:01.532Z</time></trkpt><trkpt lat="43.1061617" lon="12.2731183"><ele>224.0</ele><time>2026-04-01T08:01:02.533Z</time></trkpt><trkpt lat="43.1061384" lon="12.2727864"><ele>224.0</ele><time>2026-04-01T08:01:03.533Z</time></trkpt><trkpt lat="43.106113" lon="12.2724589"><ele>224.0</ele><time>2026-04-01T08:01:04.533Z</time></trkpt><trkpt lat="43.1060913" lon="12.2721368"><ele>224.0</ele><time>2026-04-01T08:01:05.534Z</time></trkpt><trkpt lat="43.10606" lon="12.2717973"><ele>224.0</ele><time>2026-04-01T08:01:06.534Z</time></trkpt><trkpt lat="43.1060213" lon="12.2714724"><ele>224.0</ele><time>2026-04-01T08:01:07.532Z</time></trkpt><trkpt lat="43.1059976" lon="12.2711396"><ele>225.33333333333334</ele><time>2026-04-01T08:01:08.533Z</time></trkpt><trkpt lat="43.1059587" lon="12.2708127"><ele>226.66666666666669</ele><time>2026-04-01T08:01:09.533Z</time></trkpt><trkpt lat="43.1059184" lon="12.2705627"><ele>228.0</ele><time>2026-04-01T08:01:10.534Z</time></trkpt><trkpt lat="43.1058879" lon="12.2702932"><ele>228.0</ele><time>2026-04-01T08:01:11.533Z</time></trkpt><trkpt lat="43.105868" lon="12.2700287"><ele>228.0</ele><time>2026-04-01T08:01:12.533Z</time></trkpt><trkpt lat="43.1058819" lon="12.2697759"><ele>228.0</ele><time>2026-04-01T08:01:13.533Z</time></trkpt><trkpt lat="43.1059001" lon="12.2695147"><ele>228.0</ele><time>2026-04-01T08:01:14.534Z</time></trkpt><trkpt lat="43.105943" lon="12.2692138"><ele>228.0</ele><time>2026-04-01T08:01:15.533Z</time></trkpt><trkpt lat="43.1059847" lon="12.2689107"><ele>228.0</ele><time>2026-04-01T08:01:16.534Z</time></trkpt><trkpt lat="43.1060063" lon="12.2685907"><ele>227.0</ele><time>2026-04-01T08:01:17.533Z</time></trkpt><trkpt lat="43.1060129" lon="12.2682653"><ele>226.0</ele><time>2026-04-01T08:01:18.533Z</time></trkpt><trkpt lat="43.1060182" lon="12.2679556"><ele>225.0</ele><time>2026-04-01T08:01:19.534Z</time></trkpt><trkpt lat="43.1060108" lon="12.2676721"><ele>224.0</ele><time>2026-04-01T08:01:20.534Z</time></trkpt><trkpt lat="43.1060037" lon="12.2673841"><ele>223.0</ele><time>2026-04-01T08:01:21.533Z</time></trkpt><trkpt lat="43.1059991" lon="12.267135"><ele>223.0</ele><time>2026-04-01T08:01:22.533Z</time></trkpt><trkpt lat="43.1059971" lon="12.2668764"><ele>223.0</ele><time>2026-04-01T08:01:23.533Z</time></trkpt><trkpt lat="43.105986" lon="12.2666397"><ele>223.0</ele><time>2026-04-01T08:01:24.533Z</time></trkpt><trkpt lat="43.105978" lon="12.2664182"><ele>223.33333333333331</ele><time>2026-04-01T08:01:25.533Z</time></trkpt><trkpt lat="43.1059657" lon="12.26621"><ele>223.66666666666669</ele><time>2026-04-01T08:01:26.533Z</time></trkpt><trkpt lat="43.1059612" lon="12.2659964"><ele>224.0</ele><time>2026-04-01T08:01:27.533Z</time></trkpt><trkpt lat="43.105958" lon="12.2657976"><ele>224.0</ele><time>2026-04-01T08:01:28.533Z</time></trkpt><trkpt lat="43.1059519" lon="12.265605"><ele>224.0</ele><time>2026-04-01T08:01:29.533Z</time></trkpt><trkpt lat="43.1059428" lon="12.265415"><ele>224.0</ele><time>2026-04-01T08:01:30.533Z</time></trkpt><trkpt lat="43.1059316" lon="12.2652161"><ele>224.0</ele><time>2026-04-01T08:01:31.533Z</time></trkpt><trkpt lat="43.1059203" lon="12.2650407"><ele>224.0</ele><time>2026-04-01T08:01:32.533Z</time></trkpt><trkpt lat="43.1059143" lon="12.2648684"><ele>224.0</ele><time>2026-04-01T08:01:33.532Z</time></trkpt><trkpt lat="43.1059083" lon="12.2647105"><ele>224.0</ele><time>2026-04-01T08:01:34.533Z</time></trkpt><trkpt lat="43.1059016" lon="12.2645589"><ele>224.0</ele><time>2026-04-01T08:01:35.534Z</time></trkpt><trkpt lat="43.1058965" lon="12.2644084"><ele>224.66666666666669</ele><time>2026-04-01T08:01:36.534Z</time></trkpt><trkpt lat="43.1058939" lon="12.2642498"><ele>225.33333333333331</ele><time>2026-04-01T08:01:37.534Z</time></trkpt><trkpt lat="43.1059168" lon="12.2640149"><ele>226.0</ele><time>2026-04-01T08:01:38.725Z</time></trkpt><trkpt lat="43.1060002" lon="12.2646957"><ele>226.0</ele><time>2026-04-01T08:01:40.726Z</time></trkpt><trkpt lat="43.1059734" lon="12.2644826"><ele>226.0</ele><time>2026-04-01T08:01:41.726Z</time></trkpt><trkpt lat="43.106076" lon="12.2638992"><ele>226.5</ele><time>2026-04-01T08:01:42.726Z</time></trkpt><trkpt lat="43.1059778" lon="12.2634463"><ele>227.0</ele><time>2026-04-01T08:01:43.725Z</time></trkpt><trkpt lat="43.1058319" lon="12.262408"><ele>227.66666666666669</ele><time>2026-04-01T08:01:44.726Z</time></trkpt><trkpt lat="43.1059021" lon="12.2621626"><ele>228.33333333333331</ele><time>2026-04-01T08:01:45.533Z</time></trkpt><trkpt lat="43.1058766" lon="12.2619384"><ele>229.0</ele><time>2026-04-01T08:01:46.534Z</time></trkpt><trkpt lat="43.1058587" lon="12.2617061"><ele>229.0</ele><time>2026-04-01T08:01:47.533Z</time></trkpt><trkpt lat="43.1058507" lon="12.2614549"><ele>229.0</ele><time>2026-04-01T08:01:48.534Z</time></trkpt><trkpt lat="43.1058349" lon="12.2612054"><ele>229.0</ele><time>2026-04-01T08:01:49.532Z</time></trkpt><trkpt lat="43.105819" lon="12.2609421"><ele>229.0</ele><time>2026-04-01T08:01:50.533Z</time></trkpt><trkpt lat="43.1058068" lon="12.2606826"><ele>229.0</ele><time>2026-04-01T08:01:51.533Z</time></trkpt><trkpt lat="43.1057899" lon="12.2604372"><ele>229.0</ele><time>2026-04-01T08:01:52.533Z</time></trkpt><trkpt lat="43.1057748" lon="12.2601998"><ele>229.33333333333331</ele><time>2026-04-01T08:01:53.534Z</time></trkpt><trkpt lat="43.1057749" lon="12.2599799"><ele>229.66666666666669</ele><time>2026-04-01T08:01:54.533Z</time></trkpt><trkpt lat="43.1057711" lon="12.2597716"><ele>230.0</ele><time>2026-04-01T08:01:55.533Z</time></trkpt><trkpt lat="43.1057668" lon="12.259566"><ele>230.0</ele><time>2026-04-01T08:01:56.533Z</time></trkpt><trkpt lat="43.1057593" lon="12.2593644"><ele>230.0</ele><time>2026-04-01T08:01:57.534Z</time></trkpt><trkpt lat="43.1057573" lon="12.2591782"><ele>230.0</ele><time>2026-04-01T08:01:58.533Z</time></trkpt><trkpt lat="43.1057557" lon="12.2589834"><ele>230.0</ele><time>2026-04-01T08:01:59.534Z</time></trkpt><trkpt lat="43.1057531" lon="12.2587923"><ele>230.0</ele><time>2026-04-01T08:02:00.534Z</time></trkpt><trkpt lat="43.1057514" lon="12.2585731"><ele>230.0</ele><time>2026-04-01T08:02:01.533Z</time></trkpt><trkpt lat="43.1057289" lon="12.2583265"><ele>230.0</ele><time>2026-04-01T08:02:02.533Z</time></trkpt><trkpt lat="43.1057304" lon="12.2580228"><ele>226.5</ele><time>2026-04-01T08:02:03.534Z</time></trkpt><trkpt lat="43.105735" lon="12.2577114"><ele>223.0</ele><time>2026-04-01T08:02:04.533Z</time></trkpt><trkpt lat="43.105731" lon="12.2573791"><ele>224.0</ele><time>2026-04-01T08:02:05.532Z</time></trkpt><trkpt lat="43.1057237" lon="12.2570573"><ele>225.0</ele><time>2026-04-01T08:02:06.533Z</time></trkpt><trkpt lat="43.1057219" lon="12.2567272"><ele>225.5</ele><time>2026-04-01T08:02:07.533Z</time></trkpt><trkpt lat="43.1057115" lon="12.2563789"><ele>226.0</ele><time>2026-04-01T08:02:08.532Z</time></trkpt><trkpt lat="43.1057043" lon="12.256019"><ele>226.0</ele><time>2026-04-01T08:02:09.533Z</time></trkpt><trkpt lat="43.1056847" lon="12.2556713"><ele>226.0</ele><time>2026-04-01T08:02:10.533Z</time></trkpt><trkpt lat="43.1056754" lon="12.2553203"><ele>226.0</ele><time>2026-04-01T08:02:11.534Z</time></trkpt><trkpt lat="43.1056629" lon="12.25499"><ele>226.0</ele><time>2026-04-01T08:02:12.532Z</time></trkpt><trkpt lat="43.1056594" lon="12.2546719"><ele>226.0</ele><time>2026-04-01T08:02:13.533Z</time></trkpt><trkpt lat="43.105648" lon="12.2543804"><ele>226.0</ele><time>2026-04-01T08:02:14.534Z</time></trkpt><trkpt lat="43.105629" lon="12.2540972"><ele>226.0</ele><time>2026-04-01T08:02:15.533Z</time></trkpt><trkpt lat="43.105609" lon="12.2538293"><ele>226.0</ele><time>2026-04-01T08:02:16.534Z</time></trkpt><trkpt lat="43.1055954" lon="12.253574"><ele>226.0</ele><time>2026-04-01T08:02:17.533Z</time></trkpt><trkpt lat="43.1056047" lon="12.2533165"><ele>226.0</ele><time>2026-04-01T08:02:18.534Z</time></trkpt><trkpt lat="43.1056122" lon="12.2530369"><ele>226.0</ele><time>2026-04-01T08:02:19.533Z</time></trkpt><trkpt lat="43.1056271" lon="12.2527584"><ele>226.0</ele><time>2026-04-01T08:02:20.534Z</time></trkpt><trkpt lat="43.1056494" lon="12.2524501"><ele>226.0</ele><time>2026-04-01T08:02:21.534Z</time></trkpt><trkpt lat="43.1056676" lon="12.2521285"><ele>226.0</ele><time>2026-04-01T08:02:22.533Z</time></trkpt><trkpt lat="43.1056833" lon="12.2518068"><ele>226.0</ele><time>2026-04-01T08:02:23.534Z</time></trkpt><trkpt lat="43.1057123" lon="12.2515069"><ele>225.0</ele><time>2026-04-01T08:02:24.533Z</time></trkpt><trkpt lat="43.1057331" lon="12.2511991"><ele>224.0</ele><time>2026-04-01T08:02:25.534Z</time></trkpt><trkpt lat="43.1057581" lon="12.2508892"><ele>224.66666666666669</ele><time>2026-04-01T08:02:26.533Z</time></trkpt><trkpt lat="43.1057791" lon="12.2505905"><ele>225.33333333333331</ele><time>2026-04-01T08:02:27.533Z</time></trkpt><trkpt lat="43.1057984" lon="12.2502952"><ele>226.0</ele><time>2026-04-01T08:02:28.535Z</time></trkpt><trkpt lat="43.1058276" lon="12.2500282"><ele>225.66666666666666</ele><time>2026-04-01T08:02:29.533Z</time></trkpt><trkpt lat="43.1058542" lon="12.2497451"><ele>225.33333333333331</ele><time>2026-04-01T08:02:30.532Z</time></trkpt><trkpt lat="43.1058637" lon="12.2494683"><ele>225.0</ele><time>2026-04-01T08:02:31.532Z</time></trkpt><trkpt lat="43.1059173" lon="12.2492366"><ele>225.0</ele><time>2026-04-01T08:02:32.533Z</time></trkpt><trkpt lat="43.1059806" lon="12.2490571"><ele>225.0</ele><time>2026-04-01T08:02:33.533Z</time></trkpt><trkpt lat="43.1060738" lon="12.2489025"><ele>225.0</ele><time>2026-04-01T08:02:34.534Z</time></trkpt><trkpt lat="43.1062044" lon="12.2487689"><ele>225.0</ele><time>2026-04-01T08:02:35.533Z</time></trkpt><trkpt lat="43.1063439" lon="12.2486399"><ele>225.0</ele><time>2026-04-01T08:02:36.532Z</time></trkpt><trkpt lat="43.1064989" lon="12.2485177"><ele>225.0</ele><time>2026-04-01T08:02:37.534Z</time></trkpt><trkpt lat="43.1066348" lon="12.2483842"><ele>225.33333333333331</ele><time>2026-04-01T08:02:38.533Z</time></trkpt><trkpt lat="43.1067665" lon="12.2482462"><ele>225.66666666666666</ele><time>2026-04-01T08:02:39.532Z</time></trkpt><trkpt lat="43.1068425" lon="12.2480676"><ele>226.0</ele><time>2026-04-01T08:02:40.533Z</time></trkpt><trkpt lat="43.1069072" lon="12.2478765"><ele>226.0</ele><time>2026-04-01T08:02:41.532Z</time></trkpt><trkpt lat="43.1069253" lon="12.2476684"><ele>226.0</ele><time>2026-04-01T08:02:42.533Z</time></trkpt><trkpt lat="43.1068961" lon="12.2474428"><ele>226.0</ele><time>2026-04-01T08:02:43.534Z</time></trkpt><trkpt lat="43.106834" lon="12.2472057"><ele>225.66666666666666</ele><time>2026-04-01T08:02:44.535Z</time></trkpt><trkpt lat="43.106769" lon="12.2469578"><ele>225.33333333333331</ele><time>2026-04-01T08:02:45.533Z</time></trkpt><trkpt lat="43.1066956" lon="12.2466754"><ele>225.0</ele><time>2026-04-01T08:02:46.533Z</time></trkpt><trkpt lat="43.1066274" lon="12.2463834"><ele>224.0</ele><time>2026-04-01T08:02:47.534Z</time></trkpt><trkpt lat="43.1065721" lon="12.2460787"><ele>223.0</ele><time>2026-04-01T08:02:48.533Z</time></trkpt><trkpt lat="43.1065231" lon="12.2457604"><ele>223.33333333333331</ele><time>2026-04-01T08:02:49.535Z</time></trkpt><trkpt lat="43.1064853" lon="12.2454621"><ele>223.66666666666669</ele><time>2026-04-01T08:02:50.533Z</time></trkpt><trkpt lat="43.1064502" lon="12.2451738"><ele>224.0</ele><time>2026-04-01T08:02:51.534Z</time></trkpt><trkpt lat="43.1064277" lon="12.2449269"><ele>225.0</ele><time>2026-04-01T08:02:52.533Z</time></trkpt><trkpt lat="43.1064101" lon="12.2446759"><ele>226.0</ele><time>2026-04-01T08:02:53.533Z</time></trkpt><trkpt lat="43.1064347" lon="12.2445049"><ele>227.0</ele><time>2026-04-01T08:02:54.536Z</time></trkpt><trkpt lat="43.1065208" lon="12.2444144"><ele>228.0</ele><time>2026-04-01T08:02:55.534Z</time></trkpt><trkpt lat="43.1065911" lon="12.2442728"><ele>228.33333333333331</ele><time>2026-04-01T08:02:56.535Z</time></trkpt><trkpt lat="43.1067894" lon="12.2442021"><ele>228.66666666666666</ele><time>2026-04-01T08:02:57.536Z</time></trkpt><trkpt lat="43.1069278" lon="12.2441062"><ele>229.0</ele><time>2026-04-01T08:02:58.533Z</time></trkpt><trkpt lat="43.1070938" lon="12.244036"><ele>232.33333333333331</ele><time>2026-04-01T08:02:59.534Z</time></trkpt><trkpt lat="43.1073079" lon="12.2439052"><ele>235.66666666666669</ele><time>2026-04-01T08:03:00.535Z</time></trkpt><trkpt lat="43.107484" lon="12.2437833"><ele>239.0</ele><time>2026-04-01T08:03:01.535Z</time></trkpt><trkpt lat="43.1076618" lon="12.2436673"><ele>239.0</ele><time>2026-04-01T08:03:02.534Z</time></trkpt><trkpt lat="43.1078332" lon="12.2435284"><ele>239.0</ele><time>2026-04-01T08:03:03.535Z</time></trkpt><trkpt lat="43.1080056" lon="12.2433906"><ele>239.0</ele><time>2026-04-01T08:03:04.533Z</time></trkpt><trkpt lat="43.1081901" lon="12.2432389"><ele>242.66666666666669</ele><time>2026-04-01T08:03:05.534Z</time></trkpt><trkpt lat="43.1083777" lon="12.2431129"><ele>246.33333333333331</ele><time>2026-04-01T08:03:06.535Z</time></trkpt><trkpt lat="43.108563" lon="12.2429955"><ele>250.0</ele><time>2026-04-01T08:03:07.534Z</time></trkpt><trkpt lat="43.1087193" lon="12.2429652"><ele>250.0</ele><time>2026-04-01T08:03:08.533Z</time></trkpt><trkpt lat="43.1088891" lon="12.2429127"><ele>250.0</ele><time>2026-04-01T08:03:09.533Z</time></trkpt><trkpt lat="43.1090673" lon="12.2429563"><ele>250.0</ele><time>2026-04-01T08:03:10.536Z</time></trkpt><trkpt lat="43.1092582" lon="12.2429982"><ele>248.0</ele><time>2026-04-01T08:03:11.533Z</time></trkpt><trkpt lat="43.1094475" lon="12.2430462"><ele>246.0</ele><time>2026-04-01T08:03:12.533Z</time></trkpt><trkpt lat="43.1096428" lon="12.2430965"><ele>244.0</ele><time>2026-04-01T08:03:13.532Z</time></trkpt><trkpt lat="43.1098507" lon="12.243045"><ele>242.66666666666666</ele><time>2026-04-01T08:03:14.534Z</time></trkpt><trkpt lat="43.1100543" lon="12.2429868"><ele>241.33333333333331</ele><time>2026-04-01T08:03:15.533Z</time></trkpt><trkpt lat="43.1102431" lon="12.2429068"><ele>240.0</ele><time>2026-04-01T08:03:16.532Z</time></trkpt><trkpt lat="43.1104339" lon="12.2427884"><ele>240.0</ele><time>2026-04-01T08:03:17.534Z</time></trkpt><trkpt lat="43.110624" lon="12.2426383"><ele>240.0</ele><time>2026-04-01T08:03:18.534Z</time></trkpt><trkpt lat="43.1108374" lon="12.2424835"><ele>238.0</ele><time>2026-04-01T08:03:19.533Z</time></trkpt><trkpt lat="43.1110509" lon="12.242342"><ele>236.0</ele><time>2026-04-01T08:03:20.534Z</time></trkpt><trkpt lat="43.1112696" lon="12.2422011"><ele>236.0</ele><time>2026-04-01T08:03:21.533Z</time></trkpt><trkpt lat="43.1114897" lon="12.2420514"><ele>236.0</ele><time>2026-04-01T08:03:22.532Z</time></trkpt><trkpt lat="43.1116932" lon="12.2418825"><ele>231.5</ele><time>2026-04-01T08:03:23.533Z</time></trkpt><trkpt lat="43.1119138" lon="12.2417357"><ele>227.0</ele><time>2026-04-01T08:03:24.533Z</time></trkpt><trkpt lat="43.1121314" lon="12.2415902"><ele>228.5</ele><time>2026-04-01T08:03:25.534Z</time></trkpt><trkpt lat="43.1123461" lon="12.2414431"><ele>230.0</ele><time>2026-04-01T08:03:26.532Z</time></trkpt><trkpt lat="43.1125673" lon="12.2412766"><ele>230.5</ele><time>2026-04-01T08:03:27.533Z</time></trkpt><trkpt lat="43.1127893" lon="12.2411125"><ele>231.0</ele><time>2026-04-01T08:03:28.533Z</time></trkpt><trkpt lat="43.1130077" lon="12.2409685"><ele>231.0</ele><time>2026-04-01T08:03:29.534Z</time></trkpt><trkpt lat="43.1132165" lon="12.2408203"><ele>231.0</ele><time>2026-04-01T08:03:30.532Z</time></trkpt><trkpt lat="43.1134263" lon="12.24067"><ele>229.5</ele><time>2026-04-01T08:03:31.534Z</time></trkpt><trkpt lat="43.1136275" lon="12.2405233"><ele>228.0</ele><time>2026-04-01T08:03:32.535Z</time></trkpt><trkpt lat="43.1138272" lon="12.2403686"><ele>228.0</ele><time>2026-04-01T08:03:33.532Z</time></trkpt><trkpt lat="43.1140252" lon="12.2402162"><ele>228.0</ele><time>2026-04-01T08:03:34.534Z</time></trkpt><trkpt lat="43.1142196" lon="12.2400699"><ele>228.0</ele><time>2026-04-01T08:03:35.534Z</time></trkpt><trkpt lat="43.1143996" lon="12.2399112"><ele>231.66666666666669</ele><time>2026-04-01T08:03:36.534Z</time></trkpt><trkpt lat="43.1145724" lon="12.239788"><ele>235.33333333333334</ele><time>2026-04-01T08:03:37.532Z</time></trkpt><trkpt lat="43.1147398" lon="12.2396687"><ele>239.0</ele><time>2026-04-01T08:03:38.535Z</time></trkpt><trkpt lat="43.1149043" lon="12.2395856"><ele>240.66666666666669</ele><time>2026-04-01T08:03:39.533Z</time></trkpt><trkpt lat="43.1150674" lon="12.2395119"><ele>242.33333333333331</ele><time>2026-04-01T08:03:40.534Z</time></trkpt><trkpt lat="43.115242" lon="12.2396133"><ele>244.0</ele><time>2026-04-01T08:03:41.535Z</time></trkpt><trkpt lat="43.1154247" lon="12.2396449"><ele>244.0</ele><time>2026-04-01T08:03:42.534Z</time></trkpt><trkpt lat="43.1156075" lon="12.2396932"><ele>244.0</ele><time>2026-04-01T08:03:43.535Z</time></trkpt><trkpt lat="43.1157904" lon="12.2397052"><ele>244.0</ele><time>2026-04-01T08:03:44.533Z</time></trkpt><trkpt lat="43.1159649" lon="12.2397112"><ele>245.33333333333331</ele><time>2026-04-01T08:03:45.533Z</time></trkpt><trkpt lat="43.1161401" lon="12.2396999"><ele>246.66666666666669</ele><time>2026-04-01T08:03:46.533Z</time></trkpt><trkpt lat="43.116317" lon="12.2396433"><ele>248.0</ele><time>2026-04-01T08:03:47.534Z</time></trkpt><trkpt lat="43.1164659" lon="12.2395675"><ele>247.0</ele><time>2026-04-01T08:03:48.533Z</time></trkpt><trkpt lat="43.1166164" lon="12.2395005"><ele>246.0</ele><time>2026-04-01T08:03:49.534Z</time></trkpt><trkpt lat="43.11677" lon="12.2394221"><ele>245.0</ele><time>2026-04-01T08:03:50.533Z</time></trkpt><trkpt lat="43.1168886" lon="12.2393636"><ele>244.0</ele><time>2026-04-01T08:03:51.536Z</time></trkpt><trkpt lat="43.1170274" lon="12.2392737"><ele>244.0</ele><time>2026-04-01T08:03:52.532Z</time></trkpt><trkpt lat="43.1171573" lon="12.2391665"><ele>244.0</ele><time>2026-04-01T08:03:53.533Z</time></trkpt><trkpt lat="43.117283" lon="12.2390428"><ele>244.0</ele><time>2026-04-01T08:03:54.533Z</time></trkpt><trkpt lat="43.1173721" lon="12.2388778"><ele>241.33333333333331</ele><time>2026-04-01T08:03:55.534Z</time></trkpt><trkpt lat="43.1174515" lon="12.2386859"><ele>238.66666666666669</ele><time>2026-04-01T08:03:56.534Z</time></trkpt><trkpt lat="43.1175304" lon="12.2384476"><ele>236.0</ele><time>2026-04-01T08:03:57.534Z</time></trkpt><trkpt lat="43.1175981" lon="12.2382094"><ele>235.66666666666669</ele><time>2026-04-01T08:03:58.533Z</time></trkpt><trkpt lat="43.1176675" lon="12.2379488"><ele>235.33333333333331</ele><time>2026-04-01T08:03:59.533Z</time></trkpt><trkpt lat="43.1176896" lon="12.2376817"><ele>235.0</ele><time>2026-04-01T08:04:00.533Z</time></trkpt><trkpt lat="43.1177113" lon="12.2374196"><ele>236.33333333333331</ele><time>2026-04-01T08:04:01.533Z</time></trkpt><trkpt lat="43.1177514" lon="12.2371777"><ele>237.66666666666669</ele><time>2026-04-01T08:04:02.532Z</time></trkpt><trkpt lat="43.1178004" lon="12.2369572"><ele>239.0</ele><time>2026-04-01T08:04:03.534Z</time></trkpt><trkpt lat="43.1179058" lon="12.236719"><ele>239.0</ele><time>2026-04-01T08:04:04.532Z</time></trkpt><trkpt lat="43.1180226" lon="12.2364939"><ele>239.0</ele><time>2026-04-01T08:04:05.535Z</time></trkpt><trkpt lat="43.1181626" lon="12.2362803"><ele>239.0</ele><time>2026-04-01T08:04:06.533Z</time></trkpt><trkpt lat="43.1182975" lon="12.2360316"><ele>238.0</ele><time>2026-04-01T08:04:07.534Z</time></trkpt><trkpt lat="43.1184457" lon="12.2357764"><ele>237.0</ele><time>2026-04-01T08:04:08.533Z</time></trkpt><trkpt lat="43.1185856" lon="12.2355169"><ele>237.0</ele><time>2026-04-01T08:04:09.534Z</time></trkpt><trkpt lat="43.1186809" lon="12.2352727"><ele>237.0</ele><time>2026-04-01T08:04:10.533Z</time></trkpt><trkpt lat="43.1187803" lon="12.2350311"><ele>237.0</ele><time>2026-04-01T08:04:11.534Z</time></trkpt><trkpt lat="43.1188795" lon="12.2347948"><ele>237.0</ele><time>2026-04-01T08:04:12.534Z</time></trkpt><trkpt lat="43.1189215" lon="12.2345575"><ele>237.0</ele><time>2026-04-01T08:04:13.533Z</time></trkpt><trkpt lat="43.1189436" lon="12.2342845"><ele>237.0</ele><time>2026-04-01T08:04:14.533Z</time></trkpt><trkpt lat="43.1189465" lon="12.2339936"><ele>237.66666666666669</ele><time>2026-04-01T08:04:15.534Z</time></trkpt><trkpt lat="43.1189259" lon="12.233688"><ele>238.33333333333334</ele><time>2026-04-01T08:04:16.534Z</time></trkpt><trkpt lat="43.1188892" lon="12.2333854"><ele>239.0</ele><time>2026-04-01T08:04:17.534Z</time></trkpt><trkpt lat="43.1188472" lon="12.2330922"><ele>241.0</ele><time>2026-04-01T08:04:18.534Z</time></trkpt><trkpt lat="43.1188182" lon="12.2328313"><ele>243.0</ele><time>2026-04-01T08:04:19.534Z</time></trkpt><trkpt lat="43.118808" lon="12.2326195"><ele>245.0</ele><time>2026-04-01T08:04:20.535Z</time></trkpt><trkpt lat="43.1187965" lon="12.2324731"><ele>245.0</ele><time>2026-04-01T08:04:21.534Z</time></trkpt><trkpt lat="43.1187799" lon="12.2323768"><ele>245.0</ele><time>2026-04-01T08:04:22.533Z</time></trkpt><trkpt lat="43.1187519" lon="12.2322849"><ele>245.0</ele><time>2026-04-01T08:04:23.534Z</time></trkpt><trkpt lat="43.1186957" lon="12.2321728"><ele>245.0</ele><time>2026-04-01T08:04:24.534Z</time></trkpt><trkpt lat="43.1186413" lon="12.23204"><ele>245.0</ele><time>2026-04-01T08:04:25.535Z</time></trkpt><trkpt lat="43.1185854" lon="12.2318486"><ele>246.66666666666669</ele><time>2026-04-01T08:04:26.534Z</time></trkpt><trkpt lat="43.1185241" lon="12.2316417"><ele>248.33333333333331</ele><time>2026-04-01T08:04:27.534Z</time></trkpt><trkpt lat="43.1184525" lon="12.2314199"><ele>250.0</ele><time>2026-04-01T08:04:28.534Z</time></trkpt><trkpt lat="43.1183831" lon="12.2312176"><ele>251.0</ele><time>2026-04-01T08:04:29.533Z</time></trkpt><trkpt lat="43.1183285" lon="12.2310279"><ele>252.0</ele><time>2026-04-01T08:04:30.533Z</time></trkpt><trkpt lat="43.1182731" lon="12.2308402"><ele>253.0</ele><time>2026-04-01T08:04:31.533Z</time></trkpt><trkpt lat="43.1182257" lon="12.2306439"><ele>254.0</ele><time>2026-04-01T08:04:32.535Z</time></trkpt><trkpt lat="43.1182123" lon="12.2304689"><ele>256.5</ele><time>2026-04-01T08:04:33.535Z</time></trkpt><trkpt lat="43.1181902" lon="12.2302877"><ele>259.0</ele><time>2026-04-01T08:04:34.533Z</time></trkpt><trkpt lat="43.1181669" lon="12.2301326"><ele>261.5</ele><time>2026-04-01T08:04:35.533Z</time></trkpt><trkpt lat="43.1181482" lon="12.2299511"><ele>264.0</ele><time>2026-04-01T08:04:36.535Z</time></trkpt><trkpt lat="43.1181322" lon="12.2298015"><ele>266.0</ele><time>2026-04-01T08:04:37.533Z</time></trkpt><trkpt lat="43.1181133" lon="12.2296969"><ele>268.0</ele><time>2026-04-01T08:04:38.534Z</time></trkpt><trkpt lat="43.1180847" lon="12.2295905"><ele>270.0</ele><time>2026-04-01T08:04:39.535Z</time></trkpt><trkpt lat="43.1180206" lon="12.2295515"><ele>272.0</ele><time>2026-04-01T08:04:40.535Z</time></trkpt><trkpt lat="43.1179462" lon="12.2295192"><ele>274.0</ele><time>2026-04-01T08:04:41.534Z</time></trkpt><trkpt lat="43.1178543" lon="12.2294905"><ele>276.0</ele><time>2026-04-01T08:04:42.533Z</time></trkpt><trkpt lat="43.1177697" lon="12.229468"><ele>276.0</ele><time>2026-04-01T08:04:43.533Z</time></trkpt><trkpt lat="43.1176665" lon="12.2293588"><ele>276.0</ele><time>2026-04-01T08:04:45.535Z</time></trkpt><trkpt lat="43.1176188" lon="12.2292781"><ele>276.0</ele><time>2026-04-01T08:04:46.534Z</time></trkpt><trkpt lat="43.1175994" lon="12.2291171"><ele>276.0</ele><time>2026-04-01T08:04:48.533Z</time></trkpt><trkpt lat="43.1176249" lon="12.2289283"><ele>280.0</ele><time>2026-04-01T08:04:50.534Z</time></trkpt><trkpt lat="43.1176345" lon="12.2288405"><ele>284.0</ele><time>2026-04-01T08:04:51.535Z</time></trkpt><trkpt lat="43.117867" lon="12.2288569"><ele>288.0</ele><time>2026-04-01T08:04:52.534Z</time></trkpt><trkpt lat="43.1180168" lon="12.2288372"><ele>292.0</ele><time>2026-04-01T08:04:53.533Z</time></trkpt><trkpt lat="43.118154" lon="12.2287906"><ele>292.0</ele><time>2026-04-01T08:04:54.534Z</time></trkpt><trkpt lat="43.1183104" lon="12.2287535"><ele>292.0</ele><time>2026-04-01T08:04:55.535Z</time></trkpt><trkpt lat="43.1184726" lon="12.2287224"><ele>292.0</ele><time>2026-04-01T08:04:56.534Z</time></trkpt><trkpt lat="43.1186358" lon="12.2286575"><ele>292.0</ele><time>2026-04-01T08:04:57.534Z</time></trkpt><trkpt lat="43.1187928" lon="12.2286069"><ele>292.0</ele><time>2026-04-01T08:04:58.534Z</time></trkpt><trkpt lat="43.1189435" lon="12.2284873"><ele>292.0</ele><time>2026-04-01T08:04:59.534Z</time></trkpt><trkpt lat="43.1190394" lon="12.2283821"><ele>292.0</ele><time>2026-04-01T08:05:00.535Z</time></trkpt><trkpt lat="43.1191429" lon="12.2282809"><ele>292.0</ele><time>2026-04-01T08:05:01.535Z</time></trkpt><trkpt lat="43.1192242" lon="12.2282506"><ele>292.0</ele><time>2026-04-01T08:05:02.534Z</time></trkpt><trkpt lat="43.1193188" lon="12.2282128"><ele>292.0</ele><time>2026-04-01T08:05:03.534Z</time></trkpt><trkpt lat="43.119433" lon="12.2283305"><ele>292.0</ele><time>2026-04-01T08:05:04.535Z</time></trkpt><trkpt lat="43.1195614" lon="12.2283404"><ele>292.0</ele><time>2026-04-01T08:05:05.533Z</time></trkpt><trkpt lat="43.1197138" lon="12.2283422"><ele>292.0</ele><time>2026-04-01T08:05:06.534Z</time></trkpt><trkpt lat="43.1198764" lon="12.2283127"><ele>292.0</ele><time>2026-04-01T08:05:07.533Z</time></trkpt><trkpt lat="43.1200363" lon="12.2282746"><ele>292.3333333333333</ele><time>2026-04-01T08:05:08.534Z</time></trkpt><trkpt lat="43.1202219" lon="12.2282027"><ele>292.6666666666667</ele><time>2026-04-01T08:05:09.534Z</time></trkpt><trkpt lat="43.1204052" lon="12.2281423"><ele>293.0</ele><time>2026-04-01T08:05:10.534Z</time></trkpt><trkpt lat="43.1205829" lon="12.2280624"><ele>301.33333333333337</ele><time>2026-04-01T08:05:11.533Z</time></trkpt><trkpt lat="43.1207764" lon="12.2279769"><ele>309.6666666666667</ele><time>2026-04-01T08:05:12.535Z</time></trkpt><trkpt lat="43.1209701" lon="12.2279231"><ele>318.0</ele><time>2026-04-01T08:05:13.535Z</time></trkpt><trkpt lat="43.1211708" lon="12.2279045"><ele>318.0</ele><time>2026-04-01T08:05:14.535Z</time></trkpt><trkpt lat="43.1213482" lon="12.2279139"><ele>318.0</ele><time>2026-04-01T08:05:15.532Z</time></trkpt><trkpt lat="43.1215105" lon="12.227929"><ele>318.0</ele><time>2026-04-01T08:05:16.535Z</time></trkpt><trkpt lat="43.1216382" lon="12.2279439"><ele>318.2</ele><time>2026-04-01T08:05:17.533Z</time></trkpt><trkpt lat="43.1217496" lon="12.2279532"><ele>318.4</ele><time>2026-04-01T08:05:18.533Z</time></trkpt><trkpt lat="43.1218545" lon="12.2279659"><ele>318.59999999999997</ele><time>2026-04-01T08:05:19.533Z</time></trkpt><trkpt lat="43.1219716" lon="12.227948"><ele>318.8</ele><time>2026-04-01T08:05:20.534Z</time></trkpt><trkpt lat="43.1220677" lon="12.2279641"><ele>319.0</ele><time>2026-04-01T08:05:21.533Z</time></trkpt><trkpt lat="43.1221658" lon="12.2279742"><ele>319.0</ele><time>2026-04-01T08:05:22.533Z</time></trkpt><trkpt lat="43.1222648" lon="12.2279623"><ele>319.0</ele><time>2026-04-01T08:05:23.535Z</time></trkpt><trkpt lat="43.1223487" lon="12.227973"><ele>319.0</ele><time>2026-04-01T08:05:24.533Z</time></trkpt><trkpt lat="43.1224517" lon="12.2279581"><ele>319.0</ele><time>2026-04-01T08:05:26.533Z</time></trkpt><trkpt lat="43.1223967" lon="12.227913"><ele>319.0</ele><time>2026-04-01T08:05:32.535Z</time></trkpt><trkpt lat="43.1223124" lon="12.2278799"><ele>319.0</ele><time>2026-04-01T08:05:34.534Z</time></trkpt><trkpt lat="43.1222528" lon="12.2278384"><ele>319.0</ele><time>2026-04-01T08:05:36.535Z</time></trkpt><trkpt lat="43.1221769" lon="12.2277855"><ele>319.0</ele><time>2026-04-01T08:05:39.535Z</time></trkpt><trkpt lat="43.1221114" lon="12.2277253"><ele>319.0</ele><time>2026-04-01T08:05:42.534Z</time></trkpt><trkpt lat="43.1221799" lon="12.2277765"><ele>319.0</ele><time>2026-04-01T08:05:51.534Z</time></trkpt><trkpt lat="43.122237" lon="12.2278148"><ele>319.0</ele><time>2026-04-01T08:05:52.535Z</time></trkpt><trkpt lat="43.1223033" lon="12.2278625"><ele>319.0</ele><time>2026-04-01T08:05:53.534Z</time></trkpt><trkpt lat="43.1223651" lon="12.2279105"><ele>318.16666666666663</ele><time>2026-04-01T08:05:54.535Z</time></trkpt><trkpt lat="43.1224191" lon="12.227961"><ele>317.3333333333333</ele><time>2026-04-01T08:05:55.534Z</time></trkpt><trkpt lat="43.122507" lon="12.2280297"><ele>316.5</ele><time>2026-04-01T08:05:57.533Z</time></trkpt><trkpt lat="43.1225764" lon="12.2280215"><ele>315.6666666666667</ele><time>2026-04-01T08:05:59.535Z</time></trkpt><trkpt lat="43.1226273" lon="12.227941"><ele>314.83333333333337</ele><time>2026-04-01T08:06:02.535Z</time></trkpt><trkpt lat="43.1225603" lon="12.2278522"><ele>314.0</ele><time>2026-04-01T08:06:05.533Z</time></trkpt><trkpt lat="43.1225773" lon="12.2276928"><ele>314.0</ele><time>2026-04-01T08:06:07.534Z</time></trkpt><trkpt lat="43.1226016" lon="12.227605"><ele>314.0</ele><time>2026-04-01T08:06:08.534Z</time></trkpt><trkpt lat="43.122628" lon="12.2275044"><ele>314.0</ele><time>2026-04-01T08:06:09.534Z</time></trkpt><trkpt lat="43.1226474" lon="12.2274126"><ele>314.0</ele><time>2026-04-01T08:06:10.534Z</time></trkpt><trkpt lat="43.1226483" lon="12.2273099"><ele>314.0</ele><time>2026-04-01T08:06:11.534Z</time></trkpt><trkpt lat="43.1226269" lon="12.2272061"><ele>314.0</ele><time>2026-04-01T08:06:12.535Z</time></trkpt><trkpt lat="43.1225791" lon="12.2270622"><ele>314.25</ele><time>2026-04-01T08:06:13.534Z</time></trkpt><trkpt lat="43.1225146" lon="12.2268867"><ele>314.5</ele><time>2026-04-01T08:06:14.534Z</time></trkpt><trkpt lat="43.1224447" lon="12.2267045"><ele>314.75</ele><time>2026-04-01T08:06:15.534Z</time></trkpt><trkpt lat="43.1223789" lon="12.2265125"><ele>315.0</ele><time>2026-04-01T08:06:16.534Z</time></trkpt><trkpt lat="43.1223117" lon="12.2263323"><ele>311.8</ele><time>2026-04-01T08:06:17.534Z</time></trkpt><trkpt lat="43.1222399" lon="12.2261793"><ele>308.6</ele><time>2026-04-01T08:06:18.535Z</time></trkpt><trkpt lat="43.1221629" lon="12.2260582"><ele>305.4</ele><time>2026-04-01T08:06:19.534Z</time></trkpt><trkpt lat="43.1220936" lon="12.2259704"><ele>302.2</ele><time>2026-04-01T08:06:20.534Z</time></trkpt><trkpt lat="43.1220595" lon="12.2258882"><ele>299.0</ele><time>2026-04-01T08:06:21.533Z</time></trkpt><trkpt lat="43.12203" lon="12.2258097"><ele>299.0</ele><time>2026-04-01T08:06:22.535Z</time></trkpt><trkpt lat="43.1220983" lon="12.2257201"><ele>299.0</ele><time>2026-04-01T08:06:23.536Z</time></trkpt><trkpt lat="43.1221502" lon="12.225659"><ele>299.0</ele><time>2026-04-01T08:06:24.533Z</time></trkpt><trkpt lat="43.1222278" lon="12.2255289"><ele>299.0</ele><time>2026-04-01T08:06:26.533Z</time></trkpt><trkpt lat="43.1221854" lon="12.2254227"><ele>299.0</ele><time>2026-04-01T08:06:28.533Z</time></trkpt><trkpt lat="43.1220224" lon="12.2253838"><ele>296.0</ele><time>2026-04-01T08:06:30.535Z</time></trkpt><trkpt lat="43.1219584" lon="12.225345"><ele>293.0</ele><time>2026-04-01T08:06:31.535Z</time></trkpt><trkpt lat="43.1218884" lon="12.225313"><ele>290.0</ele><time>2026-04-01T08:06:32.533Z</time></trkpt><trkpt lat="43.1219352" lon="12.2252044"><ele>287.0</ele><time>2026-04-01T08:06:33.535Z</time></trkpt><trkpt lat="43.1219901" lon="12.2251455"><ele>284.0</ele><time>2026-04-01T08:06:34.727Z</time></trkpt><trkpt lat="43.1225687" lon="12.2249588"><ele>281.75</ele><time>2026-04-01T08:06:39.727Z</time></trkpt><trkpt lat="43.1226303" lon="12.224884"><ele>279.5</ele><time>2026-04-01T08:06:40.725Z</time></trkpt><trkpt lat="43.1227253" lon="12.2248587"><ele>277.25</ele><time>2026-04-01T08:06:41.726Z</time></trkpt><trkpt lat="43.1229174" lon="12.2249789"><ele>275.0</ele><time>2026-04-01T08:06:43.534Z</time></trkpt><trkpt lat="43.1230219" lon="12.2250319"><ele>275.0</ele><time>2026-04-01T08:06:44.533Z</time></trkpt><trkpt lat="43.1231362" lon="12.2251274"><ele>275.0</ele><time>2026-04-01T08:06:45.535Z</time></trkpt><trkpt lat="43.1232227" lon="12.2252018"><ele>275.0</ele><time>2026-04-01T08:06:46.534Z</time></trkpt><trkpt lat="43.1233446" lon="12.225297"><ele>275.0</ele><time>2026-04-01T08:06:47.534Z</time></trkpt><trkpt lat="43.1234477" lon="12.2253235"><ele>271.75</ele><time>2026-04-01T08:06:48.534Z</time></trkpt><trkpt lat="43.1235344" lon="12.2253204"><ele>268.5</ele><time>2026-04-01T08:06:50.534Z</time></trkpt><trkpt lat="43.1235281" lon="12.2250362"><ele>265.25</ele><time>2026-04-01T08:06:51.533Z</time></trkpt><trkpt lat="43.1235955" lon="12.2249172"><ele>262.0</ele><time>2026-04-01T08:06:52.534Z</time></trkpt><trkpt lat="43.1236598" lon="12.2248022"><ele>260.2</ele><time>2026-04-01T08:06:53.533Z</time></trkpt><trkpt lat="43.1237177" lon="12.2246985"><ele>258.4</ele><time>2026-04-01T08:06:54.534Z</time></trkpt><trkpt lat="43.1237969" lon="12.2246125"><ele>256.6</ele><time>2026-04-01T08:06:55.533Z</time></trkpt><trkpt lat="43.1238338" lon="12.2245418"><ele>254.8</ele><time>2026-04-01T08:06:56.533Z</time></trkpt><trkpt lat="43.1239559" lon="12.2244532"><ele>253.0</ele><time>2026-04-01T08:06:58.534Z</time></trkpt><trkpt lat="43.1240493" lon="12.2244195"><ele>251.2</ele><time>2026-04-01T08:06:59.534Z</time></trkpt><trkpt lat="43.1241573" lon="12.2244687"><ele>249.4</ele><time>2026-04-01T08:07:00.534Z</time></trkpt><trkpt lat="43.124248" lon="12.2244711"><ele>247.59999999999997</ele><time>2026-04-01T08:07:01.534Z</time></trkpt><trkpt lat="43.1243584" lon="12.2244918"><ele>245.79999999999998</ele><time>2026-04-01T08:07:02.534Z</time></trkpt><trkpt lat="43.1244762" lon="12.2245334"><ele>244.0</ele><time>2026-04-01T08:07:03.534Z</time></trkpt><trkpt lat="43.124608" lon="12.2245646"><ele>244.0</ele><time>2026-04-01T08:07:04.534Z</time></trkpt><trkpt lat="43.1247758" lon="12.2245382"><ele>244.0</ele><time>2026-04-01T08:07:05.535Z</time></trkpt><trkpt lat="43.1248886" lon="12.2245132"><ele>244.0</ele><time>2026-04-01T08:07:06.534Z</time></trkpt><trkpt lat="43.1250018" lon="12.2244813"><ele>244.0</ele><time>2026-04-01T08:07:07.534Z</time></trkpt><trkpt lat="43.1251083" lon="12.2244056"><ele>243.39999999999998</ele><time>2026-04-01T08:07:08.534Z</time></trkpt><trkpt lat="43.1252111" lon="12.2243272"><ele>242.79999999999998</ele><time>2026-04-01T08:07:09.534Z</time></trkpt><trkpt lat="43.1252902" lon="12.2242451"><ele>242.20000000000002</ele><time>2026-04-01T08:07:10.534Z</time></trkpt><trkpt lat="43.125387" lon="12.2241652"><ele>241.60000000000002</ele><time>2026-04-01T08:07:11.534Z</time></trkpt><trkpt lat="43.1254365" lon="12.2241087"><ele>241.0</ele><time>2026-04-01T08:07:12.534Z</time></trkpt><trkpt lat="43.1255209" lon="12.2240672"><ele>241.0</ele><time>2026-04-01T08:07:13.534Z</time></trkpt><trkpt lat="43.1255998" lon="12.2240254"><ele>241.00000000000003</ele><time>2026-04-01T08:07:14.536Z</time></trkpt><trkpt lat="43.125702" lon="12.2239429"><ele>241.00000000000003</ele><time>2026-04-01T08:07:16.535Z</time></trkpt><trkpt lat="43.1258091" lon="12.2238352"><ele>241.0</ele><time>2026-04-01T08:07:18.535Z</time></trkpt><trkpt lat="43.1258762" lon="12.2237673"><ele>241.0</ele><time>2026-04-01T08:07:19.534Z</time></trkpt><trkpt lat="43.1259684" lon="12.2237088"><ele>239.0</ele><time>2026-04-01T08:07:20.534Z</time></trkpt><trkpt lat="43.1261248" lon="12.2235975"><ele>237.0</ele><time>2026-04-01T08:07:21.534Z</time></trkpt><trkpt lat="43.1262946" lon="12.2234682"><ele>235.0</ele><time>2026-04-01T08:07:22.535Z</time></trkpt><trkpt lat="43.1264435" lon="12.2233485"><ele>234.5</ele><time>2026-04-01T08:07:23.535Z</time></trkpt><trkpt lat="43.1265762" lon="12.2232478"><ele>234.0</ele><time>2026-04-01T08:07:24.534Z</time></trkpt><trkpt lat="43.1266974" lon="12.2231502"><ele>233.5</ele><time>2026-04-01T08:07:25.535Z</time></trkpt><trkpt lat="43.1267774" lon="12.223041"><ele>233.0</ele><time>2026-04-01T08:07:26.533Z</time></trkpt><trkpt lat="43.1268253" lon="12.2229095"><ele>233.0</ele><time>2026-04-01T08:07:27.535Z</time></trkpt><trkpt lat="43.1268356" lon="12.2227332"><ele>233.0</ele><time>2026-04-01T08:07:28.534Z</time></trkpt><trkpt lat="43.1268087" lon="12.2225325"><ele>233.0</ele><time>2026-04-01T08:07:29.535Z</time></trkpt><trkpt lat="43.1267707" lon="12.2222964"><ele>233.33333333333334</ele><time>2026-04-01T08:07:30.534Z</time></trkpt><trkpt lat="43.1267314" lon="12.2220615"><ele>233.66666666666669</ele><time>2026-04-01T08:07:31.533Z</time></trkpt><trkpt lat="43.1266918" lon="12.2218407"><ele>234.0</ele><time>2026-04-01T08:07:32.534Z</time></trkpt><trkpt lat="43.1266669" lon="12.2216386"><ele>234.0</ele><time>2026-04-01T08:07:33.534Z</time></trkpt><trkpt lat="43.1266537" lon="12.2214592"><ele>234.0</ele><time>2026-04-01T08:07:34.535Z</time></trkpt><trkpt lat="43.1266603" lon="12.221326"><ele>234.0</ele><time>2026-04-01T08:07:35.535Z</time></trkpt><trkpt lat="43.1266774" lon="12.2212365"><ele>234.0</ele><time>2026-04-01T08:07:36.535Z</time></trkpt><trkpt lat="43.1266702" lon="12.2211297"><ele>234.0</ele><time>2026-04-01T08:07:38.535Z</time></trkpt><trkpt lat="43.1266028" lon="12.2211103"><ele>234.0</ele><time>2026-04-01T08:07:40.534Z</time></trkpt><trkpt lat="43.1264712" lon="12.2211442"><ele>234.39999999999998</ele><time>2026-04-01T08:07:42.534Z</time></trkpt><trkpt lat="43.1263866" lon="12.2211795"><ele>234.79999999999998</ele><time>2026-04-01T08:07:43.534Z</time></trkpt><trkpt lat="43.1262889" lon="12.221205"><ele>235.20000000000002</ele><time>2026-04-01T08:07:44.534Z</time></trkpt><trkpt lat="43.1261948" lon="12.2212447"><ele>235.60000000000002</ele><time>2026-04-01T08:07:45.534Z</time></trkpt><trkpt lat="43.1261066" lon="12.2212872"><ele>236.0</ele><time>2026-04-01T08:07:46.535Z</time></trkpt><trkpt lat="43.1260239" lon="12.2213592"><ele>236.00000000000003</ele><time>2026-04-01T08:07:47.535Z</time></trkpt><trkpt lat="43.1259514" lon="12.2214068"><ele>236.0</ele><time>2026-04-01T08:07:48.535Z</time></trkpt><trkpt lat="43.1258772" lon="12.2214514"><ele>236.0</ele><time>2026-04-01T08:07:49.535Z</time></trkpt><trkpt lat="43.1258016" lon="12.2215073"><ele>236.0</ele><time>2026-04-01T08:07:50.534Z</time></trkpt><trkpt lat="43.1257325" lon="12.2215531"><ele>236.00000000000003</ele><time>2026-04-01T08:07:51.535Z</time></trkpt><trkpt lat="43.1256557" lon="12.2216007"><ele>236.0</ele><time>2026-04-01T08:07:52.535Z</time></trkpt><trkpt lat="43.1255817" lon="12.2216554"><ele>235.33333333333334</ele><time>2026-04-01T08:07:53.535Z</time></trkpt><trkpt lat="43.1255034" lon="12.2217181"><ele>234.66666666666669</ele><time>2026-04-01T08:07:54.535Z</time></trkpt><trkpt lat="43.1254211" lon="12.2217818"><ele>234.0</ele><time>2026-04-01T08:07:55.536Z</time></trkpt><trkpt lat="43.1253391" lon="12.2218449"><ele>233.33333333333331</ele><time>2026-04-01T08:07:56.534Z</time></trkpt><trkpt lat="43.1252645" lon="12.2218882"><ele>232.66666666666666</ele><time>2026-04-01T08:07:57.536Z</time></trkpt><trkpt lat="43.1251948" lon="12.2219241"><ele>232.0</ele><time>2026-04-01T08:07:58.534Z</time></trkpt><trkpt lat="43.1251337" lon="12.2219708"><ele>232.00000000000003</ele><time>2026-04-01T08:07:59.535Z</time></trkpt><trkpt lat="43.1250795" lon="12.2220237"><ele>232.0</ele><time>2026-04-01T08:08:00.536Z</time></trkpt><trkpt lat="43.1250212" lon="12.2220634"><ele>232.00000000000003</ele><time>2026-04-01T08:08:01.535Z</time></trkpt><trkpt lat="43.1249521" lon="12.2221149"><ele>232.00000000000003</ele><time>2026-04-01T08:08:02.534Z</time></trkpt><trkpt lat="43.1248826" lon="12.2221699"><ele>232.0</ele><time>2026-04-01T08:08:03.535Z</time></trkpt><trkpt lat="43.1248198" lon="12.2222065"><ele>232.00000000000003</ele><time>2026-04-01T08:08:04.535Z</time></trkpt><trkpt lat="43.124762" lon="12.2222454"><ele>232.00000000000003</ele><time>2026-04-01T08:08:05.535Z</time></trkpt><trkpt lat="43.1246421" lon="12.2223392"><ele>233.2</ele><time>2026-04-01T08:08:07.533Z</time></trkpt><trkpt lat="43.1245613" lon="12.2224021"><ele>234.39999999999998</ele><time>2026-04-01T08:08:08.534Z</time></trkpt><trkpt lat="43.1244795" lon="12.2224871"><ele>235.60000000000002</ele><time>2026-04-01T08:08:09.534Z</time></trkpt><trkpt lat="43.1243839" lon="12.2225843"><ele>236.8</ele><time>2026-04-01T08:08:10.535Z</time></trkpt><trkpt lat="43.1242901" lon="12.222672"><ele>238.0</ele><time>2026-04-01T08:08:11.535Z</time></trkpt><trkpt lat="43.1241996" lon="12.2227667"><ele>237.99999999999997</ele><time>2026-04-01T08:08:12.534Z</time></trkpt><trkpt lat="43.1241183" lon="12.2228519"><ele>238.0</ele><time>2026-04-01T08:08:13.535Z</time></trkpt><trkpt lat="43.1240577" lon="12.2229286"><ele>238.0</ele><time>2026-04-01T08:08:14.536Z</time></trkpt><trkpt lat="43.1239833" lon="12.2230331"><ele>238.0</ele><time>2026-04-01T08:08:16.535Z</time></trkpt><trkpt lat="43.1239334" lon="12.2231122"><ele>237.99999999999997</ele><time>2026-04-01T08:08:18.535Z</time></trkpt><trkpt lat="43.1238878" lon="12.2231768"><ele>238.0</ele><time>2026-04-01T08:08:19.533Z</time></trkpt><trkpt lat="43.1238286" lon="12.2232199"><ele>239.60000000000002</ele><time>2026-04-01T08:08:20.535Z</time></trkpt><trkpt lat="43.1237479" lon="12.2232573"><ele>241.20000000000002</ele><time>2026-04-01T08:08:21.536Z</time></trkpt><trkpt lat="43.1236737" lon="12.2232808"><ele>242.8</ele><time>2026-04-01T08:08:22.534Z</time></trkpt><trkpt lat="43.123578" lon="12.2233133"><ele>244.4</ele><time>2026-04-01T08:08:23.535Z</time></trkpt><trkpt lat="43.123494" lon="12.2233343"><ele>246.0</ele><time>2026-04-01T08:08:24.534Z</time></trkpt><trkpt lat="43.123356" lon="12.2233101"><ele>246.0</ele><time>2026-04-01T08:08:25.536Z</time></trkpt><trkpt lat="43.12324" lon="12.2232945"><ele>246.00000000000003</ele><time>2026-04-01T08:08:26.535Z</time></trkpt><trkpt lat="43.1231291" lon="12.2232962"><ele>246.00000000000003</ele><time>2026-04-01T08:08:27.534Z</time></trkpt><trkpt lat="43.1230298" lon="12.2232955"><ele>246.0</ele><time>2026-04-01T08:08:28.535Z</time></trkpt><trkpt lat="43.1229399" lon="12.2232758"><ele>246.0</ele><time>2026-04-01T08:08:29.535Z</time></trkpt><trkpt lat="43.1228621" lon="12.2232269"><ele>248.0</ele><time>2026-04-01T08:08:30.534Z</time></trkpt><trkpt lat="43.1227864" lon="12.2231459"><ele>250.0</ele><time>2026-04-01T08:08:31.534Z</time></trkpt><trkpt lat="43.1227447" lon="12.2230627"><ele>252.0</ele><time>2026-04-01T08:08:32.534Z</time></trkpt><trkpt lat="43.1226929" lon="12.2229838"><ele>254.0</ele><time>2026-04-01T08:08:33.534Z</time></trkpt><trkpt lat="43.1227713" lon="12.2230323"><ele>256.0</ele><time>2026-04-01T08:09:03.535Z</time></trkpt><trkpt lat="43.1228264" lon="12.2231449"><ele>258.0</ele><time>2026-04-01T08:09:06.533Z</time></trkpt><trkpt lat="43.1228771" lon="12.2232043"><ele>258.5</ele><time>2026-04-01T08:09:07.534Z</time></trkpt><trkpt lat="43.1229892" lon="12.223266"><ele>259.0</ele><time>2026-04-01T08:09:09.534Z</time></trkpt><trkpt lat="43.1231309" lon="12.2232566"><ele>259.5</ele><time>2026-04-01T08:09:11.535Z</time></trkpt><trkpt lat="43.1232223" lon="12.223248"><ele>260.0</ele><time>2026-04-01T08:09:12.534Z</time></trkpt><trkpt lat="43.1233217" lon="12.2232356"><ele>257.6666666666667</ele><time>2026-04-01T08:09:13.534Z</time></trkpt><trkpt lat="43.1234176" lon="12.2232325"><ele>255.33333333333334</ele><time>2026-04-01T08:09:14.533Z</time></trkpt><trkpt lat="43.1234881" lon="12.2232375"><ele>253.0</ele><time>2026-04-01T08:09:15.535Z</time></trkpt><trkpt lat="43.1235782" lon="12.2232476"><ele>250.66666666666669</ele><time>2026-04-01T08:09:16.535Z</time></trkpt><trkpt lat="43.1236751" lon="12.2232565"><ele>248.33333333333334</ele><time>2026-04-01T08:09:17.536Z</time></trkpt><trkpt lat="43.1237634" lon="12.223269"><ele>246.0</ele><time>2026-04-01T08:09:18.534Z</time></trkpt><trkpt lat="43.1238753" lon="12.223214"><ele>246.0</ele><time>2026-04-01T08:09:20.535Z</time></trkpt><trkpt lat="43.1239231" lon="12.2231514"><ele>246.0</ele><time>2026-04-01T08:09:21.535Z</time></trkpt><trkpt lat="43.123979" lon="12.2230772"><ele>246.0</ele><time>2026-04-01T08:09:22.536Z</time></trkpt><trkpt lat="43.1240233" lon="12.2229821"><ele>246.0</ele><time>2026-04-01T08:09:23.535Z</time></trkpt><trkpt lat="43.1240875" lon="12.2228988"><ele>246.0</ele><time>2026-04-01T08:09:24.535Z</time></trkpt><trkpt lat="43.1241509" lon="12.2228222"><ele>246.0</ele><time>2026-04-01T08:09:25.535Z</time></trkpt><trkpt lat="43.1242187" lon="12.2227448"><ele>244.66666666666666</ele><time>2026-04-01T08:09:26.534Z</time></trkpt><trkpt lat="43.124283" lon="12.2226862"><ele>243.33333333333331</ele><time>2026-04-01T08:09:27.534Z</time></trkpt><trkpt lat="43.1243426" lon="12.2226141"><ele>242.0</ele><time>2026-04-01T08:09:28.534Z</time></trkpt><trkpt lat="43.1244023" lon="12.2225542"><ele>240.66666666666666</ele><time>2026-04-01T08:09:29.534Z</time></trkpt><trkpt lat="43.1244722" lon="12.2224999"><ele>239.33333333333331</ele><time>2026-04-01T08:09:30.534Z</time></trkpt><trkpt lat="43.1245487" lon="12.2224286"><ele>238.0</ele><time>2026-04-01T08:09:31.534Z</time></trkpt><trkpt lat="43.1246351" lon="12.2223548"><ele>237.60000000000002</ele><time>2026-04-01T08:09:32.534Z</time></trkpt><trkpt lat="43.1247298" lon="12.2222884"><ele>237.20000000000002</ele><time>2026-04-01T08:09:33.535Z</time></trkpt><trkpt lat="43.1248231" lon="12.2222151"><ele>236.8</ele><time>2026-04-01T08:09:34.535Z</time></trkpt><trkpt lat="43.1248995" lon="12.2221462"><ele>236.4</ele><time>2026-04-01T08:09:35.534Z</time></trkpt><trkpt lat="43.1249923" lon="12.2220749"><ele>236.0</ele><time>2026-04-01T08:09:36.536Z</time></trkpt><trkpt lat="43.1250875" lon="12.2220121"><ele>235.20000000000002</ele><time>2026-04-01T08:09:37.534Z</time></trkpt><trkpt lat="43.125189" lon="12.2219396"><ele>234.40000000000003</ele><time>2026-04-01T08:09:38.535Z</time></trkpt><trkpt lat="43.1252798" lon="12.2218738"><ele>233.6</ele><time>2026-04-01T08:09:39.534Z</time></trkpt><trkpt lat="43.1253634" lon="12.2218054"><ele>232.8</ele><time>2026-04-01T08:09:40.535Z</time></trkpt><trkpt lat="43.1254408" lon="12.2217459"><ele>232.0</ele><time>2026-04-01T08:09:41.535Z</time></trkpt><trkpt lat="43.1255077" lon="12.2217008"><ele>232.0</ele><time>2026-04-01T08:09:42.536Z</time></trkpt><trkpt lat="43.1255745" lon="12.221651"><ele>232.0</ele><time>2026-04-01T08:09:43.535Z</time></trkpt><trkpt lat="43.1257091" lon="12.2215684"><ele>232.0</ele><time>2026-04-01T08:09:45.535Z</time></trkpt><trkpt lat="43.1257853" lon="12.2215061"><ele>232.0</ele><time>2026-04-01T08:09:46.535Z</time></trkpt><trkpt lat="43.1258484" lon="12.2214518"><ele>232.0</ele><time>2026-04-01T08:09:47.535Z</time></trkpt><trkpt lat="43.1259166" lon="12.22141"><ele>232.8</ele><time>2026-04-01T08:09:48.536Z</time></trkpt><trkpt lat="43.1259844" lon="12.2213682"><ele>233.6</ele><time>2026-04-01T08:09:49.535Z</time></trkpt><trkpt lat="43.1260554" lon="12.2213241"><ele>234.40000000000003</ele><time>2026-04-01T08:09:50.536Z</time></trkpt><trkpt lat="43.1261264" lon="12.221288"><ele>235.20000000000002</ele><time>2026-04-01T08:09:51.536Z</time></trkpt><trkpt lat="43.1262213" lon="12.2212357"><ele>236.0</ele><time>2026-04-01T08:09:52.725Z</time></trkpt><trkpt lat="43.1264131" lon="12.2213584"><ele>236.0</ele><time>2026-04-01T08:09:54.726Z</time></trkpt><trkpt lat="43.1265589" lon="12.2211806"><ele>236.00000000000003</ele><time>2026-04-01T08:09:56.727Z</time></trkpt><trkpt lat="43.1266462" lon="12.2211571"><ele>236.00000000000003</ele><time>2026-04-01T08:09:57.726Z</time></trkpt><trkpt lat="43.1267379" lon="12.2211573"><ele>236.0</ele><time>2026-04-01T08:09:58.726Z</time></trkpt><trkpt lat="43.1268054" lon="12.2211174"><ele>236.0</ele><time>2026-04-01T08:09:59.727Z</time></trkpt><trkpt lat="43.1269124" lon="12.2210299"><ele>235.33333333333334</ele><time>2026-04-01T08:10:00.726Z</time></trkpt><trkpt lat="43.1270496" lon="12.2208996"><ele>234.66666666666669</ele><time>2026-04-01T08:10:01.726Z</time></trkpt><trkpt lat="43.1269593" lon="12.2209904"><ele>234.0</ele><time>2026-04-01T08:10:02.726Z</time></trkpt><trkpt lat="43.1273268" lon="12.2207601"><ele>234.25</ele><time>2026-04-01T08:10:04.535Z</time></trkpt><trkpt lat="43.1274329" lon="12.2206999"><ele>234.5</ele><time>2026-04-01T08:10:05.535Z</time></trkpt><trkpt lat="43.1275615" lon="12.2206398"><ele>234.75</ele><time>2026-04-01T08:10:06.535Z</time></trkpt><trkpt lat="43.127643" lon="12.2205738"><ele>235.0</ele><time>2026-04-01T08:10:07.535Z</time></trkpt><trkpt lat="43.1277296" lon="12.220467"><ele>235.25</ele><time>2026-04-01T08:10:08.536Z</time></trkpt><trkpt lat="43.1278203" lon="12.2203533"><ele>235.5</ele><time>2026-04-01T08:10:09.535Z</time></trkpt><trkpt lat="43.1278765" lon="12.2202121"><ele>235.75</ele><time>2026-04-01T08:10:10.536Z</time></trkpt><trkpt lat="43.1279034" lon="12.2200542"><ele>236.0</ele><time>2026-04-01T08:10:11.534Z</time></trkpt><trkpt lat="43.1279454" lon="12.2199195"><ele>235.60000000000002</ele><time>2026-04-01T08:10:12.535Z</time></trkpt><trkpt lat="43.1279844" lon="12.2197998"><ele>235.20000000000002</ele><time>2026-04-01T08:10:13.535Z</time></trkpt><trkpt lat="43.1280196" lon="12.2196769"><ele>234.79999999999998</ele><time>2026-04-01T08:10:14.536Z</time></trkpt><trkpt lat="43.1280524" lon="12.2195579"><ele>234.39999999999998</ele><time>2026-04-01T08:10:15.534Z</time></trkpt><trkpt lat="43.1280894" lon="12.2194393"><ele>234.0</ele><time>2026-04-01T08:10:16.535Z</time></trkpt><trkpt lat="43.1281529" lon="12.2193362"><ele>233.33333333333331</ele><time>2026-04-01T08:10:17.534Z</time></trkpt><trkpt lat="43.128404" lon="12.2193368"><ele>232.66666666666666</ele><time>2026-04-01T08:10:18.534Z</time></trkpt><trkpt lat="43.1285532" lon="12.2192904"><ele>232.0</ele><time>2026-04-01T08:10:19.535Z</time></trkpt><trkpt lat="43.1287095" lon="12.219268"><ele>232.0</ele><time>2026-04-01T08:10:20.535Z</time></trkpt><trkpt lat="43.1288681" lon="12.2192462"><ele>232.0</ele><time>2026-04-01T08:10:21.535Z</time></trkpt><trkpt lat="43.1289799" lon="12.2191653"><ele>232.0</ele><time>2026-04-01T08:10:22.536Z</time></trkpt><trkpt lat="43.129123" lon="12.219074"><ele>232.0</ele><time>2026-04-01T08:10:23.536Z</time></trkpt><trkpt lat="43.1292464" lon="12.2189578"><ele>232.33333333333331</ele><time>2026-04-01T08:10:24.534Z</time></trkpt><trkpt lat="43.129364" lon="12.2187305"><ele>232.66666666666669</ele><time>2026-04-01T08:10:25.535Z</time></trkpt><trkpt lat="43.1294972" lon="12.2185069"><ele>233.0</ele><time>2026-04-01T08:10:26.534Z</time></trkpt><trkpt lat="43.129631" lon="12.2182521"><ele>233.0</ele><time>2026-04-01T08:10:27.536Z</time></trkpt><trkpt lat="43.1297455" lon="12.2179977"><ele>233.0</ele><time>2026-04-01T08:10:28.535Z</time></trkpt><trkpt lat="43.1298606" lon="12.2177605"><ele>233.0</ele><time>2026-04-01T08:10:29.536Z</time></trkpt><trkpt lat="43.1299624" lon="12.2175363"><ele>233.0</ele><time>2026-04-01T08:10:30.536Z</time></trkpt><trkpt lat="43.1300575" lon="12.2173333"><ele>233.0</ele><time>2026-04-01T08:10:31.536Z</time></trkpt><trkpt lat="43.1301518" lon="12.2171409"><ele>233.0</ele><time>2026-04-01T08:10:32.533Z</time></trkpt><trkpt lat="43.1302604" lon="12.216956"><ele>233.0</ele><time>2026-04-01T08:10:33.535Z</time></trkpt><trkpt lat="43.1303787" lon="12.2167697"><ele>233.0</ele><time>2026-04-01T08:10:34.535Z</time></trkpt><trkpt lat="43.1305064" lon="12.2165937"><ele>233.0</ele><time>2026-04-01T08:10:35.535Z</time></trkpt><trkpt lat="43.1306405" lon="12.2164147"><ele>233.33333333333334</ele><time>2026-04-01T08:10:36.534Z</time></trkpt><trkpt lat="43.1307844" lon="12.2162337"><ele>233.66666666666669</ele><time>2026-04-01T08:10:37.535Z</time></trkpt><trkpt lat="43.1309294" lon="12.2160453"><ele>234.0</ele><time>2026-04-01T08:10:38.534Z</time></trkpt><trkpt lat="43.1310801" lon="12.2158588"><ele>234.0</ele><time>2026-04-01T08:10:39.536Z</time></trkpt><trkpt lat="43.1312358" lon="12.2156643"><ele>234.0</ele><time>2026-04-01T08:10:40.535Z</time></trkpt><trkpt lat="43.1313905" lon="12.2154515"><ele>234.0</ele><time>2026-04-01T08:10:41.536Z</time></trkpt><trkpt lat="43.1315544" lon="12.2152303"><ele>233.5</ele><time>2026-04-01T08:10:42.535Z</time></trkpt><trkpt lat="43.1317268" lon="12.2149936"><ele>233.0</ele><time>2026-04-01T08:10:43.535Z</time></trkpt><trkpt lat="43.1318956" lon="12.2147613"><ele>232.5</ele><time>2026-04-01T08:10:44.535Z</time></trkpt><trkpt lat="43.1320426" lon="12.2145185"><ele>232.0</ele><time>2026-04-01T08:10:45.535Z</time></trkpt><trkpt lat="43.1321895" lon="12.2142658"><ele>232.0</ele><time>2026-04-01T08:10:46.536Z</time></trkpt><trkpt lat="43.1323343" lon="12.2140227"><ele>232.0</ele><time>2026-04-01T08:10:47.534Z</time></trkpt><trkpt lat="43.1324611" lon="12.2138018"><ele>232.0</ele><time>2026-04-01T08:10:48.534Z</time></trkpt><trkpt lat="43.1325963" lon="12.2135822"><ele>232.0</ele><time>2026-04-01T08:10:49.535Z</time></trkpt><trkpt lat="43.132732" lon="12.2133645"><ele>232.0</ele><time>2026-04-01T08:10:50.534Z</time></trkpt><trkpt lat="43.1328656" lon="12.2131622"><ele>232.0</ele><time>2026-04-01T08:10:51.535Z</time></trkpt><trkpt lat="43.1330156" lon="12.2129561"><ele>232.66666666666666</ele><time>2026-04-01T08:10:52.536Z</time></trkpt><trkpt lat="43.1331572" lon="12.2127313"><ele>233.33333333333331</ele><time>2026-04-01T08:10:53.535Z</time></trkpt><trkpt lat="43.1333054" lon="12.2125365"><ele>234.0</ele><time>2026-04-01T08:10:54.535Z</time></trkpt><trkpt lat="43.1334403" lon="12.2123487"><ele>233.66666666666669</ele><time>2026-04-01T08:10:55.536Z</time></trkpt><trkpt lat="43.1335869" lon="12.2121701"><ele>233.33333333333334</ele><time>2026-04-01T08:10:56.536Z</time></trkpt><trkpt lat="43.1337254" lon="12.211993"><ele>233.0</ele><time>2026-04-01T08:10:57.534Z</time></trkpt><trkpt lat="43.133856" lon="12.2118089"><ele>233.0</ele><time>2026-04-01T08:10:58.537Z</time></trkpt><trkpt lat="43.1339858" lon="12.2116093"><ele>233.0</ele><time>2026-04-01T08:10:59.535Z</time></trkpt><trkpt lat="43.1340916" lon="12.2113928"><ele>233.0</ele><time>2026-04-01T08:11:00.535Z</time></trkpt><trkpt lat="43.1341972" lon="12.2111592"><ele>233.66666666666669</ele><time>2026-04-01T08:11:01.535Z</time></trkpt><trkpt lat="43.1342966" lon="12.210903"><ele>234.33333333333331</ele><time>2026-04-01T08:11:02.535Z</time></trkpt><trkpt lat="43.1343684" lon="12.2106641"><ele>235.0</ele><time>2026-04-01T08:11:03.536Z</time></trkpt><trkpt lat="43.1344374" lon="12.2104227"><ele>235.0</ele><time>2026-04-01T08:11:04.534Z</time></trkpt><trkpt lat="43.1345047" lon="12.2102061"><ele>235.0</ele><time>2026-04-01T08:11:05.534Z</time></trkpt><trkpt lat="43.1345549" lon="12.2099835"><ele>235.0</ele><time>2026-04-01T08:11:06.536Z</time></trkpt><trkpt lat="43.1345861" lon="12.2097794"><ele>235.16666666666666</ele><time>2026-04-01T08:11:07.536Z</time></trkpt><trkpt lat="43.1346009" lon="12.2096152"><ele>235.33333333333331</ele><time>2026-04-01T08:11:08.535Z</time></trkpt><trkpt lat="43.1346227" lon="12.2094869"><ele>235.5</ele><time>2026-04-01T08:11:09.535Z</time></trkpt><trkpt lat="43.1346374" lon="12.2093911"><ele>235.66666666666669</ele><time>2026-04-01T08:11:10.536Z</time></trkpt><trkpt lat="43.1346412" lon="12.2092841"><ele>235.83333333333334</ele><time>2026-04-01T08:11:16.537Z</time></trkpt><trkpt lat="43.13461" lon="12.209192"><ele>236.0</ele><time>2026-04-01T08:11:18.535Z</time></trkpt><trkpt lat="43.1345008" lon="12.2090988"><ele>236.0</ele><time>2026-04-01T08:11:20.535Z</time></trkpt><trkpt lat="43.1344351" lon="12.2090536"><ele>236.00000000000003</ele><time>2026-04-01T08:11:21.535Z</time></trkpt><trkpt lat="43.1343553" lon="12.2089978"><ele>236.00000000000003</ele><time>2026-04-01T08:11:22.535Z</time></trkpt><trkpt lat="43.1342679" lon="12.2089259"><ele>236.0</ele><time>2026-04-01T08:11:23.535Z</time></trkpt><trkpt lat="43.1341967" lon="12.2088464"><ele>236.0</ele><time>2026-04-01T08:11:24.535Z</time></trkpt><trkpt lat="43.1341099" lon="12.2087611"><ele>235.8</ele><time>2026-04-01T08:11:25.535Z</time></trkpt><trkpt lat="43.1340485" lon="12.2086674"><ele>235.60000000000002</ele><time>2026-04-01T08:11:26.535Z</time></trkpt><trkpt lat="43.1339824" lon="12.2085676"><ele>235.4</ele><time>2026-04-01T08:11:27.535Z</time></trkpt><trkpt lat="43.133922" lon="12.2084518"><ele>235.2</ele><time>2026-04-01T08:11:28.535Z</time></trkpt><trkpt lat="43.1338592" lon="12.2083331"><ele>235.0</ele><time>2026-04-01T08:11:29.535Z</time></trkpt><trkpt lat="43.1337783" lon="12.2081931"><ele>236.0</ele><time>2026-04-01T08:11:30.536Z</time></trkpt><trkpt lat="43.1336919" lon="12.2080472"><ele>237.0</ele><time>2026-04-01T08:11:31.535Z</time></trkpt><trkpt lat="43.133594" lon="12.2078809"><ele>238.0</ele><time>2026-04-01T08:11:32.536Z</time></trkpt><trkpt lat="43.1335006" lon="12.2077047"><ele>238.0</ele><time>2026-04-01T08:11:33.534Z</time></trkpt><trkpt lat="43.1334169" lon="12.2075325"><ele>238.0</ele><time>2026-04-01T08:11:34.535Z</time></trkpt><trkpt lat="43.1333423" lon="12.207383"><ele>238.0</ele><time>2026-04-01T08:11:35.535Z</time></trkpt><trkpt lat="43.1332759" lon="12.2072473"><ele>238.0</ele><time>2026-04-01T08:11:36.535Z</time></trkpt><trkpt lat="43.1332133" lon="12.2071295"><ele>237.66666666666666</ele><time>2026-04-01T08:11:37.536Z</time></trkpt><trkpt lat="43.1331641" lon="12.2070219"><ele>237.33333333333331</ele><time>2026-04-01T08:11:38.535Z</time></trkpt><trkpt lat="43.1331273" lon="12.2069317"><ele>237.0</ele><time>2026-04-01T08:11:39.535Z</time></trkpt><trkpt lat="43.1330962" lon="12.2068522"><ele>236.66666666666669</ele><time>2026-04-01T08:11:40.536Z</time></trkpt><trkpt lat="43.1330628" lon="12.2067699"><ele>236.33333333333334</ele><time>2026-04-01T08:11:41.536Z</time></trkpt><trkpt lat="43.13303" lon="12.2066823"><ele>236.0</ele><time>2026-04-01T08:11:42.537Z</time></trkpt><trkpt lat="43.1329946" lon="12.2065634"><ele>236.16666666666669</ele><time>2026-04-01T08:11:43.535Z</time></trkpt><trkpt lat="43.1329571" lon="12.2064481"><ele>236.33333333333334</ele><time>2026-04-01T08:11:44.535Z</time></trkpt><trkpt lat="43.132927" lon="12.2063302"><ele>236.5</ele><time>2026-04-01T08:11:45.535Z</time></trkpt><trkpt lat="43.1329205" lon="12.2062225"><ele>236.66666666666669</ele><time>2026-04-01T08:11:46.534Z</time></trkpt><trkpt lat="43.1329024" lon="12.2061309"><ele>236.83333333333334</ele><time>2026-04-01T08:11:47.536Z</time></trkpt><trkpt lat="43.1329398" lon="12.2059936"><ele>237.0</ele><time>2026-04-01T08:11:49.537Z</time></trkpt><trkpt lat="43.1329459" lon="12.2058655"><ele>237.0</ele><time>2026-04-01T08:11:51.535Z</time></trkpt><trkpt lat="43.1329339" lon="12.205725"><ele>237.0</ele><time>2026-04-01T08:11:53.536Z</time></trkpt><trkpt lat="43.1329251" lon="12.2055533"><ele>237.0</ele><time>2026-04-01T08:11:55.536Z</time></trkpt><trkpt lat="43.132952" lon="12.2054616"><ele>237.0</ele><time>2026-04-01T08:11:56.537Z</time></trkpt><trkpt lat="43.1329838" lon="12.2053642"><ele>237.0</ele><time>2026-04-01T08:11:57.536Z</time></trkpt><trkpt lat="43.1330259" lon="12.2052832"><ele>237.39999999999998</ele><time>2026-04-01T08:11:58.535Z</time></trkpt><trkpt lat="43.133089" lon="12.2051634"><ele>237.79999999999998</ele><time>2026-04-01T08:12:00.535Z</time></trkpt><trkpt lat="43.1331875" lon="12.2050333"><ele>238.2</ele><time>2026-04-01T08:12:02.535Z</time></trkpt><trkpt lat="43.1332656" lon="12.2049787"><ele>238.6</ele><time>2026-04-01T08:12:03.535Z</time></trkpt><trkpt lat="43.1333469" lon="12.2049391"><ele>239.0</ele><time>2026-04-01T08:12:04.535Z</time></trkpt><trkpt lat="43.1334265" lon="12.2048965"><ele>239.39999999999998</ele><time>2026-04-01T08:12:05.535Z</time></trkpt><trkpt lat="43.1335072" lon="12.2048674"><ele>239.79999999999998</ele><time>2026-04-01T08:12:06.535Z</time></trkpt><trkpt lat="43.1336031" lon="12.2048235"><ele>240.20000000000002</ele><time>2026-04-01T08:12:07.536Z</time></trkpt><trkpt lat="43.1337017" lon="12.2047818"><ele>240.60000000000002</ele><time>2026-04-01T08:12:08.536Z</time></trkpt><trkpt lat="43.133806" lon="12.2047636"><ele>241.0</ele><time>2026-04-01T08:12:09.536Z</time></trkpt><trkpt lat="43.1339126" lon="12.2047596"><ele>241.0</ele><time>2026-04-01T08:12:10.536Z</time></trkpt><trkpt lat="43.1340149" lon="12.2047404"><ele>241.0</ele><time>2026-04-01T08:12:11.537Z</time></trkpt><trkpt lat="43.134134" lon="12.2047123"><ele>241.0</ele><time>2026-04-01T08:12:12.537Z</time></trkpt><trkpt lat="43.1342634" lon="12.2046886"><ele>241.0</ele><time>2026-04-01T08:12:13.535Z</time></trkpt><trkpt lat="43.1343884" lon="12.2046589"><ele>241.25</ele><time>2026-04-01T08:12:14.534Z</time></trkpt><trkpt lat="43.1345207" lon="12.2046287"><ele>241.5</ele><time>2026-04-01T08:12:15.536Z</time></trkpt><trkpt lat="43.134638" lon="12.2046101"><ele>241.75</ele><time>2026-04-01T08:12:16.537Z</time></trkpt><trkpt lat="43.1347472" lon="12.2045819"><ele>242.0</ele><time>2026-04-01T08:12:17.535Z</time></trkpt><trkpt lat="43.1348546" lon="12.2045572"><ele>242.16666666666669</ele><time>2026-04-01T08:12:18.536Z</time></trkpt><trkpt lat="43.1349378" lon="12.2045325"><ele>242.33333333333334</ele><time>2026-04-01T08:12:19.536Z</time></trkpt><trkpt lat="43.1349984" lon="12.2044974"><ele>242.5</ele><time>2026-04-01T08:12:20.535Z</time></trkpt><trkpt lat="43.1350879" lon="12.204398"><ele>242.66666666666669</ele><time>2026-04-01T08:12:22.536Z</time></trkpt><trkpt lat="43.1350947" lon="12.2043093"><ele>242.83333333333334</ele><time>2026-04-01T08:12:23.535Z</time></trkpt><trkpt lat="43.1351144" lon="12.2042253"><ele>243.0</ele><time>2026-04-01T08:12:24.536Z</time></trkpt><trkpt lat="43.1351659" lon="12.203964"><ele>242.5</ele><time>2026-04-01T08:12:25.538Z</time></trkpt><trkpt lat="43.1351925" lon="12.2037604"><ele>242.0</ele><time>2026-04-01T08:12:26.536Z</time></trkpt><trkpt lat="43.1352111" lon="12.2035767"><ele>241.5</ele><time>2026-04-01T08:12:27.535Z</time></trkpt><trkpt lat="43.1352325" lon="12.2033909"><ele>241.0</ele><time>2026-04-01T08:12:28.535Z</time></trkpt><trkpt lat="43.1352491" lon="12.2032656"><ele>241.0</ele><time>2026-04-01T08:12:29.535Z</time></trkpt><trkpt lat="43.1352626" lon="12.2031771"><ele>241.00000000000003</ele><time>2026-04-01T08:12:30.535Z</time></trkpt><trkpt lat="43.1352825" lon="12.2030827"><ele>241.00000000000003</ele><time>2026-04-01T08:12:33.535Z</time></trkpt><trkpt lat="43.1352339" lon="12.2030222"><ele>241.0</ele><time>2026-04-01T08:12:34.535Z</time></trkpt><trkpt lat="43.1351054" lon="12.2029016"><ele>241.0</ele><time>2026-04-01T08:12:36.535Z</time></trkpt><trkpt lat="43.1350072" lon="12.2028159"><ele>241.4</ele><time>2026-04-01T08:12:37.535Z</time></trkpt><trkpt lat="43.134906" lon="12.2027342"><ele>241.8</ele><time>2026-04-01T08:12:38.535Z</time></trkpt><trkpt lat="43.1348105" lon="12.2026673"><ele>242.20000000000002</ele><time>2026-04-01T08:12:39.536Z</time></trkpt><trkpt lat="43.1347359" lon="12.202611"><ele>242.60000000000002</ele><time>2026-04-01T08:12:40.535Z</time></trkpt><trkpt lat="43.1346488" lon="12.2025217"><ele>243.0</ele><time>2026-04-01T08:12:42.535Z</time></trkpt><trkpt lat="43.1346474" lon="12.2024082"><ele>243.0</ele><time>2026-04-01T08:12:44.536Z</time></trkpt><trkpt lat="43.1347226" lon="12.202295"><ele>243.0</ele><time>2026-04-01T08:12:46.536Z</time></trkpt><trkpt lat="43.1347834" lon="12.2022345"><ele>243.0</ele><time>2026-04-01T08:12:47.536Z</time></trkpt><trkpt lat="43.1348585" lon="12.2021503"><ele>243.0</ele><time>2026-04-01T08:12:48.535Z</time></trkpt><trkpt lat="43.1349335" lon="12.2020403"><ele>243.0</ele><time>2026-04-01T08:12:49.535Z</time></trkpt><trkpt lat="43.1350128" lon="12.2019463"><ele>243.0</ele><time>2026-04-01T08:12:50.536Z</time></trkpt><trkpt lat="43.1350832" lon="12.2018648"><ele>243.0</ele><time>2026-04-01T08:12:51.534Z</time></trkpt><trkpt lat="43.1351512" lon="12.2017873"><ele>243.0</ele><time>2026-04-01T08:12:52.536Z</time></trkpt><trkpt lat="43.1352191" lon="12.201715"><ele>243.0</ele><time>2026-04-01T08:12:53.536Z</time></trkpt><trkpt lat="43.1352758" lon="12.2016428"><ele>243.0</ele><time>2026-04-01T08:12:54.535Z</time></trkpt><trkpt lat="43.1353531" lon="12.2015322"><ele>243.0</ele><time>2026-04-01T08:12:56.535Z</time></trkpt><trkpt lat="43.1354293" lon="12.2014383"><ele>243.0</ele><time>2026-04-01T08:12:58.535Z</time></trkpt><trkpt lat="43.1354868" lon="12.2013791"><ele>243.0</ele><time>2026-04-01T08:13:41.535Z</time></trkpt><trkpt lat="43.1355799" lon="12.2012656"><ele>243.0</ele><time>2026-04-01T08:13:43.536Z</time></trkpt><trkpt lat="43.1356631" lon="12.2011716"><ele>243.0</ele><time>2026-04-01T08:13:44.535Z</time></trkpt><trkpt lat="43.1357413" lon="12.2010749"><ele>243.0</ele><time>2026-04-01T08:13:45.536Z</time></trkpt><trkpt lat="43.1358005" lon="12.2009707"><ele>243.0</ele><time>2026-04-01T08:13:46.536Z</time></trkpt><trkpt lat="43.1358407" lon="12.2008663"><ele>243.0</ele><time>2026-04-01T08:13:47.537Z</time></trkpt><trkpt lat="43.1358649" lon="12.2007487"><ele>243.0</ele><time>2026-04-01T08:13:48.536Z</time></trkpt><trkpt lat="43.1358728" lon="12.2006102"><ele>243.0</ele><time>2026-04-01T08:13:49.537Z</time></trkpt><trkpt lat="43.1358537" lon="12.2004339"><ele>243.66666666666669</ele><time>2026-04-01T08:13:50.536Z</time></trkpt><trkpt lat="43.1358151" lon="12.2002262"><ele>244.33333333333334</ele><time>2026-04-01T08:13:51.536Z</time></trkpt><trkpt lat="43.1357713" lon="12.2000164"><ele>245.0</ele><time>2026-04-01T08:13:52.536Z</time></trkpt><trkpt lat="43.1357258" lon="12.1998004"><ele>244.75</ele><time>2026-04-01T08:13:53.537Z</time></trkpt><trkpt lat="43.1356874" lon="12.1996072"><ele>244.5</ele><time>2026-04-01T08:13:54.536Z</time></trkpt><trkpt lat="43.1356529" lon="12.199435"><ele>244.25</ele><time>2026-04-01T08:13:55.535Z</time></trkpt><trkpt lat="43.1356227" lon="12.1992885"><ele>244.0</ele><time>2026-04-01T08:13:56.536Z</time></trkpt><trkpt lat="43.1356103" lon="12.1991751"><ele>244.0</ele><time>2026-04-01T08:13:57.536Z</time></trkpt><trkpt lat="43.1356236" lon="12.1990213"><ele>244.0</ele><time>2026-04-01T08:13:59.536Z</time></trkpt><trkpt lat="43.1357301" lon="12.1989281"><ele>244.0</ele><time>2026-04-01T08:14:01.536Z</time></trkpt><trkpt lat="43.1358192" lon="12.1988854"><ele>244.0</ele><time>2026-04-01T08:14:02.536Z</time></trkpt><trkpt lat="43.1359485" lon="12.1988439"><ele>244.33333333333331</ele><time>2026-04-01T08:14:03.535Z</time></trkpt><trkpt lat="43.1360944" lon="12.1987949"><ele>244.66666666666669</ele><time>2026-04-01T08:14:04.537Z</time></trkpt><trkpt lat="43.1362745" lon="12.1987485"><ele>245.0</ele><time>2026-04-01T08:14:05.537Z</time></trkpt><trkpt lat="43.1364718" lon="12.1986998"><ele>245.33333333333334</ele><time>2026-04-01T08:14:06.535Z</time></trkpt><trkpt lat="43.1366793" lon="12.1986392"><ele>245.66666666666669</ele><time>2026-04-01T08:14:07.536Z</time></trkpt><trkpt lat="43.1368679" lon="12.1985652"><ele>246.0</ele><time>2026-04-01T08:14:08.535Z</time></trkpt><trkpt lat="43.1370165" lon="12.1985256"><ele>246.0</ele><time>2026-04-01T08:14:09.535Z</time></trkpt><trkpt lat="43.1371595" lon="12.1984868"><ele>246.0</ele><time>2026-04-01T08:14:10.536Z</time></trkpt><trkpt lat="43.1372903" lon="12.1984572"><ele>246.0</ele><time>2026-04-01T08:14:11.536Z</time></trkpt><trkpt lat="43.1374159" lon="12.1984212"><ele>246.0</ele><time>2026-04-01T08:14:12.537Z</time></trkpt><trkpt lat="43.1375222" lon="12.1983786"><ele>246.75</ele><time>2026-04-01T08:14:13.536Z</time></trkpt><trkpt lat="43.1376314" lon="12.1983244"><ele>247.5</ele><time>2026-04-01T08:14:14.537Z</time></trkpt><trkpt lat="43.1377363" lon="12.1982587"><ele>248.25</ele><time>2026-04-01T08:14:15.537Z</time></trkpt><trkpt lat="43.1378734" lon="12.1981383"><ele>249.0</ele><time>2026-04-01T08:14:16.536Z</time></trkpt><trkpt lat="43.1380236" lon="12.1980325"><ele>249.25</ele><time>2026-04-01T08:14:17.536Z</time></trkpt><trkpt lat="43.1381657" lon="12.1979376"><ele>249.5</ele><time>2026-04-01T08:14:18.536Z</time></trkpt><trkpt lat="43.1382965" lon="12.1978419"><ele>249.75</ele><time>2026-04-01T08:14:19.536Z</time></trkpt><trkpt lat="43.1384194" lon="12.1977691"><ele>250.0</ele><time>2026-04-01T08:14:20.537Z</time></trkpt><trkpt lat="43.1385514" lon="12.1976924"><ele>250.33333333333331</ele><time>2026-04-01T08:14:21.536Z</time></trkpt><trkpt lat="43.1386921" lon="12.1976093"><ele>250.66666666666669</ele><time>2026-04-01T08:14:22.536Z</time></trkpt><trkpt lat="43.1388291" lon="12.1975386"><ele>251.0</ele><time>2026-04-01T08:14:23.536Z</time></trkpt><trkpt lat="43.1389744" lon="12.1974636"><ele>251.66666666666669</ele><time>2026-04-01T08:14:24.536Z</time></trkpt><trkpt lat="43.1391141" lon="12.1973953"><ele>252.33333333333331</ele><time>2026-04-01T08:14:25.537Z</time></trkpt><trkpt lat="43.1392607" lon="12.1973213"><ele>253.0</ele><time>2026-04-01T08:14:26.535Z</time></trkpt><trkpt lat="43.1394087" lon="12.1972344"><ele>253.66666666666666</ele><time>2026-04-01T08:14:27.536Z</time></trkpt><trkpt lat="43.1395556" lon="12.197153"><ele>254.33333333333331</ele><time>2026-04-01T08:14:28.536Z</time></trkpt><trkpt lat="43.1397019" lon="12.1970677"><ele>255.0</ele><time>2026-04-01T08:14:29.535Z</time></trkpt><trkpt lat="43.1398396" lon="12.1969869"><ele>255.25</ele><time>2026-04-01T08:14:30.536Z</time></trkpt><trkpt lat="43.1399451" lon="12.1969152"><ele>255.5</ele><time>2026-04-01T08:14:31.536Z</time></trkpt><trkpt lat="43.1400562" lon="12.1968492"><ele>255.75</ele><time>2026-04-01T08:14:32.536Z</time></trkpt><trkpt lat="43.1401614" lon="12.1967908"><ele>256.0</ele><time>2026-04-01T08:14:35.536Z</time></trkpt><trkpt lat="43.1402775" lon="12.1967555"><ele>255.99999999999997</ele><time>2026-04-01T08:14:37.536Z</time></trkpt><trkpt lat="43.1403507" lon="12.1967357"><ele>256.0</ele><time>2026-04-01T08:14:38.536Z</time></trkpt><trkpt lat="43.1404379" lon="12.1967134"><ele>256.0</ele><time>2026-04-01T08:14:39.535Z</time></trkpt><trkpt lat="43.1405263" lon="12.1966904"><ele>256.0</ele><time>2026-04-01T08:14:40.534Z</time></trkpt><trkpt lat="43.1405993" lon="12.1966375"><ele>255.99999999999997</ele><time>2026-04-01T08:14:41.536Z</time></trkpt><trkpt lat="43.1406715" lon="12.1965761"><ele>256.0</ele><time>2026-04-01T08:14:42.536Z</time></trkpt><trkpt lat="43.1407281" lon="12.1965111"><ele>257.25</ele><time>2026-04-01T08:14:43.536Z</time></trkpt><trkpt lat="43.1408197" lon="12.1963915"><ele>258.5</ele><time>2026-04-01T08:14:45.536Z</time></trkpt><trkpt lat="43.140895" lon="12.1962304"><ele>259.75</ele><time>2026-04-01T08:14:47.535Z</time></trkpt><trkpt lat="43.1409324" lon="12.1961032"><ele>261.0</ele><time>2026-04-01T08:14:48.534Z</time></trkpt><trkpt lat="43.1409728" lon="12.1959542"><ele>261.0</ele><time>2026-04-01T08:14:49.536Z</time></trkpt><trkpt lat="43.1410242" lon="12.195765"><ele>261.0</ele><time>2026-04-01T08:14:50.535Z</time></trkpt><trkpt lat="43.1410773" lon="12.1955556"><ele>261.0</ele><time>2026-04-01T08:14:51.537Z</time></trkpt><trkpt lat="43.1411181" lon="12.1953625"><ele>262.40000000000003</ele><time>2026-04-01T08:14:52.534Z</time></trkpt><trkpt lat="43.1411461" lon="12.1951902"><ele>263.8</ele><time>2026-04-01T08:14:53.536Z</time></trkpt><trkpt lat="43.1411634" lon="12.1950486"><ele>265.20000000000005</ele><time>2026-04-01T08:14:54.535Z</time></trkpt><trkpt lat="43.141195" lon="12.1949289"><ele>266.6</ele><time>2026-04-01T08:14:55.535Z</time></trkpt><trkpt lat="43.1412376" lon="12.194844"><ele>268.0</ele><time>2026-04-01T08:14:56.537Z</time></trkpt><trkpt lat="43.1413444" lon="12.1947811"><ele>268.75</ele><time>2026-04-01T08:14:57.536Z</time></trkpt><trkpt lat="43.1414297" lon="12.1947206"><ele>269.5</ele><time>2026-04-01T08:14:58.537Z</time></trkpt><trkpt lat="43.1415444" lon="12.1946565"><ele>270.25</ele><time>2026-04-01T08:14:59.537Z</time></trkpt><trkpt lat="43.1416838" lon="12.1945801"><ele>271.0</ele><time>2026-04-01T08:15:00.536Z</time></trkpt><trkpt lat="43.1417939" lon="12.1945429"><ele>271.0</ele><time>2026-04-01T08:15:01.535Z</time></trkpt><trkpt lat="43.1419022" lon="12.1944997"><ele>271.0</ele><time>2026-04-01T08:15:02.535Z</time></trkpt><trkpt lat="43.1420228" lon="12.1944563"><ele>271.0</ele><time>2026-04-01T08:15:03.535Z</time></trkpt><trkpt lat="43.1421574" lon="12.1944378"><ele>271.0</ele><time>2026-04-01T08:15:04.536Z</time></trkpt><trkpt lat="43.1423046" lon="12.1944311"><ele>270.0</ele><time>2026-04-01T08:15:05.536Z</time></trkpt><trkpt lat="43.1424356" lon="12.1944392"><ele>269.0</ele><time>2026-04-01T08:15:06.536Z</time></trkpt><trkpt lat="43.1425612" lon="12.1944554"><ele>268.0</ele><time>2026-04-01T08:15:07.536Z</time></trkpt><trkpt lat="43.1426745" lon="12.1944649"><ele>267.0</ele><time>2026-04-01T08:15:08.535Z</time></trkpt><trkpt lat="43.1427693" lon="12.1944426"><ele>267.0</ele><time>2026-04-01T08:15:09.535Z</time></trkpt><trkpt lat="43.1428655" lon="12.1943922"><ele>267.0</ele><time>2026-04-01T08:15:10.534Z</time></trkpt><trkpt lat="43.1429417" lon="12.1943052"><ele>267.0</ele><time>2026-04-01T08:15:11.535Z</time></trkpt><trkpt lat="43.1430271" lon="12.1941795"><ele>267.0</ele><time>2026-04-01T08:15:12.536Z</time></trkpt><trkpt lat="43.1431208" lon="12.1940269"><ele>270.25</ele><time>2026-04-01T08:15:13.536Z</time></trkpt><trkpt lat="43.1432257" lon="12.1938542"><ele>273.5</ele><time>2026-04-01T08:15:14.535Z</time></trkpt><trkpt lat="43.1433224" lon="12.193709"><ele>276.75</ele><time>2026-04-01T08:15:15.534Z</time></trkpt><trkpt lat="43.1433948" lon="12.1936056"><ele>280.0</ele><time>2026-04-01T08:15:16.536Z</time></trkpt><trkpt lat="43.1434605" lon="12.1935247"><ele>280.0</ele><time>2026-04-01T08:15:17.536Z</time></trkpt><trkpt lat="43.1435239" lon="12.1934565"><ele>280.0</ele><time>2026-04-01T08:15:18.536Z</time></trkpt><trkpt lat="43.1435912" lon="12.1934753"><ele>280.0</ele><time>2026-04-01T08:15:19.538Z</time></trkpt><trkpt lat="43.14366" lon="12.1935051"><ele>280.0</ele><time>2026-04-01T08:15:20.537Z</time></trkpt><trkpt lat="43.143737" lon="12.1935458"><ele>280.0</ele><time>2026-04-01T08:15:21.537Z</time></trkpt><trkpt lat="43.1438" lon="12.1936042"><ele>280.0</ele><time>2026-04-01T08:15:22.535Z</time></trkpt><trkpt lat="43.1438648" lon="12.1936856"><ele>280.0</ele><time>2026-04-01T08:15:24.535Z</time></trkpt><trkpt lat="43.1438922" lon="12.1937635"><ele>280.0</ele><time>2026-04-01T08:15:25.536Z</time></trkpt><trkpt lat="43.1439636" lon="12.1938744"><ele>280.0</ele><time>2026-04-01T08:15:26.537Z</time></trkpt><trkpt lat="43.1440518" lon="12.1939783"><ele>280.0</ele><time>2026-04-01T08:15:27.536Z</time></trkpt><trkpt lat="43.1441199" lon="12.1941153"><ele>280.0</ele><time>2026-04-01T08:15:28.536Z</time></trkpt><trkpt lat="43.1441972" lon="12.1943068"><ele>279.25</ele><time>2026-04-01T08:15:29.536Z</time></trkpt><trkpt lat="43.1442734" lon="12.1944882"><ele>278.5</ele><time>2026-04-01T08:15:30.537Z</time></trkpt><trkpt lat="43.144341" lon="12.1946467"><ele>277.75</ele><time>2026-04-01T08:15:31.536Z</time></trkpt><trkpt lat="43.1444043" lon="12.1947867"><ele>277.0</ele><time>2026-04-01T08:15:32.536Z</time></trkpt><trkpt lat="43.144465" lon="12.1949312"><ele>276.2</ele><time>2026-04-01T08:15:33.535Z</time></trkpt><trkpt lat="43.1445109" lon="12.1950725"><ele>275.4</ele><time>2026-04-01T08:15:34.536Z</time></trkpt><trkpt lat="43.1445232" lon="12.1952097"><ele>274.6</ele><time>2026-04-01T08:15:35.536Z</time></trkpt><trkpt lat="43.1445419" lon="12.1953144"><ele>273.8</ele><time>2026-04-01T08:15:36.537Z</time></trkpt><trkpt lat="43.1445817" lon="12.1953946"><ele>273.0</ele><time>2026-04-01T08:15:37.536Z</time></trkpt><trkpt lat="43.1446575" lon="12.1954764"><ele>273.0</ele><time>2026-04-01T08:15:39.537Z</time></trkpt><trkpt lat="43.1447239" lon="12.195501"><ele>273.0</ele><time>2026-04-01T08:15:42.536Z</time></trkpt><trkpt lat="43.1448322" lon="12.1954787"><ele>273.0</ele><time>2026-04-01T08:15:45.538Z</time></trkpt><trkpt lat="43.1448902" lon="12.195435"><ele>273.0</ele><time>2026-04-01T08:15:46.536Z</time></trkpt><trkpt lat="43.1449496" lon="12.1953616"><ele>273.0</ele><time>2026-04-01T08:15:47.537Z</time></trkpt><trkpt lat="43.1450043" lon="12.1953072"><ele>273.0</ele><time>2026-04-01T08:15:48.536Z</time></trkpt><trkpt lat="43.1450628" lon="12.195248"><ele>274.42857142857144</ele><time>2026-04-01T08:15:49.536Z</time></trkpt><trkpt lat="43.1451222" lon="12.1952096"><ele>275.8571428571429</ele><time>2026-04-01T08:15:50.536Z</time></trkpt><trkpt lat="43.1451829" lon="12.1951668"><ele>277.2857142857143</ele><time>2026-04-01T08:15:51.536Z</time></trkpt><trkpt lat="43.1452409" lon="12.1951239"><ele>278.7142857142857</ele><time>2026-04-01T08:15:52.538Z</time></trkpt><trkpt lat="43.1453172" lon="12.1951003"><ele>280.14285714285717</ele><time>2026-04-01T08:15:53.536Z</time></trkpt><trkpt lat="43.145387" lon="12.1951081"><ele>281.57142857142856</ele><time>2026-04-01T08:15:54.536Z</time></trkpt><trkpt lat="43.1454611" lon="12.1951346"><ele>283.0</ele><time>2026-04-01T08:15:55.535Z</time></trkpt><trkpt lat="43.145541" lon="12.195204"><ele>283.0</ele><time>2026-04-01T08:15:56.536Z</time></trkpt><trkpt lat="43.1456003" lon="12.19526"><ele>283.0</ele><time>2026-04-01T08:15:57.536Z</time></trkpt><trkpt lat="43.1456631" lon="12.1952983"><ele>283.0</ele><time>2026-04-01T08:15:58.537Z</time></trkpt><trkpt lat="43.1457884" lon="12.1952788"><ele>283.0</ele><time>2026-04-01T08:16:00.536Z</time></trkpt><trkpt lat="43.1458463" lon="12.1952437"><ele>283.0</ele><time>2026-04-01T08:16:01.537Z</time></trkpt><trkpt lat="43.145912" lon="12.1952068"><ele>283.0</ele><time>2026-04-01T08:16:02.536Z</time></trkpt><trkpt lat="43.1459904" lon="12.1952022"><ele>285.8</ele><time>2026-04-01T08:16:03.537Z</time></trkpt><trkpt lat="43.1460806" lon="12.1952323"><ele>288.6</ele><time>2026-04-01T08:16:04.537Z</time></trkpt><trkpt lat="43.1461753" lon="12.195249"><ele>291.4</ele><time>2026-04-01T08:16:05.536Z</time></trkpt><trkpt lat="43.1462829" lon="12.1952636"><ele>294.2</ele><time>2026-04-01T08:16:06.536Z</time></trkpt><trkpt lat="43.1464183" lon="12.1953019"><ele>297.0</ele><time>2026-04-01T08:16:07.536Z</time></trkpt><trkpt lat="43.1465299" lon="12.1953258"><ele>299.75</ele><time>2026-04-01T08:16:08.536Z</time></trkpt><trkpt lat="43.146641" lon="12.1953572"><ele>302.5</ele><time>2026-04-01T08:16:09.536Z</time></trkpt><trkpt lat="43.1467443" lon="12.1953797"><ele>305.25</ele><time>2026-04-01T08:16:10.536Z</time></trkpt><trkpt lat="43.1468613" lon="12.1953949"><ele>308.0</ele><time>2026-04-01T08:16:11.537Z</time></trkpt><trkpt lat="43.146998" lon="12.1954128"><ele>308.0</ele><time>2026-04-01T08:16:12.536Z</time></trkpt><trkpt lat="43.1471307" lon="12.1954289"><ele>308.0</ele><time>2026-04-01T08:16:13.537Z</time></trkpt><trkpt lat="43.1472546" lon="12.1954486"><ele>308.0</ele><time>2026-04-01T08:16:14.536Z</time></trkpt><trkpt lat="43.1473846" lon="12.1954703"><ele>308.0</ele><time>2026-04-01T08:16:15.537Z</time></trkpt><trkpt lat="43.1475163" lon="12.1954983"><ele>309.75</ele><time>2026-04-01T08:16:16.535Z</time></trkpt><trkpt lat="43.1476303" lon="12.1955091"><ele>311.5</ele><time>2026-04-01T08:16:17.536Z</time></trkpt><trkpt lat="43.147766" lon="12.1954923"><ele>313.25</ele><time>2026-04-01T08:16:18.536Z</time></trkpt><trkpt lat="43.1478863" lon="12.195483"><ele>315.0</ele><time>2026-04-01T08:16:19.536Z</time></trkpt><trkpt lat="43.1479997" lon="12.1954663"><ele>315.0</ele><time>2026-04-01T08:16:20.536Z</time></trkpt><trkpt lat="43.1481122" lon="12.1954577"><ele>315.0</ele><time>2026-04-01T08:16:21.536Z</time></trkpt><trkpt lat="43.1482259" lon="12.1954607"><ele>315.0</ele><time>2026-04-01T08:16:22.537Z</time></trkpt><trkpt lat="43.1483484" lon="12.1954605"><ele>315.0</ele><time>2026-04-01T08:16:23.536Z</time></trkpt><trkpt lat="43.1484598" lon="12.1954579"><ele>317.6</ele><time>2026-04-01T08:16:24.536Z</time></trkpt><trkpt lat="43.148575" lon="12.1954424"><ele>320.2</ele><time>2026-04-01T08:16:25.536Z</time></trkpt><trkpt lat="43.1486924" lon="12.195403"><ele>322.79999999999995</ele><time>2026-04-01T08:16:26.537Z</time></trkpt><trkpt lat="43.1487722" lon="12.1953517"><ele>325.4</ele><time>2026-04-01T08:16:27.535Z</time></trkpt><trkpt lat="43.1488576" lon="12.1952877"><ele>328.0</ele><time>2026-04-01T08:16:28.535Z</time></trkpt><trkpt lat="43.1489426" lon="12.1952213"><ele>328.0</ele><time>2026-04-01T08:16:30.536Z</time></trkpt><trkpt lat="43.1490272" lon="12.1951618"><ele>328.0</ele><time>2026-04-01T08:16:34.537Z</time></trkpt><trkpt lat="43.1490812" lon="12.1950449"><ele>328.0</ele><time>2026-04-01T08:16:36.537Z</time></trkpt><trkpt lat="43.1491781" lon="12.1949531"><ele>328.0</ele><time>2026-04-01T08:16:38.536Z</time></trkpt><trkpt lat="43.1492533" lon="12.194925"><ele>328.0</ele><time>2026-04-01T08:16:40.536Z</time></trkpt><trkpt lat="43.1493288" lon="12.1948959"><ele>331.2</ele><time>2026-04-01T08:16:43.538Z</time></trkpt><trkpt lat="43.1494121" lon="12.1948741"><ele>334.4</ele><time>2026-04-01T08:16:45.538Z</time></trkpt><trkpt lat="43.1494906" lon="12.1948615"><ele>337.59999999999997</ele><time>2026-04-01T08:16:46.537Z</time></trkpt><trkpt lat="43.1496094" lon="12.1948408"><ele>340.79999999999995</ele><time>2026-04-01T08:16:48.537Z</time></trkpt><trkpt lat="43.1497093" lon="12.1948419"><ele>344.0</ele><time>2026-04-01T08:16:50.536Z</time></trkpt><trkpt lat="43.1498165" lon="12.1948647"><ele>346.4</ele><time>2026-04-01T08:16:52.536Z</time></trkpt><trkpt lat="43.149965" lon="12.1948577"><ele>348.79999999999995</ele><time>2026-04-01T08:16:54.536Z</time></trkpt><trkpt lat="43.1500279" lon="12.1948788"><ele>351.20000000000005</ele><time>2026-04-01T08:16:56.536Z</time></trkpt><trkpt lat="43.1501098" lon="12.1948404"><ele>353.6</ele><time>2026-04-01T08:16:59.536Z</time></trkpt><trkpt lat="43.1501623" lon="12.1947241"><ele>356.0</ele><time>2026-04-01T08:17:01.536Z</time></trkpt><trkpt lat="43.1501632" lon="12.1946367"><ele>356.5</ele><time>2026-04-01T08:17:02.537Z</time></trkpt><trkpt lat="43.1501444" lon="12.1945"><ele>357.0</ele><time>2026-04-01T08:17:03.536Z</time></trkpt><trkpt lat="43.1500684" lon="12.1943134"><ele>357.5</ele><time>2026-04-01T08:17:04.536Z</time></trkpt><trkpt lat="43.149985" lon="12.1941491"><ele>358.0</ele><time>2026-04-01T08:17:05.536Z</time></trkpt><trkpt lat="43.1498707" lon="12.1939829"><ele>358.0</ele><time>2026-04-01T08:17:06.535Z</time></trkpt><trkpt lat="43.1497913" lon="12.1938389"><ele>358.0</ele><time>2026-04-01T08:17:07.536Z</time></trkpt><trkpt lat="43.1496653" lon="12.1936954"><ele>358.0</ele><time>2026-04-01T08:17:08.535Z</time></trkpt><trkpt lat="43.149551" lon="12.193525"><ele>358.0</ele><time>2026-04-01T08:17:09.536Z</time></trkpt><trkpt lat="43.1494282" lon="12.1933513"><ele>358.0</ele><time>2026-04-01T08:17:10.536Z</time></trkpt><trkpt lat="43.1493412" lon="12.1931266"><ele>358.0</ele><time>2026-04-01T08:17:11.536Z</time></trkpt><trkpt lat="43.1492506" lon="12.1929323"><ele>360.0</ele><time>2026-04-01T08:17:12.537Z</time></trkpt><trkpt lat="43.1491755" lon="12.1927442"><ele>362.0</ele><time>2026-04-01T08:17:13.537Z</time></trkpt><trkpt lat="43.1491008" lon="12.1925425"><ele>364.0</ele><time>2026-04-01T08:17:14.537Z</time></trkpt><trkpt lat="43.149044" lon="12.1923885"><ele>366.0</ele><time>2026-04-01T08:17:15.538Z</time></trkpt><trkpt lat="43.1490303" lon="12.1922089"><ele>366.3333333333333</ele><time>2026-04-01T08:17:16.536Z</time></trkpt><trkpt lat="43.149014" lon="12.192031"><ele>366.66666666666663</ele><time>2026-04-01T08:17:17.537Z</time></trkpt><trkpt lat="43.1490667" lon="12.1917711"><ele>367.0</ele><time>2026-04-01T08:17:18.538Z</time></trkpt><trkpt lat="43.1491163" lon="12.1915251"><ele>367.0</ele><time>2026-04-01T08:17:19.537Z</time></trkpt><trkpt lat="43.149203" lon="12.191277"><ele>367.0</ele><time>2026-04-01T08:17:20.536Z</time></trkpt><trkpt lat="43.1492682" lon="12.191055"><ele>367.0</ele><time>2026-04-01T08:17:21.537Z</time></trkpt><trkpt lat="43.1493349" lon="12.1908606"><ele>367.0</ele><time>2026-04-01T08:17:22.537Z</time></trkpt><trkpt lat="43.1493939" lon="12.1906791"><ele>367.0</ele><time>2026-04-01T08:17:23.535Z</time></trkpt><trkpt lat="43.1494319" lon="12.1905125"><ele>367.0</ele><time>2026-04-01T08:17:24.535Z</time></trkpt><trkpt lat="43.1494643" lon="12.1903257"><ele>367.0</ele><time>2026-04-01T08:17:25.537Z</time></trkpt><trkpt lat="43.14944" lon="12.190135"><ele>368.3333333333333</ele><time>2026-04-01T08:17:26.537Z</time></trkpt><trkpt lat="43.1494273" lon="12.1899336"><ele>369.6666666666667</ele><time>2026-04-01T08:17:27.537Z</time></trkpt><trkpt lat="43.1494308" lon="12.1897114"><ele>371.0</ele><time>2026-04-01T08:17:28.536Z</time></trkpt><trkpt lat="43.1494223" lon="12.1895116"><ele>372.25</ele><time>2026-04-01T08:17:29.537Z</time></trkpt><trkpt lat="43.149398" lon="12.1893138"><ele>373.5</ele><time>2026-04-01T08:17:30.538Z</time></trkpt><trkpt lat="43.1493458" lon="12.1891218"><ele>374.75</ele><time>2026-04-01T08:17:31.536Z</time></trkpt><trkpt lat="43.1492597" lon="12.1889582"><ele>376.0</ele><time>2026-04-01T08:17:32.536Z</time></trkpt><trkpt lat="43.1491371" lon="12.1888165"><ele>379.66666666666663</ele><time>2026-04-01T08:17:33.537Z</time></trkpt><trkpt lat="43.1489884" lon="12.1886982"><ele>383.3333333333333</ele><time>2026-04-01T08:17:34.536Z</time></trkpt><trkpt lat="43.1488069" lon="12.1885915"><ele>387.0</ele><time>2026-04-01T08:17:35.536Z</time></trkpt><trkpt lat="43.1486168" lon="12.1884768"><ele>387.0</ele><time>2026-04-01T08:17:36.536Z</time></trkpt><trkpt lat="43.1484369" lon="12.1883504"><ele>387.0</ele><time>2026-04-01T08:17:37.537Z</time></trkpt><trkpt lat="43.1482758" lon="12.1882091"><ele>387.0</ele><time>2026-04-01T08:17:38.536Z</time></trkpt><trkpt lat="43.1481222" lon="12.1880742"><ele>387.0</ele><time>2026-04-01T08:17:39.537Z</time></trkpt><trkpt lat="43.1479773" lon="12.18795"><ele>387.0</ele><time>2026-04-01T08:17:40.536Z</time></trkpt><trkpt lat="43.1478547" lon="12.1878085"><ele>387.0</ele><time>2026-04-01T08:17:41.536Z</time></trkpt><trkpt lat="43.1477509" lon="12.1876675"><ele>387.0</ele><time>2026-04-01T08:17:42.537Z</time></trkpt><trkpt lat="43.1476373" lon="12.1875227"><ele>387.0</ele><time>2026-04-01T08:17:43.537Z</time></trkpt><trkpt lat="43.1475262" lon="12.1873812"><ele>387.0</ele><time>2026-04-01T08:17:44.536Z</time></trkpt><trkpt lat="43.1474384" lon="12.1872236"><ele>388.33333333333337</ele><time>2026-04-01T08:17:45.537Z</time></trkpt><trkpt lat="43.1473726" lon="12.1870375"><ele>389.6666666666667</ele><time>2026-04-01T08:17:46.536Z</time></trkpt><trkpt lat="43.147311" lon="12.1868443"><ele>391.0</ele><time>2026-04-01T08:17:47.537Z</time></trkpt><trkpt lat="43.1472836" lon="12.1866078"><ele>392.6666666666667</ele><time>2026-04-01T08:17:48.536Z</time></trkpt><trkpt lat="43.1472868" lon="12.1863727"><ele>394.33333333333337</ele><time>2026-04-01T08:17:49.536Z</time></trkpt><trkpt lat="43.1473428" lon="12.1861263"><ele>396.0</ele><time>2026-04-01T08:17:50.537Z</time></trkpt><trkpt lat="43.1473872" lon="12.1858582"><ele>393.33333333333337</ele><time>2026-04-01T08:17:51.538Z</time></trkpt><trkpt lat="43.1474348" lon="12.1855954"><ele>390.6666666666667</ele><time>2026-04-01T08:17:52.536Z</time></trkpt><trkpt lat="43.1474693" lon="12.1853363"><ele>388.0</ele><time>2026-04-01T08:17:53.537Z</time></trkpt><trkpt lat="43.1475267" lon="12.185087"><ele>389.0</ele><time>2026-04-01T08:17:54.536Z</time></trkpt><trkpt lat="43.147579" lon="12.1848245"><ele>390.0</ele><time>2026-04-01T08:17:55.537Z</time></trkpt><trkpt lat="43.1476322" lon="12.1845742"><ele>391.0</ele><time>2026-04-01T08:17:56.536Z</time></trkpt><trkpt lat="43.1476938" lon="12.1843614"><ele>391.0</ele><time>2026-04-01T08:17:57.537Z</time></trkpt><trkpt lat="43.1477537" lon="12.1841687"><ele>391.0</ele><time>2026-04-01T08:17:58.537Z</time></trkpt><trkpt lat="43.1478069" lon="12.1839953"><ele>391.0</ele><time>2026-04-01T08:17:59.537Z</time></trkpt><trkpt lat="43.1478467" lon="12.1838282"><ele>391.0</ele><time>2026-04-01T08:18:00.536Z</time></trkpt><trkpt lat="43.1478831" lon="12.1836616"><ele>389.25</ele><time>2026-04-01T08:18:01.537Z</time></trkpt><trkpt lat="43.1478863" lon="12.1834963"><ele>387.5</ele><time>2026-04-01T08:18:02.536Z</time></trkpt><trkpt lat="43.1478524" lon="12.1833171"><ele>385.75</ele><time>2026-04-01T08:18:03.537Z</time></trkpt><trkpt lat="43.1478091" lon="12.183147"><ele>384.0</ele><time>2026-04-01T08:18:04.537Z</time></trkpt><trkpt lat="43.1477356" lon="12.1829656"><ele>382.0</ele><time>2026-04-01T08:18:05.538Z</time></trkpt><trkpt lat="43.1476589" lon="12.1827955"><ele>380.0</ele><time>2026-04-01T08:18:06.537Z</time></trkpt><trkpt lat="43.1474908" lon="12.1826153"><ele>378.0</ele><time>2026-04-01T08:18:07.537Z</time></trkpt><trkpt lat="43.147344" lon="12.1824698"><ele>374.6666666666667</ele><time>2026-04-01T08:18:08.536Z</time></trkpt><trkpt lat="43.1471866" lon="12.182345"><ele>371.33333333333337</ele><time>2026-04-01T08:18:09.537Z</time></trkpt><trkpt lat="43.1470336" lon="12.1822264"><ele>368.0</ele><time>2026-04-01T08:18:10.537Z</time></trkpt><trkpt lat="43.1468866" lon="12.1821068"><ele>368.0</ele><time>2026-04-01T08:18:11.538Z</time></trkpt><trkpt lat="43.1467747" lon="12.181942"><ele>368.0</ele><time>2026-04-01T08:18:12.536Z</time></trkpt><trkpt lat="43.1466593" lon="12.1817693"><ele>368.0</ele><time>2026-04-01T08:18:13.536Z</time></trkpt><trkpt lat="43.1465555" lon="12.1815811"><ele>370.6666666666667</ele><time>2026-04-01T08:18:14.536Z</time></trkpt><trkpt lat="43.1464402" lon="12.181361"><ele>373.3333333333333</ele><time>2026-04-01T08:18:15.538Z</time></trkpt><trkpt lat="43.1463364" lon="12.1811395"><ele>376.0</ele><time>2026-04-01T08:18:16.538Z</time></trkpt><trkpt lat="43.1462503" lon="12.1809227"><ele>374.66666666666663</ele><time>2026-04-01T08:18:17.535Z</time></trkpt><trkpt lat="43.1461782" lon="12.1806799"><ele>373.3333333333333</ele><time>2026-04-01T08:18:18.535Z</time></trkpt><trkpt lat="43.1461038" lon="12.1804241"><ele>372.0</ele><time>2026-04-01T08:18:19.537Z</time></trkpt><trkpt lat="43.1460294" lon="12.1801655"><ele>372.0</ele><time>2026-04-01T08:18:20.535Z</time></trkpt><trkpt lat="43.1459578" lon="12.1799082"><ele>372.0</ele><time>2026-04-01T08:18:21.537Z</time></trkpt><trkpt lat="43.1459017" lon="12.1796702"><ele>372.0</ele><time>2026-04-01T08:18:22.536Z</time></trkpt><trkpt lat="43.1458421" lon="12.1794298"><ele>369.6666666666667</ele><time>2026-04-01T08:18:23.537Z</time></trkpt><trkpt lat="43.1457836" lon="12.1792031"><ele>367.33333333333337</ele><time>2026-04-01T08:18:24.537Z</time></trkpt><trkpt lat="43.1457206" lon="12.1789978"><ele>365.0</ele><time>2026-04-01T08:18:25.536Z</time></trkpt><trkpt lat="43.1456321" lon="12.1788275"><ele>365.0</ele><time>2026-04-01T08:18:26.537Z</time></trkpt><trkpt lat="43.1454881" lon="12.1786815"><ele>365.0</ele><time>2026-04-01T08:18:27.536Z</time></trkpt><trkpt lat="43.1453248" lon="12.178562"><ele>365.0</ele><time>2026-04-01T08:18:28.537Z</time></trkpt><trkpt lat="43.1451328" lon="12.1784334"><ele>365.0</ele><time>2026-04-01T08:18:29.538Z</time></trkpt><trkpt lat="43.1449429" lon="12.1782909"><ele>365.0</ele><time>2026-04-01T08:18:30.536Z</time></trkpt><trkpt lat="43.1447908" lon="12.178132"><ele>365.0</ele><time>2026-04-01T08:18:31.537Z</time></trkpt><trkpt lat="43.1446558" lon="12.1779629"><ele>368.0</ele><time>2026-04-01T08:18:32.538Z</time></trkpt><trkpt lat="43.1445235" lon="12.1778035"><ele>371.0</ele><time>2026-04-01T08:18:33.537Z</time></trkpt><trkpt lat="43.14441" lon="12.1776052"><ele>374.0</ele><time>2026-04-01T08:18:34.537Z</time></trkpt><trkpt lat="43.1443033" lon="12.1774025"><ele>372.6666666666667</ele><time>2026-04-01T08:18:35.537Z</time></trkpt><trkpt lat="43.1442039" lon="12.1772005"><ele>371.3333333333333</ele><time>2026-04-01T08:18:36.537Z</time></trkpt><trkpt lat="43.144124" lon="12.1770038"><ele>370.0</ele><time>2026-04-01T08:18:37.536Z</time></trkpt><trkpt lat="43.1440493" lon="12.1768087"><ele>370.3333333333333</ele><time>2026-04-01T08:18:38.537Z</time></trkpt><trkpt lat="43.1440005" lon="12.1766103"><ele>370.6666666666667</ele><time>2026-04-01T08:18:39.536Z</time></trkpt><trkpt lat="43.1439537" lon="12.1763996"><ele>371.0</ele><time>2026-04-01T08:18:40.537Z</time></trkpt><trkpt lat="43.1440062" lon="12.1761925"><ele>371.0</ele><time>2026-04-01T08:18:41.538Z</time></trkpt><trkpt lat="43.1440214" lon="12.1759683"><ele>371.0</ele><time>2026-04-01T08:18:42.536Z</time></trkpt><trkpt lat="43.1440419" lon="12.1757584"><ele>371.0</ele><time>2026-04-01T08:18:43.537Z</time></trkpt><trkpt lat="43.1440614" lon="12.1755714"><ele>369.75</ele><time>2026-04-01T08:18:44.538Z</time></trkpt><trkpt lat="43.1440686" lon="12.1753891"><ele>368.5</ele><time>2026-04-01T08:18:45.537Z</time></trkpt><trkpt lat="43.1440642" lon="12.1752215"><ele>367.25</ele><time>2026-04-01T08:18:46.538Z</time></trkpt><trkpt lat="43.1440463" lon="12.1750621"><ele>366.0</ele><time>2026-04-01T08:18:47.535Z</time></trkpt><trkpt lat="43.1440293" lon="12.1749092"><ele>365.1666666666667</ele><time>2026-04-01T08:18:48.538Z</time></trkpt><trkpt lat="43.1440167" lon="12.174767"><ele>364.3333333333333</ele><time>2026-04-01T08:18:49.536Z</time></trkpt><trkpt lat="43.1440038" lon="12.1746354"><ele>363.5</ele><time>2026-04-01T08:18:50.535Z</time></trkpt><trkpt lat="43.1440082" lon="12.1745248"><ele>362.66666666666663</ele><time>2026-04-01T08:18:51.537Z</time></trkpt><trkpt lat="43.1440168" lon="12.1744209"><ele>361.8333333333333</ele><time>2026-04-01T08:18:52.537Z</time></trkpt><trkpt lat="43.1440282" lon="12.1743043"><ele>361.0</ele><time>2026-04-01T08:18:54.537Z</time></trkpt><trkpt lat="43.1440442" lon="12.1742058"><ele>361.0</ele><time>2026-04-01T08:18:57.538Z</time></trkpt><trkpt lat="43.1440281" lon="12.174341"><ele>361.0</ele><time>2026-04-01T08:19:32.536Z</time></trkpt><trkpt lat="43.1440405" lon="12.1744876"><ele>361.0</ele><time>2026-04-01T08:19:34.537Z</time></trkpt><trkpt lat="43.1440145" lon="12.1746532"><ele>361.0</ele><time>2026-04-01T08:19:36.538Z</time></trkpt><trkpt lat="43.1440246" lon="12.174761"><ele>361.0</ele><time>2026-04-01T08:19:37.537Z</time></trkpt><trkpt lat="43.1440381" lon="12.1748941"><ele>362.0</ele><time>2026-04-01T08:19:38.535Z</time></trkpt><trkpt lat="43.1440472" lon="12.1750243"><ele>363.0</ele><time>2026-04-01T08:19:39.537Z</time></trkpt><trkpt lat="43.1440634" lon="12.1751727"><ele>364.0</ele><time>2026-04-01T08:19:40.538Z</time></trkpt><trkpt lat="43.1440795" lon="12.1753163"><ele>365.0</ele><time>2026-04-01T08:19:41.537Z</time></trkpt><trkpt lat="43.1440655" lon="12.1754937"><ele>366.0</ele><time>2026-04-01T08:19:42.537Z</time></trkpt><trkpt lat="43.1440657" lon="12.1756541"><ele>366.5</ele><time>2026-04-01T08:19:43.537Z</time></trkpt><trkpt lat="43.144053" lon="12.1758004"><ele>367.0</ele><time>2026-04-01T08:19:44.538Z</time></trkpt><trkpt lat="43.1440336" lon="12.1759213"><ele>367.5</ele><time>2026-04-01T08:19:45.538Z</time></trkpt><trkpt lat="43.144022" lon="12.1760392"><ele>368.0</ele><time>2026-04-01T08:19:46.536Z</time></trkpt><trkpt lat="43.1440083" lon="12.176158"><ele>368.5</ele><time>2026-04-01T08:19:47.537Z</time></trkpt><trkpt lat="43.1439958" lon="12.1762479"><ele>369.0</ele><time>2026-04-01T08:19:48.537Z</time></trkpt><trkpt lat="43.1439421" lon="12.176383"><ele>369.3333333333333</ele><time>2026-04-01T08:19:50.537Z</time></trkpt><trkpt lat="43.1438575" lon="12.1763588"><ele>369.6666666666667</ele><time>2026-04-01T08:19:53.537Z</time></trkpt><trkpt lat="43.1438127" lon="12.1762933"><ele>370.0</ele><time>2026-04-01T08:19:56.538Z</time></trkpt><trkpt lat="43.1437981" lon="12.1761868"><ele>370.33333333333337</ele><time>2026-04-01T08:19:59.536Z</time></trkpt><trkpt lat="43.1437649" lon="12.1760656"><ele>370.6666666666667</ele><time>2026-04-01T08:20:01.537Z</time></trkpt><trkpt lat="43.1436986" lon="12.1760595"><ele>371.0</ele><time>2026-04-01T08:20:03.537Z</time></trkpt><trkpt lat="43.1436713" lon="12.1761438"><ele>371.0</ele><time>2026-04-01T08:20:06.537Z</time></trkpt><trkpt lat="43.1437534" lon="12.176204"><ele>371.0</ele><time>2026-04-01T08:20:08.537Z</time></trkpt><trkpt lat="43.143816" lon="12.1763038"><ele>371.0</ele><time>2026-04-01T08:20:10.538Z</time></trkpt><trkpt lat="43.1437863" lon="12.1764393"><ele>371.0</ele><time>2026-04-01T08:20:12.536Z</time></trkpt><trkpt lat="43.1437639" lon="12.1765822"><ele>371.0</ele><time>2026-04-01T08:20:14.537Z</time></trkpt><trkpt lat="43.1437537" lon="12.1766909"><ele>372.20000000000005</ele><time>2026-04-01T08:20:16.538Z</time></trkpt><trkpt lat="43.1437674" lon="12.1768168"><ele>373.40000000000003</ele><time>2026-04-01T08:20:18.537Z</time></trkpt><trkpt lat="43.1437635" lon="12.1769051"><ele>374.6</ele><time>2026-04-01T08:20:19.537Z</time></trkpt><trkpt lat="43.1437634" lon="12.1770247"><ele>375.8</ele><time>2026-04-01T08:20:20.537Z</time></trkpt><trkpt lat="43.1437586" lon="12.1771613"><ele>377.0</ele><time>2026-04-01T08:20:21.538Z</time></trkpt><trkpt lat="43.1437626" lon="12.1773145"><ele>378.33333333333337</ele><time>2026-04-01T08:20:22.537Z</time></trkpt><trkpt lat="43.143753" lon="12.1774369"><ele>379.6666666666667</ele><time>2026-04-01T08:20:23.537Z</time></trkpt><trkpt lat="43.1437402" lon="12.1775437"><ele>381.0</ele><time>2026-04-01T08:20:24.537Z</time></trkpt><trkpt lat="43.1437042" lon="12.1776327"><ele>382.33333333333337</ele><time>2026-04-01T08:20:25.537Z</time></trkpt><trkpt lat="43.1436451" lon="12.177699"><ele>383.6666666666667</ele><time>2026-04-01T08:20:26.537Z</time></trkpt><trkpt lat="43.143578" lon="12.1777308"><ele>385.0</ele><time>2026-04-01T08:20:27.538Z</time></trkpt><trkpt lat="43.143509" lon="12.1777474"><ele>385.0</ele><time>2026-04-01T08:20:28.536Z</time></trkpt><trkpt lat="43.1434212" lon="12.1777451"><ele>385.0</ele><time>2026-04-01T08:20:29.537Z</time></trkpt><trkpt lat="43.1433378" lon="12.177741"><ele>385.0</ele><time>2026-04-01T08:20:30.538Z</time></trkpt><trkpt lat="43.1432155" lon="12.1777219"><ele>385.0</ele><time>2026-04-01T08:20:31.537Z</time></trkpt><trkpt lat="43.1431012" lon="12.1776939"><ele>385.0</ele><time>2026-04-01T08:20:32.537Z</time></trkpt><trkpt lat="43.1429948" lon="12.1776808"><ele>385.2</ele><time>2026-04-01T08:20:33.536Z</time></trkpt><trkpt lat="43.1428922" lon="12.1776791"><ele>385.4</ele><time>2026-04-01T08:20:34.538Z</time></trkpt><trkpt lat="43.1427935" lon="12.1776641"><ele>385.6</ele><time>2026-04-01T08:20:35.537Z</time></trkpt><trkpt lat="43.1427049" lon="12.1776269"><ele>385.8</ele><time>2026-04-01T08:20:36.537Z</time></trkpt><trkpt lat="43.1426277" lon="12.1776"><ele>386.0</ele><time>2026-04-01T08:20:37.538Z</time></trkpt><trkpt lat="43.1425474" lon="12.1775758"><ele>386.0</ele><time>2026-04-01T08:20:38.537Z</time></trkpt><trkpt lat="43.1424728" lon="12.1775634"><ele>386.0</ele><time>2026-04-01T08:20:39.536Z</time></trkpt><trkpt lat="43.1424102" lon="12.1775412"><ele>386.0</ele><time>2026-04-01T08:20:40.538Z</time></trkpt><trkpt lat="43.1423018" lon="12.1775438"><ele>386.0</ele><time>2026-04-01T08:20:42.537Z</time></trkpt><trkpt lat="43.1422309" lon="12.177648"><ele>386.0</ele><time>2026-04-01T08:20:44.537Z</time></trkpt><trkpt lat="43.1421437" lon="12.1777859"><ele>384.8</ele><time>2026-04-01T08:20:46.536Z</time></trkpt><trkpt lat="43.1420832" lon="12.1778837"><ele>383.6</ele><time>2026-04-01T08:20:47.537Z</time></trkpt><trkpt lat="43.142024" lon="12.1780051"><ele>382.4</ele><time>2026-04-01T08:20:48.538Z</time></trkpt><trkpt lat="43.1419556" lon="12.1781371"><ele>381.2</ele><time>2026-04-01T08:20:49.538Z</time></trkpt><trkpt lat="43.1418896" lon="12.1782509"><ele>380.0</ele><time>2026-04-01T08:20:50.537Z</time></trkpt><trkpt lat="43.1418347" lon="12.1782977"><ele>381.4</ele><time>2026-04-01T08:20:51.538Z</time></trkpt><trkpt lat="43.1417467" lon="12.1783681"><ele>382.8</ele><time>2026-04-01T08:20:53.537Z</time></trkpt><trkpt lat="43.1416681" lon="12.1784299"><ele>384.20000000000005</ele><time>2026-04-01T08:20:55.537Z</time></trkpt><trkpt lat="43.1415906" lon="12.178444"><ele>385.6</ele><time>2026-04-01T08:20:56.538Z</time></trkpt><trkpt lat="43.1415079" lon="12.1785001"><ele>387.0</ele><time>2026-04-01T08:20:57.537Z</time></trkpt><trkpt lat="43.1414296" lon="12.1785661"><ele>387.0</ele><time>2026-04-01T08:20:58.537Z</time></trkpt><trkpt lat="43.1413593" lon="12.1786695"><ele>387.0</ele><time>2026-04-01T08:20:59.536Z</time></trkpt><trkpt lat="43.1412883" lon="12.1787424"><ele>387.0</ele><time>2026-04-01T08:21:00.537Z</time></trkpt><trkpt lat="43.1411431" lon="12.1789127"><ele>387.0</ele><time>2026-04-01T08:21:01.537Z</time></trkpt><trkpt lat="43.141076" lon="12.1790087"><ele>386.5</ele><time>2026-04-01T08:21:02.538Z</time></trkpt><trkpt lat="43.1409864" lon="12.1791129"><ele>386.0</ele><time>2026-04-01T08:21:03.537Z</time></trkpt><trkpt lat="43.1409345" lon="12.1791669"><ele>385.5</ele><time>2026-04-01T08:21:04.536Z</time></trkpt><trkpt lat="43.1408745" lon="12.1792353"><ele>385.0</ele><time>2026-04-01T08:21:05.537Z</time></trkpt><trkpt lat="43.1408199" lon="12.1793042"><ele>384.5</ele><time>2026-04-01T08:21:06.538Z</time></trkpt><trkpt lat="43.1407534" lon="12.1793532"><ele>384.0</ele><time>2026-04-01T08:21:07.537Z</time></trkpt><trkpt lat="43.1406881" lon="12.1794105"><ele>384.0</ele><time>2026-04-01T08:21:08.538Z</time></trkpt><trkpt lat="43.1406436" lon="12.1794933"><ele>384.0</ele><time>2026-04-01T08:21:09.536Z</time></trkpt><trkpt lat="43.1406036" lon="12.1795732"><ele>384.0</ele><time>2026-04-01T08:21:10.536Z</time></trkpt><trkpt lat="43.1405544" lon="12.1796362"><ele>384.0</ele><time>2026-04-01T08:21:11.539Z</time></trkpt><trkpt lat="43.1405119" lon="12.1797907"><ele>384.0</ele><time>2026-04-01T08:21:13.538Z</time></trkpt><trkpt lat="43.1404653" lon="12.1799744"><ele>385.0</ele><time>2026-04-01T08:21:15.537Z</time></trkpt><trkpt lat="43.1404433" lon="12.180063"><ele>386.0</ele><time>2026-04-01T08:21:16.538Z</time></trkpt><trkpt lat="43.1404237" lon="12.1801545"><ele>387.0</ele><time>2026-04-01T08:21:18.538Z</time></trkpt><trkpt lat="43.1404115" lon="12.1802624"><ele>388.0</ele><time>2026-04-01T08:21:20.538Z</time></trkpt><trkpt lat="43.1404294" lon="12.1803494"><ele>389.0</ele><time>2026-04-01T08:21:23.537Z</time></trkpt><trkpt lat="43.1404284" lon="12.1804828"><ele>390.0</ele><time>2026-04-01T08:21:27.537Z</time></trkpt><trkpt lat="43.1404268" lon="12.1806127"><ele>391.6</ele><time>2026-04-01T08:21:29.537Z</time></trkpt><trkpt lat="43.140432" lon="12.1807565"><ele>393.2</ele><time>2026-04-01T08:21:31.537Z</time></trkpt><trkpt lat="43.1404377" lon="12.1808875"><ele>394.79999999999995</ele><time>2026-04-01T08:21:32.538Z</time></trkpt><trkpt lat="43.1404408" lon="12.1810281"><ele>396.4</ele><time>2026-04-01T08:21:33.536Z</time></trkpt><trkpt lat="43.1404448" lon="12.1811643"><ele>398.0</ele><time>2026-04-01T08:21:34.538Z</time></trkpt><trkpt lat="43.1404463" lon="12.1812718"><ele>397.99999999999994</ele><time>2026-04-01T08:21:35.537Z</time></trkpt><trkpt lat="43.1404564" lon="12.1813867"><ele>398.0</ele><time>2026-04-01T08:21:36.538Z</time></trkpt><trkpt lat="43.1404805" lon="12.1814923"><ele>398.0</ele><time>2026-04-01T08:21:37.536Z</time></trkpt><trkpt lat="43.1405081" lon="12.1815972"><ele>398.0</ele><time>2026-04-01T08:21:38.538Z</time></trkpt><trkpt lat="43.1405217" lon="12.181734"><ele>397.99999999999994</ele><time>2026-04-01T08:21:39.538Z</time></trkpt><trkpt lat="43.1405418" lon="12.1818713"><ele>398.0</ele><time>2026-04-01T08:21:40.537Z</time></trkpt><trkpt lat="43.1405604" lon="12.1819959"><ele>399.1428571428571</ele><time>2026-04-01T08:21:41.538Z</time></trkpt><trkpt lat="43.1405738" lon="12.1820866"><ele>400.2857142857143</ele><time>2026-04-01T08:21:42.538Z</time></trkpt><trkpt lat="43.1406137" lon="12.1821805"><ele>401.42857142857144</ele><time>2026-04-01T08:21:43.537Z</time></trkpt><trkpt lat="43.1406697" lon="12.1822488"><ele>402.57142857142856</ele><time>2026-04-01T08:21:44.537Z</time></trkpt><trkpt lat="43.1407223" lon="12.1823198"><ele>403.7142857142857</ele><time>2026-04-01T08:21:45.537Z</time></trkpt><trkpt lat="43.1407846" lon="12.1823795"><ele>404.85714285714283</ele><time>2026-04-01T08:21:46.536Z</time></trkpt><trkpt lat="43.1408363" lon="12.1824537"><ele>406.0</ele><time>2026-04-01T08:21:47.536Z</time></trkpt><trkpt lat="43.1408747" lon="12.1825253"><ele>407.20000000000005</ele><time>2026-04-01T08:21:48.537Z</time></trkpt><trkpt lat="43.1408921" lon="12.1826445"><ele>408.40000000000003</ele><time>2026-04-01T08:21:50.536Z</time></trkpt><trkpt lat="43.1408451" lon="12.1827609"><ele>409.6</ele><time>2026-04-01T08:21:52.538Z</time></trkpt><trkpt lat="43.1407144" lon="12.1828383"><ele>410.8</ele><time>2026-04-01T08:21:54.537Z</time></trkpt><trkpt lat="43.140628" lon="12.1828839"><ele>412.0</ele><time>2026-04-01T08:21:55.537Z</time></trkpt><trkpt lat="43.1405448" lon="12.182926"><ele>412.5</ele><time>2026-04-01T08:21:56.538Z</time></trkpt><trkpt lat="43.1404437" lon="12.1829644"><ele>413.0</ele><time>2026-04-01T08:21:57.536Z</time></trkpt><trkpt lat="43.1403442" lon="12.1829952"><ele>413.5</ele><time>2026-04-01T08:21:58.538Z</time></trkpt><trkpt lat="43.1402329" lon="12.1830295"><ele>414.0</ele><time>2026-04-01T08:21:59.536Z</time></trkpt><trkpt lat="43.1400986" lon="12.1830535"><ele>414.0</ele><time>2026-04-01T08:22:00.538Z</time></trkpt><trkpt lat="43.1399402" lon="12.1830578"><ele>414.0</ele><time>2026-04-01T08:22:01.537Z</time></trkpt><trkpt lat="43.1397889" lon="12.1830585"><ele>414.0</ele><time>2026-04-01T08:22:02.538Z</time></trkpt><trkpt lat="43.1396514" lon="12.18307"><ele>414.0</ele><time>2026-04-01T08:22:03.538Z</time></trkpt><trkpt lat="43.1395322" lon="12.1830801"><ele>414.0</ele><time>2026-04-01T08:22:04.537Z</time></trkpt><trkpt lat="43.1394294" lon="12.1830867"><ele>414.0</ele><time>2026-04-01T08:22:05.537Z</time></trkpt><trkpt lat="43.1393226" lon="12.1830965"><ele>414.0</ele><time>2026-04-01T08:22:06.538Z</time></trkpt><trkpt lat="43.1392136" lon="12.183117"><ele>414.0</ele><time>2026-04-01T08:22:07.538Z</time></trkpt><trkpt lat="43.1391054" lon="12.1831428"><ele>414.0</ele><time>2026-04-01T08:22:08.537Z</time></trkpt><trkpt lat="43.139006" lon="12.1831645"><ele>414.0</ele><time>2026-04-01T08:22:09.538Z</time></trkpt><trkpt lat="43.1389054" lon="12.1831736"><ele>414.0</ele><time>2026-04-01T08:22:10.538Z</time></trkpt><trkpt lat="43.1387989" lon="12.1831653"><ele>414.0</ele><time>2026-04-01T08:22:11.537Z</time></trkpt><trkpt lat="43.1386952" lon="12.1831454"><ele>414.0</ele><time>2026-04-01T08:22:12.538Z</time></trkpt><trkpt lat="43.1385773" lon="12.1831262"><ele>414.0</ele><time>2026-04-01T08:22:13.537Z</time></trkpt><trkpt lat="43.1384592" lon="12.1831039"><ele>414.0</ele><time>2026-04-01T08:22:14.538Z</time></trkpt><trkpt lat="43.1383438" lon="12.1830834"><ele>414.0</ele><time>2026-04-01T08:22:15.537Z</time></trkpt><trkpt lat="43.1382406" lon="12.1830664"><ele>414.0</ele><time>2026-04-01T08:22:16.538Z</time></trkpt><trkpt lat="43.138135" lon="12.1830574"><ele>414.0</ele><time>2026-04-01T08:22:17.539Z</time></trkpt><trkpt lat="43.1380435" lon="12.1830397"><ele>414.0</ele><time>2026-04-01T08:22:18.537Z</time></trkpt><trkpt lat="43.1379515" lon="12.1830379"><ele>412.8333333333333</ele><time>2026-04-01T08:22:19.538Z</time></trkpt><trkpt lat="43.1378628" lon="12.18302"><ele>411.66666666666663</ele><time>2026-04-01T08:22:20.538Z</time></trkpt><trkpt lat="43.1377864" lon="12.1829886"><ele>410.5</ele><time>2026-04-01T08:22:21.537Z</time></trkpt><trkpt lat="43.1377065" lon="12.1829453"><ele>409.3333333333333</ele><time>2026-04-01T08:22:22.538Z</time></trkpt><trkpt lat="43.1376282" lon="12.1829054"><ele>408.16666666666663</ele><time>2026-04-01T08:22:23.537Z</time></trkpt><trkpt lat="43.1375575" lon="12.1828664"><ele>407.0</ele><time>2026-04-01T08:22:24.537Z</time></trkpt><trkpt lat="43.1374786" lon="12.1828122"><ele>407.0</ele><time>2026-04-01T08:22:25.537Z</time></trkpt><trkpt lat="43.137395" lon="12.1827786"><ele>407.0</ele><time>2026-04-01T08:22:26.538Z</time></trkpt><trkpt lat="43.1373012" lon="12.1827615"><ele>407.0</ele><time>2026-04-01T08:22:27.538Z</time></trkpt><trkpt lat="43.1372002" lon="12.1827482"><ele>407.0</ele><time>2026-04-01T08:22:28.538Z</time></trkpt><trkpt lat="43.1370954" lon="12.1827427"><ele>407.0</ele><time>2026-04-01T08:22:29.537Z</time></trkpt><trkpt lat="43.1369905" lon="12.1827477"><ele>405.20000000000005</ele><time>2026-04-01T08:22:30.536Z</time></trkpt><trkpt lat="43.1368846" lon="12.1827459"><ele>403.4</ele><time>2026-04-01T08:22:31.537Z</time></trkpt><trkpt lat="43.1367837" lon="12.1827435"><ele>401.6</ele><time>2026-04-01T08:22:32.538Z</time></trkpt><trkpt lat="43.1366763" lon="12.1827293"><ele>399.79999999999995</ele><time>2026-04-01T08:22:33.538Z</time></trkpt><trkpt lat="43.1365774" lon="12.1827038"><ele>398.0</ele><time>2026-04-01T08:22:34.538Z</time></trkpt><trkpt lat="43.1364825" lon="12.1826752"><ele>397.0</ele><time>2026-04-01T08:22:35.537Z</time></trkpt><trkpt lat="43.1363889" lon="12.1826288"><ele>396.0</ele><time>2026-04-01T08:22:36.538Z</time></trkpt><trkpt lat="43.1363006" lon="12.1825848"><ele>395.0</ele><time>2026-04-01T08:22:37.537Z</time></trkpt><trkpt lat="43.1362037" lon="12.1825431"><ele>394.0</ele><time>2026-04-01T08:22:38.537Z</time></trkpt><trkpt lat="43.1361076" lon="12.1824952"><ele>393.0</ele><time>2026-04-01T08:22:39.537Z</time></trkpt><trkpt lat="43.1360161" lon="12.1824446"><ele>393.0</ele><time>2026-04-01T08:22:40.538Z</time></trkpt><trkpt lat="43.1359359" lon="12.1823953"><ele>393.0</ele><time>2026-04-01T08:22:41.537Z</time></trkpt><trkpt lat="43.1358513" lon="12.18235"><ele>393.0</ele><time>2026-04-01T08:22:42.537Z</time></trkpt><trkpt lat="43.1357303" lon="12.1822654"><ele>393.0</ele><time>2026-04-01T08:22:44.537Z</time></trkpt><trkpt lat="43.1356655" lon="12.1822393"><ele>393.0</ele><time>2026-04-01T08:22:45.538Z</time></trkpt><trkpt lat="43.1355464" lon="12.1821486"><ele>392.25</ele><time>2026-04-01T08:22:47.538Z</time></trkpt><trkpt lat="43.1354698" lon="12.1820771"><ele>391.5</ele><time>2026-04-01T08:22:48.537Z</time></trkpt><trkpt lat="43.1353873" lon="12.1819986"><ele>390.75</ele><time>2026-04-01T08:22:49.537Z</time></trkpt><trkpt lat="43.1352665" lon="12.1818694"><ele>390.0</ele><time>2026-04-01T08:22:50.538Z</time></trkpt><trkpt lat="43.1351195" lon="12.1817158"><ele>390.0</ele><time>2026-04-01T08:22:51.538Z</time></trkpt><trkpt lat="43.1349734" lon="12.1815867"><ele>390.0</ele><time>2026-04-01T08:22:52.536Z</time></trkpt><trkpt lat="43.1348403" lon="12.1814656"><ele>390.0</ele><time>2026-04-01T08:22:53.537Z</time></trkpt><trkpt lat="43.1347162" lon="12.1813796"><ele>390.75</ele><time>2026-04-01T08:22:54.536Z</time></trkpt><trkpt lat="43.1345833" lon="12.1812956"><ele>391.5</ele><time>2026-04-01T08:22:55.537Z</time></trkpt><trkpt lat="43.1344379" lon="12.1812377"><ele>392.25</ele><time>2026-04-01T08:22:56.538Z</time></trkpt><trkpt lat="43.1342978" lon="12.1811755"><ele>393.0</ele><time>2026-04-01T08:22:57.538Z</time></trkpt><trkpt lat="43.1341676" lon="12.1811186"><ele>391.25</ele><time>2026-04-01T08:22:58.538Z</time></trkpt><trkpt lat="43.1340423" lon="12.1810516"><ele>389.5</ele><time>2026-04-01T08:22:59.537Z</time></trkpt><trkpt lat="43.1339431" lon="12.1810177"><ele>387.75</ele><time>2026-04-01T08:23:00.538Z</time></trkpt><trkpt lat="43.1338321" lon="12.1809411"><ele>386.0</ele><time>2026-04-01T08:23:01.538Z</time></trkpt><trkpt lat="43.1337128" lon="12.1808803"><ele>386.0</ele><time>2026-04-01T08:23:02.538Z</time></trkpt><trkpt lat="43.1335992" lon="12.1808093"><ele>386.0</ele><time>2026-04-01T08:23:03.538Z</time></trkpt><trkpt lat="43.1334764" lon="12.1806913"><ele>386.0</ele><time>2026-04-01T08:23:04.536Z</time></trkpt><trkpt lat="43.133293" lon="12.1806287"><ele>386.0</ele><time>2026-04-01T08:23:05.538Z</time></trkpt><trkpt lat="43.1331471" lon="12.1805538"><ele>386.0</ele><time>2026-04-01T08:23:06.537Z</time></trkpt><trkpt lat="43.133026" lon="12.1805021"><ele>386.0</ele><time>2026-04-01T08:23:07.538Z</time></trkpt><trkpt lat="43.1329043" lon="12.1804723"><ele>386.0</ele><time>2026-04-01T08:23:08.538Z</time></trkpt><trkpt lat="43.132789" lon="12.1804237"><ele>386.0</ele><time>2026-04-01T08:23:09.539Z</time></trkpt><trkpt lat="43.132666" lon="12.1803819"><ele>386.0</ele><time>2026-04-01T08:23:10.538Z</time></trkpt><trkpt lat="43.1325448" lon="12.180339"><ele>386.0</ele><time>2026-04-01T08:23:11.536Z</time></trkpt><trkpt lat="43.1324283" lon="12.1802901"><ele>386.0</ele><time>2026-04-01T08:23:12.537Z</time></trkpt><trkpt lat="43.1322962" lon="12.1802221"><ele>385.25</ele><time>2026-04-01T08:23:13.538Z</time></trkpt><trkpt lat="43.1321877" lon="12.18014"><ele>384.5</ele><time>2026-04-01T08:23:14.538Z</time></trkpt><trkpt lat="43.1320767" lon="12.1800981"><ele>383.75</ele><time>2026-04-01T08:23:15.537Z</time></trkpt><trkpt lat="43.1319725" lon="12.1800408"><ele>383.0</ele><time>2026-04-01T08:23:16.537Z</time></trkpt><trkpt lat="43.1318585" lon="12.1799995"><ele>383.0</ele><time>2026-04-01T08:23:17.538Z</time></trkpt><trkpt lat="43.1317494" lon="12.179961"><ele>383.0</ele><time>2026-04-01T08:23:18.537Z</time></trkpt><trkpt lat="43.1316439" lon="12.179946"><ele>383.0</ele><time>2026-04-01T08:23:19.538Z</time></trkpt><trkpt lat="43.1315707" lon="12.1798853"><ele>383.0</ele><time>2026-04-01T08:23:20.539Z</time></trkpt><trkpt lat="43.1314618" lon="12.179816"><ele>383.0</ele><time>2026-04-01T08:23:21.539Z</time></trkpt><trkpt lat="43.1313506" lon="12.1797418"><ele>381.0</ele><time>2026-04-01T08:23:22.539Z</time></trkpt><trkpt lat="43.1312242" lon="12.1796676"><ele>379.0</ele><time>2026-04-01T08:23:23.537Z</time></trkpt><trkpt lat="43.131071" lon="12.1796182"><ele>377.0</ele><time>2026-04-01T08:23:24.538Z</time></trkpt><trkpt lat="43.1309125" lon="12.179561"><ele>377.0</ele><time>2026-04-01T08:23:25.538Z</time></trkpt><trkpt lat="43.1307479" lon="12.1795037"><ele>377.0</ele><time>2026-04-01T08:23:26.538Z</time></trkpt><trkpt lat="43.1306024" lon="12.1794502"><ele>377.0</ele><time>2026-04-01T08:23:27.539Z</time></trkpt><trkpt lat="43.1304751" lon="12.1794047"><ele>377.5</ele><time>2026-04-01T08:23:28.538Z</time></trkpt><trkpt lat="43.1303364" lon="12.1793421"><ele>378.0</ele><time>2026-04-01T08:23:29.539Z</time></trkpt><trkpt lat="43.1301995" lon="12.1792793"><ele>378.5</ele><time>2026-04-01T08:23:30.538Z</time></trkpt><trkpt lat="43.1300599" lon="12.179213"><ele>379.0</ele><time>2026-04-01T08:23:31.538Z</time></trkpt><trkpt lat="43.1299126" lon="12.1791459"><ele>378.0</ele><time>2026-04-01T08:23:32.537Z</time></trkpt><trkpt lat="43.1297698" lon="12.1790783"><ele>377.0</ele><time>2026-04-01T08:23:33.538Z</time></trkpt><trkpt lat="43.1296326" lon="12.1790192"><ele>376.0</ele><time>2026-04-01T08:23:34.539Z</time></trkpt><trkpt lat="43.1294837" lon="12.1789505"><ele>376.0</ele><time>2026-04-01T08:23:35.538Z</time></trkpt><trkpt lat="43.1293328" lon="12.1788688"><ele>376.0</ele><time>2026-04-01T08:23:36.537Z</time></trkpt><trkpt lat="43.129175" lon="12.1787799"><ele>376.0</ele><time>2026-04-01T08:23:37.536Z</time></trkpt><trkpt lat="43.1290066" lon="12.1786983"><ele>376.0</ele><time>2026-04-01T08:23:38.537Z</time></trkpt><trkpt lat="43.1288504" lon="12.1786096"><ele>376.0</ele><time>2026-04-01T08:23:39.536Z</time></trkpt><trkpt lat="43.1287151" lon="12.1785409"><ele>376.0</ele><time>2026-04-01T08:23:40.537Z</time></trkpt><trkpt lat="43.1285743" lon="12.1784707"><ele>376.0</ele><time>2026-04-01T08:23:41.537Z</time></trkpt><trkpt lat="43.1284472" lon="12.1784024"><ele>376.0</ele><time>2026-04-01T08:23:42.538Z</time></trkpt><trkpt lat="43.1283324" lon="12.17833"><ele>376.0</ele><time>2026-04-01T08:23:43.537Z</time></trkpt><trkpt lat="43.1282407" lon="12.1782536"><ele>376.0</ele><time>2026-04-01T08:23:44.536Z</time></trkpt><trkpt lat="43.1281499" lon="12.1781785"><ele>375.5</ele><time>2026-04-01T08:23:45.538Z</time></trkpt><trkpt lat="43.1280753" lon="12.1781032"><ele>375.0</ele><time>2026-04-01T08:23:46.539Z</time></trkpt><trkpt lat="43.1280122" lon="12.1780485"><ele>374.5</ele><time>2026-04-01T08:23:47.538Z</time></trkpt><trkpt lat="43.1279474" lon="12.1779731"><ele>374.0</ele><time>2026-04-01T08:23:48.538Z</time></trkpt><trkpt lat="43.1278762" lon="12.1778912"><ele>373.5</ele><time>2026-04-01T08:23:49.539Z</time></trkpt><trkpt lat="43.1278035" lon="12.1778015"><ele>373.0</ele><time>2026-04-01T08:23:50.537Z</time></trkpt><trkpt lat="43.1277066" lon="12.1776667"><ele>373.0</ele><time>2026-04-01T08:23:51.54Z</time></trkpt><trkpt lat="43.1276245" lon="12.1775523"><ele>373.0</ele><time>2026-04-01T08:23:52.538Z</time></trkpt><trkpt lat="43.1275464" lon="12.1774409"><ele>373.0</ele><time>2026-04-01T08:23:53.538Z</time></trkpt><trkpt lat="43.127474" lon="12.177356"><ele>373.0</ele><time>2026-04-01T08:23:54.539Z</time></trkpt><trkpt lat="43.1274201" lon="12.1773068"><ele>373.0</ele><time>2026-04-01T08:23:55.539Z</time></trkpt><trkpt lat="43.1273494" lon="12.1772555"><ele>373.4</ele><time>2026-04-01T08:23:57.538Z</time></trkpt><trkpt lat="43.1272639" lon="12.1772464"><ele>373.79999999999995</ele><time>2026-04-01T08:23:59.538Z</time></trkpt><trkpt lat="43.127177" lon="12.1773106"><ele>374.2</ele><time>2026-04-01T08:24:01.538Z</time></trkpt><trkpt lat="43.1271101" lon="12.1774034"><ele>374.6</ele><time>2026-04-01T08:24:03.538Z</time></trkpt><trkpt lat="43.1270382" lon="12.177513"><ele>375.0</ele><time>2026-04-01T08:24:05.539Z</time></trkpt><trkpt lat="43.1269613" lon="12.1776088"><ele>375.0</ele><time>2026-04-01T08:24:06.538Z</time></trkpt><trkpt lat="43.1268889" lon="12.1776892"><ele>375.0</ele><time>2026-04-01T08:24:07.538Z</time></trkpt><trkpt lat="43.1268009" lon="12.1777519"><ele>375.0</ele><time>2026-04-01T08:24:08.539Z</time></trkpt><trkpt lat="43.1267255" lon="12.1778123"><ele>375.0</ele><time>2026-04-01T08:24:09.537Z</time></trkpt><trkpt lat="43.1266558" lon="12.1778353"><ele>375.0</ele><time>2026-04-01T08:24:10.539Z</time></trkpt><trkpt lat="43.126567" lon="12.1778696"><ele>375.0</ele><time>2026-04-01T08:24:11.538Z</time></trkpt><trkpt lat="43.1264278" lon="12.1778688"><ele>378.33333333333337</ele><time>2026-04-01T08:24:12.538Z</time></trkpt><trkpt lat="43.1262913" lon="12.1778755"><ele>381.6666666666667</ele><time>2026-04-01T08:24:13.537Z</time></trkpt><trkpt lat="43.126124" lon="12.1778927"><ele>385.0</ele><time>2026-04-01T08:24:14.538Z</time></trkpt><trkpt lat="43.1259773" lon="12.1779069"><ele>385.0</ele><time>2026-04-01T08:24:15.54Z</time></trkpt><trkpt lat="43.1258626" lon="12.1779207"><ele>385.0</ele><time>2026-04-01T08:24:16.539Z</time></trkpt><trkpt lat="43.1257831" lon="12.1779348"><ele>385.0</ele><time>2026-04-01T08:24:17.538Z</time></trkpt><trkpt lat="43.1256808" lon="12.1779459"><ele>385.0</ele><time>2026-04-01T08:24:18.539Z</time></trkpt><trkpt lat="43.125583" lon="12.1779748"><ele>385.0</ele><time>2026-04-01T08:24:19.539Z</time></trkpt><trkpt lat="43.1254877" lon="12.1780218"><ele>384.25</ele><time>2026-04-01T08:24:20.538Z</time></trkpt><trkpt lat="43.1254022" lon="12.1780781"><ele>383.5</ele><time>2026-04-01T08:24:21.539Z</time></trkpt><trkpt lat="43.125317" lon="12.1781599"><ele>382.75</ele><time>2026-04-01T08:24:22.539Z</time></trkpt><trkpt lat="43.1252267" lon="12.1783073"><ele>382.0</ele><time>2026-04-01T08:24:23.537Z</time></trkpt><trkpt lat="43.1251386" lon="12.1784475"><ele>382.0</ele><time>2026-04-01T08:24:24.538Z</time></trkpt><trkpt lat="43.1250604" lon="12.1785798"><ele>382.0</ele><time>2026-04-01T08:24:25.539Z</time></trkpt><trkpt lat="43.1249995" lon="12.1786726"><ele>382.0</ele><time>2026-04-01T08:24:26.537Z</time></trkpt><trkpt lat="43.1249073" lon="12.1787016"><ele>382.0</ele><time>2026-04-01T08:24:28.538Z</time></trkpt><trkpt lat="43.1247867" lon="12.1786864"><ele>382.0</ele><time>2026-04-01T08:24:30.539Z</time></trkpt><trkpt lat="43.1246879" lon="12.178618"><ele>381.25</ele><time>2026-04-01T08:24:31.538Z</time></trkpt><trkpt lat="43.1245875" lon="12.1785769"><ele>380.5</ele><time>2026-04-01T08:24:32.538Z</time></trkpt><trkpt lat="43.1244389" lon="12.1785362"><ele>379.75</ele><time>2026-04-01T08:24:33.539Z</time></trkpt><trkpt lat="43.124289" lon="12.1785055"><ele>379.0</ele><time>2026-04-01T08:24:34.538Z</time></trkpt><trkpt lat="43.1241296" lon="12.1784654"><ele>375.0</ele><time>2026-04-01T08:24:35.539Z</time></trkpt><trkpt lat="43.1239643" lon="12.1784157"><ele>371.0</ele><time>2026-04-01T08:24:36.537Z</time></trkpt><trkpt lat="43.1237986" lon="12.1783631"><ele>367.0</ele><time>2026-04-01T08:24:37.538Z</time></trkpt><trkpt lat="43.1236359" lon="12.1783147"><ele>367.0</ele><time>2026-04-01T08:24:38.538Z</time></trkpt><trkpt lat="43.12348" lon="12.1782631"><ele>367.0</ele><time>2026-04-01T08:24:39.539Z</time></trkpt><trkpt lat="43.1233208" lon="12.1782161"><ele>367.0</ele><time>2026-04-01T08:24:40.538Z</time></trkpt><trkpt lat="43.1231669" lon="12.1781509"><ele>369.0</ele><time>2026-04-01T08:24:41.538Z</time></trkpt><trkpt lat="43.1230248" lon="12.178089"><ele>371.0</ele><time>2026-04-01T08:24:42.538Z</time></trkpt><trkpt lat="43.1228711" lon="12.1780036"><ele>373.0</ele><time>2026-04-01T08:24:43.537Z</time></trkpt><trkpt lat="43.1227197" lon="12.1779014"><ele>373.0</ele><time>2026-04-01T08:24:44.537Z</time></trkpt><trkpt lat="43.1225719" lon="12.177775"><ele>373.0</ele><time>2026-04-01T08:24:45.538Z</time></trkpt><trkpt lat="43.1224109" lon="12.1776563"><ele>373.0</ele><time>2026-04-01T08:24:46.537Z</time></trkpt><trkpt lat="43.1222404" lon="12.1775203"><ele>373.66666666666663</ele><time>2026-04-01T08:24:47.538Z</time></trkpt><trkpt lat="43.1220681" lon="12.1774038"><ele>374.3333333333333</ele><time>2026-04-01T08:24:48.538Z</time></trkpt><trkpt lat="43.1218927" lon="12.1772694"><ele>375.0</ele><time>2026-04-01T08:24:49.537Z</time></trkpt><trkpt lat="43.121722" lon="12.1771432"><ele>375.0</ele><time>2026-04-01T08:24:50.538Z</time></trkpt><trkpt lat="43.1215686" lon="12.1770434"><ele>375.0</ele><time>2026-04-01T08:24:51.54Z</time></trkpt><trkpt lat="43.1214116" lon="12.1769218"><ele>375.0</ele><time>2026-04-01T08:24:52.538Z</time></trkpt><trkpt lat="43.1212719" lon="12.1768187"><ele>373.25</ele><time>2026-04-01T08:24:53.539Z</time></trkpt><trkpt lat="43.1211229" lon="12.1767187"><ele>371.5</ele><time>2026-04-01T08:24:54.538Z</time></trkpt><trkpt lat="43.120997" lon="12.1766285"><ele>369.75</ele><time>2026-04-01T08:24:55.538Z</time></trkpt><trkpt lat="43.1208682" lon="12.1765576"><ele>368.0</ele><time>2026-04-01T08:24:56.537Z</time></trkpt><trkpt lat="43.1207377" lon="12.1764982"><ele>364.0</ele><time>2026-04-01T08:24:57.537Z</time></trkpt><trkpt lat="43.1206238" lon="12.1764278"><ele>360.0</ele><time>2026-04-01T08:24:58.539Z</time></trkpt><trkpt lat="43.1204939" lon="12.1763728"><ele>356.0</ele><time>2026-04-01T08:24:59.538Z</time></trkpt><trkpt lat="43.1203654" lon="12.1763182"><ele>352.0</ele><time>2026-04-01T08:25:00.536Z</time></trkpt><trkpt lat="43.1202364" lon="12.176257"><ele>352.0</ele><time>2026-04-01T08:25:01.538Z</time></trkpt><trkpt lat="43.1200926" lon="12.1761867"><ele>352.0</ele><time>2026-04-01T08:25:02.537Z</time></trkpt><trkpt lat="43.1199486" lon="12.1761061"><ele>352.0</ele><time>2026-04-01T08:25:03.538Z</time></trkpt><trkpt lat="43.1198094" lon="12.1760326"><ele>348.0</ele><time>2026-04-01T08:25:04.538Z</time></trkpt><trkpt lat="43.1196675" lon="12.1759544"><ele>344.0</ele><time>2026-04-01T08:25:05.538Z</time></trkpt><trkpt lat="43.1195323" lon="12.1758788"><ele>340.0</ele><time>2026-04-01T08:25:06.538Z</time></trkpt><trkpt lat="43.1193994" lon="12.1758015"><ele>336.0</ele><time>2026-04-01T08:25:07.537Z</time></trkpt><trkpt lat="43.1192687" lon="12.1757282"><ele>336.25</ele><time>2026-04-01T08:25:08.539Z</time></trkpt><trkpt lat="43.1191429" lon="12.1756546"><ele>336.5</ele><time>2026-04-01T08:25:09.537Z</time></trkpt><trkpt lat="43.1190225" lon="12.175563"><ele>336.75</ele><time>2026-04-01T08:25:10.537Z</time></trkpt><trkpt lat="43.1188976" lon="12.1754708"><ele>337.0</ele><time>2026-04-01T08:25:11.539Z</time></trkpt><trkpt lat="43.1187688" lon="12.17536"><ele>333.75</ele><time>2026-04-01T08:25:12.538Z</time></trkpt><trkpt lat="43.1186492" lon="12.1752467"><ele>330.5</ele><time>2026-04-01T08:25:13.537Z</time></trkpt><trkpt lat="43.1185316" lon="12.175147"><ele>327.25</ele><time>2026-04-01T08:25:14.538Z</time></trkpt><trkpt lat="43.1184388" lon="12.1750725"><ele>324.0</ele><time>2026-04-01T08:25:15.539Z</time></trkpt><trkpt lat="43.1183413" lon="12.1750096"><ele>324.0</ele><time>2026-04-01T08:25:16.538Z</time></trkpt><trkpt lat="43.1182644" lon="12.174939"><ele>324.0</ele><time>2026-04-01T08:25:17.538Z</time></trkpt><trkpt lat="43.1181959" lon="12.174853"><ele>324.0</ele><time>2026-04-01T08:25:18.537Z</time></trkpt><trkpt lat="43.1181573" lon="12.1747693"><ele>324.0</ele><time>2026-04-01T08:25:19.537Z</time></trkpt><trkpt lat="43.1181021" lon="12.1746981"><ele>324.0</ele><time>2026-04-01T08:25:20.538Z</time></trkpt><trkpt lat="43.1180297" lon="12.1746469"><ele>324.0</ele><time>2026-04-01T08:25:21.538Z</time></trkpt><trkpt lat="43.1179452" lon="12.1746243"><ele>321.8333333333333</ele><time>2026-04-01T08:25:22.537Z</time></trkpt><trkpt lat="43.1178804" lon="12.1746386"><ele>319.6666666666667</ele><time>2026-04-01T08:25:23.537Z</time></trkpt><trkpt lat="43.1177994" lon="12.1746648"><ele>317.5</ele><time>2026-04-01T08:25:24.539Z</time></trkpt><trkpt lat="43.1177235" lon="12.1746991"><ele>315.33333333333337</ele><time>2026-04-01T08:25:25.537Z</time></trkpt><trkpt lat="43.1176271" lon="12.174719"><ele>313.1666666666667</ele><time>2026-04-01T08:25:26.539Z</time></trkpt><trkpt lat="43.1175434" lon="12.1747144"><ele>311.0</ele><time>2026-04-01T08:25:27.538Z</time></trkpt><trkpt lat="43.1174567" lon="12.1746616"><ele>309.83333333333337</ele><time>2026-04-01T08:25:28.539Z</time></trkpt><trkpt lat="43.1173657" lon="12.1745953"><ele>308.6666666666667</ele><time>2026-04-01T08:25:29.539Z</time></trkpt><trkpt lat="43.1172973" lon="12.1745335"><ele>307.5</ele><time>2026-04-01T08:25:30.539Z</time></trkpt><trkpt lat="43.1172329" lon="12.1744987"><ele>306.3333333333333</ele><time>2026-04-01T08:25:31.539Z</time></trkpt><trkpt lat="43.1171769" lon="12.1744568"><ele>305.16666666666663</ele><time>2026-04-01T08:25:32.537Z</time></trkpt><trkpt lat="43.1170948" lon="12.1743669"><ele>304.0</ele><time>2026-04-01T08:25:34.539Z</time></trkpt><trkpt lat="43.1170542" lon="12.1742999"><ele>304.0</ele><time>2026-04-01T08:25:35.538Z</time></trkpt><trkpt lat="43.1169787" lon="12.1742067"><ele>304.0</ele><time>2026-04-01T08:25:37.539Z</time></trkpt><trkpt lat="43.1168694" lon="12.1741351"><ele>304.0</ele><time>2026-04-01T08:25:39.539Z</time></trkpt><trkpt lat="43.1167509" lon="12.1740966"><ele>304.0</ele><time>2026-04-01T08:25:41.539Z</time></trkpt><trkpt lat="43.1166491" lon="12.1740463"><ele>300.59999999999997</ele><time>2026-04-01T08:25:43.538Z</time></trkpt><trkpt lat="43.1165193" lon="12.1740075"><ele>297.2</ele><time>2026-04-01T08:25:45.537Z</time></trkpt><trkpt lat="43.1164252" lon="12.1739925"><ele>293.79999999999995</ele><time>2026-04-01T08:25:46.538Z</time></trkpt><trkpt lat="43.1163425" lon="12.1739696"><ele>290.4</ele><time>2026-04-01T08:25:47.538Z</time></trkpt><trkpt lat="43.1162766" lon="12.1739471"><ele>287.0</ele><time>2026-04-01T08:25:48.54Z</time></trkpt><trkpt lat="43.1161735" lon="12.1739637"><ele>287.8</ele><time>2026-04-01T08:25:50.537Z</time></trkpt><trkpt lat="43.1161115" lon="12.174076"><ele>288.6</ele><time>2026-04-01T08:25:52.538Z</time></trkpt><trkpt lat="43.1161246" lon="12.1742358"><ele>289.40000000000003</ele><time>2026-04-01T08:25:54.538Z</time></trkpt><trkpt lat="43.1161563" lon="12.1743369"><ele>290.2</ele><time>2026-04-01T08:25:55.538Z</time></trkpt><trkpt lat="43.1161894" lon="12.1744565"><ele>291.0</ele><time>2026-04-01T08:25:56.538Z</time></trkpt><trkpt lat="43.1162294" lon="12.1745859"><ele>291.0</ele><time>2026-04-01T08:25:57.537Z</time></trkpt><trkpt lat="43.1162858" lon="12.1747569"><ele>291.0</ele><time>2026-04-01T08:25:58.538Z</time></trkpt><trkpt lat="43.1163475" lon="12.1749186"><ele>291.0</ele><time>2026-04-01T08:25:59.539Z</time></trkpt><trkpt lat="43.1164109" lon="12.1750674"><ele>291.0</ele><time>2026-04-01T08:26:00.539Z</time></trkpt><trkpt lat="43.1164849" lon="12.1752252"><ele>291.0</ele><time>2026-04-01T08:26:01.539Z</time></trkpt><trkpt lat="43.1165573" lon="12.1753765"><ele>291.0</ele><time>2026-04-01T08:26:02.538Z</time></trkpt><trkpt lat="43.1166246" lon="12.1755334"><ele>291.0</ele><time>2026-04-01T08:26:03.538Z</time></trkpt><trkpt lat="43.1166816" lon="12.1756729"><ele>291.0</ele><time>2026-04-01T08:26:04.537Z</time></trkpt><trkpt lat="43.1167457" lon="12.1758027"><ele>291.0</ele><time>2026-04-01T08:26:05.538Z</time></trkpt><trkpt lat="43.1168118" lon="12.1759258"><ele>291.0</ele><time>2026-04-01T08:26:06.539Z</time></trkpt><trkpt lat="43.1168879" lon="12.176034"><ele>291.0</ele><time>2026-04-01T08:26:07.539Z</time></trkpt><trkpt lat="43.1169602" lon="12.1761279"><ele>291.0</ele><time>2026-04-01T08:26:08.537Z</time></trkpt><trkpt lat="43.1170248" lon="12.1762225"><ele>291.0</ele><time>2026-04-01T08:26:09.537Z</time></trkpt><trkpt lat="43.1170783" lon="12.176311"><ele>291.0</ele><time>2026-04-01T08:26:10.538Z</time></trkpt><trkpt lat="43.1171413" lon="12.1764544"><ele>291.0</ele><time>2026-04-01T08:26:12.538Z</time></trkpt><trkpt lat="43.117184" lon="12.1765756"><ele>291.0</ele><time>2026-04-01T08:26:14.539Z</time></trkpt><trkpt lat="43.117123" lon="12.1766464"><ele>291.0</ele><time>2026-04-01T08:26:16.538Z</time></trkpt><trkpt lat="43.1170036" lon="12.1766677"><ele>291.0</ele><time>2026-04-01T08:26:18.539Z</time></trkpt><trkpt lat="43.1169171" lon="12.1766629"><ele>288.8</ele><time>2026-04-01T08:26:19.539Z</time></trkpt><trkpt lat="43.1168134" lon="12.1766294"><ele>286.6</ele><time>2026-04-01T08:26:20.538Z</time></trkpt><trkpt lat="43.1167279" lon="12.1765987"><ele>284.4</ele><time>2026-04-01T08:26:21.54Z</time></trkpt><trkpt lat="43.116637" lon="12.1765849"><ele>282.2</ele><time>2026-04-01T08:26:22.54Z</time></trkpt><trkpt lat="43.1165275" lon="12.1766017"><ele>280.0</ele><time>2026-04-01T08:26:23.539Z</time></trkpt><trkpt lat="43.1164118" lon="12.1765901"><ele>279.8</ele><time>2026-04-01T08:26:24.537Z</time></trkpt><trkpt lat="43.1163105" lon="12.1765914"><ele>279.6</ele><time>2026-04-01T08:26:25.54Z</time></trkpt><trkpt lat="43.1162262" lon="12.1765625"><ele>279.4</ele><time>2026-04-01T08:26:26.538Z</time></trkpt><trkpt lat="43.1161466" lon="12.176533"><ele>279.2</ele><time>2026-04-01T08:26:27.539Z</time></trkpt><trkpt lat="43.1160566" lon="12.1764866"><ele>279.0</ele><time>2026-04-01T08:26:28.538Z</time></trkpt><trkpt lat="43.1159851" lon="12.1764017"><ele>279.0</ele><time>2026-04-01T08:26:29.537Z</time></trkpt><trkpt lat="43.1159147" lon="12.1763087"><ele>279.0</ele><time>2026-04-01T08:26:30.538Z</time></trkpt><trkpt lat="43.1158346" lon="12.1761979"><ele>279.0</ele><time>2026-04-01T08:26:31.538Z</time></trkpt><trkpt lat="43.1157348" lon="12.1760913"><ele>279.0</ele><time>2026-04-01T08:26:32.539Z</time></trkpt><trkpt lat="43.1156527" lon="12.175968"><ele>277.8</ele><time>2026-04-01T08:26:33.539Z</time></trkpt><trkpt lat="43.1155778" lon="12.1758743"><ele>276.59999999999997</ele><time>2026-04-01T08:26:34.538Z</time></trkpt><trkpt lat="43.1155097" lon="12.1757783"><ele>275.4</ele><time>2026-04-01T08:26:35.537Z</time></trkpt><trkpt lat="43.1154691" lon="12.1757118"><ele>274.2</ele><time>2026-04-01T08:26:36.539Z</time></trkpt><trkpt lat="43.1153944" lon="12.17564"><ele>273.0</ele><time>2026-04-01T08:26:38.539Z</time></trkpt><trkpt lat="43.1153049" lon="12.1755482"><ele>273.0</ele><time>2026-04-01T08:26:39.539Z</time></trkpt><trkpt lat="43.1152331" lon="12.1754615"><ele>273.0</ele><time>2026-04-01T08:26:40.538Z</time></trkpt><trkpt lat="43.1151603" lon="12.1753748"><ele>273.0</ele><time>2026-04-01T08:26:41.538Z</time></trkpt><trkpt lat="43.1151008" lon="12.1752401"><ele>273.0</ele><time>2026-04-01T08:26:42.539Z</time></trkpt><trkpt lat="43.1150281" lon="12.1751374"><ele>273.0</ele><time>2026-04-01T08:26:43.538Z</time></trkpt><trkpt lat="43.1149556" lon="12.1750356"><ele>271.2</ele><time>2026-04-01T08:26:44.538Z</time></trkpt><trkpt lat="43.1148824" lon="12.1749374"><ele>269.4</ele><time>2026-04-01T08:26:45.537Z</time></trkpt><trkpt lat="43.1148081" lon="12.1748413"><ele>267.59999999999997</ele><time>2026-04-01T08:26:46.539Z</time></trkpt><trkpt lat="43.11471" lon="12.1747748"><ele>265.8</ele><time>2026-04-01T08:26:47.538Z</time></trkpt><trkpt lat="43.1146115" lon="12.1747218"><ele>264.0</ele><time>2026-04-01T08:26:48.538Z</time></trkpt><trkpt lat="43.1144976" lon="12.1746657"><ele>264.0</ele><time>2026-04-01T08:26:49.538Z</time></trkpt><trkpt lat="43.1143903" lon="12.1745941"><ele>264.0</ele><time>2026-04-01T08:26:50.54Z</time></trkpt><trkpt lat="43.1143125" lon="12.174473"><ele>264.0</ele><time>2026-04-01T08:26:51.539Z</time></trkpt><trkpt lat="43.1142575" lon="12.1743521"><ele>264.0</ele><time>2026-04-01T08:26:52.54Z</time></trkpt><trkpt lat="43.1142083" lon="12.1742526"><ele>264.0</ele><time>2026-04-01T08:26:53.537Z</time></trkpt><trkpt lat="43.114158" lon="12.1741862"><ele>264.0</ele><time>2026-04-01T08:26:54.538Z</time></trkpt><trkpt lat="43.1141011" lon="12.1741446"><ele>264.0</ele><time>2026-04-01T08:26:55.538Z</time></trkpt><trkpt lat="43.1140239" lon="12.1741431"><ele>264.0</ele><time>2026-04-01T08:26:58.538Z</time></trkpt><trkpt lat="43.1139762" lon="12.1742636"><ele>264.0</ele><time>2026-04-01T08:27:00.539Z</time></trkpt><trkpt lat="43.1139326" lon="12.1743847"><ele>264.0</ele><time>2026-04-01T08:27:01.538Z</time></trkpt><trkpt lat="43.1138755" lon="12.1745251"><ele>262.75</ele><time>2026-04-01T08:27:02.538Z</time></trkpt><trkpt lat="43.1138135" lon="12.1746762"><ele>261.5</ele><time>2026-04-01T08:27:03.537Z</time></trkpt><trkpt lat="43.1137289" lon="12.1748502"><ele>260.25</ele><time>2026-04-01T08:27:04.538Z</time></trkpt><trkpt lat="43.113654" lon="12.1750591"><ele>259.0</ele><time>2026-04-01T08:27:05.537Z</time></trkpt><trkpt lat="43.1135681" lon="12.1752553"><ele>259.0</ele><time>2026-04-01T08:27:06.538Z</time></trkpt><trkpt lat="43.1134706" lon="12.1754544"><ele>259.0</ele><time>2026-04-01T08:27:07.539Z</time></trkpt><trkpt lat="43.1133877" lon="12.1756475"><ele>259.0</ele><time>2026-04-01T08:27:08.538Z</time></trkpt><trkpt lat="43.1133089" lon="12.1758378"><ele>259.3333333333333</ele><time>2026-04-01T08:27:09.538Z</time></trkpt><trkpt lat="43.1132449" lon="12.1760403"><ele>259.6666666666667</ele><time>2026-04-01T08:27:10.539Z</time></trkpt><trkpt lat="43.1131807" lon="12.1762576"><ele>260.0</ele><time>2026-04-01T08:27:11.539Z</time></trkpt><trkpt lat="43.1131248" lon="12.1764762"><ele>259.33333333333337</ele><time>2026-04-01T08:27:12.538Z</time></trkpt><trkpt lat="43.1130779" lon="12.1767113"><ele>258.6666666666667</ele><time>2026-04-01T08:27:13.54Z</time></trkpt><trkpt lat="43.1130219" lon="12.1769523"><ele>258.0</ele><time>2026-04-01T08:27:14.539Z</time></trkpt><trkpt lat="43.1129801" lon="12.1772013"><ele>258.0</ele><time>2026-04-01T08:27:15.538Z</time></trkpt><trkpt lat="43.1129341" lon="12.1774551"><ele>258.0</ele><time>2026-04-01T08:27:16.539Z</time></trkpt><trkpt lat="43.1128752" lon="12.1777121"><ele>258.0</ele><time>2026-04-01T08:27:17.539Z</time></trkpt><trkpt lat="43.1128181" lon="12.1779703"><ele>258.6666666666667</ele><time>2026-04-01T08:27:18.539Z</time></trkpt><trkpt lat="43.112768" lon="12.1782066"><ele>259.33333333333337</ele><time>2026-04-01T08:27:19.538Z</time></trkpt><trkpt lat="43.11273" lon="12.1784387"><ele>260.0</ele><time>2026-04-01T08:27:20.538Z</time></trkpt><trkpt lat="43.1126856" lon="12.1786374"><ele>260.0</ele><time>2026-04-01T08:27:21.539Z</time></trkpt><trkpt lat="43.1126509" lon="12.1788181"><ele>260.0</ele><time>2026-04-01T08:27:22.539Z</time></trkpt><trkpt lat="43.1126235" lon="12.1789642"><ele>260.0</ele><time>2026-04-01T08:27:23.539Z</time></trkpt><trkpt lat="43.1125991" lon="12.1790737"><ele>260.0</ele><time>2026-04-01T08:27:24.539Z</time></trkpt><trkpt lat="43.1125727" lon="12.1791589"><ele>260.0</ele><time>2026-04-01T08:27:25.539Z</time></trkpt><trkpt lat="43.1125597" lon="12.1792478"><ele>260.2</ele><time>2026-04-01T08:27:26.539Z</time></trkpt><trkpt lat="43.112532" lon="12.1793817"><ele>260.4</ele><time>2026-04-01T08:27:28.539Z</time></trkpt><trkpt lat="43.1125129" lon="12.1794749"><ele>260.6</ele><time>2026-04-01T08:27:30.538Z</time></trkpt><trkpt lat="43.1124881" lon="12.1795743"><ele>260.8</ele><time>2026-04-01T08:27:32.538Z</time></trkpt><trkpt lat="43.1124504" lon="12.179671"><ele>261.0</ele><time>2026-04-01T08:27:34.539Z</time></trkpt><trkpt lat="43.1123892" lon="12.1798222"><ele>260.25</ele><time>2026-04-01T08:27:36.539Z</time></trkpt><trkpt lat="43.1123273" lon="12.1799476"><ele>259.5</ele><time>2026-04-01T08:27:37.538Z</time></trkpt><trkpt lat="43.112259" lon="12.1800804"><ele>258.75</ele><time>2026-04-01T08:27:38.539Z</time></trkpt><trkpt lat="43.1121781" lon="12.1802452"><ele>258.0</ele><time>2026-04-01T08:27:39.54Z</time></trkpt><trkpt lat="43.1120878" lon="12.1804326"><ele>258.0</ele><time>2026-04-01T08:27:40.539Z</time></trkpt><trkpt lat="43.1119912" lon="12.1806185"><ele>258.0</ele><time>2026-04-01T08:27:41.54Z</time></trkpt><trkpt lat="43.1118943" lon="12.1808226"><ele>258.0</ele><time>2026-04-01T08:27:42.539Z</time></trkpt><trkpt lat="43.1117977" lon="12.1810229"><ele>258.6666666666667</ele><time>2026-04-01T08:27:43.539Z</time></trkpt><trkpt lat="43.1116968" lon="12.181234"><ele>259.33333333333337</ele><time>2026-04-01T08:27:44.539Z</time></trkpt><trkpt lat="43.1115973" lon="12.1814431"><ele>260.0</ele><time>2026-04-01T08:27:45.539Z</time></trkpt><trkpt lat="43.1114877" lon="12.1816791"><ele>260.0</ele><time>2026-04-01T08:27:46.539Z</time></trkpt><trkpt lat="43.1113835" lon="12.1818814"><ele>260.0</ele><time>2026-04-01T08:27:47.539Z</time></trkpt><trkpt lat="43.111271" lon="12.1820672"><ele>260.0</ele><time>2026-04-01T08:27:48.539Z</time></trkpt><trkpt lat="43.1111443" lon="12.1822638"><ele>260.33333333333337</ele><time>2026-04-01T08:27:49.54Z</time></trkpt><trkpt lat="43.1110129" lon="12.1824436"><ele>260.6666666666667</ele><time>2026-04-01T08:27:50.54Z</time></trkpt><trkpt lat="43.1108804" lon="12.182628"><ele>261.0</ele><time>2026-04-01T08:27:51.539Z</time></trkpt><trkpt lat="43.1107533" lon="12.1828258"><ele>260.3333333333333</ele><time>2026-04-01T08:27:52.538Z</time></trkpt><trkpt lat="43.1106236" lon="12.1830202"><ele>259.66666666666663</ele><time>2026-04-01T08:27:53.539Z</time></trkpt><trkpt lat="43.1104874" lon="12.183229"><ele>259.0</ele><time>2026-04-01T08:27:54.538Z</time></trkpt><trkpt lat="43.110354" lon="12.1834318"><ele>259.0</ele><time>2026-04-01T08:27:55.54Z</time></trkpt><trkpt lat="43.110209" lon="12.1836852"><ele>259.0</ele><time>2026-04-01T08:27:56.54Z</time></trkpt><trkpt lat="43.1100962" lon="12.1839326"><ele>259.0</ele><time>2026-04-01T08:27:57.539Z</time></trkpt><trkpt lat="43.1099817" lon="12.1842177"><ele>258.5</ele><time>2026-04-01T08:27:58.54Z</time></trkpt><trkpt lat="43.1098831" lon="12.1845083"><ele>258.0</ele><time>2026-04-01T08:27:59.539Z</time></trkpt><trkpt lat="43.1097644" lon="12.1848811"><ele>258.0</ele><time>2026-04-01T08:28:00.541Z</time></trkpt><trkpt lat="43.1096227" lon="12.1852353"><ele>258.0</ele><time>2026-04-01T08:28:01.539Z</time></trkpt><trkpt lat="43.1094632" lon="12.185573"><ele>259.0</ele><time>2026-04-01T08:28:02.539Z</time></trkpt><trkpt lat="43.1092918" lon="12.1858869"><ele>260.0</ele><time>2026-04-01T08:28:03.538Z</time></trkpt><trkpt lat="43.1091254" lon="12.1861503"><ele>260.5</ele><time>2026-04-01T08:28:04.539Z</time></trkpt><trkpt lat="43.1089487" lon="12.1863717"><ele>261.0</ele><time>2026-04-01T08:28:05.538Z</time></trkpt><trkpt lat="43.1087555" lon="12.1865829"><ele>261.0</ele><time>2026-04-01T08:28:06.539Z</time></trkpt><trkpt lat="43.1085446" lon="12.1867839"><ele>261.0</ele><time>2026-04-01T08:28:07.538Z</time></trkpt><trkpt lat="43.1083397" lon="12.1869604"><ele>259.0</ele><time>2026-04-01T08:28:08.539Z</time></trkpt><trkpt lat="43.1081486" lon="12.1871284"><ele>257.0</ele><time>2026-04-01T08:28:09.539Z</time></trkpt><trkpt lat="43.1079508" lon="12.187276"><ele>257.33333333333337</ele><time>2026-04-01T08:28:10.54Z</time></trkpt><trkpt lat="43.1077526" lon="12.187409"><ele>257.6666666666667</ele><time>2026-04-01T08:28:11.54Z</time></trkpt><trkpt lat="43.1075438" lon="12.1875229"><ele>258.0</ele><time>2026-04-01T08:28:12.538Z</time></trkpt><trkpt lat="43.1073322" lon="12.1876174"><ele>258.0</ele><time>2026-04-01T08:28:13.538Z</time></trkpt><trkpt lat="43.1071369" lon="12.1877254"><ele>258.0</ele><time>2026-04-01T08:28:14.539Z</time></trkpt><trkpt lat="43.1069522" lon="12.1878406"><ele>258.0</ele><time>2026-04-01T08:28:15.539Z</time></trkpt><trkpt lat="43.1067885" lon="12.1879651"><ele>258.0</ele><time>2026-04-01T08:28:16.537Z</time></trkpt><trkpt lat="43.1066322" lon="12.1880857"><ele>258.0</ele><time>2026-04-01T08:28:17.539Z</time></trkpt><trkpt lat="43.106496" lon="12.188195"><ele>258.0</ele><time>2026-04-01T08:28:18.538Z</time></trkpt><trkpt lat="43.1063795" lon="12.1882925"><ele>259.5</ele><time>2026-04-01T08:28:19.539Z</time></trkpt><trkpt lat="43.1062694" lon="12.188338"><ele>261.0</ele><time>2026-04-01T08:28:20.538Z</time></trkpt><trkpt lat="43.1061484" lon="12.1883371"><ele>262.5</ele><time>2026-04-01T08:28:21.538Z</time></trkpt><trkpt lat="43.1060054" lon="12.1883088"><ele>264.0</ele><time>2026-04-01T08:28:22.54Z</time></trkpt><trkpt lat="43.1058411" lon="12.1882644"><ele>265.0</ele><time>2026-04-01T08:28:23.539Z</time></trkpt><trkpt lat="43.1056444" lon="12.1882325"><ele>266.0</ele><time>2026-04-01T08:28:24.537Z</time></trkpt><trkpt lat="43.1054277" lon="12.188219"><ele>267.0</ele><time>2026-04-01T08:28:25.539Z</time></trkpt><trkpt lat="43.1052128" lon="12.1882026"><ele>267.0</ele><time>2026-04-01T08:28:26.538Z</time></trkpt><trkpt lat="43.1049928" lon="12.1881786"><ele>267.0</ele><time>2026-04-01T08:28:27.539Z</time></trkpt><trkpt lat="43.1047969" lon="12.1881034"><ele>267.0</ele><time>2026-04-01T08:28:28.539Z</time></trkpt><trkpt lat="43.104613" lon="12.1880493"><ele>264.3333333333333</ele><time>2026-04-01T08:28:29.539Z</time></trkpt><trkpt lat="43.1044255" lon="12.1880356"><ele>261.66666666666663</ele><time>2026-04-01T08:28:30.538Z</time></trkpt><trkpt lat="43.1042362" lon="12.1880618"><ele>259.0</ele><time>2026-04-01T08:28:31.539Z</time></trkpt><trkpt lat="43.1040516" lon="12.1881927"><ele>259.0</ele><time>2026-04-01T08:28:32.539Z</time></trkpt><trkpt lat="43.103853" lon="12.188344"><ele>259.0</ele><time>2026-04-01T08:28:33.539Z</time></trkpt><trkpt lat="43.1036586" lon="12.1885033"><ele>259.0</ele><time>2026-04-01T08:28:34.54Z</time></trkpt><trkpt lat="43.1034444" lon="12.1886903"><ele>259.0</ele><time>2026-04-01T08:28:35.539Z</time></trkpt><trkpt lat="43.1032486" lon="12.1888585"><ele>259.3333333333333</ele><time>2026-04-01T08:28:36.539Z</time></trkpt><trkpt lat="43.1030493" lon="12.1890154"><ele>259.6666666666667</ele><time>2026-04-01T08:28:37.538Z</time></trkpt><trkpt lat="43.102872" lon="12.1891742"><ele>260.0</ele><time>2026-04-01T08:28:38.539Z</time></trkpt><trkpt lat="43.1027126" lon="12.1893431"><ele>260.0</ele><time>2026-04-01T08:28:39.539Z</time></trkpt><trkpt lat="43.1025881" lon="12.189521"><ele>260.0</ele><time>2026-04-01T08:28:40.539Z</time></trkpt><trkpt lat="43.1024883" lon="12.189715"><ele>260.0</ele><time>2026-04-01T08:28:41.538Z</time></trkpt><trkpt lat="43.1023947" lon="12.1899222"><ele>259.33333333333337</ele><time>2026-04-01T08:28:42.538Z</time></trkpt><trkpt lat="43.1022938" lon="12.1901378"><ele>258.6666666666667</ele><time>2026-04-01T08:28:43.538Z</time></trkpt><trkpt lat="43.1022021" lon="12.1903596"><ele>258.0</ele><time>2026-04-01T08:28:44.539Z</time></trkpt><trkpt lat="43.1020918" lon="12.1905974"><ele>258.3333333333333</ele><time>2026-04-01T08:28:45.54Z</time></trkpt><trkpt lat="43.1019801" lon="12.1908537"><ele>258.66666666666663</ele><time>2026-04-01T08:28:46.539Z</time></trkpt><trkpt lat="43.101862" lon="12.1911018"><ele>259.0</ele><time>2026-04-01T08:28:47.539Z</time></trkpt><trkpt lat="43.1017474" lon="12.1913578"><ele>259.3333333333333</ele><time>2026-04-01T08:28:48.539Z</time></trkpt><trkpt lat="43.1016388" lon="12.1915866"><ele>259.6666666666667</ele><time>2026-04-01T08:28:49.539Z</time></trkpt><trkpt lat="43.1015261" lon="12.1918003"><ele>260.0</ele><time>2026-04-01T08:28:50.539Z</time></trkpt><trkpt lat="43.101422" lon="12.1920052"><ele>259.6666666666667</ele><time>2026-04-01T08:28:51.54Z</time></trkpt><trkpt lat="43.101348" lon="12.1922016"><ele>259.3333333333333</ele><time>2026-04-01T08:28:52.539Z</time></trkpt><trkpt lat="43.1013146" lon="12.1924107"><ele>259.0</ele><time>2026-04-01T08:28:53.539Z</time></trkpt><trkpt lat="43.1013141" lon="12.1926287"><ele>259.0</ele><time>2026-04-01T08:28:54.539Z</time></trkpt><trkpt lat="43.1013611" lon="12.1928698"><ele>259.0</ele><time>2026-04-01T08:28:55.539Z</time></trkpt><trkpt lat="43.1014383" lon="12.1931319"><ele>259.0</ele><time>2026-04-01T08:28:56.539Z</time></trkpt><trkpt lat="43.1015415" lon="12.1934082"><ele>259.5</ele><time>2026-04-01T08:28:57.539Z</time></trkpt><trkpt lat="43.1016434" lon="12.1936933"><ele>260.0</ele><time>2026-04-01T08:28:58.539Z</time></trkpt><trkpt lat="43.1017414" lon="12.1939742"><ele>260.33333333333337</ele><time>2026-04-01T08:28:59.538Z</time></trkpt><trkpt lat="43.1018379" lon="12.1942382"><ele>260.6666666666667</ele><time>2026-04-01T08:29:00.538Z</time></trkpt><trkpt lat="43.1019333" lon="12.1944876"><ele>261.0</ele><time>2026-04-01T08:29:01.539Z</time></trkpt><trkpt lat="43.1020094" lon="12.1947117"><ele>261.3333333333333</ele><time>2026-04-01T08:29:02.538Z</time></trkpt><trkpt lat="43.1020694" lon="12.1949427"><ele>261.66666666666663</ele><time>2026-04-01T08:29:03.539Z</time></trkpt><trkpt lat="43.1020936" lon="12.1951724"><ele>262.0</ele><time>2026-04-01T08:29:04.539Z</time></trkpt><trkpt lat="43.10208" lon="12.1954177"><ele>262.0</ele><time>2026-04-01T08:29:05.539Z</time></trkpt><trkpt lat="43.1020276" lon="12.1956657"><ele>262.0</ele><time>2026-04-01T08:29:06.538Z</time></trkpt><trkpt lat="43.1019538" lon="12.1959323"><ele>262.0</ele><time>2026-04-01T08:29:07.539Z</time></trkpt><trkpt lat="43.1018854" lon="12.1961986"><ele>265.0</ele><time>2026-04-01T08:29:08.539Z</time></trkpt><trkpt lat="43.1017808" lon="12.1965124"><ele>268.0</ele><time>2026-04-01T08:29:09.54Z</time></trkpt><trkpt lat="43.1016861" lon="12.1968163"><ele>268.0</ele><time>2026-04-01T08:29:10.538Z</time></trkpt><trkpt lat="43.101594" lon="12.1971221"><ele>268.0</ele><time>2026-04-01T08:29:11.54Z</time></trkpt><trkpt lat="43.1014907" lon="12.1974172"><ele>268.3333333333333</ele><time>2026-04-01T08:29:12.54Z</time></trkpt><trkpt lat="43.1013983" lon="12.1976937"><ele>268.6666666666667</ele><time>2026-04-01T08:29:13.539Z</time></trkpt><trkpt lat="43.101318" lon="12.1979426"><ele>269.0</ele><time>2026-04-01T08:29:14.54Z</time></trkpt><trkpt lat="43.1012427" lon="12.1981661"><ele>270.33333333333337</ele><time>2026-04-01T08:29:15.539Z</time></trkpt><trkpt lat="43.1011525" lon="12.1983943"><ele>271.6666666666667</ele><time>2026-04-01T08:29:16.539Z</time></trkpt><trkpt lat="43.1010429" lon="12.1985828"><ele>273.0</ele><time>2026-04-01T08:29:17.54Z</time></trkpt><trkpt lat="43.1009002" lon="12.1987501"><ele>273.0</ele><time>2026-04-01T08:29:18.539Z</time></trkpt><trkpt lat="43.1007427" lon="12.1989029"><ele>273.0</ele><time>2026-04-01T08:29:19.54Z</time></trkpt><trkpt lat="43.1005915" lon="12.1990347"><ele>273.0</ele><time>2026-04-01T08:29:20.538Z</time></trkpt><trkpt lat="43.1004598" lon="12.1991656"><ele>274.5</ele><time>2026-04-01T08:29:21.539Z</time></trkpt><trkpt lat="43.1003418" lon="12.1993047"><ele>276.0</ele><time>2026-04-01T08:29:22.539Z</time></trkpt><trkpt lat="43.1002215" lon="12.1994089"><ele>277.5</ele><time>2026-04-01T08:29:23.54Z</time></trkpt><trkpt lat="43.1000947" lon="12.1994994"><ele>279.0</ele><time>2026-04-01T08:29:24.539Z</time></trkpt><trkpt lat="43.099943" lon="12.1995923"><ele>278.0</ele><time>2026-04-01T08:29:25.538Z</time></trkpt><trkpt lat="43.0997841" lon="12.1996639"><ele>277.0</ele><time>2026-04-01T08:29:26.54Z</time></trkpt><trkpt lat="43.0996135" lon="12.1997565"><ele>276.0</ele><time>2026-04-01T08:29:27.539Z</time></trkpt><trkpt lat="43.0994453" lon="12.1998198"><ele>277.3333333333333</ele><time>2026-04-01T08:29:28.54Z</time></trkpt><trkpt lat="43.0992696" lon="12.199866"><ele>278.66666666666663</ele><time>2026-04-01T08:29:29.539Z</time></trkpt><trkpt lat="43.0990935" lon="12.1998921"><ele>280.0</ele><time>2026-04-01T08:29:30.539Z</time></trkpt><trkpt lat="43.0989246" lon="12.1998859"><ele>280.75</ele><time>2026-04-01T08:29:31.539Z</time></trkpt><trkpt lat="43.0987672" lon="12.1998671"><ele>281.5</ele><time>2026-04-01T08:29:32.538Z</time></trkpt><trkpt lat="43.0986207" lon="12.1998386"><ele>282.25</ele><time>2026-04-01T08:29:33.539Z</time></trkpt><trkpt lat="43.0984829" lon="12.1998058"><ele>283.0</ele><time>2026-04-01T08:29:34.539Z</time></trkpt><trkpt lat="43.098333" lon="12.1997631"><ele>281.5</ele><time>2026-04-01T08:29:35.54Z</time></trkpt><trkpt lat="43.0981929" lon="12.1997399"><ele>280.0</ele><time>2026-04-01T08:29:36.539Z</time></trkpt><trkpt lat="43.0980462" lon="12.1997243"><ele>278.5</ele><time>2026-04-01T08:29:37.539Z</time></trkpt><trkpt lat="43.0978884" lon="12.1997483"><ele>277.0</ele><time>2026-04-01T08:29:38.538Z</time></trkpt><trkpt lat="43.0977235" lon="12.1998253"><ele>279.0</ele><time>2026-04-01T08:29:39.539Z</time></trkpt><trkpt lat="43.0975585" lon="12.199967"><ele>281.0</ele><time>2026-04-01T08:29:40.539Z</time></trkpt><trkpt lat="43.0973846" lon="12.2001211"><ele>283.0</ele><time>2026-04-01T08:29:41.54Z</time></trkpt><trkpt lat="43.0972204" lon="12.2002699"><ele>283.0</ele><time>2026-04-01T08:29:42.539Z</time></trkpt><trkpt lat="43.097058" lon="12.2003944"><ele>283.0</ele><time>2026-04-01T08:29:43.54Z</time></trkpt><trkpt lat="43.0969036" lon="12.2004993"><ele>283.0</ele><time>2026-04-01T08:29:44.539Z</time></trkpt><trkpt lat="43.0967443" lon="12.2005595"><ele>283.0</ele><time>2026-04-01T08:29:45.538Z</time></trkpt><trkpt lat="43.0965919" lon="12.2005417"><ele>283.0</ele><time>2026-04-01T08:29:46.54Z</time></trkpt><trkpt lat="43.0964414" lon="12.2004644"><ele>283.0</ele><time>2026-04-01T08:29:47.54Z</time></trkpt><trkpt lat="43.0962891" lon="12.2003664"><ele>284.3333333333333</ele><time>2026-04-01T08:29:48.538Z</time></trkpt><trkpt lat="43.0961373" lon="12.2002636"><ele>285.6666666666667</ele><time>2026-04-01T08:29:49.54Z</time></trkpt><trkpt lat="43.0959657" lon="12.2001488"><ele>287.0</ele><time>2026-04-01T08:29:50.539Z</time></trkpt><trkpt lat="43.0957828" lon="12.2000162"><ele>288.33333333333337</ele><time>2026-04-01T08:29:51.539Z</time></trkpt><trkpt lat="43.0956052" lon="12.1998793"><ele>289.6666666666667</ele><time>2026-04-01T08:29:52.538Z</time></trkpt><trkpt lat="43.0954001" lon="12.1997634"><ele>291.0</ele><time>2026-04-01T08:29:53.539Z</time></trkpt><trkpt lat="43.0951943" lon="12.199681"><ele>291.0</ele><time>2026-04-01T08:29:54.54Z</time></trkpt><trkpt lat="43.094999" lon="12.1996166"><ele>291.0</ele><time>2026-04-01T08:29:55.539Z</time></trkpt><trkpt lat="43.0948064" lon="12.1995702"><ele>291.0</ele><time>2026-04-01T08:29:56.539Z</time></trkpt><trkpt lat="43.0945994" lon="12.1995139"><ele>290.6666666666667</ele><time>2026-04-01T08:29:57.54Z</time></trkpt><trkpt lat="43.0943951" lon="12.19943"><ele>290.33333333333337</ele><time>2026-04-01T08:29:58.539Z</time></trkpt><trkpt lat="43.0941768" lon="12.1993172"><ele>290.0</ele><time>2026-04-01T08:29:59.54Z</time></trkpt><trkpt lat="43.0939332" lon="12.1991374"><ele>287.5</ele><time>2026-04-01T08:30:00.539Z</time></trkpt><trkpt lat="43.0937058" lon="12.1989635"><ele>285.0</ele><time>2026-04-01T08:30:01.54Z</time></trkpt><trkpt lat="43.0934839" lon="12.198802"><ele>285.0</ele><time>2026-04-01T08:30:02.539Z</time></trkpt><trkpt lat="43.0932877" lon="12.1986832"><ele>285.0</ele><time>2026-04-01T08:30:03.539Z</time></trkpt><trkpt lat="43.0930647" lon="12.1985935"><ele>285.0</ele><time>2026-04-01T08:30:04.54Z</time></trkpt><trkpt lat="43.0928268" lon="12.1985566"><ele>284.6666666666667</ele><time>2026-04-01T08:30:05.539Z</time></trkpt><trkpt lat="43.0925863" lon="12.1985271"><ele>284.33333333333337</ele><time>2026-04-01T08:30:06.539Z</time></trkpt><trkpt lat="43.0923864" lon="12.1984489"><ele>284.0</ele><time>2026-04-01T08:30:07.538Z</time></trkpt><trkpt lat="43.0922128" lon="12.1983013"><ele>284.33333333333337</ele><time>2026-04-01T08:30:08.539Z</time></trkpt><trkpt lat="43.0920885" lon="12.1981051"><ele>284.6666666666667</ele><time>2026-04-01T08:30:09.54Z</time></trkpt><trkpt lat="43.0919824" lon="12.1978935"><ele>285.0</ele><time>2026-04-01T08:30:10.54Z</time></trkpt><trkpt lat="43.0918839" lon="12.1976876"><ele>285.0</ele><time>2026-04-01T08:30:11.54Z</time></trkpt><trkpt lat="43.091775" lon="12.1975222"><ele>285.0</ele><time>2026-04-01T08:30:12.538Z</time></trkpt><trkpt lat="43.0916444" lon="12.1973948"><ele>285.0</ele><time>2026-04-01T08:30:13.539Z</time></trkpt><trkpt lat="43.0914908" lon="12.1973065"><ele>285.6666666666667</ele><time>2026-04-01T08:30:14.54Z</time></trkpt><trkpt lat="43.0913057" lon="12.1972993"><ele>286.33333333333337</ele><time>2026-04-01T08:30:15.539Z</time></trkpt><trkpt lat="43.0911017" lon="12.1973435"><ele>287.0</ele><time>2026-04-01T08:30:16.54Z</time></trkpt><trkpt lat="43.090869" lon="12.1973958"><ele>287.5</ele><time>2026-04-01T08:30:17.54Z</time></trkpt><trkpt lat="43.0906328" lon="12.1974338"><ele>288.0</ele><time>2026-04-01T08:30:18.539Z</time></trkpt><trkpt lat="43.0904178" lon="12.197487"><ele>288.0</ele><time>2026-04-01T08:30:19.539Z</time></trkpt><trkpt lat="43.0902264" lon="12.1975582"><ele>288.0</ele><time>2026-04-01T08:30:20.54Z</time></trkpt><trkpt lat="43.090046" lon="12.197572"><ele>288.0</ele><time>2026-04-01T08:30:21.538Z</time></trkpt><trkpt lat="43.089875" lon="12.1975081"><ele>290.6666666666667</ele><time>2026-04-01T08:30:22.539Z</time></trkpt><trkpt lat="43.0897243" lon="12.1973825"><ele>293.33333333333337</ele><time>2026-04-01T08:30:23.54Z</time></trkpt><trkpt lat="43.089613" lon="12.197176"><ele>296.0</ele><time>2026-04-01T08:30:24.539Z</time></trkpt><trkpt lat="43.0895166" lon="12.1969485"><ele>296.0</ele><time>2026-04-01T08:30:25.539Z</time></trkpt><trkpt lat="43.0894222" lon="12.1967283"><ele>296.0</ele><time>2026-04-01T08:30:26.54Z</time></trkpt><trkpt lat="43.0893022" lon="12.1965318"><ele>296.0</ele><time>2026-04-01T08:30:27.539Z</time></trkpt><trkpt lat="43.0891637" lon="12.1963505"><ele>294.6666666666667</ele><time>2026-04-01T08:30:28.539Z</time></trkpt><trkpt lat="43.0889886" lon="12.1962535"><ele>293.3333333333333</ele><time>2026-04-01T08:30:29.539Z</time></trkpt><trkpt lat="43.0888023" lon="12.1961223"><ele>292.0</ele><time>2026-04-01T08:30:30.539Z</time></trkpt><trkpt lat="43.0886071" lon="12.1959977"><ele>292.0</ele><time>2026-04-01T08:30:31.541Z</time></trkpt><trkpt lat="43.0884278" lon="12.1958892"><ele>292.0</ele><time>2026-04-01T08:30:32.54Z</time></trkpt><trkpt lat="43.0882522" lon="12.1957793"><ele>292.0</ele><time>2026-04-01T08:30:33.54Z</time></trkpt><trkpt lat="43.0880909" lon="12.1956922"><ele>290.66666666666663</ele><time>2026-04-01T08:30:34.54Z</time></trkpt><trkpt lat="43.0879188" lon="12.1955976"><ele>289.3333333333333</ele><time>2026-04-01T08:30:35.539Z</time></trkpt><trkpt lat="43.0877777" lon="12.195484"><ele>288.0</ele><time>2026-04-01T08:30:36.54Z</time></trkpt><trkpt lat="43.0876629" lon="12.1953275"><ele>288.0</ele><time>2026-04-01T08:30:37.539Z</time></trkpt><trkpt lat="43.0875741" lon="12.1951294"><ele>288.0</ele><time>2026-04-01T08:30:38.541Z</time></trkpt><trkpt lat="43.087537" lon="12.1949151"><ele>288.0</ele><time>2026-04-01T08:30:39.54Z</time></trkpt><trkpt lat="43.0875228" lon="12.1946627"><ele>287.0</ele><time>2026-04-01T08:30:40.539Z</time></trkpt><trkpt lat="43.0875416" lon="12.1943852"><ele>286.0</ele><time>2026-04-01T08:30:41.539Z</time></trkpt><trkpt lat="43.0875739" lon="12.194105"><ele>285.0</ele><time>2026-04-01T08:30:42.539Z</time></trkpt><trkpt lat="43.0875936" lon="12.1937938"><ele>284.5</ele><time>2026-04-01T08:30:43.539Z</time></trkpt><trkpt lat="43.0876157" lon="12.1934807"><ele>284.0</ele><time>2026-04-01T08:30:44.539Z</time></trkpt><trkpt lat="43.0876408" lon="12.1931596"><ele>283.33333333333337</ele><time>2026-04-01T08:30:45.54Z</time></trkpt><trkpt lat="43.0876724" lon="12.1928564"><ele>282.6666666666667</ele><time>2026-04-01T08:30:46.54Z</time></trkpt><trkpt lat="43.0876988" lon="12.192571"><ele>282.0</ele><time>2026-04-01T08:30:47.539Z</time></trkpt><trkpt lat="43.0877028" lon="12.1922799"><ele>282.0</ele><time>2026-04-01T08:30:48.539Z</time></trkpt><trkpt lat="43.0876648" lon="12.1919992"><ele>282.0</ele><time>2026-04-01T08:30:49.539Z</time></trkpt><trkpt lat="43.0875688" lon="12.1917179"><ele>282.0</ele><time>2026-04-01T08:30:50.538Z</time></trkpt><trkpt lat="43.0874552" lon="12.191462"><ele>285.0</ele><time>2026-04-01T08:30:51.539Z</time></trkpt><trkpt lat="43.0873399" lon="12.1912031"><ele>288.0</ele><time>2026-04-01T08:30:52.539Z</time></trkpt><trkpt lat="43.0872337" lon="12.1909774"><ele>291.0</ele><time>2026-04-01T08:30:53.538Z</time></trkpt><trkpt lat="43.0871299" lon="12.1907403"><ele>290.6666666666667</ele><time>2026-04-01T08:30:54.539Z</time></trkpt><trkpt lat="43.0870879" lon="12.1904713"><ele>290.33333333333337</ele><time>2026-04-01T08:30:55.541Z</time></trkpt><trkpt lat="43.087095" lon="12.1901852"><ele>290.0</ele><time>2026-04-01T08:30:56.539Z</time></trkpt><trkpt lat="43.0871398" lon="12.1898557"><ele>293.0</ele><time>2026-04-01T08:30:57.54Z</time></trkpt><trkpt lat="43.087214" lon="12.1895072"><ele>296.0</ele><time>2026-04-01T08:30:58.539Z</time></trkpt><trkpt lat="43.0873059" lon="12.1891609"><ele>295.5</ele><time>2026-04-01T08:30:59.539Z</time></trkpt><trkpt lat="43.0873943" lon="12.1888337"><ele>295.0</ele><time>2026-04-01T08:31:00.54Z</time></trkpt><trkpt lat="43.0874717" lon="12.1885329"><ele>288.66666666666663</ele><time>2026-04-01T08:31:01.538Z</time></trkpt><trkpt lat="43.0875418" lon="12.1882363"><ele>282.3333333333333</ele><time>2026-04-01T08:31:02.539Z</time></trkpt><trkpt lat="43.087603" lon="12.1879564"><ele>276.0</ele><time>2026-04-01T08:31:03.539Z</time></trkpt><trkpt lat="43.0876375" lon="12.1876598"><ele>275.5</ele><time>2026-04-01T08:31:04.539Z</time></trkpt><trkpt lat="43.0876351" lon="12.187345"><ele>275.0</ele><time>2026-04-01T08:31:05.539Z</time></trkpt><trkpt lat="43.0875859" lon="12.1870274"><ele>272.5</ele><time>2026-04-01T08:31:06.538Z</time></trkpt><trkpt lat="43.087523" lon="12.1867093"><ele>270.0</ele><time>2026-04-01T08:31:07.539Z</time></trkpt><trkpt lat="43.0874528" lon="12.1864016"><ele>271.0</ele><time>2026-04-01T08:31:08.54Z</time></trkpt><trkpt lat="43.0873829" lon="12.1861183"><ele>272.0</ele><time>2026-04-01T08:31:09.539Z</time></trkpt><trkpt lat="43.0873091" lon="12.1858622"><ele>273.0</ele><time>2026-04-01T08:31:10.541Z</time></trkpt><trkpt lat="43.0872657" lon="12.1855927"><ele>271.3333333333333</ele><time>2026-04-01T08:31:11.539Z</time></trkpt><trkpt lat="43.0872554" lon="12.1852981"><ele>269.66666666666663</ele><time>2026-04-01T08:31:12.54Z</time></trkpt><trkpt lat="43.0872604" lon="12.184996"><ele>268.0</ele><time>2026-04-01T08:31:13.539Z</time></trkpt><trkpt lat="43.0872883" lon="12.1846896"><ele>268.0</ele><time>2026-04-01T08:31:14.539Z</time></trkpt><trkpt lat="43.0873217" lon="12.184364"><ele>268.0</ele><time>2026-04-01T08:31:15.54Z</time></trkpt><trkpt lat="43.0873522" lon="12.1840322"><ele>268.5</ele><time>2026-04-01T08:31:16.539Z</time></trkpt><trkpt lat="43.0873847" lon="12.1836818"><ele>269.0</ele><time>2026-04-01T08:31:17.54Z</time></trkpt><trkpt lat="43.0874151" lon="12.1833254"><ele>264.5</ele><time>2026-04-01T08:31:18.539Z</time></trkpt><trkpt lat="43.0874471" lon="12.1829724"><ele>260.0</ele><time>2026-04-01T08:31:19.54Z</time></trkpt><trkpt lat="43.0874769" lon="12.18261"><ele>260.0</ele><time>2026-04-01T08:31:20.54Z</time></trkpt><trkpt lat="43.0875093" lon="12.1822468"><ele>260.0</ele><time>2026-04-01T08:31:21.539Z</time></trkpt><trkpt lat="43.0875453" lon="12.1818844"><ele>260.0</ele><time>2026-04-01T08:31:22.54Z</time></trkpt><trkpt lat="43.0875795" lon="12.1815226"><ele>260.0</ele><time>2026-04-01T08:31:23.538Z</time></trkpt><trkpt lat="43.0876064" lon="12.1811517"><ele>262.0</ele><time>2026-04-01T08:31:24.54Z</time></trkpt><trkpt lat="43.0876415" lon="12.1807892"><ele>264.0</ele><time>2026-04-01T08:31:25.54Z</time></trkpt><trkpt lat="43.0876768" lon="12.1804252"><ele>264.0</ele><time>2026-04-01T08:31:26.541Z</time></trkpt><trkpt lat="43.0877109" lon="12.1800562"><ele>264.0</ele><time>2026-04-01T08:31:27.54Z</time></trkpt><trkpt lat="43.0877393" lon="12.1796967"><ele>266.0</ele><time>2026-04-01T08:31:28.541Z</time></trkpt><trkpt lat="43.0877686" lon="12.1793355"><ele>268.0</ele><time>2026-04-01T08:31:29.54Z</time></trkpt><trkpt lat="43.087798" lon="12.1789778"><ele>268.0</ele><time>2026-04-01T08:31:30.539Z</time></trkpt><trkpt lat="43.0878221" lon="12.1786277"><ele>268.0</ele><time>2026-04-01T08:31:31.539Z</time></trkpt><trkpt lat="43.0878522" lon="12.1782722"><ele>268.0</ele><time>2026-04-01T08:31:32.539Z</time></trkpt><trkpt lat="43.0878827" lon="12.1779145"><ele>268.0</ele><time>2026-04-01T08:31:33.539Z</time></trkpt><trkpt lat="43.0879101" lon="12.1775555"><ele>267.5</ele><time>2026-04-01T08:31:34.54Z</time></trkpt><trkpt lat="43.0879422" lon="12.1771928"><ele>267.0</ele><time>2026-04-01T08:31:35.54Z</time></trkpt><trkpt lat="43.087971" lon="12.1768304"><ele>267.5</ele><time>2026-04-01T08:31:36.54Z</time></trkpt><trkpt lat="43.0879982" lon="12.1764719"><ele>268.0</ele><time>2026-04-01T08:31:37.539Z</time></trkpt><trkpt lat="43.0880224" lon="12.1761155"><ele>268.0</ele><time>2026-04-01T08:31:38.538Z</time></trkpt><trkpt lat="43.0880524" lon="12.1757585"><ele>268.0</ele><time>2026-04-01T08:31:39.538Z</time></trkpt><trkpt lat="43.0880794" lon="12.1754041"><ele>267.5</ele><time>2026-04-01T08:31:40.54Z</time></trkpt><trkpt lat="43.0881101" lon="12.1750494"><ele>267.0</ele><time>2026-04-01T08:31:41.54Z</time></trkpt><trkpt lat="43.0881367" lon="12.174693"><ele>267.0</ele><time>2026-04-01T08:31:42.539Z</time></trkpt><trkpt lat="43.088168" lon="12.1743277"><ele>267.0</ele><time>2026-04-01T08:31:43.54Z</time></trkpt><trkpt lat="43.0881973" lon="12.1739723"><ele>268.0</ele><time>2026-04-01T08:31:44.539Z</time></trkpt><trkpt lat="43.0882197" lon="12.173631"><ele>269.0</ele><time>2026-04-01T08:31:45.539Z</time></trkpt><trkpt lat="43.0882422" lon="12.1733085"><ele>265.0</ele><time>2026-04-01T08:31:46.54Z</time></trkpt><trkpt lat="43.0882725" lon="12.172975"><ele>261.0</ele><time>2026-04-01T08:31:47.539Z</time></trkpt><trkpt lat="43.0883339" lon="12.1726484"><ele>266.0</ele><time>2026-04-01T08:31:48.54Z</time></trkpt><trkpt lat="43.0884304" lon="12.1723419"><ele>271.0</ele><time>2026-04-01T08:31:49.54Z</time></trkpt><trkpt lat="43.0885575" lon="12.1720524"><ele>271.0</ele><time>2026-04-01T08:31:50.54Z</time></trkpt><trkpt lat="43.0886992" lon="12.1717748"><ele>271.0</ele><time>2026-04-01T08:31:51.54Z</time></trkpt><trkpt lat="43.0888471" lon="12.1715034"><ele>265.5</ele><time>2026-04-01T08:31:52.54Z</time></trkpt><trkpt lat="43.088992" lon="12.1712379"><ele>260.0</ele><time>2026-04-01T08:31:53.539Z</time></trkpt><trkpt lat="43.0891342" lon="12.170975"><ele>260.0</ele><time>2026-04-01T08:31:54.54Z</time></trkpt><trkpt lat="43.0892739" lon="12.170707"><ele>260.0</ele><time>2026-04-01T08:31:55.539Z</time></trkpt><trkpt lat="43.0894031" lon="12.1704586"><ele>263.6666666666667</ele><time>2026-04-01T08:31:56.54Z</time></trkpt><trkpt lat="43.0895246" lon="12.1702269"><ele>267.3333333333333</ele><time>2026-04-01T08:31:57.539Z</time></trkpt><trkpt lat="43.0896082" lon="12.1700596"><ele>271.0</ele><time>2026-04-01T08:31:58.54Z</time></trkpt><trkpt lat="43.0896706" lon="12.1699537"><ele>270.5</ele><time>2026-04-01T08:31:59.54Z</time></trkpt><trkpt lat="43.0897221" lon="12.1698446"><ele>270.0</ele><time>2026-04-01T08:32:00.539Z</time></trkpt><trkpt lat="43.0897807" lon="12.1697224"><ele>269.5</ele><time>2026-04-01T08:32:01.54Z</time></trkpt><trkpt lat="43.0898558" lon="12.1695873"><ele>269.0</ele><time>2026-04-01T08:32:02.54Z</time></trkpt><trkpt lat="43.0899399" lon="12.1694339"><ele>269.0</ele><time>2026-04-01T08:32:03.54Z</time></trkpt><trkpt lat="43.0900328" lon="12.1692574"><ele>269.0</ele><time>2026-04-01T08:32:04.54Z</time></trkpt><trkpt lat="43.0901364" lon="12.1690568"><ele>269.0</ele><time>2026-04-01T08:32:05.538Z</time></trkpt><trkpt lat="43.0902438" lon="12.1688341"><ele>270.6666666666667</ele><time>2026-04-01T08:32:06.54Z</time></trkpt><trkpt lat="43.0903472" lon="12.1686115"><ele>272.3333333333333</ele><time>2026-04-01T08:32:07.539Z</time></trkpt><trkpt lat="43.0903939" lon="12.1683034"><ele>274.0</ele><time>2026-04-01T08:32:08.542Z</time></trkpt><trkpt lat="43.0904528" lon="12.1680219"><ele>274.0</ele><time>2026-04-01T08:32:09.54Z</time></trkpt><trkpt lat="43.0905034" lon="12.1677251"><ele>274.0</ele><time>2026-04-01T08:32:10.539Z</time></trkpt><trkpt lat="43.090547" lon="12.1674466"><ele>274.0</ele><time>2026-04-01T08:32:11.541Z</time></trkpt><trkpt lat="43.0905952" lon="12.167186"><ele>276.66666666666663</ele><time>2026-04-01T08:32:12.539Z</time></trkpt><trkpt lat="43.090645" lon="12.166942"><ele>279.3333333333333</ele><time>2026-04-01T08:32:13.54Z</time></trkpt><trkpt lat="43.0906885" lon="12.1667043"><ele>282.0</ele><time>2026-04-01T08:32:14.54Z</time></trkpt><trkpt lat="43.090728" lon="12.1664679"><ele>285.6666666666667</ele><time>2026-04-01T08:32:15.54Z</time></trkpt><trkpt lat="43.0907574" lon="12.1662365"><ele>289.33333333333337</ele><time>2026-04-01T08:32:16.54Z</time></trkpt><trkpt lat="43.0907712" lon="12.1660168"><ele>293.0</ele><time>2026-04-01T08:32:17.54Z</time></trkpt><trkpt lat="43.0907762" lon="12.165768"><ele>292.33333333333337</ele><time>2026-04-01T08:32:18.54Z</time></trkpt><trkpt lat="43.0907767" lon="12.1655173"><ele>291.6666666666667</ele><time>2026-04-01T08:32:19.539Z</time></trkpt><trkpt lat="43.0906851" lon="12.1652575"><ele>291.0</ele><time>2026-04-01T08:32:20.541Z</time></trkpt><trkpt lat="43.0906071" lon="12.1650194"><ele>288.6666666666667</ele><time>2026-04-01T08:32:21.54Z</time></trkpt><trkpt lat="43.0905329" lon="12.1647688"><ele>286.33333333333337</ele><time>2026-04-01T08:32:22.541Z</time></trkpt><trkpt lat="43.0904541" lon="12.1645222"><ele>284.0</ele><time>2026-04-01T08:32:23.539Z</time></trkpt><trkpt lat="43.0903732" lon="12.1642725"><ele>279.0</ele><time>2026-04-01T08:32:24.539Z</time></trkpt><trkpt lat="43.0902927" lon="12.1640226"><ele>274.0</ele><time>2026-04-01T08:32:25.541Z</time></trkpt><trkpt lat="43.0902161" lon="12.163789"><ele>269.0</ele><time>2026-04-01T08:32:26.54Z</time></trkpt><trkpt lat="43.0901148" lon="12.1635652"><ele>269.0</ele><time>2026-04-01T08:32:27.54Z</time></trkpt><trkpt lat="43.0899941" lon="12.1633435"><ele>269.0</ele><time>2026-04-01T08:32:28.54Z</time></trkpt><trkpt lat="43.0898047" lon="12.1631363"><ele>269.0</ele><time>2026-04-01T08:32:29.54Z</time></trkpt><trkpt lat="43.0896131" lon="12.1629394"><ele>268.5</ele><time>2026-04-01T08:32:30.54Z</time></trkpt><trkpt lat="43.0893877" lon="12.1627431"><ele>268.0</ele><time>2026-04-01T08:32:31.541Z</time></trkpt><trkpt lat="43.0891686" lon="12.1625397"><ele>269.5</ele><time>2026-04-01T08:32:32.54Z</time></trkpt><trkpt lat="43.0889391" lon="12.1623158"><ele>271.0</ele><time>2026-04-01T08:32:33.539Z</time></trkpt><trkpt lat="43.0887116" lon="12.1620929"><ele>271.0</ele><time>2026-04-01T08:32:34.54Z</time></trkpt><trkpt lat="43.0884861" lon="12.1618643"><ele>271.0</ele><time>2026-04-01T08:32:35.54Z</time></trkpt><trkpt lat="43.0882715" lon="12.1616668"><ele>269.0</ele><time>2026-04-01T08:32:36.54Z</time></trkpt><trkpt lat="43.0880594" lon="12.1614742"><ele>267.0</ele><time>2026-04-01T08:32:37.541Z</time></trkpt><trkpt lat="43.0878465" lon="12.1612775"><ele>267.0</ele><time>2026-04-01T08:32:38.539Z</time></trkpt><trkpt lat="43.0876375" lon="12.161078"><ele>267.0</ele><time>2026-04-01T08:32:39.54Z</time></trkpt><trkpt lat="43.0874372" lon="12.1608777"><ele>266.5</ele><time>2026-04-01T08:32:40.541Z</time></trkpt><trkpt lat="43.0872389" lon="12.1606737"><ele>266.0</ele><time>2026-04-01T08:32:41.54Z</time></trkpt><trkpt lat="43.0870353" lon="12.1604771"><ele>266.0</ele><time>2026-04-01T08:32:42.539Z</time></trkpt><trkpt lat="43.0869252" lon="12.1603653"><ele>266.0</ele><time>2026-04-01T08:32:43.541Z</time></trkpt><trkpt lat="43.0867669" lon="12.1602334"><ele>266.0</ele><time>2026-04-01T08:32:44.54Z</time></trkpt><trkpt lat="43.0866094" lon="12.1601533"><ele>266.6666666666667</ele><time>2026-04-01T08:32:45.539Z</time></trkpt><trkpt lat="43.0864131" lon="12.1601082"><ele>267.3333333333333</ele><time>2026-04-01T08:32:46.539Z</time></trkpt><trkpt lat="43.086222" lon="12.1601277"><ele>268.0</ele><time>2026-04-01T08:32:47.54Z</time></trkpt><trkpt lat="43.0860074" lon="12.1601771"><ele>268.0</ele><time>2026-04-01T08:32:48.54Z</time></trkpt><trkpt lat="43.0857979" lon="12.1602439"><ele>268.0</ele><time>2026-04-01T08:32:49.541Z</time></trkpt><trkpt lat="43.0855776" lon="12.1602996"><ele>268.0</ele><time>2026-04-01T08:32:50.54Z</time></trkpt><trkpt lat="43.0853711" lon="12.1603402"><ele>268.3333333333333</ele><time>2026-04-01T08:32:51.54Z</time></trkpt><trkpt lat="43.085179" lon="12.1603729"><ele>268.6666666666667</ele><time>2026-04-01T08:32:52.539Z</time></trkpt><trkpt lat="43.0850015" lon="12.1603523"><ele>269.0</ele><time>2026-04-01T08:32:53.541Z</time></trkpt><trkpt lat="43.084859" lon="12.1602646"><ele>270.6666666666667</ele><time>2026-04-01T08:32:54.54Z</time></trkpt><trkpt lat="43.0847112" lon="12.1601479"><ele>272.3333333333333</ele><time>2026-04-01T08:32:55.54Z</time></trkpt><trkpt lat="43.0845806" lon="12.1600202"><ele>274.0</ele><time>2026-04-01T08:32:56.539Z</time></trkpt><trkpt lat="43.0844658" lon="12.1599013"><ele>273.75</ele><time>2026-04-01T08:32:57.539Z</time></trkpt><trkpt lat="43.0843507" lon="12.1597697"><ele>273.5</ele><time>2026-04-01T08:32:58.54Z</time></trkpt><trkpt lat="43.0842479" lon="12.1596262"><ele>273.25</ele><time>2026-04-01T08:32:59.539Z</time></trkpt><trkpt lat="43.0841476" lon="12.1594869"><ele>273.0</ele><time>2026-04-01T08:33:00.539Z</time></trkpt><trkpt lat="43.0840271" lon="12.1593397"><ele>273.0</ele><time>2026-04-01T08:33:01.54Z</time></trkpt><trkpt lat="43.0839122" lon="12.1592037"><ele>273.0</ele><time>2026-04-01T08:33:02.54Z</time></trkpt><trkpt lat="43.0837913" lon="12.159058"><ele>273.0</ele><time>2026-04-01T08:33:03.541Z</time></trkpt><trkpt lat="43.0836737" lon="12.1589183"><ele>272.3333333333333</ele><time>2026-04-01T08:33:04.54Z</time></trkpt><trkpt lat="43.0835598" lon="12.1587467"><ele>271.66666666666663</ele><time>2026-04-01T08:33:05.538Z</time></trkpt><trkpt lat="43.0834592" lon="12.1585801"><ele>271.0</ele><time>2026-04-01T08:33:06.54Z</time></trkpt><trkpt lat="43.0833484" lon="12.1583843"><ele>271.3333333333333</ele><time>2026-04-01T08:33:07.54Z</time></trkpt><trkpt lat="43.0832647" lon="12.1581767"><ele>271.6666666666667</ele><time>2026-04-01T08:33:08.539Z</time></trkpt><trkpt lat="43.0831935" lon="12.1579517"><ele>272.0</ele><time>2026-04-01T08:33:09.539Z</time></trkpt><trkpt lat="43.083136" lon="12.1577358"><ele>272.0</ele><time>2026-04-01T08:33:10.539Z</time></trkpt><trkpt lat="43.0830744" lon="12.1575316"><ele>272.0</ele><time>2026-04-01T08:33:11.54Z</time></trkpt><trkpt lat="43.0830081" lon="12.1573383"><ele>272.0</ele><time>2026-04-01T08:33:12.54Z</time></trkpt><trkpt lat="43.0829543" lon="12.1571582"><ele>271.25</ele><time>2026-04-01T08:33:13.54Z</time></trkpt><trkpt lat="43.0829038" lon="12.1569766"><ele>270.5</ele><time>2026-04-01T08:33:14.538Z</time></trkpt><trkpt lat="43.0828493" lon="12.1567867"><ele>269.75</ele><time>2026-04-01T08:33:15.541Z</time></trkpt><trkpt lat="43.0827929" lon="12.1566145"><ele>269.0</ele><time>2026-04-01T08:33:16.54Z</time></trkpt><trkpt lat="43.0827426" lon="12.1564392"><ele>268.75</ele><time>2026-04-01T08:33:17.539Z</time></trkpt><trkpt lat="43.0826731" lon="12.1562603"><ele>268.5</ele><time>2026-04-01T08:33:18.542Z</time></trkpt><trkpt lat="43.0826149" lon="12.1560772"><ele>268.25</ele><time>2026-04-01T08:33:19.54Z</time></trkpt><trkpt lat="43.0825611" lon="12.1559053"><ele>268.0</ele><time>2026-04-01T08:33:20.54Z</time></trkpt><trkpt lat="43.0825062" lon="12.1557448"><ele>267.6</ele><time>2026-04-01T08:33:21.54Z</time></trkpt><trkpt lat="43.0824708" lon="12.1555948"><ele>267.20000000000005</ele><time>2026-04-01T08:33:22.54Z</time></trkpt><trkpt lat="43.0824446" lon="12.1554764"><ele>266.8</ele><time>2026-04-01T08:33:23.539Z</time></trkpt><trkpt lat="43.0824164" lon="12.155381"><ele>266.40000000000003</ele><time>2026-04-01T08:33:24.54Z</time></trkpt><trkpt lat="43.0823808" lon="12.155277"><ele>266.0</ele><time>2026-04-01T08:33:25.539Z</time></trkpt><trkpt lat="43.0823257" lon="12.1551395"><ele>267.0</ele><time>2026-04-01T08:33:26.54Z</time></trkpt><trkpt lat="43.0822764" lon="12.1549731"><ele>268.0</ele><time>2026-04-01T08:33:27.539Z</time></trkpt><trkpt lat="43.0822224" lon="12.1547818"><ele>269.0</ele><time>2026-04-01T08:33:28.538Z</time></trkpt><trkpt lat="43.0821692" lon="12.1545954"><ele>270.0</ele><time>2026-04-01T08:33:29.54Z</time></trkpt><trkpt lat="43.0821134" lon="12.1544112"><ele>270.0</ele><time>2026-04-01T08:33:30.54Z</time></trkpt><trkpt lat="43.0820433" lon="12.1542152"><ele>270.0</ele><time>2026-04-01T08:33:31.539Z</time></trkpt><trkpt lat="43.081997" lon="12.1539985"><ele>270.0</ele><time>2026-04-01T08:33:32.541Z</time></trkpt><trkpt lat="43.0819546" lon="12.1537964"><ele>269.5</ele><time>2026-04-01T08:33:33.541Z</time></trkpt><trkpt lat="43.0819061" lon="12.1536059"><ele>269.0</ele><time>2026-04-01T08:33:34.539Z</time></trkpt><trkpt lat="43.0818627" lon="12.1534301"><ele>268.5</ele><time>2026-04-01T08:33:35.539Z</time></trkpt><trkpt lat="43.0818188" lon="12.1532403"><ele>268.0</ele><time>2026-04-01T08:33:36.54Z</time></trkpt><trkpt lat="43.0817802" lon="12.1530575"><ele>267.75</ele><time>2026-04-01T08:33:37.54Z</time></trkpt><trkpt lat="43.0817534" lon="12.1528796"><ele>267.5</ele><time>2026-04-01T08:33:38.541Z</time></trkpt><trkpt lat="43.0817409" lon="12.1527104"><ele>267.25</ele><time>2026-04-01T08:33:39.541Z</time></trkpt><trkpt lat="43.0817366" lon="12.1525516"><ele>267.0</ele><time>2026-04-01T08:33:40.54Z</time></trkpt><trkpt lat="43.0817385" lon="12.1523838"><ele>266.5</ele><time>2026-04-01T08:33:41.54Z</time></trkpt><trkpt lat="43.0817538" lon="12.1522012"><ele>266.0</ele><time>2026-04-01T08:33:42.54Z</time></trkpt><trkpt lat="43.08178" lon="12.152021"><ele>265.5</ele><time>2026-04-01T08:33:43.54Z</time></trkpt><trkpt lat="43.0817942" lon="12.1518483"><ele>265.0</ele><time>2026-04-01T08:33:44.539Z</time></trkpt><trkpt lat="43.0818112" lon="12.1516856"><ele>265.2</ele><time>2026-04-01T08:33:45.54Z</time></trkpt><trkpt lat="43.0818142" lon="12.1515244"><ele>265.4</ele><time>2026-04-01T08:33:46.54Z</time></trkpt><trkpt lat="43.0818225" lon="12.1513645"><ele>265.6</ele><time>2026-04-01T08:33:47.541Z</time></trkpt><trkpt lat="43.0818317" lon="12.1512158"><ele>265.8</ele><time>2026-04-01T08:33:48.541Z</time></trkpt><trkpt lat="43.0818398" lon="12.1510741"><ele>266.0</ele><time>2026-04-01T08:33:49.539Z</time></trkpt><trkpt lat="43.0818546" lon="12.1509492"><ele>266.0</ele><time>2026-04-01T08:33:50.54Z</time></trkpt><trkpt lat="43.0818671" lon="12.1508135"><ele>266.0</ele><time>2026-04-01T08:33:51.54Z</time></trkpt><trkpt lat="43.0818715" lon="12.150681"><ele>266.0</ele><time>2026-04-01T08:33:52.541Z</time></trkpt><trkpt lat="43.0818849" lon="12.1505407"><ele>266.0</ele><time>2026-04-01T08:33:53.541Z</time></trkpt><trkpt lat="43.0818875" lon="12.1503911"><ele>266.0</ele><time>2026-04-01T08:33:54.541Z</time></trkpt><trkpt lat="43.0818983" lon="12.150254"><ele>265.8</ele><time>2026-04-01T08:33:55.54Z</time></trkpt><trkpt lat="43.0819084" lon="12.1501202"><ele>265.6</ele><time>2026-04-01T08:33:56.539Z</time></trkpt><trkpt lat="43.0819117" lon="12.1499971"><ele>265.4</ele><time>2026-04-01T08:33:57.539Z</time></trkpt><trkpt lat="43.0819181" lon="12.1498579"><ele>265.2</ele><time>2026-04-01T08:33:58.539Z</time></trkpt><trkpt lat="43.0819301" lon="12.1497121"><ele>265.0</ele><time>2026-04-01T08:33:59.54Z</time></trkpt><trkpt lat="43.081941" lon="12.1495705"><ele>265.0</ele><time>2026-04-01T08:34:00.539Z</time></trkpt><trkpt lat="43.0819503" lon="12.1494307"><ele>265.0</ele><time>2026-04-01T08:34:01.54Z</time></trkpt><trkpt lat="43.0819591" lon="12.1493068"><ele>265.0</ele><time>2026-04-01T08:34:02.54Z</time></trkpt><trkpt lat="43.081967" lon="12.1491892"><ele>265.0</ele><time>2026-04-01T08:34:03.539Z</time></trkpt><trkpt lat="43.0819698" lon="12.1490825"><ele>265.0</ele><time>2026-04-01T08:34:04.54Z</time></trkpt><trkpt lat="43.0819671" lon="12.1489897"><ele>265.0</ele><time>2026-04-01T08:34:05.54Z</time></trkpt><trkpt lat="43.0819412" lon="12.1488496"><ele>265.0</ele><time>2026-04-01T08:34:07.54Z</time></trkpt><trkpt lat="43.0818628" lon="12.1488423"><ele>265.0</ele><time>2026-04-01T08:34:09.54Z</time></trkpt><trkpt lat="43.0817347" lon="12.148925"><ele>265.0</ele><time>2026-04-01T08:34:11.541Z</time></trkpt><trkpt lat="43.0816449" lon="12.1489785"><ele>265.0</ele><time>2026-04-01T08:34:12.539Z</time></trkpt><trkpt lat="43.0815449" lon="12.1490277"><ele>265.0</ele><time>2026-04-01T08:34:13.54Z</time></trkpt><trkpt lat="43.0814501" lon="12.1490499"><ele>265.2</ele><time>2026-04-01T08:34:14.541Z</time></trkpt><trkpt lat="43.081344" lon="12.1490592"><ele>265.4</ele><time>2026-04-01T08:34:15.54Z</time></trkpt><trkpt lat="43.0812375" lon="12.1490491"><ele>265.6</ele><time>2026-04-01T08:34:16.539Z</time></trkpt><trkpt lat="43.0811373" lon="12.149015"><ele>265.8</ele><time>2026-04-01T08:34:17.54Z</time></trkpt><trkpt lat="43.0810301" lon="12.1489747"><ele>266.0</ele><time>2026-04-01T08:34:18.541Z</time></trkpt><trkpt lat="43.080891" lon="12.1489374"><ele>266.2</ele><time>2026-04-01T08:34:19.542Z</time></trkpt><trkpt lat="43.0807947" lon="12.1488299"><ele>266.40000000000003</ele><time>2026-04-01T08:34:20.54Z</time></trkpt><trkpt lat="43.0807199" lon="12.1487291"><ele>266.6</ele><time>2026-04-01T08:34:21.54Z</time></trkpt><trkpt lat="43.0806451" lon="12.1486579"><ele>266.8</ele><time>2026-04-01T08:34:22.54Z</time></trkpt><trkpt lat="43.0805831" lon="12.1486304"><ele>267.0</ele><time>2026-04-01T08:34:23.54Z</time></trkpt><trkpt lat="43.0804822" lon="12.1486277"><ele>267.8</ele><time>2026-04-01T08:34:25.54Z</time></trkpt><trkpt lat="43.08037" lon="12.1486223"><ele>268.6</ele><time>2026-04-01T08:34:27.542Z</time></trkpt><trkpt lat="43.0803015" lon="12.1486055"><ele>269.40000000000003</ele><time>2026-04-01T08:34:28.727Z</time></trkpt><trkpt lat="43.0802169" lon="12.1485561"><ele>270.2</ele><time>2026-04-01T08:34:32.725Z</time></trkpt><trkpt lat="43.0802277" lon="12.1487495"><ele>271.0</ele><time>2026-04-01T08:34:34.726Z</time></trkpt><trkpt lat="43.0799961" lon="12.1485628"><ele>271.0</ele><time>2026-04-01T08:34:35.726Z</time></trkpt><trkpt lat="43.0800441" lon="12.1487028"><ele>271.0</ele><time>2026-04-01T08:34:39.539Z</time></trkpt><trkpt lat="43.0800903" lon="12.1487673"><ele>271.0</ele><time>2026-04-01T08:34:52.54Z</time></trkpt><trkpt lat="43.0803106" lon="12.1483508"><ele>273.0</ele><time>2026-04-01T08:35:04.052Z</time></trkpt><trkpt lat="43.0795343" lon="12.1484505"><ele>273.0</ele><time>2026-04-01T08:35:19.54Z</time></trkpt><trkpt lat="43.07947" lon="12.1484944"><ele>273.0</ele><time>2026-04-01T08:35:20.541Z</time></trkpt><trkpt lat="43.0793996" lon="12.1485148"><ele>273.0</ele><time>2026-04-01T08:35:21.54Z</time></trkpt><trkpt lat="43.079316" lon="12.1485054"><ele>273.0</ele><time>2026-04-01T08:35:22.54Z</time></trkpt><trkpt lat="43.0792302" lon="12.1485401"><ele>273.0</ele><time>2026-04-01T08:35:23.54Z</time></trkpt><trkpt lat="43.0791217" lon="12.1485795"><ele>273.0</ele><time>2026-04-01T08:35:24.54Z</time></trkpt><trkpt lat="43.0790064" lon="12.1485977"><ele>273.5</ele><time>2026-04-01T08:35:25.539Z</time></trkpt><trkpt lat="43.0788763" lon="12.1486146"><ele>274.0</ele><time>2026-04-01T08:35:26.539Z</time></trkpt><trkpt lat="43.0787394" lon="12.1486423"><ele>274.5</ele><time>2026-04-01T08:35:27.54Z</time></trkpt><trkpt lat="43.078573" lon="12.1486896"><ele>275.0</ele><time>2026-04-01T08:35:28.54Z</time></trkpt><trkpt lat="43.0784151" lon="12.1487371"><ele>276.0</ele><time>2026-04-01T08:35:29.54Z</time></trkpt><trkpt lat="43.0782599" lon="12.1487992"><ele>277.0</ele><time>2026-04-01T08:35:30.541Z</time></trkpt><trkpt lat="43.0780961" lon="12.1488646"><ele>278.0</ele><time>2026-04-01T08:35:31.541Z</time></trkpt><trkpt lat="43.0779389" lon="12.1489347"><ele>278.0</ele><time>2026-04-01T08:35:32.542Z</time></trkpt><trkpt lat="43.0777856" lon="12.1489712"><ele>278.0</ele><time>2026-04-01T08:35:33.541Z</time></trkpt><trkpt lat="43.0776197" lon="12.1490072"><ele>278.0</ele><time>2026-04-01T08:35:34.542Z</time></trkpt><trkpt lat="43.0774558" lon="12.1490454"><ele>277.75</ele><time>2026-04-01T08:35:35.541Z</time></trkpt><trkpt lat="43.0773075" lon="12.1490948"><ele>277.5</ele><time>2026-04-01T08:35:36.54Z</time></trkpt><trkpt lat="43.0771648" lon="12.1491072"><ele>277.25</ele><time>2026-04-01T08:35:37.541Z</time></trkpt><trkpt lat="43.0770492" lon="12.1491175"><ele>277.0</ele><time>2026-04-01T08:35:38.541Z</time></trkpt><trkpt lat="43.0769332" lon="12.1491462"><ele>277.0</ele><time>2026-04-01T08:35:39.541Z</time></trkpt><trkpt lat="43.0768305" lon="12.1491712"><ele>277.0</ele><time>2026-04-01T08:35:40.54Z</time></trkpt><trkpt lat="43.0767317" lon="12.1491965"><ele>277.0</ele><time>2026-04-01T08:35:41.541Z</time></trkpt><trkpt lat="43.0766309" lon="12.1492411"><ele>277.0</ele><time>2026-04-01T08:35:42.541Z</time></trkpt><trkpt lat="43.0765182" lon="12.1492906"><ele>277.0</ele><time>2026-04-01T08:35:43.542Z</time></trkpt><trkpt lat="43.0763726" lon="12.1493496"><ele>277.66666666666663</ele><time>2026-04-01T08:35:44.541Z</time></trkpt><trkpt lat="43.0761779" lon="12.1494214"><ele>278.3333333333333</ele><time>2026-04-01T08:35:45.541Z</time></trkpt><trkpt lat="43.0759473" lon="12.1495226"><ele>279.0</ele><time>2026-04-01T08:35:46.542Z</time></trkpt><trkpt lat="43.0757382" lon="12.1496395"><ele>279.3333333333333</ele><time>2026-04-01T08:35:47.54Z</time></trkpt><trkpt lat="43.0755379" lon="12.1497377"><ele>279.66666666666663</ele><time>2026-04-01T08:35:48.54Z</time></trkpt><trkpt lat="43.075361" lon="12.1498281"><ele>280.0</ele><time>2026-04-01T08:35:49.542Z</time></trkpt><trkpt lat="43.075188" lon="12.1499088"><ele>280.0</ele><time>2026-04-01T08:35:50.541Z</time></trkpt><trkpt lat="43.0750339" lon="12.1499775"><ele>280.0</ele><time>2026-04-01T08:35:51.539Z</time></trkpt><trkpt lat="43.0748885" lon="12.1500467"><ele>280.0</ele><time>2026-04-01T08:35:52.54Z</time></trkpt><trkpt lat="43.0747455" lon="12.1501322"><ele>284.0</ele><time>2026-04-01T08:35:53.541Z</time></trkpt><trkpt lat="43.074605" lon="12.1502364"><ele>288.0</ele><time>2026-04-01T08:35:54.541Z</time></trkpt><trkpt lat="43.074461" lon="12.1503645"><ele>292.0</ele><time>2026-04-01T08:35:55.54Z</time></trkpt><trkpt lat="43.07432" lon="12.1505009"><ele>292.0</ele><time>2026-04-01T08:35:56.539Z</time></trkpt><trkpt lat="43.0741874" lon="12.1506347"><ele>292.0</ele><time>2026-04-01T08:35:57.541Z</time></trkpt><trkpt lat="43.0740689" lon="12.1507218"><ele>292.0</ele><time>2026-04-01T08:35:58.541Z</time></trkpt><trkpt lat="43.0739319" lon="12.1508075"><ele>292.75</ele><time>2026-04-01T08:35:59.54Z</time></trkpt><trkpt lat="43.0737904" lon="12.1508884"><ele>293.5</ele><time>2026-04-01T08:36:00.54Z</time></trkpt><trkpt lat="43.0736604" lon="12.1509264"><ele>294.25</ele><time>2026-04-01T08:36:01.543Z</time></trkpt><trkpt lat="43.0735223" lon="12.1510111"><ele>295.0</ele><time>2026-04-01T08:36:02.54Z</time></trkpt><trkpt lat="43.0734479" lon="12.1511011"><ele>295.0</ele><time>2026-04-01T08:36:03.542Z</time></trkpt><trkpt lat="43.0733818" lon="12.151176"><ele>295.0</ele><time>2026-04-01T08:36:04.54Z</time></trkpt><trkpt lat="43.0733201" lon="12.1512871"><ele>295.0</ele><time>2026-04-01T08:36:05.54Z</time></trkpt><trkpt lat="43.0732755" lon="12.1514137"><ele>295.0</ele><time>2026-04-01T08:36:06.539Z</time></trkpt><trkpt lat="43.0732181" lon="12.1515678"><ele>295.0</ele><time>2026-04-01T08:36:07.539Z</time></trkpt><trkpt lat="43.0731514" lon="12.1516894"><ele>296.4</ele><time>2026-04-01T08:36:08.54Z</time></trkpt><trkpt lat="43.0730677" lon="12.1517889"><ele>297.8</ele><time>2026-04-01T08:36:09.54Z</time></trkpt><trkpt lat="43.0729854" lon="12.1518446"><ele>299.2</ele><time>2026-04-01T08:36:10.541Z</time></trkpt><trkpt lat="43.0729061" lon="12.1518722"><ele>300.6</ele><time>2026-04-01T08:36:11.542Z</time></trkpt><trkpt lat="43.0728324" lon="12.1518528"><ele>302.0</ele><time>2026-04-01T08:36:12.541Z</time></trkpt><trkpt lat="43.0727483" lon="12.1517518"><ele>302.0</ele><time>2026-04-01T08:36:14.542Z</time></trkpt><trkpt lat="43.0727162" lon="12.1516659"><ele>302.0</ele><time>2026-04-01T08:36:15.541Z</time></trkpt><trkpt lat="43.072701" lon="12.1515253"><ele>302.0</ele><time>2026-04-01T08:36:16.541Z</time></trkpt><trkpt lat="43.0726714" lon="12.1514154"><ele>302.0</ele><time>2026-04-01T08:36:17.54Z</time></trkpt><trkpt lat="43.0726237" lon="12.1513386"><ele>302.0</ele><time>2026-04-01T08:36:18.54Z</time></trkpt><trkpt lat="43.0725084" lon="12.151279"><ele>303.83333333333337</ele><time>2026-04-01T08:36:20.541Z</time></trkpt><trkpt lat="43.0723963" lon="12.1513323"><ele>305.6666666666667</ele><time>2026-04-01T08:36:22.539Z</time></trkpt><trkpt lat="43.0723506" lon="12.1513923"><ele>307.5</ele><time>2026-04-01T08:36:23.539Z</time></trkpt><trkpt lat="43.0723303" lon="12.1514859"><ele>309.3333333333333</ele><time>2026-04-01T08:36:24.541Z</time></trkpt><trkpt lat="43.0723128" lon="12.1515952"><ele>311.16666666666663</ele><time>2026-04-01T08:36:25.541Z</time></trkpt><trkpt lat="43.0722444" lon="12.1517195"><ele>313.0</ele><time>2026-04-01T08:36:27.541Z</time></trkpt><trkpt lat="43.0721738" lon="12.1516753"><ele>313.4</ele><time>2026-04-01T08:36:29.54Z</time></trkpt><trkpt lat="43.0721292" lon="12.1515131"><ele>313.8</ele><time>2026-04-01T08:36:31.54Z</time></trkpt><trkpt lat="43.0721071" lon="12.1514254"><ele>314.2</ele><time>2026-04-01T08:36:32.54Z</time></trkpt><trkpt lat="43.0720577" lon="12.1513623"><ele>314.6</ele><time>2026-04-01T08:36:33.541Z</time></trkpt><trkpt lat="43.0719658" lon="12.1513172"><ele>315.0</ele><time>2026-04-01T08:36:35.539Z</time></trkpt><trkpt lat="43.0718676" lon="12.1514277"><ele>315.0</ele><time>2026-04-01T08:36:37.541Z</time></trkpt><trkpt lat="43.0718181" lon="12.1515364"><ele>315.0</ele><time>2026-04-01T08:36:38.542Z</time></trkpt><trkpt lat="43.0717674" lon="12.1516279"><ele>315.0</ele><time>2026-04-01T08:36:39.541Z</time></trkpt><trkpt lat="43.0716896" lon="12.1517062"><ele>315.0</ele><time>2026-04-01T08:36:40.54Z</time></trkpt><trkpt lat="43.0715889" lon="12.1517792"><ele>315.0</ele><time>2026-04-01T08:36:41.54Z</time></trkpt><trkpt lat="43.071459" lon="12.1518275"><ele>319.6666666666667</ele><time>2026-04-01T08:36:42.54Z</time></trkpt><trkpt lat="43.0713236" lon="12.1519049"><ele>324.33333333333337</ele><time>2026-04-01T08:36:43.542Z</time></trkpt><trkpt lat="43.0711636" lon="12.1519597"><ele>329.0</ele><time>2026-04-01T08:36:44.541Z</time></trkpt><trkpt lat="43.071026" lon="12.1520118"><ele>329.0</ele><time>2026-04-01T08:36:45.541Z</time></trkpt><trkpt lat="43.0708796" lon="12.1520459"><ele>329.0</ele><time>2026-04-01T08:36:46.542Z</time></trkpt><trkpt lat="43.0707211" lon="12.1520721"><ele>329.0</ele><time>2026-04-01T08:36:47.54Z</time></trkpt><trkpt lat="43.0705632" lon="12.1520967"><ele>333.0</ele><time>2026-04-01T08:36:48.541Z</time></trkpt><trkpt lat="43.0703692" lon="12.1520901"><ele>337.0</ele><time>2026-04-01T08:36:49.543Z</time></trkpt><trkpt lat="43.0702161" lon="12.1521006"><ele>341.0</ele><time>2026-04-01T08:36:50.54Z</time></trkpt><trkpt lat="43.0700728" lon="12.152102"><ele>342.25</ele><time>2026-04-01T08:36:51.541Z</time></trkpt><trkpt lat="43.0699391" lon="12.1520841"><ele>343.5</ele><time>2026-04-01T08:36:52.542Z</time></trkpt><trkpt lat="43.0698029" lon="12.1520844"><ele>344.75</ele><time>2026-04-01T08:36:53.541Z</time></trkpt><trkpt lat="43.069706" lon="12.1520506"><ele>346.0</ele><time>2026-04-01T08:36:54.542Z</time></trkpt><trkpt lat="43.0695961" lon="12.1520352"><ele>346.0</ele><time>2026-04-01T08:36:55.539Z</time></trkpt><trkpt lat="43.0694924" lon="12.1519598"><ele>346.0</ele><time>2026-04-01T08:36:56.542Z</time></trkpt><trkpt lat="43.0693753" lon="12.1518762"><ele>346.0</ele><time>2026-04-01T08:36:57.542Z</time></trkpt><trkpt lat="43.069259" lon="12.1517972"><ele>346.0</ele><time>2026-04-01T08:36:58.54Z</time></trkpt><trkpt lat="43.0691997" lon="12.1516989"><ele>346.0</ele><time>2026-04-01T08:36:59.542Z</time></trkpt><trkpt lat="43.0691225" lon="12.1516309"><ele>346.0</ele><time>2026-04-01T08:37:00.54Z</time></trkpt><trkpt lat="43.0690943" lon="12.1515061"><ele>346.0</ele><time>2026-04-01T08:37:02.541Z</time></trkpt><trkpt lat="43.069193" lon="12.1514583"><ele>346.0</ele><time>2026-04-01T08:37:04.541Z</time></trkpt><trkpt lat="43.0693013" lon="12.1514538"><ele>346.0</ele><time>2026-04-01T08:37:06.541Z</time></trkpt><trkpt lat="43.0694584" lon="12.1515278"><ele>346.0</ele><time>2026-04-01T08:37:07.542Z</time></trkpt><trkpt lat="43.069553" lon="12.1515647"><ele>346.0</ele><time>2026-04-01T08:37:08.541Z</time></trkpt><trkpt lat="43.0696214" lon="12.1515722"><ele>346.0</ele><time>2026-04-01T08:37:09.54Z</time></trkpt><trkpt lat="43.0697292" lon="12.1515147"><ele>346.0</ele><time>2026-04-01T08:37:11.541Z</time></trkpt><trkpt lat="43.0697255" lon="12.1513677"><ele>346.0</ele><time>2026-04-01T08:37:13.541Z</time></trkpt><trkpt lat="43.0696386" lon="12.1512737"><ele>347.6</ele><time>2026-04-01T08:37:15.542Z</time></trkpt><trkpt lat="43.069564" lon="12.1512307"><ele>349.20000000000005</ele><time>2026-04-01T08:37:16.54Z</time></trkpt><trkpt lat="43.0694667" lon="12.1511848"><ele>350.79999999999995</ele><time>2026-04-01T08:37:17.54Z</time></trkpt><trkpt lat="43.0693659" lon="12.1511145"><ele>352.4</ele><time>2026-04-01T08:37:18.541Z</time></trkpt><trkpt lat="43.0692583" lon="12.151056"><ele>354.0</ele><time>2026-04-01T08:37:19.541Z</time></trkpt><trkpt lat="43.0691131" lon="12.151043"><ele>358.3333333333333</ele><time>2026-04-01T08:37:20.541Z</time></trkpt><trkpt lat="43.0689716" lon="12.1510513"><ele>362.66666666666663</ele><time>2026-04-01T08:37:21.541Z</time></trkpt><trkpt lat="43.0688104" lon="12.1510747"><ele>367.0</ele><time>2026-04-01T08:37:22.541Z</time></trkpt><trkpt lat="43.0686425" lon="12.1511024"><ele>367.0</ele><time>2026-04-01T08:37:23.541Z</time></trkpt><trkpt lat="43.0684756" lon="12.1511411"><ele>367.0</ele><time>2026-04-01T08:37:24.542Z</time></trkpt><trkpt lat="43.0682796" lon="12.1511789"><ele>367.0</ele><time>2026-04-01T08:37:25.541Z</time></trkpt><trkpt lat="43.0680989" lon="12.1512082"><ele>370.66666666666663</ele><time>2026-04-01T08:37:26.54Z</time></trkpt><trkpt lat="43.0679247" lon="12.1512437"><ele>374.3333333333333</ele><time>2026-04-01T08:37:27.541Z</time></trkpt><trkpt lat="43.0677698" lon="12.1512692"><ele>378.0</ele><time>2026-04-01T08:37:28.54Z</time></trkpt><trkpt lat="43.067605" lon="12.1513005"><ele>378.0</ele><time>2026-04-01T08:37:29.541Z</time></trkpt><trkpt lat="43.0674541" lon="12.1513064"><ele>378.0</ele><time>2026-04-01T08:37:30.54Z</time></trkpt><trkpt lat="43.0673352" lon="12.1513214"><ele>378.0</ele><time>2026-04-01T08:37:31.54Z</time></trkpt><trkpt lat="43.0672318" lon="12.1513243"><ele>378.0</ele><time>2026-04-01T08:37:32.542Z</time></trkpt><trkpt lat="43.0671158" lon="12.1512971"><ele>376.25</ele><time>2026-04-01T08:37:33.54Z</time></trkpt><trkpt lat="43.0670299" lon="12.151277"><ele>374.5</ele><time>2026-04-01T08:37:34.541Z</time></trkpt><trkpt lat="43.0669171" lon="12.1512125"><ele>372.75</ele><time>2026-04-01T08:37:35.541Z</time></trkpt><trkpt lat="43.0668192" lon="12.1511625"><ele>371.0</ele><time>2026-04-01T08:37:36.541Z</time></trkpt><trkpt lat="43.0667082" lon="12.1510414"><ele>371.0</ele><time>2026-04-01T08:37:37.542Z</time></trkpt><trkpt lat="43.066632" lon="12.1509192"><ele>371.0</ele><time>2026-04-01T08:37:38.541Z</time></trkpt><trkpt lat="43.0665523" lon="12.1507916"><ele>371.0</ele><time>2026-04-01T08:37:39.541Z</time></trkpt><trkpt lat="43.0665322" lon="12.1506089"><ele>371.0</ele><time>2026-04-01T08:37:40.543Z</time></trkpt><trkpt lat="43.0664778" lon="12.1504581"><ele>371.25</ele><time>2026-04-01T08:37:41.542Z</time></trkpt><trkpt lat="43.0664196" lon="12.1503183"><ele>371.5</ele><time>2026-04-01T08:37:42.539Z</time></trkpt><trkpt lat="43.066268" lon="12.1502716"><ele>371.75</ele><time>2026-04-01T08:37:43.542Z</time></trkpt><trkpt lat="43.0661664" lon="12.1501957"><ele>372.0</ele><time>2026-04-01T08:37:44.541Z</time></trkpt><trkpt lat="43.0660249" lon="12.1501304"><ele>372.0</ele><time>2026-04-01T08:37:45.542Z</time></trkpt><trkpt lat="43.0658907" lon="12.1500804"><ele>372.0</ele><time>2026-04-01T08:37:46.541Z</time></trkpt><trkpt lat="43.0657617" lon="12.1500282"><ele>372.0</ele><time>2026-04-01T08:37:47.541Z</time></trkpt><trkpt lat="43.0656319" lon="12.1500284"><ele>372.0</ele><time>2026-04-01T08:37:48.541Z</time></trkpt><trkpt lat="43.0655125" lon="12.1500836"><ele>372.0</ele><time>2026-04-01T08:37:49.541Z</time></trkpt><trkpt lat="43.0653856" lon="12.150146"><ele>372.0</ele><time>2026-04-01T08:37:50.54Z</time></trkpt><trkpt lat="43.0652703" lon="12.1501934"><ele>372.0</ele><time>2026-04-01T08:37:51.541Z</time></trkpt><trkpt lat="43.0651354" lon="12.1502171"><ele>372.0</ele><time>2026-04-01T08:37:52.541Z</time></trkpt><trkpt lat="43.0650023" lon="12.1502372"><ele>369.6666666666667</ele><time>2026-04-01T08:37:53.54Z</time></trkpt><trkpt lat="43.0648503" lon="12.1502061"><ele>367.33333333333337</ele><time>2026-04-01T08:37:54.542Z</time></trkpt><trkpt lat="43.0647061" lon="12.150192"><ele>365.0</ele><time>2026-04-01T08:37:55.541Z</time></trkpt><trkpt lat="43.0645655" lon="12.1501092"><ele>365.0</ele><time>2026-04-01T08:37:56.542Z</time></trkpt><trkpt lat="43.0644428" lon="12.1500997"><ele>365.0</ele><time>2026-04-01T08:37:57.542Z</time></trkpt><trkpt lat="43.0642887" lon="12.15008"><ele>365.0</ele><time>2026-04-01T08:37:58.541Z</time></trkpt><trkpt lat="43.0641566" lon="12.150061"><ele>365.0</ele><time>2026-04-01T08:37:59.541Z</time></trkpt><trkpt lat="43.0640101" lon="12.150032"><ele>362.0</ele><time>2026-04-01T08:38:00.541Z</time></trkpt><trkpt lat="43.0638604" lon="12.149971"><ele>359.0</ele><time>2026-04-01T08:38:01.54Z</time></trkpt><trkpt lat="43.0637093" lon="12.1499182"><ele>356.0</ele><time>2026-04-01T08:38:02.541Z</time></trkpt><trkpt lat="43.0635443" lon="12.1498874"><ele>359.33333333333337</ele><time>2026-04-01T08:38:03.541Z</time></trkpt><trkpt lat="43.0633673" lon="12.1498501"><ele>362.6666666666667</ele><time>2026-04-01T08:38:04.541Z</time></trkpt><trkpt lat="43.063192" lon="12.1497657"><ele>366.0</ele><time>2026-04-01T08:38:05.541Z</time></trkpt><trkpt lat="43.0630156" lon="12.1496776"><ele>366.0</ele><time>2026-04-01T08:38:06.541Z</time></trkpt><trkpt lat="43.0628652" lon="12.1495757"><ele>366.0</ele><time>2026-04-01T08:38:07.542Z</time></trkpt><trkpt lat="43.0626935" lon="12.1494897"><ele>366.0</ele><time>2026-04-01T08:38:08.542Z</time></trkpt><trkpt lat="43.0625242" lon="12.1494472"><ele>365.3333333333333</ele><time>2026-04-01T08:38:09.541Z</time></trkpt><trkpt lat="43.0623294" lon="12.1494276"><ele>364.66666666666663</ele><time>2026-04-01T08:38:10.541Z</time></trkpt><trkpt lat="43.0621367" lon="12.1494181"><ele>364.0</ele><time>2026-04-01T08:38:11.541Z</time></trkpt><trkpt lat="43.0619304" lon="12.1494059"><ele>364.0</ele><time>2026-04-01T08:38:12.542Z</time></trkpt><trkpt lat="43.0617331" lon="12.1493998"><ele>364.0</ele><time>2026-04-01T08:38:13.541Z</time></trkpt><trkpt lat="43.0615499" lon="12.1493962"><ele>364.0</ele><time>2026-04-01T08:38:14.541Z</time></trkpt><trkpt lat="43.061375" lon="12.1493921"><ele>362.3333333333333</ele><time>2026-04-01T08:38:15.541Z</time></trkpt><trkpt lat="43.0612092" lon="12.1493788"><ele>360.6666666666667</ele><time>2026-04-01T08:38:16.541Z</time></trkpt><trkpt lat="43.0610555" lon="12.1493679"><ele>359.0</ele><time>2026-04-01T08:38:17.542Z</time></trkpt><trkpt lat="43.0608996" lon="12.1493585"><ele>355.0</ele><time>2026-04-01T08:38:18.54Z</time></trkpt><trkpt lat="43.0607505" lon="12.1493236"><ele>351.0</ele><time>2026-04-01T08:38:19.543Z</time></trkpt><trkpt lat="43.0605938" lon="12.1492933"><ele>347.0</ele><time>2026-04-01T08:38:20.541Z</time></trkpt><trkpt lat="43.0604031" lon="12.1492226"><ele>347.0</ele><time>2026-04-01T08:38:21.541Z</time></trkpt><trkpt lat="43.0602675" lon="12.1491784"><ele>347.0</ele><time>2026-04-01T08:38:22.541Z</time></trkpt><trkpt lat="43.0601306" lon="12.1491369"><ele>347.0</ele><time>2026-04-01T08:38:23.54Z</time></trkpt><trkpt lat="43.060014" lon="12.1490659"><ele>347.0</ele><time>2026-04-01T08:38:24.541Z</time></trkpt><trkpt lat="43.059887" lon="12.1489876"><ele>344.0</ele><time>2026-04-01T08:38:25.542Z</time></trkpt><trkpt lat="43.0598025" lon="12.1488527"><ele>341.0</ele><time>2026-04-01T08:38:26.542Z</time></trkpt><trkpt lat="43.0597195" lon="12.1487221"><ele>338.0</ele><time>2026-04-01T08:38:27.541Z</time></trkpt><trkpt lat="43.0596379" lon="12.1485875"><ele>335.0</ele><time>2026-04-01T08:38:28.542Z</time></trkpt><trkpt lat="43.0595806" lon="12.1484262"><ele>335.0</ele><time>2026-04-01T08:38:29.541Z</time></trkpt><trkpt lat="43.0595308" lon="12.148262"><ele>335.0</ele><time>2026-04-01T08:38:30.541Z</time></trkpt><trkpt lat="43.059498" lon="12.1481011"><ele>335.0</ele><time>2026-04-01T08:38:31.541Z</time></trkpt><trkpt lat="43.059493" lon="12.1479313"><ele>335.0</ele><time>2026-04-01T08:38:32.541Z</time></trkpt><trkpt lat="43.0594824" lon="12.1477819"><ele>335.75</ele><time>2026-04-01T08:38:33.542Z</time></trkpt><trkpt lat="43.0594495" lon="12.1476248"><ele>336.5</ele><time>2026-04-01T08:38:34.541Z</time></trkpt><trkpt lat="43.0594075" lon="12.1474721"><ele>337.25</ele><time>2026-04-01T08:38:35.541Z</time></trkpt><trkpt lat="43.0593297" lon="12.1473183"><ele>338.0</ele><time>2026-04-01T08:38:36.543Z</time></trkpt><trkpt lat="43.0592831" lon="12.1471343"><ele>338.25</ele><time>2026-04-01T08:38:37.541Z</time></trkpt><trkpt lat="43.0592548" lon="12.1469291"><ele>338.5</ele><time>2026-04-01T08:38:38.541Z</time></trkpt><trkpt lat="43.0592496" lon="12.1467208"><ele>338.75</ele><time>2026-04-01T08:38:39.54Z</time></trkpt><trkpt lat="43.059252" lon="12.1465235"><ele>339.0</ele><time>2026-04-01T08:38:40.541Z</time></trkpt><trkpt lat="43.0592656" lon="12.1463353"><ele>339.0</ele><time>2026-04-01T08:38:41.54Z</time></trkpt><trkpt lat="43.0592872" lon="12.1461728"><ele>339.0</ele><time>2026-04-01T08:38:42.541Z</time></trkpt><trkpt lat="43.0593292" lon="12.1460123"><ele>339.0</ele><time>2026-04-01T08:38:43.541Z</time></trkpt><trkpt lat="43.0594411" lon="12.1459055"><ele>339.0</ele><time>2026-04-01T08:38:44.542Z</time></trkpt><trkpt lat="43.0595424" lon="12.1457654"><ele>337.0</ele><time>2026-04-01T08:38:45.541Z</time></trkpt><trkpt lat="43.0596697" lon="12.1456211"><ele>335.0</ele><time>2026-04-01T08:38:46.541Z</time></trkpt><trkpt lat="43.0597992" lon="12.1454869"><ele>333.0</ele><time>2026-04-01T08:38:47.541Z</time></trkpt><trkpt lat="43.0599179" lon="12.1453604"><ele>336.3333333333333</ele><time>2026-04-01T08:38:48.541Z</time></trkpt><trkpt lat="43.060049" lon="12.1452332"><ele>339.66666666666663</ele><time>2026-04-01T08:38:49.541Z</time></trkpt><trkpt lat="43.0601998" lon="12.1451008"><ele>343.0</ele><time>2026-04-01T08:38:50.541Z</time></trkpt><trkpt lat="43.0603728" lon="12.1449898"><ele>343.0</ele><time>2026-04-01T08:38:51.541Z</time></trkpt><trkpt lat="43.0605212" lon="12.1448806"><ele>343.0</ele><time>2026-04-01T08:38:52.542Z</time></trkpt><trkpt lat="43.0606847" lon="12.1447883"><ele>343.0</ele><time>2026-04-01T08:38:53.541Z</time></trkpt><trkpt lat="43.060844" lon="12.1446993"><ele>342.3333333333333</ele><time>2026-04-01T08:38:54.542Z</time></trkpt><trkpt lat="43.0609933" lon="12.1446029"><ele>341.6666666666667</ele><time>2026-04-01T08:38:55.542Z</time></trkpt><trkpt lat="43.0611607" lon="12.144515"><ele>341.0</ele><time>2026-04-01T08:38:56.541Z</time></trkpt><trkpt lat="43.061309" lon="12.1444431"><ele>341.0</ele><time>2026-04-01T08:38:57.541Z</time></trkpt><trkpt lat="43.0614464" lon="12.1443807"><ele>341.0</ele><time>2026-04-01T08:38:58.543Z</time></trkpt><trkpt lat="43.0615687" lon="12.1443369"><ele>341.0</ele><time>2026-04-01T08:38:59.542Z</time></trkpt><trkpt lat="43.0616933" lon="12.1442903"><ele>341.0</ele><time>2026-04-01T08:39:00.542Z</time></trkpt><trkpt lat="43.0618085" lon="12.1442843"><ele>342.0</ele><time>2026-04-01T08:39:01.542Z</time></trkpt><trkpt lat="43.0619202" lon="12.1442983"><ele>343.0</ele><time>2026-04-01T08:39:02.541Z</time></trkpt><trkpt lat="43.0620403" lon="12.1443032"><ele>344.0</ele><time>2026-04-01T08:39:03.542Z</time></trkpt><trkpt lat="43.0621715" lon="12.1442926"><ele>345.0</ele><time>2026-04-01T08:39:04.541Z</time></trkpt><trkpt lat="43.0622979" lon="12.1443075"><ele>345.0</ele><time>2026-04-01T08:39:05.542Z</time></trkpt><trkpt lat="43.0624145" lon="12.1442927"><ele>345.0</ele><time>2026-04-01T08:39:06.541Z</time></trkpt><trkpt lat="43.0625185" lon="12.1442098"><ele>345.0</ele><time>2026-04-01T08:39:07.542Z</time></trkpt><trkpt lat="43.0626209" lon="12.1440972"><ele>345.0</ele><time>2026-04-01T08:39:08.541Z</time></trkpt><trkpt lat="43.0627172" lon="12.1439474"><ele>343.75</ele><time>2026-04-01T08:39:09.541Z</time></trkpt><trkpt lat="43.0628095" lon="12.1437866"><ele>342.5</ele><time>2026-04-01T08:39:10.54Z</time></trkpt><trkpt lat="43.0628761" lon="12.143619"><ele>341.25</ele><time>2026-04-01T08:39:11.541Z</time></trkpt><trkpt lat="43.0629423" lon="12.1434534"><ele>340.0</ele><time>2026-04-01T08:39:12.541Z</time></trkpt><trkpt lat="43.0630042" lon="12.1432747"><ele>339.25</ele><time>2026-04-01T08:39:13.54Z</time></trkpt><trkpt lat="43.0630785" lon="12.143095"><ele>338.5</ele><time>2026-04-01T08:39:14.54Z</time></trkpt><trkpt lat="43.0631554" lon="12.1429199"><ele>337.75</ele><time>2026-04-01T08:39:15.54Z</time></trkpt><trkpt lat="43.0632318" lon="12.14277"><ele>337.0</ele><time>2026-04-01T08:39:16.541Z</time></trkpt><trkpt lat="43.0633188" lon="12.1426323"><ele>338.6</ele><time>2026-04-01T08:39:17.541Z</time></trkpt><trkpt lat="43.0634024" lon="12.1425048"><ele>340.20000000000005</ele><time>2026-04-01T08:39:18.541Z</time></trkpt><trkpt lat="43.0634708" lon="12.1423981"><ele>341.8</ele><time>2026-04-01T08:39:20.541Z</time></trkpt><trkpt lat="43.0634805" lon="12.142312"><ele>343.4</ele><time>2026-04-01T08:39:21.541Z</time></trkpt><trkpt lat="43.0634814" lon="12.142222"><ele>345.0</ele><time>2026-04-01T08:39:22.541Z</time></trkpt><trkpt lat="43.0634418" lon="12.1420844"><ele>345.2</ele><time>2026-04-01T08:39:24.542Z</time></trkpt><trkpt lat="43.0634272" lon="12.141954"><ele>345.4</ele><time>2026-04-01T08:39:26.542Z</time></trkpt><trkpt lat="43.06341" lon="12.141793"><ele>345.6</ele><time>2026-04-01T08:39:28.542Z</time></trkpt><trkpt lat="43.0634096" lon="12.1416643"><ele>345.8</ele><time>2026-04-01T08:39:29.541Z</time></trkpt><trkpt lat="43.0634228" lon="12.1415238"><ele>346.0</ele><time>2026-04-01T08:39:30.541Z</time></trkpt><trkpt lat="43.0634354" lon="12.1413874"><ele>345.66666666666663</ele><time>2026-04-01T08:39:31.542Z</time></trkpt><trkpt lat="43.0634539" lon="12.1412905"><ele>345.3333333333333</ele><time>2026-04-01T08:39:32.542Z</time></trkpt><trkpt lat="43.0634936" lon="12.1411783"><ele>345.0</ele><time>2026-04-01T08:39:33.541Z</time></trkpt><trkpt lat="43.0635248" lon="12.1410988"><ele>344.6666666666667</ele><time>2026-04-01T08:39:34.541Z</time></trkpt><trkpt lat="43.0635334" lon="12.1410052"><ele>344.33333333333337</ele><time>2026-04-01T08:39:37.541Z</time></trkpt><trkpt lat="43.0634805" lon="12.1411159"><ele>344.0</ele><time>2026-04-01T08:39:40.541Z</time></trkpt><trkpt lat="43.0634701" lon="12.1412055"><ele>344.0</ele><time>2026-04-01T08:39:41.541Z</time></trkpt><trkpt lat="43.0634447" lon="12.1413417"><ele>344.0</ele><time>2026-04-01T08:39:42.541Z</time></trkpt><trkpt lat="43.0634248" lon="12.1414923"><ele>344.0</ele><time>2026-04-01T08:39:43.542Z</time></trkpt><trkpt lat="43.0634186" lon="12.1416299"><ele>344.0</ele><time>2026-04-01T08:39:44.541Z</time></trkpt><trkpt lat="43.063416" lon="12.1417497"><ele>344.0</ele><time>2026-04-01T08:39:45.541Z</time></trkpt><trkpt lat="43.0633931" lon="12.141841"><ele>344.4</ele><time>2026-04-01T08:39:46.541Z</time></trkpt><trkpt lat="43.0633285" lon="12.1418836"><ele>344.79999999999995</ele><time>2026-04-01T08:39:47.542Z</time></trkpt><trkpt lat="43.0632678" lon="12.1419262"><ele>345.20000000000005</ele><time>2026-04-01T08:39:48.542Z</time></trkpt><trkpt lat="43.0631334" lon="12.1418481"><ele>345.6</ele><time>2026-04-01T08:39:49.541Z</time></trkpt><trkpt lat="43.0630048" lon="12.141792"><ele>346.0</ele><time>2026-04-01T08:39:50.541Z</time></trkpt><trkpt lat="43.0628253" lon="12.1416882"><ele>342.0</ele><time>2026-04-01T08:39:51.542Z</time></trkpt><trkpt lat="43.0626397" lon="12.141561"><ele>338.0</ele><time>2026-04-01T08:39:52.541Z</time></trkpt><trkpt lat="43.0624842" lon="12.1414475"><ele>334.0</ele><time>2026-04-01T08:39:53.541Z</time></trkpt><trkpt lat="43.0623046" lon="12.1413251"><ele>331.66666666666663</ele><time>2026-04-01T08:39:54.541Z</time></trkpt><trkpt lat="43.0621319" lon="12.1411991"><ele>329.3333333333333</ele><time>2026-04-01T08:39:55.541Z</time></trkpt><trkpt lat="43.0619671" lon="12.1410892"><ele>327.0</ele><time>2026-04-01T08:39:56.542Z</time></trkpt><trkpt lat="43.0618161" lon="12.1409679"><ele>327.0</ele><time>2026-04-01T08:39:57.542Z</time></trkpt><trkpt lat="43.0616743" lon="12.140855"><ele>327.0</ele><time>2026-04-01T08:39:58.541Z</time></trkpt><trkpt lat="43.0615437" lon="12.1407217"><ele>327.0</ele><time>2026-04-01T08:39:59.541Z</time></trkpt><trkpt lat="43.0614362" lon="12.1405558"><ele>325.6666666666667</ele><time>2026-04-01T08:40:00.542Z</time></trkpt><trkpt lat="43.0613467" lon="12.1403851"><ele>324.33333333333337</ele><time>2026-04-01T08:40:01.54Z</time></trkpt><trkpt lat="43.0612566" lon="12.1402167"><ele>323.0</ele><time>2026-04-01T08:40:02.541Z</time></trkpt><trkpt lat="43.0611488" lon="12.1400635"><ele>323.0</ele><time>2026-04-01T08:40:03.542Z</time></trkpt><trkpt lat="43.0610033" lon="12.1399289"><ele>323.0</ele><time>2026-04-01T08:40:04.54Z</time></trkpt><trkpt lat="43.0608393" lon="12.1397883"><ele>323.0</ele><time>2026-04-01T08:40:05.542Z</time></trkpt><trkpt lat="43.0606531" lon="12.1396493"><ele>320.6666666666667</ele><time>2026-04-01T08:40:06.542Z</time></trkpt><trkpt lat="43.060461" lon="12.1395036"><ele>318.3333333333333</ele><time>2026-04-01T08:40:07.542Z</time></trkpt><trkpt lat="43.0602634" lon="12.1393471"><ele>316.0</ele><time>2026-04-01T08:40:08.542Z</time></trkpt><trkpt lat="43.0600525" lon="12.1391827"><ele>314.0</ele><time>2026-04-01T08:40:09.541Z</time></trkpt><trkpt lat="43.0598356" lon="12.139006"><ele>312.0</ele><time>2026-04-01T08:40:10.541Z</time></trkpt><trkpt lat="43.0596119" lon="12.1388127"><ele>312.0</ele><time>2026-04-01T08:40:11.542Z</time></trkpt><trkpt lat="43.0593783" lon="12.1386326"><ele>312.0</ele><time>2026-04-01T08:40:12.542Z</time></trkpt><trkpt lat="43.0591542" lon="12.1384519"><ele>310.5</ele><time>2026-04-01T08:40:13.541Z</time></trkpt><trkpt lat="43.0589313" lon="12.1382631"><ele>309.0</ele><time>2026-04-01T08:40:14.541Z</time></trkpt><trkpt lat="43.0587109" lon="12.1380848"><ele>309.0</ele><time>2026-04-01T08:40:15.542Z</time></trkpt><trkpt lat="43.0584837" lon="12.1379137"><ele>309.0</ele><time>2026-04-01T08:40:16.541Z</time></trkpt><trkpt lat="43.058261" lon="12.1377368"><ele>306.5</ele><time>2026-04-01T08:40:17.541Z</time></trkpt><trkpt lat="43.058043" lon="12.1375445"><ele>304.0</ele><time>2026-04-01T08:40:18.541Z</time></trkpt><trkpt lat="43.0578201" lon="12.1372959"><ele>304.0</ele><time>2026-04-01T08:40:19.542Z</time></trkpt><trkpt lat="43.0576121" lon="12.137053"><ele>304.0</ele><time>2026-04-01T08:40:20.541Z</time></trkpt><trkpt lat="43.0573976" lon="12.1367923"><ele>302.5</ele><time>2026-04-01T08:40:21.542Z</time></trkpt><trkpt lat="43.0571748" lon="12.1365337"><ele>301.0</ele><time>2026-04-01T08:40:22.541Z</time></trkpt><trkpt lat="43.0569585" lon="12.1362746"><ele>301.0</ele><time>2026-04-01T08:40:23.541Z</time></trkpt><trkpt lat="43.0567404" lon="12.1360137"><ele>301.0</ele><time>2026-04-01T08:40:24.541Z</time></trkpt><trkpt lat="43.0565196" lon="12.1357545"><ele>300.5</ele><time>2026-04-01T08:40:25.541Z</time></trkpt><trkpt lat="43.0562974" lon="12.135494"><ele>300.0</ele><time>2026-04-01T08:40:26.541Z</time></trkpt><trkpt lat="43.056086" lon="12.1352551"><ele>300.0</ele><time>2026-04-01T08:40:27.542Z</time></trkpt><trkpt lat="43.0558888" lon="12.1350158"><ele>300.0</ele><time>2026-04-01T08:40:28.542Z</time></trkpt><trkpt lat="43.0556895" lon="12.1347872"><ele>299.0</ele><time>2026-04-01T08:40:29.543Z</time></trkpt><trkpt lat="43.055511" lon="12.1345818"><ele>298.0</ele><time>2026-04-01T08:40:30.542Z</time></trkpt><trkpt lat="43.0553352" lon="12.1343571"><ele>298.0</ele><time>2026-04-01T08:40:31.54Z</time></trkpt><trkpt lat="43.0551401" lon="12.1341367"><ele>298.0</ele><time>2026-04-01T08:40:32.54Z</time></trkpt><trkpt lat="43.0549497" lon="12.1339067"><ele>297.0</ele><time>2026-04-01T08:40:33.543Z</time></trkpt><trkpt lat="43.0547667" lon="12.1336719"><ele>296.0</ele><time>2026-04-01T08:40:34.542Z</time></trkpt><trkpt lat="43.0545953" lon="12.1334293"><ele>295.5</ele><time>2026-04-01T08:40:35.543Z</time></trkpt><trkpt lat="43.0544396" lon="12.1331962"><ele>295.0</ele><time>2026-04-01T08:40:36.541Z</time></trkpt><trkpt lat="43.0542878" lon="12.1329656"><ele>295.0</ele><time>2026-04-01T08:40:37.542Z</time></trkpt><trkpt lat="43.0541476" lon="12.1327428"><ele>295.0</ele><time>2026-04-01T08:40:38.542Z</time></trkpt><trkpt lat="43.0540033" lon="12.1325211"><ele>295.0</ele><time>2026-04-01T08:40:39.541Z</time></trkpt><trkpt lat="43.0538705" lon="12.1323285"><ele>294.0</ele><time>2026-04-01T08:40:40.541Z</time></trkpt><trkpt lat="43.0537589" lon="12.1321664"><ele>293.0</ele><time>2026-04-01T08:40:41.542Z</time></trkpt><trkpt lat="43.0536484" lon="12.1320459"><ele>292.0</ele><time>2026-04-01T08:40:42.542Z</time></trkpt><trkpt lat="43.0535388" lon="12.1319567"><ele>291.0</ele><time>2026-04-01T08:40:43.54Z</time></trkpt><trkpt lat="43.0534191" lon="12.1319077"><ele>289.5</ele><time>2026-04-01T08:40:44.543Z</time></trkpt><trkpt lat="43.0532822" lon="12.1319003"><ele>288.0</ele><time>2026-04-01T08:40:45.542Z</time></trkpt><trkpt lat="43.0531491" lon="12.1319621"><ele>286.5</ele><time>2026-04-01T08:40:46.542Z</time></trkpt><trkpt lat="43.0530066" lon="12.1320635"><ele>285.0</ele><time>2026-04-01T08:40:47.541Z</time></trkpt><trkpt lat="43.0528563" lon="12.1321918"><ele>285.0</ele><time>2026-04-01T08:40:48.542Z</time></trkpt><trkpt lat="43.0526816" lon="12.13232"><ele>285.0</ele><time>2026-04-01T08:40:49.542Z</time></trkpt><trkpt lat="43.0524885" lon="12.1324417"><ele>285.0</ele><time>2026-04-01T08:40:50.541Z</time></trkpt><trkpt lat="43.0522774" lon="12.1325541"><ele>287.0</ele><time>2026-04-01T08:40:51.542Z</time></trkpt><trkpt lat="43.0520664" lon="12.1326586"><ele>289.0</ele><time>2026-04-01T08:40:52.54Z</time></trkpt><trkpt lat="43.0518557" lon="12.1327693"><ele>289.0</ele><time>2026-04-01T08:40:53.543Z</time></trkpt><trkpt lat="43.0516531" lon="12.1328591"><ele>289.0</ele><time>2026-04-01T08:40:54.543Z</time></trkpt><trkpt lat="43.0514378" lon="12.1329464"><ele>289.0</ele><time>2026-04-01T08:40:55.541Z</time></trkpt><trkpt lat="43.0512197" lon="12.1330151"><ele>289.0</ele><time>2026-04-01T08:40:56.541Z</time></trkpt><trkpt lat="43.0510131" lon="12.1330524"><ele>289.0</ele><time>2026-04-01T08:40:57.543Z</time></trkpt><trkpt lat="43.0508066" lon="12.1330857"><ele>289.0</ele><time>2026-04-01T08:40:58.542Z</time></trkpt><trkpt lat="43.0506206" lon="12.1330918"><ele>289.25</ele><time>2026-04-01T08:40:59.543Z</time></trkpt><trkpt lat="43.0504716" lon="12.1330561"><ele>289.5</ele><time>2026-04-01T08:41:00.542Z</time></trkpt><trkpt lat="43.0503671" lon="12.1329579"><ele>289.75</ele><time>2026-04-01T08:41:01.541Z</time></trkpt><trkpt lat="43.0503011" lon="12.1328148"><ele>290.0</ele><time>2026-04-01T08:41:02.541Z</time></trkpt><trkpt lat="43.0502586" lon="12.1326316"><ele>290.0</ele><time>2026-04-01T08:41:03.541Z</time></trkpt><trkpt lat="43.0502156" lon="12.1324256"><ele>290.0</ele><time>2026-04-01T08:41:04.542Z</time></trkpt><trkpt lat="43.0501692" lon="12.1321852"><ele>290.0</ele><time>2026-04-01T08:41:05.541Z</time></trkpt><trkpt lat="43.0501238" lon="12.1319255"><ele>289.6666666666667</ele><time>2026-04-01T08:41:06.542Z</time></trkpt><trkpt lat="43.0500765" lon="12.1316529"><ele>289.3333333333333</ele><time>2026-04-01T08:41:07.542Z</time></trkpt><trkpt lat="43.0500272" lon="12.131358"><ele>289.0</ele><time>2026-04-01T08:41:08.541Z</time></trkpt><trkpt lat="43.0499766" lon="12.1310641"><ele>288.5</ele><time>2026-04-01T08:41:09.542Z</time></trkpt><trkpt lat="43.0499201" lon="12.1307472"><ele>288.0</ele><time>2026-04-01T08:41:10.542Z</time></trkpt><trkpt lat="43.0498622" lon="12.1304299"><ele>287.0</ele><time>2026-04-01T08:41:11.541Z</time></trkpt><trkpt lat="43.0497989" lon="12.1301113"><ele>286.0</ele><time>2026-04-01T08:41:12.543Z</time></trkpt><trkpt lat="43.0497224" lon="12.1298062"><ele>285.5</ele><time>2026-04-01T08:41:13.541Z</time></trkpt><trkpt lat="43.0496418" lon="12.129506"><ele>285.0</ele><time>2026-04-01T08:41:14.541Z</time></trkpt><trkpt lat="43.0495406" lon="12.1292191"><ele>285.0</ele><time>2026-04-01T08:41:15.542Z</time></trkpt><trkpt lat="43.0494153" lon="12.128921"><ele>285.0</ele><time>2026-04-01T08:41:16.542Z</time></trkpt><trkpt lat="43.0492942" lon="12.1286149"><ele>285.0</ele><time>2026-04-01T08:41:17.542Z</time></trkpt><trkpt lat="43.0492" lon="12.1283003"><ele>285.0</ele><time>2026-04-01T08:41:18.542Z</time></trkpt><trkpt lat="43.0491118" lon="12.1279688"><ele>287.0</ele><time>2026-04-01T08:41:19.542Z</time></trkpt><trkpt lat="43.049034" lon="12.1276447"><ele>289.0</ele><time>2026-04-01T08:41:20.542Z</time></trkpt><trkpt lat="43.0489581" lon="12.1273285"><ele>289.0</ele><time>2026-04-01T08:41:21.541Z</time></trkpt><trkpt lat="43.0488864" lon="12.1270159"><ele>289.0</ele><time>2026-04-01T08:41:22.542Z</time></trkpt><trkpt lat="43.0488145" lon="12.1267084"><ele>289.0</ele><time>2026-04-01T08:41:23.542Z</time></trkpt><trkpt lat="43.0487527" lon="12.1263947"><ele>289.0</ele><time>2026-04-01T08:41:24.542Z</time></trkpt><trkpt lat="43.0486865" lon="12.1260797"><ele>289.0</ele><time>2026-04-01T08:41:25.541Z</time></trkpt><trkpt lat="43.0486258" lon="12.1257566"><ele>289.0</ele><time>2026-04-01T08:41:26.543Z</time></trkpt><trkpt lat="43.0485664" lon="12.1254478"><ele>288.3333333333333</ele><time>2026-04-01T08:41:27.542Z</time></trkpt><trkpt lat="43.0485012" lon="12.1251563"><ele>287.6666666666667</ele><time>2026-04-01T08:41:28.542Z</time></trkpt><trkpt lat="43.0484338" lon="12.1248642"><ele>287.0</ele><time>2026-04-01T08:41:29.542Z</time></trkpt><trkpt lat="43.0483767" lon="12.124566"><ele>286.0</ele><time>2026-04-01T08:41:30.542Z</time></trkpt><trkpt lat="43.0483245" lon="12.1242551"><ele>285.0</ele><time>2026-04-01T08:41:31.541Z</time></trkpt><trkpt lat="43.0482737" lon="12.1239371"><ele>285.6666666666667</ele><time>2026-04-01T08:41:32.542Z</time></trkpt><trkpt lat="43.0482164" lon="12.1236275"><ele>286.33333333333337</ele><time>2026-04-01T08:41:33.541Z</time></trkpt><trkpt lat="43.0481578" lon="12.1233456"><ele>287.0</ele><time>2026-04-01T08:41:34.542Z</time></trkpt><trkpt lat="43.0480724" lon="12.1230798"><ele>287.0</ele><time>2026-04-01T08:41:35.541Z</time></trkpt><trkpt lat="43.0479658" lon="12.1228385"><ele>287.0</ele><time>2026-04-01T08:41:36.542Z</time></trkpt><trkpt lat="43.0478387" lon="12.1226033"><ele>287.0</ele><time>2026-04-01T08:41:37.543Z</time></trkpt><trkpt lat="43.0476961" lon="12.1223684"><ele>285.0</ele><time>2026-04-01T08:41:38.541Z</time></trkpt><trkpt lat="43.047528" lon="12.1221232"><ele>283.0</ele><time>2026-04-01T08:41:39.541Z</time></trkpt><trkpt lat="43.0473636" lon="12.1218886"><ele>283.0</ele><time>2026-04-01T08:41:40.543Z</time></trkpt><trkpt lat="43.0471965" lon="12.1216428"><ele>283.0</ele><time>2026-04-01T08:41:41.542Z</time></trkpt><trkpt lat="43.0470295" lon="12.1213853"><ele>281.5</ele><time>2026-04-01T08:41:42.541Z</time></trkpt><trkpt lat="43.0468627" lon="12.1211158"><ele>280.0</ele><time>2026-04-01T08:41:43.541Z</time></trkpt><trkpt lat="43.0466956" lon="12.1208474"><ele>280.5</ele><time>2026-04-01T08:41:44.542Z</time></trkpt><trkpt lat="43.0465314" lon="12.1205755"><ele>281.0</ele><time>2026-04-01T08:41:45.541Z</time></trkpt><trkpt lat="43.0463704" lon="12.1202983"><ele>281.0</ele><time>2026-04-01T08:41:46.542Z</time></trkpt><trkpt lat="43.046205" lon="12.120024"><ele>281.0</ele><time>2026-04-01T08:41:47.543Z</time></trkpt><trkpt lat="43.0460491" lon="12.1197375"><ele>281.5</ele><time>2026-04-01T08:41:48.542Z</time></trkpt><trkpt lat="43.0458987" lon="12.1194526"><ele>282.0</ele><time>2026-04-01T08:41:49.543Z</time></trkpt><trkpt lat="43.0457515" lon="12.119163"><ele>281.0</ele><time>2026-04-01T08:41:50.542Z</time></trkpt><trkpt lat="43.0456108" lon="12.1188643"><ele>280.0</ele><time>2026-04-01T08:41:51.542Z</time></trkpt><trkpt lat="43.0454806" lon="12.1185521"><ele>280.0</ele><time>2026-04-01T08:41:52.541Z</time></trkpt><trkpt lat="43.0453415" lon="12.1182574"><ele>280.0</ele><time>2026-04-01T08:41:53.541Z</time></trkpt><trkpt lat="43.0452014" lon="12.1179592"><ele>279.5</ele><time>2026-04-01T08:41:54.542Z</time></trkpt><trkpt lat="43.0450635" lon="12.1176575"><ele>279.0</ele><time>2026-04-01T08:41:55.542Z</time></trkpt><trkpt lat="43.0449289" lon="12.1173583"><ele>280.0</ele><time>2026-04-01T08:41:56.542Z</time></trkpt><trkpt lat="43.0447934" lon="12.1170547"><ele>281.0</ele><time>2026-04-01T08:41:57.542Z</time></trkpt><trkpt lat="43.0446553" lon="12.1167581"><ele>280.5</ele><time>2026-04-01T08:41:58.542Z</time></trkpt><trkpt lat="43.0445107" lon="12.1164628"><ele>280.0</ele><time>2026-04-01T08:41:59.543Z</time></trkpt><trkpt lat="43.0443669" lon="12.1161608"><ele>280.0</ele><time>2026-04-01T08:42:00.543Z</time></trkpt><trkpt lat="43.0442296" lon="12.1158579"><ele>280.0</ele><time>2026-04-01T08:42:01.542Z</time></trkpt><trkpt lat="43.0440917" lon="12.1155517"><ele>280.0</ele><time>2026-04-01T08:42:02.54Z</time></trkpt><trkpt lat="43.0439572" lon="12.1152504"><ele>280.0</ele><time>2026-04-01T08:42:03.54Z</time></trkpt><trkpt lat="43.0438344" lon="12.1149431"><ele>278.5</ele><time>2026-04-01T08:42:04.541Z</time></trkpt><trkpt lat="43.0437174" lon="12.1146224"><ele>277.0</ele><time>2026-04-01T08:42:05.543Z</time></trkpt><trkpt lat="43.043592" lon="12.1143119"><ele>277.0</ele><time>2026-04-01T08:42:06.541Z</time></trkpt><trkpt lat="43.0434632" lon="12.1140038"><ele>277.0</ele><time>2026-04-01T08:42:07.541Z</time></trkpt><trkpt lat="43.0433181" lon="12.1137127"><ele>278.0</ele><time>2026-04-01T08:42:08.543Z</time></trkpt><trkpt lat="43.0431703" lon="12.1134269"><ele>279.0</ele><time>2026-04-01T08:42:09.542Z</time></trkpt><trkpt lat="43.0430243" lon="12.1131334"><ele>279.0</ele><time>2026-04-01T08:42:10.543Z</time></trkpt><trkpt lat="43.0428825" lon="12.1128416"><ele>279.0</ele><time>2026-04-01T08:42:11.541Z</time></trkpt><trkpt lat="43.042749" lon="12.1125332"><ele>279.0</ele><time>2026-04-01T08:42:12.542Z</time></trkpt><trkpt lat="43.0426211" lon="12.1122283"><ele>279.0</ele><time>2026-04-01T08:42:13.542Z</time></trkpt><trkpt lat="43.0424634" lon="12.1119313"><ele>279.0</ele><time>2026-04-01T08:42:14.543Z</time></trkpt><trkpt lat="43.0423064" lon="12.1116501"><ele>279.0</ele><time>2026-04-01T08:42:15.541Z</time></trkpt><trkpt lat="43.04213" lon="12.1113893"><ele>279.0</ele><time>2026-04-01T08:42:16.541Z</time></trkpt><trkpt lat="43.0419498" lon="12.111143"><ele>279.0</ele><time>2026-04-01T08:42:17.542Z</time></trkpt><trkpt lat="43.0417754" lon="12.1108883"><ele>280.5</ele><time>2026-04-01T08:42:18.541Z</time></trkpt><trkpt lat="43.0416021" lon="12.1106369"><ele>282.0</ele><time>2026-04-01T08:42:19.543Z</time></trkpt><trkpt lat="43.0414233" lon="12.1103791"><ele>282.0</ele><time>2026-04-01T08:42:20.542Z</time></trkpt><trkpt lat="43.041249" lon="12.1101244"><ele>282.0</ele><time>2026-04-01T08:42:21.543Z</time></trkpt><trkpt lat="43.0410709" lon="12.1098675"><ele>282.5</ele><time>2026-04-01T08:42:22.541Z</time></trkpt><trkpt lat="43.0408864" lon="12.1096126"><ele>283.0</ele><time>2026-04-01T08:42:23.542Z</time></trkpt><trkpt lat="43.0406995" lon="12.1093614"><ele>283.0</ele><time>2026-04-01T08:42:24.543Z</time></trkpt><trkpt lat="43.0405105" lon="12.1091056"><ele>283.0</ele><time>2026-04-01T08:42:25.542Z</time></trkpt><trkpt lat="43.0403302" lon="12.1088515"><ele>282.5</ele><time>2026-04-01T08:42:26.542Z</time></trkpt><trkpt lat="43.0401562" lon="12.1086021"><ele>282.0</ele><time>2026-04-01T08:42:27.542Z</time></trkpt><trkpt lat="43.0399838" lon="12.1083402"><ele>284.0</ele><time>2026-04-01T08:42:28.542Z</time></trkpt><trkpt lat="43.0398053" lon="12.1080733"><ele>286.0</ele><time>2026-04-01T08:42:29.542Z</time></trkpt><trkpt lat="43.0396365" lon="12.1078056"><ele>286.0</ele><time>2026-04-01T08:42:30.541Z</time></trkpt><trkpt lat="43.0394732" lon="12.107545"><ele>286.0</ele><time>2026-04-01T08:42:31.542Z</time></trkpt><trkpt lat="43.0393053" lon="12.1072807"><ele>286.0</ele><time>2026-04-01T08:42:32.541Z</time></trkpt><trkpt lat="43.0391412" lon="12.1070156"><ele>286.0</ele><time>2026-04-01T08:42:33.542Z</time></trkpt><trkpt lat="43.0389657" lon="12.1067749"><ele>289.0</ele><time>2026-04-01T08:42:34.543Z</time></trkpt><trkpt lat="43.0388241" lon="12.1065567"><ele>292.0</ele><time>2026-04-01T08:42:35.542Z</time></trkpt><trkpt lat="43.0386821" lon="12.1063807"><ele>295.0</ele><time>2026-04-01T08:42:36.542Z</time></trkpt><trkpt lat="43.0385304" lon="12.1062267"><ele>295.0</ele><time>2026-04-01T08:42:37.541Z</time></trkpt><trkpt lat="43.0383636" lon="12.106155"><ele>295.0</ele><time>2026-04-01T08:42:38.542Z</time></trkpt><trkpt lat="43.0381736" lon="12.1060626"><ele>295.0</ele><time>2026-04-01T08:42:39.542Z</time></trkpt><trkpt lat="43.0379974" lon="12.1059687"><ele>298.0</ele><time>2026-04-01T08:42:40.541Z</time></trkpt><trkpt lat="43.0378419" lon="12.1058383"><ele>301.0</ele><time>2026-04-01T08:42:41.541Z</time></trkpt><trkpt lat="43.037728" lon="12.1056815"><ele>304.0</ele><time>2026-04-01T08:42:42.542Z</time></trkpt><trkpt lat="43.037637" lon="12.1055033"><ele>304.0</ele><time>2026-04-01T08:42:43.542Z</time></trkpt><trkpt lat="43.0375729" lon="12.1053439"><ele>304.0</ele><time>2026-04-01T08:42:44.543Z</time></trkpt><trkpt lat="43.0374746" lon="12.1052229"><ele>304.0</ele><time>2026-04-01T08:42:45.543Z</time></trkpt><trkpt lat="43.0373588" lon="12.1051612"><ele>304.0</ele><time>2026-04-01T08:42:46.542Z</time></trkpt><trkpt lat="43.0372392" lon="12.1051611"><ele>306.2</ele><time>2026-04-01T08:42:47.542Z</time></trkpt><trkpt lat="43.0371278" lon="12.1051616"><ele>308.4</ele><time>2026-04-01T08:42:48.542Z</time></trkpt><trkpt lat="43.0370405" lon="12.1051232"><ele>310.6</ele><time>2026-04-01T08:42:49.542Z</time></trkpt><trkpt lat="43.036954" lon="12.1050386"><ele>312.8</ele><time>2026-04-01T08:42:50.541Z</time></trkpt><trkpt lat="43.036845" lon="12.1049245"><ele>315.0</ele><time>2026-04-01T08:42:51.542Z</time></trkpt><trkpt lat="43.0367448" lon="12.1048179"><ele>318.25</ele><time>2026-04-01T08:42:52.542Z</time></trkpt><trkpt lat="43.0366201" lon="12.1047295"><ele>321.5</ele><time>2026-04-01T08:42:53.542Z</time></trkpt><trkpt lat="43.0364916" lon="12.1046593"><ele>324.75</ele><time>2026-04-01T08:42:54.543Z</time></trkpt><trkpt lat="43.0363486" lon="12.1045816"><ele>328.0</ele><time>2026-04-01T08:42:55.541Z</time></trkpt><trkpt lat="43.0362046" lon="12.1045108"><ele>328.0</ele><time>2026-04-01T08:42:56.543Z</time></trkpt><trkpt lat="43.0360954" lon="12.1044604"><ele>328.0</ele><time>2026-04-01T08:42:57.543Z</time></trkpt><trkpt lat="43.035971" lon="12.1043985"><ele>328.0</ele><time>2026-04-01T08:42:58.543Z</time></trkpt><trkpt lat="43.0358537" lon="12.1043237"><ele>328.0</ele><time>2026-04-01T08:42:59.543Z</time></trkpt><trkpt lat="43.0357318" lon="12.1042744"><ele>329.2</ele><time>2026-04-01T08:43:00.543Z</time></trkpt><trkpt lat="43.035621" lon="12.1042341"><ele>330.4</ele><time>2026-04-01T08:43:01.543Z</time></trkpt><trkpt lat="43.0355051" lon="12.1041918"><ele>331.59999999999997</ele><time>2026-04-01T08:43:02.543Z</time></trkpt><trkpt lat="43.0354196" lon="12.1042087"><ele>332.79999999999995</ele><time>2026-04-01T08:43:03.543Z</time></trkpt><trkpt lat="43.0353277" lon="12.104189"><ele>334.0</ele><time>2026-04-01T08:43:04.542Z</time></trkpt><trkpt lat="43.0352362" lon="12.1041598"><ele>334.0</ele><time>2026-04-01T08:43:05.541Z</time></trkpt><trkpt lat="43.0351116" lon="12.1041299"><ele>334.0</ele><time>2026-04-01T08:43:06.541Z</time></trkpt><trkpt lat="43.0350269" lon="12.1041095"><ele>334.0</ele><time>2026-04-01T08:43:07.542Z</time></trkpt><trkpt lat="43.034942" lon="12.1040321"><ele>334.0</ele><time>2026-04-01T08:43:08.542Z</time></trkpt><trkpt lat="43.034839" lon="12.1039644"><ele>334.0</ele><time>2026-04-01T08:43:09.542Z</time></trkpt><trkpt lat="43.0347394" lon="12.1038869"><ele>330.0</ele><time>2026-04-01T08:43:10.542Z</time></trkpt><trkpt lat="43.0346134" lon="12.1038224"><ele>326.0</ele><time>2026-04-01T08:43:11.542Z</time></trkpt><trkpt lat="43.0344747" lon="12.1037469"><ele>322.0</ele><time>2026-04-01T08:43:12.543Z</time></trkpt><trkpt lat="43.0343406" lon="12.1036704"><ele>318.0</ele><time>2026-04-01T08:43:13.541Z</time></trkpt><trkpt lat="43.0342266" lon="12.1035953"><ele>319.25</ele><time>2026-04-01T08:43:14.542Z</time></trkpt><trkpt lat="43.0341244" lon="12.1035046"><ele>320.5</ele><time>2026-04-01T08:43:15.542Z</time></trkpt><trkpt lat="43.0340329" lon="12.1034345"><ele>321.75</ele><time>2026-04-01T08:43:16.543Z</time></trkpt><trkpt lat="43.0339499" lon="12.1033547"><ele>323.0</ele><time>2026-04-01T08:43:17.542Z</time></trkpt><trkpt lat="43.0338634" lon="12.1032345"><ele>324.59999999999997</ele><time>2026-04-01T08:43:21.542Z</time></trkpt><trkpt lat="43.0338183" lon="12.1031448"><ele>326.2</ele><time>2026-04-01T08:43:22.542Z</time></trkpt><trkpt lat="43.0337788" lon="12.1030621"><ele>327.8</ele><time>2026-04-01T08:43:23.542Z</time></trkpt><trkpt lat="43.0337616" lon="12.1029299"><ele>329.4</ele><time>2026-04-01T08:43:24.543Z</time></trkpt><trkpt lat="43.0337847" lon="12.1027902"><ele>331.0</ele><time>2026-04-01T08:43:25.542Z</time></trkpt><trkpt lat="43.0338961" lon="12.1026901"><ele>331.0</ele><time>2026-04-01T08:43:26.542Z</time></trkpt><trkpt lat="43.0339426" lon="12.1026022"><ele>331.0</ele><time>2026-04-01T08:43:27.543Z</time></trkpt><trkpt lat="43.0339825" lon="12.1025171"><ele>331.0</ele><time>2026-04-01T08:43:28.542Z</time></trkpt><trkpt lat="43.0339842" lon="12.1023843"><ele>331.0</ele><time>2026-04-01T08:43:30.543Z</time></trkpt><trkpt lat="43.0338624" lon="12.1024255"><ele>331.0</ele><time>2026-04-01T08:43:33.542Z</time></trkpt><trkpt lat="43.0338122" lon="12.1024929"><ele>331.0</ele><time>2026-04-01T08:43:34.541Z</time></trkpt><trkpt lat="43.0337493" lon="12.1025809"><ele>331.0</ele><time>2026-04-01T08:43:35.542Z</time></trkpt><trkpt lat="43.0336833" lon="12.1026702"><ele>331.0</ele><time>2026-04-01T08:43:36.543Z</time></trkpt><trkpt lat="43.0335801" lon="12.1027914"><ele>331.0</ele><time>2026-04-01T08:43:37.543Z</time></trkpt><trkpt lat="43.0334863" lon="12.1029064"><ele>331.0</ele><time>2026-04-01T08:43:38.541Z</time></trkpt><trkpt lat="43.0333488" lon="12.1030735"><ele>334.3333333333333</ele><time>2026-04-01T08:43:39.543Z</time></trkpt><trkpt lat="43.0332182" lon="12.1032229"><ele>337.6666666666667</ele><time>2026-04-01T08:43:40.543Z</time></trkpt><trkpt lat="43.0330937" lon="12.1033795"><ele>341.0</ele><time>2026-04-01T08:43:41.543Z</time></trkpt><trkpt lat="43.0329622" lon="12.103534"><ele>341.0</ele><time>2026-04-01T08:43:42.543Z</time></trkpt><trkpt lat="43.0328375" lon="12.1036867"><ele>341.0</ele><time>2026-04-01T08:43:43.541Z</time></trkpt><trkpt lat="43.0327215" lon="12.1038245"><ele>341.0</ele><time>2026-04-01T08:43:44.545Z</time></trkpt><trkpt lat="43.0326031" lon="12.1039724"><ele>338.0</ele><time>2026-04-01T08:43:45.542Z</time></trkpt><trkpt lat="43.0324758" lon="12.1041187"><ele>335.0</ele><time>2026-04-01T08:43:46.542Z</time></trkpt><trkpt lat="43.0323448" lon="12.1042756"><ele>332.0</ele><time>2026-04-01T08:43:47.543Z</time></trkpt><trkpt lat="43.0322172" lon="12.1044482"><ele>335.6666666666667</ele><time>2026-04-01T08:43:48.543Z</time></trkpt><trkpt lat="43.0320926" lon="12.1046435"><ele>339.3333333333333</ele><time>2026-04-01T08:43:49.544Z</time></trkpt><trkpt lat="43.0319574" lon="12.1048479"><ele>343.0</ele><time>2026-04-01T08:43:50.543Z</time></trkpt><trkpt lat="43.0318238" lon="12.1050578"><ele>343.0</ele><time>2026-04-01T08:43:51.541Z</time></trkpt><trkpt lat="43.0316794" lon="12.1052787"><ele>343.0</ele><time>2026-04-01T08:43:52.544Z</time></trkpt><trkpt lat="43.0315388" lon="12.1055146"><ele>343.0</ele><time>2026-04-01T08:43:53.542Z</time></trkpt><trkpt lat="43.0313889" lon="12.1057419"><ele>349.0</ele><time>2026-04-01T08:43:54.542Z</time></trkpt><trkpt lat="43.031238" lon="12.1059746"><ele>355.0</ele><time>2026-04-01T08:43:55.544Z</time></trkpt><trkpt lat="43.0310598" lon="12.1061904"><ele>355.0</ele><time>2026-04-01T08:43:56.544Z</time></trkpt><trkpt lat="43.0309117" lon="12.1063969"><ele>355.0</ele><time>2026-04-01T08:43:57.541Z</time></trkpt><trkpt lat="43.0307585" lon="12.1066002"><ele>355.0</ele><time>2026-04-01T08:43:58.542Z</time></trkpt><trkpt lat="43.0306206" lon="12.1067452"><ele>357.66666666666663</ele><time>2026-04-01T08:43:59.543Z</time></trkpt><trkpt lat="43.0304712" lon="12.1069055"><ele>360.3333333333333</ele><time>2026-04-01T08:44:00.542Z</time></trkpt><trkpt lat="43.0303388" lon="12.1070758"><ele>363.0</ele><time>2026-04-01T08:44:01.543Z</time></trkpt><trkpt lat="43.0302373" lon="12.1072242"><ele>363.0</ele><time>2026-04-01T08:44:02.542Z</time></trkpt><trkpt lat="43.0301416" lon="12.1073351"><ele>363.0</ele><time>2026-04-01T08:44:03.543Z</time></trkpt><trkpt lat="43.030055" lon="12.1073891"><ele>363.0</ele><time>2026-04-01T08:44:04.542Z</time></trkpt><trkpt lat="43.0299588" lon="12.1074062"><ele>363.0</ele><time>2026-04-01T08:44:05.542Z</time></trkpt><trkpt lat="43.0298794" lon="12.1073749"><ele>363.0</ele><time>2026-04-01T08:44:06.542Z</time></trkpt><trkpt lat="43.0298119" lon="12.1072964"><ele>363.5</ele><time>2026-04-01T08:44:07.543Z</time></trkpt><trkpt lat="43.0297616" lon="12.1071744"><ele>364.0</ele><time>2026-04-01T08:44:08.542Z</time></trkpt><trkpt lat="43.0297078" lon="12.1070104"><ele>364.5</ele><time>2026-04-01T08:44:09.542Z</time></trkpt><trkpt lat="43.0296713" lon="12.1068232"><ele>365.0</ele><time>2026-04-01T08:44:10.542Z</time></trkpt><trkpt lat="43.0296595" lon="12.1066069"><ele>368.6666666666667</ele><time>2026-04-01T08:44:11.542Z</time></trkpt><trkpt lat="43.0296631" lon="12.1063779"><ele>372.3333333333333</ele><time>2026-04-01T08:44:12.541Z</time></trkpt><trkpt lat="43.0297023" lon="12.1061368"><ele>376.0</ele><time>2026-04-01T08:44:13.543Z</time></trkpt><trkpt lat="43.029767" lon="12.105888"><ele>381.0</ele><time>2026-04-01T08:44:14.542Z</time></trkpt><trkpt lat="43.0298316" lon="12.10563"><ele>386.0</ele><time>2026-04-01T08:44:15.543Z</time></trkpt><trkpt lat="43.029894" lon="12.1054037"><ele>391.0</ele><time>2026-04-01T08:44:16.543Z</time></trkpt><trkpt lat="43.0299591" lon="12.1052183"><ele>392.25</ele><time>2026-04-01T08:44:17.544Z</time></trkpt><trkpt lat="43.0300367" lon="12.1050539"><ele>393.5</ele><time>2026-04-01T08:44:18.542Z</time></trkpt><trkpt lat="43.030107" lon="12.1048977"><ele>394.75</ele><time>2026-04-01T08:44:19.543Z</time></trkpt><trkpt lat="43.0301688" lon="12.1047248"><ele>396.0</ele><time>2026-04-01T08:44:20.543Z</time></trkpt><trkpt lat="43.030217" lon="12.104541"><ele>396.0</ele><time>2026-04-01T08:44:21.544Z</time></trkpt><trkpt lat="43.030264" lon="12.1043443"><ele>396.0</ele><time>2026-04-01T08:44:22.543Z</time></trkpt><trkpt lat="43.0303094" lon="12.1041559"><ele>396.0</ele><time>2026-04-01T08:44:23.542Z</time></trkpt><trkpt lat="43.0303353" lon="12.1039836"><ele>396.0</ele><time>2026-04-01T08:44:24.542Z</time></trkpt><trkpt lat="43.0303518" lon="12.1038452"><ele>400.0</ele><time>2026-04-01T08:44:25.544Z</time></trkpt><trkpt lat="43.0303903" lon="12.1037186"><ele>404.0</ele><time>2026-04-01T08:44:26.544Z</time></trkpt><trkpt lat="43.0304356" lon="12.1035992"><ele>408.0</ele><time>2026-04-01T08:44:27.543Z</time></trkpt><trkpt lat="43.0305125" lon="12.1034868"><ele>412.0</ele><time>2026-04-01T08:44:28.542Z</time></trkpt><trkpt lat="43.0305662" lon="12.1033759"><ele>416.0</ele><time>2026-04-01T08:44:29.543Z</time></trkpt><trkpt lat="43.0306066" lon="12.1032742"><ele>416.6</ele><time>2026-04-01T08:44:30.542Z</time></trkpt><trkpt lat="43.0306219" lon="12.1031539"><ele>417.20000000000005</ele><time>2026-04-01T08:44:31.542Z</time></trkpt><trkpt lat="43.0306203" lon="12.103042"><ele>417.79999999999995</ele><time>2026-04-01T08:44:32.542Z</time></trkpt><trkpt lat="43.0305913" lon="12.1029267"><ele>418.4</ele><time>2026-04-01T08:44:33.542Z</time></trkpt><trkpt lat="43.0305446" lon="12.1028171"><ele>419.0</ele><time>2026-04-01T08:44:34.542Z</time></trkpt><trkpt lat="43.0304886" lon="12.1027063"><ele>419.0</ele><time>2026-04-01T08:44:35.543Z</time></trkpt><trkpt lat="43.0304251" lon="12.1025964"><ele>419.0</ele><time>2026-04-01T08:44:36.543Z</time></trkpt><trkpt lat="43.0303589" lon="12.1024821"><ele>419.0</ele><time>2026-04-01T08:44:37.541Z</time></trkpt><trkpt lat="43.0302803" lon="12.1023765"><ele>419.0</ele><time>2026-04-01T08:44:38.543Z</time></trkpt><trkpt lat="43.0301897" lon="12.1022939"><ele>419.0</ele><time>2026-04-01T08:44:39.543Z</time></trkpt><trkpt lat="43.0300862" lon="12.1021927"><ele>419.0</ele><time>2026-04-01T08:44:40.542Z</time></trkpt><trkpt lat="43.0299662" lon="12.1021293"><ele>419.0</ele><time>2026-04-01T08:44:41.542Z</time></trkpt><trkpt lat="43.0298644" lon="12.1020542"><ele>419.0</ele><time>2026-04-01T08:44:42.542Z</time></trkpt><trkpt lat="43.0297822" lon="12.1020027"><ele>419.0</ele><time>2026-04-01T08:44:43.541Z</time></trkpt><trkpt lat="43.0297144" lon="12.1019439"><ele>419.0</ele><time>2026-04-01T08:44:44.543Z</time></trkpt><trkpt lat="43.0296629" lon="12.1018733"><ele>418.99999999999994</ele><time>2026-04-01T08:44:45.543Z</time></trkpt><trkpt lat="43.029608" lon="12.1018109"><ele>419.0</ele><time>2026-04-01T08:44:46.543Z</time></trkpt><trkpt lat="43.0295524" lon="12.1017041"><ele>419.0</ele><time>2026-04-01T08:44:48.541Z</time></trkpt><trkpt lat="43.0295046" lon="12.1015743"><ele>419.0</ele><time>2026-04-01T08:44:50.544Z</time></trkpt><trkpt lat="43.0294792" lon="12.1014891"><ele>418.99999999999994</ele><time>2026-04-01T08:44:51.543Z</time></trkpt><trkpt lat="43.0294561" lon="12.1013448"><ele>419.0</ele><time>2026-04-01T08:44:53.544Z</time></trkpt><trkpt lat="43.0294329" lon="12.1012341"><ele>419.2857142857143</ele><time>2026-04-01T08:44:55.543Z</time></trkpt><trkpt lat="43.0294337" lon="12.10114"><ele>419.57142857142856</ele><time>2026-04-01T08:44:57.543Z</time></trkpt><trkpt lat="43.0294394" lon="12.1010494"><ele>419.8571428571429</ele><time>2026-04-01T08:44:59.543Z</time></trkpt><trkpt lat="43.0294651" lon="12.1009396"><ele>420.1428571428571</ele><time>2026-04-01T08:45:01.542Z</time></trkpt><trkpt lat="43.0294864" lon="12.1008539"><ele>420.42857142857144</ele><time>2026-04-01T08:45:02.542Z</time></trkpt><trkpt lat="43.0295124" lon="12.1007667"><ele>420.7142857142857</ele><time>2026-04-01T08:45:03.543Z</time></trkpt><trkpt lat="43.0295314" lon="12.1006667"><ele>421.0</ele><time>2026-04-01T08:45:04.543Z</time></trkpt><trkpt lat="43.0295489" lon="12.1005622"><ele>421.50000000000006</ele><time>2026-04-01T08:45:05.542Z</time></trkpt><trkpt lat="43.0295606" lon="12.1004556"><ele>422.0</ele><time>2026-04-01T08:45:06.543Z</time></trkpt><trkpt lat="43.0295686" lon="12.1003412"><ele>422.5</ele><time>2026-04-01T08:45:07.543Z</time></trkpt><trkpt lat="43.0295636" lon="12.1002221"><ele>423.0</ele><time>2026-04-01T08:45:08.542Z</time></trkpt><trkpt lat="43.0295605" lon="12.1001162"><ele>423.50000000000006</ele><time>2026-04-01T08:45:09.542Z</time></trkpt><trkpt lat="43.0295566" lon="12.1000182"><ele>424.0</ele><time>2026-04-01T08:45:10.542Z</time></trkpt><trkpt lat="43.0295544" lon="12.0999305"><ele>424.83333333333337</ele><time>2026-04-01T08:45:11.544Z</time></trkpt><trkpt lat="43.0295341" lon="12.0997856"><ele>425.6666666666667</ele><time>2026-04-01T08:45:13.543Z</time></trkpt><trkpt lat="43.0295022" lon="12.0996592"><ele>426.5</ele><time>2026-04-01T08:45:15.544Z</time></trkpt><trkpt lat="43.02947" lon="12.0995303"><ele>427.33333333333337</ele><time>2026-04-01T08:45:17.543Z</time></trkpt><trkpt lat="43.0294555" lon="12.0994443"><ele>428.1666666666667</ele><time>2026-04-01T08:45:18.543Z</time></trkpt><trkpt lat="43.0294493" lon="12.0993461"><ele>429.0</ele><time>2026-04-01T08:45:19.542Z</time></trkpt><trkpt lat="43.0294547" lon="12.0992468"><ele>429.0</ele><time>2026-04-01T08:45:20.544Z</time></trkpt><trkpt lat="43.0294567" lon="12.0991416"><ele>429.0</ele><time>2026-04-01T08:45:21.542Z</time></trkpt><trkpt lat="43.029474" lon="12.0990378"><ele>429.0</ele><time>2026-04-01T08:45:22.542Z</time></trkpt><trkpt lat="43.0294868" lon="12.0989528"><ele>429.0</ele><time>2026-04-01T08:45:23.543Z</time></trkpt><trkpt lat="43.0294947" lon="12.0987851"><ele>429.0</ele><time>2026-04-01T08:45:25.542Z</time></trkpt><trkpt lat="43.0295021" lon="12.0986978"><ele>429.0</ele><time>2026-04-01T08:45:26.542Z</time></trkpt><trkpt lat="43.0295174" lon="12.0986142"><ele>429.42857142857144</ele><time>2026-04-01T08:45:27.542Z</time></trkpt><trkpt lat="43.0295329" lon="12.0985301"><ele>429.8571428571429</ele><time>2026-04-01T08:45:28.543Z</time></trkpt><trkpt lat="43.0295402" lon="12.0984404"><ele>430.2857142857143</ele><time>2026-04-01T08:45:29.542Z</time></trkpt><trkpt lat="43.0295583" lon="12.0983475"><ele>430.7142857142857</ele><time>2026-04-01T08:45:30.543Z</time></trkpt><trkpt lat="43.0295709" lon="12.0982572"><ele>431.1428571428571</ele><time>2026-04-01T08:45:31.543Z</time></trkpt><trkpt lat="43.0295648" lon="12.098169"><ele>431.57142857142856</ele><time>2026-04-01T08:45:32.544Z</time></trkpt><trkpt lat="43.0295709" lon="12.0980434"><ele>432.0</ele><time>2026-04-01T08:45:33.544Z</time></trkpt><trkpt lat="43.02958" lon="12.0979379"><ele>430.3333333333333</ele><time>2026-04-01T08:45:34.544Z</time></trkpt><trkpt lat="43.0295524" lon="12.0978336"><ele>428.66666666666663</ele><time>2026-04-01T08:45:35.542Z</time></trkpt><trkpt lat="43.0295021" lon="12.0977591"><ele>427.0</ele><time>2026-04-01T08:45:36.542Z</time></trkpt><trkpt lat="43.0294436" lon="12.0976891"><ele>425.3333333333333</ele><time>2026-04-01T08:45:37.543Z</time></trkpt><trkpt lat="43.0293813" lon="12.0976021"><ele>423.66666666666663</ele><time>2026-04-01T08:45:38.542Z</time></trkpt><trkpt lat="43.0292966" lon="12.0975082"><ele>422.0</ele><time>2026-04-01T08:45:39.542Z</time></trkpt><trkpt lat="43.0292225" lon="12.0974294"><ele>422.3333333333333</ele><time>2026-04-01T08:45:40.543Z</time></trkpt><trkpt lat="43.0291478" lon="12.0973628"><ele>422.66666666666663</ele><time>2026-04-01T08:45:41.542Z</time></trkpt><trkpt lat="43.0290958" lon="12.0972962"><ele>423.0</ele><time>2026-04-01T08:45:42.543Z</time></trkpt><trkpt lat="43.0290257" lon="12.0972481"><ele>423.33333333333337</ele><time>2026-04-01T08:45:43.543Z</time></trkpt><trkpt lat="43.0289696" lon="12.0972058"><ele>423.6666666666667</ele><time>2026-04-01T08:45:44.542Z</time></trkpt><trkpt lat="43.0289066" lon="12.0972297"><ele>424.0</ele><time>2026-04-01T08:45:47.543Z</time></trkpt><trkpt lat="43.0288155" lon="12.0972973"><ele>424.1666666666667</ele><time>2026-04-01T08:45:49.543Z</time></trkpt><trkpt lat="43.0287113" lon="12.0973995"><ele>424.33333333333337</ele><time>2026-04-01T08:45:51.544Z</time></trkpt><trkpt lat="43.0286553" lon="12.0974409"><ele>424.5</ele><time>2026-04-01T08:45:52.543Z</time></trkpt><trkpt lat="43.0285934" lon="12.0973922"><ele>424.66666666666663</ele><time>2026-04-01T08:45:53.543Z</time></trkpt><trkpt lat="43.0285196" lon="12.0973621"><ele>424.8333333333333</ele><time>2026-04-01T08:45:55.543Z</time></trkpt><trkpt lat="43.0284577" lon="12.0973242"><ele>425.0</ele><time>2026-04-01T08:45:57.542Z</time></trkpt><trkpt lat="43.0283786" lon="12.0973623"><ele>426.99999999999994</ele><time>2026-04-01T08:45:59.542Z</time></trkpt><trkpt lat="43.0282938" lon="12.0973735"><ele>429.0</ele><time>2026-04-01T08:46:01.543Z</time></trkpt><trkpt lat="43.0282299" lon="12.097362"><ele>431.0</ele><time>2026-04-01T08:46:02.542Z</time></trkpt><trkpt lat="43.0281062" lon="12.0973471"><ele>433.0</ele><time>2026-04-01T08:46:04.544Z</time></trkpt><trkpt lat="43.0280307" lon="12.0973542"><ele>434.99999999999994</ele><time>2026-04-01T08:46:05.543Z</time></trkpt><trkpt lat="43.0279612" lon="12.0973448"><ele>437.0</ele><time>2026-04-01T08:46:06.544Z</time></trkpt><trkpt lat="43.0278298" lon="12.0973467"><ele>437.0</ele><time>2026-04-01T08:46:08.543Z</time></trkpt><trkpt lat="43.0277541" lon="12.0973385"><ele>437.00000000000006</ele><time>2026-04-01T08:46:09.543Z</time></trkpt><trkpt lat="43.0276181" lon="12.0973383"><ele>437.00000000000006</ele><time>2026-04-01T08:46:11.542Z</time></trkpt><trkpt lat="43.0275421" lon="12.0973252"><ele>437.0</ele><time>2026-04-01T08:46:12.544Z</time></trkpt><trkpt lat="43.027471" lon="12.0973049"><ele>437.0</ele><time>2026-04-01T08:46:13.544Z</time></trkpt><trkpt lat="43.0273747" lon="12.0972832"><ele>436.99999999999994</ele><time>2026-04-01T08:46:15.544Z</time></trkpt><trkpt lat="43.0273016" lon="12.0972583"><ele>437.0</ele><time>2026-04-01T08:46:18.543Z</time></trkpt><trkpt lat="43.0273505" lon="12.0973197"><ele>437.0</ele><time>2026-04-01T08:46:22.543Z</time></trkpt><trkpt lat="43.0274158" lon="12.0973145"><ele>437.0</ele><time>2026-04-01T08:46:23.543Z</time></trkpt><trkpt lat="43.0275148" lon="12.0973114"><ele>436.99999999999994</ele><time>2026-04-01T08:46:24.542Z</time></trkpt><trkpt lat="43.0276312" lon="12.0973249"><ele>437.0</ele><time>2026-04-01T08:46:25.543Z</time></trkpt><trkpt lat="43.0277779" lon="12.0973412"><ele>437.0</ele><time>2026-04-01T08:46:26.541Z</time></trkpt><trkpt lat="43.0279255" lon="12.0973561"><ele>437.0</ele><time>2026-04-01T08:46:27.543Z</time></trkpt><trkpt lat="43.0280547" lon="12.0973731"><ele>437.0</ele><time>2026-04-01T08:46:28.543Z</time></trkpt><trkpt lat="43.0281649" lon="12.0973917"><ele>437.0</ele><time>2026-04-01T08:46:29.543Z</time></trkpt><trkpt lat="43.0282803" lon="12.0974014"><ele>437.0</ele><time>2026-04-01T08:46:30.543Z</time></trkpt><trkpt lat="43.0283937" lon="12.0974402"><ele>437.00000000000006</ele><time>2026-04-01T08:46:32.543Z</time></trkpt><trkpt lat="43.0284615" lon="12.0974553"><ele>437.00000000000006</ele><time>2026-04-01T08:46:33.543Z</time></trkpt><trkpt lat="43.0285526" lon="12.0973864"><ele>437.0</ele><time>2026-04-01T08:46:36.544Z</time></trkpt><trkpt lat="43.0284743" lon="12.097314"><ele>437.0</ele><time>2026-04-01T08:46:41.544Z</time></trkpt><trkpt lat="43.0284081" lon="12.0972802"><ele>436.99999999999994</ele><time>2026-04-01T08:46:43.542Z</time></trkpt><trkpt lat="43.0283799" lon="12.0971421"><ele>437.0</ele><time>2026-04-01T08:46:45.543Z</time></trkpt><trkpt lat="43.0284054" lon="12.0970317"><ele>437.0</ele><time>2026-04-01T08:46:47.544Z</time></trkpt><trkpt lat="43.0283961" lon="12.0968945"><ele>437.0</ele><time>2026-04-01T08:46:49.543Z</time></trkpt><trkpt lat="43.0283469" lon="12.0968185"><ele>436.99999999999994</ele><time>2026-04-01T08:46:51.542Z</time></trkpt><trkpt lat="43.0283327" lon="12.0967103"><ele>437.0</ele><time>2026-04-01T08:46:53.543Z</time></trkpt><trkpt lat="43.0284113" lon="12.0967104"><ele>439.6</ele><time>2026-04-01T08:46:54.544Z</time></trkpt><trkpt lat="43.0284715" lon="12.0965794"><ele>442.20000000000005</ele><time>2026-04-01T08:46:56.544Z</time></trkpt><trkpt lat="43.0285108" lon="12.0964504"><ele>444.8</ele><time>2026-04-01T08:46:58.544Z</time></trkpt><trkpt lat="43.0284747" lon="12.0962995"><ele>447.4</ele><time>2026-04-01T08:47:00.543Z</time></trkpt><trkpt lat="43.0284336" lon="12.096234"><ele>450.0</ele><time>2026-04-01T08:47:01.543Z</time></trkpt><trkpt lat="43.0283616" lon="12.0961257"><ele>452.2</ele><time>2026-04-01T08:47:03.544Z</time></trkpt><trkpt lat="43.0282965" lon="12.0960357"><ele>454.4</ele><time>2026-04-01T08:47:04.543Z</time></trkpt><trkpt lat="43.0281839" lon="12.0959688"><ele>456.6</ele><time>2026-04-01T08:47:05.542Z</time></trkpt><trkpt lat="43.028107" lon="12.0959277"><ele>458.8</ele><time>2026-04-01T08:47:06.544Z</time></trkpt><trkpt lat="43.0280262" lon="12.0958442"><ele>461.0</ele><time>2026-04-01T08:47:07.544Z</time></trkpt><trkpt lat="43.0278711" lon="12.0958241"><ele>461.0</ele><time>2026-04-01T08:47:08.543Z</time></trkpt><trkpt lat="43.027739" lon="12.0957541"><ele>461.0</ele><time>2026-04-01T08:47:09.543Z</time></trkpt><trkpt lat="43.0276064" lon="12.0956943"><ele>461.0</ele><time>2026-04-01T08:47:10.543Z</time></trkpt><trkpt lat="43.0274772" lon="12.0956811"><ele>461.0</ele><time>2026-04-01T08:47:11.544Z</time></trkpt><trkpt lat="43.0273356" lon="12.0956176"><ele>465.75</ele><time>2026-04-01T08:47:12.544Z</time></trkpt><trkpt lat="43.0271976" lon="12.0955689"><ele>470.5</ele><time>2026-04-01T08:47:13.543Z</time></trkpt><trkpt lat="43.0270711" lon="12.0955344"><ele>475.25</ele><time>2026-04-01T08:47:14.542Z</time></trkpt><trkpt lat="43.0270117" lon="12.0954695"><ele>480.0</ele><time>2026-04-01T08:47:15.543Z</time></trkpt><trkpt lat="43.026908" lon="12.0953833"><ele>480.0</ele><time>2026-04-01T08:47:16.543Z</time></trkpt><trkpt lat="43.0268239" lon="12.095318"><ele>480.0</ele><time>2026-04-01T08:47:17.543Z</time></trkpt><trkpt lat="43.0267598" lon="12.0952191"><ele>480.0</ele><time>2026-04-01T08:47:18.545Z</time></trkpt><trkpt lat="43.0267298" lon="12.0950179"><ele>480.0</ele><time>2026-04-01T08:47:19.544Z</time></trkpt><trkpt lat="43.0266752" lon="12.0948906"><ele>481.0</ele><time>2026-04-01T08:47:20.544Z</time></trkpt><trkpt lat="43.0266138" lon="12.0947874"><ele>482.0</ele><time>2026-04-01T08:47:21.544Z</time></trkpt><trkpt lat="43.0265196" lon="12.0946369"><ele>483.0</ele><time>2026-04-01T08:47:22.543Z</time></trkpt><trkpt lat="43.0264524" lon="12.0945195"><ele>484.0</ele><time>2026-04-01T08:47:23.542Z</time></trkpt><trkpt lat="43.0263787" lon="12.0944236"><ele>484.0</ele><time>2026-04-01T08:47:24.543Z</time></trkpt><trkpt lat="43.0263148" lon="12.0943546"><ele>483.99999999999994</ele><time>2026-04-01T08:47:25.543Z</time></trkpt><trkpt lat="43.0262592" lon="12.0942846"><ele>484.0</ele><time>2026-04-01T08:47:26.543Z</time></trkpt><trkpt lat="43.0262067" lon="12.0942134"><ele>484.0</ele><time>2026-04-01T08:47:27.542Z</time></trkpt><trkpt lat="43.0261465" lon="12.094156"><ele>483.99999999999994</ele><time>2026-04-01T08:47:28.543Z</time></trkpt><trkpt lat="43.0260978" lon="12.0940997"><ele>484.0</ele><time>2026-04-01T08:47:29.543Z</time></trkpt><trkpt lat="43.0260519" lon="12.0940311"><ele>484.0</ele><time>2026-04-01T08:47:30.543Z</time></trkpt><trkpt lat="43.0259997" lon="12.0939654"><ele>484.33333333333337</ele><time>2026-04-01T08:47:31.543Z</time></trkpt><trkpt lat="43.025956" lon="12.0938963"><ele>484.6666666666667</ele><time>2026-04-01T08:47:32.544Z</time></trkpt><trkpt lat="43.0259181" lon="12.0938152"><ele>485.0</ele><time>2026-04-01T08:47:33.543Z</time></trkpt><trkpt lat="43.0258843" lon="12.0937295"><ele>485.33333333333337</ele><time>2026-04-01T08:47:34.543Z</time></trkpt><trkpt lat="43.0258398" lon="12.0936439"><ele>485.6666666666667</ele><time>2026-04-01T08:47:35.545Z</time></trkpt><trkpt lat="43.0257796" lon="12.0935615"><ele>486.0</ele><time>2026-04-01T08:47:36.544Z</time></trkpt><trkpt lat="43.0257046" lon="12.0934671"><ele>486.0</ele><time>2026-04-01T08:47:37.542Z</time></trkpt><trkpt lat="43.0256468" lon="12.0933923"><ele>486.0</ele><time>2026-04-01T08:47:38.544Z</time></trkpt><trkpt lat="43.0255949" lon="12.0933299"><ele>486.0</ele><time>2026-04-01T08:47:39.543Z</time></trkpt><trkpt lat="43.0255417" lon="12.093276"><ele>486.0</ele><time>2026-04-01T08:47:40.543Z</time></trkpt><trkpt lat="43.0254953" lon="12.0932101"><ele>486.0</ele><time>2026-04-01T08:47:41.543Z</time></trkpt><trkpt lat="43.025421" lon="12.0931192"><ele>486.0</ele><time>2026-04-01T08:47:43.544Z</time></trkpt><trkpt lat="43.0253712" lon="12.0930333"><ele>486.0</ele><time>2026-04-01T08:47:45.543Z</time></trkpt><trkpt lat="43.0253371" lon="12.0929487"><ele>486.0</ele><time>2026-04-01T08:47:49.544Z</time></trkpt><trkpt lat="43.0254046" lon="12.0929404"><ele>486.0</ele><time>2026-04-01T08:47:56.544Z</time></trkpt><trkpt lat="43.0254656" lon="12.0930248"><ele>486.0</ele><time>2026-04-01T08:47:59.543Z</time></trkpt><trkpt lat="43.0255371" lon="12.0931065"><ele>486.0</ele><time>2026-04-01T08:48:01.544Z</time></trkpt><trkpt lat="43.0256285" lon="12.0931956"><ele>486.0</ele><time>2026-04-01T08:48:03.544Z</time></trkpt><trkpt lat="43.0257252" lon="12.0932792"><ele>486.4</ele><time>2026-04-01T08:48:05.544Z</time></trkpt><trkpt lat="43.0258164" lon="12.0933607"><ele>486.8</ele><time>2026-04-01T08:48:07.543Z</time></trkpt><trkpt lat="43.0259006" lon="12.0934087"><ele>487.19999999999993</ele><time>2026-04-01T08:48:09.545Z</time></trkpt><trkpt lat="43.0259669" lon="12.0934666"><ele>487.59999999999997</ele><time>2026-04-01T08:48:11.545Z</time></trkpt><trkpt lat="43.0260587" lon="12.093535"><ele>488.0</ele><time>2026-04-01T08:48:13.543Z</time></trkpt><trkpt lat="43.026124" lon="12.0936096"><ele>487.99999999999994</ele><time>2026-04-01T08:48:15.544Z</time></trkpt><trkpt lat="43.0261605" lon="12.0937132"><ele>488.0</ele><time>2026-04-01T08:48:18.544Z</time></trkpt><trkpt lat="43.0261416" lon="12.093801"><ele>488.0</ele><time>2026-04-01T09:02:34.545Z</time></trkpt><trkpt lat="43.0260607" lon="12.0938113"><ele>488.0</ele><time>2026-04-01T09:04:37.546Z</time></trkpt><trkpt lat="43.0260016" lon="12.0937525"><ele>487.99999999999994</ele><time>2026-04-01T09:04:39.548Z</time></trkpt><trkpt lat="43.0259371" lon="12.0936628"><ele>488.0</ele><time>2026-04-01T09:04:41.547Z</time></trkpt><trkpt lat="43.0258789" lon="12.0935642"><ele>487.59999999999997</ele><time>2026-04-01T09:04:43.547Z</time></trkpt><trkpt lat="43.0258094" lon="12.0934648"><ele>487.19999999999993</ele><time>2026-04-01T09:04:45.546Z</time></trkpt><trkpt lat="43.0257185" lon="12.0933671"><ele>486.8</ele><time>2026-04-01T09:04:47.547Z</time></trkpt><trkpt lat="43.0256357" lon="12.0932607"><ele>486.4</ele><time>2026-04-01T09:04:49.547Z</time></trkpt><trkpt lat="43.025565" lon="12.0931782"><ele>486.0</ele><time>2026-04-01T09:04:51.547Z</time></trkpt><trkpt lat="43.0255052" lon="12.09309"><ele>488.20000000000005</ele><time>2026-04-01T09:04:53.547Z</time></trkpt><trkpt lat="43.0254529" lon="12.0930082"><ele>490.40000000000003</ele><time>2026-04-01T09:04:55.548Z</time></trkpt><trkpt lat="43.025383" lon="12.0929485"><ele>492.6</ele><time>2026-04-01T09:04:57.547Z</time></trkpt><trkpt lat="43.0253108" lon="12.0928988"><ele>494.8</ele><time>2026-04-01T09:04:59.546Z</time></trkpt><trkpt lat="43.0252178" lon="12.0927955"><ele>497.0</ele><time>2026-04-01T09:05:01.546Z</time></trkpt><trkpt lat="43.0251325" lon="12.0926929"><ele>497.0</ele><time>2026-04-01T09:05:02.549Z</time></trkpt><trkpt lat="43.0250672" lon="12.0925927"><ele>497.00000000000006</ele><time>2026-04-01T09:05:03.547Z</time></trkpt><trkpt lat="43.0249955" lon="12.0924962"><ele>497.00000000000006</ele><time>2026-04-01T09:05:04.547Z</time></trkpt><trkpt lat="43.0249171" lon="12.0924084"><ele>497.0</ele><time>2026-04-01T09:05:05.548Z</time></trkpt><trkpt lat="43.0248428" lon="12.0923261"><ele>497.0</ele><time>2026-04-01T09:05:06.547Z</time></trkpt><trkpt lat="43.0247588" lon="12.0922466"><ele>498.0</ele><time>2026-04-01T09:05:07.547Z</time></trkpt><trkpt lat="43.0246785" lon="12.0921627"><ele>499.00000000000006</ele><time>2026-04-01T09:05:08.548Z</time></trkpt><trkpt lat="43.0245966" lon="12.0920702"><ele>500.00000000000006</ele><time>2026-04-01T09:05:09.547Z</time></trkpt><trkpt lat="43.0245127" lon="12.0919786"><ele>501.0</ele><time>2026-04-01T09:05:10.546Z</time></trkpt><trkpt lat="43.0244362" lon="12.0918982"><ele>502.0</ele><time>2026-04-01T09:05:11.547Z</time></trkpt><trkpt lat="43.0243473" lon="12.0918018"><ele>502.0</ele><time>2026-04-01T09:05:12.547Z</time></trkpt><trkpt lat="43.0242597" lon="12.0916938"><ele>502.00000000000006</ele><time>2026-04-01T09:05:13.547Z</time></trkpt><trkpt lat="43.0241923" lon="12.0916008"><ele>502.00000000000006</ele><time>2026-04-01T09:05:14.547Z</time></trkpt><trkpt lat="43.0241261" lon="12.0915191"><ele>502.0</ele><time>2026-04-01T09:05:15.547Z</time></trkpt><trkpt lat="43.0240653" lon="12.0914276"><ele>502.0</ele><time>2026-04-01T09:05:16.546Z</time></trkpt><trkpt lat="43.0239993" lon="12.0913474"><ele>503.0</ele><time>2026-04-01T09:05:17.547Z</time></trkpt><trkpt lat="43.0239256" lon="12.0912637"><ele>504.00000000000006</ele><time>2026-04-01T09:05:18.547Z</time></trkpt><trkpt lat="43.0238542" lon="12.0911845"><ele>505.00000000000006</ele><time>2026-04-01T09:05:19.548Z</time></trkpt><trkpt lat="43.0237758" lon="12.0911025"><ele>506.0</ele><time>2026-04-01T09:05:20.546Z</time></trkpt><trkpt lat="43.0237009" lon="12.0910557"><ele>507.0</ele><time>2026-04-01T09:05:21.547Z</time></trkpt><trkpt lat="43.0236188" lon="12.0910065"><ele>507.0</ele><time>2026-04-01T09:05:22.547Z</time></trkpt><trkpt lat="43.0235233" lon="12.0909636"><ele>507.00000000000006</ele><time>2026-04-01T09:05:23.546Z</time></trkpt><trkpt lat="43.0234259" lon="12.0909149"><ele>507.00000000000006</ele><time>2026-04-01T09:05:24.547Z</time></trkpt><trkpt lat="43.0233169" lon="12.0908691"><ele>507.0</ele><time>2026-04-01T09:05:25.547Z</time></trkpt><trkpt lat="43.0232339" lon="12.0908522"><ele>507.0</ele><time>2026-04-01T09:05:26.548Z</time></trkpt><trkpt lat="43.0231411" lon="12.0908209"><ele>506.6</ele><time>2026-04-01T09:05:27.546Z</time></trkpt><trkpt lat="43.0230458" lon="12.0907942"><ele>506.20000000000005</ele><time>2026-04-01T09:05:28.547Z</time></trkpt><trkpt lat="43.0229717" lon="12.0907496"><ele>505.8</ele><time>2026-04-01T09:05:29.547Z</time></trkpt><trkpt lat="43.0229012" lon="12.0907059"><ele>505.4</ele><time>2026-04-01T09:05:30.547Z</time></trkpt><trkpt lat="43.0228242" lon="12.0906526"><ele>505.0</ele><time>2026-04-01T09:05:31.547Z</time></trkpt><trkpt lat="43.0227315" lon="12.0905667"><ele>508.5</ele><time>2026-04-01T09:05:32.727Z</time></trkpt><trkpt lat="43.0225354" lon="12.0902471"><ele>512.0</ele><time>2026-04-01T09:05:35.727Z</time></trkpt><trkpt lat="43.0224774" lon="12.0902017"><ele>515.5</ele><time>2026-04-01T09:05:36.727Z</time></trkpt><trkpt lat="43.0224241" lon="12.0901333"><ele>519.0</ele><time>2026-04-01T09:05:37.726Z</time></trkpt><trkpt lat="43.0225073" lon="12.0901658"><ele>521.0</ele><time>2026-04-01T09:05:38.726Z</time></trkpt><trkpt lat="43.0223389" lon="12.0900571"><ele>523.0</ele><time>2026-04-01T09:05:40.547Z</time></trkpt><trkpt lat="43.0222533" lon="12.0899905"><ele>525.0</ele><time>2026-04-01T09:05:41.547Z</time></trkpt><trkpt lat="43.0221687" lon="12.0899452"><ele>527.0</ele><time>2026-04-01T09:05:42.547Z</time></trkpt><trkpt lat="43.0220843" lon="12.0898821"><ele>530.25</ele><time>2026-04-01T09:05:43.547Z</time></trkpt><trkpt lat="43.0219367" lon="12.0897641"><ele>533.5</ele><time>2026-04-01T09:05:44.548Z</time></trkpt><trkpt lat="43.0218411" lon="12.0896642"><ele>536.75</ele><time>2026-04-01T09:05:45.547Z</time></trkpt><trkpt lat="43.0217547" lon="12.0895669"><ele>540.0</ele><time>2026-04-01T09:05:46.548Z</time></trkpt><trkpt lat="43.0216878" lon="12.0894474"><ele>540.5</ele><time>2026-04-01T09:05:47.548Z</time></trkpt><trkpt lat="43.0216082" lon="12.0893296"><ele>541.0</ele><time>2026-04-01T09:05:48.547Z</time></trkpt><trkpt lat="43.0215293" lon="12.0891961"><ele>541.5</ele><time>2026-04-01T09:05:49.547Z</time></trkpt><trkpt lat="43.0214556" lon="12.0890907"><ele>542.0</ele><time>2026-04-01T09:05:50.547Z</time></trkpt><trkpt lat="43.0213856" lon="12.0889774"><ele>545.3333333333333</ele><time>2026-04-01T09:05:51.547Z</time></trkpt><trkpt lat="43.0213279" lon="12.0888813"><ele>548.6666666666666</ele><time>2026-04-01T09:05:52.547Z</time></trkpt><trkpt lat="43.0212673" lon="12.088834"><ele>552.0</ele><time>2026-04-01T09:05:53.546Z</time></trkpt><trkpt lat="43.021207" lon="12.0887645"><ele>555.3333333333334</ele><time>2026-04-01T09:05:54.547Z</time></trkpt><trkpt lat="43.0211474" lon="12.0887008"><ele>558.6666666666667</ele><time>2026-04-01T09:05:55.547Z</time></trkpt><trkpt lat="43.0210296" lon="12.0886429"><ele>562.0</ele><time>2026-04-01T09:05:57.547Z</time></trkpt><trkpt lat="43.0208962" lon="12.0885805"><ele>562.0</ele><time>2026-04-01T09:05:59.549Z</time></trkpt><trkpt lat="43.0208268" lon="12.0885236"><ele>562.0</ele><time>2026-04-01T09:06:00.546Z</time></trkpt><trkpt lat="43.0207684" lon="12.0884647"><ele>562.0</ele><time>2026-04-01T09:06:01.547Z</time></trkpt><trkpt lat="43.0207033" lon="12.0884195"><ele>562.0</ele><time>2026-04-01T09:06:02.547Z</time></trkpt><trkpt lat="43.0206248" lon="12.0883783"><ele>562.0</ele><time>2026-04-01T09:06:03.547Z</time></trkpt><trkpt lat="43.0205492" lon="12.0883393"><ele>562.0</ele><time>2026-04-01T09:06:04.548Z</time></trkpt><trkpt lat="43.0204376" lon="12.0883"><ele>562.8333333333334</ele><time>2026-04-01T09:06:05.549Z</time></trkpt><trkpt lat="43.0203459" lon="12.0882688"><ele>563.6666666666667</ele><time>2026-04-01T09:06:06.547Z</time></trkpt><trkpt lat="43.0202627" lon="12.0882263"><ele>564.5</ele><time>2026-04-01T09:06:07.547Z</time></trkpt><trkpt lat="43.0201906" lon="12.0881716"><ele>565.3333333333334</ele><time>2026-04-01T09:06:08.548Z</time></trkpt><trkpt lat="43.0201242" lon="12.0881295"><ele>566.1666666666666</ele><time>2026-04-01T09:06:09.547Z</time></trkpt><trkpt lat="43.0200505" lon="12.088083"><ele>567.0</ele><time>2026-04-01T09:06:10.547Z</time></trkpt><trkpt lat="43.0199953" lon="12.0880304"><ele>566.0</ele><time>2026-04-01T09:06:11.547Z</time></trkpt><trkpt lat="43.0199336" lon="12.0879742"><ele>565.0</ele><time>2026-04-01T09:06:12.547Z</time></trkpt><trkpt lat="43.0198932" lon="12.0879062"><ele>564.0</ele><time>2026-04-01T09:06:13.548Z</time></trkpt><trkpt lat="43.0198666" lon="12.0877077"><ele>563.0</ele><time>2026-04-01T09:06:15.548Z</time></trkpt><trkpt lat="43.0198513" lon="12.0876057"><ele>562.0</ele><time>2026-04-01T09:06:16.547Z</time></trkpt><trkpt lat="43.0198593" lon="12.0874729"><ele>564.8000000000001</ele><time>2026-04-01T09:06:17.548Z</time></trkpt><trkpt lat="43.0198569" lon="12.0873369"><ele>567.6</ele><time>2026-04-01T09:06:18.548Z</time></trkpt><trkpt lat="43.0198239" lon="12.0872143"><ele>570.4000000000001</ele><time>2026-04-01T09:06:19.547Z</time></trkpt><trkpt lat="43.019788" lon="12.0871035"><ele>573.2</ele><time>2026-04-01T09:06:20.548Z</time></trkpt><trkpt lat="43.0197418" lon="12.0869768"><ele>576.0</ele><time>2026-04-01T09:06:21.547Z</time></trkpt><trkpt lat="43.0196793" lon="12.0868505"><ele>576.0</ele><time>2026-04-01T09:06:22.548Z</time></trkpt><trkpt lat="43.0196136" lon="12.0867358"><ele>576.0</ele><time>2026-04-01T09:06:23.546Z</time></trkpt><trkpt lat="43.0195328" lon="12.0866182"><ele>576.0</ele><time>2026-04-01T09:06:24.548Z</time></trkpt><trkpt lat="43.019485" lon="12.0864891"><ele>576.0</ele><time>2026-04-01T09:06:25.548Z</time></trkpt><trkpt lat="43.0194128" lon="12.0863334"><ele>577.25</ele><time>2026-04-01T09:06:26.547Z</time></trkpt><trkpt lat="43.0193714" lon="12.0861688"><ele>578.5</ele><time>2026-04-01T09:06:27.547Z</time></trkpt><trkpt lat="43.0193511" lon="12.0860025"><ele>579.75</ele><time>2026-04-01T09:06:28.547Z</time></trkpt><trkpt lat="43.0193397" lon="12.0858239"><ele>581.0</ele><time>2026-04-01T09:06:29.548Z</time></trkpt><trkpt lat="43.0193297" lon="12.0856456"><ele>583.25</ele><time>2026-04-01T09:06:30.547Z</time></trkpt><trkpt lat="43.0193135" lon="12.0854629"><ele>585.5</ele><time>2026-04-01T09:06:31.548Z</time></trkpt><trkpt lat="43.0193067" lon="12.0853073"><ele>587.75</ele><time>2026-04-01T09:06:32.546Z</time></trkpt><trkpt lat="43.0192856" lon="12.0851539"><ele>590.0</ele><time>2026-04-01T09:06:33.548Z</time></trkpt><trkpt lat="43.0192806" lon="12.0850131"><ele>591.3333333333333</ele><time>2026-04-01T09:06:34.547Z</time></trkpt><trkpt lat="43.019275" lon="12.0848874"><ele>592.6666666666666</ele><time>2026-04-01T09:06:35.549Z</time></trkpt><trkpt lat="43.0192641" lon="12.0847806"><ele>594.0</ele><time>2026-04-01T09:06:36.548Z</time></trkpt><trkpt lat="43.0192487" lon="12.0846785"><ele>595.3333333333334</ele><time>2026-04-01T09:06:37.547Z</time></trkpt><trkpt lat="43.0192255" lon="12.0845514"><ele>596.6666666666667</ele><time>2026-04-01T09:06:39.547Z</time></trkpt><trkpt lat="43.0191486" lon="12.0844598"><ele>598.0</ele><time>2026-04-01T09:06:41.547Z</time></trkpt><trkpt lat="43.0190658" lon="12.0843826"><ele>600.0</ele><time>2026-04-01T09:06:43.547Z</time></trkpt><trkpt lat="43.0190038" lon="12.0842406"><ele>602.0</ele><time>2026-04-01T09:06:45.548Z</time></trkpt><trkpt lat="43.0189367" lon="12.0841272"><ele>604.0</ele><time>2026-04-01T09:06:47.546Z</time></trkpt><trkpt lat="43.0188942" lon="12.084057"><ele>606.0</ele><time>2026-04-01T09:06:48.546Z</time></trkpt><trkpt lat="43.0188517" lon="12.08396"><ele>608.0</ele><time>2026-04-01T09:06:49.55Z</time></trkpt><trkpt lat="43.0188172" lon="12.0838598"><ele>611.0</ele><time>2026-04-01T09:06:50.549Z</time></trkpt><trkpt lat="43.0187717" lon="12.083766"><ele>614.0</ele><time>2026-04-01T09:06:51.549Z</time></trkpt><trkpt lat="43.0187247" lon="12.0836574"><ele>617.0</ele><time>2026-04-01T09:06:52.548Z</time></trkpt><trkpt lat="43.0186881" lon="12.083559"><ele>620.0</ele><time>2026-04-01T09:06:53.547Z</time></trkpt><trkpt lat="43.0186566" lon="12.083454"><ele>623.0</ele><time>2026-04-01T09:06:54.548Z</time></trkpt><trkpt lat="43.0186018" lon="12.0832874"><ele>624.25</ele><time>2026-04-01T09:06:55.549Z</time></trkpt><trkpt lat="43.0185756" lon="12.0831265"><ele>625.5</ele><time>2026-04-01T09:06:56.547Z</time></trkpt><trkpt lat="43.018535" lon="12.0829745"><ele>626.75</ele><time>2026-04-01T09:06:57.548Z</time></trkpt><trkpt lat="43.0185057" lon="12.082817"><ele>628.0</ele><time>2026-04-01T09:06:58.546Z</time></trkpt><trkpt lat="43.0184865" lon="12.082692"><ele>628.0</ele><time>2026-04-01T09:06:59.549Z</time></trkpt><trkpt lat="43.0184609" lon="12.0825595"><ele>628.0</ele><time>2026-04-01T09:07:00.547Z</time></trkpt><trkpt lat="43.0184428" lon="12.0824428"><ele>628.0</ele><time>2026-04-01T09:07:01.548Z</time></trkpt><trkpt lat="43.018409" lon="12.0823253"><ele>628.0</ele><time>2026-04-01T09:07:02.548Z</time></trkpt><trkpt lat="43.0183563" lon="12.0822555"><ele>628.0</ele><time>2026-04-01T09:07:03.549Z</time></trkpt><trkpt lat="43.0183053" lon="12.0821632"><ele>628.0</ele><time>2026-04-01T09:07:04.548Z</time></trkpt><trkpt lat="43.0182391" lon="12.0820652"><ele>627.1999999999999</ele><time>2026-04-01T09:07:05.547Z</time></trkpt><trkpt lat="43.0181719" lon="12.0819425"><ele>626.4</ele><time>2026-04-01T09:07:06.549Z</time></trkpt><trkpt lat="43.0181077" lon="12.0818404"><ele>625.5999999999999</ele><time>2026-04-01T09:07:07.548Z</time></trkpt><trkpt lat="43.0180759" lon="12.0817472"><ele>624.8</ele><time>2026-04-01T09:07:08.548Z</time></trkpt><trkpt lat="43.0180252" lon="12.0816499"><ele>624.0</ele><time>2026-04-01T09:07:09.547Z</time></trkpt><trkpt lat="43.0179649" lon="12.0815577"><ele>624.0</ele><time>2026-04-01T09:07:10.548Z</time></trkpt><trkpt lat="43.0179063" lon="12.0814336"><ele>624.0</ele><time>2026-04-01T09:07:11.548Z</time></trkpt><trkpt lat="43.0178202" lon="12.0813442"><ele>624.0</ele><time>2026-04-01T09:07:12.549Z</time></trkpt><trkpt lat="43.0177279" lon="12.0812191"><ele>624.0</ele><time>2026-04-01T09:07:13.548Z</time></trkpt><trkpt lat="43.0176715" lon="12.0810855"><ele>624.0</ele><time>2026-04-01T09:07:14.548Z</time></trkpt><trkpt lat="43.0176231" lon="12.0810016"><ele>624.0</ele><time>2026-04-01T09:07:15.548Z</time></trkpt><trkpt lat="43.0175765" lon="12.0808811"><ele>624.0</ele><time>2026-04-01T09:07:16.547Z</time></trkpt><trkpt lat="43.0175503" lon="12.0807658"><ele>624.0</ele><time>2026-04-01T09:07:17.547Z</time></trkpt><trkpt lat="43.0174913" lon="12.0806784"><ele>624.0</ele><time>2026-04-01T09:07:18.547Z</time></trkpt><trkpt lat="43.0174462" lon="12.0805828"><ele>624.0</ele><time>2026-04-01T09:07:19.548Z</time></trkpt><trkpt lat="43.0173956" lon="12.0805028"><ele>621.8333333333334</ele><time>2026-04-01T09:07:20.546Z</time></trkpt><trkpt lat="43.0173371" lon="12.0804438"><ele>619.6666666666666</ele><time>2026-04-01T09:07:21.547Z</time></trkpt><trkpt lat="43.0172776" lon="12.0803909"><ele>617.5</ele><time>2026-04-01T09:07:22.548Z</time></trkpt><trkpt lat="43.0171902" lon="12.0803292"><ele>615.3333333333333</ele><time>2026-04-01T09:07:23.547Z</time></trkpt><trkpt lat="43.0171016" lon="12.0802745"><ele>613.1666666666666</ele><time>2026-04-01T09:07:24.547Z</time></trkpt><trkpt lat="43.0170155" lon="12.0802002"><ele>611.0</ele><time>2026-04-01T09:07:25.547Z</time></trkpt><trkpt lat="43.016926" lon="12.0801225"><ele>611.0</ele><time>2026-04-01T09:07:26.548Z</time></trkpt><trkpt lat="43.0168363" lon="12.0800353"><ele>611.0</ele><time>2026-04-01T09:07:27.546Z</time></trkpt><trkpt lat="43.0167459" lon="12.0799243"><ele>611.0</ele><time>2026-04-01T09:07:28.546Z</time></trkpt><trkpt lat="43.0166541" lon="12.0798293"><ele>611.0</ele><time>2026-04-01T09:07:29.546Z</time></trkpt><trkpt lat="43.0165841" lon="12.0797534"><ele>611.0</ele><time>2026-04-01T09:07:30.548Z</time></trkpt><trkpt lat="43.016503" lon="12.0796752"><ele>610.25</ele><time>2026-04-01T09:07:31.549Z</time></trkpt><trkpt lat="43.0164149" lon="12.0795676"><ele>609.5</ele><time>2026-04-01T09:07:32.548Z</time></trkpt><trkpt lat="43.0163295" lon="12.0794679"><ele>608.75</ele><time>2026-04-01T09:07:33.547Z</time></trkpt><trkpt lat="43.0162209" lon="12.0793637"><ele>608.0</ele><time>2026-04-01T09:07:34.549Z</time></trkpt><trkpt lat="43.0161359" lon="12.0792367"><ele>608.0</ele><time>2026-04-01T09:07:35.548Z</time></trkpt><trkpt lat="43.0160378" lon="12.0791095"><ele>608.0</ele><time>2026-04-01T09:07:36.547Z</time></trkpt><trkpt lat="43.0159428" lon="12.078967"><ele>608.0</ele><time>2026-04-01T09:07:37.547Z</time></trkpt><trkpt lat="43.0158544" lon="12.0788452"><ele>608.0</ele><time>2026-04-01T09:07:38.547Z</time></trkpt><trkpt lat="43.0157756" lon="12.0787321"><ele>607.0</ele><time>2026-04-01T09:07:39.547Z</time></trkpt><trkpt lat="43.0156929" lon="12.0786131"><ele>606.0</ele><time>2026-04-01T09:07:40.547Z</time></trkpt><trkpt lat="43.0156096" lon="12.0785044"><ele>605.0</ele><time>2026-04-01T09:07:41.546Z</time></trkpt><trkpt lat="43.0155175" lon="12.078405"><ele>604.0</ele><time>2026-04-01T09:07:42.548Z</time></trkpt><trkpt lat="43.0154385" lon="12.0783091"><ele>605.8</ele><time>2026-04-01T09:07:43.547Z</time></trkpt><trkpt lat="43.0153715" lon="12.0781967"><ele>607.5999999999999</ele><time>2026-04-01T09:07:44.547Z</time></trkpt><trkpt lat="43.0153104" lon="12.0780818"><ele>609.4</ele><time>2026-04-01T09:07:45.549Z</time></trkpt><trkpt lat="43.0152442" lon="12.0779702"><ele>611.1999999999999</ele><time>2026-04-01T09:07:46.547Z</time></trkpt><trkpt lat="43.0151954" lon="12.0778947"><ele>613.0</ele><time>2026-04-01T09:07:47.548Z</time></trkpt><trkpt lat="43.0151365" lon="12.0778224"><ele>613.0</ele><time>2026-04-01T09:07:48.547Z</time></trkpt><trkpt lat="43.0150714" lon="12.0777565"><ele>613.0</ele><time>2026-04-01T09:07:49.547Z</time></trkpt><trkpt lat="43.0149957" lon="12.0776922"><ele>613.0</ele><time>2026-04-01T09:07:50.548Z</time></trkpt><trkpt lat="43.014919" lon="12.0776591"><ele>613.0</ele><time>2026-04-01T09:07:51.548Z</time></trkpt><trkpt lat="43.0148364" lon="12.0776267"><ele>613.0</ele><time>2026-04-01T09:07:52.547Z</time></trkpt><trkpt lat="43.0147624" lon="12.0775595"><ele>613.0</ele><time>2026-04-01T09:07:53.547Z</time></trkpt><trkpt lat="43.0147299" lon="12.0774583"><ele>613.1666666666667</ele><time>2026-04-01T09:07:54.548Z</time></trkpt><trkpt lat="43.0147114" lon="12.0773575"><ele>613.3333333333334</ele><time>2026-04-01T09:07:55.546Z</time></trkpt><trkpt lat="43.0146983" lon="12.0772451"><ele>613.5</ele><time>2026-04-01T09:07:56.547Z</time></trkpt><trkpt lat="43.0146843" lon="12.0771262"><ele>613.6666666666666</ele><time>2026-04-01T09:07:57.546Z</time></trkpt><trkpt lat="43.0146551" lon="12.0770162"><ele>613.8333333333333</ele><time>2026-04-01T09:07:58.548Z</time></trkpt><trkpt lat="43.0146183" lon="12.0769422"><ele>614.0</ele><time>2026-04-01T09:07:59.547Z</time></trkpt><trkpt lat="43.0145741" lon="12.076876"><ele>614.0</ele><time>2026-04-01T09:08:00.548Z</time></trkpt><trkpt lat="43.014521" lon="12.0768115"><ele>614.0</ele><time>2026-04-01T09:08:01.548Z</time></trkpt><trkpt lat="43.01446" lon="12.076773"><ele>614.0</ele><time>2026-04-01T09:08:02.548Z</time></trkpt><trkpt lat="43.0144016" lon="12.0767218"><ele>614.0</ele><time>2026-04-01T09:08:03.547Z</time></trkpt><trkpt lat="43.0143472" lon="12.0766352"><ele>614.0</ele><time>2026-04-01T09:08:04.549Z</time></trkpt><trkpt lat="43.014315" lon="12.0765499"><ele>614.0</ele><time>2026-04-01T09:08:05.548Z</time></trkpt><trkpt lat="43.0142759" lon="12.0763969"><ele>612.4</ele><time>2026-04-01T09:08:07.549Z</time></trkpt><trkpt lat="43.0142623" lon="12.0762164"><ele>610.8</ele><time>2026-04-01T09:08:09.548Z</time></trkpt><trkpt lat="43.0143129" lon="12.0760672"><ele>609.2</ele><time>2026-04-01T09:08:11.548Z</time></trkpt><trkpt lat="43.0143433" lon="12.075986"><ele>607.6</ele><time>2026-04-01T09:08:12.548Z</time></trkpt><trkpt lat="43.0144251" lon="12.075925"><ele>606.0</ele><time>2026-04-01T09:08:13.548Z</time></trkpt><trkpt lat="43.0144643" lon="12.0758482"><ele>606.0</ele><time>2026-04-01T09:08:14.548Z</time></trkpt><trkpt lat="43.014516" lon="12.075784"><ele>606.0</ele><time>2026-04-01T09:08:15.548Z</time></trkpt><trkpt lat="43.0145537" lon="12.0757148"><ele>606.0</ele><time>2026-04-01T09:08:16.548Z</time></trkpt><trkpt lat="43.0145637" lon="12.0755651"><ele>606.0</ele><time>2026-04-01T09:08:18.548Z</time></trkpt><trkpt lat="43.0145593" lon="12.0754733"><ele>606.0</ele><time>2026-04-01T09:08:19.547Z</time></trkpt><trkpt lat="43.0145289" lon="12.0753186"><ele>606.0</ele><time>2026-04-01T09:08:21.547Z</time></trkpt><trkpt lat="43.0144564" lon="12.0751502"><ele>603.6</ele><time>2026-04-01T09:08:23.548Z</time></trkpt><trkpt lat="43.0143973" lon="12.0750691"><ele>601.2</ele><time>2026-04-01T09:08:24.547Z</time></trkpt><trkpt lat="43.0143365" lon="12.0749851"><ele>598.8</ele><time>2026-04-01T09:08:25.547Z</time></trkpt><trkpt lat="43.0142597" lon="12.0748724"><ele>596.4</ele><time>2026-04-01T09:08:26.548Z</time></trkpt><trkpt lat="43.0142098" lon="12.0747368"><ele>594.0</ele><time>2026-04-01T09:08:27.547Z</time></trkpt><trkpt lat="43.0141706" lon="12.0746115"><ele>593.6</ele><time>2026-04-01T09:08:28.548Z</time></trkpt><trkpt lat="43.0141397" lon="12.0744589"><ele>593.2</ele><time>2026-04-01T09:08:29.547Z</time></trkpt><trkpt lat="43.0141" lon="12.0743157"><ele>592.8000000000001</ele><time>2026-04-01T09:08:30.547Z</time></trkpt><trkpt lat="43.0140667" lon="12.0741687"><ele>592.4</ele><time>2026-04-01T09:08:31.547Z</time></trkpt><trkpt lat="43.0140243" lon="12.0740418"><ele>592.0</ele><time>2026-04-01T09:08:32.548Z</time></trkpt><trkpt lat="43.0139604" lon="12.0739002"><ele>592.0</ele><time>2026-04-01T09:08:33.548Z</time></trkpt><trkpt lat="43.0138649" lon="12.073736"><ele>592.0</ele><time>2026-04-01T09:08:34.548Z</time></trkpt><trkpt lat="43.0137568" lon="12.073567"><ele>592.0</ele><time>2026-04-01T09:08:35.547Z</time></trkpt><trkpt lat="43.0136802" lon="12.0734124"><ele>593.5</ele><time>2026-04-01T09:08:36.548Z</time></trkpt><trkpt lat="43.0135919" lon="12.0732394"><ele>595.0</ele><time>2026-04-01T09:08:37.549Z</time></trkpt><trkpt lat="43.0135207" lon="12.0730873"><ele>596.5</ele><time>2026-04-01T09:08:38.547Z</time></trkpt><trkpt lat="43.0134769" lon="12.0729434"><ele>598.0</ele><time>2026-04-01T09:08:39.548Z</time></trkpt><trkpt lat="43.0134203" lon="12.0728025"><ele>598.0</ele><time>2026-04-01T09:08:40.549Z</time></trkpt><trkpt lat="43.0133728" lon="12.0726694"><ele>598.0</ele><time>2026-04-01T09:08:41.548Z</time></trkpt><trkpt lat="43.0133166" lon="12.0725423"><ele>598.0</ele><time>2026-04-01T09:08:42.547Z</time></trkpt><trkpt lat="43.0132685" lon="12.072428"><ele>598.0</ele><time>2026-04-01T09:08:43.548Z</time></trkpt><trkpt lat="43.0132309" lon="12.0723157"><ele>598.0</ele><time>2026-04-01T09:08:44.546Z</time></trkpt><trkpt lat="43.0131944" lon="12.0722067"><ele>597.5</ele><time>2026-04-01T09:08:45.547Z</time></trkpt><trkpt lat="43.0131569" lon="12.0721066"><ele>597.0</ele><time>2026-04-01T09:08:46.548Z</time></trkpt><trkpt lat="43.0131141" lon="12.0720182"><ele>596.5</ele><time>2026-04-01T09:08:47.547Z</time></trkpt><trkpt lat="43.0130721" lon="12.0719308"><ele>596.0</ele><time>2026-04-01T09:08:48.547Z</time></trkpt><trkpt lat="43.013032" lon="12.0718494"><ele>595.5</ele><time>2026-04-01T09:08:49.548Z</time></trkpt><trkpt lat="43.0129592" lon="12.0717134"><ele>595.0</ele><time>2026-04-01T09:08:51.287Z</time></trkpt><trkpt lat="43.0128978" lon="12.071616"><ele>592.8</ele><time>2026-04-01T09:08:52.55Z</time></trkpt><trkpt lat="43.0128459" lon="12.071528"><ele>590.6</ele><time>2026-04-01T09:08:53.546Z</time></trkpt><trkpt lat="43.0128024" lon="12.0714333"><ele>588.4</ele><time>2026-04-01T09:08:54.547Z</time></trkpt><trkpt lat="43.0127641" lon="12.071325"><ele>586.2</ele><time>2026-04-01T09:08:55.547Z</time></trkpt><trkpt lat="43.0127389" lon="12.0712098"><ele>584.0</ele><time>2026-04-01T09:08:56.547Z</time></trkpt><trkpt lat="43.0127015" lon="12.0710617"><ele>584.0</ele><time>2026-04-01T09:08:57.547Z</time></trkpt><trkpt lat="43.0126787" lon="12.0709229"><ele>584.0</ele><time>2026-04-01T09:08:58.546Z</time></trkpt><trkpt lat="43.0126395" lon="12.0707749"><ele>584.0</ele><time>2026-04-01T09:08:59.547Z</time></trkpt><trkpt lat="43.0125962" lon="12.0706422"><ele>584.0</ele><time>2026-04-01T09:09:00.548Z</time></trkpt><trkpt lat="43.0125567" lon="12.0705206"><ele>584.0</ele><time>2026-04-01T09:09:01.547Z</time></trkpt><trkpt lat="43.0125341" lon="12.0703898"><ele>583.8333333333333</ele><time>2026-04-01T09:09:02.547Z</time></trkpt><trkpt lat="43.0125177" lon="12.0702685"><ele>583.6666666666666</ele><time>2026-04-01T09:09:03.547Z</time></trkpt><trkpt lat="43.0124935" lon="12.0701388"><ele>583.5</ele><time>2026-04-01T09:09:04.547Z</time></trkpt><trkpt lat="43.0124489" lon="12.0700328"><ele>583.3333333333334</ele><time>2026-04-01T09:09:05.547Z</time></trkpt><trkpt lat="43.0123948" lon="12.0699659"><ele>583.1666666666667</ele><time>2026-04-01T09:09:06.548Z</time></trkpt><trkpt lat="43.0123284" lon="12.0698815"><ele>583.0</ele><time>2026-04-01T09:09:07.548Z</time></trkpt><trkpt lat="43.0122326" lon="12.0697957"><ele>581.6</ele><time>2026-04-01T09:09:08.548Z</time></trkpt><trkpt lat="43.0121514" lon="12.0697053"><ele>580.1999999999999</ele><time>2026-04-01T09:09:09.547Z</time></trkpt><trkpt lat="43.0120934" lon="12.0695881"><ele>578.8</ele><time>2026-04-01T09:09:10.548Z</time></trkpt><trkpt lat="43.0120225" lon="12.069471"><ele>577.4</ele><time>2026-04-01T09:09:11.548Z</time></trkpt><trkpt lat="43.0119431" lon="12.069347"><ele>576.0</ele><time>2026-04-01T09:09:12.548Z</time></trkpt><trkpt lat="43.0118089" lon="12.0692168"><ele>575.25</ele><time>2026-04-01T09:09:13.548Z</time></trkpt><trkpt lat="43.0117026" lon="12.0690983"><ele>574.5</ele><time>2026-04-01T09:09:14.549Z</time></trkpt><trkpt lat="43.0116273" lon="12.0689879"><ele>573.75</ele><time>2026-04-01T09:09:15.548Z</time></trkpt><trkpt lat="43.0115385" lon="12.0688854"><ele>573.0</ele><time>2026-04-01T09:09:16.549Z</time></trkpt><trkpt lat="43.0114641" lon="12.0688029"><ele>573.0</ele><time>2026-04-01T09:09:17.548Z</time></trkpt><trkpt lat="43.0113951" lon="12.0687115"><ele>573.0</ele><time>2026-04-01T09:09:18.548Z</time></trkpt><trkpt lat="43.0113328" lon="12.0686405"><ele>573.0</ele><time>2026-04-01T09:09:19.548Z</time></trkpt><trkpt lat="43.011261" lon="12.0685694"><ele>573.0</ele><time>2026-04-01T09:09:20.548Z</time></trkpt><trkpt lat="43.0111916" lon="12.0685083"><ele>573.0</ele><time>2026-04-01T09:09:21.548Z</time></trkpt><trkpt lat="43.0111338" lon="12.0684421"><ele>573.0</ele><time>2026-04-01T09:09:22.549Z</time></trkpt><trkpt lat="43.0110429" lon="12.068335"><ele>571.4285714285714</ele><time>2026-04-01T09:09:24.547Z</time></trkpt><trkpt lat="43.0109891" lon="12.0682617"><ele>569.8571428571429</ele><time>2026-04-01T09:09:25.548Z</time></trkpt><trkpt lat="43.0109403" lon="12.0681883"><ele>568.2857142857143</ele><time>2026-04-01T09:09:26.547Z</time></trkpt><trkpt lat="43.0108931" lon="12.068099"><ele>566.7142857142858</ele><time>2026-04-01T09:09:27.549Z</time></trkpt><trkpt lat="43.0108533" lon="12.068014"><ele>565.1428571428571</ele><time>2026-04-01T09:09:28.548Z</time></trkpt><trkpt lat="43.0108027" lon="12.0679506"><ele>563.5714285714287</ele><time>2026-04-01T09:09:29.549Z</time></trkpt><trkpt lat="43.0107424" lon="12.0678898"><ele>562.0</ele><time>2026-04-01T09:09:30.549Z</time></trkpt><trkpt lat="43.0106863" lon="12.0678457"><ele>561.2857142857143</ele><time>2026-04-01T09:09:31.548Z</time></trkpt><trkpt lat="43.0106232" lon="12.0678094"><ele>560.5714285714286</ele><time>2026-04-01T09:09:32.548Z</time></trkpt><trkpt lat="43.0105614" lon="12.0677614"><ele>559.8571428571429</ele><time>2026-04-01T09:09:33.549Z</time></trkpt><trkpt lat="43.0104893" lon="12.067703"><ele>559.1428571428571</ele><time>2026-04-01T09:09:34.548Z</time></trkpt><trkpt lat="43.0104473" lon="12.0676272"><ele>558.4285714285714</ele><time>2026-04-01T09:09:35.549Z</time></trkpt><trkpt lat="43.010391" lon="12.0675674"><ele>557.7142857142858</ele><time>2026-04-01T09:09:36.548Z</time></trkpt><trkpt lat="43.0103489" lon="12.067487"><ele>557.0</ele><time>2026-04-01T09:09:37.548Z</time></trkpt><trkpt lat="43.0103054" lon="12.0674052"><ele>556.1666666666666</ele><time>2026-04-01T09:09:38.548Z</time></trkpt><trkpt lat="43.0102296" lon="12.0673309"><ele>555.3333333333333</ele><time>2026-04-01T09:09:39.549Z</time></trkpt><trkpt lat="43.0101599" lon="12.067257"><ele>554.5</ele><time>2026-04-01T09:09:40.548Z</time></trkpt><trkpt lat="43.0100848" lon="12.067203"><ele>553.6666666666666</ele><time>2026-04-01T09:09:41.548Z</time></trkpt><trkpt lat="43.0100089" lon="12.067162"><ele>552.8333333333334</ele><time>2026-04-01T09:09:42.548Z</time></trkpt><trkpt lat="43.0099386" lon="12.0671251"><ele>552.0</ele><time>2026-04-01T09:09:43.548Z</time></trkpt><trkpt lat="43.0098772" lon="12.0670816"><ele>552.0</ele><time>2026-04-01T09:09:44.547Z</time></trkpt><trkpt lat="43.0098091" lon="12.0670353"><ele>552.0</ele><time>2026-04-01T09:09:45.549Z</time></trkpt><trkpt lat="43.0097512" lon="12.0669877"><ele>552.0</ele><time>2026-04-01T09:09:46.548Z</time></trkpt><trkpt lat="43.0096859" lon="12.066938"><ele>552.0</ele><time>2026-04-01T09:09:47.548Z</time></trkpt><trkpt lat="43.0096225" lon="12.0668849"><ele>552.0</ele><time>2026-04-01T09:09:48.548Z</time></trkpt><trkpt lat="43.0095563" lon="12.0668295"><ele>552.0</ele><time>2026-04-01T09:09:49.548Z</time></trkpt><trkpt lat="43.0095052" lon="12.0667783"><ele>552.0</ele><time>2026-04-01T09:09:50.549Z</time></trkpt><trkpt lat="43.0094433" lon="12.0666439"><ele>550.4</ele><time>2026-04-01T09:09:52.548Z</time></trkpt><trkpt lat="43.0094078" lon="12.0665505"><ele>548.8000000000001</ele><time>2026-04-01T09:09:53.548Z</time></trkpt><trkpt lat="43.009383" lon="12.0664695"><ele>547.2</ele><time>2026-04-01T09:09:54.548Z</time></trkpt><trkpt lat="43.009344" lon="12.0663054"><ele>545.6</ele><time>2026-04-01T09:09:56.549Z</time></trkpt><trkpt lat="43.0092886" lon="12.0661325"><ele>544.0</ele><time>2026-04-01T09:09:58.549Z</time></trkpt><trkpt lat="43.0092414" lon="12.0660334"><ele>544.0</ele><time>2026-04-01T09:09:59.548Z</time></trkpt><trkpt lat="43.0091732" lon="12.0659402"><ele>544.0</ele><time>2026-04-01T09:10:00.548Z</time></trkpt><trkpt lat="43.009104" lon="12.0658613"><ele>544.0</ele><time>2026-04-01T09:10:01.548Z</time></trkpt><trkpt lat="43.0090298" lon="12.0657868"><ele>544.0</ele><time>2026-04-01T09:10:02.548Z</time></trkpt><trkpt lat="43.008919" lon="12.0657159"><ele>544.0</ele><time>2026-04-01T09:10:03.548Z</time></trkpt><trkpt lat="43.0088133" lon="12.0656625"><ele>545.25</ele><time>2026-04-01T09:10:04.548Z</time></trkpt><trkpt lat="43.0087094" lon="12.065597"><ele>546.5</ele><time>2026-04-01T09:10:05.548Z</time></trkpt><trkpt lat="43.0086271" lon="12.0654762"><ele>547.75</ele><time>2026-04-01T09:10:06.549Z</time></trkpt><trkpt lat="43.0085447" lon="12.0653722"><ele>549.0</ele><time>2026-04-01T09:10:07.548Z</time></trkpt><trkpt lat="43.0084844" lon="12.0652588"><ele>549.0</ele><time>2026-04-01T09:10:08.549Z</time></trkpt><trkpt lat="43.0084512" lon="12.0651672"><ele>549.0</ele><time>2026-04-01T09:10:09.548Z</time></trkpt><trkpt lat="43.0084549" lon="12.0650391"><ele>549.0</ele><time>2026-04-01T09:10:10.549Z</time></trkpt><trkpt lat="43.0084631" lon="12.064932"><ele>549.0</ele><time>2026-04-01T09:10:11.548Z</time></trkpt><trkpt lat="43.0084315" lon="12.0648016"><ele>549.0</ele><time>2026-04-01T09:10:12.548Z</time></trkpt><trkpt lat="43.0083911" lon="12.0646918"><ele>549.0</ele><time>2026-04-01T09:10:13.548Z</time></trkpt><trkpt lat="43.0083496" lon="12.0646071"><ele>551.25</ele><time>2026-04-01T09:10:14.548Z</time></trkpt><trkpt lat="43.0082786" lon="12.0645134"><ele>553.5</ele><time>2026-04-01T09:10:15.549Z</time></trkpt><trkpt lat="43.0081951" lon="12.0644321"><ele>555.75</ele><time>2026-04-01T09:10:16.549Z</time></trkpt><trkpt lat="43.0080745" lon="12.0643313"><ele>558.0</ele><time>2026-04-01T09:10:17.548Z</time></trkpt><trkpt lat="43.0079676" lon="12.0642245"><ele>554.5</ele><time>2026-04-01T09:10:18.548Z</time></trkpt><trkpt lat="43.007872" lon="12.0640863"><ele>551.0</ele><time>2026-04-01T09:10:19.547Z</time></trkpt><trkpt lat="43.0077747" lon="12.063938"><ele>547.5</ele><time>2026-04-01T09:10:20.549Z</time></trkpt><trkpt lat="43.0076887" lon="12.063792"><ele>544.0</ele><time>2026-04-01T09:10:21.548Z</time></trkpt><trkpt lat="43.0076024" lon="12.0636252"><ele>544.0</ele><time>2026-04-01T09:10:22.548Z</time></trkpt><trkpt lat="43.0075285" lon="12.0634458"><ele>544.0</ele><time>2026-04-01T09:10:23.548Z</time></trkpt><trkpt lat="43.0075103" lon="12.0633082"><ele>544.0</ele><time>2026-04-01T09:10:24.549Z</time></trkpt><trkpt lat="43.0074776" lon="12.0631602"><ele>544.0</ele><time>2026-04-01T09:10:25.548Z</time></trkpt><trkpt lat="43.0074228" lon="12.0630389"><ele>544.2</ele><time>2026-04-01T09:10:26.548Z</time></trkpt><trkpt lat="43.0073733" lon="12.0629198"><ele>544.4</ele><time>2026-04-01T09:10:27.547Z</time></trkpt><trkpt lat="43.0073242" lon="12.0628252"><ele>544.6</ele><time>2026-04-01T09:10:28.548Z</time></trkpt><trkpt lat="43.0072657" lon="12.0627056"><ele>544.8</ele><time>2026-04-01T09:10:29.548Z</time></trkpt><trkpt lat="43.0072012" lon="12.0625774"><ele>545.0</ele><time>2026-04-01T09:10:30.547Z</time></trkpt><trkpt lat="43.0071191" lon="12.062488"><ele>545.0</ele><time>2026-04-01T09:10:31.548Z</time></trkpt><trkpt lat="43.0070466" lon="12.0624381"><ele>545.0</ele><time>2026-04-01T09:10:32.548Z</time></trkpt><trkpt lat="43.0069878" lon="12.0623708"><ele>545.0</ele><time>2026-04-01T09:10:33.549Z</time></trkpt><trkpt lat="43.0069274" lon="12.0623459"><ele>545.0</ele><time>2026-04-01T09:10:34.548Z</time></trkpt><trkpt lat="43.0068147" lon="12.0623885"><ele>545.0</ele><time>2026-04-01T09:10:36.549Z</time></trkpt><trkpt lat="43.0067424" lon="12.0624568"><ele>545.0</ele><time>2026-04-01T09:10:37.549Z</time></trkpt><trkpt lat="43.0066768" lon="12.0625533"><ele>545.25</ele><time>2026-04-01T09:10:38.548Z</time></trkpt><trkpt lat="43.0065699" lon="12.0626568"><ele>545.5</ele><time>2026-04-01T09:10:39.548Z</time></trkpt><trkpt lat="43.0064707" lon="12.0627549"><ele>545.75</ele><time>2026-04-01T09:10:40.548Z</time></trkpt><trkpt lat="43.0063518" lon="12.0627822"><ele>546.0</ele><time>2026-04-01T09:10:41.55Z</time></trkpt><trkpt lat="43.0062717" lon="12.0627783"><ele>546.0</ele><time>2026-04-01T09:10:42.55Z</time></trkpt><trkpt lat="43.0061694" lon="12.0627845"><ele>546.0</ele><time>2026-04-01T09:10:43.548Z</time></trkpt><trkpt lat="43.0061063" lon="12.0628204"><ele>546.0</ele><time>2026-04-01T09:10:44.548Z</time></trkpt><trkpt lat="43.0060482" lon="12.0628629"><ele>546.0</ele><time>2026-04-01T09:10:45.548Z</time></trkpt><trkpt lat="43.0060058" lon="12.0630001"><ele>546.0</ele><time>2026-04-01T09:10:47.548Z</time></trkpt><trkpt lat="43.0060184" lon="12.0631065"><ele>546.0</ele><time>2026-04-01T09:10:48.549Z</time></trkpt><trkpt lat="43.0060632" lon="12.0632176"><ele>547.8</ele><time>2026-04-01T09:10:49.548Z</time></trkpt><trkpt lat="43.0061242" lon="12.0633481"><ele>549.6</ele><time>2026-04-01T09:10:50.548Z</time></trkpt><trkpt lat="43.0061912" lon="12.0634746"><ele>551.4</ele><time>2026-04-01T09:10:51.548Z</time></trkpt><trkpt lat="43.0062295" lon="12.0635713"><ele>553.2</ele><time>2026-04-01T09:10:52.549Z</time></trkpt><trkpt lat="43.0062597" lon="12.0636786"><ele>555.0</ele><time>2026-04-01T09:10:53.549Z</time></trkpt><trkpt lat="43.0062172" lon="12.0637483"><ele>555.0</ele><time>2026-04-01T09:10:54.549Z</time></trkpt><trkpt lat="43.0061673" lon="12.0638435"><ele>555.0</ele><time>2026-04-01T09:10:55.549Z</time></trkpt><trkpt lat="43.0061133" lon="12.0639417"><ele>555.0</ele><time>2026-04-01T09:10:56.548Z</time></trkpt><trkpt lat="43.0060583" lon="12.0641138"><ele>555.0</ele><time>2026-04-01T09:10:57.548Z</time></trkpt><trkpt lat="43.0060009" lon="12.0642418"><ele>555.0</ele><time>2026-04-01T09:10:58.549Z</time></trkpt><trkpt lat="43.0059555" lon="12.0643685"><ele>557.0</ele><time>2026-04-01T09:10:59.548Z</time></trkpt><trkpt lat="43.0059016" lon="12.0644913"><ele>559.0</ele><time>2026-04-01T09:11:00.549Z</time></trkpt><trkpt lat="43.0057899" lon="12.0645203"><ele>561.0</ele><time>2026-04-01T09:11:01.548Z</time></trkpt><trkpt lat="43.0057202" lon="12.0646033"><ele>563.0</ele><time>2026-04-01T09:11:02.549Z</time></trkpt><trkpt lat="43.0056075" lon="12.0646793"><ele>565.0</ele><time>2026-04-01T09:11:03.55Z</time></trkpt><trkpt lat="43.0055209" lon="12.0647762"><ele>565.0</ele><time>2026-04-01T09:11:04.548Z</time></trkpt><trkpt lat="43.0053951" lon="12.0648649"><ele>565.0</ele><time>2026-04-01T09:11:05.548Z</time></trkpt><trkpt lat="43.0052442" lon="12.0649482"><ele>565.0</ele><time>2026-04-01T09:11:06.547Z</time></trkpt><trkpt lat="43.0050884" lon="12.0650196"><ele>570.6666666666667</ele><time>2026-04-01T09:11:07.548Z</time></trkpt><trkpt lat="43.0049243" lon="12.0650822"><ele>576.3333333333334</ele><time>2026-04-01T09:11:08.549Z</time></trkpt><trkpt lat="43.0047674" lon="12.0651587"><ele>582.0</ele><time>2026-04-01T09:11:09.549Z</time></trkpt><trkpt lat="43.0046017" lon="12.0652179"><ele>582.0</ele><time>2026-04-01T09:11:10.548Z</time></trkpt><trkpt lat="43.0044746" lon="12.0652606"><ele>582.0</ele><time>2026-04-01T09:11:11.547Z</time></trkpt><trkpt lat="43.0043412" lon="12.0653227"><ele>582.0</ele><time>2026-04-01T09:11:12.548Z</time></trkpt><trkpt lat="43.0042274" lon="12.0653831"><ele>582.0</ele><time>2026-04-01T09:11:13.549Z</time></trkpt><trkpt lat="43.0041012" lon="12.0654295"><ele>581.5</ele><time>2026-04-01T09:11:14.548Z</time></trkpt><trkpt lat="43.0039877" lon="12.0654689"><ele>581.0</ele><time>2026-04-01T09:11:15.549Z</time></trkpt><trkpt lat="43.0038559" lon="12.0654799"><ele>580.5</ele><time>2026-04-01T09:11:16.549Z</time></trkpt><trkpt lat="43.0037184" lon="12.0654938"><ele>580.0</ele><time>2026-04-01T09:11:17.548Z</time></trkpt><trkpt lat="43.0035639" lon="12.065543"><ele>580.0</ele><time>2026-04-01T09:11:18.549Z</time></trkpt><trkpt lat="43.0034211" lon="12.0655722"><ele>580.0</ele><time>2026-04-01T09:11:19.549Z</time></trkpt><trkpt lat="43.0032889" lon="12.0656012"><ele>580.0</ele><time>2026-04-01T09:11:20.549Z</time></trkpt><trkpt lat="43.0031676" lon="12.0656348"><ele>580.0</ele><time>2026-04-01T09:11:21.548Z</time></trkpt><trkpt lat="43.00306" lon="12.0656492"><ele>579.6</ele><time>2026-04-01T09:11:22.548Z</time></trkpt><trkpt lat="43.0029662" lon="12.0656577"><ele>579.2</ele><time>2026-04-01T09:11:23.548Z</time></trkpt><trkpt lat="43.0028754" lon="12.0656659"><ele>578.8</ele><time>2026-04-01T09:11:24.549Z</time></trkpt><trkpt lat="43.0027751" lon="12.0656555"><ele>578.4</ele><time>2026-04-01T09:11:25.549Z</time></trkpt><trkpt lat="43.002674" lon="12.0656399"><ele>578.0</ele><time>2026-04-01T09:11:26.549Z</time></trkpt><trkpt lat="43.0025712" lon="12.0656381"><ele>580.75</ele><time>2026-04-01T09:11:27.55Z</time></trkpt><trkpt lat="43.0024455" lon="12.0656292"><ele>583.5</ele><time>2026-04-01T09:11:28.549Z</time></trkpt><trkpt lat="43.0023124" lon="12.065613"><ele>586.25</ele><time>2026-04-01T09:11:29.549Z</time></trkpt><trkpt lat="43.0021842" lon="12.065588"><ele>589.0</ele><time>2026-04-01T09:11:30.548Z</time></trkpt><trkpt lat="43.0020697" lon="12.0655919"><ele>589.0</ele><time>2026-04-01T09:11:31.549Z</time></trkpt><trkpt lat="43.0019509" lon="12.0655971"><ele>589.0</ele><time>2026-04-01T09:11:32.549Z</time></trkpt><trkpt lat="43.0018296" lon="12.065637"><ele>589.0</ele><time>2026-04-01T09:11:33.549Z</time></trkpt><trkpt lat="43.0016959" lon="12.0657026"><ele>589.0</ele><time>2026-04-01T09:11:34.548Z</time></trkpt><trkpt lat="43.0015514" lon="12.0658028"><ele>593.75</ele><time>2026-04-01T09:11:35.549Z</time></trkpt><trkpt lat="43.0014151" lon="12.0658885"><ele>598.5</ele><time>2026-04-01T09:11:36.548Z</time></trkpt><trkpt lat="43.0013011" lon="12.0659804"><ele>603.25</ele><time>2026-04-01T09:11:37.548Z</time></trkpt><trkpt lat="43.0012204" lon="12.066034"><ele>608.0</ele><time>2026-04-01T09:11:38.548Z</time></trkpt><trkpt lat="43.0011355" lon="12.0660725"><ele>608.0</ele><time>2026-04-01T09:11:39.549Z</time></trkpt><trkpt lat="43.0010449" lon="12.0660517"><ele>608.0</ele><time>2026-04-01T09:11:40.549Z</time></trkpt><trkpt lat="43.0009408" lon="12.0660087"><ele>608.0</ele><time>2026-04-01T09:11:41.548Z</time></trkpt><trkpt lat="43.000862" lon="12.0659538"><ele>608.0</ele><time>2026-04-01T09:11:42.548Z</time></trkpt><trkpt lat="43.0007958" lon="12.0658527"><ele>608.0</ele><time>2026-04-01T09:11:44.549Z</time></trkpt><trkpt lat="43.0007079" lon="12.0658243"><ele>607.4285714285714</ele><time>2026-04-01T09:11:46.549Z</time></trkpt><trkpt lat="43.0006409" lon="12.0658317"><ele>606.8571428571429</ele><time>2026-04-01T09:11:47.549Z</time></trkpt><trkpt lat="43.000576" lon="12.0658329"><ele>606.2857142857143</ele><time>2026-04-01T09:11:48.549Z</time></trkpt><trkpt lat="43.0005109" lon="12.0657886"><ele>605.7142857142858</ele><time>2026-04-01T09:11:49.549Z</time></trkpt><trkpt lat="43.0004521" lon="12.0657537"><ele>605.1428571428571</ele><time>2026-04-01T09:11:50.548Z</time></trkpt><trkpt lat="43.0003929" lon="12.0657017"><ele>604.5714285714287</ele><time>2026-04-01T09:11:51.547Z</time></trkpt><trkpt lat="43.0003371" lon="12.0656561"><ele>604.0</ele><time>2026-04-01T09:11:52.547Z</time></trkpt><trkpt lat="43.0002759" lon="12.065626"><ele>602.1666666666667</ele><time>2026-04-01T09:11:53.547Z</time></trkpt><trkpt lat="43.0002076" lon="12.065582"><ele>600.3333333333334</ele><time>2026-04-01T09:11:54.548Z</time></trkpt><trkpt lat="43.0001394" lon="12.0655458"><ele>598.5</ele><time>2026-04-01T09:11:55.55Z</time></trkpt><trkpt lat="43.0000746" lon="12.0655043"><ele>596.6666666666666</ele><time>2026-04-01T09:11:56.549Z</time></trkpt><trkpt lat="42.9999922" lon="12.0654711"><ele>594.8333333333333</ele><time>2026-04-01T09:11:57.549Z</time></trkpt><trkpt lat="42.9999163" lon="12.0654234"><ele>593.0</ele><time>2026-04-01T09:11:58.549Z</time></trkpt><trkpt lat="42.9998403" lon="12.065371"><ele>593.0</ele><time>2026-04-01T09:11:59.549Z</time></trkpt><trkpt lat="42.9997677" lon="12.0653429"><ele>593.0</ele><time>2026-04-01T09:12:00.55Z</time></trkpt><trkpt lat="42.9997082" lon="12.0653134"><ele>593.0</ele><time>2026-04-01T09:12:01.549Z</time></trkpt><trkpt lat="42.9995892" lon="12.0652664"><ele>593.0</ele><time>2026-04-01T09:12:03.548Z</time></trkpt><trkpt lat="42.9995143" lon="12.0652566"><ele>593.0</ele><time>2026-04-01T09:12:04.549Z</time></trkpt><trkpt lat="42.9994257" lon="12.0652795"><ele>593.0</ele><time>2026-04-01T09:12:05.548Z</time></trkpt><trkpt lat="42.9993316" lon="12.0653151"><ele>593.0</ele><time>2026-04-01T09:12:06.548Z</time></trkpt><trkpt lat="42.9992417" lon="12.065353"><ele>593.0</ele><time>2026-04-01T09:12:07.547Z</time></trkpt><trkpt lat="42.9991577" lon="12.0654035"><ele>593.0</ele><time>2026-04-01T09:12:08.549Z</time></trkpt><trkpt lat="42.9990768" lon="12.0654428"><ele>593.0</ele><time>2026-04-01T09:12:09.549Z</time></trkpt><trkpt lat="42.998985" lon="12.0654801"><ele>593.0</ele><time>2026-04-01T09:12:10.549Z</time></trkpt><trkpt lat="42.9988928" lon="12.0655194"><ele>590.4</ele><time>2026-04-01T09:12:11.548Z</time></trkpt><trkpt lat="42.9987985" lon="12.0655489"><ele>587.8</ele><time>2026-04-01T09:12:12.549Z</time></trkpt><trkpt lat="42.9987037" lon="12.0655602"><ele>585.2</ele><time>2026-04-01T09:12:13.549Z</time></trkpt><trkpt lat="42.9986087" lon="12.0655695"><ele>582.6</ele><time>2026-04-01T09:12:14.548Z</time></trkpt><trkpt lat="42.998499" lon="12.0655439"><ele>580.0</ele><time>2026-04-01T09:12:15.549Z</time></trkpt><trkpt lat="42.9983879" lon="12.06552"><ele>576.5</ele><time>2026-04-01T09:12:16.549Z</time></trkpt><trkpt lat="42.9982659" lon="12.065475"><ele>573.0</ele><time>2026-04-01T09:12:17.547Z</time></trkpt><trkpt lat="42.9981342" lon="12.0654357"><ele>569.5</ele><time>2026-04-01T09:12:18.549Z</time></trkpt><trkpt lat="42.9980035" lon="12.065395"><ele>566.0</ele><time>2026-04-01T09:12:19.547Z</time></trkpt><trkpt lat="42.9978778" lon="12.0653491"><ele>566.0</ele><time>2026-04-01T09:12:20.55Z</time></trkpt><trkpt lat="42.9977723" lon="12.0653255"><ele>566.0</ele><time>2026-04-01T09:12:21.548Z</time></trkpt><trkpt lat="42.9976723" lon="12.0653152"><ele>566.0</ele><time>2026-04-01T09:12:22.549Z</time></trkpt><trkpt lat="42.997562" lon="12.0653282"><ele>566.0</ele><time>2026-04-01T09:12:23.549Z</time></trkpt><trkpt lat="42.997461" lon="12.0653385"><ele>566.0</ele><time>2026-04-01T09:12:24.549Z</time></trkpt><trkpt lat="42.9973528" lon="12.0653319"><ele>565.4</ele><time>2026-04-01T09:12:25.548Z</time></trkpt><trkpt lat="42.9972543" lon="12.0653345"><ele>564.8</ele><time>2026-04-01T09:12:26.55Z</time></trkpt><trkpt lat="42.9971537" lon="12.0653364"><ele>564.1999999999999</ele><time>2026-04-01T09:12:27.548Z</time></trkpt><trkpt lat="42.9970644" lon="12.0653643"><ele>563.6</ele><time>2026-04-01T09:12:28.549Z</time></trkpt><trkpt lat="42.9969814" lon="12.0653538"><ele>563.0</ele><time>2026-04-01T09:12:29.549Z</time></trkpt><trkpt lat="42.996896" lon="12.0653237"><ele>563.0</ele><time>2026-04-01T09:12:30.548Z</time></trkpt><trkpt lat="42.9968142" lon="12.0652724"><ele>563.0</ele><time>2026-04-01T09:12:31.548Z</time></trkpt><trkpt lat="42.9967327" lon="12.0652231"><ele>563.0</ele><time>2026-04-01T09:12:32.548Z</time></trkpt><trkpt lat="42.9966423" lon="12.0651814"><ele>563.0</ele><time>2026-04-01T09:12:33.547Z</time></trkpt><trkpt lat="42.9965419" lon="12.0651431"><ele>563.0</ele><time>2026-04-01T09:12:34.548Z</time></trkpt><trkpt lat="42.9964455" lon="12.0651078"><ele>561.4</ele><time>2026-04-01T09:12:35.548Z</time></trkpt><trkpt lat="42.996341" lon="12.0650914"><ele>559.8</ele><time>2026-04-01T09:12:36.549Z</time></trkpt><trkpt lat="42.9962258" lon="12.0650918"><ele>558.2</ele><time>2026-04-01T09:12:37.55Z</time></trkpt><trkpt lat="42.9961201" lon="12.0650781"><ele>556.6</ele><time>2026-04-01T09:12:38.548Z</time></trkpt><trkpt lat="42.9960106" lon="12.065076"><ele>555.0</ele><time>2026-04-01T09:12:39.548Z</time></trkpt><trkpt lat="42.995907" lon="12.0650875"><ele>553.0</ele><time>2026-04-01T09:12:40.548Z</time></trkpt><trkpt lat="42.9957993" lon="12.0650896"><ele>551.0</ele><time>2026-04-01T09:12:41.55Z</time></trkpt><trkpt lat="42.9956889" lon="12.0650997"><ele>549.0</ele><time>2026-04-01T09:12:42.549Z</time></trkpt><trkpt lat="42.995588" lon="12.0650978"><ele>547.0</ele><time>2026-04-01T09:12:43.548Z</time></trkpt><trkpt lat="42.9954958" lon="12.0651019"><ele>545.0</ele><time>2026-04-01T09:12:44.548Z</time></trkpt><trkpt lat="42.9954045" lon="12.0651221"><ele>545.0</ele><time>2026-04-01T09:12:45.548Z</time></trkpt><trkpt lat="42.9953261" lon="12.0651459"><ele>545.0</ele><time>2026-04-01T09:12:46.548Z</time></trkpt><trkpt lat="42.9952475" lon="12.0651795"><ele>545.0</ele><time>2026-04-01T09:12:47.549Z</time></trkpt><trkpt lat="42.9951589" lon="12.0651822"><ele>545.0</ele><time>2026-04-01T09:12:48.549Z</time></trkpt><trkpt lat="42.9950624" lon="12.0651761"><ele>545.0</ele><time>2026-04-01T09:12:49.548Z</time></trkpt><trkpt lat="42.9949648" lon="12.0651723"><ele>545.0</ele><time>2026-04-01T09:12:50.549Z</time></trkpt><trkpt lat="42.9948597" lon="12.0651264"><ele>542.0</ele><time>2026-04-01T09:12:51.548Z</time></trkpt><trkpt lat="42.9947493" lon="12.0650504"><ele>539.0</ele><time>2026-04-01T09:12:52.548Z</time></trkpt><trkpt lat="42.9946404" lon="12.0649753"><ele>536.0</ele><time>2026-04-01T09:12:53.549Z</time></trkpt><trkpt lat="42.9945021" lon="12.0648881"><ele>533.0</ele><time>2026-04-01T09:12:54.549Z</time></trkpt><trkpt lat="42.9943752" lon="12.0647898"><ele>530.5</ele><time>2026-04-01T09:12:55.548Z</time></trkpt><trkpt lat="42.9942516" lon="12.0646891"><ele>528.0</ele><time>2026-04-01T09:12:56.549Z</time></trkpt><trkpt lat="42.9941295" lon="12.0645867"><ele>525.5</ele><time>2026-04-01T09:12:57.547Z</time></trkpt><trkpt lat="42.9940014" lon="12.0644825"><ele>523.0</ele><time>2026-04-01T09:12:58.549Z</time></trkpt><trkpt lat="42.9938535" lon="12.0643971"><ele>521.3333333333334</ele><time>2026-04-01T09:12:59.548Z</time></trkpt><trkpt lat="42.9936982" lon="12.0643033"><ele>519.6666666666666</ele><time>2026-04-01T09:13:00.55Z</time></trkpt><trkpt lat="42.9935463" lon="12.0642365"><ele>518.0</ele><time>2026-04-01T09:13:01.548Z</time></trkpt><trkpt lat="42.9934023" lon="12.0641639"><ele>515.3333333333333</ele><time>2026-04-01T09:13:02.548Z</time></trkpt><trkpt lat="42.9932427" lon="12.0640867"><ele>512.6666666666666</ele><time>2026-04-01T09:13:03.549Z</time></trkpt><trkpt lat="42.9930906" lon="12.0640085"><ele>510.0</ele><time>2026-04-01T09:13:04.547Z</time></trkpt><trkpt lat="42.9929472" lon="12.0639518"><ele>510.0</ele><time>2026-04-01T09:13:05.549Z</time></trkpt><trkpt lat="42.9928033" lon="12.0638971"><ele>510.0</ele><time>2026-04-01T09:13:06.549Z</time></trkpt><trkpt lat="42.9926621" lon="12.063874"><ele>510.0</ele><time>2026-04-01T09:13:07.549Z</time></trkpt><trkpt lat="42.9925016" lon="12.0638572"><ele>512.0</ele><time>2026-04-01T09:13:08.55Z</time></trkpt><trkpt lat="42.9923364" lon="12.0638529"><ele>514.0</ele><time>2026-04-01T09:13:09.548Z</time></trkpt><trkpt lat="42.9921867" lon="12.0638508"><ele>516.0</ele><time>2026-04-01T09:13:10.549Z</time></trkpt><trkpt lat="42.9920456" lon="12.0638358"><ele>516.0</ele><time>2026-04-01T09:13:11.549Z</time></trkpt><trkpt lat="42.9919143" lon="12.0638192"><ele>516.0</ele><time>2026-04-01T09:13:12.55Z</time></trkpt><trkpt lat="42.9917931" lon="12.0638105"><ele>516.0</ele><time>2026-04-01T09:13:13.549Z</time></trkpt><trkpt lat="42.9916718" lon="12.0638008"><ele>516.0</ele><time>2026-04-01T09:13:14.548Z</time></trkpt><trkpt lat="42.9915593" lon="12.0637838"><ele>517.0</ele><time>2026-04-01T09:13:15.548Z</time></trkpt><trkpt lat="42.991457" lon="12.0637288"><ele>518.0</ele><time>2026-04-01T09:13:16.549Z</time></trkpt><trkpt lat="42.9913634" lon="12.0636587"><ele>519.0</ele><time>2026-04-01T09:13:17.548Z</time></trkpt><trkpt lat="42.9912699" lon="12.0635816"><ele>520.0</ele><time>2026-04-01T09:13:18.549Z</time></trkpt><trkpt lat="42.9911769" lon="12.0635002"><ele>521.0</ele><time>2026-04-01T09:13:19.55Z</time></trkpt><trkpt lat="42.9910898" lon="12.0633819"><ele>519.5</ele><time>2026-04-01T09:13:20.549Z</time></trkpt><trkpt lat="42.9909992" lon="12.0632773"><ele>518.0</ele><time>2026-04-01T09:13:21.547Z</time></trkpt><trkpt lat="42.9908982" lon="12.0631604"><ele>516.5</ele><time>2026-04-01T09:13:22.549Z</time></trkpt><trkpt lat="42.9907919" lon="12.0630584"><ele>515.0</ele><time>2026-04-01T09:13:23.549Z</time></trkpt><trkpt lat="42.9906826" lon="12.0629426"><ele>513.5</ele><time>2026-04-01T09:13:24.549Z</time></trkpt><trkpt lat="42.9905596" lon="12.0628348"><ele>512.0</ele><time>2026-04-01T09:13:25.548Z</time></trkpt><trkpt lat="42.9904243" lon="12.0627391"><ele>510.5</ele><time>2026-04-01T09:13:26.549Z</time></trkpt><trkpt lat="42.9902943" lon="12.0626547"><ele>509.0</ele><time>2026-04-01T09:13:27.549Z</time></trkpt><trkpt lat="42.9901592" lon="12.0625865"><ele>509.0</ele><time>2026-04-01T09:13:28.549Z</time></trkpt><trkpt lat="42.9900247" lon="12.0625482"><ele>509.0</ele><time>2026-04-01T09:13:29.548Z</time></trkpt><trkpt lat="42.9898914" lon="12.0625259"><ele>509.0</ele><time>2026-04-01T09:13:30.548Z</time></trkpt><trkpt lat="42.9897614" lon="12.0625152"><ele>509.0</ele><time>2026-04-01T09:13:31.549Z</time></trkpt><trkpt lat="42.9896395" lon="12.0625303"><ele>509.0</ele><time>2026-04-01T09:13:32.549Z</time></trkpt><trkpt lat="42.9895198" lon="12.0625776"><ele>509.0</ele><time>2026-04-01T09:13:33.548Z</time></trkpt><trkpt lat="42.9893907" lon="12.0626297"><ele>509.0</ele><time>2026-04-01T09:13:34.55Z</time></trkpt><trkpt lat="42.9892389" lon="12.062682"><ele>509.0</ele><time>2026-04-01T09:13:35.549Z</time></trkpt><trkpt lat="42.9890928" lon="12.0627405"><ele>511.75</ele><time>2026-04-01T09:13:36.548Z</time></trkpt><trkpt lat="42.988955" lon="12.0627851"><ele>514.5</ele><time>2026-04-01T09:13:37.547Z</time></trkpt><trkpt lat="42.9888227" lon="12.0628341"><ele>517.25</ele><time>2026-04-01T09:13:38.548Z</time></trkpt><trkpt lat="42.9887023" lon="12.0628772"><ele>520.0</ele><time>2026-04-01T09:13:39.549Z</time></trkpt><trkpt lat="42.9885864" lon="12.0629249"><ele>520.0</ele><time>2026-04-01T09:13:40.549Z</time></trkpt><trkpt lat="42.988472" lon="12.0629673"><ele>520.0</ele><time>2026-04-01T09:13:41.549Z</time></trkpt><trkpt lat="42.9883562" lon="12.0629905"><ele>520.0</ele><time>2026-04-01T09:13:42.55Z</time></trkpt><trkpt lat="42.9882374" lon="12.0630154"><ele>520.0</ele><time>2026-04-01T09:13:43.549Z</time></trkpt><trkpt lat="42.9881173" lon="12.0630192"><ele>522.2</ele><time>2026-04-01T09:13:44.549Z</time></trkpt><trkpt lat="42.987994" lon="12.063041"><ele>524.4</ele><time>2026-04-01T09:13:45.547Z</time></trkpt><trkpt lat="42.9878746" lon="12.0630477"><ele>526.6</ele><time>2026-04-01T09:13:46.549Z</time></trkpt><trkpt lat="42.9877738" lon="12.0630756"><ele>528.8</ele><time>2026-04-01T09:13:47.549Z</time></trkpt><trkpt lat="42.9876747" lon="12.0630873"><ele>531.0</ele><time>2026-04-01T09:13:48.549Z</time></trkpt><trkpt lat="42.9875744" lon="12.0631262"><ele>531.0</ele><time>2026-04-01T09:13:49.55Z</time></trkpt><trkpt lat="42.9874929" lon="12.0631283"><ele>531.0</ele><time>2026-04-01T09:13:50.549Z</time></trkpt><trkpt lat="42.9874276" lon="12.0631285"><ele>531.0</ele><time>2026-04-01T09:13:51.549Z</time></trkpt><trkpt lat="42.9873328" lon="12.0630366"><ele>531.0</ele><time>2026-04-01T09:13:53.549Z</time></trkpt><trkpt lat="42.9872626" lon="12.0628693"><ele>531.0</ele><time>2026-04-01T09:13:55.549Z</time></trkpt><trkpt lat="42.9872308" lon="12.0627682"><ele>531.0</ele><time>2026-04-01T09:13:56.549Z</time></trkpt><trkpt lat="42.987207" lon="12.0626577"><ele>531.0</ele><time>2026-04-01T09:13:57.549Z</time></trkpt><trkpt lat="42.9871747" lon="12.0625625"><ele>531.0</ele><time>2026-04-01T09:13:58.55Z</time></trkpt><trkpt lat="42.9871268" lon="12.062463"><ele>531.0</ele><time>2026-04-01T09:13:59.549Z</time></trkpt><trkpt lat="42.9870705" lon="12.0623699"><ele>531.0</ele><time>2026-04-01T09:14:00.549Z</time></trkpt><trkpt lat="42.9870006" lon="12.0622857"><ele>531.0</ele><time>2026-04-01T09:14:01.549Z</time></trkpt><trkpt lat="42.9869118" lon="12.0622155"><ele>527.8</ele><time>2026-04-01T09:14:02.55Z</time></trkpt><trkpt lat="42.9868255" lon="12.0621566"><ele>524.6</ele><time>2026-04-01T09:14:03.549Z</time></trkpt><trkpt lat="42.9867314" lon="12.0621005"><ele>521.4</ele><time>2026-04-01T09:14:04.549Z</time></trkpt><trkpt lat="42.9866441" lon="12.0620535"><ele>518.2</ele><time>2026-04-01T09:14:05.549Z</time></trkpt><trkpt lat="42.9865494" lon="12.0620196"><ele>515.0</ele><time>2026-04-01T09:14:06.55Z</time></trkpt><trkpt lat="42.9864367" lon="12.062019"><ele>514.0</ele><time>2026-04-01T09:14:07.549Z</time></trkpt><trkpt lat="42.9863285" lon="12.0620102"><ele>513.0</ele><time>2026-04-01T09:14:08.549Z</time></trkpt><trkpt lat="42.9862088" lon="12.0620434"><ele>512.0</ele><time>2026-04-01T09:14:09.549Z</time></trkpt><trkpt lat="42.9861011" lon="12.0620641"><ele>511.0</ele><time>2026-04-01T09:14:10.55Z</time></trkpt><trkpt lat="42.9859798" lon="12.062088"><ele>511.0</ele><time>2026-04-01T09:14:11.549Z</time></trkpt><trkpt lat="42.9858634" lon="12.0620971"><ele>511.0</ele><time>2026-04-01T09:14:12.55Z</time></trkpt><trkpt lat="42.9857517" lon="12.0620861"><ele>511.0</ele><time>2026-04-01T09:14:13.549Z</time></trkpt><trkpt lat="42.9856468" lon="12.0620458"><ele>511.0</ele><time>2026-04-01T09:14:14.55Z</time></trkpt><trkpt lat="42.985515" lon="12.0620383"><ele>508.25</ele><time>2026-04-01T09:14:15.549Z</time></trkpt><trkpt lat="42.9853884" lon="12.0620503"><ele>505.5</ele><time>2026-04-01T09:14:16.549Z</time></trkpt><trkpt lat="42.9852545" lon="12.0620778"><ele>502.75</ele><time>2026-04-01T09:14:17.549Z</time></trkpt><trkpt lat="42.9851396" lon="12.0621138"><ele>500.0</ele><time>2026-04-01T09:14:18.549Z</time></trkpt><trkpt lat="42.9850643" lon="12.0621006"><ele>499.99999999999994</ele><time>2026-04-01T09:14:19.549Z</time></trkpt><trkpt lat="42.985008" lon="12.0620593"><ele>500.0</ele><time>2026-04-01T09:14:20.549Z</time></trkpt><trkpt lat="42.9849613" lon="12.0619916"><ele>500.0</ele><time>2026-04-01T09:14:21.549Z</time></trkpt><trkpt lat="42.9849267" lon="12.0618661"><ele>500.0</ele><time>2026-04-01T09:14:22.549Z</time></trkpt><trkpt lat="42.9848838" lon="12.0617251"><ele>499.99999999999994</ele><time>2026-04-01T09:14:23.55Z</time></trkpt><trkpt lat="42.9848459" lon="12.0616119"><ele>500.0</ele><time>2026-04-01T09:14:24.55Z</time></trkpt><trkpt lat="42.9848041" lon="12.0615006"><ele>497.0</ele><time>2026-04-01T09:14:25.548Z</time></trkpt><trkpt lat="42.9847401" lon="12.0614142"><ele>494.0</ele><time>2026-04-01T09:14:27.549Z</time></trkpt><trkpt lat="42.9846812" lon="12.0613685"><ele>491.0</ele><time>2026-04-01T09:14:28.549Z</time></trkpt><trkpt lat="42.9845685" lon="12.0613572"><ele>488.0</ele><time>2026-04-01T09:14:30.549Z</time></trkpt><trkpt lat="42.9844434" lon="12.0613914"><ele>485.0</ele><time>2026-04-01T09:14:32.549Z</time></trkpt><trkpt lat="42.984315" lon="12.0614809"><ele>485.0</ele><time>2026-04-01T09:14:34.549Z</time></trkpt><trkpt lat="42.9842588" lon="12.0615693"><ele>485.0</ele><time>2026-04-01T09:14:35.549Z</time></trkpt><trkpt lat="42.984175" lon="12.0616728"><ele>485.0</ele><time>2026-04-01T09:14:36.55Z</time></trkpt><trkpt lat="42.9840916" lon="12.0617787"><ele>485.0</ele><time>2026-04-01T09:14:37.549Z</time></trkpt><trkpt lat="42.9839686" lon="12.0618703"><ele>486.5</ele><time>2026-04-01T09:14:38.55Z</time></trkpt><trkpt lat="42.9838292" lon="12.0619335"><ele>488.0</ele><time>2026-04-01T09:14:39.549Z</time></trkpt><trkpt lat="42.9837178" lon="12.0619937"><ele>489.5</ele><time>2026-04-01T09:14:40.548Z</time></trkpt><trkpt lat="42.983612" lon="12.0620196"><ele>491.0</ele><time>2026-04-01T09:14:41.549Z</time></trkpt><trkpt lat="42.9835115" lon="12.0620189"><ele>491.0</ele><time>2026-04-01T09:14:42.549Z</time></trkpt><trkpt lat="42.9834043" lon="12.0619968"><ele>491.0</ele><time>2026-04-01T09:14:43.548Z</time></trkpt><trkpt lat="42.9832778" lon="12.061988"><ele>491.0</ele><time>2026-04-01T09:14:44.549Z</time></trkpt><trkpt lat="42.9831425" lon="12.061987"><ele>491.0</ele><time>2026-04-01T09:14:45.549Z</time></trkpt><trkpt lat="42.9830017" lon="12.0620149"><ele>488.25</ele><time>2026-04-01T09:14:46.549Z</time></trkpt><trkpt lat="42.9828706" lon="12.0620366"><ele>485.5</ele><time>2026-04-01T09:14:47.549Z</time></trkpt><trkpt lat="42.9827436" lon="12.0620774"><ele>482.75</ele><time>2026-04-01T09:14:48.548Z</time></trkpt><trkpt lat="42.9826331" lon="12.0621219"><ele>480.0</ele><time>2026-04-01T09:14:49.55Z</time></trkpt><trkpt lat="42.9825248" lon="12.0621676"><ele>480.0</ele><time>2026-04-01T09:14:50.549Z</time></trkpt><trkpt lat="42.9823727" lon="12.0621589"><ele>480.0</ele><time>2026-04-01T09:14:51.55Z</time></trkpt><trkpt lat="42.9822326" lon="12.0621753"><ele>480.0</ele><time>2026-04-01T09:14:52.549Z</time></trkpt><trkpt lat="42.9820892" lon="12.0621957"><ele>480.0</ele><time>2026-04-01T09:14:53.549Z</time></trkpt><trkpt lat="42.9819495" lon="12.0622149"><ele>480.0</ele><time>2026-04-01T09:14:54.549Z</time></trkpt><trkpt lat="42.9818146" lon="12.06223"><ele>480.0</ele><time>2026-04-01T09:14:55.549Z</time></trkpt><trkpt lat="42.981684" lon="12.0622502"><ele>480.0</ele><time>2026-04-01T09:14:56.55Z</time></trkpt><trkpt lat="42.9815594" lon="12.0621926"><ele>480.0</ele><time>2026-04-01T09:14:57.549Z</time></trkpt><trkpt lat="42.9814187" lon="12.0621464"><ele>478.0</ele><time>2026-04-01T09:14:58.55Z</time></trkpt><trkpt lat="42.9812922" lon="12.0621069"><ele>476.0</ele><time>2026-04-01T09:14:59.55Z</time></trkpt><trkpt lat="42.9811619" lon="12.0620805"><ele>474.0</ele><time>2026-04-01T09:15:00.549Z</time></trkpt><trkpt lat="42.9810354" lon="12.062038"><ele>472.0</ele><time>2026-04-01T09:15:01.55Z</time></trkpt><trkpt lat="42.9809053" lon="12.0620046"><ele>471.0</ele><time>2026-04-01T09:15:02.549Z</time></trkpt><trkpt lat="42.980801" lon="12.0619968"><ele>470.00000000000006</ele><time>2026-04-01T09:15:03.549Z</time></trkpt><trkpt lat="42.9806951" lon="12.0619732"><ele>469.00000000000006</ele><time>2026-04-01T09:15:04.549Z</time></trkpt><trkpt lat="42.9806024" lon="12.0619385"><ele>468.0</ele><time>2026-04-01T09:15:05.55Z</time></trkpt><trkpt lat="42.9805247" lon="12.06189"><ele>467.0</ele><time>2026-04-01T09:15:06.549Z</time></trkpt><trkpt lat="42.9804543" lon="12.0618237"><ele>466.99999999999994</ele><time>2026-04-01T09:15:07.549Z</time></trkpt><trkpt lat="42.9803872" lon="12.0617428"><ele>467.0</ele><time>2026-04-01T09:15:08.549Z</time></trkpt><trkpt lat="42.9803163" lon="12.0616678"><ele>467.0</ele><time>2026-04-01T09:15:09.549Z</time></trkpt><trkpt lat="42.9802411" lon="12.0615744"><ele>467.0</ele><time>2026-04-01T09:15:10.549Z</time></trkpt><trkpt lat="42.9801752" lon="12.0614963"><ele>466.99999999999994</ele><time>2026-04-01T09:15:11.549Z</time></trkpt><trkpt lat="42.9801139" lon="12.0614411"><ele>467.0</ele><time>2026-04-01T09:15:12.55Z</time></trkpt><trkpt lat="42.9800481" lon="12.061392"><ele>463.3333333333333</ele><time>2026-04-01T09:15:13.55Z</time></trkpt><trkpt lat="42.9799881" lon="12.0613603"><ele>459.66666666666663</ele><time>2026-04-01T09:15:14.55Z</time></trkpt><trkpt lat="42.9799121" lon="12.0613518"><ele>456.0</ele><time>2026-04-01T09:15:15.549Z</time></trkpt><trkpt lat="42.9798268" lon="12.0613597"><ele>452.33333333333337</ele><time>2026-04-01T09:15:16.55Z</time></trkpt><trkpt lat="42.9797388" lon="12.0613855"><ele>448.6666666666667</ele><time>2026-04-01T09:15:17.551Z</time></trkpt><trkpt lat="42.9796404" lon="12.0614305"><ele>445.0</ele><time>2026-04-01T09:15:18.55Z</time></trkpt><trkpt lat="42.9795701" lon="12.0614887"><ele>445.0</ele><time>2026-04-01T09:15:19.551Z</time></trkpt><trkpt lat="42.9794847" lon="12.0615504"><ele>445.0</ele><time>2026-04-01T09:15:20.55Z</time></trkpt><trkpt lat="42.9794028" lon="12.0616328"><ele>445.0</ele><time>2026-04-01T09:15:21.55Z</time></trkpt><trkpt lat="42.9793269" lon="12.0617258"><ele>445.0</ele><time>2026-04-01T09:15:22.549Z</time></trkpt><trkpt lat="42.9792498" lon="12.0618118"><ele>445.0</ele><time>2026-04-01T09:15:23.548Z</time></trkpt><trkpt lat="42.9791829" lon="12.0618993"><ele>444.4</ele><time>2026-04-01T09:15:24.549Z</time></trkpt><trkpt lat="42.9791076" lon="12.0619828"><ele>443.8</ele><time>2026-04-01T09:15:25.549Z</time></trkpt><trkpt lat="42.9790329" lon="12.0620499"><ele>443.20000000000005</ele><time>2026-04-01T09:15:26.551Z</time></trkpt><trkpt lat="42.9789565" lon="12.0621151"><ele>442.6</ele><time>2026-04-01T09:15:27.55Z</time></trkpt><trkpt lat="42.9788783" lon="12.0621828"><ele>442.0</ele><time>2026-04-01T09:15:28.551Z</time></trkpt><trkpt lat="42.9787801" lon="12.0622323"><ele>442.00000000000006</ele><time>2026-04-01T09:15:29.551Z</time></trkpt><trkpt lat="42.978723" lon="12.062272"><ele>442.0</ele><time>2026-04-01T09:15:30.55Z</time></trkpt><trkpt lat="42.978647" lon="12.0623353"><ele>442.0</ele><time>2026-04-01T09:15:31.55Z</time></trkpt><trkpt lat="42.9785719" lon="12.0623606"><ele>442.0</ele><time>2026-04-01T09:15:32.55Z</time></trkpt><trkpt lat="42.9785002" lon="12.0623734"><ele>442.00000000000006</ele><time>2026-04-01T09:15:33.55Z</time></trkpt><trkpt lat="42.9784264" lon="12.0623062"><ele>442.0</ele><time>2026-04-01T09:15:34.549Z</time></trkpt><trkpt lat="42.9783584" lon="12.0622177"><ele>440.33333333333337</ele><time>2026-04-01T09:15:35.549Z</time></trkpt><trkpt lat="42.9783221" lon="12.062117"><ele>438.6666666666667</ele><time>2026-04-01T09:15:36.549Z</time></trkpt><trkpt lat="42.9782538" lon="12.0620307"><ele>437.0</ele><time>2026-04-01T09:15:37.548Z</time></trkpt><trkpt lat="42.9781735" lon="12.0619802"><ele>435.33333333333337</ele><time>2026-04-01T09:15:38.549Z</time></trkpt><trkpt lat="42.9780957" lon="12.0619369"><ele>433.6666666666667</ele><time>2026-04-01T09:15:39.55Z</time></trkpt><trkpt lat="42.9780029" lon="12.0619276"><ele>432.0</ele><time>2026-04-01T09:15:40.548Z</time></trkpt><trkpt lat="42.9779104" lon="12.0618965"><ele>432.0</ele><time>2026-04-01T09:15:41.55Z</time></trkpt><trkpt lat="42.9778105" lon="12.0618942"><ele>432.00000000000006</ele><time>2026-04-01T09:15:42.548Z</time></trkpt><trkpt lat="42.9776934" lon="12.0618837"><ele>432.00000000000006</ele><time>2026-04-01T09:15:43.549Z</time></trkpt><trkpt lat="42.9775828" lon="12.0618804"><ele>432.0</ele><time>2026-04-01T09:15:44.55Z</time></trkpt><trkpt lat="42.9774696" lon="12.0618866"><ele>432.0</ele><time>2026-04-01T09:15:45.549Z</time></trkpt><trkpt lat="42.9773604" lon="12.0618795"><ele>430.8333333333333</ele><time>2026-04-01T09:15:46.549Z</time></trkpt><trkpt lat="42.977257" lon="12.0618787"><ele>429.66666666666663</ele><time>2026-04-01T09:15:47.549Z</time></trkpt><trkpt lat="42.9771612" lon="12.0618763"><ele>428.5</ele><time>2026-04-01T09:15:48.549Z</time></trkpt><trkpt lat="42.9770825" lon="12.0618829"><ele>427.3333333333333</ele><time>2026-04-01T09:15:49.55Z</time></trkpt><trkpt lat="42.9770024" lon="12.0619035"><ele>426.16666666666663</ele><time>2026-04-01T09:15:50.55Z</time></trkpt><trkpt lat="42.9769316" lon="12.0619489"><ele>425.0</ele><time>2026-04-01T09:15:51.551Z</time></trkpt><trkpt lat="42.976851" lon="12.0620176"><ele>425.0</ele><time>2026-04-01T09:15:52.549Z</time></trkpt><trkpt lat="42.9767742" lon="12.0621165"><ele>425.0</ele><time>2026-04-01T09:15:53.549Z</time></trkpt><trkpt lat="42.9766936" lon="12.0622179"><ele>425.0</ele><time>2026-04-01T09:15:54.548Z</time></trkpt><trkpt lat="42.9766107" lon="12.0623273"><ele>425.0</ele><time>2026-04-01T09:15:55.549Z</time></trkpt><trkpt lat="42.9765108" lon="12.0624201"><ele>422.4</ele><time>2026-04-01T09:15:56.548Z</time></trkpt><trkpt lat="42.9764063" lon="12.0625073"><ele>419.8</ele><time>2026-04-01T09:15:57.55Z</time></trkpt><trkpt lat="42.9763426" lon="12.0625819"><ele>417.20000000000005</ele><time>2026-04-01T09:15:58.55Z</time></trkpt><trkpt lat="42.9762667" lon="12.0626507"><ele>414.6</ele><time>2026-04-01T09:15:59.549Z</time></trkpt><trkpt lat="42.9761908" lon="12.0626978"><ele>412.0</ele><time>2026-04-01T09:16:00.549Z</time></trkpt><trkpt lat="42.9761121" lon="12.0627151"><ele>412.0</ele><time>2026-04-01T09:16:01.549Z</time></trkpt><trkpt lat="42.9760112" lon="12.0627057"><ele>412.0</ele><time>2026-04-01T09:16:02.551Z</time></trkpt><trkpt lat="42.9759047" lon="12.0626679"><ele>412.0</ele><time>2026-04-01T09:16:03.549Z</time></trkpt><trkpt lat="42.9757775" lon="12.0626083"><ele>412.0</ele><time>2026-04-01T09:16:04.55Z</time></trkpt><trkpt lat="42.9756618" lon="12.0625298"><ele>409.75</ele><time>2026-04-01T09:16:05.549Z</time></trkpt><trkpt lat="42.9755319" lon="12.0624662"><ele>407.5</ele><time>2026-04-01T09:16:06.549Z</time></trkpt><trkpt lat="42.9754079" lon="12.062381"><ele>405.25</ele><time>2026-04-01T09:16:07.549Z</time></trkpt><trkpt lat="42.9752946" lon="12.0622935"><ele>403.0</ele><time>2026-04-01T09:16:08.55Z</time></trkpt><trkpt lat="42.9751825" lon="12.0621804"><ele>402.0</ele><time>2026-04-01T09:16:09.549Z</time></trkpt><trkpt lat="42.9750858" lon="12.0620673"><ele>401.0</ele><time>2026-04-01T09:16:10.549Z</time></trkpt><trkpt lat="42.9750138" lon="12.0619562"><ele>400.0</ele><time>2026-04-01T09:16:11.551Z</time></trkpt><trkpt lat="42.9749362" lon="12.0618395"><ele>399.0</ele><time>2026-04-01T09:16:12.551Z</time></trkpt><trkpt lat="42.9748536" lon="12.0617343"><ele>398.0</ele><time>2026-04-01T09:16:13.551Z</time></trkpt><trkpt lat="42.974755" lon="12.0616436"><ele>397.0</ele><time>2026-04-01T09:16:14.548Z</time></trkpt><trkpt lat="42.9746421" lon="12.0615457"><ele>396.0</ele><time>2026-04-01T09:16:15.549Z</time></trkpt><trkpt lat="42.9745106" lon="12.0614481"><ele>395.0</ele><time>2026-04-01T09:16:16.548Z</time></trkpt><trkpt lat="42.97438" lon="12.0613452"><ele>393.75</ele><time>2026-04-01T09:16:17.549Z</time></trkpt><trkpt lat="42.9742709" lon="12.061246"><ele>392.5</ele><time>2026-04-01T09:16:18.55Z</time></trkpt><trkpt lat="42.9741649" lon="12.0611554"><ele>391.25</ele><time>2026-04-01T09:16:19.55Z</time></trkpt><trkpt lat="42.9740519" lon="12.061089"><ele>390.0</ele><time>2026-04-01T09:16:20.549Z</time></trkpt><trkpt lat="42.9739489" lon="12.061015"><ele>390.0</ele><time>2026-04-01T09:16:21.55Z</time></trkpt><trkpt lat="42.9738596" lon="12.0609445"><ele>390.0</ele><time>2026-04-01T09:16:22.55Z</time></trkpt><trkpt lat="42.9737664" lon="12.0608804"><ele>390.0</ele><time>2026-04-01T09:16:23.55Z</time></trkpt><trkpt lat="42.9736947" lon="12.0608544"><ele>390.0</ele><time>2026-04-01T09:16:24.549Z</time></trkpt><trkpt lat="42.9736033" lon="12.0608258"><ele>390.0</ele><time>2026-04-01T09:16:26.549Z</time></trkpt><trkpt lat="42.9736465" lon="12.0607427"><ele>389.0</ele><time>2026-04-01T09:16:30.55Z</time></trkpt><trkpt lat="42.9737523" lon="12.0606376"><ele>388.0</ele><time>2026-04-01T09:16:32.55Z</time></trkpt><trkpt lat="42.9738026" lon="12.0605573"><ele>387.0</ele><time>2026-04-01T09:16:33.551Z</time></trkpt><trkpt lat="42.9738585" lon="12.0604702"><ele>386.0</ele><time>2026-04-01T09:16:34.546Z</time></trkpt><trkpt lat="42.9739097" lon="12.0603514"><ele>385.0</ele><time>2026-04-01T09:16:35.55Z</time></trkpt><trkpt lat="42.973986" lon="12.0602322"><ele>385.0</ele><time>2026-04-01T09:16:36.55Z</time></trkpt><trkpt lat="42.9740846" lon="12.0600926"><ele>385.0</ele><time>2026-04-01T09:16:37.549Z</time></trkpt><trkpt lat="42.9741676" lon="12.0599648"><ele>385.0</ele><time>2026-04-01T09:16:38.55Z</time></trkpt><trkpt lat="42.9742553" lon="12.059809"><ele>385.0</ele><time>2026-04-01T09:16:39.549Z</time></trkpt><trkpt lat="42.9743121" lon="12.0596453"><ele>385.0</ele><time>2026-04-01T09:16:40.55Z</time></trkpt><trkpt lat="42.9743857" lon="12.0595036"><ele>385.0</ele><time>2026-04-01T09:16:41.55Z</time></trkpt><trkpt lat="42.9744287" lon="12.0593188"><ele>385.0</ele><time>2026-04-01T09:16:42.55Z</time></trkpt><trkpt lat="42.9744153" lon="12.0591414"><ele>385.0</ele><time>2026-04-01T09:16:43.55Z</time></trkpt><trkpt lat="42.9744127" lon="12.0589597"><ele>385.0</ele><time>2026-04-01T09:16:44.55Z</time></trkpt><trkpt lat="42.9743866" lon="12.0587502"><ele>385.0</ele><time>2026-04-01T09:16:45.55Z</time></trkpt><trkpt lat="42.974364" lon="12.0585287"><ele>385.0</ele><time>2026-04-01T09:16:46.55Z</time></trkpt><trkpt lat="42.9743524" lon="12.0582775"><ele>383.0</ele><time>2026-04-01T09:16:47.55Z</time></trkpt><trkpt lat="42.9743435" lon="12.0580261"><ele>381.0</ele><time>2026-04-01T09:16:48.551Z</time></trkpt><trkpt lat="42.9743416" lon="12.0577983"><ele>379.0</ele><time>2026-04-01T09:16:49.549Z</time></trkpt><trkpt lat="42.9743752" lon="12.0575573"><ele>376.66666666666663</ele><time>2026-04-01T09:16:50.549Z</time></trkpt><trkpt lat="42.9744151" lon="12.0573621"><ele>374.3333333333333</ele><time>2026-04-01T09:16:51.55Z</time></trkpt><trkpt lat="42.9745137" lon="12.0571152"><ele>372.0</ele><time>2026-04-01T09:16:52.55Z</time></trkpt><trkpt lat="42.9746236" lon="12.0568592"><ele>367.5</ele><time>2026-04-01T09:16:53.549Z</time></trkpt><trkpt lat="42.9747491" lon="12.056604"><ele>363.0</ele><time>2026-04-01T09:16:54.549Z</time></trkpt><trkpt lat="42.9748694" lon="12.0563328"><ele>363.0</ele><time>2026-04-01T09:16:55.55Z</time></trkpt><trkpt lat="42.9749212" lon="12.0560283"><ele>363.0</ele><time>2026-04-01T09:16:56.551Z</time></trkpt><trkpt lat="42.9749838" lon="12.0557513"><ele>363.0</ele><time>2026-04-01T09:16:57.549Z</time></trkpt><trkpt lat="42.9750441" lon="12.0554754"><ele>360.5</ele><time>2026-04-01T09:16:58.549Z</time></trkpt><trkpt lat="42.9751" lon="12.0552081"><ele>358.0</ele><time>2026-04-01T09:16:59.55Z</time></trkpt><trkpt lat="42.9751678" lon="12.0548824"><ele>356.66666666666663</ele><time>2026-04-01T09:17:00.551Z</time></trkpt><trkpt lat="42.9753196" lon="12.0547218"><ele>355.3333333333333</ele><time>2026-04-01T09:17:01.551Z</time></trkpt><trkpt lat="42.9754354" lon="12.0544942"><ele>354.0</ele><time>2026-04-01T09:17:02.549Z</time></trkpt><trkpt lat="42.9755182" lon="12.0542573"><ele>354.6666666666667</ele><time>2026-04-01T09:17:03.55Z</time></trkpt><trkpt lat="42.9755925" lon="12.0540394"><ele>355.33333333333337</ele><time>2026-04-01T09:17:04.549Z</time></trkpt><trkpt lat="42.9756336" lon="12.0537868"><ele>356.0</ele><time>2026-04-01T09:17:05.55Z</time></trkpt><trkpt lat="42.9756304" lon="12.053526"><ele>354.0</ele><time>2026-04-01T09:17:06.55Z</time></trkpt><trkpt lat="42.9756226" lon="12.0532411"><ele>352.0</ele><time>2026-04-01T09:17:07.55Z</time></trkpt><trkpt lat="42.975615" lon="12.0529584"><ele>350.0</ele><time>2026-04-01T09:17:08.55Z</time></trkpt><trkpt lat="42.9756391" lon="12.0526544"><ele>349.33333333333337</ele><time>2026-04-01T09:17:09.551Z</time></trkpt><trkpt lat="42.9757138" lon="12.05238"><ele>348.6666666666667</ele><time>2026-04-01T09:17:10.549Z</time></trkpt><trkpt lat="42.9757972" lon="12.0521189"><ele>348.0</ele><time>2026-04-01T09:17:11.549Z</time></trkpt><trkpt lat="42.975876" lon="12.0518521"><ele>348.0</ele><time>2026-04-01T09:17:12.55Z</time></trkpt><trkpt lat="42.9760397" lon="12.0516329"><ele>348.0</ele><time>2026-04-01T09:17:13.55Z</time></trkpt><trkpt lat="42.9761925" lon="12.0514344"><ele>348.0</ele><time>2026-04-01T09:17:14.549Z</time></trkpt><trkpt lat="42.9763477" lon="12.0512511"><ele>344.3333333333333</ele><time>2026-04-01T09:17:15.55Z</time></trkpt><trkpt lat="42.9764739" lon="12.0510516"><ele>340.66666666666663</ele><time>2026-04-01T09:17:16.549Z</time></trkpt><trkpt lat="42.9765753" lon="12.050839"><ele>337.0</ele><time>2026-04-01T09:17:17.551Z</time></trkpt><trkpt lat="42.9766518" lon="12.0505876"><ele>339.66666666666663</ele><time>2026-04-01T09:17:18.551Z</time></trkpt><trkpt lat="42.9766863" lon="12.0502925"><ele>342.3333333333333</ele><time>2026-04-01T09:17:19.55Z</time></trkpt><trkpt lat="42.9766986" lon="12.0499924"><ele>345.0</ele><time>2026-04-01T09:17:20.55Z</time></trkpt><trkpt lat="42.9766947" lon="12.0496759"><ele>345.0</ele><time>2026-04-01T09:17:21.55Z</time></trkpt><trkpt lat="42.9766923" lon="12.0493789"><ele>345.0</ele><time>2026-04-01T09:17:22.55Z</time></trkpt><trkpt lat="42.9767095" lon="12.049102"><ele>345.0</ele><time>2026-04-01T09:17:23.549Z</time></trkpt><trkpt lat="42.9767646" lon="12.0488481"><ele>341.6666666666667</ele><time>2026-04-01T09:17:24.551Z</time></trkpt><trkpt lat="42.9768289" lon="12.0486127"><ele>338.33333333333337</ele><time>2026-04-01T09:17:25.549Z</time></trkpt><trkpt lat="42.9769641" lon="12.0483923"><ele>335.0</ele><time>2026-04-01T09:17:26.551Z</time></trkpt><trkpt lat="42.9771426" lon="12.0481798"><ele>331.5</ele><time>2026-04-01T09:17:27.55Z</time></trkpt><trkpt lat="42.9773028" lon="12.0479678"><ele>328.0</ele><time>2026-04-01T09:17:28.549Z</time></trkpt><trkpt lat="42.9774813" lon="12.0477114"><ele>327.5</ele><time>2026-04-01T09:17:29.551Z</time></trkpt><trkpt lat="42.9776514" lon="12.0474684"><ele>327.0</ele><time>2026-04-01T09:17:30.549Z</time></trkpt><trkpt lat="42.9778825" lon="12.0472787"><ele>327.0</ele><time>2026-04-01T09:17:31.55Z</time></trkpt><trkpt lat="42.9780798" lon="12.0470889"><ele>327.0</ele><time>2026-04-01T09:17:32.551Z</time></trkpt><trkpt lat="42.9782526" lon="12.0469046"><ele>329.3333333333333</ele><time>2026-04-01T09:17:33.55Z</time></trkpt><trkpt lat="42.9783977" lon="12.04669"><ele>331.66666666666663</ele><time>2026-04-01T09:17:34.55Z</time></trkpt><trkpt lat="42.9785118" lon="12.0464313"><ele>334.0</ele><time>2026-04-01T09:17:35.551Z</time></trkpt><trkpt lat="42.9786127" lon="12.046153"><ele>334.0</ele><time>2026-04-01T09:17:36.549Z</time></trkpt><trkpt lat="42.9787115" lon="12.0458437"><ele>334.0</ele><time>2026-04-01T09:17:37.55Z</time></trkpt><trkpt lat="42.9788128" lon="12.0455204"><ele>331.0</ele><time>2026-04-01T09:17:38.55Z</time></trkpt><trkpt lat="42.9789028" lon="12.0452049"><ele>328.0</ele><time>2026-04-01T09:17:39.551Z</time></trkpt><trkpt lat="42.9789524" lon="12.0448954"><ele>327.66666666666663</ele><time>2026-04-01T09:17:40.55Z</time></trkpt><trkpt lat="42.9789615" lon="12.0445907"><ele>327.3333333333333</ele><time>2026-04-01T09:17:41.55Z</time></trkpt><trkpt lat="42.9789465" lon="12.0443106"><ele>327.0</ele><time>2026-04-01T09:17:42.549Z</time></trkpt><trkpt lat="42.9789531" lon="12.0440305"><ele>324.6666666666667</ele><time>2026-04-01T09:17:43.551Z</time></trkpt><trkpt lat="42.9789602" lon="12.0437568"><ele>322.33333333333337</ele><time>2026-04-01T09:17:44.549Z</time></trkpt><trkpt lat="42.9790659" lon="12.0434826"><ele>320.0</ele><time>2026-04-01T09:17:45.551Z</time></trkpt><trkpt lat="42.9791573" lon="12.0431984"><ele>322.5</ele><time>2026-04-01T09:17:46.551Z</time></trkpt><trkpt lat="42.9792606" lon="12.0428963"><ele>325.0</ele><time>2026-04-01T09:17:47.55Z</time></trkpt><trkpt lat="42.9793798" lon="12.0426013"><ele>319.5</ele><time>2026-04-01T09:17:48.551Z</time></trkpt><trkpt lat="42.9794985" lon="12.0423051"><ele>314.0</ele><time>2026-04-01T09:17:49.55Z</time></trkpt><trkpt lat="42.9796194" lon="12.0420469"><ele>314.0</ele><time>2026-04-01T09:17:50.55Z</time></trkpt><trkpt lat="42.9797715" lon="12.0418002"><ele>314.0</ele><time>2026-04-01T09:17:51.551Z</time></trkpt><trkpt lat="42.9799761" lon="12.0415803"><ele>316.5</ele><time>2026-04-01T09:17:52.55Z</time></trkpt><trkpt lat="42.9801513" lon="12.041347"><ele>319.0</ele><time>2026-04-01T09:17:53.551Z</time></trkpt><trkpt lat="42.9803694" lon="12.0411439"><ele>319.0</ele><time>2026-04-01T09:17:54.551Z</time></trkpt><trkpt lat="42.9805797" lon="12.0409401"><ele>319.0</ele><time>2026-04-01T09:17:55.55Z</time></trkpt><trkpt lat="42.980804" lon="12.0407395"><ele>318.0</ele><time>2026-04-01T09:17:56.551Z</time></trkpt><trkpt lat="42.9810171" lon="12.0405279"><ele>317.0</ele><time>2026-04-01T09:17:57.549Z</time></trkpt><trkpt lat="42.9812157" lon="12.0403335"><ele>317.0</ele><time>2026-04-01T09:17:58.55Z</time></trkpt><trkpt lat="42.981411" lon="12.0401269"><ele>317.0</ele><time>2026-04-01T09:17:59.55Z</time></trkpt><trkpt lat="42.9815725" lon="12.0398845"><ele>314.5</ele><time>2026-04-01T09:18:00.551Z</time></trkpt><trkpt lat="42.9817397" lon="12.0396404"><ele>312.0</ele><time>2026-04-01T09:18:01.55Z</time></trkpt><trkpt lat="42.9819065" lon="12.0394219"><ele>312.0</ele><time>2026-04-01T09:18:02.549Z</time></trkpt><trkpt lat="42.982073" lon="12.0391648"><ele>312.0</ele><time>2026-04-01T09:18:03.55Z</time></trkpt><trkpt lat="42.9822481" lon="12.0389196"><ele>311.0</ele><time>2026-04-01T09:18:04.55Z</time></trkpt><trkpt lat="42.9823825" lon="12.0386992"><ele>310.0</ele><time>2026-04-01T09:18:05.549Z</time></trkpt><trkpt lat="42.9824849" lon="12.038528"><ele>309.0</ele><time>2026-04-01T09:18:06.55Z</time></trkpt><trkpt lat="42.9825796" lon="12.0383978"><ele>307.8333333333333</ele><time>2026-04-01T09:18:07.55Z</time></trkpt><trkpt lat="42.9826378" lon="12.0382839"><ele>306.6666666666667</ele><time>2026-04-01T09:18:08.55Z</time></trkpt><trkpt lat="42.9826786" lon="12.0381845"><ele>305.5</ele><time>2026-04-01T09:18:09.549Z</time></trkpt><trkpt lat="42.9826663" lon="12.0380887"><ele>304.33333333333337</ele><time>2026-04-01T09:18:11.55Z</time></trkpt><trkpt lat="42.982661" lon="12.0379798"><ele>303.1666666666667</ele><time>2026-04-01T09:18:13.55Z</time></trkpt><trkpt lat="42.9825983" lon="12.0379179"><ele>302.0</ele><time>2026-04-01T09:18:15.55Z</time></trkpt><trkpt lat="42.9825766" lon="12.0378352"><ele>302.0</ele><time>2026-04-01T09:18:16.551Z</time></trkpt><trkpt lat="42.9825416" lon="12.0377083"><ele>302.0</ele><time>2026-04-01T09:18:18.55Z</time></trkpt><trkpt lat="42.9825345" lon="12.0375804"><ele>302.0</ele><time>2026-04-01T09:18:20.55Z</time></trkpt><trkpt lat="42.9825263" lon="12.0374217"><ele>302.0</ele><time>2026-04-01T09:18:22.55Z</time></trkpt><trkpt lat="42.9825102" lon="12.0373237"><ele>302.0</ele><time>2026-04-01T09:18:23.549Z</time></trkpt><trkpt lat="42.9824892" lon="12.0372056"><ele>301.2</ele><time>2026-04-01T09:18:24.55Z</time></trkpt><trkpt lat="42.982458" lon="12.0370737"><ele>300.4</ele><time>2026-04-01T09:18:26.551Z</time></trkpt><trkpt lat="42.9824458" lon="12.0369787"><ele>299.6</ele><time>2026-04-01T09:18:28.55Z</time></trkpt><trkpt lat="42.9824092" lon="12.0368194"><ele>298.8</ele><time>2026-04-01T09:18:30.551Z</time></trkpt><trkpt lat="42.9823584" lon="12.0367306"><ele>298.0</ele><time>2026-04-01T09:18:31.549Z</time></trkpt><trkpt lat="42.9823214" lon="12.0366185"><ele>297.8333333333333</ele><time>2026-04-01T09:18:32.55Z</time></trkpt><trkpt lat="42.9822881" lon="12.0365181"><ele>297.66666666666663</ele><time>2026-04-01T09:18:33.55Z</time></trkpt><trkpt lat="42.9822596" lon="12.0364407"><ele>297.5</ele><time>2026-04-01T09:18:34.55Z</time></trkpt><trkpt lat="42.9822078" lon="12.0363015"><ele>297.3333333333333</ele><time>2026-04-01T09:18:36.55Z</time></trkpt><trkpt lat="42.982166" lon="12.0361628"><ele>297.1666666666667</ele><time>2026-04-01T09:18:38.55Z</time></trkpt><trkpt lat="42.9821346" lon="12.0360794"><ele>297.0</ele><time>2026-04-01T09:18:39.55Z</time></trkpt><trkpt lat="42.9820908" lon="12.0359851"><ele>297.0</ele><time>2026-04-01T09:18:40.551Z</time></trkpt><trkpt lat="42.9820283" lon="12.0358732"><ele>297.0</ele><time>2026-04-01T09:18:41.551Z</time></trkpt><trkpt lat="42.9819717" lon="12.0357595"><ele>297.0</ele><time>2026-04-01T09:18:42.55Z</time></trkpt><trkpt lat="42.9819134" lon="12.0356375"><ele>297.0</ele><time>2026-04-01T09:18:43.55Z</time></trkpt><trkpt lat="42.9818455" lon="12.0354937"><ele>297.0</ele><time>2026-04-01T09:18:44.55Z</time></trkpt><trkpt lat="42.9817902" lon="12.0353393"><ele>299.6</ele><time>2026-04-01T09:18:45.55Z</time></trkpt><trkpt lat="42.981747" lon="12.0351953"><ele>302.2</ele><time>2026-04-01T09:18:46.55Z</time></trkpt><trkpt lat="42.9817228" lon="12.035059"><ele>304.8</ele><time>2026-04-01T09:18:47.55Z</time></trkpt><trkpt lat="42.9817042" lon="12.0349084"><ele>307.4</ele><time>2026-04-01T09:18:48.549Z</time></trkpt><trkpt lat="42.9817041" lon="12.0347434"><ele>310.0</ele><time>2026-04-01T09:18:49.55Z</time></trkpt><trkpt lat="42.9817184" lon="12.0345984"><ele>312.6</ele><time>2026-04-01T09:18:50.55Z</time></trkpt><trkpt lat="42.9817319" lon="12.0344799"><ele>315.2</ele><time>2026-04-01T09:18:51.55Z</time></trkpt><trkpt lat="42.9817509" lon="12.0343708"><ele>317.79999999999995</ele><time>2026-04-01T09:18:52.55Z</time></trkpt><trkpt lat="42.9817809" lon="12.0342699"><ele>320.4</ele><time>2026-04-01T09:18:53.549Z</time></trkpt><trkpt lat="42.9818081" lon="12.0341803"><ele>323.0</ele><time>2026-04-01T09:18:54.551Z</time></trkpt><trkpt lat="42.98185" lon="12.0340102"><ele>323.5</ele><time>2026-04-01T09:18:56.551Z</time></trkpt><trkpt lat="42.9818752" lon="12.0338561"><ele>324.0</ele><time>2026-04-01T09:18:58.551Z</time></trkpt><trkpt lat="42.9818798" lon="12.0337324"><ele>324.5</ele><time>2026-04-01T09:19:00.55Z</time></trkpt><trkpt lat="42.9818747" lon="12.0336359"><ele>325.0</ele><time>2026-04-01T09:19:02.551Z</time></trkpt><trkpt lat="42.9818959" lon="12.033534"><ele>325.5</ele><time>2026-04-01T09:19:05.55Z</time></trkpt><trkpt lat="42.9819692" lon="12.0334676"><ele>326.0</ele><time>2026-04-01T09:19:08.551Z</time></trkpt><trkpt lat="42.9820031" lon="12.0333785"><ele>326.1666666666667</ele><time>2026-04-01T09:19:10.55Z</time></trkpt><trkpt lat="42.9820005" lon="12.0332225"><ele>326.33333333333337</ele><time>2026-04-01T09:19:12.551Z</time></trkpt><trkpt lat="42.9820026" lon="12.0331313"><ele>326.5</ele><time>2026-04-01T09:19:13.55Z</time></trkpt><trkpt lat="42.9820047" lon="12.0330211"><ele>326.6666666666667</ele><time>2026-04-01T09:19:14.55Z</time></trkpt><trkpt lat="42.9819974" lon="12.0329128"><ele>326.8333333333333</ele><time>2026-04-01T09:19:15.551Z</time></trkpt><trkpt lat="42.9819785" lon="12.0328016"><ele>327.0</ele><time>2026-04-01T09:19:16.551Z</time></trkpt><trkpt lat="42.9819505" lon="12.0326837"><ele>327.0</ele><time>2026-04-01T09:19:17.551Z</time></trkpt><trkpt lat="42.9819303" lon="12.0325433"><ele>327.0</ele><time>2026-04-01T09:19:18.553Z</time></trkpt><trkpt lat="42.9819268" lon="12.0324252"><ele>327.0</ele><time>2026-04-01T09:19:19.55Z</time></trkpt><trkpt lat="42.981932" lon="12.0322956"><ele>327.0</ele><time>2026-04-01T09:19:20.551Z</time></trkpt><trkpt lat="42.9819378" lon="12.0321496"><ele>327.0</ele><time>2026-04-01T09:19:21.551Z</time></trkpt><trkpt lat="42.9819597" lon="12.0320014"><ele>327.25</ele><time>2026-04-01T09:19:22.55Z</time></trkpt><trkpt lat="42.9819742" lon="12.0318505"><ele>327.5</ele><time>2026-04-01T09:19:23.552Z</time></trkpt><trkpt lat="42.981997" lon="12.0316823"><ele>327.75</ele><time>2026-04-01T09:19:24.55Z</time></trkpt><trkpt lat="42.9820125" lon="12.0315142"><ele>328.0</ele><time>2026-04-01T09:19:25.549Z</time></trkpt><trkpt lat="42.9820258" lon="12.0313526"><ele>327.5</ele><time>2026-04-01T09:19:26.55Z</time></trkpt><trkpt lat="42.9820392" lon="12.0312088"><ele>327.0</ele><time>2026-04-01T09:19:27.549Z</time></trkpt><trkpt lat="42.9820447" lon="12.0310417"><ele>326.5</ele><time>2026-04-01T09:19:28.55Z</time></trkpt><trkpt lat="42.98205" lon="12.0308534"><ele>326.0</ele><time>2026-04-01T09:19:29.55Z</time></trkpt><trkpt lat="42.982071" lon="12.0306691"><ele>324.0</ele><time>2026-04-01T09:19:30.55Z</time></trkpt><trkpt lat="42.9820912" lon="12.0304989"><ele>322.0</ele><time>2026-04-01T09:19:31.551Z</time></trkpt><trkpt lat="42.9821128" lon="12.0303277"><ele>320.0</ele><time>2026-04-01T09:19:32.55Z</time></trkpt><trkpt lat="42.9821216" lon="12.0301576"><ele>318.0</ele><time>2026-04-01T09:19:33.55Z</time></trkpt><trkpt lat="42.9821236" lon="12.0299942"><ele>316.25</ele><time>2026-04-01T09:19:34.55Z</time></trkpt><trkpt lat="42.9821295" lon="12.0298183"><ele>314.5</ele><time>2026-04-01T09:19:35.55Z</time></trkpt><trkpt lat="42.9821235" lon="12.0296767"><ele>312.75</ele><time>2026-04-01T09:19:36.55Z</time></trkpt><trkpt lat="42.9821357" lon="12.0295031"><ele>311.0</ele><time>2026-04-01T09:19:37.551Z</time></trkpt><trkpt lat="42.9821461" lon="12.0293359"><ele>311.0</ele><time>2026-04-01T09:19:38.55Z</time></trkpt><trkpt lat="42.9821595" lon="12.0291464"><ele>311.0</ele><time>2026-04-01T09:19:39.549Z</time></trkpt><trkpt lat="42.9821742" lon="12.0289513"><ele>311.0</ele><time>2026-04-01T09:19:40.55Z</time></trkpt><trkpt lat="42.9821753" lon="12.0287358"><ele>311.0</ele><time>2026-04-01T09:19:41.551Z</time></trkpt><trkpt lat="42.9821852" lon="12.0285163"><ele>311.6666666666667</ele><time>2026-04-01T09:19:42.551Z</time></trkpt><trkpt lat="42.982207" lon="12.0282883"><ele>312.3333333333333</ele><time>2026-04-01T09:19:43.549Z</time></trkpt><trkpt lat="42.9822272" lon="12.0280706"><ele>313.0</ele><time>2026-04-01T09:19:44.55Z</time></trkpt><trkpt lat="42.982241" lon="12.0278436"><ele>313.0</ele><time>2026-04-01T09:19:45.549Z</time></trkpt><trkpt lat="42.9822456" lon="12.0276128"><ele>313.0</ele><time>2026-04-01T09:19:46.551Z</time></trkpt><trkpt lat="42.9822612" lon="12.0273878"><ele>313.0</ele><time>2026-04-01T09:19:47.55Z</time></trkpt><trkpt lat="42.9822713" lon="12.0271575"><ele>312.66666666666663</ele><time>2026-04-01T09:19:48.551Z</time></trkpt><trkpt lat="42.9822815" lon="12.0269357"><ele>312.3333333333333</ele><time>2026-04-01T09:19:49.549Z</time></trkpt><trkpt lat="42.9822967" lon="12.0267072"><ele>312.0</ele><time>2026-04-01T09:19:50.551Z</time></trkpt><trkpt lat="42.9823047" lon="12.0264777"><ele>313.6666666666667</ele><time>2026-04-01T09:19:51.549Z</time></trkpt><trkpt lat="42.9823161" lon="12.0262457"><ele>315.33333333333337</ele><time>2026-04-01T09:19:52.55Z</time></trkpt><trkpt lat="42.9823254" lon="12.0260176"><ele>317.0</ele><time>2026-04-01T09:19:53.55Z</time></trkpt><trkpt lat="42.9823297" lon="12.025807"><ele>317.25</ele><time>2026-04-01T09:19:54.55Z</time></trkpt><trkpt lat="42.9823339" lon="12.0256014"><ele>317.5</ele><time>2026-04-01T09:19:55.551Z</time></trkpt><trkpt lat="42.9823401" lon="12.0254242"><ele>317.75</ele><time>2026-04-01T09:19:56.551Z</time></trkpt><trkpt lat="42.9823462" lon="12.0252497"><ele>318.0</ele><time>2026-04-01T09:19:57.549Z</time></trkpt><trkpt lat="42.9823484" lon="12.0250817"><ele>318.0</ele><time>2026-04-01T09:19:58.55Z</time></trkpt><trkpt lat="42.982341" lon="12.02493"><ele>318.0</ele><time>2026-04-01T09:19:59.55Z</time></trkpt><trkpt lat="42.9823304" lon="12.0247802"><ele>318.0</ele><time>2026-04-01T09:20:00.551Z</time></trkpt><trkpt lat="42.9823135" lon="12.0246598"><ele>318.0</ele><time>2026-04-01T09:20:01.55Z</time></trkpt><trkpt lat="42.9823045" lon="12.0245599"><ele>318.0</ele><time>2026-04-01T09:20:02.551Z</time></trkpt><trkpt lat="42.9822899" lon="12.024446"><ele>318.0</ele><time>2026-04-01T09:20:04.551Z</time></trkpt><trkpt lat="42.9821878" lon="12.0244257"><ele>318.0</ele><time>2026-04-01T09:20:07.55Z</time></trkpt><trkpt lat="42.9820961" lon="12.0244526"><ele>318.0</ele><time>2026-04-01T09:20:09.552Z</time></trkpt><trkpt lat="42.9820186" lon="12.0244531"><ele>318.0</ele><time>2026-04-01T09:20:10.551Z</time></trkpt><trkpt lat="42.9819409" lon="12.0244668"><ele>318.0</ele><time>2026-04-01T09:20:11.55Z</time></trkpt><trkpt lat="42.9818481" lon="12.0244803"><ele>318.0</ele><time>2026-04-01T09:20:12.551Z</time></trkpt><trkpt lat="42.9817666" lon="12.0244839"><ele>319.1428571428571</ele><time>2026-04-01T09:20:13.551Z</time></trkpt><trkpt lat="42.9816798" lon="12.0245005"><ele>320.28571428571433</ele><time>2026-04-01T09:20:14.551Z</time></trkpt><trkpt lat="42.9816081" lon="12.0245029"><ele>321.42857142857144</ele><time>2026-04-01T09:20:15.551Z</time></trkpt><trkpt lat="42.9815394" lon="12.0245076"><ele>322.57142857142856</ele><time>2026-04-01T09:20:16.55Z</time></trkpt><trkpt lat="42.9814592" lon="12.024507"><ele>323.71428571428567</ele><time>2026-04-01T09:20:17.55Z</time></trkpt><trkpt lat="42.9813908" lon="12.024506"><ele>324.8571428571429</ele><time>2026-04-01T09:20:18.55Z</time></trkpt><trkpt lat="42.9813218" lon="12.0244891"><ele>326.0</ele><time>2026-04-01T09:20:19.55Z</time></trkpt><trkpt lat="42.9812567" lon="12.0244626"><ele>326.0</ele><time>2026-04-01T09:20:20.551Z</time></trkpt><trkpt lat="42.9811872" lon="12.0244169"><ele>326.0</ele><time>2026-04-01T09:20:21.55Z</time></trkpt><trkpt lat="42.9811176" lon="12.0243633"><ele>326.0</ele><time>2026-04-01T09:20:22.551Z</time></trkpt><trkpt lat="42.9810433" lon="12.02431"><ele>326.0</ele><time>2026-04-01T09:20:23.551Z</time></trkpt><trkpt lat="42.9809776" lon="12.0242441"><ele>326.0</ele><time>2026-04-01T09:20:24.55Z</time></trkpt><trkpt lat="42.9808874" lon="12.0241941"><ele>326.0</ele><time>2026-04-01T09:20:25.55Z</time></trkpt><trkpt lat="42.9807885" lon="12.024141"><ele>331.5</ele><time>2026-04-01T09:20:26.551Z</time></trkpt><trkpt lat="42.9806935" lon="12.0240807"><ele>337.0</ele><time>2026-04-01T09:20:27.551Z</time></trkpt><trkpt lat="42.9805835" lon="12.0240213"><ele>342.5</ele><time>2026-04-01T09:20:28.551Z</time></trkpt><trkpt lat="42.9804678" lon="12.0239571"><ele>348.0</ele><time>2026-04-01T09:20:29.55Z</time></trkpt><trkpt lat="42.980361" lon="12.023896"><ele>348.0</ele><time>2026-04-01T09:20:30.55Z</time></trkpt><trkpt lat="42.980243" lon="12.0238413"><ele>348.0</ele><time>2026-04-01T09:20:31.552Z</time></trkpt><trkpt lat="42.9801294" lon="12.023785"><ele>348.0</ele><time>2026-04-01T09:20:32.55Z</time></trkpt><trkpt lat="42.9800295" lon="12.0237234"><ele>348.0</ele><time>2026-04-01T09:20:33.55Z</time></trkpt><trkpt lat="42.9799222" lon="12.0236794"><ele>350.0</ele><time>2026-04-01T09:20:34.55Z</time></trkpt><trkpt lat="42.9798178" lon="12.0236276"><ele>352.0</ele><time>2026-04-01T09:20:35.551Z</time></trkpt><trkpt lat="42.9797169" lon="12.0235815"><ele>354.0</ele><time>2026-04-01T09:20:36.552Z</time></trkpt><trkpt lat="42.9796194" lon="12.0235256"><ele>356.0</ele><time>2026-04-01T09:20:37.55Z</time></trkpt><trkpt lat="42.9795118" lon="12.0234772"><ele>358.0</ele><time>2026-04-01T09:20:38.483Z</time></trkpt><trkpt lat="42.9793773" lon="12.0234003"><ele>360.66666666666663</ele><time>2026-04-01T09:20:39.594Z</time></trkpt><trkpt lat="42.9791243" lon="12.0232688"><ele>363.3333333333333</ele><time>2026-04-01T09:20:41.55Z</time></trkpt><trkpt lat="42.9790017" lon="12.023195"><ele>366.0</ele><time>2026-04-01T09:20:42.55Z</time></trkpt><trkpt lat="42.9788921" lon="12.0231422"><ele>366.0</ele><time>2026-04-01T09:20:43.552Z</time></trkpt><trkpt lat="42.9788029" lon="12.0230915"><ele>366.0</ele><time>2026-04-01T09:20:44.551Z</time></trkpt><trkpt lat="42.9787238" lon="12.0230476"><ele>366.0</ele><time>2026-04-01T09:20:45.551Z</time></trkpt><trkpt lat="42.9786501" lon="12.0230048"><ele>366.0</ele><time>2026-04-01T09:20:46.551Z</time></trkpt><trkpt lat="42.9785818" lon="12.0229645"><ele>366.0</ele><time>2026-04-01T09:20:47.551Z</time></trkpt><trkpt lat="42.9785168" lon="12.0229182"><ele>366.0</ele><time>2026-04-01T09:20:48.551Z</time></trkpt><trkpt lat="42.9784544" lon="12.0228688"><ele>366.0</ele><time>2026-04-01T09:20:49.551Z</time></trkpt><trkpt lat="42.9783935" lon="12.0227983"><ele>366.0</ele><time>2026-04-01T09:20:50.552Z</time></trkpt><trkpt lat="42.9783293" lon="12.0227361"><ele>366.0</ele><time>2026-04-01T09:20:51.551Z</time></trkpt><trkpt lat="42.9782503" lon="12.0226927"><ele>366.0</ele><time>2026-04-01T09:20:52.551Z</time></trkpt><trkpt lat="42.9781763" lon="12.0226579"><ele>366.0</ele><time>2026-04-01T09:20:53.551Z</time></trkpt><trkpt lat="42.9780992" lon="12.0226341"><ele>366.0</ele><time>2026-04-01T09:20:54.551Z</time></trkpt><trkpt lat="42.9780154" lon="12.0226053"><ele>366.8333333333333</ele><time>2026-04-01T09:20:55.55Z</time></trkpt><trkpt lat="42.9779379" lon="12.0225805"><ele>367.6666666666667</ele><time>2026-04-01T09:20:56.55Z</time></trkpt><trkpt lat="42.9778592" lon="12.0225498"><ele>368.5</ele><time>2026-04-01T09:20:57.551Z</time></trkpt><trkpt lat="42.9777745" lon="12.0224998"><ele>369.33333333333337</ele><time>2026-04-01T09:20:58.552Z</time></trkpt><trkpt lat="42.9776959" lon="12.0224463"><ele>370.1666666666667</ele><time>2026-04-01T09:20:59.55Z</time></trkpt><trkpt lat="42.977627" lon="12.0223849"><ele>371.0</ele><time>2026-04-01T09:21:00.551Z</time></trkpt><trkpt lat="42.9775624" lon="12.0223209"><ele>373.0</ele><time>2026-04-01T09:21:01.551Z</time></trkpt><trkpt lat="42.9774674" lon="12.0222709"><ele>375.0</ele><time>2026-04-01T09:21:02.551Z</time></trkpt><trkpt lat="42.9773853" lon="12.0222094"><ele>377.0</ele><time>2026-04-01T09:21:03.551Z</time></trkpt><trkpt lat="42.977289" lon="12.0221619"><ele>379.0</ele><time>2026-04-01T09:21:04.552Z</time></trkpt><trkpt lat="42.9772309" lon="12.0220954"><ele>381.0</ele><time>2026-04-01T09:21:05.549Z</time></trkpt><trkpt lat="42.9771622" lon="12.0220569"><ele>383.0</ele><time>2026-04-01T09:21:06.551Z</time></trkpt><trkpt lat="42.9770809" lon="12.0220158"><ele>383.0</ele><time>2026-04-01T09:21:07.551Z</time></trkpt><trkpt lat="42.9770038" lon="12.0219881"><ele>383.0</ele><time>2026-04-01T09:21:08.551Z</time></trkpt><trkpt lat="42.9768965" lon="12.0219738"><ele>383.0</ele><time>2026-04-01T09:21:09.551Z</time></trkpt><trkpt lat="42.9768057" lon="12.0220018"><ele>383.0</ele><time>2026-04-01T09:21:10.552Z</time></trkpt><trkpt lat="42.9766793" lon="12.02202"><ele>383.0</ele><time>2026-04-01T09:21:12.551Z</time></trkpt><trkpt lat="42.9766052" lon="12.0220501"><ele>386.79999999999995</ele><time>2026-04-01T09:21:15.551Z</time></trkpt><trkpt lat="42.9764764" lon="12.0219958"><ele>390.6</ele><time>2026-04-01T09:21:18.551Z</time></trkpt><trkpt lat="42.9763428" lon="12.0219124"><ele>394.4</ele><time>2026-04-01T09:21:20.551Z</time></trkpt><trkpt lat="42.9762629" lon="12.021884"><ele>398.20000000000005</ele><time>2026-04-01T09:21:21.55Z</time></trkpt><trkpt lat="42.9762018" lon="12.0218203"><ele>402.0</ele><time>2026-04-01T09:21:22.551Z</time></trkpt><trkpt lat="42.9761207" lon="12.0217903"><ele>402.0</ele><time>2026-04-01T09:21:23.55Z</time></trkpt><trkpt lat="42.9760428" lon="12.021756"><ele>402.0</ele><time>2026-04-01T09:21:24.551Z</time></trkpt><trkpt lat="42.9759496" lon="12.0217013"><ele>402.0</ele><time>2026-04-01T09:21:25.551Z</time></trkpt><trkpt lat="42.9758817" lon="12.021647"><ele>402.0</ele><time>2026-04-01T09:21:26.551Z</time></trkpt><trkpt lat="42.9757628" lon="12.0215655"><ele>402.0</ele><time>2026-04-01T09:21:28.55Z</time></trkpt><trkpt lat="42.9756402" lon="12.0215294"><ele>403.8333333333333</ele><time>2026-04-01T09:21:30.552Z</time></trkpt><trkpt lat="42.9755766" lon="12.0215161"><ele>405.66666666666663</ele><time>2026-04-01T09:21:31.551Z</time></trkpt><trkpt lat="42.9754677" lon="12.0214612"><ele>407.5</ele><time>2026-04-01T09:21:33.551Z</time></trkpt><trkpt lat="42.9754007" lon="12.0214439"><ele>409.3333333333333</ele><time>2026-04-01T09:21:34.551Z</time></trkpt><trkpt lat="42.9753365" lon="12.0214121"><ele>411.16666666666663</ele><time>2026-04-01T09:21:35.55Z</time></trkpt><trkpt lat="42.9752725" lon="12.0213963"><ele>413.0</ele><time>2026-04-01T09:21:36.55Z</time></trkpt><trkpt lat="42.9751818" lon="12.0213477"><ele>412.99999999999994</ele><time>2026-04-01T09:21:38.55Z</time></trkpt><trkpt lat="42.975158" lon="12.0212482"><ele>413.0</ele><time>2026-04-01T09:21:47.551Z</time></trkpt><trkpt lat="42.9750791" lon="12.0212498"><ele>413.0</ele><time>2026-04-01T09:21:50.551Z</time></trkpt><trkpt lat="42.9749838" lon="12.021248"><ele>413.0</ele><time>2026-04-01T09:21:52.551Z</time></trkpt><trkpt lat="42.9749163" lon="12.021233"><ele>412.99999999999994</ele><time>2026-04-01T09:21:53.551Z</time></trkpt><trkpt lat="42.9748475" lon="12.0211952"><ele>413.0</ele><time>2026-04-01T09:21:54.552Z</time></trkpt><trkpt lat="42.9747594" lon="12.02117"><ele>414.3333333333333</ele><time>2026-04-01T09:21:55.552Z</time></trkpt><trkpt lat="42.974654" lon="12.0211432"><ele>415.66666666666663</ele><time>2026-04-01T09:21:56.55Z</time></trkpt><trkpt lat="42.9745628" lon="12.0211067"><ele>417.0</ele><time>2026-04-01T09:21:57.551Z</time></trkpt><trkpt lat="42.9745061" lon="12.0210682"><ele>418.33333333333337</ele><time>2026-04-01T09:21:58.551Z</time></trkpt><trkpt lat="42.9744796" lon="12.0209876"><ele>419.6666666666667</ele><time>2026-04-01T09:22:00.551Z</time></trkpt><trkpt lat="42.9744885" lon="12.0208596"><ele>421.0</ele><time>2026-04-01T09:22:03.55Z</time></trkpt><trkpt lat="42.9745311" lon="12.0206875"><ele>421.0</ele><time>2026-04-01T09:22:05.552Z</time></trkpt><trkpt lat="42.974559" lon="12.0205661"><ele>421.0</ele><time>2026-04-01T09:22:06.551Z</time></trkpt><trkpt lat="42.9745705" lon="12.020463"><ele>421.0</ele><time>2026-04-01T09:22:07.552Z</time></trkpt><trkpt lat="42.9745801" lon="12.0203339"><ele>421.0</ele><time>2026-04-01T09:22:08.55Z</time></trkpt><trkpt lat="42.9745813" lon="12.0201838"><ele>421.0</ele><time>2026-04-01T09:22:09.549Z</time></trkpt><trkpt lat="42.9745784" lon="12.0200074"><ele>420.0</ele><time>2026-04-01T09:22:10.549Z</time></trkpt><trkpt lat="42.9745709" lon="12.0197894"><ele>419.0</ele><time>2026-04-01T09:22:11.552Z</time></trkpt><trkpt lat="42.9745574" lon="12.019587"><ele>418.0</ele><time>2026-04-01T09:22:12.55Z</time></trkpt><trkpt lat="42.9745537" lon="12.0193738"><ele>417.33333333333337</ele><time>2026-04-01T09:22:13.551Z</time></trkpt><trkpt lat="42.974518" lon="12.0191465"><ele>416.66666666666663</ele><time>2026-04-01T09:22:14.551Z</time></trkpt><trkpt lat="42.9744918" lon="12.0189046"><ele>416.0</ele><time>2026-04-01T09:22:15.551Z</time></trkpt><trkpt lat="42.9744647" lon="12.0186726"><ele>416.0</ele><time>2026-04-01T09:22:16.551Z</time></trkpt><trkpt lat="42.9744236" lon="12.0184478"><ele>416.0</ele><time>2026-04-01T09:22:17.551Z</time></trkpt><trkpt lat="42.9743921" lon="12.0182464"><ele>416.0</ele><time>2026-04-01T09:22:18.552Z</time></trkpt><trkpt lat="42.9743589" lon="12.0180516"><ele>416.25</ele><time>2026-04-01T09:22:19.551Z</time></trkpt><trkpt lat="42.9743161" lon="12.0178567"><ele>416.5</ele><time>2026-04-01T09:22:20.551Z</time></trkpt><trkpt lat="42.9742678" lon="12.0177049"><ele>416.75</ele><time>2026-04-01T09:22:21.551Z</time></trkpt><trkpt lat="42.9742266" lon="12.0175519"><ele>417.0</ele><time>2026-04-01T09:22:22.55Z</time></trkpt><trkpt lat="42.9741848" lon="12.0174117"><ele>420.6</ele><time>2026-04-01T09:22:23.551Z</time></trkpt><trkpt lat="42.9741346" lon="12.0172823"><ele>424.20000000000005</ele><time>2026-04-01T09:22:24.551Z</time></trkpt><trkpt lat="42.9740722" lon="12.0171681"><ele>427.8</ele><time>2026-04-01T09:22:25.55Z</time></trkpt><trkpt lat="42.9739969" lon="12.0170454"><ele>431.4</ele><time>2026-04-01T09:22:26.551Z</time></trkpt><trkpt lat="42.9739155" lon="12.0169321"><ele>435.0</ele><time>2026-04-01T09:22:27.551Z</time></trkpt><trkpt lat="42.9738115" lon="12.0167824"><ele>434.0</ele><time>2026-04-01T09:22:28.552Z</time></trkpt><trkpt lat="42.9737307" lon="12.0166202"><ele>433.0</ele><time>2026-04-01T09:22:29.551Z</time></trkpt><trkpt lat="42.9736382" lon="12.0164765"><ele>432.0</ele><time>2026-04-01T09:22:30.551Z</time></trkpt><trkpt lat="42.9735765" lon="12.0163594"><ele>431.0</ele><time>2026-04-01T09:22:31.553Z</time></trkpt><trkpt lat="42.9735312" lon="12.0162345"><ele>431.0</ele><time>2026-04-01T09:22:32.552Z</time></trkpt><trkpt lat="42.9735719" lon="12.0161436"><ele>431.0</ele><time>2026-04-01T09:22:33.552Z</time></trkpt><trkpt lat="42.9735983" lon="12.0160185"><ele>431.0</ele><time>2026-04-01T09:22:34.551Z</time></trkpt><trkpt lat="42.9736104" lon="12.0158883"><ele>431.0</ele><time>2026-04-01T09:22:35.551Z</time></trkpt><trkpt lat="42.9736141" lon="12.0157508"><ele>431.0</ele><time>2026-04-01T09:22:36.551Z</time></trkpt><trkpt lat="42.9735971" lon="12.0156132"><ele>429.75</ele><time>2026-04-01T09:22:37.552Z</time></trkpt><trkpt lat="42.9735854" lon="12.0154335"><ele>428.5</ele><time>2026-04-01T09:22:38.552Z</time></trkpt><trkpt lat="42.9735633" lon="12.0152305"><ele>427.25</ele><time>2026-04-01T09:22:39.552Z</time></trkpt><trkpt lat="42.973548" lon="12.0150177"><ele>426.0</ele><time>2026-04-01T09:22:40.551Z</time></trkpt><trkpt lat="42.9735324" lon="12.0148136"><ele>425.25</ele><time>2026-04-01T09:22:41.551Z</time></trkpt><trkpt lat="42.9735102" lon="12.0146311"><ele>424.5</ele><time>2026-04-01T09:22:42.55Z</time></trkpt><trkpt lat="42.9734886" lon="12.0144604"><ele>423.75</ele><time>2026-04-01T09:22:43.552Z</time></trkpt><trkpt lat="42.9734667" lon="12.0142949"><ele>423.0</ele><time>2026-04-01T09:22:44.55Z</time></trkpt><trkpt lat="42.9734453" lon="12.0141165"><ele>421.75</ele><time>2026-04-01T09:22:45.551Z</time></trkpt><trkpt lat="42.9734205" lon="12.0139318"><ele>420.5</ele><time>2026-04-01T09:22:46.55Z</time></trkpt><trkpt lat="42.973375" lon="12.0137521"><ele>419.25</ele><time>2026-04-01T09:22:47.552Z</time></trkpt><trkpt lat="42.9733367" lon="12.0135819"><ele>418.0</ele><time>2026-04-01T09:22:48.551Z</time></trkpt><trkpt lat="42.9732862" lon="12.0134117"><ele>421.25</ele><time>2026-04-01T09:22:49.551Z</time></trkpt><trkpt lat="42.9732352" lon="12.0132617"><ele>424.5</ele><time>2026-04-01T09:22:50.551Z</time></trkpt><trkpt lat="42.9731681" lon="12.0130818"><ele>427.75</ele><time>2026-04-01T09:22:51.551Z</time></trkpt><trkpt lat="42.9731269" lon="12.012915"><ele>431.0</ele><time>2026-04-01T09:22:52.551Z</time></trkpt><trkpt lat="42.973081" lon="12.0127815"><ele>431.0</ele><time>2026-04-01T09:22:53.551Z</time></trkpt><trkpt lat="42.9730247" lon="12.01265"><ele>431.0</ele><time>2026-04-01T09:22:54.552Z</time></trkpt><trkpt lat="42.972956" lon="12.0125151"><ele>431.0</ele><time>2026-04-01T09:22:55.552Z</time></trkpt><trkpt lat="42.9728546" lon="12.0123693"><ele>431.0</ele><time>2026-04-01T09:22:56.551Z</time></trkpt><trkpt lat="42.9727685" lon="12.0122115"><ele>428.75</ele><time>2026-04-01T09:22:57.551Z</time></trkpt><trkpt lat="42.9726673" lon="12.0120777"><ele>426.5</ele><time>2026-04-01T09:22:58.551Z</time></trkpt><trkpt lat="42.9726009" lon="12.0119607"><ele>424.25</ele><time>2026-04-01T09:22:59.551Z</time></trkpt><trkpt lat="42.972511" lon="12.01182"><ele>422.0</ele><time>2026-04-01T09:23:00.551Z</time></trkpt><trkpt lat="42.9724349" lon="12.01168"><ele>426.8</ele><time>2026-04-01T09:23:01.55Z</time></trkpt><trkpt lat="42.9723899" lon="12.0115589"><ele>431.6</ele><time>2026-04-01T09:23:02.552Z</time></trkpt><trkpt lat="42.9723185" lon="12.0114599"><ele>436.40000000000003</ele><time>2026-04-01T09:23:03.551Z</time></trkpt><trkpt lat="42.9722503" lon="12.0113834"><ele>441.20000000000005</ele><time>2026-04-01T09:23:04.552Z</time></trkpt><trkpt lat="42.9721881" lon="12.0112529"><ele>446.0</ele><time>2026-04-01T09:23:05.551Z</time></trkpt><trkpt lat="42.9721686" lon="12.0111117"><ele>446.0</ele><time>2026-04-01T09:23:06.551Z</time></trkpt><trkpt lat="42.9721492" lon="12.0109407"><ele>446.0</ele><time>2026-04-01T09:23:07.552Z</time></trkpt><trkpt lat="42.9721262" lon="12.0107665"><ele>446.0</ele><time>2026-04-01T09:23:08.551Z</time></trkpt><trkpt lat="42.9721053" lon="12.0105859"><ele>446.0</ele><time>2026-04-01T09:23:09.551Z</time></trkpt><trkpt lat="42.9721101" lon="12.010424"><ele>445.75</ele><time>2026-04-01T09:23:10.551Z</time></trkpt><trkpt lat="42.9720993" lon="12.0102128"><ele>445.5</ele><time>2026-04-01T09:23:11.551Z</time></trkpt><trkpt lat="42.9720998" lon="12.0100217"><ele>445.25</ele><time>2026-04-01T09:23:12.551Z</time></trkpt><trkpt lat="42.9720961" lon="12.0098345"><ele>445.0</ele><time>2026-04-01T09:23:13.55Z</time></trkpt><trkpt lat="42.9720767" lon="12.0096714"><ele>443.0</ele><time>2026-04-01T09:23:14.55Z</time></trkpt><trkpt lat="42.9720411" lon="12.0095112"><ele>441.0</ele><time>2026-04-01T09:23:15.552Z</time></trkpt><trkpt lat="42.9719951" lon="12.0093306"><ele>439.0</ele><time>2026-04-01T09:23:16.552Z</time></trkpt><trkpt lat="42.97193" lon="12.009144"><ele>437.0</ele><time>2026-04-01T09:23:17.55Z</time></trkpt><trkpt lat="42.9718651" lon="12.0089565"><ele>436.0</ele><time>2026-04-01T09:23:18.551Z</time></trkpt><trkpt lat="42.9717943" lon="12.0087815"><ele>435.0</ele><time>2026-04-01T09:23:19.55Z</time></trkpt><trkpt lat="42.9717175" lon="12.0086135"><ele>434.0</ele><time>2026-04-01T09:23:20.553Z</time></trkpt><trkpt lat="42.9716666" lon="12.0084626"><ele>433.0</ele><time>2026-04-01T09:23:21.551Z</time></trkpt><trkpt lat="42.9716165" lon="12.0083234"><ele>438.0</ele><time>2026-04-01T09:23:22.551Z</time></trkpt><trkpt lat="42.971576" lon="12.0081793"><ele>443.0</ele><time>2026-04-01T09:23:23.55Z</time></trkpt><trkpt lat="42.9715432" lon="12.0080242"><ele>448.0</ele><time>2026-04-01T09:23:24.552Z</time></trkpt><trkpt lat="42.9715273" lon="12.0078776"><ele>453.0</ele><time>2026-04-01T09:23:25.551Z</time></trkpt><trkpt lat="42.9715294" lon="12.0077237"><ele>453.0</ele><time>2026-04-01T09:23:26.552Z</time></trkpt><trkpt lat="42.971517" lon="12.0075534"><ele>453.0</ele><time>2026-04-01T09:23:27.552Z</time></trkpt><trkpt lat="42.9715176" lon="12.0073979"><ele>453.0</ele><time>2026-04-01T09:23:28.551Z</time></trkpt><trkpt lat="42.9715128" lon="12.0072541"><ele>453.0</ele><time>2026-04-01T09:23:29.55Z</time></trkpt><trkpt lat="42.9715123" lon="12.0070878"><ele>452.5</ele><time>2026-04-01T09:23:30.551Z</time></trkpt><trkpt lat="42.9715184" lon="12.0069323"><ele>452.0</ele><time>2026-04-01T09:23:31.55Z</time></trkpt><trkpt lat="42.9715555" lon="12.0067783"><ele>451.5</ele><time>2026-04-01T09:23:32.553Z</time></trkpt><trkpt lat="42.9715799" lon="12.0066284"><ele>451.0</ele><time>2026-04-01T09:23:33.55Z</time></trkpt><trkpt lat="42.9716005" lon="12.0064641"><ele>450.75</ele><time>2026-04-01T09:23:34.551Z</time></trkpt><trkpt lat="42.9715949" lon="12.0063035"><ele>450.5</ele><time>2026-04-01T09:23:35.552Z</time></trkpt><trkpt lat="42.971568" lon="12.0061399"><ele>450.25</ele><time>2026-04-01T09:23:36.551Z</time></trkpt><trkpt lat="42.9715549" lon="12.0060133"><ele>450.0</ele><time>2026-04-01T09:23:37.551Z</time></trkpt><trkpt lat="42.9715562" lon="12.0058485"><ele>451.5</ele><time>2026-04-01T09:23:38.551Z</time></trkpt><trkpt lat="42.9715684" lon="12.0056929"><ele>453.0</ele><time>2026-04-01T09:23:39.552Z</time></trkpt><trkpt lat="42.9715756" lon="12.0055246"><ele>454.5</ele><time>2026-04-01T09:23:40.552Z</time></trkpt><trkpt lat="42.9715815" lon="12.0053632"><ele>456.0</ele><time>2026-04-01T09:23:41.552Z</time></trkpt><trkpt lat="42.9715936" lon="12.0051898"><ele>456.0</ele><time>2026-04-01T09:23:42.551Z</time></trkpt><trkpt lat="42.9716098" lon="12.005007"><ele>456.0</ele><time>2026-04-01T09:23:43.551Z</time></trkpt><trkpt lat="42.9716226" lon="12.0048273"><ele>456.0</ele><time>2026-04-01T09:23:44.551Z</time></trkpt><trkpt lat="42.9716144" lon="12.0046712"><ele>456.0</ele><time>2026-04-01T09:23:45.553Z</time></trkpt><trkpt lat="42.971604" lon="12.0045232"><ele>457.20000000000005</ele><time>2026-04-01T09:23:46.551Z</time></trkpt><trkpt lat="42.9715953" lon="12.0043903"><ele>458.40000000000003</ele><time>2026-04-01T09:23:47.552Z</time></trkpt><trkpt lat="42.971579" lon="12.0042628"><ele>459.6</ele><time>2026-04-01T09:23:48.551Z</time></trkpt><trkpt lat="42.9715423" lon="12.0041614"><ele>460.8</ele><time>2026-04-01T09:23:49.551Z</time></trkpt><trkpt lat="42.9714987" lon="12.0040501"><ele>462.0</ele><time>2026-04-01T09:23:50.551Z</time></trkpt><trkpt lat="42.9714496" lon="12.0039386"><ele>462.8</ele><time>2026-04-01T09:23:51.55Z</time></trkpt><trkpt lat="42.9714016" lon="12.0038119"><ele>463.6</ele><time>2026-04-01T09:23:52.552Z</time></trkpt><trkpt lat="42.9714044" lon="12.0036743"><ele>464.40000000000003</ele><time>2026-04-01T09:23:53.552Z</time></trkpt><trkpt lat="42.9713644" lon="12.0035208"><ele>465.20000000000005</ele><time>2026-04-01T09:23:54.551Z</time></trkpt><trkpt lat="42.9713469" lon="12.0033577"><ele>466.0</ele><time>2026-04-01T09:23:55.551Z</time></trkpt><trkpt lat="42.9713265" lon="12.0032007"><ele>467.0</ele><time>2026-04-01T09:23:56.551Z</time></trkpt><trkpt lat="42.9712826" lon="12.0030275"><ele>468.0</ele><time>2026-04-01T09:23:57.552Z</time></trkpt><trkpt lat="42.971236" lon="12.0028508"><ele>469.0</ele><time>2026-04-01T09:23:58.552Z</time></trkpt><trkpt lat="42.9711916" lon="12.0026641"><ele>470.0</ele><time>2026-04-01T09:23:59.551Z</time></trkpt><trkpt lat="42.9711515" lon="12.0024906"><ele>470.0</ele><time>2026-04-01T09:24:00.551Z</time></trkpt><trkpt lat="42.9711199" lon="12.0023308"><ele>470.0</ele><time>2026-04-01T09:24:01.553Z</time></trkpt><trkpt lat="42.971109" lon="12.0022031"><ele>470.0</ele><time>2026-04-01T09:24:02.551Z</time></trkpt><trkpt lat="42.971103" lon="12.0020753"><ele>470.0</ele><time>2026-04-01T09:24:03.551Z</time></trkpt><trkpt lat="42.9711095" lon="12.0019546"><ele>470.0</ele><time>2026-04-01T09:24:04.551Z</time></trkpt><trkpt lat="42.9711229" lon="12.0018451"><ele>470.0</ele><time>2026-04-01T09:24:05.552Z</time></trkpt><trkpt lat="42.9711381" lon="12.0017449"><ele>470.0</ele><time>2026-04-01T09:24:06.551Z</time></trkpt><trkpt lat="42.971176" lon="12.0016076"><ele>470.0</ele><time>2026-04-01T09:24:07.55Z</time></trkpt><trkpt lat="42.9711941" lon="12.0014298"><ele>470.0</ele><time>2026-04-01T09:24:08.551Z</time></trkpt><trkpt lat="42.9712305" lon="12.0012837"><ele>470.0</ele><time>2026-04-01T09:24:09.55Z</time></trkpt><trkpt lat="42.9712622" lon="12.0011347"><ele>470.8</ele><time>2026-04-01T09:24:10.552Z</time></trkpt><trkpt lat="42.9712937" lon="12.0009911"><ele>471.6</ele><time>2026-04-01T09:24:11.551Z</time></trkpt><trkpt lat="42.9713298" lon="12.0008533"><ele>472.4</ele><time>2026-04-01T09:24:12.552Z</time></trkpt><trkpt lat="42.9713562" lon="12.0007522"><ele>473.2</ele><time>2026-04-01T09:24:13.551Z</time></trkpt><trkpt lat="42.9713663" lon="12.0005897"><ele>474.0</ele><time>2026-04-01T09:24:15.551Z</time></trkpt><trkpt lat="42.971326" lon="12.0004964"><ele>472.0</ele><time>2026-04-01T09:24:16.551Z</time></trkpt><trkpt lat="42.9712598" lon="12.0003627"><ele>470.0</ele><time>2026-04-01T09:24:18.552Z</time></trkpt><trkpt lat="42.9711605" lon="12.0002553"><ele>468.0</ele><time>2026-04-01T09:24:19.552Z</time></trkpt><trkpt lat="42.9710625" lon="12.0001408"><ele>466.0</ele><time>2026-04-01T09:24:20.551Z</time></trkpt><trkpt lat="42.9709926" lon="12.0000669"><ele>466.0</ele><time>2026-04-01T09:24:21.552Z</time></trkpt><trkpt lat="42.9709252" lon="12.0000162"><ele>466.0</ele><time>2026-04-01T09:24:22.552Z</time></trkpt><trkpt lat="42.9708681" lon="11.9999605"><ele>466.0</ele><time>2026-04-01T09:24:23.551Z</time></trkpt><trkpt lat="42.9707681" lon="11.9998909"><ele>466.0</ele><time>2026-04-01T09:24:25.552Z</time></trkpt><trkpt lat="42.9706692" lon="11.9998593"><ele>466.0</ele><time>2026-04-01T09:24:26.551Z</time></trkpt><trkpt lat="42.9705756" lon="11.9998275"><ele>466.0</ele><time>2026-04-01T09:24:27.551Z</time></trkpt><trkpt lat="42.9704382" lon="11.9997781"><ele>466.0</ele><time>2026-04-01T09:24:28.553Z</time></trkpt><trkpt lat="42.970295" lon="11.999714"><ele>466.0</ele><time>2026-04-01T09:24:29.552Z</time></trkpt><trkpt lat="42.9701475" lon="11.9996209"><ele>463.6666666666667</ele><time>2026-04-01T09:24:30.553Z</time></trkpt><trkpt lat="42.969993" lon="11.9995056"><ele>461.33333333333337</ele><time>2026-04-01T09:24:31.553Z</time></trkpt><trkpt lat="42.9698382" lon="11.9993735"><ele>459.0</ele><time>2026-04-01T09:24:32.551Z</time></trkpt><trkpt lat="42.9696904" lon="11.9992074"><ele>461.66666666666663</ele><time>2026-04-01T09:24:33.552Z</time></trkpt><trkpt lat="42.9695487" lon="11.9990484"><ele>464.3333333333333</ele><time>2026-04-01T09:24:34.551Z</time></trkpt><trkpt lat="42.9694043" lon="11.9989002"><ele>467.0</ele><time>2026-04-01T09:24:35.551Z</time></trkpt><trkpt lat="42.9692498" lon="11.9987805"><ele>465.66666666666663</ele><time>2026-04-01T09:24:36.551Z</time></trkpt><trkpt lat="42.9691009" lon="11.9986966"><ele>464.33333333333337</ele><time>2026-04-01T09:24:37.551Z</time></trkpt><trkpt lat="42.968946" lon="11.9986293"><ele>463.0</ele><time>2026-04-01T09:24:38.552Z</time></trkpt><trkpt lat="42.968788" lon="11.9985493"><ele>463.0</ele><time>2026-04-01T09:24:39.552Z</time></trkpt><trkpt lat="42.968635" lon="11.9985051"><ele>463.0</ele><time>2026-04-01T09:24:40.552Z</time></trkpt><trkpt lat="42.9684938" lon="11.9984456"><ele>463.0</ele><time>2026-04-01T09:24:41.551Z</time></trkpt><trkpt lat="42.9683567" lon="11.9983987"><ele>463.0</ele><time>2026-04-01T09:24:42.551Z</time></trkpt><trkpt lat="42.9682176" lon="11.9983538"><ele>465.0</ele><time>2026-04-01T09:24:43.551Z</time></trkpt><trkpt lat="42.9680953" lon="11.9983026"><ele>467.0</ele><time>2026-04-01T09:24:44.553Z</time></trkpt><trkpt lat="42.9679681" lon="11.9982548"><ele>469.0</ele><time>2026-04-01T09:24:45.55Z</time></trkpt><trkpt lat="42.967828" lon="11.9982093"><ele>471.0</ele><time>2026-04-01T09:24:46.551Z</time></trkpt><trkpt lat="42.9676693" lon="11.9981696"><ele>471.66666666666663</ele><time>2026-04-01T09:24:47.551Z</time></trkpt><trkpt lat="42.9675031" lon="11.9981328"><ele>472.3333333333333</ele><time>2026-04-01T09:24:48.551Z</time></trkpt><trkpt lat="42.9673342" lon="11.9980868"><ele>473.0</ele><time>2026-04-01T09:24:49.552Z</time></trkpt><trkpt lat="42.9671522" lon="11.9980484"><ele>473.0</ele><time>2026-04-01T09:24:50.551Z</time></trkpt><trkpt lat="42.9669731" lon="11.9980067"><ele>473.0</ele><time>2026-04-01T09:24:51.552Z</time></trkpt><trkpt lat="42.9667872" lon="11.9979661"><ele>473.0</ele><time>2026-04-01T09:24:52.553Z</time></trkpt><trkpt lat="42.9666054" lon="11.9979471"><ele>475.3333333333333</ele><time>2026-04-01T09:24:53.552Z</time></trkpt><trkpt lat="42.9664275" lon="11.9979377"><ele>477.66666666666663</ele><time>2026-04-01T09:24:54.551Z</time></trkpt><trkpt lat="42.966245" lon="11.9979436"><ele>480.0</ele><time>2026-04-01T09:24:55.55Z</time></trkpt><trkpt lat="42.9660582" lon="11.9979676"><ele>480.0</ele><time>2026-04-01T09:24:56.551Z</time></trkpt><trkpt lat="42.9658848" lon="11.9980074"><ele>480.0</ele><time>2026-04-01T09:24:57.552Z</time></trkpt><trkpt lat="42.965716" lon="11.9980509"><ele>480.0</ele><time>2026-04-01T09:24:58.551Z</time></trkpt><trkpt lat="42.965552" lon="11.9981148"><ele>481.0</ele><time>2026-04-01T09:24:59.552Z</time></trkpt><trkpt lat="42.9653973" lon="11.998179"><ele>482.0</ele><time>2026-04-01T09:25:00.552Z</time></trkpt><trkpt lat="42.9652428" lon="11.9982474"><ele>483.0</ele><time>2026-04-01T09:25:01.552Z</time></trkpt><trkpt lat="42.9650939" lon="11.9983064"><ele>481.66666666666663</ele><time>2026-04-01T09:25:02.553Z</time></trkpt><trkpt lat="42.964936" lon="11.9983403"><ele>480.3333333333333</ele><time>2026-04-01T09:25:03.552Z</time></trkpt><trkpt lat="42.9647854" lon="11.9983158"><ele>479.0</ele><time>2026-04-01T09:25:04.552Z</time></trkpt><trkpt lat="42.9646288" lon="11.9983005"><ele>479.0</ele><time>2026-04-01T09:25:05.551Z</time></trkpt><trkpt lat="42.964477" lon="11.9982621"><ele>479.0</ele><time>2026-04-01T09:25:06.551Z</time></trkpt><trkpt lat="42.9643439" lon="11.9982125"><ele>479.0</ele><time>2026-04-01T09:25:07.552Z</time></trkpt><trkpt lat="42.9642215" lon="11.9981734"><ele>479.0</ele><time>2026-04-01T09:25:08.551Z</time></trkpt><trkpt lat="42.9640914" lon="11.99812"><ele>479.25</ele><time>2026-04-01T09:25:09.551Z</time></trkpt><trkpt lat="42.96399" lon="11.9980824"><ele>479.5</ele><time>2026-04-01T09:25:10.551Z</time></trkpt><trkpt lat="42.9638803" lon="11.998041"><ele>479.75</ele><time>2026-04-01T09:25:11.551Z</time></trkpt><trkpt lat="42.9637503" lon="11.9980093"><ele>480.0</ele><time>2026-04-01T09:25:12.551Z</time></trkpt><trkpt lat="42.9636042" lon="11.997943"><ele>480.0</ele><time>2026-04-01T09:25:13.552Z</time></trkpt><trkpt lat="42.9634465" lon="11.997872"><ele>480.0</ele><time>2026-04-01T09:25:14.552Z</time></trkpt><trkpt lat="42.9632908" lon="11.9978092"><ele>480.0</ele><time>2026-04-01T09:25:15.551Z</time></trkpt><trkpt lat="42.9631161" lon="11.9977437"><ele>479.66666666666663</ele><time>2026-04-01T09:25:16.551Z</time></trkpt><trkpt lat="42.9629397" lon="11.997664"><ele>479.3333333333333</ele><time>2026-04-01T09:25:17.551Z</time></trkpt><trkpt lat="42.9627547" lon="11.9975708"><ele>479.0</ele><time>2026-04-01T09:25:18.551Z</time></trkpt><trkpt lat="42.9625904" lon="11.9974806"><ele>479.3333333333333</ele><time>2026-04-01T09:25:19.551Z</time></trkpt><trkpt lat="42.9624323" lon="11.9974032"><ele>479.66666666666663</ele><time>2026-04-01T09:25:20.552Z</time></trkpt><trkpt lat="42.9622818" lon="11.9973302"><ele>480.0</ele><time>2026-04-01T09:25:21.551Z</time></trkpt><trkpt lat="42.9621458" lon="11.9972507"><ele>480.0</ele><time>2026-04-01T09:25:22.553Z</time></trkpt><trkpt lat="42.9620005" lon="11.9972059"><ele>480.0</ele><time>2026-04-01T09:25:23.552Z</time></trkpt><trkpt lat="42.9618897" lon="11.9971302"><ele>480.0</ele><time>2026-04-01T09:25:24.551Z</time></trkpt><trkpt lat="42.9617887" lon="11.997085"><ele>480.0</ele><time>2026-04-01T09:25:25.551Z</time></trkpt><trkpt lat="42.9617159" lon="11.9970456"><ele>480.2</ele><time>2026-04-01T09:25:26.552Z</time></trkpt><trkpt lat="42.9616591" lon="11.9969974"><ele>480.4</ele><time>2026-04-01T09:25:29.551Z</time></trkpt><trkpt lat="42.9615934" lon="11.9969831"><ele>480.6</ele><time>2026-04-01T09:25:39.552Z</time></trkpt><trkpt lat="42.9615127" lon="11.9970777"><ele>480.8</ele><time>2026-04-01T09:25:41.551Z</time></trkpt><trkpt lat="42.9614568" lon="11.997194"><ele>481.0</ele><time>2026-04-01T09:25:42.552Z</time></trkpt><trkpt lat="42.961379" lon="11.9973187"><ele>481.0</ele><time>2026-04-01T09:25:43.552Z</time></trkpt><trkpt lat="42.9612777" lon="11.9974641"><ele>481.0</ele><time>2026-04-01T09:25:44.551Z</time></trkpt><trkpt lat="42.9611796" lon="11.9976054"><ele>481.0</ele><time>2026-04-01T09:25:45.552Z</time></trkpt><trkpt lat="42.961085" lon="11.9977664"><ele>481.0</ele><time>2026-04-01T09:25:46.552Z</time></trkpt><trkpt lat="42.9609934" lon="11.9979377"><ele>481.6</ele><time>2026-04-01T09:25:47.551Z</time></trkpt><trkpt lat="42.9609217" lon="11.9980923"><ele>482.20000000000005</ele><time>2026-04-01T09:25:48.551Z</time></trkpt><trkpt lat="42.9608501" lon="11.9982106"><ele>482.79999999999995</ele><time>2026-04-01T09:25:49.553Z</time></trkpt><trkpt lat="42.9607859" lon="11.9983108"><ele>483.4</ele><time>2026-04-01T09:25:50.553Z</time></trkpt><trkpt lat="42.9607325" lon="11.9983832"><ele>484.0</ele><time>2026-04-01T09:25:51.551Z</time></trkpt><trkpt lat="42.960687" lon="11.9984659"><ele>484.0</ele><time>2026-04-01T09:25:52.551Z</time></trkpt><trkpt lat="42.960634" lon="11.9985612"><ele>484.0</ele><time>2026-04-01T09:25:53.553Z</time></trkpt><trkpt lat="42.9605728" lon="11.9986801"><ele>484.0</ele><time>2026-04-01T09:25:54.553Z</time></trkpt><trkpt lat="42.9605129" lon="11.9988017"><ele>484.0</ele><time>2026-04-01T09:25:55.553Z</time></trkpt><trkpt lat="42.9604606" lon="11.9989068"><ele>484.0</ele><time>2026-04-01T09:25:56.553Z</time></trkpt><trkpt lat="42.9603886" lon="11.9990026"><ele>484.0</ele><time>2026-04-01T09:25:57.553Z</time></trkpt><trkpt lat="42.9603107" lon="11.9991292"><ele>484.0</ele><time>2026-04-01T09:25:58.552Z</time></trkpt><trkpt lat="42.9602095" lon="11.9992808"><ele>484.0</ele><time>2026-04-01T09:25:59.551Z</time></trkpt><trkpt lat="42.9600974" lon="11.9994293"><ele>484.0</ele><time>2026-04-01T09:26:00.552Z</time></trkpt><trkpt lat="42.9599807" lon="11.9996019"><ele>486.0</ele><time>2026-04-01T09:26:01.551Z</time></trkpt><trkpt lat="42.9598619" lon="11.9997841"><ele>488.0</ele><time>2026-04-01T09:26:02.552Z</time></trkpt><trkpt lat="42.9597354" lon="11.999965"><ele>490.0</ele><time>2026-04-01T09:26:03.554Z</time></trkpt><trkpt lat="42.9596285" lon="12.0001259"><ele>490.0</ele><time>2026-04-01T09:26:04.552Z</time></trkpt><trkpt lat="42.9595112" lon="12.0002892"><ele>490.0</ele><time>2026-04-01T09:26:05.551Z</time></trkpt><trkpt lat="42.9593655" lon="12.0004228"><ele>490.0</ele><time>2026-04-01T09:26:06.554Z</time></trkpt><trkpt lat="42.9592271" lon="12.0005599"><ele>490.33333333333337</ele><time>2026-04-01T09:26:07.553Z</time></trkpt><trkpt lat="42.9590912" lon="12.0007006"><ele>490.66666666666663</ele><time>2026-04-01T09:26:08.551Z</time></trkpt><trkpt lat="42.9589237" lon="12.0008314"><ele>491.0</ele><time>2026-04-01T09:26:09.554Z</time></trkpt><trkpt lat="42.9587624" lon="12.0009087"><ele>488.3333333333333</ele><time>2026-04-01T09:26:10.551Z</time></trkpt><trkpt lat="42.9586029" lon="12.0010014"><ele>485.66666666666663</ele><time>2026-04-01T09:26:11.552Z</time></trkpt><trkpt lat="42.9584452" lon="12.0010254"><ele>483.0</ele><time>2026-04-01T09:26:12.553Z</time></trkpt><trkpt lat="42.9583048" lon="12.0010708"><ele>483.0</ele><time>2026-04-01T09:26:13.551Z</time></trkpt><trkpt lat="42.9581586" lon="12.0011038"><ele>483.0</ele><time>2026-04-01T09:26:14.552Z</time></trkpt><trkpt lat="42.9580182" lon="12.0011509"><ele>483.0</ele><time>2026-04-01T09:26:15.553Z</time></trkpt><trkpt lat="42.9578808" lon="12.0011864"><ele>483.0</ele><time>2026-04-01T09:26:16.551Z</time></trkpt><trkpt lat="42.957809" lon="12.0012564"><ele>483.0</ele><time>2026-04-01T09:26:17.553Z</time></trkpt><trkpt lat="42.9576995" lon="12.0012871"><ele>483.0</ele><time>2026-04-01T09:26:18.553Z</time></trkpt><trkpt lat="42.9575821" lon="12.0013383"><ele>483.0</ele><time>2026-04-01T09:26:19.552Z</time></trkpt><trkpt lat="42.9574399" lon="12.0014716"><ele>483.0</ele><time>2026-04-01T09:26:20.553Z</time></trkpt><trkpt lat="42.9573055" lon="12.0016102"><ele>482.5</ele><time>2026-04-01T09:26:21.552Z</time></trkpt><trkpt lat="42.9571806" lon="12.0017326"><ele>482.0</ele><time>2026-04-01T09:26:22.552Z</time></trkpt><trkpt lat="42.9570739" lon="12.0018467"><ele>481.5</ele><time>2026-04-01T09:26:23.553Z</time></trkpt><trkpt lat="42.9569797" lon="12.001949"><ele>481.0</ele><time>2026-04-01T09:26:24.552Z</time></trkpt><trkpt lat="42.9568895" lon="12.0020471"><ele>481.00000000000006</ele><time>2026-04-01T09:26:25.551Z</time></trkpt><trkpt lat="42.9568132" lon="12.0020947"><ele>481.0</ele><time>2026-04-01T09:26:26.553Z</time></trkpt><trkpt lat="42.9567203" lon="12.0020591"><ele>481.0</ele><time>2026-04-01T09:26:28.553Z</time></trkpt><trkpt lat="42.9566662" lon="12.0019935"><ele>481.0</ele><time>2026-04-01T09:26:31.553Z</time></trkpt><trkpt lat="42.9566315" lon="12.0018805"><ele>481.00000000000006</ele><time>2026-04-01T09:26:33.552Z</time></trkpt><trkpt lat="42.9565665" lon="12.0017729"><ele>481.0</ele><time>2026-04-01T09:26:35.552Z</time></trkpt><trkpt lat="42.9565322" lon="12.001642"><ele>480.6666666666667</ele><time>2026-04-01T09:26:37.553Z</time></trkpt><trkpt lat="42.9565598" lon="12.0014737"><ele>480.33333333333337</ele><time>2026-04-01T09:26:39.553Z</time></trkpt><trkpt lat="42.9565895" lon="12.0013807"><ele>480.0</ele><time>2026-04-01T09:26:40.551Z</time></trkpt><trkpt lat="42.9566269" lon="12.0012932"><ele>479.66666666666663</ele><time>2026-04-01T09:26:41.552Z</time></trkpt><trkpt lat="42.9566566" lon="12.0012091"><ele>479.3333333333333</ele><time>2026-04-01T09:26:42.551Z</time></trkpt><trkpt lat="42.9566891" lon="12.0011326"><ele>479.0</ele><time>2026-04-01T09:26:43.553Z</time></trkpt><trkpt lat="42.9567477" lon="12.0009878"><ele>478.99999999999994</ele><time>2026-04-01T09:26:45.552Z</time></trkpt><trkpt lat="42.9567886" lon="12.0009184"><ele>479.0</ele><time>2026-04-01T09:26:46.553Z</time></trkpt><trkpt lat="42.9568255" lon="12.0008467"><ele>479.0</ele><time>2026-04-01T09:26:47.551Z</time></trkpt><trkpt lat="42.9568344" lon="12.0006933"><ele>479.0</ele><time>2026-04-01T09:26:49.551Z</time></trkpt><trkpt lat="42.9568213" lon="12.0005642"><ele>478.99999999999994</ele><time>2026-04-01T09:26:51.551Z</time></trkpt><trkpt lat="42.9568595" lon="12.000699"><ele>479.0</ele><time>2026-04-01T09:27:02.55Z</time></trkpt><trkpt lat="42.9568134" lon="12.0008707"><ele>479.0</ele><time>2026-04-01T09:27:04.551Z</time></trkpt><trkpt lat="42.9567771" lon="12.0009603"><ele>479.0</ele><time>2026-04-01T09:27:05.552Z</time></trkpt><trkpt lat="42.9567313" lon="12.0010689"><ele>479.0</ele><time>2026-04-01T09:27:06.552Z</time></trkpt><trkpt lat="42.9566392" lon="12.0012288"><ele>479.0</ele><time>2026-04-01T09:27:07.552Z</time></trkpt><trkpt lat="42.956581" lon="12.0013885"><ele>479.0</ele><time>2026-04-01T09:27:08.551Z</time></trkpt><trkpt lat="42.956534" lon="12.0015068"><ele>478.4</ele><time>2026-04-01T09:27:09.553Z</time></trkpt><trkpt lat="42.9564816" lon="12.0016358"><ele>477.79999999999995</ele><time>2026-04-01T09:27:10.552Z</time></trkpt><trkpt lat="42.9565262" lon="12.0017106"><ele>477.20000000000005</ele><time>2026-04-01T09:27:11.553Z</time></trkpt><trkpt lat="42.9565908" lon="12.0017755"><ele>476.6</ele><time>2026-04-01T09:27:12.553Z</time></trkpt><trkpt lat="42.9566354" lon="12.0019097"><ele>476.0</ele><time>2026-04-01T09:27:14.552Z</time></trkpt><trkpt lat="42.9566247" lon="12.0020228"><ele>477.6</ele><time>2026-04-01T09:27:16.552Z</time></trkpt><trkpt lat="42.9565581" lon="12.0020105"><ele>479.20000000000005</ele><time>2026-04-01T09:27:17.554Z</time></trkpt><trkpt lat="42.9564352" lon="12.0018735"><ele>480.79999999999995</ele><time>2026-04-01T09:27:19.553Z</time></trkpt><trkpt lat="42.9563669" lon="12.0017851"><ele>482.4</ele><time>2026-04-01T09:27:20.551Z</time></trkpt><trkpt lat="42.9562816" lon="12.0017056"><ele>484.0</ele><time>2026-04-01T09:27:21.553Z</time></trkpt><trkpt lat="42.9561573" lon="12.0016898"><ele>484.0</ele><time>2026-04-01T09:27:22.552Z</time></trkpt><trkpt lat="42.9560498" lon="12.0016717"><ele>484.0</ele><time>2026-04-01T09:27:23.551Z</time></trkpt><trkpt lat="42.9559189" lon="12.0017969"><ele>484.0</ele><time>2026-04-01T09:27:24.552Z</time></trkpt><trkpt lat="42.955775" lon="12.0019045"><ele>484.0</ele><time>2026-04-01T09:27:25.551Z</time></trkpt><trkpt lat="42.9556432" lon="12.0020193"><ele>485.33333333333337</ele><time>2026-04-01T09:27:26.552Z</time></trkpt><trkpt lat="42.9555046" lon="12.0021776"><ele>486.66666666666663</ele><time>2026-04-01T09:27:27.552Z</time></trkpt><trkpt lat="42.9553704" lon="12.0023425"><ele>488.0</ele><time>2026-04-01T09:27:28.553Z</time></trkpt><trkpt lat="42.9552531" lon="12.0024984"><ele>485.66666666666663</ele><time>2026-04-01T09:27:29.553Z</time></trkpt><trkpt lat="42.9551394" lon="12.0026566"><ele>483.33333333333337</ele><time>2026-04-01T09:27:30.552Z</time></trkpt><trkpt lat="42.955046" lon="12.002814"><ele>481.0</ele><time>2026-04-01T09:27:31.552Z</time></trkpt><trkpt lat="42.9549328" lon="12.0029501"><ele>481.0</ele><time>2026-04-01T09:27:32.551Z</time></trkpt><trkpt lat="42.9548269" lon="12.003066"><ele>481.0</ele><time>2026-04-01T09:27:33.551Z</time></trkpt><trkpt lat="42.9547106" lon="12.0031742"><ele>481.0</ele><time>2026-04-01T09:27:34.553Z</time></trkpt><trkpt lat="42.9545855" lon="12.0031994"><ele>481.0</ele><time>2026-04-01T09:27:35.554Z</time></trkpt><trkpt lat="42.9544755" lon="12.0031762"><ele>481.0</ele><time>2026-04-01T09:27:36.552Z</time></trkpt><trkpt lat="42.954352" lon="12.0031233"><ele>481.0</ele><time>2026-04-01T09:27:37.552Z</time></trkpt><trkpt lat="42.9542117" lon="12.0030685"><ele>481.0</ele><time>2026-04-01T09:27:38.552Z</time></trkpt><trkpt lat="42.9540585" lon="12.0030312"><ele>481.0</ele><time>2026-04-01T09:27:39.552Z</time></trkpt><trkpt lat="42.9539005" lon="12.0030251"><ele>478.33333333333337</ele><time>2026-04-01T09:27:40.552Z</time></trkpt><trkpt lat="42.9537405" lon="12.0030104"><ele>475.66666666666663</ele><time>2026-04-01T09:27:41.552Z</time></trkpt><trkpt lat="42.9535908" lon="12.0030351"><ele>473.0</ele><time>2026-04-01T09:27:42.553Z</time></trkpt><trkpt lat="42.9534473" lon="12.0030329"><ele>474.0</ele><time>2026-04-01T09:27:43.552Z</time></trkpt><trkpt lat="42.9533046" lon="12.0030237"><ele>475.0</ele><time>2026-04-01T09:27:44.551Z</time></trkpt><trkpt lat="42.9531612" lon="12.0029529"><ele>476.0</ele><time>2026-04-01T09:27:45.552Z</time></trkpt><trkpt lat="42.9530031" lon="12.0028641"><ele>476.0</ele><time>2026-04-01T09:27:46.552Z</time></trkpt><trkpt lat="42.9528547" lon="12.002776"><ele>476.0</ele><time>2026-04-01T09:27:47.552Z</time></trkpt><trkpt lat="42.9527527" lon="12.0025512"><ele>476.0</ele><time>2026-04-01T09:27:48.553Z</time></trkpt><trkpt lat="42.9526316" lon="12.0024006"><ele>470.0</ele><time>2026-04-01T09:27:49.551Z</time></trkpt><trkpt lat="42.9525986" lon="12.0021918"><ele>464.0</ele><time>2026-04-01T09:27:50.553Z</time></trkpt><trkpt lat="42.9526059" lon="12.0019724"><ele>458.0</ele><time>2026-04-01T09:27:51.552Z</time></trkpt><trkpt lat="42.9525694" lon="12.0017876"><ele>460.5</ele><time>2026-04-01T09:27:52.552Z</time></trkpt><trkpt lat="42.9525278" lon="12.001601"><ele>463.0</ele><time>2026-04-01T09:27:53.553Z</time></trkpt><trkpt lat="42.9524273" lon="12.001452"><ele>465.5</ele><time>2026-04-01T09:27:54.552Z</time></trkpt><trkpt lat="42.9522913" lon="12.0013584"><ele>468.0</ele><time>2026-04-01T09:27:55.552Z</time></trkpt><trkpt lat="42.9521734" lon="12.0012444"><ele>468.0</ele><time>2026-04-01T09:27:56.551Z</time></trkpt><trkpt lat="42.9520748" lon="12.0011675"><ele>468.0</ele><time>2026-04-01T09:27:57.552Z</time></trkpt><trkpt lat="42.9519643" lon="12.0011023"><ele>468.0</ele><time>2026-04-01T09:27:58.553Z</time></trkpt><trkpt lat="42.9518249" lon="12.0010433"><ele>468.0</ele><time>2026-04-01T09:27:59.552Z</time></trkpt><trkpt lat="42.9517156" lon="12.000977"><ele>471.5</ele><time>2026-04-01T09:28:00.552Z</time></trkpt><trkpt lat="42.9516055" lon="12.000911"><ele>475.0</ele><time>2026-04-01T09:28:01.554Z</time></trkpt><trkpt lat="42.9514952" lon="12.0008597"><ele>478.5</ele><time>2026-04-01T09:28:02.553Z</time></trkpt><trkpt lat="42.9513882" lon="12.000809"><ele>482.0</ele><time>2026-04-01T09:28:03.553Z</time></trkpt><trkpt lat="42.951285" lon="12.000899"><ele>482.0</ele><time>2026-04-01T09:28:05.552Z</time></trkpt><trkpt lat="42.9512518" lon="12.0009981"><ele>482.00000000000006</ele><time>2026-04-01T09:28:06.553Z</time></trkpt><trkpt lat="42.9512277" lon="12.0011042"><ele>482.00000000000006</ele><time>2026-04-01T09:28:07.552Z</time></trkpt><trkpt lat="42.9511902" lon="12.0012422"><ele>482.0</ele><time>2026-04-01T09:28:08.553Z</time></trkpt><trkpt lat="42.9511958" lon="12.001446"><ele>482.0</ele><time>2026-04-01T09:28:09.552Z</time></trkpt><trkpt lat="42.9511856" lon="12.0016163"><ele>486.0</ele><time>2026-04-01T09:28:10.552Z</time></trkpt><trkpt lat="42.9511749" lon="12.0018099"><ele>490.0</ele><time>2026-04-01T09:28:11.552Z</time></trkpt><trkpt lat="42.9512021" lon="12.0019763"><ele>494.0</ele><time>2026-04-01T09:28:12.553Z</time></trkpt><trkpt lat="42.9512837" lon="12.00217"><ele>498.0</ele><time>2026-04-01T09:28:13.551Z</time></trkpt><trkpt lat="42.9513767" lon="12.0023433"><ele>497.66666666666663</ele><time>2026-04-01T09:28:14.552Z</time></trkpt><trkpt lat="42.9514568" lon="12.0025309"><ele>497.3333333333333</ele><time>2026-04-01T09:28:15.553Z</time></trkpt><trkpt lat="42.9515257" lon="12.002718"><ele>497.0</ele><time>2026-04-01T09:28:16.553Z</time></trkpt><trkpt lat="42.9515626" lon="12.0029153"><ele>497.0</ele><time>2026-04-01T09:28:17.552Z</time></trkpt><trkpt lat="42.9515299" lon="12.0031385"><ele>497.0</ele><time>2026-04-01T09:28:18.553Z</time></trkpt><trkpt lat="42.9515358" lon="12.0033478"><ele>497.0</ele><time>2026-04-01T09:28:19.552Z</time></trkpt><trkpt lat="42.9514995" lon="12.0035355"><ele>497.0</ele><time>2026-04-01T09:28:20.552Z</time></trkpt><trkpt lat="42.9514525" lon="12.0037134"><ele>497.0</ele><time>2026-04-01T09:28:21.551Z</time></trkpt><trkpt lat="42.9513833" lon="12.0038423"><ele>497.0</ele><time>2026-04-01T09:28:22.552Z</time></trkpt><trkpt lat="42.9512961" lon="12.0039259"><ele>497.0</ele><time>2026-04-01T09:28:23.553Z</time></trkpt><trkpt lat="42.9511689" lon="12.003983"><ele>497.0</ele><time>2026-04-01T09:28:24.552Z</time></trkpt><trkpt lat="42.9510597" lon="12.004055"><ele>497.0</ele><time>2026-04-01T09:28:25.552Z</time></trkpt><trkpt lat="42.9509428" lon="12.0041212"><ele>497.0</ele><time>2026-04-01T09:28:26.552Z</time></trkpt><trkpt lat="42.9508256" lon="12.0041731"><ele>497.0</ele><time>2026-04-01T09:28:27.553Z</time></trkpt><trkpt lat="42.9507228" lon="12.00423"><ele>496.16666666666663</ele><time>2026-04-01T09:28:28.554Z</time></trkpt><trkpt lat="42.950623" lon="12.0042778"><ele>495.3333333333333</ele><time>2026-04-01T09:28:29.552Z</time></trkpt><trkpt lat="42.950527" lon="12.0043408"><ele>494.5</ele><time>2026-04-01T09:28:30.553Z</time></trkpt><trkpt lat="42.9504474" lon="12.0043955"><ele>493.66666666666663</ele><time>2026-04-01T09:28:31.554Z</time></trkpt><trkpt lat="42.9503757" lon="12.0044374"><ele>492.8333333333333</ele><time>2026-04-01T09:28:32.553Z</time></trkpt><trkpt lat="42.9503124" lon="12.0044531"><ele>492.0</ele><time>2026-04-01T09:28:33.553Z</time></trkpt><trkpt lat="42.9502487" lon="12.0044702"><ele>492.0</ele><time>2026-04-01T09:28:35.552Z</time></trkpt><trkpt lat="42.9501756" lon="12.0044452"><ele>492.00000000000006</ele><time>2026-04-01T09:28:43.553Z</time></trkpt><trkpt lat="42.9500759" lon="12.0044269"><ele>492.00000000000006</ele><time>2026-04-01T09:28:45.552Z</time></trkpt><trkpt lat="42.9499411" lon="12.0043937"><ele>492.0</ele><time>2026-04-01T09:28:47.552Z</time></trkpt><trkpt lat="42.9498685" lon="12.0043635"><ele>492.0</ele><time>2026-04-01T09:28:48.551Z</time></trkpt><trkpt lat="42.9497859" lon="12.0043268"><ele>491.20000000000005</ele><time>2026-04-01T09:28:49.552Z</time></trkpt><trkpt lat="42.9497096" lon="12.0043006"><ele>490.40000000000003</ele><time>2026-04-01T09:28:50.553Z</time></trkpt><trkpt lat="42.9496334" lon="12.0042638"><ele>489.59999999999997</ele><time>2026-04-01T09:28:51.552Z</time></trkpt><trkpt lat="42.9495589" lon="12.0042249"><ele>488.79999999999995</ele><time>2026-04-01T09:28:52.553Z</time></trkpt><trkpt lat="42.9494592" lon="12.0042786"><ele>488.0</ele><time>2026-04-01T09:28:54.553Z</time></trkpt><trkpt lat="42.9493409" lon="12.0042752"><ele>488.0</ele><time>2026-04-01T09:28:56.553Z</time></trkpt><trkpt lat="42.949276" lon="12.0042895"><ele>487.99999999999994</ele><time>2026-04-01T09:28:57.554Z</time></trkpt><trkpt lat="42.9491542" lon="12.0043084"><ele>487.99999999999994</ele><time>2026-04-01T09:28:59.551Z</time></trkpt><trkpt lat="42.9490815" lon="12.0043372"><ele>488.0</ele><time>2026-04-01T09:29:00.554Z</time></trkpt><trkpt lat="42.9489847" lon="12.0043488"><ele>488.0</ele><time>2026-04-01T09:29:01.552Z</time></trkpt><trkpt lat="42.9488877" lon="12.0043797"><ele>485.99999999999994</ele><time>2026-04-01T09:29:02.553Z</time></trkpt><trkpt lat="42.9487877" lon="12.0043958"><ele>484.0</ele><time>2026-04-01T09:29:03.554Z</time></trkpt><trkpt lat="42.9486971" lon="12.0043922"><ele>482.0</ele><time>2026-04-01T09:29:04.552Z</time></trkpt><trkpt lat="42.9486178" lon="12.0043788"><ele>480.0</ele><time>2026-04-01T09:29:05.554Z</time></trkpt><trkpt lat="42.9485382" lon="12.0043492"><ele>477.99999999999994</ele><time>2026-04-01T09:29:06.552Z</time></trkpt><trkpt lat="42.948466" lon="12.0043204"><ele>476.0</ele><time>2026-04-01T09:29:07.553Z</time></trkpt><trkpt lat="42.9483911" lon="12.0043123"><ele>473.4</ele><time>2026-04-01T09:29:08.552Z</time></trkpt><trkpt lat="42.9483092" lon="12.0043183"><ele>470.8</ele><time>2026-04-01T09:29:09.553Z</time></trkpt><trkpt lat="42.9482174" lon="12.0043401"><ele>468.19999999999993</ele><time>2026-04-01T09:29:10.552Z</time></trkpt><trkpt lat="42.9481112" lon="12.0044059"><ele>465.59999999999997</ele><time>2026-04-01T09:29:11.553Z</time></trkpt><trkpt lat="42.9479872" lon="12.0045031"><ele>463.0</ele><time>2026-04-01T09:29:12.552Z</time></trkpt><trkpt lat="42.9478596" lon="12.0045845"><ele>463.0</ele><time>2026-04-01T09:29:13.553Z</time></trkpt><trkpt lat="42.9477512" lon="12.0046515"><ele>462.99999999999994</ele><time>2026-04-01T09:29:14.554Z</time></trkpt><trkpt lat="42.9476533" lon="12.0046502"><ele>462.99999999999994</ele><time>2026-04-01T09:29:15.554Z</time></trkpt><trkpt lat="42.9475573" lon="12.0046268"><ele>463.0</ele><time>2026-04-01T09:29:16.551Z</time></trkpt><trkpt lat="42.9474656" lon="12.0045568"><ele>463.0</ele><time>2026-04-01T09:29:17.551Z</time></trkpt><trkpt lat="42.9473833" lon="12.00447"><ele>461.2</ele><time>2026-04-01T09:29:18.553Z</time></trkpt><trkpt lat="42.9473038" lon="12.0043812"><ele>459.4</ele><time>2026-04-01T09:29:19.553Z</time></trkpt><trkpt lat="42.9472344" lon="12.0042427"><ele>457.59999999999997</ele><time>2026-04-01T09:29:20.554Z</time></trkpt><trkpt lat="42.9471668" lon="12.0041235"><ele>455.79999999999995</ele><time>2026-04-01T09:29:21.553Z</time></trkpt><trkpt lat="42.9471128" lon="12.0040229"><ele>454.0</ele><time>2026-04-01T09:29:22.552Z</time></trkpt><trkpt lat="42.9470393" lon="12.0038301"><ele>451.33333333333337</ele><time>2026-04-01T09:29:24.551Z</time></trkpt><trkpt lat="42.9470018" lon="12.0037439"><ele>448.6666666666667</ele><time>2026-04-01T09:29:25.553Z</time></trkpt><trkpt lat="42.9469211" lon="12.003608"><ele>446.0</ele><time>2026-04-01T09:29:27.552Z</time></trkpt><trkpt lat="42.9468604" lon="12.0035423"><ele>443.33333333333337</ele><time>2026-04-01T09:29:28.553Z</time></trkpt><trkpt lat="42.9467834" lon="12.0035215"><ele>440.6666666666667</ele><time>2026-04-01T09:29:29.553Z</time></trkpt><trkpt lat="42.9466971" lon="12.0035016"><ele>438.0</ele><time>2026-04-01T09:29:30.553Z</time></trkpt><trkpt lat="42.946625" lon="12.0035262"><ele>437.2</ele><time>2026-04-01T09:29:31.553Z</time></trkpt><trkpt lat="42.9465595" lon="12.0035702"><ele>436.4</ele><time>2026-04-01T09:29:32.554Z</time></trkpt><trkpt lat="42.946486" lon="12.0036465"><ele>435.59999999999997</ele><time>2026-04-01T09:29:33.552Z</time></trkpt><trkpt lat="42.9463948" lon="12.0037724"><ele>434.79999999999995</ele><time>2026-04-01T09:29:34.551Z</time></trkpt><trkpt lat="42.9462881" lon="12.0038973"><ele>434.0</ele><time>2026-04-01T09:29:35.553Z</time></trkpt><trkpt lat="42.9461863" lon="12.0040123"><ele>434.0</ele><time>2026-04-01T09:29:36.552Z</time></trkpt><trkpt lat="42.9461049" lon="12.0041204"><ele>434.0</ele><time>2026-04-01T09:29:37.554Z</time></trkpt><trkpt lat="42.9460469" lon="12.0042417"><ele>434.0</ele><time>2026-04-01T09:29:38.553Z</time></trkpt><trkpt lat="42.9460051" lon="12.0043497"><ele>434.0</ele><time>2026-04-01T09:29:39.553Z</time></trkpt><trkpt lat="42.946004" lon="12.0044719"><ele>434.0</ele><time>2026-04-01T09:29:40.553Z</time></trkpt><trkpt lat="42.9460002" lon="12.0046068"><ele>439.0</ele><time>2026-04-01T09:29:41.552Z</time></trkpt><trkpt lat="42.9460242" lon="12.0047924"><ele>444.0</ele><time>2026-04-01T09:29:42.554Z</time></trkpt><trkpt lat="42.946041" lon="12.0049966"><ele>449.0</ele><time>2026-04-01T09:29:43.554Z</time></trkpt><trkpt lat="42.9460416" lon="12.0051931"><ele>454.0</ele><time>2026-04-01T09:29:44.554Z</time></trkpt><trkpt lat="42.9460405" lon="12.0053759"><ele>457.2</ele><time>2026-04-01T09:29:45.553Z</time></trkpt><trkpt lat="42.9460391" lon="12.0055629"><ele>460.4</ele><time>2026-04-01T09:29:46.553Z</time></trkpt><trkpt lat="42.9460337" lon="12.0057124"><ele>463.6</ele><time>2026-04-01T09:29:47.554Z</time></trkpt><trkpt lat="42.9460076" lon="12.0058792"><ele>466.8</ele><time>2026-04-01T09:29:49.553Z</time></trkpt><trkpt lat="42.9459708" lon="12.0059612"><ele>470.0</ele><time>2026-04-01T09:29:50.554Z</time></trkpt><trkpt lat="42.9458994" lon="12.0059005"><ele>467.6</ele><time>2026-04-01T09:29:51.554Z</time></trkpt><trkpt lat="42.9457534" lon="12.0058414"><ele>465.2</ele><time>2026-04-01T09:29:53.552Z</time></trkpt><trkpt lat="42.9456816" lon="12.0057797"><ele>462.79999999999995</ele><time>2026-04-01T09:29:54.553Z</time></trkpt><trkpt lat="42.9456346" lon="12.0056905"><ele>460.4</ele><time>2026-04-01T09:29:55.553Z</time></trkpt><trkpt lat="42.9456011" lon="12.0055795"><ele>458.0</ele><time>2026-04-01T09:29:56.553Z</time></trkpt><trkpt lat="42.9455677" lon="12.0054773"><ele>453.2</ele><time>2026-04-01T09:29:57.553Z</time></trkpt><trkpt lat="42.9455064" lon="12.005399"><ele>448.4</ele><time>2026-04-01T09:29:58.552Z</time></trkpt><trkpt lat="42.9454368" lon="12.0053129"><ele>443.59999999999997</ele><time>2026-04-01T09:29:59.553Z</time></trkpt><trkpt lat="42.9453523" lon="12.0052402"><ele>438.79999999999995</ele><time>2026-04-01T09:30:00.554Z</time></trkpt><trkpt lat="42.9452397" lon="12.0051595"><ele>434.0</ele><time>2026-04-01T09:30:01.554Z</time></trkpt><trkpt lat="42.9450832" lon="12.0050876"><ele>432.5</ele><time>2026-04-01T09:30:02.552Z</time></trkpt><trkpt lat="42.9449492" lon="12.0050043"><ele>431.0</ele><time>2026-04-01T09:30:03.552Z</time></trkpt><trkpt lat="42.9448174" lon="12.0049382"><ele>429.5</ele><time>2026-04-01T09:30:04.553Z</time></trkpt><trkpt lat="42.944685" lon="12.0048511"><ele>428.0</ele><time>2026-04-01T09:30:05.553Z</time></trkpt><trkpt lat="42.9445685" lon="12.0047515"><ele>426.0</ele><time>2026-04-01T09:30:06.554Z</time></trkpt><trkpt lat="42.9444586" lon="12.0046909"><ele>424.0</ele><time>2026-04-01T09:30:07.552Z</time></trkpt><trkpt lat="42.9443652" lon="12.0046267"><ele>422.0</ele><time>2026-04-01T09:30:08.552Z</time></trkpt><trkpt lat="42.9442614" lon="12.004519"><ele>420.0</ele><time>2026-04-01T09:30:09.553Z</time></trkpt><trkpt lat="42.9441738" lon="12.0044136"><ele>420.0</ele><time>2026-04-01T09:30:10.552Z</time></trkpt><trkpt lat="42.9440859" lon="12.0042802"><ele>420.0</ele><time>2026-04-01T09:30:11.554Z</time></trkpt><trkpt lat="42.9440153" lon="12.0041273"><ele>420.0</ele><time>2026-04-01T09:30:12.553Z</time></trkpt><trkpt lat="42.9439425" lon="12.0039967"><ele>420.0</ele><time>2026-04-01T09:30:13.554Z</time></trkpt><trkpt lat="42.9438624" lon="12.0038297"><ele>416.5</ele><time>2026-04-01T09:30:14.553Z</time></trkpt><trkpt lat="42.9437835" lon="12.0036583"><ele>413.0</ele><time>2026-04-01T09:30:15.553Z</time></trkpt><trkpt lat="42.9437042" lon="12.0034994"><ele>409.5</ele><time>2026-04-01T09:30:16.553Z</time></trkpt><trkpt lat="42.9436303" lon="12.003367"><ele>406.0</ele><time>2026-04-01T09:30:17.553Z</time></trkpt><trkpt lat="42.9435492" lon="12.0032432"><ele>407.25</ele><time>2026-04-01T09:30:18.553Z</time></trkpt><trkpt lat="42.9434648" lon="12.0031197"><ele>408.5</ele><time>2026-04-01T09:30:19.553Z</time></trkpt><trkpt lat="42.9433819" lon="12.0030145"><ele>409.75</ele><time>2026-04-01T09:30:20.554Z</time></trkpt><trkpt lat="42.9433075" lon="12.002908"><ele>411.0</ele><time>2026-04-01T09:30:21.553Z</time></trkpt><trkpt lat="42.9432232" lon="12.0028053"><ele>411.0</ele><time>2026-04-01T09:30:22.554Z</time></trkpt><trkpt lat="42.9431235" lon="12.0027105"><ele>411.0</ele><time>2026-04-01T09:30:23.553Z</time></trkpt><trkpt lat="42.9430134" lon="12.0026266"><ele>411.0</ele><time>2026-04-01T09:30:24.554Z</time></trkpt><trkpt lat="42.9428882" lon="12.0025559"><ele>411.0</ele><time>2026-04-01T09:30:25.554Z</time></trkpt><trkpt lat="42.9427546" lon="12.0024928"><ele>411.25</ele><time>2026-04-01T09:30:26.552Z</time></trkpt><trkpt lat="42.9426207" lon="12.0024566"><ele>411.5</ele><time>2026-04-01T09:30:27.554Z</time></trkpt><trkpt lat="42.9424721" lon="12.0024161"><ele>411.75</ele><time>2026-04-01T09:30:28.553Z</time></trkpt><trkpt lat="42.9423208" lon="12.0024084"><ele>412.0</ele><time>2026-04-01T09:30:29.553Z</time></trkpt><trkpt lat="42.942158" lon="12.002412"><ele>412.0</ele><time>2026-04-01T09:30:30.552Z</time></trkpt><trkpt lat="42.9420153" lon="12.0024052"><ele>412.0</ele><time>2026-04-01T09:30:31.553Z</time></trkpt><trkpt lat="42.9419057" lon="12.0023957"><ele>412.0</ele><time>2026-04-01T09:30:32.553Z</time></trkpt><trkpt lat="42.941826" lon="12.0023689"><ele>412.0</ele><time>2026-04-01T09:30:33.553Z</time></trkpt><trkpt lat="42.9417571" lon="12.0023223"><ele>412.0</ele><time>2026-04-01T09:30:34.554Z</time></trkpt><trkpt lat="42.9416996" lon="12.0022574"><ele>411.6</ele><time>2026-04-01T09:30:35.552Z</time></trkpt><trkpt lat="42.9416365" lon="12.002163"><ele>411.20000000000005</ele><time>2026-04-01T09:30:36.553Z</time></trkpt><trkpt lat="42.941568" lon="12.0020752"><ele>410.8</ele><time>2026-04-01T09:30:37.553Z</time></trkpt><trkpt lat="42.9414776" lon="12.0019769"><ele>410.4</ele><time>2026-04-01T09:30:38.553Z</time></trkpt><trkpt lat="42.9413813" lon="12.0018891"><ele>410.0</ele><time>2026-04-01T09:30:39.553Z</time></trkpt><trkpt lat="42.9412799" lon="12.0017974"><ele>410.0</ele><time>2026-04-01T09:30:40.554Z</time></trkpt><trkpt lat="42.9411806" lon="12.0017013"><ele>410.0</ele><time>2026-04-01T09:30:41.553Z</time></trkpt><trkpt lat="42.9410905" lon="12.001601"><ele>410.0</ele><time>2026-04-01T09:30:42.552Z</time></trkpt><trkpt lat="42.9410025" lon="12.00151"><ele>410.0</ele><time>2026-04-01T09:30:43.553Z</time></trkpt><trkpt lat="42.9409331" lon="12.0014121"><ele>410.0</ele><time>2026-04-01T09:30:44.551Z</time></trkpt><trkpt lat="42.9408714" lon="12.0013237"><ele>407.8</ele><time>2026-04-01T09:30:45.552Z</time></trkpt><trkpt lat="42.9408111" lon="12.0012475"><ele>405.6</ele><time>2026-04-01T09:30:46.552Z</time></trkpt><trkpt lat="42.9407324" lon="12.0011761"><ele>403.4</ele><time>2026-04-01T09:30:47.551Z</time></trkpt><trkpt lat="42.9406448" lon="12.0011092"><ele>401.2</ele><time>2026-04-01T09:30:48.554Z</time></trkpt><trkpt lat="42.9405416" lon="12.0010288"><ele>399.0</ele><time>2026-04-01T09:30:49.553Z</time></trkpt><trkpt lat="42.9404404" lon="12.0009461"><ele>399.0</ele><time>2026-04-01T09:30:50.553Z</time></trkpt><trkpt lat="42.9403356" lon="12.0008632"><ele>399.0</ele><time>2026-04-01T09:30:51.553Z</time></trkpt><trkpt lat="42.9402513" lon="12.0007823"><ele>399.0</ele><time>2026-04-01T09:30:52.553Z</time></trkpt><trkpt lat="42.9401704" lon="12.0007189"><ele>399.0</ele><time>2026-04-01T09:30:53.553Z</time></trkpt><trkpt lat="42.9400857" lon="12.0006656"><ele>399.0</ele><time>2026-04-01T09:30:54.553Z</time></trkpt><trkpt lat="42.9399913" lon="12.0006343"><ele>394.33333333333337</ele><time>2026-04-01T09:30:55.554Z</time></trkpt><trkpt lat="42.9398677" lon="12.0006084"><ele>389.6666666666667</ele><time>2026-04-01T09:30:56.552Z</time></trkpt><trkpt lat="42.9397351" lon="12.0005979"><ele>385.0</ele><time>2026-04-01T09:30:57.553Z</time></trkpt><trkpt lat="42.9395358" lon="12.0005847"><ele>385.0</ele><time>2026-04-01T09:30:58.553Z</time></trkpt><trkpt lat="42.9393669" lon="12.0005608"><ele>385.0</ele><time>2026-04-01T09:30:59.553Z</time></trkpt><trkpt lat="42.9392108" lon="12.0005416"><ele>385.0</ele><time>2026-04-01T09:31:00.553Z</time></trkpt><trkpt lat="42.9390577" lon="12.0005091"><ele>384.25</ele><time>2026-04-01T09:31:01.552Z</time></trkpt><trkpt lat="42.9389525" lon="12.0005084"><ele>383.5</ele><time>2026-04-01T09:31:02.554Z</time></trkpt><trkpt lat="42.9388336" lon="12.0004716"><ele>382.75</ele><time>2026-04-01T09:31:03.553Z</time></trkpt><trkpt lat="42.9387271" lon="12.0003537"><ele>382.0</ele><time>2026-04-01T09:31:04.554Z</time></trkpt><trkpt lat="42.9386343" lon="12.0002818"><ele>382.0</ele><time>2026-04-01T09:31:05.553Z</time></trkpt><trkpt lat="42.9385875" lon="12.0002009"><ele>382.0</ele><time>2026-04-01T09:31:06.553Z</time></trkpt><trkpt lat="42.9385379" lon="12.0000903"><ele>382.0</ele><time>2026-04-01T09:31:07.554Z</time></trkpt><trkpt lat="42.9384988" lon="11.9999569"><ele>382.0</ele><time>2026-04-01T09:31:08.553Z</time></trkpt><trkpt lat="42.9384693" lon="11.9998155"><ele>382.0</ele><time>2026-04-01T09:31:09.554Z</time></trkpt><trkpt lat="42.938439" lon="11.999654"><ele>382.0</ele><time>2026-04-01T09:31:10.553Z</time></trkpt><trkpt lat="42.9384347" lon="11.9995137"><ele>382.0</ele><time>2026-04-01T09:31:11.554Z</time></trkpt><trkpt lat="42.938431" lon="11.9993668"><ele>382.0</ele><time>2026-04-01T09:31:12.553Z</time></trkpt><trkpt lat="42.9384224" lon="11.9992105"><ele>382.0</ele><time>2026-04-01T09:31:13.553Z</time></trkpt><trkpt lat="42.9384016" lon="11.9990589"><ele>382.0</ele><time>2026-04-01T09:31:14.553Z</time></trkpt><trkpt lat="42.9383828" lon="11.9989127"><ele>383.20000000000005</ele><time>2026-04-01T09:31:15.551Z</time></trkpt><trkpt lat="42.9383183" lon="11.9986988"><ele>384.4</ele><time>2026-04-01T09:31:17.553Z</time></trkpt><trkpt lat="42.9382672" lon="11.9985672"><ele>385.6</ele><time>2026-04-01T09:31:18.553Z</time></trkpt><trkpt lat="42.9382222" lon="11.9984601"><ele>386.79999999999995</ele><time>2026-04-01T09:31:19.553Z</time></trkpt><trkpt lat="42.9381665" lon="11.9983962"><ele>388.0</ele><time>2026-04-01T09:31:20.554Z</time></trkpt><trkpt lat="42.9380823" lon="11.9983531"><ele>385.5</ele><time>2026-04-01T09:31:21.554Z</time></trkpt><trkpt lat="42.9379727" lon="11.9982708"><ele>383.0</ele><time>2026-04-01T09:31:22.552Z</time></trkpt><trkpt lat="42.937866" lon="11.9981911"><ele>380.5</ele><time>2026-04-01T09:31:23.553Z</time></trkpt><trkpt lat="42.9377591" lon="11.9981037"><ele>378.0</ele><time>2026-04-01T09:31:24.553Z</time></trkpt><trkpt lat="42.9376678" lon="11.9980169"><ele>378.0</ele><time>2026-04-01T09:31:25.552Z</time></trkpt><trkpt lat="42.9375864" lon="11.9979382"><ele>378.0</ele><time>2026-04-01T09:31:26.554Z</time></trkpt><trkpt lat="42.9375136" lon="11.9978443"><ele>378.0</ele><time>2026-04-01T09:31:27.553Z</time></trkpt><trkpt lat="42.937449" lon="11.9977657"><ele>378.0</ele><time>2026-04-01T09:31:28.553Z</time></trkpt><trkpt lat="42.937408" lon="11.9976599"><ele>378.0</ele><time>2026-04-01T09:31:29.554Z</time></trkpt><trkpt lat="42.9373538" lon="11.9975523"><ele>376.0</ele><time>2026-04-01T09:31:30.553Z</time></trkpt><trkpt lat="42.9372571" lon="11.9973991"><ele>374.0</ele><time>2026-04-01T09:31:31.555Z</time></trkpt><trkpt lat="42.9371762" lon="11.997248"><ele>372.0</ele><time>2026-04-01T09:31:32.553Z</time></trkpt><trkpt lat="42.9371117" lon="11.9971271"><ele>370.0</ele><time>2026-04-01T09:31:33.553Z</time></trkpt><trkpt lat="42.9370558" lon="11.9970513"><ele>370.0</ele><time>2026-04-01T09:31:34.554Z</time></trkpt><trkpt lat="42.9370016" lon="11.99696"><ele>370.0</ele><time>2026-04-01T09:31:35.553Z</time></trkpt><trkpt lat="42.9369291" lon="11.9968787"><ele>370.0</ele><time>2026-04-01T09:31:36.553Z</time></trkpt><trkpt lat="42.936861" lon="11.9968288"><ele>370.0</ele><time>2026-04-01T09:31:37.553Z</time></trkpt><trkpt lat="42.9367772" lon="11.9967826"><ele>370.0</ele><time>2026-04-01T09:31:38.552Z</time></trkpt><trkpt lat="42.936694" lon="11.9967632"><ele>370.0</ele><time>2026-04-01T09:31:39.553Z</time></trkpt><trkpt lat="42.9366009" lon="11.9967611"><ele>368.2</ele><time>2026-04-01T09:31:40.554Z</time></trkpt><trkpt lat="42.9364879" lon="11.9967398"><ele>366.4</ele><time>2026-04-01T09:31:41.553Z</time></trkpt><trkpt lat="42.9363862" lon="11.9967122"><ele>364.6</ele><time>2026-04-01T09:31:42.553Z</time></trkpt><trkpt lat="42.9362964" lon="11.9966499"><ele>362.8</ele><time>2026-04-01T09:31:43.555Z</time></trkpt><trkpt lat="42.9361929" lon="11.9965936"><ele>361.0</ele><time>2026-04-01T09:31:44.553Z</time></trkpt><trkpt lat="42.9360736" lon="11.9965111"><ele>360.0</ele><time>2026-04-01T09:31:45.553Z</time></trkpt><trkpt lat="42.9359733" lon="11.9964245"><ele>359.0</ele><time>2026-04-01T09:31:46.553Z</time></trkpt><trkpt lat="42.9358859" lon="11.9963532"><ele>358.0</ele><time>2026-04-01T09:31:47.553Z</time></trkpt><trkpt lat="42.9358055" lon="11.9962763"><ele>357.0</ele><time>2026-04-01T09:31:48.552Z</time></trkpt><trkpt lat="42.9357179" lon="11.9961924"><ele>356.0</ele><time>2026-04-01T09:31:49.554Z</time></trkpt><trkpt lat="42.9356418" lon="11.9961059"><ele>354.6</ele><time>2026-04-01T09:31:50.554Z</time></trkpt><trkpt lat="42.9355933" lon="11.9960014"><ele>353.20000000000005</ele><time>2026-04-01T09:31:51.554Z</time></trkpt><trkpt lat="42.9355403" lon="11.9958816"><ele>351.79999999999995</ele><time>2026-04-01T09:31:52.553Z</time></trkpt><trkpt lat="42.9354947" lon="11.9957392"><ele>350.4</ele><time>2026-04-01T09:31:53.553Z</time></trkpt><trkpt lat="42.935433" lon="11.9956017"><ele>349.0</ele><time>2026-04-01T09:31:54.553Z</time></trkpt><trkpt lat="42.935376" lon="11.9954524"><ele>348.4</ele><time>2026-04-01T09:31:55.553Z</time></trkpt><trkpt lat="42.9353204" lon="11.9953093"><ele>347.79999999999995</ele><time>2026-04-01T09:31:56.554Z</time></trkpt><trkpt lat="42.9352601" lon="11.9951818"><ele>347.20000000000005</ele><time>2026-04-01T09:31:57.553Z</time></trkpt><trkpt lat="42.935202" lon="11.9950624"><ele>346.6</ele><time>2026-04-01T09:31:58.553Z</time></trkpt><trkpt lat="42.9351335" lon="11.9949499"><ele>346.0</ele><time>2026-04-01T09:31:59.553Z</time></trkpt><trkpt lat="42.9350679" lon="11.9948487"><ele>344.0</ele><time>2026-04-01T09:32:00.552Z</time></trkpt><trkpt lat="42.9349994" lon="11.9947558"><ele>342.0</ele><time>2026-04-01T09:32:01.553Z</time></trkpt><trkpt lat="42.9349501" lon="11.9946679"><ele>340.0</ele><time>2026-04-01T09:32:02.554Z</time></trkpt><trkpt lat="42.9349237" lon="11.9945721"><ele>338.0</ele><time>2026-04-01T09:32:03.553Z</time></trkpt><trkpt lat="42.9349112" lon="11.9944728"><ele>336.0</ele><time>2026-04-01T09:32:04.553Z</time></trkpt><trkpt lat="42.934903" lon="11.9943628"><ele>334.0</ele><time>2026-04-01T09:32:05.553Z</time></trkpt><trkpt lat="42.9349364" lon="11.9942349"><ele>333.75</ele><time>2026-04-01T09:32:06.554Z</time></trkpt><trkpt lat="42.9349714" lon="11.9940778"><ele>333.5</ele><time>2026-04-01T09:32:07.553Z</time></trkpt><trkpt lat="42.9350109" lon="11.9939123"><ele>333.25</ele><time>2026-04-01T09:32:08.553Z</time></trkpt><trkpt lat="42.9350414" lon="11.9937545"><ele>333.0</ele><time>2026-04-01T09:32:09.552Z</time></trkpt><trkpt lat="42.9350666" lon="11.993611"><ele>333.0</ele><time>2026-04-01T09:32:10.552Z</time></trkpt><trkpt lat="42.935082" lon="11.9934511"><ele>333.0</ele><time>2026-04-01T09:32:11.552Z</time></trkpt><trkpt lat="42.9350628" lon="11.9932897"><ele>333.0</ele><time>2026-04-01T09:32:12.553Z</time></trkpt><trkpt lat="42.9350417" lon="11.9931308"><ele>333.0</ele><time>2026-04-01T09:32:13.553Z</time></trkpt><trkpt lat="42.9350093" lon="11.9929737"><ele>332.5</ele><time>2026-04-01T09:32:14.554Z</time></trkpt><trkpt lat="42.934947" lon="11.9928305"><ele>332.0</ele><time>2026-04-01T09:32:15.554Z</time></trkpt><trkpt lat="42.934866" lon="11.9927047"><ele>331.5</ele><time>2026-04-01T09:32:16.553Z</time></trkpt><trkpt lat="42.934768" lon="11.992591"><ele>331.0</ele><time>2026-04-01T09:32:17.552Z</time></trkpt><trkpt lat="42.9346482" lon="11.9924747"><ele>329.3333333333333</ele><time>2026-04-01T09:32:18.554Z</time></trkpt><trkpt lat="42.9344913" lon="11.9923641"><ele>327.6666666666667</ele><time>2026-04-01T09:32:19.553Z</time></trkpt><trkpt lat="42.9343092" lon="11.9922356"><ele>326.0</ele><time>2026-04-01T09:32:20.553Z</time></trkpt><trkpt lat="42.9341132" lon="11.9920877"><ele>330.6666666666667</ele><time>2026-04-01T09:32:21.553Z</time></trkpt><trkpt lat="42.933923" lon="11.9919491"><ele>335.3333333333333</ele><time>2026-04-01T09:32:22.553Z</time></trkpt><trkpt lat="42.9337463" lon="11.9918278"><ele>340.0</ele><time>2026-04-01T09:32:23.552Z</time></trkpt><trkpt lat="42.9335841" lon="11.9917195"><ele>338.0</ele><time>2026-04-01T09:32:24.553Z</time></trkpt><trkpt lat="42.9334136" lon="11.9916255"><ele>336.0</ele><time>2026-04-01T09:32:25.552Z</time></trkpt><trkpt lat="42.9332146" lon="11.9915412"><ele>334.0</ele><time>2026-04-01T09:32:26.553Z</time></trkpt><trkpt lat="42.9330185" lon="11.9914629"><ele>334.0</ele><time>2026-04-01T09:32:27.553Z</time></trkpt><trkpt lat="42.9328354" lon="11.9913933"><ele>334.0</ele><time>2026-04-01T09:32:28.553Z</time></trkpt><trkpt lat="42.9326642" lon="11.9913304"><ele>334.0</ele><time>2026-04-01T09:32:29.554Z</time></trkpt><trkpt lat="42.9325065" lon="11.9912663"><ele>334.25</ele><time>2026-04-01T09:32:30.553Z</time></trkpt><trkpt lat="42.9323551" lon="11.9912382"><ele>334.5</ele><time>2026-04-01T09:32:31.554Z</time></trkpt><trkpt lat="42.9322066" lon="11.9911982"><ele>334.75</ele><time>2026-04-01T09:32:32.554Z</time></trkpt><trkpt lat="42.9320781" lon="11.9911551"><ele>335.0</ele><time>2026-04-01T09:32:33.554Z</time></trkpt><trkpt lat="42.9319556" lon="11.9910828"><ele>335.0</ele><time>2026-04-01T09:32:34.555Z</time></trkpt><trkpt lat="42.9318342" lon="11.9909862"><ele>335.0</ele><time>2026-04-01T09:32:35.554Z</time></trkpt><trkpt lat="42.9317375" lon="11.9908354"><ele>335.0</ele><time>2026-04-01T09:32:36.553Z</time></trkpt><trkpt lat="42.931647" lon="11.9906466"><ele>334.25</ele><time>2026-04-01T09:32:37.553Z</time></trkpt><trkpt lat="42.9315666" lon="11.9904527"><ele>333.5</ele><time>2026-04-01T09:32:38.554Z</time></trkpt><trkpt lat="42.9314929" lon="11.9902908"><ele>332.75</ele><time>2026-04-01T09:32:39.553Z</time></trkpt><trkpt lat="42.9314523" lon="11.9901077"><ele>332.0</ele><time>2026-04-01T09:32:40.553Z</time></trkpt><trkpt lat="42.9313984" lon="11.9898918"><ele>331.33333333333337</ele><time>2026-04-01T09:32:41.553Z</time></trkpt><trkpt lat="42.9313507" lon="11.9896819"><ele>330.6666666666667</ele><time>2026-04-01T09:32:42.553Z</time></trkpt><trkpt lat="42.9313037" lon="11.9894768"><ele>330.0</ele><time>2026-04-01T09:32:43.553Z</time></trkpt><trkpt lat="42.9312557" lon="11.9892898"><ele>329.5</ele><time>2026-04-01T09:32:44.553Z</time></trkpt><trkpt lat="42.9312107" lon="11.9891145"><ele>329.0</ele><time>2026-04-01T09:32:45.554Z</time></trkpt><trkpt lat="42.9311637" lon="11.9889575"><ele>328.5</ele><time>2026-04-01T09:32:46.554Z</time></trkpt><trkpt lat="42.9311271" lon="11.9888056"><ele>328.0</ele><time>2026-04-01T09:32:47.553Z</time></trkpt><trkpt lat="42.9310913" lon="11.9886627"><ele>328.0</ele><time>2026-04-01T09:32:48.552Z</time></trkpt><trkpt lat="42.9310596" lon="11.9885159"><ele>328.0</ele><time>2026-04-01T09:32:49.553Z</time></trkpt><trkpt lat="42.9310369" lon="11.9883954"><ele>328.0</ele><time>2026-04-01T09:32:50.555Z</time></trkpt><trkpt lat="42.9310115" lon="11.9882586"><ele>328.0</ele><time>2026-04-01T09:32:51.553Z</time></trkpt><trkpt lat="42.9309892" lon="11.9881123"><ele>328.0</ele><time>2026-04-01T09:32:52.553Z</time></trkpt><trkpt lat="42.9309626" lon="11.9879837"><ele>328.25</ele><time>2026-04-01T09:32:53.553Z</time></trkpt><trkpt lat="42.9309033" lon="11.9878358"><ele>328.5</ele><time>2026-04-01T09:32:54.552Z</time></trkpt><trkpt lat="42.930857" lon="11.9876834"><ele>328.75</ele><time>2026-04-01T09:32:55.553Z</time></trkpt><trkpt lat="42.9308073" lon="11.9875378"><ele>329.0</ele><time>2026-04-01T09:32:56.553Z</time></trkpt><trkpt lat="42.9307593" lon="11.9874269"><ele>326.5</ele><time>2026-04-01T09:32:57.555Z</time></trkpt><trkpt lat="42.9307006" lon="11.9872938"><ele>324.0</ele><time>2026-04-01T09:32:58.553Z</time></trkpt><trkpt lat="42.9306293" lon="11.9871705"><ele>321.5</ele><time>2026-04-01T09:32:59.552Z</time></trkpt><trkpt lat="42.9305401" lon="11.987061"><ele>319.0</ele><time>2026-04-01T09:33:00.554Z</time></trkpt><trkpt lat="42.9304333" lon="11.9869761"><ele>319.0</ele><time>2026-04-01T09:33:01.552Z</time></trkpt><trkpt lat="42.9303296" lon="11.9868724"><ele>319.0</ele><time>2026-04-01T09:33:02.554Z</time></trkpt><trkpt lat="42.930175" lon="11.9867321"><ele>319.0</ele><time>2026-04-01T09:33:03.554Z</time></trkpt><trkpt lat="42.9300621" lon="11.9866047"><ele>318.75</ele><time>2026-04-01T09:33:04.553Z</time></trkpt><trkpt lat="42.9299727" lon="11.986457"><ele>318.5</ele><time>2026-04-01T09:33:05.554Z</time></trkpt><trkpt lat="42.9298876" lon="11.9863363"><ele>318.25</ele><time>2026-04-01T09:33:06.554Z</time></trkpt><trkpt lat="42.9297845" lon="11.9861955"><ele>318.0</ele><time>2026-04-01T09:33:07.554Z</time></trkpt><trkpt lat="42.9296809" lon="11.9860759"><ele>318.0</ele><time>2026-04-01T09:33:08.554Z</time></trkpt><trkpt lat="42.929559" lon="11.9859533"><ele>318.0</ele><time>2026-04-01T09:33:09.554Z</time></trkpt><trkpt lat="42.9294377" lon="11.9858537"><ele>318.0</ele><time>2026-04-01T09:33:10.555Z</time></trkpt><trkpt lat="42.929345" lon="11.9857608"><ele>318.0</ele><time>2026-04-01T09:33:11.554Z</time></trkpt><trkpt lat="42.9292462" lon="11.9856735"><ele>316.2</ele><time>2026-04-01T09:33:12.554Z</time></trkpt><trkpt lat="42.9291442" lon="11.9856123"><ele>314.4</ele><time>2026-04-01T09:33:13.555Z</time></trkpt><trkpt lat="42.9290455" lon="11.9855683"><ele>312.59999999999997</ele><time>2026-04-01T09:33:14.554Z</time></trkpt><trkpt lat="42.9289405" lon="11.9855527"><ele>310.8</ele><time>2026-04-01T09:33:15.554Z</time></trkpt><trkpt lat="42.9288383" lon="11.9855654"><ele>309.0</ele><time>2026-04-01T09:33:16.554Z</time></trkpt><trkpt lat="42.9287252" lon="11.9855874"><ele>309.0</ele><time>2026-04-01T09:33:17.553Z</time></trkpt><trkpt lat="42.9286278" lon="11.985613"><ele>309.0</ele><time>2026-04-01T09:33:18.554Z</time></trkpt><trkpt lat="42.928555" lon="11.985631"><ele>309.0</ele><time>2026-04-01T09:33:19.554Z</time></trkpt><trkpt lat="42.9284892" lon="11.9856269"><ele>309.0</ele><time>2026-04-01T09:33:20.555Z</time></trkpt><trkpt lat="42.9284233" lon="11.9856086"><ele>309.0</ele><time>2026-04-01T09:33:21.553Z</time></trkpt><trkpt lat="42.9283674" lon="11.9855572"><ele>309.0</ele><time>2026-04-01T09:33:22.554Z</time></trkpt><trkpt lat="42.9283901" lon="11.9854207"><ele>309.0</ele><time>2026-04-01T09:33:23.552Z</time></trkpt><trkpt lat="42.928386" lon="11.9853223"><ele>309.0</ele><time>2026-04-01T09:33:24.554Z</time></trkpt><trkpt lat="42.9283972" lon="11.9850897"><ele>309.0</ele><time>2026-04-01T09:33:25.555Z</time></trkpt><trkpt lat="42.9284063" lon="11.9849237"><ele>309.0</ele><time>2026-04-01T09:33:26.554Z</time></trkpt><trkpt lat="42.9284089" lon="11.984737"><ele>309.0</ele><time>2026-04-01T09:33:27.554Z</time></trkpt><trkpt lat="42.9284163" lon="11.9845374"><ele>309.0</ele><time>2026-04-01T09:33:28.554Z</time></trkpt><trkpt lat="42.9284191" lon="11.984357"><ele>309.0</ele><time>2026-04-01T09:33:29.553Z</time></trkpt><trkpt lat="42.928412" lon="11.9841692"><ele>309.0</ele><time>2026-04-01T09:33:30.553Z</time></trkpt><trkpt lat="42.9283872" lon="11.9839743"><ele>305.0</ele><time>2026-04-01T09:33:31.554Z</time></trkpt><trkpt lat="42.9283434" lon="11.983801"><ele>301.0</ele><time>2026-04-01T09:33:32.554Z</time></trkpt><trkpt lat="42.9282988" lon="11.9836244"><ele>297.0</ele><time>2026-04-01T09:33:33.554Z</time></trkpt><trkpt lat="42.9282692" lon="11.9834545"><ele>293.0</ele><time>2026-04-01T09:33:34.554Z</time></trkpt><trkpt lat="42.9282396" lon="11.9832919"><ele>291.6</ele><time>2026-04-01T09:33:35.554Z</time></trkpt><trkpt lat="42.9282263" lon="11.983131"><ele>290.20000000000005</ele><time>2026-04-01T09:33:36.553Z</time></trkpt><trkpt lat="42.9282074" lon="11.9829803"><ele>288.8</ele><time>2026-04-01T09:33:37.555Z</time></trkpt><trkpt lat="42.9282146" lon="11.9828298"><ele>287.40000000000003</ele><time>2026-04-01T09:33:38.554Z</time></trkpt><trkpt lat="42.9282207" lon="11.9827059"><ele>286.0</ele><time>2026-04-01T09:33:39.553Z</time></trkpt><trkpt lat="42.9282188" lon="11.9825935"><ele>284.25</ele><time>2026-04-01T09:33:40.552Z</time></trkpt><trkpt lat="42.9281813" lon="11.9824354"><ele>282.5</ele><time>2026-04-01T09:33:42.555Z</time></trkpt><trkpt lat="42.9281373" lon="11.9823518"><ele>280.75</ele><time>2026-04-01T09:33:43.553Z</time></trkpt><trkpt lat="42.928074" lon="11.982254"><ele>279.0</ele><time>2026-04-01T09:33:44.554Z</time></trkpt><trkpt lat="42.9279303" lon="11.98211"><ele>279.0</ele><time>2026-04-01T09:33:45.553Z</time></trkpt><trkpt lat="42.9278128" lon="11.9819767"><ele>279.0</ele><time>2026-04-01T09:33:46.553Z</time></trkpt><trkpt lat="42.9277027" lon="11.981832"><ele>279.0</ele><time>2026-04-01T09:33:47.554Z</time></trkpt><trkpt lat="42.9275962" lon="11.9817071"><ele>279.0</ele><time>2026-04-01T09:33:48.555Z</time></trkpt><trkpt lat="42.9274869" lon="11.9815785"><ele>276.25</ele><time>2026-04-01T09:33:49.553Z</time></trkpt><trkpt lat="42.9274079" lon="11.9814604"><ele>273.5</ele><time>2026-04-01T09:33:50.553Z</time></trkpt><trkpt lat="42.9273487" lon="11.9813157"><ele>270.75</ele><time>2026-04-01T09:33:51.555Z</time></trkpt><trkpt lat="42.92731" lon="11.9811695"><ele>268.0</ele><time>2026-04-01T09:33:52.554Z</time></trkpt><trkpt lat="42.9272721" lon="11.9810299"><ele>268.0</ele><time>2026-04-01T09:33:53.553Z</time></trkpt><trkpt lat="42.9272457" lon="11.9808609"><ele>268.0</ele><time>2026-04-01T09:33:54.555Z</time></trkpt><trkpt lat="42.9272136" lon="11.9807113"><ele>268.0</ele><time>2026-04-01T09:33:55.553Z</time></trkpt><trkpt lat="42.9271875" lon="11.9805499"><ele>268.0</ele><time>2026-04-01T09:33:56.553Z</time></trkpt><trkpt lat="42.9271725" lon="11.9804011"><ele>266.4</ele><time>2026-04-01T09:33:57.554Z</time></trkpt><trkpt lat="42.9271628" lon="11.980241"><ele>264.8</ele><time>2026-04-01T09:33:58.554Z</time></trkpt><trkpt lat="42.9271561" lon="11.9800824"><ele>263.2</ele><time>2026-04-01T09:33:59.554Z</time></trkpt><trkpt lat="42.9271421" lon="11.9799275"><ele>261.6</ele><time>2026-04-01T09:34:00.554Z</time></trkpt><trkpt lat="42.9271312" lon="11.9797927"><ele>260.0</ele><time>2026-04-01T09:34:01.553Z</time></trkpt><trkpt lat="42.9271124" lon="11.9796495"><ele>259.5</ele><time>2026-04-01T09:34:02.552Z</time></trkpt><trkpt lat="42.9270854" lon="11.9795201"><ele>259.0</ele><time>2026-04-01T09:34:03.554Z</time></trkpt><trkpt lat="42.9270467" lon="11.9793588"><ele>258.5</ele><time>2026-04-01T09:34:04.552Z</time></trkpt><trkpt lat="42.926997" lon="11.979214"><ele>258.0</ele><time>2026-04-01T09:34:05.553Z</time></trkpt><trkpt lat="42.9269173" lon="11.979026"><ele>256.3333333333333</ele><time>2026-04-01T09:34:06.554Z</time></trkpt><trkpt lat="42.9268115" lon="11.9788431"><ele>254.66666666666666</ele><time>2026-04-01T09:34:07.554Z</time></trkpt><trkpt lat="42.926735" lon="11.9786521"><ele>253.0</ele><time>2026-04-01T09:34:08.554Z</time></trkpt><trkpt lat="42.9266727" lon="11.9785034"><ele>252.8</ele><time>2026-04-01T09:34:09.555Z</time></trkpt><trkpt lat="42.9266195" lon="11.97836"><ele>252.60000000000002</ele><time>2026-04-01T09:34:10.554Z</time></trkpt><trkpt lat="42.9265751" lon="11.9782515"><ele>252.39999999999998</ele><time>2026-04-01T09:34:11.554Z</time></trkpt><trkpt lat="42.9265351" lon="11.9781342"><ele>252.2</ele><time>2026-04-01T09:34:12.554Z</time></trkpt><trkpt lat="42.9265026" lon="11.9779803"><ele>252.0</ele><time>2026-04-01T09:34:14.552Z</time></trkpt><trkpt lat="42.9265267" lon="11.977846"><ele>251.5</ele><time>2026-04-01T09:34:16.552Z</time></trkpt><trkpt lat="42.9266527" lon="11.9777654"><ele>251.0</ele><time>2026-04-01T09:34:18.553Z</time></trkpt><trkpt lat="42.9267586" lon="11.9777357"><ele>250.5</ele><time>2026-04-01T09:34:19.554Z</time></trkpt><trkpt lat="42.9268832" lon="11.9777044"><ele>250.0</ele><time>2026-04-01T09:34:20.553Z</time></trkpt><trkpt lat="42.9270323" lon="11.9776624"><ele>250.0</ele><time>2026-04-01T09:34:21.554Z</time></trkpt><trkpt lat="42.9271882" lon="11.9776193"><ele>250.0</ele><time>2026-04-01T09:34:22.554Z</time></trkpt><trkpt lat="42.9273555" lon="11.9775689"><ele>250.0</ele><time>2026-04-01T09:34:23.553Z</time></trkpt><trkpt lat="42.9275157" lon="11.97751"><ele>250.66666666666666</ele><time>2026-04-01T09:34:24.552Z</time></trkpt><trkpt lat="42.92769" lon="11.9774321"><ele>251.33333333333331</ele><time>2026-04-01T09:34:25.554Z</time></trkpt><trkpt lat="42.927864" lon="11.9773562"><ele>252.0</ele><time>2026-04-01T09:34:26.553Z</time></trkpt><trkpt lat="42.9280258" lon="11.9772701"><ele>252.0</ele><time>2026-04-01T09:34:27.554Z</time></trkpt><trkpt lat="42.9281733" lon="11.9771737"><ele>252.0</ele><time>2026-04-01T09:34:28.554Z</time></trkpt><trkpt lat="42.9283276" lon="11.9770787"><ele>252.0</ele><time>2026-04-01T09:34:29.553Z</time></trkpt><trkpt lat="42.9284811" lon="11.9769671"><ele>251.5</ele><time>2026-04-01T09:34:30.554Z</time></trkpt><trkpt lat="42.9286207" lon="11.9768437"><ele>251.0</ele><time>2026-04-01T09:34:31.554Z</time></trkpt><trkpt lat="42.9287399" lon="11.9767427"><ele>250.5</ele><time>2026-04-01T09:34:32.553Z</time></trkpt><trkpt lat="42.9288577" lon="11.9766384"><ele>250.0</ele><time>2026-04-01T09:34:33.553Z</time></trkpt><trkpt lat="42.9289721" lon="11.9765276"><ele>250.0</ele><time>2026-04-01T09:34:34.554Z</time></trkpt><trkpt lat="42.9290944" lon="11.9764165"><ele>250.0</ele><time>2026-04-01T09:34:35.554Z</time></trkpt><trkpt lat="42.9292178" lon="11.9763109"><ele>250.0</ele><time>2026-04-01T09:34:36.554Z</time></trkpt><trkpt lat="42.9293454" lon="11.9762234"><ele>250.0</ele><time>2026-04-01T09:34:37.555Z</time></trkpt><trkpt lat="42.9294865" lon="11.9761388"><ele>252.0</ele><time>2026-04-01T09:34:38.555Z</time></trkpt><trkpt lat="42.9296706" lon="11.9760725"><ele>254.0</ele><time>2026-04-01T09:34:39.555Z</time></trkpt><trkpt lat="42.9298435" lon="11.9760214"><ele>256.0</ele><time>2026-04-01T09:34:40.554Z</time></trkpt><trkpt lat="42.930012" lon="11.975967"><ele>254.0</ele><time>2026-04-01T09:34:41.554Z</time></trkpt><trkpt lat="42.9301696" lon="11.9758939"><ele>252.0</ele><time>2026-04-01T09:34:42.553Z</time></trkpt><trkpt lat="42.9303364" lon="11.9758466"><ele>250.0</ele><time>2026-04-01T09:34:43.554Z</time></trkpt><trkpt lat="42.9304967" lon="11.9757988"><ele>250.0</ele><time>2026-04-01T09:34:44.553Z</time></trkpt><trkpt lat="42.9306465" lon="11.975748"><ele>250.0</ele><time>2026-04-01T09:34:45.553Z</time></trkpt><trkpt lat="42.930775" lon="11.9756901"><ele>250.0</ele><time>2026-04-01T09:34:46.554Z</time></trkpt><trkpt lat="42.9308934" lon="11.9756471"><ele>250.0</ele><time>2026-04-01T09:34:47.554Z</time></trkpt><trkpt lat="42.9310163" lon="11.9756056"><ele>250.75</ele><time>2026-04-01T09:34:48.555Z</time></trkpt><trkpt lat="42.9311356" lon="11.9755548"><ele>251.5</ele><time>2026-04-01T09:34:49.554Z</time></trkpt><trkpt lat="42.931256" lon="11.9755108"><ele>252.25</ele><time>2026-04-01T09:34:50.555Z</time></trkpt><trkpt lat="42.9313709" lon="11.9754629"><ele>253.0</ele><time>2026-04-01T09:34:51.555Z</time></trkpt><trkpt lat="42.9314792" lon="11.9754183"><ele>252.99999999999997</ele><time>2026-04-01T09:34:52.553Z</time></trkpt><trkpt lat="42.9315708" lon="11.9753673"><ele>253.0</ele><time>2026-04-01T09:34:53.553Z</time></trkpt><trkpt lat="42.9316594" lon="11.9753239"><ele>253.0</ele><time>2026-04-01T09:34:54.553Z</time></trkpt><trkpt lat="42.9317219" lon="11.9753093"><ele>253.0</ele><time>2026-04-01T09:34:55.554Z</time></trkpt><trkpt lat="42.9318113" lon="11.9752589"><ele>252.99999999999997</ele><time>2026-04-01T09:34:57.553Z</time></trkpt><trkpt lat="42.9317992" lon="11.9751349"><ele>253.0</ele><time>2026-04-01T09:34:59.554Z</time></trkpt><trkpt lat="42.931738" lon="11.9750631"><ele>252.25</ele><time>2026-04-01T09:35:00.554Z</time></trkpt><trkpt lat="42.9316605" lon="11.9749441"><ele>251.5</ele><time>2026-04-01T09:35:01.554Z</time></trkpt><trkpt lat="42.9315616" lon="11.9747907"><ele>250.75</ele><time>2026-04-01T09:35:02.554Z</time></trkpt><trkpt lat="42.9314454" lon="11.9746204"><ele>250.0</ele><time>2026-04-01T09:35:03.554Z</time></trkpt><trkpt lat="42.9313173" lon="11.9744297"><ele>250.0</ele><time>2026-04-01T09:35:04.554Z</time></trkpt><trkpt lat="42.9311986" lon="11.9742557"><ele>250.0</ele><time>2026-04-01T09:35:05.554Z</time></trkpt><trkpt lat="42.9310794" lon="11.9740719"><ele>250.0</ele><time>2026-04-01T09:35:06.553Z</time></trkpt><trkpt lat="42.9309718" lon="11.9738737"><ele>249.33333333333331</ele><time>2026-04-01T09:35:07.554Z</time></trkpt><trkpt lat="42.9308816" lon="11.9736595"><ele>248.66666666666669</ele><time>2026-04-01T09:35:08.553Z</time></trkpt><trkpt lat="42.9308124" lon="11.9734463"><ele>248.0</ele><time>2026-04-01T09:35:09.554Z</time></trkpt><trkpt lat="42.9307657" lon="11.9732227"><ele>247.33333333333334</ele><time>2026-04-01T09:35:10.555Z</time></trkpt><trkpt lat="42.9307322" lon="11.9730084"><ele>246.66666666666669</ele><time>2026-04-01T09:35:11.553Z</time></trkpt><trkpt lat="42.9307196" lon="11.9727997"><ele>246.0</ele><time>2026-04-01T09:35:12.553Z</time></trkpt><trkpt lat="42.9307116" lon="11.9725864"><ele>245.5</ele><time>2026-04-01T09:35:13.554Z</time></trkpt><trkpt lat="42.9307382" lon="11.972407"><ele>245.0</ele><time>2026-04-01T09:35:14.555Z</time></trkpt><trkpt lat="42.9307746" lon="11.9722351"><ele>244.5</ele><time>2026-04-01T09:35:15.554Z</time></trkpt><trkpt lat="42.9308244" lon="11.9720734"><ele>244.0</ele><time>2026-04-01T09:35:16.554Z</time></trkpt><trkpt lat="42.9308828" lon="11.9719139"><ele>244.66666666666666</ele><time>2026-04-01T09:35:17.554Z</time></trkpt><trkpt lat="42.9309657" lon="11.9717492"><ele>245.33333333333331</ele><time>2026-04-01T09:35:18.555Z</time></trkpt><trkpt lat="42.9310642" lon="11.9715803"><ele>246.0</ele><time>2026-04-01T09:35:19.554Z</time></trkpt><trkpt lat="42.9311988" lon="11.971402"><ele>246.0</ele><time>2026-04-01T09:35:20.554Z</time></trkpt><trkpt lat="42.9313486" lon="11.9712581"><ele>246.0</ele><time>2026-04-01T09:35:21.554Z</time></trkpt><trkpt lat="42.9314918" lon="11.9711078"><ele>246.0</ele><time>2026-04-01T09:35:22.554Z</time></trkpt><trkpt lat="42.9316262" lon="11.9709568"><ele>245.33333333333331</ele><time>2026-04-01T09:35:23.555Z</time></trkpt><trkpt lat="42.9317265" lon="11.9707744"><ele>244.66666666666666</ele><time>2026-04-01T09:35:24.555Z</time></trkpt><trkpt lat="42.9317972" lon="11.9705514"><ele>244.0</ele><time>2026-04-01T09:35:25.554Z</time></trkpt><trkpt lat="42.9318341" lon="11.9703056"><ele>244.0</ele><time>2026-04-01T09:35:26.554Z</time></trkpt><trkpt lat="42.93185" lon="11.9700526"><ele>244.0</ele><time>2026-04-01T09:35:27.554Z</time></trkpt><trkpt lat="42.9318267" lon="11.9697615"><ele>244.0</ele><time>2026-04-01T09:35:28.553Z</time></trkpt><trkpt lat="42.9318139" lon="11.9694627"><ele>244.33333333333331</ele><time>2026-04-01T09:35:29.554Z</time></trkpt><trkpt lat="42.9317945" lon="11.9691704"><ele>244.66666666666669</ele><time>2026-04-01T09:35:30.554Z</time></trkpt><trkpt lat="42.9317689" lon="11.9688952"><ele>245.0</ele><time>2026-04-01T09:35:31.554Z</time></trkpt><trkpt lat="42.9317571" lon="11.9686298"><ele>246.0</ele><time>2026-04-01T09:35:32.553Z</time></trkpt><trkpt lat="42.9317541" lon="11.968357"><ele>247.0</ele><time>2026-04-01T09:35:33.555Z</time></trkpt><trkpt lat="42.9317443" lon="11.9680675"><ele>248.0</ele><time>2026-04-01T09:35:34.554Z</time></trkpt><trkpt lat="42.9317361" lon="11.9677826"><ele>247.0</ele><time>2026-04-01T09:35:35.553Z</time></trkpt><trkpt lat="42.9317264" lon="11.9675028"><ele>246.0</ele><time>2026-04-01T09:35:36.553Z</time></trkpt><trkpt lat="42.9316992" lon="11.9672221"><ele>245.0</ele><time>2026-04-01T09:35:37.554Z</time></trkpt><trkpt lat="42.9316459" lon="11.9669331"><ele>245.0</ele><time>2026-04-01T09:35:38.554Z</time></trkpt><trkpt lat="42.9315502" lon="11.9666492"><ele>245.0</ele><time>2026-04-01T09:35:39.555Z</time></trkpt><trkpt lat="42.9314364" lon="11.966373"><ele>245.0</ele><time>2026-04-01T09:35:40.554Z</time></trkpt><trkpt lat="42.9312922" lon="11.9660924"><ele>245.0</ele><time>2026-04-01T09:35:41.553Z</time></trkpt><trkpt lat="42.9311255" lon="11.9658216"><ele>244.5</ele><time>2026-04-01T09:35:42.553Z</time></trkpt><trkpt lat="42.9309615" lon="11.9655488"><ele>244.0</ele><time>2026-04-01T09:35:43.554Z</time></trkpt><trkpt lat="42.9307892" lon="11.9652608"><ele>244.0</ele><time>2026-04-01T09:35:44.555Z</time></trkpt><trkpt lat="42.9306196" lon="11.9649817"><ele>244.0</ele><time>2026-04-01T09:35:45.554Z</time></trkpt><trkpt lat="42.9304498" lon="11.9646884"><ele>244.0</ele><time>2026-04-01T09:35:46.554Z</time></trkpt><trkpt lat="42.9302785" lon="11.9643952"><ele>244.0</ele><time>2026-04-01T09:35:47.553Z</time></trkpt><trkpt lat="42.9301141" lon="11.9641522"><ele>244.5</ele><time>2026-04-01T09:35:48.554Z</time></trkpt><trkpt lat="42.9299651" lon="11.9639053"><ele>245.0</ele><time>2026-04-01T09:35:49.553Z</time></trkpt><trkpt lat="42.9297877" lon="11.9636589"><ele>245.0</ele><time>2026-04-01T09:35:50.555Z</time></trkpt><trkpt lat="42.9296069" lon="11.9634186"><ele>245.0</ele><time>2026-04-01T09:35:51.555Z</time></trkpt><trkpt lat="42.9294047" lon="11.9631906"><ele>244.0</ele><time>2026-04-01T09:35:52.553Z</time></trkpt><trkpt lat="42.9291926" lon="11.9629614"><ele>243.0</ele><time>2026-04-01T09:35:53.554Z</time></trkpt><trkpt lat="42.9289786" lon="11.9627469"><ele>243.0</ele><time>2026-04-01T09:35:54.555Z</time></trkpt><trkpt lat="42.9287671" lon="11.9625241"><ele>243.0</ele><time>2026-04-01T09:35:55.555Z</time></trkpt><trkpt lat="42.9285579" lon="11.9623071"><ele>242.0</ele><time>2026-04-01T09:35:56.554Z</time></trkpt><trkpt lat="42.9283709" lon="11.9621153"><ele>241.0</ele><time>2026-04-01T09:35:57.554Z</time></trkpt><trkpt lat="42.9281941" lon="11.9619362"><ele>241.0</ele><time>2026-04-01T09:35:58.555Z</time></trkpt><trkpt lat="42.9280331" lon="11.961756"><ele>241.0</ele><time>2026-04-01T09:35:59.554Z</time></trkpt><trkpt lat="42.9278843" lon="11.9615725"><ele>241.0</ele><time>2026-04-01T09:36:00.554Z</time></trkpt><trkpt lat="42.9277531" lon="11.9613563"><ele>241.33333333333331</ele><time>2026-04-01T09:36:01.555Z</time></trkpt><trkpt lat="42.9276421" lon="11.9611252"><ele>241.66666666666669</ele><time>2026-04-01T09:36:02.555Z</time></trkpt><trkpt lat="42.92755" lon="11.9608928"><ele>242.0</ele><time>2026-04-01T09:36:03.554Z</time></trkpt><trkpt lat="42.9274605" lon="11.9606792"><ele>243.0</ele><time>2026-04-01T09:36:04.555Z</time></trkpt><trkpt lat="42.9273786" lon="11.9604782"><ele>244.0</ele><time>2026-04-01T09:36:05.555Z</time></trkpt><trkpt lat="42.927294" lon="11.9603141"><ele>245.0</ele><time>2026-04-01T09:36:06.554Z</time></trkpt><trkpt lat="42.9271876" lon="11.9601784"><ele>245.0</ele><time>2026-04-01T09:36:07.553Z</time></trkpt><trkpt lat="42.9270519" lon="11.9600944"><ele>245.0</ele><time>2026-04-01T09:36:08.554Z</time></trkpt><trkpt lat="42.9268964" lon="11.9600686"><ele>245.0</ele><time>2026-04-01T09:36:09.553Z</time></trkpt><trkpt lat="42.9267305" lon="11.9601017"><ele>244.33333333333334</ele><time>2026-04-01T09:36:10.554Z</time></trkpt><trkpt lat="42.9265617" lon="11.9601929"><ele>243.66666666666669</ele><time>2026-04-01T09:36:11.554Z</time></trkpt><trkpt lat="42.9263871" lon="11.9602878"><ele>243.0</ele><time>2026-04-01T09:36:12.553Z</time></trkpt><trkpt lat="42.9262128" lon="11.9603863"><ele>243.0</ele><time>2026-04-01T09:36:13.554Z</time></trkpt><trkpt lat="42.9260529" lon="11.9604678"><ele>243.0</ele><time>2026-04-01T09:36:14.556Z</time></trkpt><trkpt lat="42.9258893" lon="11.9605339"><ele>243.0</ele><time>2026-04-01T09:36:15.554Z</time></trkpt><trkpt lat="42.9257189" lon="11.9605593"><ele>242.66666666666669</ele><time>2026-04-01T09:36:16.553Z</time></trkpt><trkpt lat="42.9255314" lon="11.9605279"><ele>242.33333333333334</ele><time>2026-04-01T09:36:17.555Z</time></trkpt><trkpt lat="42.9253355" lon="11.9604165"><ele>242.0</ele><time>2026-04-01T09:36:18.555Z</time></trkpt><trkpt lat="42.9251409" lon="11.9602482"><ele>242.0</ele><time>2026-04-01T09:36:19.554Z</time></trkpt><trkpt lat="42.9249552" lon="11.9600338"><ele>242.0</ele><time>2026-04-01T09:36:20.554Z</time></trkpt><trkpt lat="42.9247725" lon="11.9597752"><ele>242.0</ele><time>2026-04-01T09:36:21.554Z</time></trkpt><trkpt lat="42.9245951" lon="11.9595108"><ele>242.0</ele><time>2026-04-01T09:36:22.554Z</time></trkpt><trkpt lat="42.9244197" lon="11.9592247"><ele>242.0</ele><time>2026-04-01T09:36:23.555Z</time></trkpt><trkpt lat="42.9242321" lon="11.9589345"><ele>242.0</ele><time>2026-04-01T09:36:24.555Z</time></trkpt><trkpt lat="42.9240533" lon="11.958629"><ele>244.5</ele><time>2026-04-01T09:36:25.553Z</time></trkpt><trkpt lat="42.9238704" lon="11.9583267"><ele>247.0</ele><time>2026-04-01T09:36:26.553Z</time></trkpt><trkpt lat="42.9236878" lon="11.9580117"><ele>247.0</ele><time>2026-04-01T09:36:27.554Z</time></trkpt><trkpt lat="42.9234967" lon="11.9576924"><ele>247.0</ele><time>2026-04-01T09:36:28.555Z</time></trkpt><trkpt lat="42.9233168" lon="11.9573926"><ele>246.5</ele><time>2026-04-01T09:36:29.554Z</time></trkpt><trkpt lat="42.9231336" lon="11.9570623"><ele>246.0</ele><time>2026-04-01T09:36:30.554Z</time></trkpt><trkpt lat="42.9229492" lon="11.9567499"><ele>247.0</ele><time>2026-04-01T09:36:31.554Z</time></trkpt><trkpt lat="42.9227698" lon="11.9564352"><ele>248.0</ele><time>2026-04-01T09:36:32.554Z</time></trkpt><trkpt lat="42.9226169" lon="11.9561136"><ele>245.0</ele><time>2026-04-01T09:36:33.554Z</time></trkpt><trkpt lat="42.92247" lon="11.9557982"><ele>242.0</ele><time>2026-04-01T09:36:34.554Z</time></trkpt><trkpt lat="42.9223175" lon="11.9554857"><ele>242.0</ele><time>2026-04-01T09:36:35.553Z</time></trkpt><trkpt lat="42.9221688" lon="11.9551811"><ele>242.0</ele><time>2026-04-01T09:36:36.554Z</time></trkpt><trkpt lat="42.9220263" lon="11.9548902"><ele>242.5</ele><time>2026-04-01T09:36:37.555Z</time></trkpt><trkpt lat="42.9218813" lon="11.954595"><ele>243.0</ele><time>2026-04-01T09:36:38.554Z</time></trkpt><trkpt lat="42.9217336" lon="11.9543"><ele>243.5</ele><time>2026-04-01T09:36:39.554Z</time></trkpt><trkpt lat="42.9215823" lon="11.954014"><ele>244.0</ele><time>2026-04-01T09:36:40.554Z</time></trkpt><trkpt lat="42.9214402" lon="11.9537174"><ele>244.0</ele><time>2026-04-01T09:36:41.554Z</time></trkpt><trkpt lat="42.9212901" lon="11.9534144"><ele>244.0</ele><time>2026-04-01T09:36:42.554Z</time></trkpt><trkpt lat="42.92115" lon="11.9531387"><ele>243.5</ele><time>2026-04-01T09:36:43.555Z</time></trkpt><trkpt lat="42.9210064" lon="11.9528601"><ele>243.0</ele><time>2026-04-01T09:36:44.554Z</time></trkpt><trkpt lat="42.9208615" lon="11.9525738"><ele>245.5</ele><time>2026-04-01T09:36:45.555Z</time></trkpt><trkpt lat="42.9207228" lon="11.9523091"><ele>248.0</ele><time>2026-04-01T09:36:46.555Z</time></trkpt><trkpt lat="42.9205865" lon="11.9520536"><ele>248.0</ele><time>2026-04-01T09:36:47.554Z</time></trkpt><trkpt lat="42.9204613" lon="11.9517933"><ele>248.0</ele><time>2026-04-01T09:36:48.554Z</time></trkpt><trkpt lat="42.920321" lon="11.9515382"><ele>246.5</ele><time>2026-04-01T09:36:49.555Z</time></trkpt><trkpt lat="42.9201762" lon="11.9512669"><ele>245.0</ele><time>2026-04-01T09:36:50.554Z</time></trkpt><trkpt lat="42.9200254" lon="11.9509897"><ele>245.0</ele><time>2026-04-01T09:36:51.555Z</time></trkpt><trkpt lat="42.9198687" lon="11.9506992"><ele>245.0</ele><time>2026-04-01T09:36:52.554Z</time></trkpt><trkpt lat="42.9197174" lon="11.9503981"><ele>245.0</ele><time>2026-04-01T09:36:53.553Z</time></trkpt><trkpt lat="42.9195665" lon="11.9500924"><ele>245.0</ele><time>2026-04-01T09:36:54.554Z</time></trkpt><trkpt lat="42.9194128" lon="11.9497785"><ele>245.5</ele><time>2026-04-01T09:36:55.554Z</time></trkpt><trkpt lat="42.9192677" lon="11.9494611"><ele>246.0</ele><time>2026-04-01T09:36:56.553Z</time></trkpt><trkpt lat="42.9191278" lon="11.949155"><ele>246.0</ele><time>2026-04-01T09:36:57.556Z</time></trkpt><trkpt lat="42.9189786" lon="11.9488532"><ele>246.0</ele><time>2026-04-01T09:36:58.554Z</time></trkpt><trkpt lat="42.9188319" lon="11.9485496"><ele>246.5</ele><time>2026-04-01T09:36:59.555Z</time></trkpt><trkpt lat="42.9186852" lon="11.9482548"><ele>247.0</ele><time>2026-04-01T09:37:00.554Z</time></trkpt><trkpt lat="42.9185322" lon="11.947961"><ele>250.5</ele><time>2026-04-01T09:37:01.555Z</time></trkpt><trkpt lat="42.9183854" lon="11.9476631"><ele>254.0</ele><time>2026-04-01T09:37:02.555Z</time></trkpt><trkpt lat="42.9182364" lon="11.9473666"><ele>254.0</ele><time>2026-04-01T09:37:03.554Z</time></trkpt><trkpt lat="42.9180896" lon="11.9470775"><ele>254.0</ele><time>2026-04-01T09:37:04.554Z</time></trkpt><trkpt lat="42.9179446" lon="11.946795"><ele>253.5</ele><time>2026-04-01T09:37:05.555Z</time></trkpt><trkpt lat="42.9177972" lon="11.9465112"><ele>253.0</ele><time>2026-04-01T09:37:06.554Z</time></trkpt><trkpt lat="42.9176483" lon="11.9462478"><ele>260.0</ele><time>2026-04-01T09:37:07.555Z</time></trkpt><trkpt lat="42.9174946" lon="11.9459952"><ele>267.0</ele><time>2026-04-01T09:37:08.554Z</time></trkpt><trkpt lat="42.9173216" lon="11.9457341"><ele>267.0</ele><time>2026-04-01T09:37:09.554Z</time></trkpt><trkpt lat="42.9171475" lon="11.9454748"><ele>267.0</ele><time>2026-04-01T09:37:10.554Z</time></trkpt><trkpt lat="42.9169667" lon="11.9452125"><ele>264.0</ele><time>2026-04-01T09:37:11.554Z</time></trkpt><trkpt lat="42.9167902" lon="11.9449464"><ele>261.0</ele><time>2026-04-01T09:37:12.555Z</time></trkpt><trkpt lat="42.916619" lon="11.9446899"><ele>267.0</ele><time>2026-04-01T09:37:13.554Z</time></trkpt><trkpt lat="42.9164388" lon="11.9444236"><ele>273.0</ele><time>2026-04-01T09:37:14.555Z</time></trkpt><trkpt lat="42.9162593" lon="11.9441506"><ele>273.0</ele><time>2026-04-01T09:37:15.554Z</time></trkpt><trkpt lat="42.9160858" lon="11.9438794"><ele>273.0</ele><time>2026-04-01T09:37:16.555Z</time></trkpt><trkpt lat="42.9159211" lon="11.9436161"><ele>278.5</ele><time>2026-04-01T09:37:17.555Z</time></trkpt><trkpt lat="42.9157539" lon="11.9433421"><ele>284.0</ele><time>2026-04-01T09:37:18.555Z</time></trkpt><trkpt lat="42.9156022" lon="11.9430513"><ele>284.0</ele><time>2026-04-01T09:37:19.555Z</time></trkpt><trkpt lat="42.9154699" lon="11.9427456"><ele>284.0</ele><time>2026-04-01T09:37:20.554Z</time></trkpt><trkpt lat="42.9153547" lon="11.9424195"><ele>283.5</ele><time>2026-04-01T09:37:21.553Z</time></trkpt><trkpt lat="42.9152365" lon="11.9420855"><ele>283.0</ele><time>2026-04-01T09:37:22.554Z</time></trkpt><trkpt lat="42.9151352" lon="11.9417466"><ele>286.0</ele><time>2026-04-01T09:37:23.555Z</time></trkpt><trkpt lat="42.9150322" lon="11.9414149"><ele>289.0</ele><time>2026-04-01T09:37:24.555Z</time></trkpt><trkpt lat="42.9149348" lon="11.9410712"><ele>290.5</ele><time>2026-04-01T09:37:25.554Z</time></trkpt><trkpt lat="42.9148352" lon="11.9407292"><ele>292.0</ele><time>2026-04-01T09:37:26.554Z</time></trkpt><trkpt lat="42.9147317" lon="11.9403941"><ele>292.0</ele><time>2026-04-01T09:37:27.555Z</time></trkpt><trkpt lat="42.914633" lon="11.9400604"><ele>292.0</ele><time>2026-04-01T09:37:28.554Z</time></trkpt><trkpt lat="42.9145397" lon="11.9397423"><ele>293.5</ele><time>2026-04-01T09:37:29.553Z</time></trkpt><trkpt lat="42.914438" lon="11.9394406"><ele>295.0</ele><time>2026-04-01T09:37:30.553Z</time></trkpt><trkpt lat="42.9142965" lon="11.9391424"><ele>297.0</ele><time>2026-04-01T09:37:31.554Z</time></trkpt><trkpt lat="42.9141263" lon="11.9388587"><ele>299.0</ele><time>2026-04-01T09:37:32.554Z</time></trkpt><trkpt lat="42.913933" lon="11.93858"><ele>301.5</ele><time>2026-04-01T09:37:33.553Z</time></trkpt><trkpt lat="42.9137179" lon="11.9382949"><ele>304.0</ele><time>2026-04-01T09:37:34.555Z</time></trkpt><trkpt lat="42.9135114" lon="11.9380171"><ele>304.0</ele><time>2026-04-01T09:37:35.554Z</time></trkpt><trkpt lat="42.9133075" lon="11.9377514"><ele>304.0</ele><time>2026-04-01T09:37:36.555Z</time></trkpt><trkpt lat="42.9131144" lon="11.9374761"><ele>304.0</ele><time>2026-04-01T09:37:37.555Z</time></trkpt><trkpt lat="42.9129326" lon="11.9372028"><ele>304.0</ele><time>2026-04-01T09:37:38.555Z</time></trkpt><trkpt lat="42.9127769" lon="11.9368887"><ele>304.0</ele><time>2026-04-01T09:37:39.555Z</time></trkpt><trkpt lat="42.9126111" lon="11.9365734"><ele>304.0</ele><time>2026-04-01T09:37:40.553Z</time></trkpt><trkpt lat="42.9124585" lon="11.9362386"><ele>304.0</ele><time>2026-04-01T09:37:41.555Z</time></trkpt><trkpt lat="42.9123023" lon="11.9359053"><ele>304.0</ele><time>2026-04-01T09:37:42.556Z</time></trkpt><trkpt lat="42.9121367" lon="11.9356039"><ele>304.0</ele><time>2026-04-01T09:37:43.554Z</time></trkpt><trkpt lat="42.9119972" lon="11.9353054"><ele>304.0</ele><time>2026-04-01T09:37:44.554Z</time></trkpt><trkpt lat="42.9118648" lon="11.935036"><ele>304.66666666666663</ele><time>2026-04-01T09:37:45.555Z</time></trkpt><trkpt lat="42.9117288" lon="11.9348027"><ele>305.3333333333333</ele><time>2026-04-01T09:37:46.555Z</time></trkpt><trkpt lat="42.9115637" lon="11.9345958"><ele>306.0</ele><time>2026-04-01T09:37:47.555Z</time></trkpt><trkpt lat="42.9113654" lon="11.9344329"><ele>306.0</ele><time>2026-04-01T09:37:48.553Z</time></trkpt><trkpt lat="42.9111243" lon="11.9342934"><ele>306.0</ele><time>2026-04-01T09:37:49.553Z</time></trkpt><trkpt lat="42.9108723" lon="11.9341595"><ele>310.0</ele><time>2026-04-01T09:37:50.554Z</time></trkpt><trkpt lat="42.910599" lon="11.9340506"><ele>314.0</ele><time>2026-04-01T09:37:51.555Z</time></trkpt><trkpt lat="42.910346" lon="11.9339181"><ele>314.0</ele><time>2026-04-01T09:37:52.556Z</time></trkpt><trkpt lat="42.9101188" lon="11.9338034"><ele>314.0</ele><time>2026-04-01T09:37:53.555Z</time></trkpt><trkpt lat="42.9098894" lon="11.9336824"><ele>316.5</ele><time>2026-04-01T09:37:54.555Z</time></trkpt><trkpt lat="42.9096654" lon="11.9335544"><ele>319.0</ele><time>2026-04-01T09:37:55.554Z</time></trkpt><trkpt lat="42.9094406" lon="11.9334067"><ele>322.0</ele><time>2026-04-01T09:37:56.555Z</time></trkpt><trkpt lat="42.9092334" lon="11.933217"><ele>325.0</ele><time>2026-04-01T09:37:57.554Z</time></trkpt><trkpt lat="42.9090212" lon="11.9330251"><ele>325.0</ele><time>2026-04-01T09:37:58.555Z</time></trkpt><trkpt lat="42.9087977" lon="11.9328605"><ele>325.0</ele><time>2026-04-01T09:37:59.555Z</time></trkpt><trkpt lat="42.9085504" lon="11.9327265"><ele>322.5</ele><time>2026-04-01T09:38:00.554Z</time></trkpt><trkpt lat="42.9083075" lon="11.9325896"><ele>320.0</ele><time>2026-04-01T09:38:01.553Z</time></trkpt><trkpt lat="42.9080744" lon="11.9324472"><ele>325.0</ele><time>2026-04-01T09:38:02.554Z</time></trkpt><trkpt lat="42.9078374" lon="11.9323159"><ele>330.0</ele><time>2026-04-01T09:38:03.554Z</time></trkpt><trkpt lat="42.9075954" lon="11.932189"><ele>327.5</ele><time>2026-04-01T09:38:04.553Z</time></trkpt><trkpt lat="42.9073641" lon="11.9320639"><ele>325.0</ele><time>2026-04-01T09:38:05.555Z</time></trkpt><trkpt lat="42.907156" lon="11.931946"><ele>325.0</ele><time>2026-04-01T09:38:06.555Z</time></trkpt><trkpt lat="42.9069551" lon="11.9318502"><ele>325.0</ele><time>2026-04-01T09:38:07.554Z</time></trkpt><trkpt lat="42.9067573" lon="11.9317992"><ele>325.0</ele><time>2026-04-01T09:38:08.554Z</time></trkpt><trkpt lat="42.906563" lon="11.9317849"><ele>326.66666666666663</ele><time>2026-04-01T09:38:09.555Z</time></trkpt><trkpt lat="42.9063731" lon="11.9317856"><ele>328.3333333333333</ele><time>2026-04-01T09:38:10.555Z</time></trkpt><trkpt lat="42.9061897" lon="11.9317777"><ele>330.0</ele><time>2026-04-01T09:38:11.556Z</time></trkpt><trkpt lat="42.9060178" lon="11.9317678"><ele>331.5</ele><time>2026-04-01T09:38:12.555Z</time></trkpt><trkpt lat="42.9058688" lon="11.9317407"><ele>333.0</ele><time>2026-04-01T09:38:13.555Z</time></trkpt><trkpt lat="42.9057362" lon="11.9316883"><ele>334.5</ele><time>2026-04-01T09:38:14.554Z</time></trkpt><trkpt lat="42.9056286" lon="11.9316048"><ele>336.0</ele><time>2026-04-01T09:38:15.555Z</time></trkpt><trkpt lat="42.9055383" lon="11.931511"><ele>337.8</ele><time>2026-04-01T09:38:16.555Z</time></trkpt><trkpt lat="42.9054682" lon="11.9314072"><ele>339.6</ele><time>2026-04-01T09:38:17.554Z</time></trkpt><trkpt lat="42.9054031" lon="11.9312975"><ele>341.4</ele><time>2026-04-01T09:38:18.555Z</time></trkpt><trkpt lat="42.9053458" lon="11.9311899"><ele>343.2</ele><time>2026-04-01T09:38:19.555Z</time></trkpt><trkpt lat="42.9053047" lon="11.9310861"><ele>345.0</ele><time>2026-04-01T09:38:20.555Z</time></trkpt><trkpt lat="42.9052746" lon="11.9309978"><ele>345.0</ele><time>2026-04-01T09:38:21.555Z</time></trkpt><trkpt lat="42.9052431" lon="11.9309227"><ele>345.0</ele><time>2026-04-01T09:38:22.555Z</time></trkpt><trkpt lat="42.905133" lon="11.9308536"><ele>345.0</ele><time>2026-04-01T09:38:24.556Z</time></trkpt><trkpt lat="42.9050214" lon="11.9309122"><ele>345.0</ele><time>2026-04-01T09:38:26.554Z</time></trkpt><trkpt lat="42.9049505" lon="11.9310607"><ele>345.0</ele><time>2026-04-01T09:38:27.555Z</time></trkpt><trkpt lat="42.9048657" lon="11.9311617"><ele>347.25</ele><time>2026-04-01T09:38:28.554Z</time></trkpt><trkpt lat="42.9047776" lon="11.9312649"><ele>349.5</ele><time>2026-04-01T09:38:29.555Z</time></trkpt><trkpt lat="42.9046755" lon="11.9313571"><ele>351.75</ele><time>2026-04-01T09:38:30.555Z</time></trkpt><trkpt lat="42.9045376" lon="11.93136"><ele>354.0</ele><time>2026-04-01T09:38:31.555Z</time></trkpt><trkpt lat="42.9044147" lon="11.9313442"><ele>354.0</ele><time>2026-04-01T09:38:32.554Z</time></trkpt><trkpt lat="42.904279" lon="11.9313219"><ele>354.0</ele><time>2026-04-01T09:38:33.555Z</time></trkpt><trkpt lat="42.9041211" lon="11.9311746"><ele>354.0</ele><time>2026-04-01T09:38:34.556Z</time></trkpt><trkpt lat="42.9039502" lon="11.9310246"><ele>352.0</ele><time>2026-04-01T09:38:35.555Z</time></trkpt><trkpt lat="42.9037835" lon="11.930883"><ele>350.0</ele><time>2026-04-01T09:38:36.555Z</time></trkpt><trkpt lat="42.9036093" lon="11.930737"><ele>348.0</ele><time>2026-04-01T09:38:37.554Z</time></trkpt><trkpt lat="42.9034592" lon="11.930606"><ele>345.25</ele><time>2026-04-01T09:38:38.555Z</time></trkpt><trkpt lat="42.9033199" lon="11.9304817"><ele>342.5</ele><time>2026-04-01T09:38:39.554Z</time></trkpt><trkpt lat="42.9031983" lon="11.9303943"><ele>339.75</ele><time>2026-04-01T09:38:40.555Z</time></trkpt><trkpt lat="42.9031271" lon="11.930327"><ele>337.0</ele><time>2026-04-01T09:38:41.555Z</time></trkpt><trkpt lat="42.9030335" lon="11.9302296"><ele>337.0</ele><time>2026-04-01T09:38:43.554Z</time></trkpt><trkpt lat="42.9030181" lon="11.9301254"><ele>337.0</ele><time>2026-04-01T09:38:45.555Z</time></trkpt><trkpt lat="42.9030141" lon="11.9300021"><ele>337.0</ele><time>2026-04-01T09:38:47.555Z</time></trkpt><trkpt lat="42.9029967" lon="11.9298726"><ele>337.0</ele><time>2026-04-01T09:38:49.555Z</time></trkpt><trkpt lat="42.9029739" lon="11.9297519"><ele>337.0</ele><time>2026-04-01T09:38:51.555Z</time></trkpt><trkpt lat="42.9029556" lon="11.9296661"><ele>337.0</ele><time>2026-04-01T09:38:53.555Z</time></trkpt><trkpt lat="42.9029439" lon="11.9295434"><ele>339.25</ele><time>2026-04-01T09:38:56.554Z</time></trkpt><trkpt lat="42.9029527" lon="11.9294488"><ele>341.5</ele><time>2026-04-01T09:38:59.555Z</time></trkpt><trkpt lat="42.9029928" lon="11.9292885"><ele>343.75</ele><time>2026-04-01T09:39:01.554Z</time></trkpt><trkpt lat="42.9030693" lon="11.929134"><ele>346.0</ele><time>2026-04-01T09:39:03.554Z</time></trkpt><trkpt lat="42.9031432" lon="11.92899"><ele>347.0</ele><time>2026-04-01T09:39:04.555Z</time></trkpt><trkpt lat="42.9032047" lon="11.9288852"><ele>348.0</ele><time>2026-04-01T09:39:05.556Z</time></trkpt><trkpt lat="42.9032852" lon="11.9286503"><ele>349.0</ele><time>2026-04-01T09:39:06.557Z</time></trkpt><trkpt lat="42.9033623" lon="11.9285017"><ele>350.0</ele><time>2026-04-01T09:39:07.553Z</time></trkpt><trkpt lat="42.9034115" lon="11.9283608"><ele>351.25</ele><time>2026-04-01T09:39:08.555Z</time></trkpt><trkpt lat="42.903456" lon="11.9282217"><ele>352.5</ele><time>2026-04-01T09:39:09.555Z</time></trkpt><trkpt lat="42.9034988" lon="11.9280672"><ele>353.75</ele><time>2026-04-01T09:39:10.555Z</time></trkpt><trkpt lat="42.9035185" lon="11.9278911"><ele>355.0</ele><time>2026-04-01T09:39:11.555Z</time></trkpt><trkpt lat="42.9035707" lon="11.9277078"><ele>354.25</ele><time>2026-04-01T09:39:12.555Z</time></trkpt><trkpt lat="42.9036131" lon="11.9275326"><ele>353.5</ele><time>2026-04-01T09:39:13.554Z</time></trkpt><trkpt lat="42.9036438" lon="11.9273345"><ele>352.75</ele><time>2026-04-01T09:39:14.553Z</time></trkpt><trkpt lat="42.9036805" lon="11.927173"><ele>352.0</ele><time>2026-04-01T09:39:15.554Z</time></trkpt><trkpt lat="42.903718" lon="11.9270469"><ele>352.0</ele><time>2026-04-01T09:39:16.556Z</time></trkpt><trkpt lat="42.9037235" lon="11.926938"><ele>352.0</ele><time>2026-04-01T09:39:17.555Z</time></trkpt><trkpt lat="42.9037364" lon="11.9268379"><ele>352.0</ele><time>2026-04-01T09:39:18.553Z</time></trkpt><trkpt lat="42.9037512" lon="11.926739"><ele>352.0</ele><time>2026-04-01T09:39:19.555Z</time></trkpt><trkpt lat="42.9037314" lon="11.9266381"><ele>352.0</ele><time>2026-04-01T09:39:21.553Z</time></trkpt><trkpt lat="42.9037282" lon="11.9265178"><ele>352.0</ele><time>2026-04-01T09:39:23.555Z</time></trkpt><trkpt lat="42.9037579" lon="11.9263728"><ele>351.20000000000005</ele><time>2026-04-01T09:39:25.555Z</time></trkpt><trkpt lat="42.9038049" lon="11.9262245"><ele>350.4</ele><time>2026-04-01T09:39:27.555Z</time></trkpt><trkpt lat="42.9038606" lon="11.9261771"><ele>349.6</ele><time>2026-04-01T09:39:28.555Z</time></trkpt><trkpt lat="42.9039042" lon="11.9260778"><ele>348.79999999999995</ele><time>2026-04-01T09:39:29.554Z</time></trkpt><trkpt lat="42.9039515" lon="11.9259675"><ele>348.0</ele><time>2026-04-01T09:39:30.555Z</time></trkpt><trkpt lat="42.9039934" lon="11.9258465"><ele>347.75</ele><time>2026-04-01T09:39:31.554Z</time></trkpt><trkpt lat="42.9040402" lon="11.9256886"><ele>347.5</ele><time>2026-04-01T09:39:32.556Z</time></trkpt><trkpt lat="42.904084" lon="11.9255131"><ele>347.25</ele><time>2026-04-01T09:39:33.554Z</time></trkpt><trkpt lat="42.9041193" lon="11.9253707"><ele>347.0</ele><time>2026-04-01T09:39:34.555Z</time></trkpt><trkpt lat="42.9041449" lon="11.9252119"><ele>346.40000000000003</ele><time>2026-04-01T09:39:35.556Z</time></trkpt><trkpt lat="42.9041539" lon="11.925052"><ele>345.8</ele><time>2026-04-01T09:39:36.555Z</time></trkpt><trkpt lat="42.9041604" lon="11.9249116"><ele>345.2</ele><time>2026-04-01T09:39:37.556Z</time></trkpt><trkpt lat="42.9041613" lon="11.9247591"><ele>344.6</ele><time>2026-04-01T09:39:38.556Z</time></trkpt><trkpt lat="42.9041688" lon="11.9246208"><ele>344.0</ele><time>2026-04-01T09:39:39.554Z</time></trkpt><trkpt lat="42.9041866" lon="11.9244871"><ele>345.83333333333337</ele><time>2026-04-01T09:39:40.556Z</time></trkpt><trkpt lat="42.9042585" lon="11.9244047"><ele>347.6666666666667</ele><time>2026-04-01T09:39:41.555Z</time></trkpt><trkpt lat="42.9043197" lon="11.9242983"><ele>349.5</ele><time>2026-04-01T09:39:42.554Z</time></trkpt><trkpt lat="42.9044162" lon="11.9242256"><ele>351.3333333333333</ele><time>2026-04-01T09:39:43.555Z</time></trkpt><trkpt lat="42.9044512" lon="11.9241453"><ele>353.16666666666663</ele><time>2026-04-01T09:39:44.555Z</time></trkpt><trkpt lat="42.9044714" lon="11.9240447"><ele>355.0</ele><time>2026-04-01T09:39:45.555Z</time></trkpt><trkpt lat="42.9044923" lon="11.9239273"><ele>354.8</ele><time>2026-04-01T09:39:46.554Z</time></trkpt><trkpt lat="42.9045306" lon="11.9238272"><ele>354.6</ele><time>2026-04-01T09:39:47.555Z</time></trkpt><trkpt lat="42.9045652" lon="11.9237228"><ele>354.4</ele><time>2026-04-01T09:39:48.555Z</time></trkpt><trkpt lat="42.9045931" lon="11.923615"><ele>354.2</ele><time>2026-04-01T09:39:49.555Z</time></trkpt><trkpt lat="42.9046358" lon="11.9234851"><ele>354.0</ele><time>2026-04-01T09:39:50.555Z</time></trkpt><trkpt lat="42.9046762" lon="11.9233444"><ele>354.0</ele><time>2026-04-01T09:39:51.555Z</time></trkpt><trkpt lat="42.904711" lon="11.9232073"><ele>354.0</ele><time>2026-04-01T09:39:52.554Z</time></trkpt><trkpt lat="42.9047121" lon="11.9230545"><ele>354.0</ele><time>2026-04-01T09:39:53.554Z</time></trkpt><trkpt lat="42.904705" lon="11.9229344"><ele>354.0</ele><time>2026-04-01T09:39:54.554Z</time></trkpt><trkpt lat="42.9047121" lon="11.9227847"><ele>354.0</ele><time>2026-04-01T09:39:55.555Z</time></trkpt><trkpt lat="42.9047217" lon="11.9226373"><ele>353.2</ele><time>2026-04-01T09:39:56.555Z</time></trkpt><trkpt lat="42.9047291" lon="11.9224924"><ele>352.4</ele><time>2026-04-01T09:39:57.555Z</time></trkpt><trkpt lat="42.9047284" lon="11.9223654"><ele>351.6</ele><time>2026-04-01T09:39:58.555Z</time></trkpt><trkpt lat="42.9047333" lon="11.9222297"><ele>350.8</ele><time>2026-04-01T09:39:59.556Z</time></trkpt><trkpt lat="42.9047312" lon="11.9221026"><ele>350.0</ele><time>2026-04-01T09:40:00.555Z</time></trkpt><trkpt lat="42.9047119" lon="11.9219837"><ele>350.0</ele><time>2026-04-01T09:40:01.556Z</time></trkpt><trkpt lat="42.9046751" lon="11.9218655"><ele>350.0</ele><time>2026-04-01T09:40:02.554Z</time></trkpt><trkpt lat="42.9046315" lon="11.921752"><ele>350.0</ele><time>2026-04-01T09:40:03.556Z</time></trkpt><trkpt lat="42.9045976" lon="11.9216458"><ele>350.0</ele><time>2026-04-01T09:40:04.555Z</time></trkpt><trkpt lat="42.904563" lon="11.9215203"><ele>350.0</ele><time>2026-04-01T09:40:05.554Z</time></trkpt><trkpt lat="42.9045401" lon="11.921385"><ele>349.8</ele><time>2026-04-01T09:40:06.555Z</time></trkpt><trkpt lat="42.904514" lon="11.9212643"><ele>349.6</ele><time>2026-04-01T09:40:07.555Z</time></trkpt><trkpt lat="42.9044753" lon="11.9211506"><ele>349.4</ele><time>2026-04-01T09:40:08.555Z</time></trkpt><trkpt lat="42.9044644" lon="11.9210376"><ele>349.2</ele><time>2026-04-01T09:40:09.555Z</time></trkpt><trkpt lat="42.9044521" lon="11.9209181"><ele>349.0</ele><time>2026-04-01T09:40:10.555Z</time></trkpt><trkpt lat="42.9044407" lon="11.9207753"><ele>349.6</ele><time>2026-04-01T09:40:11.554Z</time></trkpt><trkpt lat="42.9044554" lon="11.9206384"><ele>350.2</ele><time>2026-04-01T09:40:12.556Z</time></trkpt><trkpt lat="42.9044615" lon="11.9204938"><ele>350.8</ele><time>2026-04-01T09:40:13.555Z</time></trkpt><trkpt lat="42.9044648" lon="11.9203476"><ele>351.40000000000003</ele><time>2026-04-01T09:40:14.555Z</time></trkpt><trkpt lat="42.9044701" lon="11.9202224"><ele>352.0</ele><time>2026-04-01T09:40:15.555Z</time></trkpt><trkpt lat="42.9045036" lon="11.9200965"><ele>352.5</ele><time>2026-04-01T09:40:16.556Z</time></trkpt><trkpt lat="42.9045226" lon="11.9199663"><ele>353.0</ele><time>2026-04-01T09:40:17.556Z</time></trkpt><trkpt lat="42.9045788" lon="11.9198212"><ele>353.5</ele><time>2026-04-01T09:40:18.553Z</time></trkpt><trkpt lat="42.9046421" lon="11.9196681"><ele>354.0</ele><time>2026-04-01T09:40:19.556Z</time></trkpt><trkpt lat="42.904689" lon="11.9194987"><ele>354.0</ele><time>2026-04-01T09:40:20.555Z</time></trkpt><trkpt lat="42.9047329" lon="11.919335"><ele>354.0</ele><time>2026-04-01T09:40:21.555Z</time></trkpt><trkpt lat="42.9047884" lon="11.9191993"><ele>354.0</ele><time>2026-04-01T09:40:22.555Z</time></trkpt><trkpt lat="42.9048701" lon="11.9190864"><ele>354.0</ele><time>2026-04-01T09:40:23.554Z</time></trkpt><trkpt lat="42.9049508" lon="11.9189744"><ele>354.0</ele><time>2026-04-01T09:40:24.555Z</time></trkpt><trkpt lat="42.9050269" lon="11.9188432"><ele>354.0</ele><time>2026-04-01T09:40:25.554Z</time></trkpt><trkpt lat="42.9050984" lon="11.9186979"><ele>354.0</ele><time>2026-04-01T09:40:26.554Z</time></trkpt><trkpt lat="42.9051628" lon="11.9185255"><ele>354.0</ele><time>2026-04-01T09:40:27.554Z</time></trkpt><trkpt lat="42.9052022" lon="11.9183568"><ele>357.0</ele><time>2026-04-01T09:40:28.555Z</time></trkpt><trkpt lat="42.9052004" lon="11.9181797"><ele>360.0</ele><time>2026-04-01T09:40:29.554Z</time></trkpt><trkpt lat="42.9051995" lon="11.9180286"><ele>363.0</ele><time>2026-04-01T09:40:30.555Z</time></trkpt><trkpt lat="42.9052056" lon="11.9178479"><ele>366.0</ele><time>2026-04-01T09:40:31.555Z</time></trkpt><trkpt lat="42.9052022" lon="11.9176747"><ele>366.0</ele><time>2026-04-01T09:40:32.555Z</time></trkpt><trkpt lat="42.9051909" lon="11.9175177"><ele>366.0</ele><time>2026-04-01T09:40:33.555Z</time></trkpt><trkpt lat="42.9051908" lon="11.9174093"><ele>366.0</ele><time>2026-04-01T09:40:34.555Z</time></trkpt><trkpt lat="42.9051994" lon="11.9172658"><ele>366.0</ele><time>2026-04-01T09:40:36.555Z</time></trkpt><trkpt lat="42.9052671" lon="11.9171861"><ele>366.0</ele><time>2026-04-01T09:40:38.556Z</time></trkpt><trkpt lat="42.9053649" lon="11.9172204"><ele>366.0</ele><time>2026-04-01T09:40:40.555Z</time></trkpt><trkpt lat="42.9054216" lon="11.9172602"><ele>366.0</ele><time>2026-04-01T09:40:41.555Z</time></trkpt><trkpt lat="42.9055252" lon="11.9173504"><ele>366.0</ele><time>2026-04-01T09:40:42.557Z</time></trkpt><trkpt lat="42.9056068" lon="11.9174282"><ele>366.0</ele><time>2026-04-01T09:40:43.555Z</time></trkpt><trkpt lat="42.9056897" lon="11.9174802"><ele>366.0</ele><time>2026-04-01T09:40:44.556Z</time></trkpt><trkpt lat="42.9057647" lon="11.9175241"><ele>366.0</ele><time>2026-04-01T09:40:45.555Z</time></trkpt><trkpt lat="42.9058222" lon="11.9175751"><ele>366.0</ele><time>2026-04-01T09:40:46.555Z</time></trkpt><trkpt lat="42.9058975" lon="11.9176337"><ele>366.0</ele><time>2026-04-01T09:40:48.555Z</time></trkpt><trkpt lat="42.9058072" lon="11.9175573"><ele>366.0</ele><time>2026-04-01T09:40:57.557Z</time></trkpt><trkpt lat="42.9057342" lon="11.9175389"><ele>366.0</ele><time>2026-04-01T09:40:58.556Z</time></trkpt><trkpt lat="42.9056578" lon="11.9174853"><ele>366.0</ele><time>2026-04-01T09:40:59.555Z</time></trkpt><trkpt lat="42.9055802" lon="11.91743"><ele>366.0</ele><time>2026-04-01T09:41:00.555Z</time></trkpt><trkpt lat="42.9055174" lon="11.9173761"><ele>366.0</ele><time>2026-04-01T09:41:01.557Z</time></trkpt><trkpt lat="42.9054398" lon="11.9172945"><ele>366.0</ele><time>2026-04-01T09:41:03.554Z</time></trkpt><trkpt lat="42.9053952" lon="11.9172074"><ele>366.0</ele><time>2026-04-01T09:41:08.556Z</time></trkpt><trkpt lat="42.9053032" lon="11.9172346"><ele>366.0</ele><time>2026-04-01T09:41:11.556Z</time></trkpt><trkpt lat="42.9052086" lon="11.9171861"><ele>366.0</ele><time>2026-04-01T09:41:13.556Z</time></trkpt><trkpt lat="42.9051291" lon="11.9170722"><ele>365.5</ele><time>2026-04-01T09:41:15.555Z</time></trkpt><trkpt lat="42.9050622" lon="11.9169439"><ele>365.0</ele><time>2026-04-01T09:41:17.556Z</time></trkpt><trkpt lat="42.9050185" lon="11.9167997"><ele>364.5</ele><time>2026-04-01T09:41:19.556Z</time></trkpt><trkpt lat="42.9049759" lon="11.9166447"><ele>364.0</ele><time>2026-04-01T09:41:21.556Z</time></trkpt><trkpt lat="42.9049313" lon="11.9164872"><ele>364.0</ele><time>2026-04-01T09:41:23.554Z</time></trkpt><trkpt lat="42.904894" lon="11.9164085"><ele>364.0</ele><time>2026-04-01T09:41:24.556Z</time></trkpt><trkpt lat="42.9048525" lon="11.9163352"><ele>364.0</ele><time>2026-04-01T09:41:25.555Z</time></trkpt><trkpt lat="42.9048002" lon="11.9162551"><ele>364.0</ele><time>2026-04-01T09:41:26.557Z</time></trkpt><trkpt lat="42.9047497" lon="11.9161599"><ele>364.0</ele><time>2026-04-01T09:41:27.555Z</time></trkpt><trkpt lat="42.9046973" lon="11.9160624"><ele>364.0</ele><time>2026-04-01T09:41:28.556Z</time></trkpt><trkpt lat="42.9046429" lon="11.9159796"><ele>363.8333333333333</ele><time>2026-04-01T09:41:29.555Z</time></trkpt><trkpt lat="42.9045834" lon="11.9158273"><ele>363.66666666666663</ele><time>2026-04-01T09:41:31.555Z</time></trkpt><trkpt lat="42.90455" lon="11.9157472"><ele>363.5</ele><time>2026-04-01T09:41:32.557Z</time></trkpt><trkpt lat="42.9045085" lon="11.9156795"><ele>363.3333333333333</ele><time>2026-04-01T09:41:33.556Z</time></trkpt><trkpt lat="42.9044724" lon="11.9155262"><ele>363.1666666666667</ele><time>2026-04-01T09:41:35.555Z</time></trkpt><trkpt lat="42.9044545" lon="11.9154332"><ele>363.0</ele><time>2026-04-01T09:41:36.558Z</time></trkpt><trkpt lat="42.9044172" lon="11.9153304"><ele>363.0</ele><time>2026-04-01T09:41:37.556Z</time></trkpt><trkpt lat="42.9043972" lon="11.91522"><ele>363.0</ele><time>2026-04-01T09:41:38.556Z</time></trkpt><trkpt lat="42.9043825" lon="11.9151005"><ele>363.0</ele><time>2026-04-01T09:41:39.556Z</time></trkpt><trkpt lat="42.9043607" lon="11.9149384"><ele>363.0</ele><time>2026-04-01T09:41:40.557Z</time></trkpt><trkpt lat="42.9043347" lon="11.9147855"><ele>363.0</ele><time>2026-04-01T09:41:41.556Z</time></trkpt><trkpt lat="42.9043135" lon="11.9146556"><ele>363.79999999999995</ele><time>2026-04-01T09:41:42.555Z</time></trkpt><trkpt lat="42.9043151" lon="11.9145304"><ele>364.6</ele><time>2026-04-01T09:41:43.554Z</time></trkpt><trkpt lat="42.9043198" lon="11.9143995"><ele>365.4</ele><time>2026-04-01T09:41:44.556Z</time></trkpt><trkpt lat="42.9043178" lon="11.914266"><ele>366.20000000000005</ele><time>2026-04-01T09:41:45.555Z</time></trkpt><trkpt lat="42.9043013" lon="11.9141298"><ele>367.0</ele><time>2026-04-01T09:41:46.555Z</time></trkpt><trkpt lat="42.9042944" lon="11.9139922"><ele>367.5</ele><time>2026-04-01T09:41:47.555Z</time></trkpt><trkpt lat="42.9043071" lon="11.9138508"><ele>368.0</ele><time>2026-04-01T09:41:48.554Z</time></trkpt><trkpt lat="42.9043215" lon="11.9137021"><ele>368.5</ele><time>2026-04-01T09:41:49.556Z</time></trkpt><trkpt lat="42.9043258" lon="11.9135901"><ele>369.0</ele><time>2026-04-01T09:41:50.555Z</time></trkpt><trkpt lat="42.904337" lon="11.9134916"><ele>369.5</ele><time>2026-04-01T09:41:51.555Z</time></trkpt><trkpt lat="42.9043462" lon="11.9133938"><ele>370.0</ele><time>2026-04-01T09:41:52.556Z</time></trkpt><trkpt lat="42.9044073" lon="11.9132228"><ele>371.16666666666663</ele><time>2026-04-01T09:41:54.555Z</time></trkpt><trkpt lat="42.9044407" lon="11.9131411"><ele>372.3333333333333</ele><time>2026-04-01T09:41:55.555Z</time></trkpt><trkpt lat="42.9045035" lon="11.9130701"><ele>373.5</ele><time>2026-04-01T09:41:56.557Z</time></trkpt><trkpt lat="42.9045509" lon="11.9129875"><ele>374.6666666666667</ele><time>2026-04-01T09:41:57.555Z</time></trkpt><trkpt lat="42.9045991" lon="11.912903"><ele>375.83333333333337</ele><time>2026-04-01T09:41:58.555Z</time></trkpt><trkpt lat="42.9046467" lon="11.912763"><ele>377.0</ele><time>2026-04-01T09:42:00.555Z</time></trkpt><trkpt lat="42.9046495" lon="11.912597"><ele>378.40000000000003</ele><time>2026-04-01T09:42:02.554Z</time></trkpt><trkpt lat="42.9046711" lon="11.9124885"><ele>379.8</ele><time>2026-04-01T09:42:03.554Z</time></trkpt><trkpt lat="42.9046885" lon="11.9123672"><ele>381.2</ele><time>2026-04-01T09:42:04.555Z</time></trkpt><trkpt lat="42.9047302" lon="11.9122301"><ele>382.6</ele><time>2026-04-01T09:42:05.762Z</time></trkpt><trkpt lat="42.904781" lon="11.9121094"><ele>384.0</ele><time>2026-04-01T09:42:06.863Z</time></trkpt><trkpt lat="42.9048512" lon="11.9119415"><ele>384.0</ele><time>2026-04-01T09:42:08.556Z</time></trkpt><trkpt lat="42.90489" lon="11.9118099"><ele>384.0</ele><time>2026-04-01T09:42:09.556Z</time></trkpt><trkpt lat="42.9049254" lon="11.9117294"><ele>384.0</ele><time>2026-04-01T09:42:10.555Z</time></trkpt><trkpt lat="42.9049621" lon="11.911638"><ele>384.0</ele><time>2026-04-01T09:42:11.556Z</time></trkpt><trkpt lat="42.9050078" lon="11.9114898"><ele>384.0</ele><time>2026-04-01T09:42:13.557Z</time></trkpt><trkpt lat="42.9050503" lon="11.9114125"><ele>384.0</ele><time>2026-04-01T09:42:14.556Z</time></trkpt><trkpt lat="42.9051116" lon="11.9113741"><ele>386.25</ele><time>2026-04-01T09:42:16.556Z</time></trkpt><trkpt lat="42.9051604" lon="11.9114702"><ele>388.5</ele><time>2026-04-01T09:42:18.557Z</time></trkpt><trkpt lat="42.9051733" lon="11.9117211"><ele>390.75</ele><time>2026-04-01T09:42:19.556Z</time></trkpt><trkpt lat="42.9051774" lon="11.9118616"><ele>393.0</ele><time>2026-04-01T09:42:20.557Z</time></trkpt><trkpt lat="42.9051321" lon="11.9120201"><ele>393.0</ele><time>2026-04-01T09:42:21.556Z</time></trkpt><trkpt lat="42.9051105" lon="11.9121573"><ele>393.0</ele><time>2026-04-01T09:42:22.555Z</time></trkpt><trkpt lat="42.9050771" lon="11.9122601"><ele>393.0</ele><time>2026-04-01T09:42:23.556Z</time></trkpt><trkpt lat="42.9050766" lon="11.9123582"><ele>393.0</ele><time>2026-04-01T09:42:24.557Z</time></trkpt><trkpt lat="42.9051228" lon="11.9124629"><ele>393.0</ele><time>2026-04-01T09:42:26.556Z</time></trkpt><trkpt lat="42.9052095" lon="11.9124385"><ele>393.0</ele><time>2026-04-01T09:42:28.556Z</time></trkpt><trkpt lat="42.9052354" lon="11.9123566"><ele>393.0</ele><time>2026-04-01T09:42:29.556Z</time></trkpt><trkpt lat="42.9052808" lon="11.9122116"><ele>393.0</ele><time>2026-04-01T09:42:31.557Z</time></trkpt><trkpt lat="42.9053083" lon="11.9120959"><ele>393.0</ele><time>2026-04-01T09:42:32.556Z</time></trkpt><trkpt lat="42.9053493" lon="11.9119533"><ele>393.0</ele><time>2026-04-01T09:42:34.555Z</time></trkpt><trkpt lat="42.9053969" lon="11.9118956"><ele>393.0</ele><time>2026-04-01T09:42:35.557Z</time></trkpt><trkpt lat="42.9054867" lon="11.9118566"><ele>393.0</ele><time>2026-04-01T09:42:37.558Z</time></trkpt><trkpt lat="42.9055538" lon="11.9118637"><ele>393.0</ele><time>2026-04-01T09:42:38.554Z</time></trkpt><trkpt lat="42.9056404" lon="11.911905"><ele>393.0</ele><time>2026-04-01T09:42:39.556Z</time></trkpt><trkpt lat="42.9057347" lon="11.9119271"><ele>393.0</ele><time>2026-04-01T09:42:40.557Z</time></trkpt><trkpt lat="42.9058448" lon="11.9119665"><ele>393.0</ele><time>2026-04-01T09:42:41.555Z</time></trkpt><trkpt lat="42.9059736" lon="11.9120107"><ele>397.0</ele><time>2026-04-01T09:42:42.555Z</time></trkpt><trkpt lat="42.9061128" lon="11.9120617"><ele>401.0</ele><time>2026-04-01T09:42:43.555Z</time></trkpt><trkpt lat="42.9062377" lon="11.912105"><ele>405.0</ele><time>2026-04-01T09:42:44.556Z</time></trkpt><trkpt lat="42.9063381" lon="11.9121422"><ele>409.0</ele><time>2026-04-01T09:42:45.556Z</time></trkpt><trkpt lat="42.9064167" lon="11.912171"><ele>409.00000000000006</ele><time>2026-04-01T09:42:46.555Z</time></trkpt><trkpt lat="42.9064849" lon="11.9122049"><ele>409.0</ele><time>2026-04-01T09:42:47.557Z</time></trkpt><trkpt lat="42.9065685" lon="11.9121642"><ele>409.0</ele><time>2026-04-01T09:42:50.556Z</time></trkpt><trkpt lat="42.90658" lon="11.912028"><ele>409.0</ele><time>2026-04-01T09:42:52.557Z</time></trkpt><trkpt lat="42.9065558" lon="11.9119242"><ele>409.00000000000006</ele><time>2026-04-01T09:42:53.556Z</time></trkpt><trkpt lat="42.9065412" lon="11.911796"><ele>409.0</ele><time>2026-04-01T09:42:54.555Z</time></trkpt><trkpt lat="42.9065095" lon="11.9116366"><ele>410.0</ele><time>2026-04-01T09:42:55.555Z</time></trkpt><trkpt lat="42.9064729" lon="11.9114772"><ele>411.0</ele><time>2026-04-01T09:42:56.555Z</time></trkpt><trkpt lat="42.9064334" lon="11.9113325"><ele>412.0</ele><time>2026-04-01T09:42:57.557Z</time></trkpt><trkpt lat="42.9063525" lon="11.9112009"><ele>413.0</ele><time>2026-04-01T09:42:58.556Z</time></trkpt><trkpt lat="42.9062382" lon="11.9111084"><ele>413.0</ele><time>2026-04-01T09:42:59.555Z</time></trkpt><trkpt lat="42.9061019" lon="11.9110392"><ele>413.0</ele><time>2026-04-01T09:43:00.555Z</time></trkpt><trkpt lat="42.9059599" lon="11.9109892"><ele>413.0</ele><time>2026-04-01T09:43:01.556Z</time></trkpt><trkpt lat="42.9058198" lon="11.9109319"><ele>413.0</ele><time>2026-04-01T09:43:02.555Z</time></trkpt><trkpt lat="42.9057102" lon="11.9108622"><ele>413.0</ele><time>2026-04-01T09:43:03.556Z</time></trkpt><trkpt lat="42.9055964" lon="11.9107925"><ele>413.0</ele><time>2026-04-01T09:43:04.555Z</time></trkpt><trkpt lat="42.9055297" lon="11.9106543"><ele>413.0</ele><time>2026-04-01T09:43:05.557Z</time></trkpt><trkpt lat="42.9054435" lon="11.9105431"><ele>413.0</ele><time>2026-04-01T09:43:06.556Z</time></trkpt><trkpt lat="42.9054138" lon="11.9103916"><ele>413.0</ele><time>2026-04-01T09:43:07.558Z</time></trkpt><trkpt lat="42.905371" lon="11.9102396"><ele>413.0</ele><time>2026-04-01T09:43:08.556Z</time></trkpt><trkpt lat="42.9053235" lon="11.9100412"><ele>413.0</ele><time>2026-04-01T09:43:09.554Z</time></trkpt><trkpt lat="42.9052733" lon="11.9098378"><ele>413.0</ele><time>2026-04-01T09:43:10.554Z</time></trkpt><trkpt lat="42.9052161" lon="11.9096118"><ele>417.3333333333333</ele><time>2026-04-01T09:43:11.556Z</time></trkpt><trkpt lat="42.9051495" lon="11.9093915"><ele>421.66666666666663</ele><time>2026-04-01T09:43:12.556Z</time></trkpt><trkpt lat="42.9051216" lon="11.9091638"><ele>426.0</ele><time>2026-04-01T09:43:13.555Z</time></trkpt><trkpt lat="42.9050901" lon="11.9089361"><ele>421.33333333333337</ele><time>2026-04-01T09:43:14.554Z</time></trkpt><trkpt lat="42.9050714" lon="11.9086983"><ele>416.6666666666667</ele><time>2026-04-01T09:43:15.557Z</time></trkpt><trkpt lat="42.9050481" lon="11.908464"><ele>412.0</ele><time>2026-04-01T09:43:16.556Z</time></trkpt><trkpt lat="42.9051848" lon="11.9083125"><ele>421.33333333333337</ele><time>2026-04-01T09:43:17.557Z</time></trkpt><trkpt lat="42.9052258" lon="11.9080813"><ele>430.66666666666663</ele><time>2026-04-01T09:43:18.555Z</time></trkpt><trkpt lat="42.9052316" lon="11.907863"><ele>440.0</ele><time>2026-04-01T09:43:19.555Z</time></trkpt><trkpt lat="42.9052179" lon="11.9076754"><ele>441.3333333333333</ele><time>2026-04-01T09:43:20.557Z</time></trkpt><trkpt lat="42.9051265" lon="11.9074689"><ele>442.66666666666663</ele><time>2026-04-01T09:43:21.555Z</time></trkpt><trkpt lat="42.9050024" lon="11.9072505"><ele>444.0</ele><time>2026-04-01T09:43:22.557Z</time></trkpt><trkpt lat="42.9048836" lon="11.9070019"><ele>440.66666666666663</ele><time>2026-04-01T09:43:23.557Z</time></trkpt><trkpt lat="42.9047954" lon="11.9067395"><ele>437.3333333333333</ele><time>2026-04-01T09:43:24.555Z</time></trkpt><trkpt lat="42.9047293" lon="11.90643"><ele>434.0</ele><time>2026-04-01T09:43:25.556Z</time></trkpt><trkpt lat="42.9046348" lon="11.9061265"><ele>441.5</ele><time>2026-04-01T09:43:26.556Z</time></trkpt><trkpt lat="42.90451" lon="11.9058675"><ele>449.0</ele><time>2026-04-01T09:43:27.555Z</time></trkpt><trkpt lat="42.9043878" lon="11.9056117"><ele>449.0</ele><time>2026-04-01T09:43:28.556Z</time></trkpt><trkpt lat="42.9042707" lon="11.905403"><ele>449.0</ele><time>2026-04-01T09:43:29.557Z</time></trkpt><trkpt lat="42.9041514" lon="11.9051813"><ele>449.0</ele><time>2026-04-01T09:43:30.555Z</time></trkpt><trkpt lat="42.9041669" lon="11.9048696"><ele>443.66666666666663</ele><time>2026-04-01T09:43:31.556Z</time></trkpt><trkpt lat="42.9041202" lon="11.9045866"><ele>438.33333333333337</ele><time>2026-04-01T09:43:32.555Z</time></trkpt><trkpt lat="42.9040823" lon="11.9043395"><ele>433.0</ele><time>2026-04-01T09:43:33.555Z</time></trkpt><trkpt lat="42.9040562" lon="11.90409"><ele>433.0</ele><time>2026-04-01T09:43:34.556Z</time></trkpt><trkpt lat="42.9040631" lon="11.9038747"><ele>433.0</ele><time>2026-04-01T09:43:35.556Z</time></trkpt><trkpt lat="42.9041169" lon="11.9037011"><ele>433.0</ele><time>2026-04-01T09:43:36.556Z</time></trkpt><trkpt lat="42.9042438" lon="11.903529"><ele>439.6666666666667</ele><time>2026-04-01T09:43:37.557Z</time></trkpt><trkpt lat="42.904387" lon="11.903324"><ele>446.33333333333337</ele><time>2026-04-01T09:43:38.554Z</time></trkpt><trkpt lat="42.9045516" lon="11.9030906"><ele>453.0</ele><time>2026-04-01T09:43:39.556Z</time></trkpt><trkpt lat="42.9047287" lon="11.9028427"><ele>453.0</ele><time>2026-04-01T09:43:40.556Z</time></trkpt><trkpt lat="42.9049069" lon="11.9025872"><ele>453.0</ele><time>2026-04-01T09:43:41.555Z</time></trkpt><trkpt lat="42.9050678" lon="11.9023916"><ele>453.0</ele><time>2026-04-01T09:43:42.557Z</time></trkpt><trkpt lat="42.9051878" lon="11.9022201"><ele>453.0</ele><time>2026-04-01T09:43:43.556Z</time></trkpt><trkpt lat="42.9052746" lon="11.9020607"><ele>453.0</ele><time>2026-04-01T09:43:44.557Z</time></trkpt><trkpt lat="42.9053072" lon="11.9018949"><ele>453.0</ele><time>2026-04-01T09:43:45.556Z</time></trkpt><trkpt lat="42.9052848" lon="11.9017322"><ele>453.0</ele><time>2026-04-01T09:43:46.557Z</time></trkpt><trkpt lat="42.9052007" lon="11.9015908"><ele>453.0</ele><time>2026-04-01T09:43:47.556Z</time></trkpt><trkpt lat="42.9050507" lon="11.9015176"><ele>453.0</ele><time>2026-04-01T09:43:48.556Z</time></trkpt><trkpt lat="42.9048689" lon="11.9014778"><ele>449.0</ele><time>2026-04-01T09:43:49.555Z</time></trkpt><trkpt lat="42.9046697" lon="11.9014581"><ele>445.0</ele><time>2026-04-01T09:43:50.556Z</time></trkpt><trkpt lat="42.9044759" lon="11.9015205"><ele>441.0</ele><time>2026-04-01T09:43:51.557Z</time></trkpt><trkpt lat="42.9042829" lon="11.9015529"><ele>439.0</ele><time>2026-04-01T09:43:52.555Z</time></trkpt><trkpt lat="42.9041221" lon="11.9015104"><ele>437.0</ele><time>2026-04-01T09:43:53.556Z</time></trkpt><trkpt lat="42.9039605" lon="11.901454"><ele>435.0</ele><time>2026-04-01T09:43:54.555Z</time></trkpt><trkpt lat="42.9038339" lon="11.9012985"><ele>435.0</ele><time>2026-04-01T09:43:55.555Z</time></trkpt><trkpt lat="42.9038026" lon="11.9009916"><ele>435.0</ele><time>2026-04-01T09:43:56.556Z</time></trkpt><trkpt lat="42.9037554" lon="11.9007398"><ele>435.0</ele><time>2026-04-01T09:43:57.556Z</time></trkpt><trkpt lat="42.90371" lon="11.9004821"><ele>440.33333333333337</ele><time>2026-04-01T09:43:58.555Z</time></trkpt><trkpt lat="42.9036363" lon="11.9002808"><ele>445.6666666666667</ele><time>2026-04-01T09:43:59.556Z</time></trkpt><trkpt lat="42.9035507" lon="11.9001257"><ele>451.0</ele><time>2026-04-01T09:44:00.556Z</time></trkpt><trkpt lat="42.9034284" lon="11.9000235"><ele>449.0</ele><time>2026-04-01T09:44:01.556Z</time></trkpt><trkpt lat="42.903296" lon="11.8999149"><ele>447.0</ele><time>2026-04-01T09:44:02.556Z</time></trkpt><trkpt lat="42.9031261" lon="11.8998044"><ele>445.0</ele><time>2026-04-01T09:44:03.556Z</time></trkpt><trkpt lat="42.9029668" lon="11.899694"><ele>445.0</ele><time>2026-04-01T09:44:04.556Z</time></trkpt><trkpt lat="42.9028034" lon="11.899588"><ele>445.0</ele><time>2026-04-01T09:44:05.555Z</time></trkpt><trkpt lat="42.9027063" lon="11.89938"><ele>445.0</ele><time>2026-04-01T09:44:06.556Z</time></trkpt><trkpt lat="42.9026065" lon="11.8991436"><ele>445.0</ele><time>2026-04-01T09:44:07.557Z</time></trkpt><trkpt lat="42.9025139" lon="11.8988912"><ele>445.0</ele><time>2026-04-01T09:44:08.557Z</time></trkpt><trkpt lat="42.902368" lon="11.8986182"><ele>449.0</ele><time>2026-04-01T09:44:09.556Z</time></trkpt><trkpt lat="42.9022076" lon="11.8983582"><ele>453.0</ele><time>2026-04-01T09:44:10.557Z</time></trkpt><trkpt lat="42.9020503" lon="11.8981432"><ele>453.0</ele><time>2026-04-01T09:44:11.555Z</time></trkpt><trkpt lat="42.9018434" lon="11.8979569"><ele>453.0</ele><time>2026-04-01T09:44:12.556Z</time></trkpt><trkpt lat="42.9016397" lon="11.8978256"><ele>453.33333333333337</ele><time>2026-04-01T09:44:13.557Z</time></trkpt><trkpt lat="42.9014348" lon="11.8977088"><ele>453.6666666666667</ele><time>2026-04-01T09:44:14.556Z</time></trkpt><trkpt lat="42.9012585" lon="11.8976124"><ele>454.0</ele><time>2026-04-01T09:44:15.556Z</time></trkpt><trkpt lat="42.901113" lon="11.8974738"><ele>454.0</ele><time>2026-04-01T09:44:16.555Z</time></trkpt><trkpt lat="42.9010058" lon="11.8973106"><ele>454.0</ele><time>2026-04-01T09:44:17.555Z</time></trkpt><trkpt lat="42.9008926" lon="11.8971383"><ele>454.0</ele><time>2026-04-01T09:44:18.556Z</time></trkpt><trkpt lat="42.901015" lon="11.8968035"><ele>457.5</ele><time>2026-04-01T09:44:19.556Z</time></trkpt><trkpt lat="42.9010342" lon="11.896472"><ele>461.0</ele><time>2026-04-01T09:44:20.556Z</time></trkpt><trkpt lat="42.9010664" lon="11.8961508"><ele>461.0</ele><time>2026-04-01T09:44:21.557Z</time></trkpt><trkpt lat="42.9010975" lon="11.895894"><ele>461.0</ele><time>2026-04-01T09:44:22.555Z</time></trkpt><trkpt lat="42.901109" lon="11.8956792"><ele>461.0</ele><time>2026-04-01T09:44:23.556Z</time></trkpt><trkpt lat="42.9010501" lon="11.895493"><ele>461.0</ele><time>2026-04-01T09:44:24.556Z</time></trkpt><trkpt lat="42.9009422" lon="11.89536"><ele>461.0</ele><time>2026-04-01T09:44:25.557Z</time></trkpt><trkpt lat="42.9007967" lon="11.8952749"><ele>461.0</ele><time>2026-04-01T09:44:26.556Z</time></trkpt><trkpt lat="42.9006466" lon="11.8951989"><ele>459.66666666666663</ele><time>2026-04-01T09:44:27.555Z</time></trkpt><trkpt lat="42.9004273" lon="11.8950847"><ele>458.33333333333337</ele><time>2026-04-01T09:44:28.557Z</time></trkpt><trkpt lat="42.9002607" lon="11.8949609"><ele>457.0</ele><time>2026-04-01T09:44:29.556Z</time></trkpt><trkpt lat="42.9000766" lon="11.8948868"><ele>457.0</ele><time>2026-04-01T09:44:30.556Z</time></trkpt><trkpt lat="42.8998784" lon="11.894846"><ele>457.0</ele><time>2026-04-01T09:44:31.557Z</time></trkpt><trkpt lat="42.8996876" lon="11.8947291"><ele>457.0</ele><time>2026-04-01T09:44:32.556Z</time></trkpt><trkpt lat="42.8994708" lon="11.8946225"><ele>457.0</ele><time>2026-04-01T09:44:33.556Z</time></trkpt><trkpt lat="42.8992608" lon="11.89451"><ele>457.0</ele><time>2026-04-01T09:44:34.557Z</time></trkpt><trkpt lat="42.8990783" lon="11.8943756"><ele>457.0</ele><time>2026-04-01T09:44:35.556Z</time></trkpt><trkpt lat="42.8989111" lon="11.8942338"><ele>460.0</ele><time>2026-04-01T09:44:36.556Z</time></trkpt><trkpt lat="42.8987652" lon="11.894116"><ele>463.0</ele><time>2026-04-01T09:44:37.557Z</time></trkpt><trkpt lat="42.8986441" lon="11.8940101"><ele>466.0</ele><time>2026-04-01T09:44:38.557Z</time></trkpt><trkpt lat="42.898531" lon="11.8939281"><ele>469.0</ele><time>2026-04-01T09:44:39.557Z</time></trkpt><trkpt lat="42.8984166" lon="11.8938373"><ele>469.00000000000006</ele><time>2026-04-01T09:44:40.556Z</time></trkpt><trkpt lat="42.8983821" lon="11.8937543"><ele>469.0</ele><time>2026-04-01T09:44:41.557Z</time></trkpt><trkpt lat="42.8982756" lon="11.8936597"><ele>469.0</ele><time>2026-04-01T09:44:43.556Z</time></trkpt><trkpt lat="42.8982153" lon="11.8936068"><ele>469.0</ele><time>2026-04-01T09:44:44.557Z</time></trkpt><trkpt lat="42.8981502" lon="11.8934964"><ele>469.00000000000006</ele><time>2026-04-01T09:44:46.555Z</time></trkpt><trkpt lat="42.8981019" lon="11.8934398"><ele>469.0</ele><time>2026-04-01T09:44:47.556Z</time></trkpt><trkpt lat="42.8980458" lon="11.8933549"><ele>473.75</ele><time>2026-04-01T09:44:48.558Z</time></trkpt><trkpt lat="42.8979962" lon="11.8932627"><ele>478.5</ele><time>2026-04-01T09:44:49.556Z</time></trkpt><trkpt lat="42.8979096" lon="11.8930511"><ele>483.25</ele><time>2026-04-01T09:44:50.557Z</time></trkpt><trkpt lat="42.8978338" lon="11.8928386"><ele>488.0</ele><time>2026-04-01T09:44:51.557Z</time></trkpt><trkpt lat="42.8977417" lon="11.8926265"><ele>485.3333333333333</ele><time>2026-04-01T09:44:52.556Z</time></trkpt><trkpt lat="42.8976712" lon="11.8923885"><ele>482.66666666666663</ele><time>2026-04-01T09:44:53.556Z</time></trkpt><trkpt lat="42.8976156" lon="11.8921121"><ele>480.0</ele><time>2026-04-01T09:44:54.555Z</time></trkpt><trkpt lat="42.8975619" lon="11.8918449"><ele>483.66666666666663</ele><time>2026-04-01T09:44:55.555Z</time></trkpt><trkpt lat="42.8974872" lon="11.8916043"><ele>487.3333333333333</ele><time>2026-04-01T09:44:56.556Z</time></trkpt><trkpt lat="42.8974091" lon="11.8913808"><ele>491.0</ele><time>2026-04-01T09:44:57.556Z</time></trkpt><trkpt lat="42.8973378" lon="11.8911523"><ele>493.0</ele><time>2026-04-01T09:44:58.556Z</time></trkpt><trkpt lat="42.8972718" lon="11.8909016"><ele>495.0</ele><time>2026-04-01T09:44:59.557Z</time></trkpt><trkpt lat="42.897326" lon="11.8906637"><ele>497.0</ele><time>2026-04-01T09:45:00.555Z</time></trkpt><trkpt lat="42.8974179" lon="11.8904658"><ele>497.0</ele><time>2026-04-01T09:45:01.556Z</time></trkpt><trkpt lat="42.8974606" lon="11.8903166"><ele>497.0</ele><time>2026-04-01T09:45:02.555Z</time></trkpt><trkpt lat="42.8974799" lon="11.8901391"><ele>497.0</ele><time>2026-04-01T09:45:03.556Z</time></trkpt><trkpt lat="42.8974648" lon="11.8899564"><ele>497.0</ele><time>2026-04-01T09:45:04.557Z</time></trkpt><trkpt lat="42.8972857" lon="11.8897803"><ele>499.0</ele><time>2026-04-01T09:45:05.557Z</time></trkpt><trkpt lat="42.8971546" lon="11.889623"><ele>501.0</ele><time>2026-04-01T09:45:06.556Z</time></trkpt><trkpt lat="42.89701" lon="11.8895369"><ele>503.0</ele><time>2026-04-01T09:45:07.556Z</time></trkpt><trkpt lat="42.8968585" lon="11.8894515"><ele>502.5</ele><time>2026-04-01T09:45:08.556Z</time></trkpt><trkpt lat="42.8967509" lon="11.8893586"><ele>502.0</ele><time>2026-04-01T09:45:09.556Z</time></trkpt><trkpt lat="42.8966699" lon="11.8892373"><ele>501.5</ele><time>2026-04-01T09:45:10.557Z</time></trkpt><trkpt lat="42.8965922" lon="11.8890978"><ele>501.0</ele><time>2026-04-01T09:45:11.556Z</time></trkpt><trkpt lat="42.8966962" lon="11.8888719"><ele>501.0</ele><time>2026-04-01T09:45:12.558Z</time></trkpt><trkpt lat="42.8967257" lon="11.8886747"><ele>501.0</ele><time>2026-04-01T09:45:13.556Z</time></trkpt><trkpt lat="42.8967872" lon="11.8884633"><ele>501.0</ele><time>2026-04-01T09:45:14.556Z</time></trkpt><trkpt lat="42.8970285" lon="11.8883299"><ele>505.25</ele><time>2026-04-01T09:45:15.556Z</time></trkpt><trkpt lat="42.8971024" lon="11.8881466"><ele>509.5</ele><time>2026-04-01T09:45:16.556Z</time></trkpt><trkpt lat="42.8971302" lon="11.8879811"><ele>513.75</ele><time>2026-04-01T09:45:17.556Z</time></trkpt><trkpt lat="42.8971019" lon="11.8878301"><ele>518.0</ele><time>2026-04-01T09:45:18.557Z</time></trkpt><trkpt lat="42.897031" lon="11.8876748"><ele>518.0</ele><time>2026-04-01T09:45:19.555Z</time></trkpt><trkpt lat="42.8968829" lon="11.8876784"><ele>518.0</ele><time>2026-04-01T09:45:20.556Z</time></trkpt><trkpt lat="42.896737" lon="11.8876948"><ele>518.0</ele><time>2026-04-01T09:45:21.556Z</time></trkpt><trkpt lat="42.8965878" lon="11.8876915"><ele>518.0</ele><time>2026-04-01T09:45:22.556Z</time></trkpt><trkpt lat="42.8964493" lon="11.8876176"><ele>517.6666666666666</ele><time>2026-04-01T09:45:23.556Z</time></trkpt><trkpt lat="42.8963284" lon="11.8874553"><ele>517.3333333333334</ele><time>2026-04-01T09:45:24.556Z</time></trkpt><trkpt lat="42.8962168" lon="11.8872833"><ele>517.0</ele><time>2026-04-01T09:45:25.555Z</time></trkpt><trkpt lat="42.8961292" lon="11.8869541"><ele>517.0</ele><time>2026-04-01T09:45:26.558Z</time></trkpt><trkpt lat="42.8960407" lon="11.8867373"><ele>517.0</ele><time>2026-04-01T09:45:27.555Z</time></trkpt><trkpt lat="42.895937" lon="11.8865298"><ele>517.0</ele><time>2026-04-01T09:45:28.556Z</time></trkpt><trkpt lat="42.8958304" lon="11.886328"><ele>517.0</ele><time>2026-04-01T09:45:29.556Z</time></trkpt><trkpt lat="42.8956623" lon="11.8862378"><ele>517.0</ele><time>2026-04-01T09:45:31.556Z</time></trkpt><trkpt lat="42.8955886" lon="11.8861312"><ele>517.0</ele><time>2026-04-01T09:45:32.556Z</time></trkpt><trkpt lat="42.8956337" lon="11.8860442"><ele>517.0</ele><time>2026-04-01T09:45:41.556Z</time></trkpt><trkpt lat="42.8956935" lon="11.8860154"><ele>517.0</ele><time>2026-04-01T09:45:43.557Z</time></trkpt><trkpt lat="42.8958298" lon="11.8860612"><ele>517.0</ele><time>2026-04-01T09:47:34.556Z</time></trkpt><trkpt lat="42.8959053" lon="11.8860711"><ele>517.0</ele><time>2026-04-01T09:47:35.558Z</time></trkpt><trkpt lat="42.8960291" lon="11.8860546"><ele>517.0</ele><time>2026-04-01T09:47:37.557Z</time></trkpt><trkpt lat="42.8960962" lon="11.8860117"><ele>517.0</ele><time>2026-04-01T09:47:38.557Z</time></trkpt><trkpt lat="42.896156" lon="11.8859822"><ele>517.0</ele><time>2026-04-01T09:47:39.556Z</time></trkpt><trkpt lat="42.8962463" lon="11.8858822"><ele>521.1666666666667</ele><time>2026-04-01T09:47:41.556Z</time></trkpt><trkpt lat="42.8962508" lon="11.8857947"><ele>525.3333333333334</ele><time>2026-04-01T09:47:42.555Z</time></trkpt><trkpt lat="42.8962143" lon="11.8856792"><ele>529.5</ele><time>2026-04-01T09:47:44.558Z</time></trkpt><trkpt lat="42.896151" lon="11.8855736"><ele>533.6666666666666</ele><time>2026-04-01T09:47:46.557Z</time></trkpt><trkpt lat="42.8961362" lon="11.8854349"><ele>537.8333333333333</ele><time>2026-04-01T09:47:48.557Z</time></trkpt><trkpt lat="42.8961535" lon="11.8853515"><ele>542.0</ele><time>2026-04-01T09:47:50.556Z</time></trkpt><trkpt lat="42.8963132" lon="11.8853655"><ele>542.0</ele><time>2026-04-01T09:47:52.557Z</time></trkpt><trkpt lat="42.8963784" lon="11.8853639"><ele>542.0</ele><time>2026-04-01T09:47:53.556Z</time></trkpt><trkpt lat="42.8964608" lon="11.8853417"><ele>542.0</ele><time>2026-04-01T09:47:54.556Z</time></trkpt><trkpt lat="42.8965232" lon="11.8852978"><ele>542.0</ele><time>2026-04-01T09:47:55.555Z</time></trkpt><trkpt lat="42.8965927" lon="11.8852246"><ele>542.0</ele><time>2026-04-01T09:47:56.555Z</time></trkpt><trkpt lat="42.8966686" lon="11.8851338"><ele>542.0</ele><time>2026-04-01T09:47:57.555Z</time></trkpt><trkpt lat="42.8967538" lon="11.8850398"><ele>547.0</ele><time>2026-04-01T09:47:58.556Z</time></trkpt><trkpt lat="42.8968397" lon="11.8849158"><ele>552.0</ele><time>2026-04-01T09:47:59.556Z</time></trkpt><trkpt lat="42.8969073" lon="11.8848083"><ele>557.0</ele><time>2026-04-01T09:48:00.556Z</time></trkpt><trkpt lat="42.8969772" lon="11.8846838"><ele>562.0</ele><time>2026-04-01T09:48:01.555Z</time></trkpt><trkpt lat="42.897043" lon="11.8845465"><ele>562.0</ele><time>2026-04-01T09:48:02.556Z</time></trkpt><trkpt lat="42.8971183" lon="11.8843934"><ele>562.0</ele><time>2026-04-01T09:48:03.557Z</time></trkpt><trkpt lat="42.8971811" lon="11.8842677"><ele>562.0</ele><time>2026-04-01T09:48:04.555Z</time></trkpt><trkpt lat="42.8972306" lon="11.8841738"><ele>562.0</ele><time>2026-04-01T09:48:05.556Z</time></trkpt><trkpt lat="42.8973017" lon="11.8840908"><ele>562.0</ele><time>2026-04-01T09:48:07.556Z</time></trkpt><trkpt lat="42.8973656" lon="11.8841022"><ele>562.0</ele><time>2026-04-01T09:48:09.557Z</time></trkpt><trkpt lat="42.8974597" lon="11.8842006"><ele>562.0</ele><time>2026-04-01T09:48:11.556Z</time></trkpt><trkpt lat="42.8975165" lon="11.8842786"><ele>562.0</ele><time>2026-04-01T09:48:12.557Z</time></trkpt><trkpt lat="42.8975801" lon="11.8843649"><ele>562.0</ele><time>2026-04-01T09:48:13.556Z</time></trkpt><trkpt lat="42.8976418" lon="11.8844717"><ele>562.0</ele><time>2026-04-01T09:48:14.557Z</time></trkpt><trkpt lat="42.8977" lon="11.8845787"><ele>565.2</ele><time>2026-04-01T09:48:15.558Z</time></trkpt><trkpt lat="42.8977546" lon="11.8846875"><ele>568.4000000000001</ele><time>2026-04-01T09:48:16.556Z</time></trkpt><trkpt lat="42.8978122" lon="11.8847838"><ele>571.5999999999999</ele><time>2026-04-01T09:48:17.556Z</time></trkpt><trkpt lat="42.8978791" lon="11.8848696"><ele>574.8</ele><time>2026-04-01T09:48:18.556Z</time></trkpt><trkpt lat="42.8979556" lon="11.8849406"><ele>578.0</ele><time>2026-04-01T09:48:19.557Z</time></trkpt><trkpt lat="42.8980185" lon="11.8850052"><ele>578.0</ele><time>2026-04-01T09:48:20.557Z</time></trkpt><trkpt lat="42.8981038" lon="11.8850311"><ele>578.0</ele><time>2026-04-01T09:48:21.556Z</time></trkpt><trkpt lat="42.898179" lon="11.8850309"><ele>578.0</ele><time>2026-04-01T09:48:22.556Z</time></trkpt><trkpt lat="42.8982538" lon="11.8850324"><ele>578.0</ele><time>2026-04-01T09:48:23.557Z</time></trkpt><trkpt lat="42.8983325" lon="11.885026"><ele>578.0</ele><time>2026-04-01T09:48:24.557Z</time></trkpt><trkpt lat="42.8984123" lon="11.8850194"><ele>578.0</ele><time>2026-04-01T09:48:25.557Z</time></trkpt><trkpt lat="42.8984919" lon="11.8849994"><ele>578.8333333333333</ele><time>2026-04-01T09:48:26.557Z</time></trkpt><trkpt lat="42.8985788" lon="11.8849781"><ele>579.6666666666666</ele><time>2026-04-01T09:48:27.558Z</time></trkpt><trkpt lat="42.8986554" lon="11.8849426"><ele>580.5</ele><time>2026-04-01T09:48:28.556Z</time></trkpt><trkpt lat="42.8987334" lon="11.8849151"><ele>581.3333333333334</ele><time>2026-04-01T09:48:29.556Z</time></trkpt><trkpt lat="42.8988077" lon="11.8848732"><ele>582.1666666666667</ele><time>2026-04-01T09:48:30.556Z</time></trkpt><trkpt lat="42.8988504" lon="11.8848045"><ele>583.0</ele><time>2026-04-01T09:48:31.557Z</time></trkpt><trkpt lat="42.8988787" lon="11.8846603"><ele>583.0000000000001</ele><time>2026-04-01T09:48:33.558Z</time></trkpt><trkpt lat="42.898885" lon="11.8845633"><ele>583.0</ele><time>2026-04-01T09:48:34.555Z</time></trkpt><trkpt lat="42.8988852" lon="11.8844671"><ele>583.0</ele><time>2026-04-01T09:48:35.557Z</time></trkpt><trkpt lat="42.8989089" lon="11.8843686"><ele>583.0</ele><time>2026-04-01T09:48:36.558Z</time></trkpt><trkpt lat="42.8989491" lon="11.884299"><ele>583.0</ele><time>2026-04-01T09:48:37.557Z</time></trkpt><trkpt lat="42.89899" lon="11.8842275"><ele>583.0000000000001</ele><time>2026-04-01T09:48:38.556Z</time></trkpt><trkpt lat="42.8990533" lon="11.8841642"><ele>583.0</ele><time>2026-04-01T09:48:39.558Z</time></trkpt><trkpt lat="42.8991054" lon="11.8841045"><ele>587.0</ele><time>2026-04-01T09:48:40.558Z</time></trkpt><trkpt lat="42.8991443" lon="11.8840064"><ele>591.0</ele><time>2026-04-01T09:48:42.558Z</time></trkpt><trkpt lat="42.8991084" lon="11.8839108"><ele>595.0</ele><time>2026-04-01T09:48:44.556Z</time></trkpt><trkpt lat="42.8990017" lon="11.8838602"><ele>599.0</ele><time>2026-04-01T09:48:46.557Z</time></trkpt><trkpt lat="42.898941" lon="11.8838331"><ele>603.0</ele><time>2026-04-01T09:48:47.557Z</time></trkpt><trkpt lat="42.8988265" lon="11.8837139"><ele>603.0</ele><time>2026-04-01T09:48:49.556Z</time></trkpt><trkpt lat="42.89878" lon="11.8836387"><ele>603.0</ele><time>2026-04-01T09:48:50.556Z</time></trkpt><trkpt lat="42.8987458" lon="11.8835561"><ele>603.0</ele><time>2026-04-01T09:48:51.557Z</time></trkpt><trkpt lat="42.8987136" lon="11.8834491"><ele>603.0</ele><time>2026-04-01T09:48:52.558Z</time></trkpt><trkpt lat="42.8986716" lon="11.8833478"><ele>603.0</ele><time>2026-04-01T09:48:53.556Z</time></trkpt><trkpt lat="42.8986332" lon="11.8832375"><ele>603.0</ele><time>2026-04-01T09:48:54.557Z</time></trkpt><trkpt lat="42.8985702" lon="11.8831213"><ele>601.5</ele><time>2026-04-01T09:48:55.559Z</time></trkpt><trkpt lat="42.8985055" lon="11.8830197"><ele>600.0</ele><time>2026-04-01T09:48:56.558Z</time></trkpt><trkpt lat="42.8984837" lon="11.882926"><ele>598.5</ele><time>2026-04-01T09:48:57.557Z</time></trkpt><trkpt lat="42.8984625" lon="11.8828438"><ele>597.0</ele><time>2026-04-01T09:48:58.557Z</time></trkpt><trkpt lat="42.8984103" lon="11.882783"><ele>595.5</ele><time>2026-04-01T09:48:59.556Z</time></trkpt><trkpt lat="42.8983169" lon="11.8827671"><ele>594.0</ele><time>2026-04-01T09:49:01.557Z</time></trkpt><trkpt lat="42.8982309" lon="11.8827443"><ele>594.0</ele><time>2026-04-01T09:49:02.557Z</time></trkpt><trkpt lat="42.8981528" lon="11.8827179"><ele>594.0</ele><time>2026-04-01T09:49:03.558Z</time></trkpt><trkpt lat="42.8980615" lon="11.8826486"><ele>594.0</ele><time>2026-04-01T09:49:04.557Z</time></trkpt><trkpt lat="42.8979582" lon="11.8826079"><ele>594.0</ele><time>2026-04-01T09:49:05.558Z</time></trkpt><trkpt lat="42.8978207" lon="11.8825649"><ele>594.0</ele><time>2026-04-01T09:49:06.558Z</time></trkpt><trkpt lat="42.897712" lon="11.8825153"><ele>594.25</ele><time>2026-04-01T09:49:07.557Z</time></trkpt><trkpt lat="42.8976012" lon="11.8824476"><ele>594.5</ele><time>2026-04-01T09:49:08.557Z</time></trkpt><trkpt lat="42.8974953" lon="11.8823796"><ele>594.75</ele><time>2026-04-01T09:49:09.557Z</time></trkpt><trkpt lat="42.8974054" lon="11.8822554"><ele>595.0</ele><time>2026-04-01T09:49:10.557Z</time></trkpt><trkpt lat="42.8973234" lon="11.8821504"><ele>595.0</ele><time>2026-04-01T09:49:11.558Z</time></trkpt><trkpt lat="42.8972626" lon="11.8820083"><ele>595.0</ele><time>2026-04-01T09:49:12.556Z</time></trkpt><trkpt lat="42.8971904" lon="11.881868"><ele>595.0</ele><time>2026-04-01T09:49:13.556Z</time></trkpt><trkpt lat="42.8971144" lon="11.8817009"><ele>595.0</ele><time>2026-04-01T09:49:14.559Z</time></trkpt><trkpt lat="42.897014" lon="11.8815753"><ele>596.4</ele><time>2026-04-01T09:49:15.557Z</time></trkpt><trkpt lat="42.8969379" lon="11.8814618"><ele>597.8</ele><time>2026-04-01T09:49:16.557Z</time></trkpt><trkpt lat="42.8968634" lon="11.8813585"><ele>599.2</ele><time>2026-04-01T09:49:17.557Z</time></trkpt><trkpt lat="42.8968074" lon="11.881265"><ele>600.6</ele><time>2026-04-01T09:49:18.557Z</time></trkpt><trkpt lat="42.8967725" lon="11.8811165"><ele>602.0</ele><time>2026-04-01T09:49:20.557Z</time></trkpt><trkpt lat="42.8967423" lon="11.8810355"><ele>602.0</ele><time>2026-04-01T09:49:21.557Z</time></trkpt><trkpt lat="42.8967166" lon="11.8809512"><ele>602.0</ele><time>2026-04-01T09:49:22.556Z</time></trkpt><trkpt lat="42.89669" lon="11.8808682"><ele>602.0</ele><time>2026-04-01T09:49:23.556Z</time></trkpt><trkpt lat="42.8966683" lon="11.8807658"><ele>602.0</ele><time>2026-04-01T09:49:24.556Z</time></trkpt><trkpt lat="42.8966184" lon="11.8806041"><ele>602.0</ele><time>2026-04-01T09:49:26.557Z</time></trkpt><trkpt lat="42.8965743" lon="11.8805155"><ele>602.0</ele><time>2026-04-01T09:49:27.558Z</time></trkpt><trkpt lat="42.8965227" lon="11.8804635"><ele>605.5</ele><time>2026-04-01T09:49:28.558Z</time></trkpt><trkpt lat="42.8964672" lon="11.8804158"><ele>609.0</ele><time>2026-04-01T09:49:29.557Z</time></trkpt><trkpt lat="42.8963292" lon="11.8803787"><ele>612.5</ele><time>2026-04-01T09:49:31.557Z</time></trkpt><trkpt lat="42.8962489" lon="11.8803552"><ele>616.0</ele><time>2026-04-01T09:49:32.558Z</time></trkpt><trkpt lat="42.8961793" lon="11.8803409"><ele>619.5</ele><time>2026-04-01T09:49:33.555Z</time></trkpt><trkpt lat="42.8961137" lon="11.8803414"><ele>623.0</ele><time>2026-04-01T09:49:34.557Z</time></trkpt><trkpt lat="42.8959983" lon="11.8803577"><ele>623.0</ele><time>2026-04-01T09:49:36.557Z</time></trkpt><trkpt lat="42.8959291" lon="11.8803778"><ele>623.0</ele><time>2026-04-01T09:49:37.557Z</time></trkpt><trkpt lat="42.895813" lon="11.8803322"><ele>623.0</ele><time>2026-04-01T09:49:39.558Z</time></trkpt><trkpt lat="42.8957439" lon="11.8802632"><ele>623.0</ele><time>2026-04-01T09:49:40.556Z</time></trkpt><trkpt lat="42.895679" lon="11.8801976"><ele>623.0</ele><time>2026-04-01T09:49:41.558Z</time></trkpt><trkpt lat="42.8956196" lon="11.8801367"><ele>623.0</ele><time>2026-04-01T09:49:42.557Z</time></trkpt><trkpt lat="42.8955469" lon="11.8800682"><ele>623.8</ele><time>2026-04-01T09:49:43.557Z</time></trkpt><trkpt lat="42.8954815" lon="11.8800023"><ele>624.5999999999999</ele><time>2026-04-01T09:49:44.557Z</time></trkpt><trkpt lat="42.8954006" lon="11.87994"><ele>625.4000000000001</ele><time>2026-04-01T09:49:45.557Z</time></trkpt><trkpt lat="42.8953194" lon="11.8798735"><ele>626.2</ele><time>2026-04-01T09:49:46.557Z</time></trkpt><trkpt lat="42.8952507" lon="11.879756"><ele>627.0</ele><time>2026-04-01T09:49:47.558Z</time></trkpt><trkpt lat="42.8951789" lon="11.8796911"><ele>627.0</ele><time>2026-04-01T09:49:48.556Z</time></trkpt><trkpt lat="42.8951144" lon="11.8796421"><ele>627.0</ele><time>2026-04-01T09:49:49.558Z</time></trkpt><trkpt lat="42.8949681" lon="11.879561"><ele>627.0</ele><time>2026-04-01T09:49:51.556Z</time></trkpt><trkpt lat="42.8948704" lon="11.8795072"><ele>627.0</ele><time>2026-04-01T09:49:52.557Z</time></trkpt><trkpt lat="42.8947811" lon="11.879471"><ele>627.0</ele><time>2026-04-01T09:49:53.557Z</time></trkpt><trkpt lat="42.894689" lon="11.879424"><ele>627.6</ele><time>2026-04-01T09:49:54.557Z</time></trkpt><trkpt lat="42.8946024" lon="11.8793887"><ele>628.2</ele><time>2026-04-01T09:49:55.558Z</time></trkpt><trkpt lat="42.8944924" lon="11.8794125"><ele>628.8</ele><time>2026-04-01T09:49:56.557Z</time></trkpt><trkpt lat="42.8944047" lon="11.8794035"><ele>629.4</ele><time>2026-04-01T09:49:57.557Z</time></trkpt><trkpt lat="42.8943007" lon="11.8794464"><ele>630.0</ele><time>2026-04-01T09:49:58.558Z</time></trkpt><trkpt lat="42.8942275" lon="11.8794929"><ele>630.0</ele><time>2026-04-01T09:49:59.556Z</time></trkpt><trkpt lat="42.8941278" lon="11.8795291"><ele>630.0</ele><time>2026-04-01T09:50:00.556Z</time></trkpt><trkpt lat="42.8940465" lon="11.879513"><ele>630.0</ele><time>2026-04-01T09:50:01.558Z</time></trkpt><trkpt lat="42.8939717" lon="11.8795346"><ele>630.0</ele><time>2026-04-01T09:50:02.557Z</time></trkpt><trkpt lat="42.8938974" lon="11.8796266"><ele>630.0</ele><time>2026-04-01T09:50:04.557Z</time></trkpt><trkpt lat="42.8938098" lon="11.8797037"><ele>630.0</ele><time>2026-04-01T09:50:06.557Z</time></trkpt><trkpt lat="42.8937488" lon="11.8797741"><ele>630.0</ele><time>2026-04-01T09:50:07.558Z</time></trkpt><trkpt lat="42.8936766" lon="11.8798148"><ele>630.0</ele><time>2026-04-01T09:50:08.557Z</time></trkpt><trkpt lat="42.8935976" lon="11.8798227"><ele>630.0</ele><time>2026-04-01T09:50:09.557Z</time></trkpt><trkpt lat="42.8935173" lon="11.879861"><ele>630.0</ele><time>2026-04-01T09:50:10.558Z</time></trkpt><trkpt lat="42.8934617" lon="11.8798132"><ele>630.0</ele><time>2026-04-01T09:50:11.557Z</time></trkpt><trkpt lat="42.8933992" lon="11.8797954"><ele>630.0</ele><time>2026-04-01T09:50:12.557Z</time></trkpt><trkpt lat="42.8933254" lon="11.8797643"><ele>630.0</ele><time>2026-04-01T09:50:14.558Z</time></trkpt><trkpt lat="42.8932373" lon="11.8797262"><ele>630.0</ele><time>2026-04-01T10:00:22.559Z</time></trkpt><trkpt lat="42.8930906" lon="11.8796505"><ele>630.0</ele><time>2026-04-01T10:09:26.56Z</time></trkpt><trkpt lat="42.8929936" lon="11.879584"><ele>630.0</ele><time>2026-04-01T10:09:28.56Z</time></trkpt><trkpt lat="42.8929138" lon="11.8794944"><ele>630.0</ele><time>2026-04-01T10:09:29.561Z</time></trkpt><trkpt lat="42.8928461" lon="11.8794366"><ele>630.0</ele><time>2026-04-01T10:09:30.56Z</time></trkpt><trkpt lat="42.8927815" lon="11.8793835"><ele>630.0</ele><time>2026-04-01T10:09:31.56Z</time></trkpt><trkpt lat="42.8927212" lon="11.8793108"><ele>630.0</ele><time>2026-04-01T10:09:32.56Z</time></trkpt><trkpt lat="42.8926596" lon="11.8792406"><ele>630.0</ele><time>2026-04-01T10:09:33.56Z</time></trkpt><trkpt lat="42.8925951" lon="11.8792191"><ele>630.0</ele><time>2026-04-01T10:09:34.561Z</time></trkpt><trkpt lat="42.8925356" lon="11.8791697"><ele>628.3333333333334</ele><time>2026-04-01T10:09:35.56Z</time></trkpt><trkpt lat="42.8924636" lon="11.8791202"><ele>626.6666666666666</ele><time>2026-04-01T10:09:36.56Z</time></trkpt><trkpt lat="42.8923991" lon="11.8790625"><ele>625.0</ele><time>2026-04-01T10:09:37.561Z</time></trkpt><trkpt lat="42.8923326" lon="11.8790266"><ele>623.3333333333333</ele><time>2026-04-01T10:09:38.559Z</time></trkpt><trkpt lat="42.8922476" lon="11.8789753"><ele>621.6666666666666</ele><time>2026-04-01T10:09:39.559Z</time></trkpt><trkpt lat="42.8921849" lon="11.8789088"><ele>620.0</ele><time>2026-04-01T10:09:40.56Z</time></trkpt><trkpt lat="42.892121" lon="11.8788134"><ele>620.0</ele><time>2026-04-01T10:09:41.559Z</time></trkpt><trkpt lat="42.8920647" lon="11.8787422"><ele>620.0</ele><time>2026-04-01T10:09:42.56Z</time></trkpt><trkpt lat="42.8920016" lon="11.8786683"><ele>620.0</ele><time>2026-04-01T10:09:43.561Z</time></trkpt><trkpt lat="42.8919225" lon="11.8786247"><ele>620.0</ele><time>2026-04-01T10:09:44.56Z</time></trkpt><trkpt lat="42.8918548" lon="11.8785867"><ele>620.0</ele><time>2026-04-01T10:09:45.56Z</time></trkpt><trkpt lat="42.891764" lon="11.8785525"><ele>620.0</ele><time>2026-04-01T10:09:46.559Z</time></trkpt><trkpt lat="42.8916713" lon="11.8785172"><ele>616.4</ele><time>2026-04-01T10:09:47.561Z</time></trkpt><trkpt lat="42.8915678" lon="11.878487"><ele>612.8</ele><time>2026-04-01T10:09:48.56Z</time></trkpt><trkpt lat="42.891456" lon="11.878535"><ele>609.2</ele><time>2026-04-01T10:09:49.56Z</time></trkpt><trkpt lat="42.8913538" lon="11.8785598"><ele>605.6</ele><time>2026-04-01T10:09:50.559Z</time></trkpt><trkpt lat="42.8912618" lon="11.8785487"><ele>602.0</ele><time>2026-04-01T10:09:51.559Z</time></trkpt><trkpt lat="42.8911592" lon="11.8785691"><ele>602.0</ele><time>2026-04-01T10:09:52.561Z</time></trkpt><trkpt lat="42.891057" lon="11.8785546"><ele>602.0</ele><time>2026-04-01T10:09:53.56Z</time></trkpt><trkpt lat="42.8909857" lon="11.8785256"><ele>602.0</ele><time>2026-04-01T10:09:54.56Z</time></trkpt><trkpt lat="42.8909079" lon="11.8784951"><ele>602.0</ele><time>2026-04-01T10:09:55.559Z</time></trkpt><trkpt lat="42.8907889" lon="11.8785403"><ele>602.0</ele><time>2026-04-01T10:09:57.56Z</time></trkpt><trkpt lat="42.8906938" lon="11.8785726"><ele>602.0</ele><time>2026-04-01T10:09:58.56Z</time></trkpt><trkpt lat="42.8906111" lon="11.8785936"><ele>602.0</ele><time>2026-04-01T10:09:59.56Z</time></trkpt><trkpt lat="42.8904958" lon="11.8786038"><ele>602.0</ele><time>2026-04-01T10:10:00.56Z</time></trkpt><trkpt lat="42.8904056" lon="11.8786123"><ele>602.0</ele><time>2026-04-01T10:10:01.561Z</time></trkpt><trkpt lat="42.890326" lon="11.8785555"><ele>602.0</ele><time>2026-04-01T10:10:02.561Z</time></trkpt><trkpt lat="42.8902144" lon="11.8785323"><ele>602.0</ele><time>2026-04-01T10:10:03.56Z</time></trkpt><trkpt lat="42.8901093" lon="11.8785286"><ele>602.0</ele><time>2026-04-01T10:10:04.56Z</time></trkpt><trkpt lat="42.8899637" lon="11.878494"><ele>602.0</ele><time>2026-04-01T10:10:05.56Z</time></trkpt><trkpt lat="42.8898274" lon="11.8784916"><ele>602.0</ele><time>2026-04-01T10:10:06.56Z</time></trkpt><trkpt lat="42.8897051" lon="11.8784712"><ele>603.2</ele><time>2026-04-01T10:10:07.56Z</time></trkpt><trkpt lat="42.8895964" lon="11.8784775"><ele>604.4000000000001</ele><time>2026-04-01T10:10:08.561Z</time></trkpt><trkpt lat="42.8894944" lon="11.8784836"><ele>605.5999999999999</ele><time>2026-04-01T10:10:09.561Z</time></trkpt><trkpt lat="42.8893896" lon="11.8785019"><ele>606.8</ele><time>2026-04-01T10:10:10.559Z</time></trkpt><trkpt lat="42.8893212" lon="11.8784885"><ele>608.0</ele><time>2026-04-01T10:10:11.56Z</time></trkpt><trkpt lat="42.8892466" lon="11.8784877"><ele>609.4</ele><time>2026-04-01T10:10:12.56Z</time></trkpt><trkpt lat="42.8891563" lon="11.878458"><ele>610.8</ele><time>2026-04-01T10:10:13.56Z</time></trkpt><trkpt lat="42.8890358" lon="11.8784495"><ele>612.2</ele><time>2026-04-01T10:10:15.56Z</time></trkpt><trkpt lat="42.8889367" lon="11.8784694"><ele>613.6</ele><time>2026-04-01T10:10:17.56Z</time></trkpt><trkpt lat="42.8888412" lon="11.8784677"><ele>615.0</ele><time>2026-04-01T10:10:19.561Z</time></trkpt><trkpt lat="42.8887624" lon="11.878453"><ele>615.0</ele><time>2026-04-01T10:10:20.56Z</time></trkpt><trkpt lat="42.8886733" lon="11.8784477"><ele>615.0</ele><time>2026-04-01T10:10:21.56Z</time></trkpt><trkpt lat="42.8885813" lon="11.8784505"><ele>615.0</ele><time>2026-04-01T10:10:22.56Z</time></trkpt><trkpt lat="42.8884991" lon="11.8784699"><ele>615.0</ele><time>2026-04-01T10:10:23.56Z</time></trkpt><trkpt lat="42.8883842" lon="11.8785218"><ele>615.0</ele><time>2026-04-01T10:10:24.56Z</time></trkpt><trkpt lat="42.8882811" lon="11.8785701"><ele>615.2</ele><time>2026-04-01T10:10:25.561Z</time></trkpt><trkpt lat="42.8882019" lon="11.8785909"><ele>615.4</ele><time>2026-04-01T10:10:26.562Z</time></trkpt><trkpt lat="42.8881133" lon="11.8786148"><ele>615.6</ele><time>2026-04-01T10:10:27.56Z</time></trkpt><trkpt lat="42.8880287" lon="11.878603"><ele>615.8</ele><time>2026-04-01T10:10:28.56Z</time></trkpt><trkpt lat="42.887927" lon="11.8785967"><ele>616.0</ele><time>2026-04-01T10:10:29.56Z</time></trkpt><trkpt lat="42.8878285" lon="11.8785409"><ele>616.0</ele><time>2026-04-01T10:10:30.561Z</time></trkpt><trkpt lat="42.8877223" lon="11.8785119"><ele>616.0</ele><time>2026-04-01T10:10:31.56Z</time></trkpt><trkpt lat="42.8876238" lon="11.8784946"><ele>616.0</ele><time>2026-04-01T10:10:32.561Z</time></trkpt><trkpt lat="42.8875099" lon="11.8784951"><ele>616.0</ele><time>2026-04-01T10:10:33.56Z</time></trkpt><trkpt lat="42.8873907" lon="11.878518"><ele>616.0</ele><time>2026-04-01T10:10:34.56Z</time></trkpt><trkpt lat="42.8872695" lon="11.8785519"><ele>615.6666666666667</ele><time>2026-04-01T10:10:35.561Z</time></trkpt><trkpt lat="42.8870987" lon="11.8786146"><ele>615.3333333333334</ele><time>2026-04-01T10:10:36.561Z</time></trkpt><trkpt lat="42.8869392" lon="11.8786576"><ele>615.0</ele><time>2026-04-01T10:10:37.561Z</time></trkpt><trkpt lat="42.8867747" lon="11.8786875"><ele>616.5</ele><time>2026-04-01T10:10:38.561Z</time></trkpt><trkpt lat="42.886616" lon="11.8787355"><ele>618.0</ele><time>2026-04-01T10:10:39.562Z</time></trkpt><trkpt lat="42.8864798" lon="11.8787951"><ele>619.5</ele><time>2026-04-01T10:10:40.561Z</time></trkpt><trkpt lat="42.8863397" lon="11.8788363"><ele>621.0</ele><time>2026-04-01T10:10:41.561Z</time></trkpt><trkpt lat="42.8861977" lon="11.8788776"><ele>621.0</ele><time>2026-04-01T10:10:42.562Z</time></trkpt><trkpt lat="42.8860177" lon="11.8789397"><ele>621.0</ele><time>2026-04-01T10:10:44.559Z</time></trkpt><trkpt lat="42.8859099" lon="11.87898"><ele>621.0</ele><time>2026-04-01T10:10:45.56Z</time></trkpt><trkpt lat="42.8858227" lon="11.8790182"><ele>621.0</ele><time>2026-04-01T10:10:46.561Z</time></trkpt><trkpt lat="42.8857492" lon="11.8790818"><ele>621.0</ele><time>2026-04-01T10:10:47.562Z</time></trkpt><trkpt lat="42.8856659" lon="11.8791531"><ele>621.0</ele><time>2026-04-01T10:10:48.561Z</time></trkpt><trkpt lat="42.8855979" lon="11.8791968"><ele>621.0</ele><time>2026-04-01T10:10:49.561Z</time></trkpt><trkpt lat="42.8855305" lon="11.8792433"><ele>621.0</ele><time>2026-04-01T10:10:50.561Z</time></trkpt><trkpt lat="42.8854175" lon="11.8792671"><ele>621.0</ele><time>2026-04-01T10:10:52.561Z</time></trkpt><trkpt lat="42.8853422" lon="11.8792804"><ele>621.0</ele><time>2026-04-01T10:10:53.56Z</time></trkpt><trkpt lat="42.8852463" lon="11.879295"><ele>621.0</ele><time>2026-04-01T10:10:54.56Z</time></trkpt><trkpt lat="42.8851528" lon="11.8792922"><ele>621.0</ele><time>2026-04-01T10:10:55.561Z</time></trkpt><trkpt lat="42.8850457" lon="11.8792825"><ele>621.0</ele><time>2026-04-01T10:10:56.562Z</time></trkpt><trkpt lat="42.8849507" lon="11.8792638"><ele>621.0</ele><time>2026-04-01T10:10:57.562Z</time></trkpt><trkpt lat="42.8848489" lon="11.8792317"><ele>621.0</ele><time>2026-04-01T10:10:58.561Z</time></trkpt><trkpt lat="42.8847433" lon="11.8791775"><ele>622.25</ele><time>2026-04-01T10:10:59.561Z</time></trkpt><trkpt lat="42.8846344" lon="11.8791632"><ele>623.5</ele><time>2026-04-01T10:11:00.561Z</time></trkpt><trkpt lat="42.8845082" lon="11.8791502"><ele>624.75</ele><time>2026-04-01T10:11:01.561Z</time></trkpt><trkpt lat="42.8843565" lon="11.879156"><ele>626.0</ele><time>2026-04-01T10:11:02.563Z</time></trkpt><trkpt lat="42.8842164" lon="11.8791558"><ele>626.0</ele><time>2026-04-01T10:11:03.561Z</time></trkpt><trkpt lat="42.8840676" lon="11.879163"><ele>626.0</ele><time>2026-04-01T10:11:04.561Z</time></trkpt><trkpt lat="42.8839341" lon="11.8791694"><ele>626.0</ele><time>2026-04-01T10:11:05.561Z</time></trkpt><trkpt lat="42.8838113" lon="11.8791604"><ele>626.0</ele><time>2026-04-01T10:11:06.561Z</time></trkpt><trkpt lat="42.8837009" lon="11.8791417"><ele>626.0</ele><time>2026-04-01T10:11:07.561Z</time></trkpt><trkpt lat="42.8835845" lon="11.879124"><ele>626.0</ele><time>2026-04-01T10:11:08.562Z</time></trkpt><trkpt lat="42.8834927" lon="11.8790906"><ele>626.0</ele><time>2026-04-01T10:11:09.562Z</time></trkpt><trkpt lat="42.8834053" lon="11.8790712"><ele>626.0</ele><time>2026-04-01T10:11:10.561Z</time></trkpt><trkpt lat="42.8833431" lon="11.8790497"><ele>626.0</ele><time>2026-04-01T10:11:11.562Z</time></trkpt><trkpt lat="42.8832825" lon="11.8790169"><ele>626.0</ele><time>2026-04-01T10:11:12.56Z</time></trkpt><trkpt lat="42.8832668" lon="11.8788524"><ele>626.3333333333333</ele><time>2026-04-01T10:11:14.56Z</time></trkpt><trkpt lat="42.8832509" lon="11.8787665"><ele>626.6666666666666</ele><time>2026-04-01T10:11:15.561Z</time></trkpt><trkpt lat="42.8832227" lon="11.8786726"><ele>627.0</ele><time>2026-04-01T10:11:16.56Z</time></trkpt><trkpt lat="42.8831954" lon="11.8785889"><ele>627.3333333333334</ele><time>2026-04-01T10:11:17.56Z</time></trkpt><trkpt lat="42.8831357" lon="11.8784897"><ele>627.6666666666667</ele><time>2026-04-01T10:11:18.562Z</time></trkpt><trkpt lat="42.8830647" lon="11.8784296"><ele>628.0</ele><time>2026-04-01T10:11:19.561Z</time></trkpt><trkpt lat="42.8829811" lon="11.8783808"><ele>628.0</ele><time>2026-04-01T10:11:20.561Z</time></trkpt><trkpt lat="42.8828943" lon="11.8783487"><ele>628.0</ele><time>2026-04-01T10:11:21.562Z</time></trkpt><trkpt lat="42.8828102" lon="11.878333"><ele>628.0</ele><time>2026-04-01T10:11:22.561Z</time></trkpt><trkpt lat="42.8826665" lon="11.878355"><ele>628.0</ele><time>2026-04-01T10:11:23.562Z</time></trkpt><trkpt lat="42.8825325" lon="11.878379"><ele>626.0</ele><time>2026-04-01T10:11:24.561Z</time></trkpt><trkpt lat="42.882395" lon="11.8784162"><ele>624.0</ele><time>2026-04-01T10:11:25.559Z</time></trkpt><trkpt lat="42.8822326" lon="11.8784481"><ele>622.0</ele><time>2026-04-01T10:11:26.561Z</time></trkpt><trkpt lat="42.882078" lon="11.878459"><ele>618.3333333333334</ele><time>2026-04-01T10:11:27.561Z</time></trkpt><trkpt lat="42.8819081" lon="11.878462"><ele>614.6666666666666</ele><time>2026-04-01T10:11:28.56Z</time></trkpt><trkpt lat="42.8817485" lon="11.8785087"><ele>611.0</ele><time>2026-04-01T10:11:29.562Z</time></trkpt><trkpt lat="42.8816112" lon="11.8785287"><ele>611.0</ele><time>2026-04-01T10:11:30.561Z</time></trkpt><trkpt lat="42.8814477" lon="11.8785363"><ele>611.0</ele><time>2026-04-01T10:11:31.562Z</time></trkpt><trkpt lat="42.8812956" lon="11.8785432"><ele>611.0</ele><time>2026-04-01T10:11:33.561Z</time></trkpt><trkpt lat="42.8811681" lon="11.8784739"><ele>611.0</ele><time>2026-04-01T10:11:35.561Z</time></trkpt><trkpt lat="42.8810994" lon="11.878438"><ele>611.0</ele><time>2026-04-01T10:11:36.561Z</time></trkpt><trkpt lat="42.8810353" lon="11.8783461"><ele>611.0</ele><time>2026-04-01T10:11:37.561Z</time></trkpt><trkpt lat="42.8809626" lon="11.8782567"><ele>611.0</ele><time>2026-04-01T10:11:38.561Z</time></trkpt><trkpt lat="42.8808638" lon="11.8781867"><ele>611.0</ele><time>2026-04-01T10:11:39.561Z</time></trkpt><trkpt lat="42.8807786" lon="11.8781477"><ele>614.4</ele><time>2026-04-01T10:11:40.561Z</time></trkpt><trkpt lat="42.8806585" lon="11.8781135"><ele>617.8</ele><time>2026-04-01T10:11:41.561Z</time></trkpt><trkpt lat="42.8805505" lon="11.8780809"><ele>621.1999999999999</ele><time>2026-04-01T10:11:42.56Z</time></trkpt><trkpt lat="42.8804512" lon="11.8780586"><ele>624.6</ele><time>2026-04-01T10:11:43.561Z</time></trkpt><trkpt lat="42.8803519" lon="11.878055"><ele>628.0</ele><time>2026-04-01T10:11:44.562Z</time></trkpt><trkpt lat="42.8802492" lon="11.8780166"><ele>628.0</ele><time>2026-04-01T10:11:45.562Z</time></trkpt><trkpt lat="42.8801573" lon="11.877998"><ele>628.0</ele><time>2026-04-01T10:11:46.56Z</time></trkpt><trkpt lat="42.8800509" lon="11.8779632"><ele>628.0</ele><time>2026-04-01T10:11:47.56Z</time></trkpt><trkpt lat="42.8799577" lon="11.8779071"><ele>628.0</ele><time>2026-04-01T10:11:48.562Z</time></trkpt><trkpt lat="42.879879" lon="11.8778492"><ele>628.0</ele><time>2026-04-01T10:11:49.56Z</time></trkpt><trkpt lat="42.8797873" lon="11.8777735"><ele>628.6</ele><time>2026-04-01T10:11:50.559Z</time></trkpt><trkpt lat="42.8796845" lon="11.877711"><ele>629.1999999999999</ele><time>2026-04-01T10:11:51.561Z</time></trkpt><trkpt lat="42.8795751" lon="11.8776254"><ele>629.8</ele><time>2026-04-01T10:11:52.562Z</time></trkpt><trkpt lat="42.8794728" lon="11.8775538"><ele>630.4</ele><time>2026-04-01T10:11:53.561Z</time></trkpt><trkpt lat="42.8793873" lon="11.8774964"><ele>631.0</ele><time>2026-04-01T10:11:54.562Z</time></trkpt><trkpt lat="42.8792948" lon="11.877434"><ele>629.5</ele><time>2026-04-01T10:11:55.561Z</time></trkpt><trkpt lat="42.8792082" lon="11.8773517"><ele>628.0</ele><time>2026-04-01T10:11:56.561Z</time></trkpt><trkpt lat="42.8791221" lon="11.8772946"><ele>626.5</ele><time>2026-04-01T10:11:57.56Z</time></trkpt><trkpt lat="42.8790402" lon="11.8772455"><ele>625.0</ele><time>2026-04-01T10:11:58.562Z</time></trkpt><trkpt lat="42.8789626" lon="11.8772044"><ele>623.5</ele><time>2026-04-01T10:11:59.562Z</time></trkpt><trkpt lat="42.8789169" lon="11.8771314"><ele>622.0</ele><time>2026-04-01T10:12:00.561Z</time></trkpt><trkpt lat="42.8788342" lon="11.8770523"><ele>622.0</ele><time>2026-04-01T10:12:01.562Z</time></trkpt><trkpt lat="42.8787699" lon="11.87698"><ele>622.0</ele><time>2026-04-01T10:12:02.561Z</time></trkpt><trkpt lat="42.8787164" lon="11.8768974"><ele>622.0</ele><time>2026-04-01T10:12:03.561Z</time></trkpt><trkpt lat="42.8786564" lon="11.8768131"><ele>622.0</ele><time>2026-04-01T10:12:04.562Z</time></trkpt><trkpt lat="42.8786069" lon="11.8767233"><ele>622.0</ele><time>2026-04-01T10:12:05.561Z</time></trkpt><trkpt lat="42.8785635" lon="11.8766075"><ele>622.0</ele><time>2026-04-01T10:12:06.561Z</time></trkpt><trkpt lat="42.8785402" lon="11.8765117"><ele>620.6</ele><time>2026-04-01T10:12:07.56Z</time></trkpt><trkpt lat="42.8784303" lon="11.8763971"><ele>619.2</ele><time>2026-04-01T10:12:09.561Z</time></trkpt><trkpt lat="42.8783657" lon="11.8763164"><ele>617.8</ele><time>2026-04-01T10:12:10.561Z</time></trkpt><trkpt lat="42.8782811" lon="11.876248"><ele>616.4</ele><time>2026-04-01T10:12:11.56Z</time></trkpt><trkpt lat="42.8781977" lon="11.8761572"><ele>615.0</ele><time>2026-04-01T10:12:12.562Z</time></trkpt><trkpt lat="42.8781069" lon="11.8760767"><ele>615.0</ele><time>2026-04-01T10:12:13.561Z</time></trkpt><trkpt lat="42.8780042" lon="11.875982"><ele>615.0</ele><time>2026-04-01T10:12:14.562Z</time></trkpt><trkpt lat="42.8779053" lon="11.8759012"><ele>615.0</ele><time>2026-04-01T10:12:15.56Z</time></trkpt><trkpt lat="42.8777435" lon="11.8758791"><ele>615.0</ele><time>2026-04-01T10:12:16.562Z</time></trkpt><trkpt lat="42.8776439" lon="11.8758378"><ele>612.0</ele><time>2026-04-01T10:12:17.561Z</time></trkpt><trkpt lat="42.8775331" lon="11.8758096"><ele>609.0</ele><time>2026-04-01T10:12:18.561Z</time></trkpt><trkpt lat="42.8774325" lon="11.8757743"><ele>606.0</ele><time>2026-04-01T10:12:19.561Z</time></trkpt><trkpt lat="42.8773332" lon="11.8757389"><ele>603.0</ele><time>2026-04-01T10:12:20.561Z</time></trkpt><trkpt lat="42.8772431" lon="11.8757266"><ele>600.0</ele><time>2026-04-01T10:12:21.561Z</time></trkpt><trkpt lat="42.877148" lon="11.8757493"><ele>600.0</ele><time>2026-04-01T10:12:22.561Z</time></trkpt><trkpt lat="42.877076" lon="11.8757183"><ele>600.0</ele><time>2026-04-01T10:12:23.562Z</time></trkpt><trkpt lat="42.8769803" lon="11.8756859"><ele>600.0</ele><time>2026-04-01T10:12:24.561Z</time></trkpt><trkpt lat="42.8768829" lon="11.8756526"><ele>600.0</ele><time>2026-04-01T10:12:25.56Z</time></trkpt><trkpt lat="42.8767547" lon="11.8756139"><ele>600.0</ele><time>2026-04-01T10:12:26.562Z</time></trkpt><trkpt lat="42.8766437" lon="11.8755774"><ele>598.75</ele><time>2026-04-01T10:12:27.561Z</time></trkpt><trkpt lat="42.8765058" lon="11.8755377"><ele>597.5</ele><time>2026-04-01T10:12:28.562Z</time></trkpt><trkpt lat="42.8763732" lon="11.8754879"><ele>596.25</ele><time>2026-04-01T10:12:29.561Z</time></trkpt><trkpt lat="42.8762221" lon="11.875446"><ele>595.0</ele><time>2026-04-01T10:12:30.561Z</time></trkpt><trkpt lat="42.8760861" lon="11.8753987"><ele>595.0</ele><time>2026-04-01T10:12:31.562Z</time></trkpt><trkpt lat="42.8759472" lon="11.8753604"><ele>595.0</ele><time>2026-04-01T10:12:32.562Z</time></trkpt><trkpt lat="42.8758118" lon="11.8753319"><ele>595.0</ele><time>2026-04-01T10:12:33.562Z</time></trkpt><trkpt lat="42.8756796" lon="11.8753119"><ele>595.0</ele><time>2026-04-01T10:12:34.56Z</time></trkpt><trkpt lat="42.875551" lon="11.8753021"><ele>593.5</ele><time>2026-04-01T10:12:35.561Z</time></trkpt><trkpt lat="42.8754272" lon="11.8753127"><ele>592.0</ele><time>2026-04-01T10:12:36.562Z</time></trkpt><trkpt lat="42.8753083" lon="11.8753302"><ele>590.5</ele><time>2026-04-01T10:12:37.56Z</time></trkpt><trkpt lat="42.875193" lon="11.8753486"><ele>589.0</ele><time>2026-04-01T10:12:38.562Z</time></trkpt><trkpt lat="42.8750792" lon="11.8753718"><ele>588.2</ele><time>2026-04-01T10:12:39.561Z</time></trkpt><trkpt lat="42.874979" lon="11.8754078"><ele>587.4</ele><time>2026-04-01T10:12:40.561Z</time></trkpt><trkpt lat="42.8748857" lon="11.8754522"><ele>586.6</ele><time>2026-04-01T10:12:41.561Z</time></trkpt><trkpt lat="42.8748037" lon="11.8755129"><ele>585.8</ele><time>2026-04-01T10:12:42.562Z</time></trkpt><trkpt lat="42.8747218" lon="11.8755963"><ele>585.0</ele><time>2026-04-01T10:12:43.56Z</time></trkpt><trkpt lat="42.8746456" lon="11.8756971"><ele>585.0</ele><time>2026-04-01T10:12:44.561Z</time></trkpt><trkpt lat="42.8745704" lon="11.8757884"><ele>585.0</ele><time>2026-04-01T10:12:45.56Z</time></trkpt><trkpt lat="42.8744708" lon="11.8758502"><ele>585.0</ele><time>2026-04-01T10:12:46.562Z</time></trkpt><trkpt lat="42.8743476" lon="11.875874"><ele>585.0</ele><time>2026-04-01T10:12:47.726Z</time></trkpt><trkpt lat="42.8743693" lon="11.8757888"><ele>585.0</ele><time>2026-04-01T10:12:49.727Z</time></trkpt><trkpt lat="42.8741383" lon="11.8758411"><ele>583.5</ele><time>2026-04-01T10:12:51.727Z</time></trkpt><trkpt lat="42.873976" lon="11.8757524"><ele>582.0</ele><time>2026-04-01T10:12:52.727Z</time></trkpt><trkpt lat="42.8738748" lon="11.8757285"><ele>580.5</ele><time>2026-04-01T10:12:53.726Z</time></trkpt><trkpt lat="42.8737966" lon="11.8757009"><ele>579.0</ele><time>2026-04-01T10:12:54.725Z</time></trkpt><trkpt lat="42.8735935" lon="11.8757407"><ele>579.0</ele><time>2026-04-01T10:12:56.726Z</time></trkpt><trkpt lat="42.8735458" lon="11.8758295"><ele>579.0</ele><time>2026-04-01T10:12:59.561Z</time></trkpt><trkpt lat="42.8734685" lon="11.8758978"><ele>579.0</ele><time>2026-04-01T10:13:01.561Z</time></trkpt><trkpt lat="42.873439" lon="11.8759804"><ele>579.0</ele><time>2026-04-01T10:13:02.56Z</time></trkpt><trkpt lat="42.8733703" lon="11.8761118"><ele>579.0</ele><time>2026-04-01T10:13:03.56Z</time></trkpt><trkpt lat="42.8733085" lon="11.8762287"><ele>577.4</ele><time>2026-04-01T10:13:04.561Z</time></trkpt><trkpt lat="42.8732474" lon="11.8763621"><ele>575.8</ele><time>2026-04-01T10:13:05.562Z</time></trkpt><trkpt lat="42.8731707" lon="11.8764655"><ele>574.2</ele><time>2026-04-01T10:13:06.562Z</time></trkpt><trkpt lat="42.8730915" lon="11.8765559"><ele>572.6</ele><time>2026-04-01T10:13:07.561Z</time></trkpt><trkpt lat="42.8730202" lon="11.8766296"><ele>571.0</ele><time>2026-04-01T10:13:08.562Z</time></trkpt><trkpt lat="42.8729578" lon="11.8767009"><ele>571.1666666666667</ele><time>2026-04-01T10:13:09.561Z</time></trkpt><trkpt lat="42.8728813" lon="11.8767786"><ele>571.3333333333334</ele><time>2026-04-01T10:13:11.561Z</time></trkpt><trkpt lat="42.8728302" lon="11.8768521"><ele>571.5</ele><time>2026-04-01T10:13:51.561Z</time></trkpt><trkpt lat="42.8728208" lon="11.8769625"><ele>571.6666666666666</ele><time>2026-04-01T10:13:53.561Z</time></trkpt><trkpt lat="42.8728109" lon="11.8770571"><ele>571.8333333333333</ele><time>2026-04-01T10:13:56.562Z</time></trkpt><trkpt lat="42.8728552" lon="11.8771681"><ele>572.0</ele><time>2026-04-01T10:13:58.562Z</time></trkpt><trkpt lat="42.8728852" lon="11.8773"><ele>572.0</ele><time>2026-04-01T10:14:00.561Z</time></trkpt><trkpt lat="42.8729046" lon="11.8774689"><ele>572.0</ele><time>2026-04-01T10:14:02.561Z</time></trkpt><trkpt lat="42.8729398" lon="11.8776468"><ele>572.0</ele><time>2026-04-01T10:14:04.561Z</time></trkpt><trkpt lat="42.8729583" lon="11.8777297"><ele>572.0</ele><time>2026-04-01T10:14:05.561Z</time></trkpt><trkpt lat="42.8730006" lon="11.8779016"><ele>572.0</ele><time>2026-04-01T10:14:07.562Z</time></trkpt><trkpt lat="42.8730396" lon="11.8779979"><ele>572.0</ele><time>2026-04-01T10:14:08.561Z</time></trkpt><trkpt lat="42.8730823" lon="11.8780893"><ele>572.0</ele><time>2026-04-01T10:14:09.561Z</time></trkpt><trkpt lat="42.873138" lon="11.8781998"><ele>572.0</ele><time>2026-04-01T10:14:10.562Z</time></trkpt><trkpt lat="42.8731929" lon="11.8783144"><ele>572.0</ele><time>2026-04-01T10:14:11.561Z</time></trkpt><trkpt lat="42.8732384" lon="11.8784153"><ele>572.0</ele><time>2026-04-01T10:14:12.561Z</time></trkpt><trkpt lat="42.8733058" lon="11.8785335"><ele>570.6</ele><time>2026-04-01T10:14:13.561Z</time></trkpt><trkpt lat="42.8733573" lon="11.8786561"><ele>569.2</ele><time>2026-04-01T10:14:14.561Z</time></trkpt><trkpt lat="42.8734054" lon="11.8787782"><ele>567.8</ele><time>2026-04-01T10:14:15.562Z</time></trkpt><trkpt lat="42.8734639" lon="11.8788981"><ele>566.4</ele><time>2026-04-01T10:14:16.562Z</time></trkpt><trkpt lat="42.873517" lon="11.8790188"><ele>565.0</ele><time>2026-04-01T10:14:17.562Z</time></trkpt><trkpt lat="42.8735821" lon="11.8791396"><ele>566.5</ele><time>2026-04-01T10:14:18.561Z</time></trkpt><trkpt lat="42.8736318" lon="11.8792709"><ele>568.0</ele><time>2026-04-01T10:14:19.56Z</time></trkpt><trkpt lat="42.8736983" lon="11.8794009"><ele>569.5</ele><time>2026-04-01T10:14:20.562Z</time></trkpt><trkpt lat="42.8737612" lon="11.8795415"><ele>571.0</ele><time>2026-04-01T10:14:21.563Z</time></trkpt><trkpt lat="42.8738345" lon="11.8796903"><ele>571.0</ele><time>2026-04-01T10:14:22.562Z</time></trkpt><trkpt lat="42.8739196" lon="11.8798435"><ele>571.0</ele><time>2026-04-01T10:14:23.561Z</time></trkpt><trkpt lat="42.8740038" lon="11.8800019"><ele>571.0</ele><time>2026-04-01T10:14:24.563Z</time></trkpt><trkpt lat="42.8740863" lon="11.8801823"><ele>571.0</ele><time>2026-04-01T10:14:25.561Z</time></trkpt><trkpt lat="42.8741795" lon="11.8803577"><ele>571.0</ele><time>2026-04-01T10:14:26.561Z</time></trkpt><trkpt lat="42.8742683" lon="11.8805414"><ele>571.0</ele><time>2026-04-01T10:14:27.562Z</time></trkpt><trkpt lat="42.8743649" lon="11.880721"><ele>571.0</ele><time>2026-04-01T10:14:28.56Z</time></trkpt><trkpt lat="42.8744681" lon="11.8808797"><ele>568.3333333333334</ele><time>2026-04-01T10:14:29.56Z</time></trkpt><trkpt lat="42.8745793" lon="11.8810451"><ele>565.6666666666666</ele><time>2026-04-01T10:14:30.561Z</time></trkpt><trkpt lat="42.8747018" lon="11.8812103"><ele>563.0</ele><time>2026-04-01T10:14:31.562Z</time></trkpt><trkpt lat="42.8748285" lon="11.8813687"><ele>563.0</ele><time>2026-04-01T10:14:32.56Z</time></trkpt><trkpt lat="42.8749481" lon="11.8815349"><ele>563.0</ele><time>2026-04-01T10:14:33.561Z</time></trkpt><trkpt lat="42.8750721" lon="11.8816772"><ele>563.0</ele><time>2026-04-01T10:14:34.561Z</time></trkpt><trkpt lat="42.875188" lon="11.8818235"><ele>563.0</ele><time>2026-04-01T10:14:35.561Z</time></trkpt><trkpt lat="42.875299" lon="11.8819576"><ele>563.0</ele><time>2026-04-01T10:14:36.562Z</time></trkpt><trkpt lat="42.8754039" lon="11.8820905"><ele>563.0</ele><time>2026-04-01T10:14:37.563Z</time></trkpt><trkpt lat="42.8754973" lon="11.8822206"><ele>563.0</ele><time>2026-04-01T10:14:38.562Z</time></trkpt><trkpt lat="42.875584" lon="11.8823466"><ele>563.0</ele><time>2026-04-01T10:14:39.56Z</time></trkpt><trkpt lat="42.875672" lon="11.8824615"><ele>563.0</ele><time>2026-04-01T10:14:40.56Z</time></trkpt><trkpt lat="42.8757555" lon="11.8825945"><ele>563.0</ele><time>2026-04-01T10:14:41.561Z</time></trkpt><trkpt lat="42.875826" lon="11.8827119"><ele>563.0</ele><time>2026-04-01T10:14:42.562Z</time></trkpt><trkpt lat="42.8759025" lon="11.8828609"><ele>563.25</ele><time>2026-04-01T10:14:43.56Z</time></trkpt><trkpt lat="42.8759924" lon="11.8830108"><ele>563.5</ele><time>2026-04-01T10:14:44.56Z</time></trkpt><trkpt lat="42.8760809" lon="11.8831657"><ele>563.75</ele><time>2026-04-01T10:14:45.562Z</time></trkpt><trkpt lat="42.8761807" lon="11.8833144"><ele>564.0</ele><time>2026-04-01T10:14:46.561Z</time></trkpt><trkpt lat="42.8762778" lon="11.8834505"><ele>562.0</ele><time>2026-04-01T10:14:47.561Z</time></trkpt><trkpt lat="42.8764008" lon="11.8835692"><ele>560.0</ele><time>2026-04-01T10:14:48.56Z</time></trkpt><trkpt lat="42.876541" lon="11.8836489"><ele>558.0</ele><time>2026-04-01T10:14:49.562Z</time></trkpt><trkpt lat="42.8766775" lon="11.8836857"><ele>556.0</ele><time>2026-04-01T10:14:50.562Z</time></trkpt><trkpt lat="42.8767926" lon="11.88368"><ele>555.6666666666667</ele><time>2026-04-01T10:14:51.562Z</time></trkpt><trkpt lat="42.8768949" lon="11.8836816"><ele>555.3333333333334</ele><time>2026-04-01T10:14:52.56Z</time></trkpt><trkpt lat="42.8769773" lon="11.883687"><ele>555.0</ele><time>2026-04-01T10:14:53.561Z</time></trkpt><trkpt lat="42.877051" lon="11.8836884"><ele>554.6666666666666</ele><time>2026-04-01T10:14:55.562Z</time></trkpt><trkpt lat="42.8771007" lon="11.8837786"><ele>554.3333333333333</ele><time>2026-04-01T10:15:04.562Z</time></trkpt><trkpt lat="42.8771606" lon="11.8838612"><ele>554.0</ele><time>2026-04-01T10:15:06.561Z</time></trkpt><trkpt lat="42.8772183" lon="11.8839275"><ele>554.0</ele><time>2026-04-01T10:15:07.563Z</time></trkpt><trkpt lat="42.8772587" lon="11.8839952"><ele>554.0</ele><time>2026-04-01T10:15:08.56Z</time></trkpt><trkpt lat="42.8773651" lon="11.8841117"><ele>554.0</ele><time>2026-04-01T10:15:10.563Z</time></trkpt><trkpt lat="42.8774244" lon="11.8841632"><ele>554.0</ele><time>2026-04-01T10:15:11.562Z</time></trkpt><trkpt lat="42.8775074" lon="11.8842228"><ele>554.0</ele><time>2026-04-01T10:15:12.564Z</time></trkpt><trkpt lat="42.8775821" lon="11.8842687"><ele>554.0</ele><time>2026-04-01T10:15:13.561Z</time></trkpt><trkpt lat="42.8776204" lon="11.8843527"><ele>556.0</ele><time>2026-04-01T10:15:14.562Z</time></trkpt><trkpt lat="42.8776978" lon="11.8844448"><ele>558.0</ele><time>2026-04-01T10:15:16.561Z</time></trkpt><trkpt lat="42.8777716" lon="11.8845166"><ele>560.0</ele><time>2026-04-01T10:15:18.562Z</time></trkpt><trkpt lat="42.8778806" lon="11.8845566"><ele>562.0</ele><time>2026-04-01T10:15:20.562Z</time></trkpt><trkpt lat="42.8779445" lon="11.8845575"><ele>564.0</ele><time>2026-04-01T10:15:23.563Z</time></trkpt><trkpt lat="42.8778679" lon="11.884504"><ele>564.0</ele><time>2026-04-01T10:15:27.561Z</time></trkpt><trkpt lat="42.8777589" lon="11.8844821"><ele>564.0</ele><time>2026-04-01T10:15:29.56Z</time></trkpt><trkpt lat="42.8776584" lon="11.8844321"><ele>564.0</ele><time>2026-04-01T10:15:31.562Z</time></trkpt><trkpt lat="42.8775972" lon="11.8843405"><ele>564.0</ele><time>2026-04-01T10:15:32.561Z</time></trkpt><trkpt lat="42.8775488" lon="11.884258"><ele>564.0</ele><time>2026-04-01T10:15:33.56Z</time></trkpt><trkpt lat="42.8775082" lon="11.8841787"><ele>562.0</ele><time>2026-04-01T10:15:34.56Z</time></trkpt><trkpt lat="42.8774479" lon="11.8841187"><ele>560.0</ele><time>2026-04-01T10:15:35.561Z</time></trkpt><trkpt lat="42.8773626" lon="11.8840657"><ele>558.0</ele><time>2026-04-01T10:15:36.563Z</time></trkpt><trkpt lat="42.8772755" lon="11.8840038"><ele>556.0</ele><time>2026-04-01T10:15:37.56Z</time></trkpt><trkpt lat="42.8771901" lon="11.8839315"><ele>554.0</ele><time>2026-04-01T10:15:38.561Z</time></trkpt><trkpt lat="42.8771159" lon="11.883841"><ele>554.0</ele><time>2026-04-01T10:15:39.561Z</time></trkpt><trkpt lat="42.8770454" lon="11.8837717"><ele>554.0</ele><time>2026-04-01T10:15:41.562Z</time></trkpt><trkpt lat="42.8769281" lon="11.8837487"><ele>554.0</ele><time>2026-04-01T10:15:49.562Z</time></trkpt><trkpt lat="42.8768523" lon="11.8837443"><ele>554.0</ele><time>2026-04-01T10:15:50.561Z</time></trkpt><trkpt lat="42.8767783" lon="11.8837498"><ele>554.0</ele><time>2026-04-01T10:15:51.562Z</time></trkpt><trkpt lat="42.8766797" lon="11.8837337"><ele>554.5</ele><time>2026-04-01T10:15:52.56Z</time></trkpt><trkpt lat="42.8765727" lon="11.8836961"><ele>555.0</ele><time>2026-04-01T10:15:53.56Z</time></trkpt><trkpt lat="42.8764604" lon="11.883662"><ele>555.5</ele><time>2026-04-01T10:15:54.56Z</time></trkpt><trkpt lat="42.876348" lon="11.883531"><ele>556.0</ele><time>2026-04-01T10:15:55.563Z</time></trkpt><trkpt lat="42.8762529" lon="11.8834067"><ele>557.0</ele><time>2026-04-01T10:15:56.562Z</time></trkpt><trkpt lat="42.8761589" lon="11.8832759"><ele>558.0</ele><time>2026-04-01T10:15:57.561Z</time></trkpt><trkpt lat="42.8760652" lon="11.8831303"><ele>559.0</ele><time>2026-04-01T10:15:58.562Z</time></trkpt><trkpt lat="42.8759648" lon="11.8829592"><ele>560.0</ele><time>2026-04-01T10:15:59.561Z</time></trkpt><trkpt lat="42.8758381" lon="11.8827663"><ele>561.0</ele><time>2026-04-01T10:16:00.562Z</time></trkpt><trkpt lat="42.8757086" lon="11.8825509"><ele>562.0</ele><time>2026-04-01T10:16:01.561Z</time></trkpt><trkpt lat="42.8755749" lon="11.882338"><ele>563.0</ele><time>2026-04-01T10:16:02.562Z</time></trkpt><trkpt lat="42.8754336" lon="11.8821289"><ele>563.0</ele><time>2026-04-01T10:16:03.561Z</time></trkpt><trkpt lat="42.8752869" lon="11.8819349"><ele>563.0</ele><time>2026-04-01T10:16:04.562Z</time></trkpt><trkpt lat="42.875133" lon="11.8817484"><ele>563.0</ele><time>2026-04-01T10:16:05.562Z</time></trkpt><trkpt lat="42.874952" lon="11.8815658"><ele>563.0</ele><time>2026-04-01T10:16:06.562Z</time></trkpt><trkpt lat="42.8748198" lon="11.8813719"><ele>563.0</ele><time>2026-04-01T10:16:07.562Z</time></trkpt><trkpt lat="42.8746754" lon="11.8811822"><ele>563.0</ele><time>2026-04-01T10:16:08.563Z</time></trkpt><trkpt lat="42.8745508" lon="11.8810016"><ele>563.6666666666666</ele><time>2026-04-01T10:16:09.562Z</time></trkpt><trkpt lat="42.8744246" lon="11.8807848"><ele>564.3333333333334</ele><time>2026-04-01T10:16:10.561Z</time></trkpt><trkpt lat="42.8743061" lon="11.8805741"><ele>565.0</ele><time>2026-04-01T10:16:11.561Z</time></trkpt><trkpt lat="42.874187" lon="11.8803319"><ele>567.0</ele><time>2026-04-01T10:16:12.562Z</time></trkpt><trkpt lat="42.874078" lon="11.8800928"><ele>569.0</ele><time>2026-04-01T10:16:13.563Z</time></trkpt><trkpt lat="42.8739819" lon="11.8798724"><ele>571.0</ele><time>2026-04-01T10:16:14.561Z</time></trkpt><trkpt lat="42.8738705" lon="11.8796671"><ele>571.0</ele><time>2026-04-01T10:16:15.562Z</time></trkpt><trkpt lat="42.8737779" lon="11.879477"><ele>571.0</ele><time>2026-04-01T10:16:16.561Z</time></trkpt><trkpt lat="42.8736995" lon="11.879302"><ele>571.0</ele><time>2026-04-01T10:16:17.561Z</time></trkpt><trkpt lat="42.8736224" lon="11.8791379"><ele>569.0</ele><time>2026-04-01T10:16:18.562Z</time></trkpt><trkpt lat="42.8735545" lon="11.8789925"><ele>567.0</ele><time>2026-04-01T10:16:19.563Z</time></trkpt><trkpt lat="42.8734166" lon="11.8787496"><ele>565.0</ele><time>2026-04-01T10:16:21.562Z</time></trkpt><trkpt lat="42.8733487" lon="11.8786086"><ele>565.0</ele><time>2026-04-01T10:16:22.562Z</time></trkpt><trkpt lat="42.8732748" lon="11.8784659"><ele>565.0</ele><time>2026-04-01T10:16:23.561Z</time></trkpt><trkpt lat="42.8731938" lon="11.8783062"><ele>565.0</ele><time>2026-04-01T10:16:24.562Z</time></trkpt><trkpt lat="42.8731135" lon="11.878122"><ele>565.0</ele><time>2026-04-01T10:16:25.562Z</time></trkpt><trkpt lat="42.8730202" lon="11.877945"><ele>566.75</ele><time>2026-04-01T10:16:26.563Z</time></trkpt><trkpt lat="42.872963" lon="11.8777645"><ele>568.5</ele><time>2026-04-01T10:16:27.561Z</time></trkpt><trkpt lat="42.8729205" lon="11.8775944"><ele>570.25</ele><time>2026-04-01T10:16:28.561Z</time></trkpt><trkpt lat="42.8728918" lon="11.8774531"><ele>572.0</ele><time>2026-04-01T10:16:29.56Z</time></trkpt><trkpt lat="42.872878" lon="11.8773112"><ele>572.0</ele><time>2026-04-01T10:16:30.561Z</time></trkpt><trkpt lat="42.8728686" lon="11.8771965"><ele>572.0</ele><time>2026-04-01T10:16:31.562Z</time></trkpt><trkpt lat="42.8728403" lon="11.8770942"><ele>572.0</ele><time>2026-04-01T10:16:32.561Z</time></trkpt><trkpt lat="42.8727901" lon="11.8770101"><ele>572.0</ele><time>2026-04-01T10:16:33.562Z</time></trkpt><trkpt lat="42.8727144" lon="11.8769381"><ele>572.0</ele><time>2026-04-01T10:16:34.562Z</time></trkpt><trkpt lat="42.8726112" lon="11.8768748"><ele>573.75</ele><time>2026-04-01T10:16:35.563Z</time></trkpt><trkpt lat="42.8724826" lon="11.8768216"><ele>575.5</ele><time>2026-04-01T10:16:36.561Z</time></trkpt><trkpt lat="42.8723361" lon="11.8768015"><ele>577.25</ele><time>2026-04-01T10:16:37.561Z</time></trkpt><trkpt lat="42.8721807" lon="11.8768002"><ele>579.0</ele><time>2026-04-01T10:16:38.561Z</time></trkpt><trkpt lat="42.872025" lon="11.8768083"><ele>579.75</ele><time>2026-04-01T10:16:39.562Z</time></trkpt><trkpt lat="42.8718277" lon="11.8767638"><ele>580.5</ele><time>2026-04-01T10:16:41.563Z</time></trkpt><trkpt lat="42.871754" lon="11.8767277"><ele>581.25</ele><time>2026-04-01T10:16:42.56Z</time></trkpt><trkpt lat="42.8717258" lon="11.8769284"><ele>582.0</ele><time>2026-04-01T10:16:53.562Z</time></trkpt><trkpt lat="42.871622" lon="11.8769745"><ele>582.0</ele><time>2026-04-01T10:16:55.562Z</time></trkpt><trkpt lat="42.8715075" lon="11.8770305"><ele>582.0</ele><time>2026-04-01T10:16:57.562Z</time></trkpt><trkpt lat="42.871442" lon="11.8770632"><ele>582.0</ele><time>2026-04-01T10:16:58.562Z</time></trkpt><trkpt lat="42.87138" lon="11.8771029"><ele>582.0</ele><time>2026-04-01T10:16:59.562Z</time></trkpt><trkpt lat="42.8712621" lon="11.8771834"><ele>582.0</ele><time>2026-04-01T10:17:01.561Z</time></trkpt><trkpt lat="42.8711952" lon="11.8772292"><ele>582.0</ele><time>2026-04-01T10:17:02.561Z</time></trkpt><trkpt lat="42.8711338" lon="11.8772735"><ele>582.0</ele><time>2026-04-01T10:17:03.562Z</time></trkpt><trkpt lat="42.8710173" lon="11.8773391"><ele>582.0</ele><time>2026-04-01T10:17:05.562Z</time></trkpt><trkpt lat="42.870945" lon="11.8773668"><ele>582.0</ele><time>2026-04-01T10:17:06.562Z</time></trkpt><trkpt lat="42.8708659" lon="11.8774245"><ele>582.0</ele><time>2026-04-01T10:17:07.563Z</time></trkpt><trkpt lat="42.8707863" lon="11.8774899"><ele>581.25</ele><time>2026-04-01T10:17:08.561Z</time></trkpt><trkpt lat="42.870728" lon="11.8775796"><ele>580.5</ele><time>2026-04-01T10:17:09.562Z</time></trkpt><trkpt lat="42.8706725" lon="11.8776966"><ele>579.75</ele><time>2026-04-01T10:17:10.562Z</time></trkpt><trkpt lat="42.8705564" lon="11.877967"><ele>579.0</ele><time>2026-04-01T10:17:12.563Z</time></trkpt><trkpt lat="42.8704954" lon="11.8781357"><ele>581.75</ele><time>2026-04-01T10:17:13.561Z</time></trkpt><trkpt lat="42.8704244" lon="11.8783179"><ele>584.5</ele><time>2026-04-01T10:17:14.561Z</time></trkpt><trkpt lat="42.8703906" lon="11.8784654"><ele>587.25</ele><time>2026-04-01T10:17:15.562Z</time></trkpt><trkpt lat="42.8703386" lon="11.8786018"><ele>590.0</ele><time>2026-04-01T10:17:16.561Z</time></trkpt><trkpt lat="42.8703075" lon="11.878699"><ele>592.2</ele><time>2026-04-01T10:17:17.562Z</time></trkpt><trkpt lat="42.8703014" lon="11.8788673"><ele>594.4</ele><time>2026-04-01T10:17:19.562Z</time></trkpt><trkpt lat="42.8702946" lon="11.8789917"><ele>596.6</ele><time>2026-04-01T10:17:20.561Z</time></trkpt><trkpt lat="42.8702871" lon="11.8791117"><ele>598.8</ele><time>2026-04-01T10:17:21.561Z</time></trkpt><trkpt lat="42.8702945" lon="11.879251"><ele>601.0</ele><time>2026-04-01T10:17:22.563Z</time></trkpt><trkpt lat="42.8703022" lon="11.8793933"><ele>601.4</ele><time>2026-04-01T10:17:23.562Z</time></trkpt><trkpt lat="42.870288" lon="11.8795422"><ele>601.8</ele><time>2026-04-01T10:17:24.563Z</time></trkpt><trkpt lat="42.8702847" lon="11.8796928"><ele>602.1999999999999</ele><time>2026-04-01T10:17:25.562Z</time></trkpt><trkpt lat="42.8702644" lon="11.8798269"><ele>602.6</ele><time>2026-04-01T10:17:26.561Z</time></trkpt><trkpt lat="42.8702541" lon="11.8799439"><ele>603.0</ele><time>2026-04-01T10:17:27.562Z</time></trkpt><trkpt lat="42.8702488" lon="11.8800346"><ele>603.8</ele><time>2026-04-01T10:17:28.562Z</time></trkpt><trkpt lat="42.8702897" lon="11.8801563"><ele>604.5999999999999</ele><time>2026-04-01T10:17:30.562Z</time></trkpt><trkpt lat="42.8704066" lon="11.8802295"><ele>605.4000000000001</ele><time>2026-04-01T10:17:32.561Z</time></trkpt><trkpt lat="42.8704967" lon="11.8802491"><ele>606.2</ele><time>2026-04-01T10:17:33.562Z</time></trkpt><trkpt lat="42.8706167" lon="11.8802106"><ele>607.0</ele><time>2026-04-01T10:17:34.562Z</time></trkpt><trkpt lat="42.8707144" lon="11.8802148"><ele>607.0</ele><time>2026-04-01T10:17:35.562Z</time></trkpt><trkpt lat="42.8708086" lon="11.8802266"><ele>607.0</ele><time>2026-04-01T10:17:36.561Z</time></trkpt><trkpt lat="42.8708711" lon="11.8804053"><ele>607.0</ele><time>2026-04-01T10:17:38.562Z</time></trkpt><trkpt lat="42.8708888" lon="11.8805328"><ele>607.0</ele><time>2026-04-01T10:17:39.562Z</time></trkpt><trkpt lat="42.8709081" lon="11.8806955"><ele>607.0</ele><time>2026-04-01T10:17:40.561Z</time></trkpt><trkpt lat="42.870934" lon="11.8808696"><ele>607.0</ele><time>2026-04-01T10:17:41.562Z</time></trkpt><trkpt lat="42.8709579" lon="11.8810762"><ele>607.0</ele><time>2026-04-01T10:17:42.561Z</time></trkpt><trkpt lat="42.8709777" lon="11.8812921"><ele>607.0</ele><time>2026-04-01T10:17:43.562Z</time></trkpt><trkpt lat="42.8709807" lon="11.8815226"><ele>605.6666666666667</ele><time>2026-04-01T10:17:44.561Z</time></trkpt><trkpt lat="42.8709671" lon="11.8817358"><ele>604.3333333333334</ele><time>2026-04-01T10:17:45.562Z</time></trkpt><trkpt lat="42.8709561" lon="11.881948"><ele>603.0</ele><time>2026-04-01T10:17:46.562Z</time></trkpt><trkpt lat="42.8709309" lon="11.8822546"><ele>604.6666666666666</ele><time>2026-04-01T10:17:48.561Z</time></trkpt><trkpt lat="42.8709188" lon="11.8823791"><ele>606.3333333333334</ele><time>2026-04-01T10:17:49.561Z</time></trkpt><trkpt lat="42.8709406" lon="11.8824716"><ele>608.0</ele><time>2026-04-01T10:17:50.562Z</time></trkpt><trkpt lat="42.8709888" lon="11.8825747"><ele>609.6666666666667</ele><time>2026-04-01T10:17:51.561Z</time></trkpt><trkpt lat="42.8710322" lon="11.8826754"><ele>611.3333333333334</ele><time>2026-04-01T10:17:52.561Z</time></trkpt><trkpt lat="42.8710635" lon="11.8827771"><ele>613.0</ele><time>2026-04-01T10:17:53.562Z</time></trkpt><trkpt lat="42.8710904" lon="11.8828908"><ele>616.0</ele><time>2026-04-01T10:17:54.563Z</time></trkpt><trkpt lat="42.8710867" lon="11.8830413"><ele>619.0</ele><time>2026-04-01T10:17:55.561Z</time></trkpt><trkpt lat="42.8710869" lon="11.8832268"><ele>622.0</ele><time>2026-04-01T10:17:56.563Z</time></trkpt><trkpt lat="42.8710829" lon="11.8834237"><ele>625.0</ele><time>2026-04-01T10:17:57.562Z</time></trkpt><trkpt lat="42.8711083" lon="11.8836135"><ele>625.0</ele><time>2026-04-01T10:17:58.561Z</time></trkpt><trkpt lat="42.8711304" lon="11.8838031"><ele>625.0</ele><time>2026-04-01T10:17:59.561Z</time></trkpt><trkpt lat="42.8711332" lon="11.8839963"><ele>625.0</ele><time>2026-04-01T10:18:00.562Z</time></trkpt><trkpt lat="42.8711354" lon="11.8842029"><ele>625.0</ele><time>2026-04-01T10:18:01.563Z</time></trkpt><trkpt lat="42.8711333" lon="11.8843942"><ele>625.3333333333334</ele><time>2026-04-01T10:18:02.563Z</time></trkpt><trkpt lat="42.8711086" lon="11.884584"><ele>625.6666666666666</ele><time>2026-04-01T10:18:03.562Z</time></trkpt><trkpt lat="42.8710953" lon="11.8847834"><ele>626.0</ele><time>2026-04-01T10:18:04.563Z</time></trkpt><trkpt lat="42.8710864" lon="11.8850096"><ele>625.0</ele><time>2026-04-01T10:18:05.562Z</time></trkpt><trkpt lat="42.8710857" lon="11.885258"><ele>624.0</ele><time>2026-04-01T10:18:06.563Z</time></trkpt><trkpt lat="42.87108" lon="11.8855084"><ele>623.0</ele><time>2026-04-01T10:18:07.562Z</time></trkpt><trkpt lat="42.871087" lon="11.8857432"><ele>625.3333333333333</ele><time>2026-04-01T10:18:08.562Z</time></trkpt><trkpt lat="42.8710809" lon="11.8859817"><ele>627.6666666666666</ele><time>2026-04-01T10:18:09.562Z</time></trkpt><trkpt lat="42.8710706" lon="11.8862032"><ele>630.0</ele><time>2026-04-01T10:18:10.561Z</time></trkpt><trkpt lat="42.8710541" lon="11.8864021"><ele>630.0</ele><time>2026-04-01T10:18:11.561Z</time></trkpt><trkpt lat="42.8710399" lon="11.8865777"><ele>630.0</ele><time>2026-04-01T10:18:12.561Z</time></trkpt><trkpt lat="42.8710342" lon="11.8867515"><ele>630.0</ele><time>2026-04-01T10:18:13.561Z</time></trkpt><trkpt lat="42.871046" lon="11.8869227"><ele>630.0</ele><time>2026-04-01T10:18:14.562Z</time></trkpt><trkpt lat="42.8710702" lon="11.8870697"><ele>632.25</ele><time>2026-04-01T10:18:15.562Z</time></trkpt><trkpt lat="42.8711246" lon="11.8872094"><ele>634.5</ele><time>2026-04-01T10:18:16.562Z</time></trkpt><trkpt lat="42.8711922" lon="11.8873517"><ele>636.75</ele><time>2026-04-01T10:18:17.56Z</time></trkpt><trkpt lat="42.8712503" lon="11.8874937"><ele>639.0</ele><time>2026-04-01T10:18:18.561Z</time></trkpt><trkpt lat="42.8713026" lon="11.8876235"><ele>640.0</ele><time>2026-04-01T10:18:19.561Z</time></trkpt><trkpt lat="42.8713155" lon="11.8877743"><ele>641.0</ele><time>2026-04-01T10:18:20.562Z</time></trkpt><trkpt lat="42.8713292" lon="11.8879491"><ele>642.0</ele><time>2026-04-01T10:18:21.563Z</time></trkpt><trkpt lat="42.8713388" lon="11.8881644"><ele>643.0</ele><time>2026-04-01T10:18:22.561Z</time></trkpt><trkpt lat="42.8713488" lon="11.8883717"><ele>644.3333333333334</ele><time>2026-04-01T10:18:23.563Z</time></trkpt><trkpt lat="42.8713641" lon="11.8885875"><ele>645.6666666666666</ele><time>2026-04-01T10:18:24.562Z</time></trkpt><trkpt lat="42.8714058" lon="11.8887915"><ele>647.0</ele><time>2026-04-01T10:18:25.562Z</time></trkpt><trkpt lat="42.871456" lon="11.8889977"><ele>647.0</ele><time>2026-04-01T10:18:26.562Z</time></trkpt><trkpt lat="42.8715219" lon="11.889224"><ele>647.0</ele><time>2026-04-01T10:18:27.563Z</time></trkpt><trkpt lat="42.8716072" lon="11.8894435"><ele>647.0</ele><time>2026-04-01T10:18:28.562Z</time></trkpt><trkpt lat="42.8716907" lon="11.8896502"><ele>648.0</ele><time>2026-04-01T10:18:29.563Z</time></trkpt><trkpt lat="42.8717722" lon="11.8898519"><ele>649.0</ele><time>2026-04-01T10:18:30.562Z</time></trkpt><trkpt lat="42.8718544" lon="11.8900243"><ele>650.0</ele><time>2026-04-01T10:18:31.562Z</time></trkpt><trkpt lat="42.8719776" lon="11.8903344"><ele>652.6</ele><time>2026-04-01T10:18:33.562Z</time></trkpt><trkpt lat="42.8720262" lon="11.8904535"><ele>655.2</ele><time>2026-04-01T10:18:34.562Z</time></trkpt><trkpt lat="42.8720663" lon="11.8905498"><ele>657.8</ele><time>2026-04-01T10:18:35.562Z</time></trkpt><trkpt lat="42.8720925" lon="11.8906375"><ele>660.4</ele><time>2026-04-01T10:18:36.562Z</time></trkpt><trkpt lat="42.8721112" lon="11.8907921"><ele>663.0</ele><time>2026-04-01T10:18:38.561Z</time></trkpt><trkpt lat="42.8720484" lon="11.890887"><ele>665.8333333333334</ele><time>2026-04-01T10:18:40.563Z</time></trkpt><trkpt lat="42.8719872" lon="11.8909455"><ele>668.6666666666666</ele><time>2026-04-01T10:18:42.561Z</time></trkpt><trkpt lat="42.8719665" lon="11.8910301"><ele>671.5</ele><time>2026-04-01T10:18:44.562Z</time></trkpt><trkpt lat="42.8720069" lon="11.8911198"><ele>674.3333333333333</ele><time>2026-04-01T10:18:46.563Z</time></trkpt><trkpt lat="42.8720599" lon="11.8911727"><ele>677.1666666666666</ele><time>2026-04-01T10:18:47.561Z</time></trkpt><trkpt lat="42.8721375" lon="11.8912605"><ele>680.0</ele><time>2026-04-01T10:18:49.562Z</time></trkpt><trkpt lat="42.8722405" lon="11.8913469"><ele>680.0</ele><time>2026-04-01T10:18:51.563Z</time></trkpt><trkpt lat="42.8722891" lon="11.8914665"><ele>680.0</ele><time>2026-04-01T10:18:53.562Z</time></trkpt><trkpt lat="42.8722683" lon="11.8915781"><ele>680.0</ele><time>2026-04-01T10:18:55.562Z</time></trkpt><trkpt lat="42.872196" lon="11.8916125"><ele>680.0</ele><time>2026-04-01T10:18:57.562Z</time></trkpt><trkpt lat="42.8721038" lon="11.8916718"><ele>680.0</ele><time>2026-04-01T10:18:59.562Z</time></trkpt><trkpt lat="42.8720091" lon="11.8917771"><ele>681.8333333333333</ele><time>2026-04-01T10:19:01.562Z</time></trkpt><trkpt lat="42.8719515" lon="11.8918611"><ele>683.6666666666666</ele><time>2026-04-01T10:19:02.561Z</time></trkpt><trkpt lat="42.8718893" lon="11.8919661"><ele>685.5</ele><time>2026-04-01T10:19:03.562Z</time></trkpt><trkpt lat="42.8718481" lon="11.8920588"><ele>687.3333333333334</ele><time>2026-04-01T10:19:04.563Z</time></trkpt><trkpt lat="42.8718241" lon="11.8921637"><ele>689.1666666666667</ele><time>2026-04-01T10:19:05.563Z</time></trkpt><trkpt lat="42.8718294" lon="11.8922718"><ele>691.0</ele><time>2026-04-01T10:19:06.563Z</time></trkpt><trkpt lat="42.8718572" lon="11.8923645"><ele>691.0</ele><time>2026-04-01T10:19:07.561Z</time></trkpt><trkpt lat="42.8719041" lon="11.8924499"><ele>691.0</ele><time>2026-04-01T10:19:08.562Z</time></trkpt><trkpt lat="42.8719681" lon="11.8925219"><ele>691.0</ele><time>2026-04-01T10:19:09.562Z</time></trkpt><trkpt lat="42.8720251" lon="11.8926059"><ele>691.0</ele><time>2026-04-01T10:19:10.562Z</time></trkpt><trkpt lat="42.8720618" lon="11.8926973"><ele>691.0</ele><time>2026-04-01T10:19:11.561Z</time></trkpt><trkpt lat="42.8720637" lon="11.8927948"><ele>691.0</ele><time>2026-04-01T10:19:12.562Z</time></trkpt><trkpt lat="42.8720543" lon="11.8928832"><ele>692.7142857142857</ele><time>2026-04-01T10:19:13.563Z</time></trkpt><trkpt lat="42.8720316" lon="11.8929747"><ele>694.4285714285714</ele><time>2026-04-01T10:19:14.562Z</time></trkpt><trkpt lat="42.8720154" lon="11.8930733"><ele>696.1428571428571</ele><time>2026-04-01T10:19:15.563Z</time></trkpt><trkpt lat="42.8720152" lon="11.89316"><ele>697.8571428571429</ele><time>2026-04-01T10:19:16.562Z</time></trkpt><trkpt lat="42.8720388" lon="11.8932486"><ele>699.5714285714286</ele><time>2026-04-01T10:19:17.562Z</time></trkpt><trkpt lat="42.8720779" lon="11.8933223"><ele>701.2857142857142</ele><time>2026-04-01T10:19:18.561Z</time></trkpt><trkpt lat="42.8721288" lon="11.8933972"><ele>703.0</ele><time>2026-04-01T10:19:19.562Z</time></trkpt><trkpt lat="42.872182" lon="11.8934935"><ele>705.0</ele><time>2026-04-01T10:19:20.563Z</time></trkpt><trkpt lat="42.8722312" lon="11.8936181"><ele>707.0</ele><time>2026-04-01T10:19:21.562Z</time></trkpt><trkpt lat="42.8722764" lon="11.8937441"><ele>709.0</ele><time>2026-04-01T10:19:22.563Z</time></trkpt><trkpt lat="42.8723173" lon="11.8938895"><ele>711.0</ele><time>2026-04-01T10:19:23.563Z</time></trkpt><trkpt lat="42.8723383" lon="11.8940373"><ele>713.0</ele><time>2026-04-01T10:19:24.563Z</time></trkpt><trkpt lat="42.8723569" lon="11.894197"><ele>715.25</ele><time>2026-04-01T10:19:25.563Z</time></trkpt><trkpt lat="42.8723505" lon="11.8943659"><ele>717.5</ele><time>2026-04-01T10:19:26.562Z</time></trkpt><trkpt lat="42.8723318" lon="11.8945567"><ele>719.75</ele><time>2026-04-01T10:19:27.562Z</time></trkpt><trkpt lat="42.8722989" lon="11.8947578"><ele>722.0</ele><time>2026-04-01T10:19:28.563Z</time></trkpt><trkpt lat="42.8722704" lon="11.8949219"><ele>722.0</ele><time>2026-04-01T10:19:29.563Z</time></trkpt><trkpt lat="42.8722536" lon="11.8950645"><ele>722.0</ele><time>2026-04-01T10:19:30.562Z</time></trkpt><trkpt lat="42.872231" lon="11.8952058"><ele>722.0</ele><time>2026-04-01T10:19:31.561Z</time></trkpt><trkpt lat="42.8722226" lon="11.8954074"><ele>722.0</ele><time>2026-04-01T10:19:33.563Z</time></trkpt><trkpt lat="42.8722316" lon="11.8955044"><ele>722.0</ele><time>2026-04-01T10:19:34.562Z</time></trkpt><trkpt lat="42.8722548" lon="11.8955972"><ele>722.5</ele><time>2026-04-01T10:19:35.563Z</time></trkpt><trkpt lat="42.8723389" lon="11.8957367"><ele>723.0</ele><time>2026-04-01T10:19:37.563Z</time></trkpt><trkpt lat="42.872428" lon="11.8957954"><ele>723.5</ele><time>2026-04-01T10:19:38.562Z</time></trkpt><trkpt lat="42.8725271" lon="11.8958325"><ele>724.0</ele><time>2026-04-01T10:19:39.564Z</time></trkpt><trkpt lat="42.8726466" lon="11.8958343"><ele>724.0</ele><time>2026-04-01T10:19:40.563Z</time></trkpt><trkpt lat="42.8727598" lon="11.8958455"><ele>724.0</ele><time>2026-04-01T10:19:41.563Z</time></trkpt><trkpt lat="42.8728678" lon="11.8958513"><ele>724.0</ele><time>2026-04-01T10:19:42.563Z</time></trkpt><trkpt lat="42.8729625" lon="11.8958587"><ele>724.0</ele><time>2026-04-01T10:19:43.563Z</time></trkpt><trkpt lat="42.8730489" lon="11.8958639"><ele>724.0</ele><time>2026-04-01T10:19:44.563Z</time></trkpt><trkpt lat="42.8731228" lon="11.8958634"><ele>724.0</ele><time>2026-04-01T10:19:45.563Z</time></trkpt><trkpt lat="42.8731911" lon="11.895873"><ele>724.0</ele><time>2026-04-01T10:19:46.563Z</time></trkpt><trkpt lat="42.8732633" lon="11.8958767"><ele>724.0</ele><time>2026-04-01T10:19:47.562Z</time></trkpt><trkpt lat="42.8733361" lon="11.8958854"><ele>724.0</ele><time>2026-04-01T10:19:48.562Z</time></trkpt><trkpt lat="42.8734008" lon="11.8958924"><ele>724.0</ele><time>2026-04-01T10:19:49.563Z</time></trkpt><trkpt lat="42.8734687" lon="11.8959136"><ele>724.0</ele><time>2026-04-01T10:19:50.563Z</time></trkpt><trkpt lat="42.8735547" lon="11.895933"><ele>724.0</ele><time>2026-04-01T10:19:51.564Z</time></trkpt><trkpt lat="42.873646" lon="11.8959607"><ele>722.5</ele><time>2026-04-01T10:19:52.563Z</time></trkpt><trkpt lat="42.8737821" lon="11.8959974"><ele>721.0</ele><time>2026-04-01T10:19:53.561Z</time></trkpt><trkpt lat="42.8739265" lon="11.8960679"><ele>719.5</ele><time>2026-04-01T10:19:54.562Z</time></trkpt><trkpt lat="42.8740701" lon="11.8961534"><ele>718.0</ele><time>2026-04-01T10:19:55.562Z</time></trkpt><trkpt lat="42.8741753" lon="11.8962713"><ele>717.0</ele><time>2026-04-01T10:19:56.562Z</time></trkpt><trkpt lat="42.8742783" lon="11.8964001"><ele>716.0</ele><time>2026-04-01T10:19:57.562Z</time></trkpt><trkpt lat="42.8743731" lon="11.8965252"><ele>715.0</ele><time>2026-04-01T10:19:58.563Z</time></trkpt><trkpt lat="42.8744711" lon="11.8966432"><ele>714.0</ele><time>2026-04-01T10:19:59.561Z</time></trkpt><trkpt lat="42.874594" lon="11.8967531"><ele>714.0</ele><time>2026-04-01T10:20:00.561Z</time></trkpt><trkpt lat="42.874736" lon="11.896853"><ele>714.0</ele><time>2026-04-01T10:20:01.562Z</time></trkpt><trkpt lat="42.8749176" lon="11.8969459"><ele>714.0</ele><time>2026-04-01T10:20:02.564Z</time></trkpt><trkpt lat="42.8751048" lon="11.8970526"><ele>716.6666666666666</ele><time>2026-04-01T10:20:03.563Z</time></trkpt><trkpt lat="42.8753004" lon="11.8971773"><ele>719.3333333333333</ele><time>2026-04-01T10:20:04.562Z</time></trkpt><trkpt lat="42.8755083" lon="11.8973055"><ele>722.0</ele><time>2026-04-01T10:20:05.561Z</time></trkpt><trkpt lat="42.8757043" lon="11.8974314"><ele>722.0</ele><time>2026-04-01T10:20:06.563Z</time></trkpt><trkpt lat="42.8758637" lon="11.8975338"><ele>722.0</ele><time>2026-04-01T10:20:07.561Z</time></trkpt><trkpt lat="42.8760204" lon="11.8976404"><ele>722.0</ele><time>2026-04-01T10:20:08.563Z</time></trkpt><trkpt lat="42.8761163" lon="11.8977439"><ele>722.25</ele><time>2026-04-01T10:20:09.564Z</time></trkpt><trkpt lat="42.8762082" lon="11.8978146"><ele>722.5</ele><time>2026-04-01T10:20:10.562Z</time></trkpt><trkpt lat="42.8763265" lon="11.8979118"><ele>722.75</ele><time>2026-04-01T10:20:11.562Z</time></trkpt><trkpt lat="42.8764547" lon="11.8980014"><ele>723.0</ele><time>2026-04-01T10:20:12.562Z</time></trkpt><trkpt lat="42.8766011" lon="11.8980445"><ele>723.0</ele><time>2026-04-01T10:20:13.562Z</time></trkpt><trkpt lat="42.8767523" lon="11.8981011"><ele>723.0</ele><time>2026-04-01T10:20:14.564Z</time></trkpt><trkpt lat="42.8769268" lon="11.8980779"><ele>723.0</ele><time>2026-04-01T10:20:15.564Z</time></trkpt><trkpt lat="42.8770894" lon="11.8980929"><ele>725.0</ele><time>2026-04-01T10:20:16.562Z</time></trkpt><trkpt lat="42.8772221" lon="11.8980935"><ele>727.0</ele><time>2026-04-01T10:20:17.563Z</time></trkpt><trkpt lat="42.87738" lon="11.8981894"><ele>729.0</ele><time>2026-04-01T10:20:18.564Z</time></trkpt><trkpt lat="42.8775288" lon="11.8982429"><ele>730.0</ele><time>2026-04-01T10:20:19.561Z</time></trkpt><trkpt lat="42.8776508" lon="11.8983509"><ele>731.0</ele><time>2026-04-01T10:20:20.563Z</time></trkpt><trkpt lat="42.8777694" lon="11.8984205"><ele>732.0</ele><time>2026-04-01T10:20:21.563Z</time></trkpt><trkpt lat="42.8778908" lon="11.8984816"><ele>733.0</ele><time>2026-04-01T10:20:22.563Z</time></trkpt><trkpt lat="42.8780138" lon="11.8984812"><ele>733.0</ele><time>2026-04-01T10:20:23.562Z</time></trkpt><trkpt lat="42.878175" lon="11.8984456"><ele>733.0</ele><time>2026-04-01T10:20:24.562Z</time></trkpt><trkpt lat="42.87833" lon="11.898396"><ele>733.0</ele><time>2026-04-01T10:20:25.562Z</time></trkpt><trkpt lat="42.8784772" lon="11.8983422"><ele>734.3333333333334</ele><time>2026-04-01T10:20:26.563Z</time></trkpt><trkpt lat="42.8786219" lon="11.8982855"><ele>735.6666666666666</ele><time>2026-04-01T10:20:27.563Z</time></trkpt><trkpt lat="42.8787753" lon="11.8982954"><ele>737.0</ele><time>2026-04-01T10:20:28.563Z</time></trkpt><trkpt lat="42.8789426" lon="11.89829"><ele>737.0</ele><time>2026-04-01T10:20:29.563Z</time></trkpt><trkpt lat="42.879119" lon="11.8983353"><ele>737.0</ele><time>2026-04-01T10:20:30.563Z</time></trkpt><trkpt lat="42.8793133" lon="11.8983677"><ele>737.0</ele><time>2026-04-01T10:20:31.563Z</time></trkpt><trkpt lat="42.8794976" lon="11.8983918"><ele>736.6666666666666</ele><time>2026-04-01T10:20:32.563Z</time></trkpt><trkpt lat="42.8796864" lon="11.8984122"><ele>736.3333333333334</ele><time>2026-04-01T10:20:33.562Z</time></trkpt><trkpt lat="42.8798541" lon="11.898434"><ele>736.0</ele><time>2026-04-01T10:20:34.564Z</time></trkpt><trkpt lat="42.8800218" lon="11.898453"><ele>737.0</ele><time>2026-04-01T10:20:35.562Z</time></trkpt><trkpt lat="42.8802014" lon="11.8984548"><ele>738.0</ele><time>2026-04-01T10:20:36.563Z</time></trkpt><trkpt lat="42.8803663" lon="11.8984586"><ele>739.0</ele><time>2026-04-01T10:20:37.563Z</time></trkpt><trkpt lat="42.8805392" lon="11.8984473"><ele>739.0</ele><time>2026-04-01T10:20:38.563Z</time></trkpt><trkpt lat="42.8807101" lon="11.8984366"><ele>739.0</ele><time>2026-04-01T10:20:39.562Z</time></trkpt><trkpt lat="42.8808471" lon="11.8984422"><ele>739.0</ele><time>2026-04-01T10:20:40.562Z</time></trkpt><trkpt lat="42.8809788" lon="11.8984364"><ele>739.0</ele><time>2026-04-01T10:20:41.562Z</time></trkpt><trkpt lat="42.8810763" lon="11.8984677"><ele>736.75</ele><time>2026-04-01T10:20:42.563Z</time></trkpt><trkpt lat="42.8811843" lon="11.898518"><ele>734.5</ele><time>2026-04-01T10:20:43.562Z</time></trkpt><trkpt lat="42.8812956" lon="11.8985634"><ele>732.25</ele><time>2026-04-01T10:20:44.562Z</time></trkpt><trkpt lat="42.8814128" lon="11.8986763"><ele>730.0</ele><time>2026-04-01T10:20:45.562Z</time></trkpt><trkpt lat="42.8815308" lon="11.8987891"><ele>730.0</ele><time>2026-04-01T10:20:46.563Z</time></trkpt><trkpt lat="42.8816627" lon="11.8989535"><ele>730.0</ele><time>2026-04-01T10:20:47.563Z</time></trkpt><trkpt lat="42.8817912" lon="11.8990804"><ele>730.0</ele><time>2026-04-01T10:20:48.562Z</time></trkpt><trkpt lat="42.8819068" lon="11.899216"><ele>727.75</ele><time>2026-04-01T10:20:49.562Z</time></trkpt><trkpt lat="42.882018" lon="11.8993271"><ele>725.5</ele><time>2026-04-01T10:20:50.564Z</time></trkpt><trkpt lat="42.8821227" lon="11.8994587"><ele>723.25</ele><time>2026-04-01T10:20:51.563Z</time></trkpt><trkpt lat="42.8821888" lon="11.8996004"><ele>721.0</ele><time>2026-04-01T10:20:52.563Z</time></trkpt><trkpt lat="42.8822557" lon="11.8997306"><ele>721.0</ele><time>2026-04-01T10:20:53.563Z</time></trkpt><trkpt lat="42.8823034" lon="11.8999008"><ele>721.0</ele><time>2026-04-01T10:20:54.562Z</time></trkpt><trkpt lat="42.8823145" lon="11.9000491"><ele>721.0</ele><time>2026-04-01T10:20:55.562Z</time></trkpt><trkpt lat="42.8823075" lon="11.9001858"><ele>721.0</ele><time>2026-04-01T10:20:56.564Z</time></trkpt><trkpt lat="42.882311" lon="11.9003253"><ele>721.0</ele><time>2026-04-01T10:20:57.562Z</time></trkpt><trkpt lat="42.8823404" lon="11.9004956"><ele>720.0</ele><time>2026-04-01T10:20:58.564Z</time></trkpt><trkpt lat="42.8823475" lon="11.9006448"><ele>719.0</ele><time>2026-04-01T10:20:59.564Z</time></trkpt><trkpt lat="42.8824014" lon="11.9008173"><ele>718.0</ele><time>2026-04-01T10:21:00.564Z</time></trkpt><trkpt lat="42.8824426" lon="11.9010208"><ele>717.0</ele><time>2026-04-01T10:21:01.563Z</time></trkpt><trkpt lat="42.8825354" lon="11.9012202"><ele>717.0</ele><time>2026-04-01T10:21:02.562Z</time></trkpt><trkpt lat="42.8825992" lon="11.901392"><ele>717.0</ele><time>2026-04-01T10:21:03.562Z</time></trkpt><trkpt lat="42.8826695" lon="11.9015743"><ele>717.0</ele><time>2026-04-01T10:21:04.562Z</time></trkpt><trkpt lat="42.8827366" lon="11.9017514"><ele>717.0</ele><time>2026-04-01T10:21:05.561Z</time></trkpt><trkpt lat="42.882787" lon="11.9019279"><ele>715.25</ele><time>2026-04-01T10:21:06.564Z</time></trkpt><trkpt lat="42.8828073" lon="11.9020896"><ele>713.5</ele><time>2026-04-01T10:21:07.563Z</time></trkpt><trkpt lat="42.8828365" lon="11.9022393"><ele>711.75</ele><time>2026-04-01T10:21:08.562Z</time></trkpt><trkpt lat="42.8828664" lon="11.9024031"><ele>710.0</ele><time>2026-04-01T10:21:09.562Z</time></trkpt><trkpt lat="42.8828868" lon="11.9025544"><ele>707.8</ele><time>2026-04-01T10:21:10.563Z</time></trkpt><trkpt lat="42.8828201" lon="11.9026794"><ele>705.6</ele><time>2026-04-01T10:21:11.563Z</time></trkpt><trkpt lat="42.8827863" lon="11.9028216"><ele>703.4000000000001</ele><time>2026-04-01T10:21:12.563Z</time></trkpt><trkpt lat="42.8827865" lon="11.9029883"><ele>701.2</ele><time>2026-04-01T10:21:13.562Z</time></trkpt><trkpt lat="42.882807" lon="11.9030719"><ele>699.0</ele><time>2026-04-01T10:21:14.563Z</time></trkpt><trkpt lat="42.8828477" lon="11.9031898"><ele>699.0</ele><time>2026-04-01T10:21:15.563Z</time></trkpt><trkpt lat="42.8828852" lon="11.903301"><ele>699.0</ele><time>2026-04-01T10:21:16.563Z</time></trkpt><trkpt lat="42.8829559" lon="11.9034236"><ele>699.0</ele><time>2026-04-01T10:21:17.562Z</time></trkpt><trkpt lat="42.8830538" lon="11.9035401"><ele>699.0</ele><time>2026-04-01T10:21:18.562Z</time></trkpt><trkpt lat="42.8831548" lon="11.9036831"><ele>695.75</ele><time>2026-04-01T10:21:19.563Z</time></trkpt><trkpt lat="42.883237" lon="11.9038252"><ele>692.5</ele><time>2026-04-01T10:21:20.563Z</time></trkpt><trkpt lat="42.8833016" lon="11.903977"><ele>689.25</ele><time>2026-04-01T10:21:21.562Z</time></trkpt><trkpt lat="42.8833514" lon="11.9041148"><ele>686.0</ele><time>2026-04-01T10:21:22.563Z</time></trkpt><trkpt lat="42.8833979" lon="11.9042657"><ele>683.4</ele><time>2026-04-01T10:21:23.563Z</time></trkpt><trkpt lat="42.8834289" lon="11.9044092"><ele>680.8</ele><time>2026-04-01T10:21:24.563Z</time></trkpt><trkpt lat="42.8834598" lon="11.9045397"><ele>678.1999999999999</ele><time>2026-04-01T10:21:25.563Z</time></trkpt><trkpt lat="42.8834894" lon="11.9046674"><ele>675.5999999999999</ele><time>2026-04-01T10:21:26.563Z</time></trkpt><trkpt lat="42.8835203" lon="11.9048044"><ele>673.0</ele><time>2026-04-01T10:21:27.564Z</time></trkpt><trkpt lat="42.8835713" lon="11.9049206"><ele>673.0</ele><time>2026-04-01T10:21:28.563Z</time></trkpt><trkpt lat="42.8836249" lon="11.90503"><ele>673.0</ele><time>2026-04-01T10:21:29.564Z</time></trkpt><trkpt lat="42.8836964" lon="11.9051217"><ele>673.0</ele><time>2026-04-01T10:21:30.563Z</time></trkpt><trkpt lat="42.8837713" lon="11.9051963"><ele>673.0</ele><time>2026-04-01T10:21:31.563Z</time></trkpt><trkpt lat="42.8838583" lon="11.905255"><ele>673.0</ele><time>2026-04-01T10:21:32.562Z</time></trkpt><trkpt lat="42.8839544" lon="11.905302"><ele>671.25</ele><time>2026-04-01T10:21:33.563Z</time></trkpt><trkpt lat="42.8840782" lon="11.9053137"><ele>669.5</ele><time>2026-04-01T10:21:34.562Z</time></trkpt><trkpt lat="42.8842176" lon="11.9053301"><ele>667.75</ele><time>2026-04-01T10:21:35.562Z</time></trkpt><trkpt lat="42.8843521" lon="11.9053527"><ele>666.0</ele><time>2026-04-01T10:21:36.563Z</time></trkpt><trkpt lat="42.8844749" lon="11.9053847"><ele>665.0</ele><time>2026-04-01T10:21:37.564Z</time></trkpt><trkpt lat="42.8845885" lon="11.9054126"><ele>664.0</ele><time>2026-04-01T10:21:38.564Z</time></trkpt><trkpt lat="42.8846843" lon="11.9054521"><ele>663.0</ele><time>2026-04-01T10:21:39.562Z</time></trkpt><trkpt lat="42.8847758" lon="11.9055177"><ele>662.0</ele><time>2026-04-01T10:21:40.564Z</time></trkpt><trkpt lat="42.8848299" lon="11.9056218"><ele>661.0</ele><time>2026-04-01T10:21:41.563Z</time></trkpt><trkpt lat="42.8848893" lon="11.9057239"><ele>661.0</ele><time>2026-04-01T10:21:42.563Z</time></trkpt><trkpt lat="42.8849367" lon="11.9058377"><ele>661.0</ele><time>2026-04-01T10:21:43.562Z</time></trkpt><trkpt lat="42.8849727" lon="11.905952"><ele>661.0</ele><time>2026-04-01T10:21:44.564Z</time></trkpt><trkpt lat="42.8850065" lon="11.9060955"><ele>661.0</ele><time>2026-04-01T10:21:45.563Z</time></trkpt><trkpt lat="42.8850335" lon="11.9062655"><ele>661.0</ele><time>2026-04-01T10:21:46.564Z</time></trkpt><trkpt lat="42.8850677" lon="11.9064464"><ele>656.5</ele><time>2026-04-01T10:21:47.562Z</time></trkpt><trkpt lat="42.885104" lon="11.9066211"><ele>652.0</ele><time>2026-04-01T10:21:48.563Z</time></trkpt><trkpt lat="42.885146" lon="11.9067816"><ele>647.5</ele><time>2026-04-01T10:21:49.564Z</time></trkpt><trkpt lat="42.8852046" lon="11.9069414"><ele>643.0</ele><time>2026-04-01T10:21:50.563Z</time></trkpt><trkpt lat="42.8852698" lon="11.9070928"><ele>643.0</ele><time>2026-04-01T10:21:51.562Z</time></trkpt><trkpt lat="42.8853557" lon="11.9072252"><ele>643.0</ele><time>2026-04-01T10:21:52.561Z</time></trkpt><trkpt lat="42.885445" lon="11.9073392"><ele>643.0</ele><time>2026-04-01T10:21:53.564Z</time></trkpt><trkpt lat="42.8855412" lon="11.9074683"><ele>643.0</ele><time>2026-04-01T10:21:54.563Z</time></trkpt><trkpt lat="42.8856229" lon="11.9076377"><ele>643.0</ele><time>2026-04-01T10:21:55.564Z</time></trkpt><trkpt lat="42.8857168" lon="11.9078117"><ele>643.0</ele><time>2026-04-01T10:21:56.563Z</time></trkpt><trkpt lat="42.8858164" lon="11.908003"><ele>643.0</ele><time>2026-04-01T10:21:57.564Z</time></trkpt><trkpt lat="42.8859122" lon="11.9081853"><ele>639.75</ele><time>2026-04-01T10:21:58.562Z</time></trkpt><trkpt lat="42.8860015" lon="11.9083587"><ele>636.5</ele><time>2026-04-01T10:21:59.563Z</time></trkpt><trkpt lat="42.886082" lon="11.9085188"><ele>633.25</ele><time>2026-04-01T10:22:00.562Z</time></trkpt><trkpt lat="42.8861475" lon="11.9086531"><ele>630.0</ele><time>2026-04-01T10:22:01.562Z</time></trkpt><trkpt lat="42.8862111" lon="11.9087807"><ele>630.0</ele><time>2026-04-01T10:22:02.562Z</time></trkpt><trkpt lat="42.8862545" lon="11.9089245"><ele>630.0</ele><time>2026-04-01T10:22:03.561Z</time></trkpt><trkpt lat="42.8862942" lon="11.909063"><ele>630.0</ele><time>2026-04-01T10:22:04.563Z</time></trkpt><trkpt lat="42.8863279" lon="11.9092146"><ele>630.0</ele><time>2026-04-01T10:22:05.564Z</time></trkpt><trkpt lat="42.886354" lon="11.9093746"><ele>629.0</ele><time>2026-04-01T10:22:06.563Z</time></trkpt><trkpt lat="42.8863699" lon="11.9095469"><ele>628.0</ele><time>2026-04-01T10:22:07.562Z</time></trkpt><trkpt lat="42.8863885" lon="11.9097242"><ele>627.0</ele><time>2026-04-01T10:22:08.563Z</time></trkpt><trkpt lat="42.8864085" lon="11.9098821"><ele>626.0</ele><time>2026-04-01T10:22:09.563Z</time></trkpt><trkpt lat="42.8864227" lon="11.9100511"><ele>625.25</ele><time>2026-04-01T10:22:10.563Z</time></trkpt><trkpt lat="42.8864369" lon="11.9102234"><ele>624.5</ele><time>2026-04-01T10:22:11.563Z</time></trkpt><trkpt lat="42.8864485" lon="11.9103935"><ele>623.75</ele><time>2026-04-01T10:22:12.564Z</time></trkpt><trkpt lat="42.8864624" lon="11.9105669"><ele>623.0</ele><time>2026-04-01T10:22:13.563Z</time></trkpt><trkpt lat="42.8864792" lon="11.9107393"><ele>622.0</ele><time>2026-04-01T10:22:14.563Z</time></trkpt><trkpt lat="42.8864818" lon="11.910921"><ele>621.0</ele><time>2026-04-01T10:22:15.563Z</time></trkpt><trkpt lat="42.8864833" lon="11.9110987"><ele>620.0</ele><time>2026-04-01T10:22:16.563Z</time></trkpt><trkpt lat="42.8864725" lon="11.9112918"><ele>619.0</ele><time>2026-04-01T10:22:17.562Z</time></trkpt><trkpt lat="42.8864634" lon="11.9114737"><ele>619.0</ele><time>2026-04-01T10:22:18.563Z</time></trkpt><trkpt lat="42.8864425" lon="11.9116437"><ele>619.0</ele><time>2026-04-01T10:22:19.564Z</time></trkpt><trkpt lat="42.8864292" lon="11.9117773"><ele>619.0</ele><time>2026-04-01T10:22:20.562Z</time></trkpt><trkpt lat="42.8864301" lon="11.9119106"><ele>619.0</ele><time>2026-04-01T10:22:21.563Z</time></trkpt><trkpt lat="42.8864402" lon="11.9120407"><ele>619.0</ele><time>2026-04-01T10:22:22.564Z</time></trkpt><trkpt lat="42.8864721" lon="11.9121764"><ele>619.5</ele><time>2026-04-01T10:22:23.562Z</time></trkpt><trkpt lat="42.8864991" lon="11.912316"><ele>620.0</ele><time>2026-04-01T10:22:24.563Z</time></trkpt><trkpt lat="42.8865282" lon="11.9124778"><ele>620.5</ele><time>2026-04-01T10:22:25.563Z</time></trkpt><trkpt lat="42.8865495" lon="11.9126379"><ele>621.0</ele><time>2026-04-01T10:22:26.563Z</time></trkpt><trkpt lat="42.8865693" lon="11.9128229"><ele>622.25</ele><time>2026-04-01T10:22:27.562Z</time></trkpt><trkpt lat="42.8865901" lon="11.9130089"><ele>623.5</ele><time>2026-04-01T10:22:28.563Z</time></trkpt><trkpt lat="42.8866214" lon="11.9132009"><ele>624.75</ele><time>2026-04-01T10:22:29.563Z</time></trkpt><trkpt lat="42.8866442" lon="11.9133851"><ele>626.0</ele><time>2026-04-01T10:22:30.562Z</time></trkpt><trkpt lat="42.8866649" lon="11.9135632"><ele>626.2</ele><time>2026-04-01T10:22:31.564Z</time></trkpt><trkpt lat="42.8866785" lon="11.9137345"><ele>626.4000000000001</ele><time>2026-04-01T10:22:32.565Z</time></trkpt><trkpt lat="42.8866871" lon="11.9138959"><ele>626.6</ele><time>2026-04-01T10:22:33.563Z</time></trkpt><trkpt lat="42.8866993" lon="11.9140644"><ele>626.8000000000001</ele><time>2026-04-01T10:22:34.563Z</time></trkpt><trkpt lat="42.8866837" lon="11.9141591"><ele>627.0</ele><time>2026-04-01T10:22:35.563Z</time></trkpt><trkpt lat="42.8866815" lon="11.9143066"><ele>628.0</ele><time>2026-04-01T10:22:36.564Z</time></trkpt><trkpt lat="42.8866918" lon="11.9144707"><ele>629.0</ele><time>2026-04-01T10:22:37.564Z</time></trkpt><trkpt lat="42.8867018" lon="11.9146338"><ele>630.0</ele><time>2026-04-01T10:22:38.564Z</time></trkpt><trkpt lat="42.8866957" lon="11.9147707"><ele>631.0</ele><time>2026-04-01T10:22:39.562Z</time></trkpt><trkpt lat="42.8866808" lon="11.9148789"><ele>632.0</ele><time>2026-04-01T10:22:40.564Z</time></trkpt><trkpt lat="42.8866742" lon="11.9149773"><ele>632.0</ele><time>2026-04-01T10:22:41.563Z</time></trkpt><trkpt lat="42.886673" lon="11.9151455"><ele>632.0</ele><time>2026-04-01T10:22:43.562Z</time></trkpt><trkpt lat="42.8865816" lon="11.9152243"><ele>632.0</ele><time>2026-04-01T10:22:46.563Z</time></trkpt><trkpt lat="42.8866451" lon="11.9152394"><ele>632.0</ele><time>2026-04-01T10:22:54.563Z</time></trkpt><trkpt lat="42.8866816" lon="11.9151489"><ele>632.0</ele><time>2026-04-01T10:22:56.563Z</time></trkpt><trkpt lat="42.886698" lon="11.9149807"><ele>632.0</ele><time>2026-04-01T10:22:58.564Z</time></trkpt><trkpt lat="42.8866934" lon="11.9148829"><ele>632.0</ele><time>2026-04-01T10:22:59.564Z</time></trkpt><trkpt lat="42.8866933" lon="11.9147691"><ele>632.0</ele><time>2026-04-01T10:23:00.563Z</time></trkpt><trkpt lat="42.8866807" lon="11.9146535"><ele>632.0</ele><time>2026-04-01T10:23:01.562Z</time></trkpt><trkpt lat="42.8866817" lon="11.9145286"><ele>632.0</ele><time>2026-04-01T10:23:02.564Z</time></trkpt><trkpt lat="42.8866683" lon="11.9144164"><ele>632.0</ele><time>2026-04-01T10:23:03.565Z</time></trkpt><trkpt lat="42.8866576" lon="11.9143036"><ele>631.0</ele><time>2026-04-01T10:23:04.564Z</time></trkpt><trkpt lat="42.8866554" lon="11.9141846"><ele>630.0</ele><time>2026-04-01T10:23:05.563Z</time></trkpt><trkpt lat="42.886691" lon="11.9139895"><ele>629.0</ele><time>2026-04-01T10:23:07.563Z</time></trkpt><trkpt lat="42.8866984" lon="11.9138721"><ele>628.0</ele><time>2026-04-01T10:23:08.563Z</time></trkpt><trkpt lat="42.8867285" lon="11.9137494"><ele>627.0</ele><time>2026-04-01T10:23:09.563Z</time></trkpt><trkpt lat="42.8867379" lon="11.9136395"><ele>627.0</ele><time>2026-04-01T10:23:10.563Z</time></trkpt><trkpt lat="42.8866937" lon="11.9135197"><ele>627.0</ele><time>2026-04-01T10:23:11.564Z</time></trkpt><trkpt lat="42.8867123" lon="11.9134115"><ele>627.0</ele><time>2026-04-01T10:23:12.563Z</time></trkpt><trkpt lat="42.8866902" lon="11.9133271"><ele>627.0</ele><time>2026-04-01T10:23:13.564Z</time></trkpt><trkpt lat="42.8866741" lon="11.9132415"><ele>627.0</ele><time>2026-04-01T10:23:14.563Z</time></trkpt><trkpt lat="42.8866635" lon="11.9130958"><ele>627.0</ele><time>2026-04-01T10:23:16.781Z</time></trkpt><trkpt lat="42.8866365" lon="11.9129333"><ele>626.8571428571429</ele><time>2026-04-01T10:23:18.563Z</time></trkpt><trkpt lat="42.8866331" lon="11.9128444"><ele>626.7142857142857</ele><time>2026-04-01T10:23:19.562Z</time></trkpt><trkpt lat="42.8866175" lon="11.9127562"><ele>626.5714285714286</ele><time>2026-04-01T10:23:20.564Z</time></trkpt><trkpt lat="42.8866062" lon="11.9126649"><ele>626.4285714285714</ele><time>2026-04-01T10:23:21.564Z</time></trkpt><trkpt lat="42.8865992" lon="11.912566"><ele>626.2857142857143</ele><time>2026-04-01T10:23:22.564Z</time></trkpt><trkpt lat="42.8865719" lon="11.9124464"><ele>626.1428571428571</ele><time>2026-04-01T10:23:24.564Z</time></trkpt><trkpt lat="42.8866162" lon="11.9123741"><ele>626.0</ele><time>2026-04-01T10:23:28.563Z</time></trkpt><trkpt lat="42.8866712" lon="11.9124692"><ele>626.0</ele><time>2026-04-01T10:23:30.562Z</time></trkpt><trkpt lat="42.8867328" lon="11.912645"><ele>626.0</ele><time>2026-04-01T10:23:32.564Z</time></trkpt><trkpt lat="42.8867616" lon="11.912767"><ele>626.0</ele><time>2026-04-01T10:23:33.563Z</time></trkpt><trkpt lat="42.8867722" lon="11.9129382"><ele>626.0</ele><time>2026-04-01T10:23:34.562Z</time></trkpt><trkpt lat="42.8867946" lon="11.9130995"><ele>621.0</ele><time>2026-04-01T10:23:35.564Z</time></trkpt><trkpt lat="42.8868267" lon="11.9132762"><ele>616.0</ele><time>2026-04-01T10:23:36.563Z</time></trkpt><trkpt lat="42.8868573" lon="11.9134756"><ele>611.0</ele><time>2026-04-01T10:23:37.563Z</time></trkpt><trkpt lat="42.8868902" lon="11.9136769"><ele>606.0</ele><time>2026-04-01T10:23:38.564Z</time></trkpt><trkpt lat="42.8869242" lon="11.9138748"><ele>606.0</ele><time>2026-04-01T10:23:39.563Z</time></trkpt><trkpt lat="42.8869766" lon="11.9140606"><ele>606.0</ele><time>2026-04-01T10:23:40.563Z</time></trkpt><trkpt lat="42.8870135" lon="11.914265"><ele>606.0</ele><time>2026-04-01T10:23:41.563Z</time></trkpt><trkpt lat="42.8871126" lon="11.9144925"><ele>609.0</ele><time>2026-04-01T10:23:42.564Z</time></trkpt><trkpt lat="42.8871903" lon="11.9147258"><ele>612.0</ele><time>2026-04-01T10:23:43.563Z</time></trkpt><trkpt lat="42.887271" lon="11.914945"><ele>615.0</ele><time>2026-04-01T10:23:44.563Z</time></trkpt><trkpt lat="42.8873528" lon="11.9151476"><ele>617.3333333333334</ele><time>2026-04-01T10:23:45.562Z</time></trkpt><trkpt lat="42.8874277" lon="11.9153398"><ele>619.6666666666667</ele><time>2026-04-01T10:23:46.564Z</time></trkpt><trkpt lat="42.8875043" lon="11.9155323"><ele>622.0</ele><time>2026-04-01T10:23:47.563Z</time></trkpt><trkpt lat="42.8875854" lon="11.9157188"><ele>614.3333333333334</ele><time>2026-04-01T10:23:48.563Z</time></trkpt><trkpt lat="42.8876653" lon="11.9159224"><ele>606.6666666666666</ele><time>2026-04-01T10:23:49.563Z</time></trkpt><trkpt lat="42.8877406" lon="11.9161363"><ele>599.0</ele><time>2026-04-01T10:23:50.562Z</time></trkpt><trkpt lat="42.8878266" lon="11.9163513"><ele>599.0</ele><time>2026-04-01T10:23:51.563Z</time></trkpt><trkpt lat="42.8879041" lon="11.9165512"><ele>599.0</ele><time>2026-04-01T10:23:52.563Z</time></trkpt><trkpt lat="42.8879788" lon="11.9167411"><ele>599.0</ele><time>2026-04-01T10:23:53.564Z</time></trkpt><trkpt lat="42.8880558" lon="11.9169202"><ele>600.6666666666666</ele><time>2026-04-01T10:23:54.564Z</time></trkpt><trkpt lat="42.888134" lon="11.9171048"><ele>602.3333333333334</ele><time>2026-04-01T10:23:55.564Z</time></trkpt><trkpt lat="42.8882069" lon="11.9172803"><ele>604.0</ele><time>2026-04-01T10:23:56.563Z</time></trkpt><trkpt lat="42.8882799" lon="11.9174561"><ele>602.5</ele><time>2026-04-01T10:23:57.563Z</time></trkpt><trkpt lat="42.8883445" lon="11.9176275"><ele>601.0</ele><time>2026-04-01T10:23:58.563Z</time></trkpt><trkpt lat="42.888419" lon="11.9177994"><ele>599.5</ele><time>2026-04-01T10:23:59.563Z</time></trkpt><trkpt lat="42.8884838" lon="11.9179806"><ele>598.0</ele><time>2026-04-01T10:24:00.563Z</time></trkpt><trkpt lat="42.8885438" lon="11.9181447"><ele>597.4</ele><time>2026-04-01T10:24:01.562Z</time></trkpt><trkpt lat="42.8885942" lon="11.9183018"><ele>596.8</ele><time>2026-04-01T10:24:02.563Z</time></trkpt><trkpt lat="42.8886457" lon="11.9184435"><ele>596.2</ele><time>2026-04-01T10:24:03.563Z</time></trkpt><trkpt lat="42.888694" lon="11.9185689"><ele>595.6</ele><time>2026-04-01T10:24:04.564Z</time></trkpt><trkpt lat="42.8887436" lon="11.9186797"><ele>595.0</ele><time>2026-04-01T10:24:05.562Z</time></trkpt><trkpt lat="42.888802" lon="11.9187737"><ele>593.8</ele><time>2026-04-01T10:24:06.563Z</time></trkpt><trkpt lat="42.8888705" lon="11.9188486"><ele>592.6</ele><time>2026-04-01T10:24:07.563Z</time></trkpt><trkpt lat="42.8889574" lon="11.9189114"><ele>591.4</ele><time>2026-04-01T10:24:08.562Z</time></trkpt><trkpt lat="42.889058" lon="11.9189542"><ele>590.2</ele><time>2026-04-01T10:24:09.563Z</time></trkpt><trkpt lat="42.8891723" lon="11.9189811"><ele>589.0</ele><time>2026-04-01T10:24:10.563Z</time></trkpt><trkpt lat="42.8892705" lon="11.91901"><ele>583.8</ele><time>2026-04-01T10:24:11.564Z</time></trkpt><trkpt lat="42.8893636" lon="11.9190369"><ele>578.5999999999999</ele><time>2026-04-01T10:24:12.563Z</time></trkpt><trkpt lat="42.8894352" lon="11.919086"><ele>573.4</ele><time>2026-04-01T10:24:13.563Z</time></trkpt><trkpt lat="42.8894994" lon="11.9191494"><ele>568.1999999999999</ele><time>2026-04-01T10:24:14.563Z</time></trkpt><trkpt lat="42.8895204" lon="11.9192473"><ele>563.0</ele><time>2026-04-01T10:24:15.562Z</time></trkpt><trkpt lat="42.8894983" lon="11.9194091"><ele>562.1999999999999</ele><time>2026-04-01T10:24:17.562Z</time></trkpt><trkpt lat="42.88946" lon="11.9194862"><ele>561.4</ele><time>2026-04-01T10:24:18.563Z</time></trkpt><trkpt lat="42.8893885" lon="11.9195475"><ele>560.5999999999999</ele><time>2026-04-01T10:24:19.563Z</time></trkpt><trkpt lat="42.8892519" lon="11.9196291"><ele>559.8</ele><time>2026-04-01T10:24:20.563Z</time></trkpt><trkpt lat="42.8891199" lon="11.9197134"><ele>559.0</ele><time>2026-04-01T10:24:21.562Z</time></trkpt><trkpt lat="42.8890131" lon="11.9198131"><ele>562.75</ele><time>2026-04-01T10:24:22.564Z</time></trkpt><trkpt lat="42.8889091" lon="11.9199046"><ele>566.5</ele><time>2026-04-01T10:24:23.563Z</time></trkpt><trkpt lat="42.8888213" lon="11.9199791"><ele>570.25</ele><time>2026-04-01T10:24:24.563Z</time></trkpt><trkpt lat="42.8887292" lon="11.9200562"><ele>574.0</ele><time>2026-04-01T10:24:25.563Z</time></trkpt><trkpt lat="42.888604" lon="11.919986"><ele>574.0</ele><time>2026-04-01T10:24:27.563Z</time></trkpt><trkpt lat="42.8885238" lon="11.9199243"><ele>574.0</ele><time>2026-04-01T10:24:28.565Z</time></trkpt><trkpt lat="42.8884355" lon="11.9198487"><ele>574.0</ele><time>2026-04-01T10:24:29.562Z</time></trkpt><trkpt lat="42.8883242" lon="11.9197498"><ele>574.0</ele><time>2026-04-01T10:24:30.563Z</time></trkpt><trkpt lat="42.8882028" lon="11.9196459"><ele>573.0</ele><time>2026-04-01T10:24:31.563Z</time></trkpt><trkpt lat="42.8880931" lon="11.919538"><ele>572.0</ele><time>2026-04-01T10:24:32.563Z</time></trkpt><trkpt lat="42.8879788" lon="11.91944"><ele>571.0</ele><time>2026-04-01T10:24:33.563Z</time></trkpt><trkpt lat="42.8878593" lon="11.9193528"><ele>570.0</ele><time>2026-04-01T10:24:34.562Z</time></trkpt><trkpt lat="42.8877386" lon="11.919276"><ele>571.0</ele><time>2026-04-01T10:24:35.564Z</time></trkpt><trkpt lat="42.8876142" lon="11.9192138"><ele>572.0</ele><time>2026-04-01T10:24:36.564Z</time></trkpt><trkpt lat="42.8874984" lon="11.9191557"><ele>573.0</ele><time>2026-04-01T10:24:37.563Z</time></trkpt><trkpt lat="42.8874206" lon="11.919049"><ele>574.0</ele><time>2026-04-01T10:24:38.563Z</time></trkpt><trkpt lat="42.8873184" lon="11.918973"><ele>574.0</ele><time>2026-04-01T10:24:39.563Z</time></trkpt><trkpt lat="42.887215" lon="11.918928"><ele>574.0</ele><time>2026-04-01T10:24:40.563Z</time></trkpt><trkpt lat="42.8871184" lon="11.9188763"><ele>574.0</ele><time>2026-04-01T10:24:41.563Z</time></trkpt><trkpt lat="42.8870068" lon="11.9188733"><ele>574.0</ele><time>2026-04-01T10:24:42.562Z</time></trkpt><trkpt lat="42.8869284" lon="11.918969"><ele>574.0</ele><time>2026-04-01T10:24:43.564Z</time></trkpt><trkpt lat="42.8868494" lon="11.9190191"><ele>574.0</ele><time>2026-04-01T10:24:44.564Z</time></trkpt><trkpt lat="42.8867793" lon="11.919088"><ele>574.0</ele><time>2026-04-01T10:24:45.565Z</time></trkpt><trkpt lat="42.886737" lon="11.9191915"><ele>574.0</ele><time>2026-04-01T10:24:46.564Z</time></trkpt><trkpt lat="42.8866959" lon="11.9192949"><ele>574.0</ele><time>2026-04-01T10:24:47.563Z</time></trkpt><trkpt lat="42.8866987" lon="11.9193969"><ele>574.0</ele><time>2026-04-01T10:24:48.563Z</time></trkpt><trkpt lat="42.8866958" lon="11.9194858"><ele>574.0</ele><time>2026-04-01T10:24:49.564Z</time></trkpt><trkpt lat="42.8867068" lon="11.9196233"><ele>571.4</ele><time>2026-04-01T10:24:51.562Z</time></trkpt><trkpt lat="42.8867466" lon="11.9196965"><ele>568.8</ele><time>2026-04-01T10:24:52.564Z</time></trkpt><trkpt lat="42.8868115" lon="11.919768"><ele>566.2</ele><time>2026-04-01T10:24:53.563Z</time></trkpt><trkpt lat="42.8868854" lon="11.9198308"><ele>563.6</ele><time>2026-04-01T10:24:54.565Z</time></trkpt><trkpt lat="42.8869761" lon="11.9198742"><ele>561.0</ele><time>2026-04-01T10:24:55.564Z</time></trkpt><trkpt lat="42.8870936" lon="11.9199035"><ele>561.0</ele><time>2026-04-01T10:24:56.565Z</time></trkpt><trkpt lat="42.8872129" lon="11.9199369"><ele>561.0</ele><time>2026-04-01T10:24:57.564Z</time></trkpt><trkpt lat="42.8873167" lon="11.9199713"><ele>561.0</ele><time>2026-04-01T10:24:58.563Z</time></trkpt><trkpt lat="42.8874099" lon="11.9199822"><ele>561.0</ele><time>2026-04-01T10:24:59.563Z</time></trkpt><trkpt lat="42.8874842" lon="11.9200209"><ele>561.0</ele><time>2026-04-01T10:25:00.563Z</time></trkpt><trkpt lat="42.8875472" lon="11.9200755"><ele>558.6</ele><time>2026-04-01T10:25:01.564Z</time></trkpt><trkpt lat="42.8875477" lon="11.9201765"><ele>556.2</ele><time>2026-04-01T10:25:02.563Z</time></trkpt><trkpt lat="42.8875224" lon="11.920346"><ele>553.8</ele><time>2026-04-01T10:25:04.564Z</time></trkpt><trkpt lat="42.8874908" lon="11.9204299"><ele>551.4</ele><time>2026-04-01T10:25:05.564Z</time></trkpt><trkpt lat="42.8873947" lon="11.9204574"><ele>549.0</ele><time>2026-04-01T10:25:06.564Z</time></trkpt><trkpt lat="42.8872855" lon="11.9204812"><ele>549.0</ele><time>2026-04-01T10:25:07.563Z</time></trkpt><trkpt lat="42.8871589" lon="11.9204784"><ele>549.0</ele><time>2026-04-01T10:25:08.564Z</time></trkpt><trkpt lat="42.8870042" lon="11.9204548"><ele>549.0</ele><time>2026-04-01T10:25:09.563Z</time></trkpt><trkpt lat="42.8868224" lon="11.9204369"><ele>546.25</ele><time>2026-04-01T10:25:10.564Z</time></trkpt><trkpt lat="42.8866663" lon="11.9204215"><ele>543.5</ele><time>2026-04-01T10:25:11.563Z</time></trkpt><trkpt lat="42.8865291" lon="11.9203815"><ele>540.75</ele><time>2026-04-01T10:25:12.563Z</time></trkpt><trkpt lat="42.8864174" lon="11.9203537"><ele>538.0</ele><time>2026-04-01T10:25:13.564Z</time></trkpt><trkpt lat="42.8863194" lon="11.9203311"><ele>538.0</ele><time>2026-04-01T10:25:14.564Z</time></trkpt><trkpt lat="42.8862386" lon="11.9203276"><ele>538.0</ele><time>2026-04-01T10:25:15.563Z</time></trkpt><trkpt lat="42.8861605" lon="11.9203425"><ele>538.0</ele><time>2026-04-01T10:25:16.563Z</time></trkpt><trkpt lat="42.8860839" lon="11.9203861"><ele>538.0</ele><time>2026-04-01T10:25:17.563Z</time></trkpt><trkpt lat="42.8860239" lon="11.9204505"><ele>538.0</ele><time>2026-04-01T10:25:18.565Z</time></trkpt><trkpt lat="42.8859686" lon="11.9205271"><ele>538.0</ele><time>2026-04-01T10:25:19.563Z</time></trkpt><trkpt lat="42.8859427" lon="11.9206208"><ele>538.0</ele><time>2026-04-01T10:25:20.565Z</time></trkpt><trkpt lat="42.8859286" lon="11.9207134"><ele>538.0</ele><time>2026-04-01T10:25:21.563Z</time></trkpt><trkpt lat="42.8859425" lon="11.9208313"><ele>538.0</ele><time>2026-04-01T10:25:22.564Z</time></trkpt><trkpt lat="42.8859786" lon="11.92096"><ele>538.0</ele><time>2026-04-01T10:25:23.564Z</time></trkpt><trkpt lat="42.88603" lon="11.9211016"><ele>538.0</ele><time>2026-04-01T10:25:24.565Z</time></trkpt><trkpt lat="42.8860863" lon="11.9212579"><ele>536.0</ele><time>2026-04-01T10:25:25.563Z</time></trkpt><trkpt lat="42.8861353" lon="11.9214119"><ele>534.0</ele><time>2026-04-01T10:25:26.562Z</time></trkpt><trkpt lat="42.8861926" lon="11.9215629"><ele>532.0</ele><time>2026-04-01T10:25:27.564Z</time></trkpt><trkpt lat="42.8862473" lon="11.921724"><ele>530.0</ele><time>2026-04-01T10:25:28.563Z</time></trkpt><trkpt lat="42.8863041" lon="11.9219152"><ele>528.5</ele><time>2026-04-01T10:25:29.565Z</time></trkpt><trkpt lat="42.8863438" lon="11.9221193"><ele>527.0</ele><time>2026-04-01T10:25:30.564Z</time></trkpt><trkpt lat="42.8863792" lon="11.9223181"><ele>525.5</ele><time>2026-04-01T10:25:31.565Z</time></trkpt><trkpt lat="42.8864192" lon="11.9224913"><ele>524.0</ele><time>2026-04-01T10:25:32.563Z</time></trkpt><trkpt lat="42.8864656" lon="11.922661"><ele>519.75</ele><time>2026-04-01T10:25:33.565Z</time></trkpt><trkpt lat="42.8865348" lon="11.9227864"><ele>515.5</ele><time>2026-04-01T10:25:34.564Z</time></trkpt><trkpt lat="42.8866217" lon="11.9229"><ele>511.25</ele><time>2026-04-01T10:25:35.563Z</time></trkpt><trkpt lat="42.8867176" lon="11.9230006"><ele>507.0</ele><time>2026-04-01T10:25:36.563Z</time></trkpt><trkpt lat="42.8868373" lon="11.9230788"><ele>507.0</ele><time>2026-04-01T10:25:37.563Z</time></trkpt><trkpt lat="42.886968" lon="11.923141"><ele>507.0</ele><time>2026-04-01T10:25:38.564Z</time></trkpt><trkpt lat="42.8870992" lon="11.9231556"><ele>507.0</ele><time>2026-04-01T10:25:39.563Z</time></trkpt><trkpt lat="42.8872579" lon="11.9231788"><ele>507.0</ele><time>2026-04-01T10:25:40.563Z</time></trkpt><trkpt lat="42.8874249" lon="11.9231762"><ele>507.0</ele><time>2026-04-01T10:25:41.564Z</time></trkpt><trkpt lat="42.8875914" lon="11.9231749"><ele>507.0</ele><time>2026-04-01T10:25:42.564Z</time></trkpt><trkpt lat="42.8877664" lon="11.9231673"><ele>507.0</ele><time>2026-04-01T10:25:43.564Z</time></trkpt><trkpt lat="42.8879326" lon="11.9231499"><ele>505.5</ele><time>2026-04-01T10:25:44.564Z</time></trkpt><trkpt lat="42.8880889" lon="11.9231195"><ele>504.0</ele><time>2026-04-01T10:25:45.565Z</time></trkpt><trkpt lat="42.8882235" lon="11.9231072"><ele>502.5</ele><time>2026-04-01T10:25:46.565Z</time></trkpt><trkpt lat="42.8883616" lon="11.9231202"><ele>501.0</ele><time>2026-04-01T10:25:47.563Z</time></trkpt><trkpt lat="42.8884807" lon="11.923145"><ele>500.5</ele><time>2026-04-01T10:25:48.565Z</time></trkpt><trkpt lat="42.888551" lon="11.9231704"><ele>500.0</ele><time>2026-04-01T10:25:49.563Z</time></trkpt><trkpt lat="42.8886231" lon="11.9232082"><ele>499.5</ele><time>2026-04-01T10:25:50.563Z</time></trkpt><trkpt lat="42.8886982" lon="11.9232653"><ele>499.0</ele><time>2026-04-01T10:25:51.563Z</time></trkpt><trkpt lat="42.8887388" lon="11.9233573"><ele>498.5</ele><time>2026-04-01T10:25:52.566Z</time></trkpt><trkpt lat="42.8887664" lon="11.9234381"><ele>498.0</ele><time>2026-04-01T10:25:53.563Z</time></trkpt><trkpt lat="42.8887638" lon="11.9235683"><ele>495.3333333333333</ele><time>2026-04-01T10:25:54.565Z</time></trkpt><trkpt lat="42.8887454" lon="11.9236604"><ele>492.66666666666663</ele><time>2026-04-01T10:25:55.564Z</time></trkpt><trkpt lat="42.8887042" lon="11.9237257"><ele>490.0</ele><time>2026-04-01T10:25:56.563Z</time></trkpt><trkpt lat="42.8886065" lon="11.9237426"><ele>487.3333333333333</ele><time>2026-04-01T10:25:57.563Z</time></trkpt><trkpt lat="42.8885084" lon="11.9237709"><ele>484.66666666666663</ele><time>2026-04-01T10:25:58.565Z</time></trkpt><trkpt lat="42.8883949" lon="11.9237814"><ele>482.0</ele><time>2026-04-01T10:25:59.565Z</time></trkpt><trkpt lat="42.8882729" lon="11.9238393"><ele>482.0</ele><time>2026-04-01T10:26:00.564Z</time></trkpt><trkpt lat="42.8881535" lon="11.9239205"><ele>482.0</ele><time>2026-04-01T10:26:01.563Z</time></trkpt><trkpt lat="42.8880414" lon="11.9240987"><ele>482.0</ele><time>2026-04-01T10:26:02.565Z</time></trkpt><trkpt lat="42.887939" lon="11.9242538"><ele>479.75</ele><time>2026-04-01T10:26:03.564Z</time></trkpt><trkpt lat="42.887839" lon="11.9244011"><ele>477.5</ele><time>2026-04-01T10:26:04.565Z</time></trkpt><trkpt lat="42.887743" lon="11.9245495"><ele>475.25</ele><time>2026-04-01T10:26:05.564Z</time></trkpt><trkpt lat="42.8876542" lon="11.9247002"><ele>473.0</ele><time>2026-04-01T10:26:06.565Z</time></trkpt><trkpt lat="42.8875513" lon="11.924831"><ele>473.0</ele><time>2026-04-01T10:26:07.564Z</time></trkpt><trkpt lat="42.887457" lon="11.9249608"><ele>473.0</ele><time>2026-04-01T10:26:08.564Z</time></trkpt><trkpt lat="42.8873692" lon="11.9250514"><ele>473.0</ele><time>2026-04-01T10:26:09.564Z</time></trkpt><trkpt lat="42.8872752" lon="11.9251728"><ele>473.0</ele><time>2026-04-01T10:26:10.564Z</time></trkpt><trkpt lat="42.8871849" lon="11.925314"><ele>469.0</ele><time>2026-04-01T10:26:11.563Z</time></trkpt><trkpt lat="42.8871004" lon="11.9254639"><ele>465.0</ele><time>2026-04-01T10:26:12.564Z</time></trkpt><trkpt lat="42.8870144" lon="11.9255959"><ele>461.0</ele><time>2026-04-01T10:26:13.564Z</time></trkpt><trkpt lat="42.8869057" lon="11.9257212"><ele>457.0</ele><time>2026-04-01T10:26:14.565Z</time></trkpt><trkpt lat="42.8867978" lon="11.9258441"><ele>456.25</ele><time>2026-04-01T10:26:15.565Z</time></trkpt><trkpt lat="42.8866869" lon="11.9259538"><ele>455.5</ele><time>2026-04-01T10:26:16.563Z</time></trkpt><trkpt lat="42.8865699" lon="11.926064"><ele>454.75</ele><time>2026-04-01T10:26:17.564Z</time></trkpt><trkpt lat="42.8864684" lon="11.9261823"><ele>454.0</ele><time>2026-04-01T10:26:18.564Z</time></trkpt><trkpt lat="42.8863852" lon="11.9262579"><ele>454.0</ele><time>2026-04-01T10:26:19.565Z</time></trkpt><trkpt lat="42.8863127" lon="11.9262801"><ele>454.0</ele><time>2026-04-01T10:26:20.564Z</time></trkpt><trkpt lat="42.8861886" lon="11.926251"><ele>454.0</ele><time>2026-04-01T10:26:22.564Z</time></trkpt><trkpt lat="42.8861849" lon="11.9260775"><ele>454.0</ele><time>2026-04-01T10:26:23.564Z</time></trkpt><trkpt lat="42.8861526" lon="11.9259245"><ele>454.0</ele><time>2026-04-01T10:26:24.563Z</time></trkpt><trkpt lat="42.886118" lon="11.9257826"><ele>455.0</ele><time>2026-04-01T10:26:25.565Z</time></trkpt><trkpt lat="42.8860324" lon="11.9256852"><ele>456.0</ele><time>2026-04-01T10:26:26.565Z</time></trkpt><trkpt lat="42.8859085" lon="11.9256304"><ele>457.0</ele><time>2026-04-01T10:26:27.563Z</time></trkpt><trkpt lat="42.8858256" lon="11.9255882"><ele>458.0</ele><time>2026-04-01T10:26:28.565Z</time></trkpt><trkpt lat="42.8857089" lon="11.9255761"><ele>459.0</ele><time>2026-04-01T10:26:29.563Z</time></trkpt><trkpt lat="42.8855369" lon="11.9255912"><ele>459.0</ele><time>2026-04-01T10:26:30.564Z</time></trkpt><trkpt lat="42.8853897" lon="11.9255863"><ele>459.0</ele><time>2026-04-01T10:26:31.564Z</time></trkpt><trkpt lat="42.8852135" lon="11.9256722"><ele>459.0</ele><time>2026-04-01T10:26:32.565Z</time></trkpt><trkpt lat="42.8850605" lon="11.9257093"><ele>457.25</ele><time>2026-04-01T10:26:33.563Z</time></trkpt><trkpt lat="42.8849364" lon="11.9257646"><ele>455.5</ele><time>2026-04-01T10:26:34.564Z</time></trkpt><trkpt lat="42.8848398" lon="11.9258709"><ele>453.75</ele><time>2026-04-01T10:26:35.564Z</time></trkpt><trkpt lat="42.8847546" lon="11.9259881"><ele>452.0</ele><time>2026-04-01T10:26:36.564Z</time></trkpt><trkpt lat="42.8846766" lon="11.9261073"><ele>450.5</ele><time>2026-04-01T10:26:37.564Z</time></trkpt><trkpt lat="42.8846715" lon="11.926302"><ele>449.0</ele><time>2026-04-01T10:26:38.562Z</time></trkpt><trkpt lat="42.8846666" lon="11.926477"><ele>447.5</ele><time>2026-04-01T10:26:39.564Z</time></trkpt><trkpt lat="42.8846567" lon="11.926616"><ele>446.0</ele><time>2026-04-01T10:26:40.563Z</time></trkpt><trkpt lat="42.8846287" lon="11.9267386"><ele>444.20000000000005</ele><time>2026-04-01T10:26:41.565Z</time></trkpt><trkpt lat="42.8846116" lon="11.9268547"><ele>442.40000000000003</ele><time>2026-04-01T10:26:42.563Z</time></trkpt><trkpt lat="42.8846043" lon="11.9270194"><ele>440.6</ele><time>2026-04-01T10:26:43.564Z</time></trkpt><trkpt lat="42.8846149" lon="11.9271766"><ele>438.8</ele><time>2026-04-01T10:26:44.564Z</time></trkpt><trkpt lat="42.8846189" lon="11.9273179"><ele>437.0</ele><time>2026-04-01T10:26:45.564Z</time></trkpt><trkpt lat="42.884603" lon="11.9274588"><ele>432.75</ele><time>2026-04-01T10:26:46.565Z</time></trkpt><trkpt lat="42.8845548" lon="11.9275848"><ele>428.5</ele><time>2026-04-01T10:26:47.564Z</time></trkpt><trkpt lat="42.884481" lon="11.9277402"><ele>424.25</ele><time>2026-04-01T10:26:48.565Z</time></trkpt><trkpt lat="42.8844107" lon="11.9279168"><ele>420.0</ele><time>2026-04-01T10:26:49.564Z</time></trkpt><trkpt lat="42.8843361" lon="11.9281057"><ele>422.0</ele><time>2026-04-01T10:26:50.565Z</time></trkpt><trkpt lat="42.8842551" lon="11.928293"><ele>424.0</ele><time>2026-04-01T10:26:51.564Z</time></trkpt><trkpt lat="42.8841667" lon="11.9284788"><ele>426.0</ele><time>2026-04-01T10:26:52.564Z</time></trkpt><trkpt lat="42.884092" lon="11.9286471"><ele>426.0</ele><time>2026-04-01T10:26:53.564Z</time></trkpt><trkpt lat="42.884015" lon="11.9288157"><ele>426.0</ele><time>2026-04-01T10:26:54.564Z</time></trkpt><trkpt lat="42.8839392" lon="11.9289914"><ele>426.0</ele><time>2026-04-01T10:26:55.564Z</time></trkpt><trkpt lat="42.8838617" lon="11.9291435"><ele>426.0</ele><time>2026-04-01T10:26:56.563Z</time></trkpt><trkpt lat="42.8837859" lon="11.9293124"><ele>425.0</ele><time>2026-04-01T10:26:57.564Z</time></trkpt><trkpt lat="42.8837015" lon="11.9294715"><ele>424.0</ele><time>2026-04-01T10:26:58.565Z</time></trkpt><trkpt lat="42.8836493" lon="11.9295785"><ele>423.0</ele><time>2026-04-01T10:26:59.564Z</time></trkpt><trkpt lat="42.8836318" lon="11.929677"><ele>422.0</ele><time>2026-04-01T10:27:00.564Z</time></trkpt><trkpt lat="42.883651" lon="11.9297714"><ele>421.0</ele><time>2026-04-01T10:27:02.564Z</time></trkpt><trkpt lat="42.8837083" lon="11.9298245"><ele>421.0</ele><time>2026-04-01T10:27:03.562Z</time></trkpt><trkpt lat="42.8837852" lon="11.929882"><ele>421.0</ele><time>2026-04-01T10:27:04.563Z</time></trkpt><trkpt lat="42.883867" lon="11.9299394"><ele>421.0</ele><time>2026-04-01T10:27:05.564Z</time></trkpt><trkpt lat="42.8839208" lon="11.9300475"><ele>421.0</ele><time>2026-04-01T10:27:06.565Z</time></trkpt><trkpt lat="42.883991" lon="11.93019"><ele>421.0</ele><time>2026-04-01T10:27:07.564Z</time></trkpt><trkpt lat="42.8840505" lon="11.930338"><ele>419.6</ele><time>2026-04-01T10:27:08.564Z</time></trkpt><trkpt lat="42.8841101" lon="11.9304855"><ele>418.20000000000005</ele><time>2026-04-01T10:27:09.564Z</time></trkpt><trkpt lat="42.8841681" lon="11.9306024"><ele>416.79999999999995</ele><time>2026-04-01T10:27:10.565Z</time></trkpt><trkpt lat="42.8842288" lon="11.930709"><ele>415.4</ele><time>2026-04-01T10:27:11.564Z</time></trkpt><trkpt lat="42.8842911" lon="11.9307732"><ele>414.0</ele><time>2026-04-01T10:27:12.563Z</time></trkpt><trkpt lat="42.8843522" lon="11.9308324"><ele>413.3333333333333</ele><time>2026-04-01T10:27:13.564Z</time></trkpt><trkpt lat="42.8844157" lon="11.9308443"><ele>412.66666666666663</ele><time>2026-04-01T10:27:14.563Z</time></trkpt><trkpt lat="42.8845202" lon="11.9308265"><ele>412.0</ele><time>2026-04-01T10:27:15.565Z</time></trkpt><trkpt lat="42.884605" lon="11.930817"><ele>411.3333333333333</ele><time>2026-04-01T10:27:16.564Z</time></trkpt><trkpt lat="42.8846904" lon="11.9308144"><ele>410.66666666666663</ele><time>2026-04-01T10:27:17.564Z</time></trkpt><trkpt lat="42.8847638" lon="11.9308535"><ele>410.0</ele><time>2026-04-01T10:27:18.565Z</time></trkpt><trkpt lat="42.8847969" lon="11.9309851"><ele>409.16666666666663</ele><time>2026-04-01T10:27:19.565Z</time></trkpt><trkpt lat="42.8848562" lon="11.9310567"><ele>408.3333333333333</ele><time>2026-04-01T10:27:20.564Z</time></trkpt><trkpt lat="42.8848996" lon="11.9311538"><ele>407.5</ele><time>2026-04-01T10:27:21.564Z</time></trkpt><trkpt lat="42.8849502" lon="11.931261"><ele>406.66666666666663</ele><time>2026-04-01T10:27:22.563Z</time></trkpt><trkpt lat="42.8850076" lon="11.9313397"><ele>405.8333333333333</ele><time>2026-04-01T10:27:23.566Z</time></trkpt><trkpt lat="42.8850433" lon="11.9314269"><ele>405.0</ele><time>2026-04-01T10:27:24.564Z</time></trkpt><trkpt lat="42.8850141" lon="11.9315343"><ele>405.0</ele><time>2026-04-01T10:27:28.565Z</time></trkpt><trkpt lat="42.884959" lon="11.9315866"><ele>405.0</ele><time>2026-04-01T10:27:29.564Z</time></trkpt><trkpt lat="42.8849044" lon="11.9316529"><ele>405.0</ele><time>2026-04-01T10:27:30.564Z</time></trkpt><trkpt lat="42.8848486" lon="11.9317328"><ele>405.0</ele><time>2026-04-01T10:27:31.563Z</time></trkpt><trkpt lat="42.8847779" lon="11.9318193"><ele>405.0</ele><time>2026-04-01T10:27:32.564Z</time></trkpt><trkpt lat="42.8846969" lon="11.9319139"><ele>405.0</ele><time>2026-04-01T10:27:33.564Z</time></trkpt><trkpt lat="42.884602" lon="11.9320175"><ele>403.75</ele><time>2026-04-01T10:27:34.564Z</time></trkpt><trkpt lat="42.8845082" lon="11.9321109"><ele>402.5</ele><time>2026-04-01T10:27:35.563Z</time></trkpt><trkpt lat="42.8844133" lon="11.9322168"><ele>401.25</ele><time>2026-04-01T10:27:36.565Z</time></trkpt><trkpt lat="42.8843221" lon="11.9323127"><ele>400.0</ele><time>2026-04-01T10:27:37.564Z</time></trkpt><trkpt lat="42.8842333" lon="11.9323997"><ele>399.5</ele><time>2026-04-01T10:27:38.564Z</time></trkpt><trkpt lat="42.8841441" lon="11.9325008"><ele>399.0</ele><time>2026-04-01T10:27:39.564Z</time></trkpt><trkpt lat="42.8840491" lon="11.9325958"><ele>398.5</ele><time>2026-04-01T10:27:40.564Z</time></trkpt><trkpt lat="42.8839381" lon="11.9327118"><ele>398.0</ele><time>2026-04-01T10:27:41.563Z</time></trkpt><trkpt lat="42.8838118" lon="11.9328438"><ele>395.66666666666663</ele><time>2026-04-01T10:27:42.564Z</time></trkpt><trkpt lat="42.8836772" lon="11.9329803"><ele>393.33333333333337</ele><time>2026-04-01T10:27:43.565Z</time></trkpt><trkpt lat="42.8835508" lon="11.9331214"><ele>391.0</ele><time>2026-04-01T10:27:44.564Z</time></trkpt><trkpt lat="42.8834255" lon="11.9332364"><ele>390.5</ele><time>2026-04-01T10:27:45.563Z</time></trkpt><trkpt lat="42.8832979" lon="11.9333488"><ele>390.0</ele><time>2026-04-01T10:27:46.563Z</time></trkpt><trkpt lat="42.8831713" lon="11.9334584"><ele>389.5</ele><time>2026-04-01T10:27:47.565Z</time></trkpt><trkpt lat="42.8830619" lon="11.9335818"><ele>389.0</ele><time>2026-04-01T10:27:48.564Z</time></trkpt><trkpt lat="42.8829617" lon="11.9336995"><ele>386.5</ele><time>2026-04-01T10:27:49.565Z</time></trkpt><trkpt lat="42.882869" lon="11.933826"><ele>384.0</ele><time>2026-04-01T10:27:50.565Z</time></trkpt><trkpt lat="42.8827785" lon="11.9339419"><ele>381.5</ele><time>2026-04-01T10:27:51.564Z</time></trkpt><trkpt lat="42.882683" lon="11.9340374"><ele>379.0</ele><time>2026-04-01T10:27:52.564Z</time></trkpt><trkpt lat="42.8825874" lon="11.9341228"><ele>379.0</ele><time>2026-04-01T10:27:53.565Z</time></trkpt><trkpt lat="42.8824831" lon="11.9341638"><ele>379.0</ele><time>2026-04-01T10:27:54.564Z</time></trkpt><trkpt lat="42.8823719" lon="11.9341732"><ele>379.0</ele><time>2026-04-01T10:27:55.565Z</time></trkpt><trkpt lat="42.8822651" lon="11.9341611"><ele>379.0</ele><time>2026-04-01T10:27:56.564Z</time></trkpt><trkpt lat="42.882149" lon="11.9341265"><ele>379.0</ele><time>2026-04-01T10:27:57.564Z</time></trkpt><trkpt lat="42.8820146" lon="11.9340751"><ele>379.0</ele><time>2026-04-01T10:27:58.563Z</time></trkpt><trkpt lat="42.8818737" lon="11.9340223"><ele>379.0</ele><time>2026-04-01T10:27:59.564Z</time></trkpt><trkpt lat="42.8817164" lon="11.933999"><ele>379.0</ele><time>2026-04-01T10:28:00.566Z</time></trkpt><trkpt lat="42.8815879" lon="11.9339705"><ele>379.0</ele><time>2026-04-01T10:28:01.564Z</time></trkpt><trkpt lat="42.8814638" lon="11.9339705"><ele>378.75</ele><time>2026-04-01T10:28:02.564Z</time></trkpt><trkpt lat="42.8813576" lon="11.9340094"><ele>378.5</ele><time>2026-04-01T10:28:03.566Z</time></trkpt><trkpt lat="42.8812697" lon="11.9340972"><ele>378.25</ele><time>2026-04-01T10:28:04.564Z</time></trkpt><trkpt lat="42.8811943" lon="11.9342244"><ele>378.0</ele><time>2026-04-01T10:28:05.563Z</time></trkpt><trkpt lat="42.8811383" lon="11.934378"><ele>376.5</ele><time>2026-04-01T10:28:06.565Z</time></trkpt><trkpt lat="42.8810909" lon="11.9345342"><ele>375.0</ele><time>2026-04-01T10:28:07.564Z</time></trkpt><trkpt lat="42.8810686" lon="11.9347103"><ele>373.5</ele><time>2026-04-01T10:28:08.565Z</time></trkpt><trkpt lat="42.8810827" lon="11.9348919"><ele>372.0</ele><time>2026-04-01T10:28:09.564Z</time></trkpt><trkpt lat="42.8811585" lon="11.9350783"><ele>372.0</ele><time>2026-04-01T10:28:10.565Z</time></trkpt><trkpt lat="42.8812541" lon="11.9352724"><ele>372.0</ele><time>2026-04-01T10:28:11.564Z</time></trkpt><trkpt lat="42.8813545" lon="11.9354572"><ele>372.0</ele><time>2026-04-01T10:28:12.564Z</time></trkpt><trkpt lat="42.8814408" lon="11.9356315"><ele>372.0</ele><time>2026-04-01T10:28:13.564Z</time></trkpt><trkpt lat="42.8815235" lon="11.9357875"><ele>372.0</ele><time>2026-04-01T10:28:14.565Z</time></trkpt><trkpt lat="42.8815924" lon="11.9359325"><ele>372.0</ele><time>2026-04-01T10:28:15.565Z</time></trkpt><trkpt lat="42.881649" lon="11.9360776"><ele>372.0</ele><time>2026-04-01T10:28:16.563Z</time></trkpt><trkpt lat="42.8816946" lon="11.9362249"><ele>373.0</ele><time>2026-04-01T10:28:17.564Z</time></trkpt><trkpt lat="42.8817065" lon="11.9363683"><ele>374.0</ele><time>2026-04-01T10:28:18.563Z</time></trkpt><trkpt lat="42.8816959" lon="11.9364981"><ele>375.0</ele><time>2026-04-01T10:28:19.564Z</time></trkpt><trkpt lat="42.8816665" lon="11.9366085"><ele>376.0</ele><time>2026-04-01T10:28:20.565Z</time></trkpt><trkpt lat="42.8816328" lon="11.9367274"><ele>377.0</ele><time>2026-04-01T10:28:21.564Z</time></trkpt><trkpt lat="42.8815891" lon="11.9368379"><ele>377.33333333333337</ele><time>2026-04-01T10:28:22.564Z</time></trkpt><trkpt lat="42.8814998" lon="11.9369666"><ele>377.6666666666667</ele><time>2026-04-01T10:28:23.565Z</time></trkpt><trkpt lat="42.8813487" lon="11.9370795"><ele>378.0</ele><time>2026-04-01T10:28:24.564Z</time></trkpt><trkpt lat="42.8811949" lon="11.9372096"><ele>378.0</ele><time>2026-04-01T10:28:25.564Z</time></trkpt><trkpt lat="42.8810637" lon="11.9373245"><ele>378.0</ele><time>2026-04-01T10:28:26.565Z</time></trkpt><trkpt lat="42.8809564" lon="11.937394"><ele>378.0</ele><time>2026-04-01T10:28:27.566Z</time></trkpt><trkpt lat="42.8808749" lon="11.9374701"><ele>378.0</ele><time>2026-04-01T10:28:28.563Z</time></trkpt><trkpt lat="42.880798" lon="11.9375435"><ele>375.75</ele><time>2026-04-01T10:28:29.564Z</time></trkpt><trkpt lat="42.8807098" lon="11.9376155"><ele>373.5</ele><time>2026-04-01T10:28:30.564Z</time></trkpt><trkpt lat="42.8806078" lon="11.9376885"><ele>371.25</ele><time>2026-04-01T10:28:31.565Z</time></trkpt><trkpt lat="42.8804902" lon="11.9377611"><ele>369.0</ele><time>2026-04-01T10:28:32.565Z</time></trkpt><trkpt lat="42.8803504" lon="11.9378232"><ele>369.0</ele><time>2026-04-01T10:28:33.564Z</time></trkpt><trkpt lat="42.8801932" lon="11.9378611"><ele>369.0</ele><time>2026-04-01T10:28:34.564Z</time></trkpt><trkpt lat="42.8800098" lon="11.9378799"><ele>369.0</ele><time>2026-04-01T10:28:35.565Z</time></trkpt><trkpt lat="42.879816" lon="11.9378929"><ele>369.3333333333333</ele><time>2026-04-01T10:28:36.563Z</time></trkpt><trkpt lat="42.8796291" lon="11.9378958"><ele>369.66666666666663</ele><time>2026-04-01T10:28:37.565Z</time></trkpt><trkpt lat="42.8794529" lon="11.9378928"><ele>370.0</ele><time>2026-04-01T10:28:38.564Z</time></trkpt><trkpt lat="42.8792902" lon="11.9378972"><ele>371.25</ele><time>2026-04-01T10:28:39.563Z</time></trkpt><trkpt lat="42.8791427" lon="11.9378945"><ele>372.5</ele><time>2026-04-01T10:28:40.564Z</time></trkpt><trkpt lat="42.8790102" lon="11.9379256"><ele>373.75</ele><time>2026-04-01T10:28:41.565Z</time></trkpt><trkpt lat="42.8788823" lon="11.9379654"><ele>375.0</ele><time>2026-04-01T10:28:42.564Z</time></trkpt><trkpt lat="42.878829" lon="11.9380903"><ele>375.0</ele><time>2026-04-01T10:28:43.564Z</time></trkpt><trkpt lat="42.8787925" lon="11.9382395"><ele>375.0</ele><time>2026-04-01T10:28:44.564Z</time></trkpt><trkpt lat="42.8787571" lon="11.9383908"><ele>375.0</ele><time>2026-04-01T10:28:45.566Z</time></trkpt><trkpt lat="42.8787481" lon="11.9385445"><ele>375.0</ele><time>2026-04-01T10:28:46.565Z</time></trkpt><trkpt lat="42.8786816" lon="11.9386478"><ele>375.0</ele><time>2026-04-01T10:28:47.565Z</time></trkpt><trkpt lat="42.8785719" lon="11.9386711"><ele>375.0</ele><time>2026-04-01T10:28:48.564Z</time></trkpt><trkpt lat="42.8784994" lon="11.938789"><ele>375.0</ele><time>2026-04-01T10:28:49.565Z</time></trkpt><trkpt lat="42.8784314" lon="11.9389502"><ele>375.0</ele><time>2026-04-01T10:28:50.564Z</time></trkpt><trkpt lat="42.8783732" lon="11.9391625"><ele>375.0</ele><time>2026-04-01T10:28:51.564Z</time></trkpt><trkpt lat="42.8783264" lon="11.9394071"><ele>373.0</ele><time>2026-04-01T10:28:52.564Z</time></trkpt><trkpt lat="42.8782781" lon="11.9396061"><ele>371.0</ele><time>2026-04-01T10:28:53.564Z</time></trkpt><trkpt lat="42.8782185" lon="11.9397982"><ele>369.0</ele><time>2026-04-01T10:28:54.565Z</time></trkpt><trkpt lat="42.8781521" lon="11.9399848"><ele>366.3333333333333</ele><time>2026-04-01T10:28:55.566Z</time></trkpt><trkpt lat="42.8781103" lon="11.9401821"><ele>363.66666666666663</ele><time>2026-04-01T10:28:56.564Z</time></trkpt><trkpt lat="42.8780951" lon="11.9404148"><ele>361.0</ele><time>2026-04-01T10:28:57.565Z</time></trkpt><trkpt lat="42.8780887" lon="11.9406915"><ele>359.3333333333333</ele><time>2026-04-01T10:28:58.564Z</time></trkpt><trkpt lat="42.8780891" lon="11.9409547"><ele>357.6666666666667</ele><time>2026-04-01T10:28:59.565Z</time></trkpt><trkpt lat="42.8781079" lon="11.9412077"><ele>356.0</ele><time>2026-04-01T10:29:00.566Z</time></trkpt><trkpt lat="42.8781325" lon="11.9414333"><ele>356.0</ele><time>2026-04-01T10:29:01.564Z</time></trkpt><trkpt lat="42.8781334" lon="11.9416378"><ele>356.0</ele><time>2026-04-01T10:29:02.566Z</time></trkpt><trkpt lat="42.8781122" lon="11.9418147"><ele>356.0</ele><time>2026-04-01T10:29:03.566Z</time></trkpt><trkpt lat="42.8780686" lon="11.9419579"><ele>356.0</ele><time>2026-04-01T10:29:04.564Z</time></trkpt><trkpt lat="42.8779747" lon="11.9420436"><ele>355.25</ele><time>2026-04-01T10:29:05.563Z</time></trkpt><trkpt lat="42.8778544" lon="11.9420968"><ele>354.5</ele><time>2026-04-01T10:29:06.565Z</time></trkpt><trkpt lat="42.8777044" lon="11.9421371"><ele>353.75</ele><time>2026-04-01T10:29:07.565Z</time></trkpt><trkpt lat="42.8775587" lon="11.9421715"><ele>353.0</ele><time>2026-04-01T10:29:08.564Z</time></trkpt><trkpt lat="42.8774338" lon="11.9421956"><ele>353.0</ele><time>2026-04-01T10:29:09.565Z</time></trkpt><trkpt lat="42.8773327" lon="11.9421903"><ele>353.0</ele><time>2026-04-01T10:29:10.565Z</time></trkpt><trkpt lat="42.8772476" lon="11.9421435"><ele>353.0</ele><time>2026-04-01T10:29:11.564Z</time></trkpt><trkpt lat="42.8771734" lon="11.9420964"><ele>353.0</ele><time>2026-04-01T10:29:12.565Z</time></trkpt><trkpt lat="42.8770537" lon="11.9419859"><ele>353.0</ele><time>2026-04-01T10:29:13.564Z</time></trkpt><trkpt lat="42.8769335" lon="11.9418863"><ele>353.0</ele><time>2026-04-01T10:29:14.565Z</time></trkpt><trkpt lat="42.8768109" lon="11.9417927"><ele>353.0</ele><time>2026-04-01T10:29:15.565Z</time></trkpt><trkpt lat="42.8766786" lon="11.9416928"><ele>353.0</ele><time>2026-04-01T10:29:16.566Z</time></trkpt><trkpt lat="42.8765741" lon="11.9416033"><ele>353.0</ele><time>2026-04-01T10:29:17.565Z</time></trkpt><trkpt lat="42.8764451" lon="11.9415512"><ele>353.25</ele><time>2026-04-01T10:29:18.565Z</time></trkpt><trkpt lat="42.8763694" lon="11.9416228"><ele>353.5</ele><time>2026-04-01T10:29:19.565Z</time></trkpt><trkpt lat="42.876299" lon="11.9417318"><ele>353.75</ele><time>2026-04-01T10:29:20.564Z</time></trkpt><trkpt lat="42.8762387" lon="11.941873"><ele>354.0</ele><time>2026-04-01T10:29:21.565Z</time></trkpt><trkpt lat="42.8762239" lon="11.9421009"><ele>351.75</ele><time>2026-04-01T10:29:22.564Z</time></trkpt><trkpt lat="42.8762044" lon="11.9423197"><ele>349.5</ele><time>2026-04-01T10:29:23.566Z</time></trkpt><trkpt lat="42.8761773" lon="11.9425335"><ele>347.25</ele><time>2026-04-01T10:29:24.565Z</time></trkpt><trkpt lat="42.8761451" lon="11.9427039"><ele>345.0</ele><time>2026-04-01T10:29:25.565Z</time></trkpt><trkpt lat="42.8761132" lon="11.9428309"><ele>345.4</ele><time>2026-04-01T10:29:26.564Z</time></trkpt><trkpt lat="42.8760145" lon="11.9428848"><ele>345.8</ele><time>2026-04-01T10:29:27.565Z</time></trkpt><trkpt lat="42.8759389" lon="11.9429045"><ele>346.20000000000005</ele><time>2026-04-01T10:29:28.566Z</time></trkpt><trkpt lat="42.8758398" lon="11.9428928"><ele>346.6</ele><time>2026-04-01T10:29:29.565Z</time></trkpt><trkpt lat="42.8757236" lon="11.9427742"><ele>347.0</ele><time>2026-04-01T10:29:30.565Z</time></trkpt><trkpt lat="42.8755945" lon="11.942662"><ele>347.0</ele><time>2026-04-01T10:29:31.564Z</time></trkpt><trkpt lat="42.8754551" lon="11.9425487"><ele>347.0</ele><time>2026-04-01T10:29:32.565Z</time></trkpt><trkpt lat="42.8753119" lon="11.9424928"><ele>347.0</ele><time>2026-04-01T10:29:33.564Z</time></trkpt><trkpt lat="42.8751663" lon="11.942497"><ele>347.33333333333337</ele><time>2026-04-01T10:29:34.565Z</time></trkpt><trkpt lat="42.8750014" lon="11.9425521"><ele>347.6666666666667</ele><time>2026-04-01T10:29:35.565Z</time></trkpt><trkpt lat="42.8748188" lon="11.9426136"><ele>348.0</ele><time>2026-04-01T10:29:36.565Z</time></trkpt><trkpt lat="42.8746164" lon="11.9426855"><ele>348.0</ele><time>2026-04-01T10:29:37.564Z</time></trkpt><trkpt lat="42.8743933" lon="11.9427646"><ele>348.0</ele><time>2026-04-01T10:29:38.566Z</time></trkpt><trkpt lat="42.8741534" lon="11.9428473"><ele>351.0</ele><time>2026-04-01T10:29:39.565Z</time></trkpt><trkpt lat="42.8739135" lon="11.9429436"><ele>354.0</ele><time>2026-04-01T10:29:40.564Z</time></trkpt><trkpt lat="42.8737147" lon="11.9430273"><ele>354.0</ele><time>2026-04-01T10:29:41.564Z</time></trkpt><trkpt lat="42.8735431" lon="11.9431092"><ele>354.0</ele><time>2026-04-01T10:29:42.564Z</time></trkpt><trkpt lat="42.8733947" lon="11.9432137"><ele>354.0</ele><time>2026-04-01T10:29:43.564Z</time></trkpt><trkpt lat="42.8732614" lon="11.9433736"><ele>355.3333333333333</ele><time>2026-04-01T10:29:44.565Z</time></trkpt><trkpt lat="42.8731306" lon="11.9435688"><ele>356.66666666666663</ele><time>2026-04-01T10:29:45.565Z</time></trkpt><trkpt lat="42.8729976" lon="11.9438003"><ele>358.0</ele><time>2026-04-01T10:29:46.564Z</time></trkpt><trkpt lat="42.8728621" lon="11.944038"><ele>359.66666666666663</ele><time>2026-04-01T10:29:47.565Z</time></trkpt><trkpt lat="42.8727312" lon="11.9442594"><ele>361.3333333333333</ele><time>2026-04-01T10:29:48.564Z</time></trkpt><trkpt lat="42.8725987" lon="11.9445008"><ele>363.0</ele><time>2026-04-01T10:29:49.564Z</time></trkpt><trkpt lat="42.8724728" lon="11.9447655"><ele>359.0</ele><time>2026-04-01T10:29:50.564Z</time></trkpt><trkpt lat="42.8723535" lon="11.9450593"><ele>355.0</ele><time>2026-04-01T10:29:51.564Z</time></trkpt><trkpt lat="42.872229" lon="11.9453729"><ele>355.0</ele><time>2026-04-01T10:29:52.565Z</time></trkpt><trkpt lat="42.8721109" lon="11.9456948"><ele>355.0</ele><time>2026-04-01T10:29:53.564Z</time></trkpt><trkpt lat="42.8719885" lon="11.94601"><ele>356.5</ele><time>2026-04-01T10:29:54.564Z</time></trkpt><trkpt lat="42.8718708" lon="11.9462966"><ele>358.0</ele><time>2026-04-01T10:29:55.565Z</time></trkpt><trkpt lat="42.8717628" lon="11.9465853"><ele>352.0</ele><time>2026-04-01T10:29:56.566Z</time></trkpt><trkpt lat="42.8716729" lon="11.946878"><ele>346.0</ele><time>2026-04-01T10:29:57.565Z</time></trkpt><trkpt lat="42.8715956" lon="11.9471923"><ele>346.0</ele><time>2026-04-01T10:29:58.565Z</time></trkpt><trkpt lat="42.871526" lon="11.947515"><ele>346.0</ele><time>2026-04-01T10:29:59.565Z</time></trkpt><trkpt lat="42.8714646" lon="11.9478494"><ele>346.0</ele><time>2026-04-01T10:30:00.565Z</time></trkpt><trkpt lat="42.8714076" lon="11.9481827"><ele>346.0</ele><time>2026-04-01T10:30:01.564Z</time></trkpt><trkpt lat="42.8713707" lon="11.9485313"><ele>345.5</ele><time>2026-04-01T10:30:02.564Z</time></trkpt><trkpt lat="42.8713415" lon="11.9488709"><ele>345.0</ele><time>2026-04-01T10:30:03.565Z</time></trkpt><trkpt lat="42.871329" lon="11.9492027"><ele>344.0</ele><time>2026-04-01T10:30:04.564Z</time></trkpt><trkpt lat="42.8713141" lon="11.9495209"><ele>343.0</ele><time>2026-04-01T10:30:05.565Z</time></trkpt><trkpt lat="42.8712961" lon="11.9498541"><ele>343.5</ele><time>2026-04-01T10:30:06.563Z</time></trkpt><trkpt lat="42.871237" lon="11.9501989"><ele>344.0</ele><time>2026-04-01T10:30:07.564Z</time></trkpt><trkpt lat="42.871172" lon="11.9505483"><ele>344.5</ele><time>2026-04-01T10:30:08.566Z</time></trkpt><trkpt lat="42.8710995" lon="11.9509017"><ele>345.0</ele><time>2026-04-01T10:30:09.563Z</time></trkpt><trkpt lat="42.8710269" lon="11.9512361"><ele>345.0</ele><time>2026-04-01T10:30:10.565Z</time></trkpt><trkpt lat="42.8709425" lon="11.9515492"><ele>345.0</ele><time>2026-04-01T10:30:11.564Z</time></trkpt><trkpt lat="42.8708547" lon="11.9518648"><ele>338.5</ele><time>2026-04-01T10:30:12.564Z</time></trkpt><trkpt lat="42.870714" lon="11.9521807"><ele>332.0</ele><time>2026-04-01T10:30:13.565Z</time></trkpt><trkpt lat="42.8705681" lon="11.9524987"><ele>330.0</ele><time>2026-04-01T10:30:14.565Z</time></trkpt><trkpt lat="42.8704404" lon="11.952829"><ele>328.0</ele><time>2026-04-01T10:30:15.566Z</time></trkpt><trkpt lat="42.870334" lon="11.9531735"><ele>327.5</ele><time>2026-04-01T10:30:16.566Z</time></trkpt><trkpt lat="42.870252" lon="11.9535285"><ele>327.0</ele><time>2026-04-01T10:30:17.564Z</time></trkpt><trkpt lat="42.8702218" lon="11.9539083"><ele>325.5</ele><time>2026-04-01T10:30:18.566Z</time></trkpt><trkpt lat="42.8701871" lon="11.9542975"><ele>324.0</ele><time>2026-04-01T10:30:19.565Z</time></trkpt><trkpt lat="42.8701478" lon="11.9546708"><ele>320.0</ele><time>2026-04-01T10:30:20.565Z</time></trkpt><trkpt lat="42.870093" lon="11.9550505"><ele>316.0</ele><time>2026-04-01T10:30:21.565Z</time></trkpt><trkpt lat="42.8700202" lon="11.9554072"><ele>316.0</ele><time>2026-04-01T10:30:22.563Z</time></trkpt><trkpt lat="42.8699308" lon="11.9557642"><ele>316.0</ele><time>2026-04-01T10:30:23.564Z</time></trkpt><trkpt lat="42.8698323" lon="11.9561188"><ele>315.5</ele><time>2026-04-01T10:30:24.565Z</time></trkpt><trkpt lat="42.8697396" lon="11.9564651"><ele>315.0</ele><time>2026-04-01T10:30:25.565Z</time></trkpt><trkpt lat="42.869646" lon="11.9567978"><ele>314.5</ele><time>2026-04-01T10:30:26.566Z</time></trkpt><trkpt lat="42.86956" lon="11.9571085"><ele>314.0</ele><time>2026-04-01T10:30:27.564Z</time></trkpt><trkpt lat="42.869478" lon="11.9573968"><ele>313.6666666666667</ele><time>2026-04-01T10:30:28.565Z</time></trkpt><trkpt lat="42.8693991" lon="11.9576758"><ele>313.3333333333333</ele><time>2026-04-01T10:30:29.565Z</time></trkpt><trkpt lat="42.8693423" lon="11.9579576"><ele>313.0</ele><time>2026-04-01T10:30:30.563Z</time></trkpt><trkpt lat="42.8693276" lon="11.9582587"><ele>314.5</ele><time>2026-04-01T10:30:31.564Z</time></trkpt><trkpt lat="42.8693427" lon="11.9585848"><ele>316.0</ele><time>2026-04-01T10:30:32.565Z</time></trkpt><trkpt lat="42.8693747" lon="11.9589107"><ele>316.0</ele><time>2026-04-01T10:30:33.564Z</time></trkpt><trkpt lat="42.8694051" lon="11.9592546"><ele>316.0</ele><time>2026-04-01T10:30:34.565Z</time></trkpt><trkpt lat="42.8694473" lon="11.9595688"><ele>316.0</ele><time>2026-04-01T10:30:35.565Z</time></trkpt><trkpt lat="42.8694695" lon="11.9598848"><ele>316.0</ele><time>2026-04-01T10:30:36.565Z</time></trkpt><trkpt lat="42.8694788" lon="11.9601917"><ele>318.0</ele><time>2026-04-01T10:30:37.564Z</time></trkpt><trkpt lat="42.8694662" lon="11.9605105"><ele>320.0</ele><time>2026-04-01T10:30:38.564Z</time></trkpt><trkpt lat="42.8694414" lon="11.9608337"><ele>320.5</ele><time>2026-04-01T10:30:39.565Z</time></trkpt><trkpt lat="42.8694014" lon="11.9611557"><ele>321.0</ele><time>2026-04-01T10:30:40.565Z</time></trkpt><trkpt lat="42.8693712" lon="11.9614634"><ele>320.3333333333333</ele><time>2026-04-01T10:30:41.565Z</time></trkpt><trkpt lat="42.8693517" lon="11.9617418"><ele>319.66666666666663</ele><time>2026-04-01T10:30:42.564Z</time></trkpt><trkpt lat="42.8693735" lon="11.9620159"><ele>319.0</ele><time>2026-04-01T10:30:43.565Z</time></trkpt><trkpt lat="42.8694187" lon="11.9622673"><ele>319.0</ele><time>2026-04-01T10:30:44.565Z</time></trkpt><trkpt lat="42.8694637" lon="11.9624727"><ele>319.0</ele><time>2026-04-01T10:30:45.566Z</time></trkpt><trkpt lat="42.8694768" lon="11.9626301"><ele>319.0</ele><time>2026-04-01T10:30:46.566Z</time></trkpt><trkpt lat="42.8694829" lon="11.9627814"><ele>319.0</ele><time>2026-04-01T10:30:47.564Z</time></trkpt><trkpt lat="42.8694632" lon="11.9629111"><ele>318.0</ele><time>2026-04-01T10:30:48.564Z</time></trkpt><trkpt lat="42.8692962" lon="11.9629855"><ele>317.0</ele><time>2026-04-01T10:30:49.565Z</time></trkpt><trkpt lat="42.869161" lon="11.963069"><ele>316.0</ele><time>2026-04-01T10:30:50.565Z</time></trkpt><trkpt lat="42.8690071" lon="11.9631471"><ele>311.0</ele><time>2026-04-01T10:30:51.565Z</time></trkpt><trkpt lat="42.8688281" lon="11.9632521"><ele>306.0</ele><time>2026-04-01T10:30:52.565Z</time></trkpt><trkpt lat="42.8686578" lon="11.9633559"><ele>301.0</ele><time>2026-04-01T10:30:53.565Z</time></trkpt><trkpt lat="42.8684936" lon="11.9634737"><ele>301.0</ele><time>2026-04-01T10:30:54.565Z</time></trkpt><trkpt lat="42.8683527" lon="11.9635573"><ele>301.0</ele><time>2026-04-01T10:30:55.565Z</time></trkpt><trkpt lat="42.8682314" lon="11.9636616"><ele>301.0</ele><time>2026-04-01T10:30:56.564Z</time></trkpt><trkpt lat="42.8681607" lon="11.9637984"><ele>301.0</ele><time>2026-04-01T10:30:57.565Z</time></trkpt><trkpt lat="42.8681029" lon="11.963968"><ele>300.3333333333333</ele><time>2026-04-01T10:30:58.565Z</time></trkpt><trkpt lat="42.8681384" lon="11.9642046"><ele>299.6666666666667</ele><time>2026-04-01T10:30:59.564Z</time></trkpt><trkpt lat="42.8681752" lon="11.9644546"><ele>299.0</ele><time>2026-04-01T10:31:00.565Z</time></trkpt><trkpt lat="42.8681988" lon="11.9646903"><ele>299.0</ele><time>2026-04-01T10:31:01.565Z</time></trkpt><trkpt lat="42.8682075" lon="11.9649156"><ele>299.0</ele><time>2026-04-01T10:31:02.565Z</time></trkpt><trkpt lat="42.8682283" lon="11.9651399"><ele>299.0</ele><time>2026-04-01T10:31:03.566Z</time></trkpt><trkpt lat="42.8682552" lon="11.965258"><ele>299.0</ele><time>2026-04-01T10:31:04.564Z</time></trkpt><trkpt lat="42.8682928" lon="11.9654098"><ele>298.0</ele><time>2026-04-01T10:31:05.565Z</time></trkpt><trkpt lat="42.8683593" lon="11.9655819"><ele>297.0</ele><time>2026-04-01T10:31:06.565Z</time></trkpt><trkpt lat="42.8684363" lon="11.9658126"><ele>296.0</ele><time>2026-04-01T10:31:07.564Z</time></trkpt><trkpt lat="42.8685191" lon="11.9660588"><ele>295.0</ele><time>2026-04-01T10:31:08.564Z</time></trkpt><trkpt lat="42.8685944" lon="11.9663543"><ele>294.0</ele><time>2026-04-01T10:31:09.565Z</time></trkpt><trkpt lat="42.8686447" lon="11.9666861"><ele>292.5</ele><time>2026-04-01T10:31:10.566Z</time></trkpt><trkpt lat="42.8686828" lon="11.9670249"><ele>291.0</ele><time>2026-04-01T10:31:11.566Z</time></trkpt><trkpt lat="42.8687015" lon="11.9673828"><ele>290.5</ele><time>2026-04-01T10:31:12.565Z</time></trkpt><trkpt lat="42.8687241" lon="11.9677569"><ele>290.0</ele><time>2026-04-01T10:31:13.565Z</time></trkpt><trkpt lat="42.868734" lon="11.9681431"><ele>290.0</ele><time>2026-04-01T10:31:14.566Z</time></trkpt><trkpt lat="42.8687407" lon="11.9685218"><ele>290.0</ele><time>2026-04-01T10:31:15.564Z</time></trkpt><trkpt lat="42.8687723" lon="11.9689159"><ele>289.0</ele><time>2026-04-01T10:31:16.565Z</time></trkpt><trkpt lat="42.8687925" lon="11.9692973"><ele>288.0</ele><time>2026-04-01T10:31:17.565Z</time></trkpt><trkpt lat="42.8688078" lon="11.9696772"><ele>287.0</ele><time>2026-04-01T10:31:18.564Z</time></trkpt><trkpt lat="42.8688172" lon="11.9700296"><ele>286.0</ele><time>2026-04-01T10:31:19.565Z</time></trkpt><trkpt lat="42.8688366" lon="11.970374"><ele>286.0</ele><time>2026-04-01T10:31:20.565Z</time></trkpt><trkpt lat="42.8688507" lon="11.9707266"><ele>286.0</ele><time>2026-04-01T10:31:21.564Z</time></trkpt><trkpt lat="42.8688595" lon="11.9710855"><ele>286.0</ele><time>2026-04-01T10:31:22.565Z</time></trkpt><trkpt lat="42.8688756" lon="11.971447"><ele>286.0</ele><time>2026-04-01T10:31:23.564Z</time></trkpt><trkpt lat="42.8688888" lon="11.9718032"><ele>284.5</ele><time>2026-04-01T10:31:24.565Z</time></trkpt><trkpt lat="42.8689033" lon="11.9721732"><ele>283.0</ele><time>2026-04-01T10:31:25.565Z</time></trkpt><trkpt lat="42.8689142" lon="11.9725306"><ele>281.5</ele><time>2026-04-01T10:31:26.566Z</time></trkpt><trkpt lat="42.8689324" lon="11.9729119"><ele>280.0</ele><time>2026-04-01T10:31:27.566Z</time></trkpt><trkpt lat="42.8689449" lon="11.9732912"><ele>280.5</ele><time>2026-04-01T10:31:28.565Z</time></trkpt><trkpt lat="42.8689684" lon="11.9736668"><ele>281.0</ele><time>2026-04-01T10:31:29.566Z</time></trkpt><trkpt lat="42.8689812" lon="11.9740356"><ele>280.0</ele><time>2026-04-01T10:31:30.566Z</time></trkpt><trkpt lat="42.8690105" lon="11.9744291"><ele>279.0</ele><time>2026-04-01T10:31:31.565Z</time></trkpt><trkpt lat="42.8690243" lon="11.974801"><ele>278.0</ele><time>2026-04-01T10:31:32.564Z</time></trkpt><trkpt lat="42.8690368" lon="11.9751802"><ele>277.0</ele><time>2026-04-01T10:31:33.565Z</time></trkpt><trkpt lat="42.8690571" lon="11.9755634"><ele>277.5</ele><time>2026-04-01T10:31:34.565Z</time></trkpt><trkpt lat="42.8690711" lon="11.9759403"><ele>278.0</ele><time>2026-04-01T10:31:35.564Z</time></trkpt><trkpt lat="42.86909" lon="11.9763191"><ele>279.0</ele><time>2026-04-01T10:31:36.565Z</time></trkpt><trkpt lat="42.8691114" lon="11.9766973"><ele>280.0</ele><time>2026-04-01T10:31:37.565Z</time></trkpt><trkpt lat="42.869129" lon="11.9770868"><ele>280.0</ele><time>2026-04-01T10:31:38.565Z</time></trkpt><trkpt lat="42.8691542" lon="11.9774775"><ele>280.0</ele><time>2026-04-01T10:31:39.564Z</time></trkpt><trkpt lat="42.8691681" lon="11.9778517"><ele>279.5</ele><time>2026-04-01T10:31:40.565Z</time></trkpt><trkpt lat="42.8691868" lon="11.9782287"><ele>279.0</ele><time>2026-04-01T10:31:41.565Z</time></trkpt><trkpt lat="42.8692136" lon="11.9785926"><ele>279.0</ele><time>2026-04-01T10:31:42.564Z</time></trkpt><trkpt lat="42.8692322" lon="11.9789423"><ele>279.0</ele><time>2026-04-01T10:31:43.566Z</time></trkpt><trkpt lat="42.8692444" lon="11.9792852"><ele>276.5</ele><time>2026-04-01T10:31:44.566Z</time></trkpt><trkpt lat="42.8692616" lon="11.9796259"><ele>274.0</ele><time>2026-04-01T10:31:45.565Z</time></trkpt><trkpt lat="42.8692569" lon="11.979957"><ele>274.0</ele><time>2026-04-01T10:31:46.565Z</time></trkpt><trkpt lat="42.8692457" lon="11.9802852"><ele>274.0</ele><time>2026-04-01T10:31:47.565Z</time></trkpt><trkpt lat="42.8692095" lon="11.980601"><ele>273.66666666666663</ele><time>2026-04-01T10:31:48.566Z</time></trkpt><trkpt lat="42.8691626" lon="11.9809028"><ele>273.3333333333333</ele><time>2026-04-01T10:31:49.566Z</time></trkpt><trkpt lat="42.8691047" lon="11.9811778"><ele>273.0</ele><time>2026-04-01T10:31:50.565Z</time></trkpt><trkpt lat="42.8690408" lon="11.9814507"><ele>271.3333333333333</ele><time>2026-04-01T10:31:51.565Z</time></trkpt><trkpt lat="42.8689844" lon="11.9817271"><ele>269.66666666666663</ele><time>2026-04-01T10:31:52.566Z</time></trkpt><trkpt lat="42.8689335" lon="11.9820144"><ele>268.0</ele><time>2026-04-01T10:31:53.565Z</time></trkpt><trkpt lat="42.8688922" lon="11.9822955"><ele>267.66666666666663</ele><time>2026-04-01T10:31:54.565Z</time></trkpt><trkpt lat="42.8688714" lon="11.9825907"><ele>267.3333333333333</ele><time>2026-04-01T10:31:55.565Z</time></trkpt><trkpt lat="42.8688497" lon="11.9828858"><ele>267.0</ele><time>2026-04-01T10:31:56.565Z</time></trkpt><trkpt lat="42.8688366" lon="11.9831828"><ele>267.3333333333333</ele><time>2026-04-01T10:31:57.565Z</time></trkpt><trkpt lat="42.8688346" lon="11.9834767"><ele>267.66666666666663</ele><time>2026-04-01T10:31:58.565Z</time></trkpt><trkpt lat="42.8688427" lon="11.983772"><ele>268.0</ele><time>2026-04-01T10:31:59.566Z</time></trkpt><trkpt lat="42.8688618" lon="11.9840683"><ele>268.66666666666663</ele><time>2026-04-01T10:32:00.565Z</time></trkpt><trkpt lat="42.8688931" lon="11.9843635"><ele>269.3333333333333</ele><time>2026-04-01T10:32:01.565Z</time></trkpt><trkpt lat="42.8689386" lon="11.9846654"><ele>270.0</ele><time>2026-04-01T10:32:02.565Z</time></trkpt><trkpt lat="42.8689885" lon="11.9849705"><ele>271.0</ele><time>2026-04-01T10:32:03.566Z</time></trkpt><trkpt lat="42.8690388" lon="11.9852844"><ele>272.0</ele><time>2026-04-01T10:32:04.566Z</time></trkpt><trkpt lat="42.8690826" lon="11.9855977"><ele>273.5</ele><time>2026-04-01T10:32:05.566Z</time></trkpt><trkpt lat="42.8691172" lon="11.9859185"><ele>275.0</ele><time>2026-04-01T10:32:06.565Z</time></trkpt><trkpt lat="42.8691733" lon="11.9862351"><ele>275.0</ele><time>2026-04-01T10:32:07.565Z</time></trkpt><trkpt lat="42.8692662" lon="11.9865505"><ele>275.0</ele><time>2026-04-01T10:32:08.566Z</time></trkpt><trkpt lat="42.8693635" lon="11.9868578"><ele>269.5</ele><time>2026-04-01T10:32:09.565Z</time></trkpt><trkpt lat="42.8694851" lon="11.98716"><ele>264.0</ele><time>2026-04-01T10:32:10.565Z</time></trkpt><trkpt lat="42.8696135" lon="11.9874717"><ele>264.5</ele><time>2026-04-01T10:32:11.565Z</time></trkpt><trkpt lat="42.8697395" lon="11.9877961"><ele>265.0</ele><time>2026-04-01T10:32:12.565Z</time></trkpt><trkpt lat="42.869868" lon="11.9881239"><ele>264.0</ele><time>2026-04-01T10:32:13.564Z</time></trkpt><trkpt lat="42.8699908" lon="11.9884429"><ele>263.0</ele><time>2026-04-01T10:32:14.566Z</time></trkpt><trkpt lat="42.8701096" lon="11.9887684"><ele>262.5</ele><time>2026-04-01T10:32:15.564Z</time></trkpt><trkpt lat="42.870226" lon="11.9890905"><ele>262.0</ele><time>2026-04-01T10:32:16.565Z</time></trkpt><trkpt lat="42.8703461" lon="11.9894207"><ele>262.0</ele><time>2026-04-01T10:32:17.565Z</time></trkpt><trkpt lat="42.8704493" lon="11.9897477"><ele>262.0</ele><time>2026-04-01T10:32:18.565Z</time></trkpt><trkpt lat="42.8705531" lon="11.9900836"><ele>263.0</ele><time>2026-04-01T10:32:19.565Z</time></trkpt><trkpt lat="42.8706612" lon="11.9904115"><ele>264.0</ele><time>2026-04-01T10:32:20.565Z</time></trkpt><trkpt lat="42.8707631" lon="11.9907421"><ele>264.0</ele><time>2026-04-01T10:32:21.565Z</time></trkpt><trkpt lat="42.8708642" lon="11.9910678"><ele>264.0</ele><time>2026-04-01T10:32:22.565Z</time></trkpt><trkpt lat="42.8709687" lon="11.9913952"><ele>261.5</ele><time>2026-04-01T10:32:23.566Z</time></trkpt><trkpt lat="42.8710638" lon="11.9917176"><ele>259.0</ele><time>2026-04-01T10:32:24.565Z</time></trkpt><trkpt lat="42.8711673" lon="11.9920322"><ele>259.0</ele><time>2026-04-01T10:32:25.564Z</time></trkpt><trkpt lat="42.8712624" lon="11.9923561"><ele>259.0</ele><time>2026-04-01T10:32:26.565Z</time></trkpt><trkpt lat="42.8713549" lon="11.9926836"><ele>260.5</ele><time>2026-04-01T10:32:27.565Z</time></trkpt><trkpt lat="42.8714447" lon="11.9930114"><ele>262.0</ele><time>2026-04-01T10:32:28.566Z</time></trkpt><trkpt lat="42.8715408" lon="11.9933384"><ele>263.5</ele><time>2026-04-01T10:32:29.567Z</time></trkpt><trkpt lat="42.8716341" lon="11.993666"><ele>265.0</ele><time>2026-04-01T10:32:30.565Z</time></trkpt><trkpt lat="42.8717201" lon="11.993998"><ele>262.5</ele><time>2026-04-01T10:32:31.565Z</time></trkpt><trkpt lat="42.8717974" lon="11.9943301"><ele>260.0</ele><time>2026-04-01T10:32:32.566Z</time></trkpt><trkpt lat="42.8718666" lon="11.9946528"><ele>260.0</ele><time>2026-04-01T10:32:33.565Z</time></trkpt><trkpt lat="42.8719416" lon="11.9949734"><ele>260.0</ele><time>2026-04-01T10:32:34.565Z</time></trkpt><trkpt lat="42.8720192" lon="11.995297"><ele>259.5</ele><time>2026-04-01T10:32:35.566Z</time></trkpt><trkpt lat="42.8721045" lon="11.9956226"><ele>259.0</ele><time>2026-04-01T10:32:36.565Z</time></trkpt><trkpt lat="42.8722001" lon="11.995971"><ele>259.0</ele><time>2026-04-01T10:32:37.565Z</time></trkpt><trkpt lat="42.8722824" lon="11.9963042"><ele>259.0</ele><time>2026-04-01T10:32:38.565Z</time></trkpt><trkpt lat="42.872365" lon="11.996639"><ele>258.0</ele><time>2026-04-01T10:32:39.565Z</time></trkpt><trkpt lat="42.87245" lon="11.9969706"><ele>257.0</ele><time>2026-04-01T10:32:40.565Z</time></trkpt><trkpt lat="42.8725292" lon="11.9972879"><ele>257.0</ele><time>2026-04-01T10:32:41.565Z</time></trkpt><trkpt lat="42.8726102" lon="11.9975885"><ele>257.0</ele><time>2026-04-01T10:32:42.565Z</time></trkpt><trkpt lat="42.8726955" lon="11.9978618"><ele>257.0</ele><time>2026-04-01T10:32:43.564Z</time></trkpt><trkpt lat="42.8727664" lon="11.9981341"><ele>257.0</ele><time>2026-04-01T10:32:44.566Z</time></trkpt><trkpt lat="42.8728427" lon="11.9983886"><ele>257.0</ele><time>2026-04-01T10:32:45.565Z</time></trkpt><trkpt lat="42.8729401" lon="11.9986368"><ele>257.6666666666667</ele><time>2026-04-01T10:32:46.565Z</time></trkpt><trkpt lat="42.8730642" lon="11.9988639"><ele>258.3333333333333</ele><time>2026-04-01T10:32:47.565Z</time></trkpt><trkpt lat="42.8732049" lon="11.9990924"><ele>259.0</ele><time>2026-04-01T10:32:48.566Z</time></trkpt><trkpt lat="42.8733586" lon="11.9993314"><ele>258.0</ele><time>2026-04-01T10:32:49.565Z</time></trkpt><trkpt lat="42.8735369" lon="11.9995891"><ele>257.0</ele><time>2026-04-01T10:32:50.567Z</time></trkpt><trkpt lat="42.8737055" lon="11.9998527"><ele>257.0</ele><time>2026-04-01T10:32:51.564Z</time></trkpt><trkpt lat="42.8738829" lon="12.0001221"><ele>257.0</ele><time>2026-04-01T10:32:52.566Z</time></trkpt><trkpt lat="42.8740627" lon="12.000378"><ele>257.0</ele><time>2026-04-01T10:32:53.566Z</time></trkpt><trkpt lat="42.8742284" lon="12.0006245"><ele>257.0</ele><time>2026-04-01T10:32:54.566Z</time></trkpt><trkpt lat="42.874376" lon="12.0008639"><ele>256.0</ele><time>2026-04-01T10:32:55.566Z</time></trkpt><trkpt lat="42.8745096" lon="12.0010993"><ele>255.0</ele><time>2026-04-01T10:32:56.564Z</time></trkpt><trkpt lat="42.8746208" lon="12.0013549"><ele>254.0</ele><time>2026-04-01T10:32:57.566Z</time></trkpt><trkpt lat="42.8747144" lon="12.0016531"><ele>253.5</ele><time>2026-04-01T10:32:58.565Z</time></trkpt><trkpt lat="42.8747884" lon="12.001955"><ele>253.0</ele><time>2026-04-01T10:32:59.566Z</time></trkpt><trkpt lat="42.8748568" lon="12.002262"><ele>254.0</ele><time>2026-04-01T10:33:00.565Z</time></trkpt><trkpt lat="42.8748756" lon="12.0025374"><ele>255.0</ele><time>2026-04-01T10:33:01.566Z</time></trkpt><trkpt lat="42.8748784" lon="12.0028101"><ele>256.0</ele><time>2026-04-01T10:33:02.566Z</time></trkpt><trkpt lat="42.8748158" lon="12.0030399"><ele>256.0</ele><time>2026-04-01T10:33:03.566Z</time></trkpt><trkpt lat="42.8748148" lon="12.0032702"><ele>256.0</ele><time>2026-04-01T10:33:04.565Z</time></trkpt><trkpt lat="42.8747992" lon="12.0035062"><ele>256.0</ele><time>2026-04-01T10:33:05.566Z</time></trkpt><trkpt lat="42.874825" lon="12.0037294"><ele>256.5</ele><time>2026-04-01T10:33:06.565Z</time></trkpt><trkpt lat="42.8750746" lon="12.0039039"><ele>257.0</ele><time>2026-04-01T10:33:07.565Z</time></trkpt><trkpt lat="42.8752425" lon="12.0040907"><ele>254.5</ele><time>2026-04-01T10:33:08.566Z</time></trkpt><trkpt lat="42.8754159" lon="12.0042819"><ele>252.0</ele><time>2026-04-01T10:33:09.565Z</time></trkpt><trkpt lat="42.8755944" lon="12.0044876"><ele>252.0</ele><time>2026-04-01T10:33:10.565Z</time></trkpt><trkpt lat="42.8756981" lon="12.0047812"><ele>252.0</ele><time>2026-04-01T10:33:11.565Z</time></trkpt><trkpt lat="42.8758187" lon="12.0050547"><ele>250.5</ele><time>2026-04-01T10:33:12.565Z</time></trkpt><trkpt lat="42.8759209" lon="12.0053585"><ele>249.0</ele><time>2026-04-01T10:33:13.566Z</time></trkpt><trkpt lat="42.8760014" lon="12.0056266"><ele>248.33333333333331</ele><time>2026-04-01T10:33:14.566Z</time></trkpt><trkpt lat="42.876078" lon="12.0058714"><ele>247.66666666666666</ele><time>2026-04-01T10:33:15.565Z</time></trkpt><trkpt lat="42.876132" lon="12.0061023"><ele>247.0</ele><time>2026-04-01T10:33:16.565Z</time></trkpt><trkpt lat="42.8761349" lon="12.0063215"><ele>247.0</ele><time>2026-04-01T10:33:17.566Z</time></trkpt><trkpt lat="42.8760943" lon="12.0065636"><ele>247.0</ele><time>2026-04-01T10:33:18.566Z</time></trkpt><trkpt lat="42.8760268" lon="12.00681"><ele>247.0</ele><time>2026-04-01T10:33:19.565Z</time></trkpt><trkpt lat="42.875947" lon="12.0070861"><ele>250.5</ele><time>2026-04-01T10:33:20.566Z</time></trkpt><trkpt lat="42.8758613" lon="12.0073696"><ele>254.0</ele><time>2026-04-01T10:33:21.566Z</time></trkpt><trkpt lat="42.8757792" lon="12.0076617"><ele>254.0</ele><time>2026-04-01T10:33:22.565Z</time></trkpt><trkpt lat="42.8756904" lon="12.0079424"><ele>254.0</ele><time>2026-04-01T10:33:23.567Z</time></trkpt><trkpt lat="42.8756181" lon="12.0082034"><ele>254.0</ele><time>2026-04-01T10:33:24.566Z</time></trkpt><trkpt lat="42.8755485" lon="12.0084497"><ele>253.33333333333334</ele><time>2026-04-01T10:33:25.566Z</time></trkpt><trkpt lat="42.8754887" lon="12.0087008"><ele>252.66666666666669</ele><time>2026-04-01T10:33:26.567Z</time></trkpt><trkpt lat="42.8754153" lon="12.0089591"><ele>252.0</ele><time>2026-04-01T10:33:27.566Z</time></trkpt><trkpt lat="42.8753274" lon="12.0092567"><ele>254.0</ele><time>2026-04-01T10:33:28.567Z</time></trkpt><trkpt lat="42.8752263" lon="12.0095731"><ele>256.0</ele><time>2026-04-01T10:33:29.566Z</time></trkpt><trkpt lat="42.8751123" lon="12.009908"><ele>256.5</ele><time>2026-04-01T10:33:30.565Z</time></trkpt><trkpt lat="42.8749924" lon="12.0102556"><ele>257.0</ele><time>2026-04-01T10:33:31.564Z</time></trkpt><trkpt lat="42.8748701" lon="12.0106033"><ele>255.0</ele><time>2026-04-01T10:33:32.565Z</time></trkpt><trkpt lat="42.8747489" lon="12.0109464"><ele>253.0</ele><time>2026-04-01T10:33:33.565Z</time></trkpt><trkpt lat="42.874634" lon="12.011286"><ele>253.0</ele><time>2026-04-01T10:33:34.566Z</time></trkpt><trkpt lat="42.874525" lon="12.0116002"><ele>253.0</ele><time>2026-04-01T10:33:35.565Z</time></trkpt><trkpt lat="42.8744199" lon="12.0118969"><ele>252.0</ele><time>2026-04-01T10:33:36.564Z</time></trkpt><trkpt lat="42.8743166" lon="12.0121883"><ele>251.0</ele><time>2026-04-01T10:33:37.564Z</time></trkpt><trkpt lat="42.874218" lon="12.0124828"><ele>250.33333333333334</ele><time>2026-04-01T10:33:38.567Z</time></trkpt><trkpt lat="42.8741261" lon="12.012762"><ele>249.66666666666669</ele><time>2026-04-01T10:33:39.566Z</time></trkpt><trkpt lat="42.8740472" lon="12.0130448"><ele>249.0</ele><time>2026-04-01T10:33:40.565Z</time></trkpt><trkpt lat="42.8739799" lon="12.0133162"><ele>249.0</ele><time>2026-04-01T10:33:41.566Z</time></trkpt><trkpt lat="42.8739168" lon="12.0135665"><ele>249.0</ele><time>2026-04-01T10:33:42.565Z</time></trkpt><trkpt lat="42.8738428" lon="12.013811"><ele>249.0</ele><time>2026-04-01T10:33:43.565Z</time></trkpt><trkpt lat="42.8737773" lon="12.0140535"><ele>249.0</ele><time>2026-04-01T10:33:44.566Z</time></trkpt><trkpt lat="42.8737036" lon="12.0142912"><ele>249.0</ele><time>2026-04-01T10:33:45.566Z</time></trkpt><trkpt lat="42.873617" lon="12.0145304"><ele>249.0</ele><time>2026-04-01T10:33:46.566Z</time></trkpt><trkpt lat="42.8735217" lon="12.0147541"><ele>250.0</ele><time>2026-04-01T10:33:47.566Z</time></trkpt><trkpt lat="42.8734161" lon="12.0149528"><ele>251.0</ele><time>2026-04-01T10:33:48.565Z</time></trkpt><trkpt lat="42.873303" lon="12.0151455"><ele>252.0</ele><time>2026-04-01T10:33:49.566Z</time></trkpt><trkpt lat="42.8731889" lon="12.0153382"><ele>252.0</ele><time>2026-04-01T10:33:50.564Z</time></trkpt><trkpt lat="42.8730775" lon="12.0155352"><ele>252.0</ele><time>2026-04-01T10:33:51.566Z</time></trkpt><trkpt lat="42.8729762" lon="12.0157317"><ele>252.0</ele><time>2026-04-01T10:33:52.565Z</time></trkpt><trkpt lat="42.8728886" lon="12.0159165"><ele>251.25</ele><time>2026-04-01T10:33:53.565Z</time></trkpt><trkpt lat="42.8728125" lon="12.0160943"><ele>250.5</ele><time>2026-04-01T10:33:54.566Z</time></trkpt><trkpt lat="42.8727386" lon="12.0162469"><ele>249.75</ele><time>2026-04-01T10:33:55.566Z</time></trkpt><trkpt lat="42.8726789" lon="12.0163775"><ele>249.0</ele><time>2026-04-01T10:33:56.566Z</time></trkpt><trkpt lat="42.8726447" lon="12.016471"><ele>249.0</ele><time>2026-04-01T10:33:57.566Z</time></trkpt><trkpt lat="42.8726337" lon="12.0165898"><ele>249.0</ele><time>2026-04-01T10:33:59.566Z</time></trkpt><trkpt lat="42.8727207" lon="12.0167147"><ele>249.0</ele><time>2026-04-01T10:34:01.566Z</time></trkpt><trkpt lat="42.8728204" lon="12.0167723"><ele>249.0</ele><time>2026-04-01T10:34:02.566Z</time></trkpt><trkpt lat="42.8729454" lon="12.0168592"><ele>248.66666666666669</ele><time>2026-04-01T10:34:03.566Z</time></trkpt><trkpt lat="42.873081" lon="12.0169878"><ele>248.33333333333334</ele><time>2026-04-01T10:34:04.565Z</time></trkpt><trkpt lat="42.8732273" lon="12.0171485"><ele>248.0</ele><time>2026-04-01T10:34:05.565Z</time></trkpt><trkpt lat="42.8733597" lon="12.0173171"><ele>246.66666666666669</ele><time>2026-04-01T10:34:06.566Z</time></trkpt><trkpt lat="42.8734741" lon="12.017493"><ele>245.33333333333331</ele><time>2026-04-01T10:34:07.564Z</time></trkpt><trkpt lat="42.8735701" lon="12.0176649"><ele>244.0</ele><time>2026-04-01T10:34:08.566Z</time></trkpt><trkpt lat="42.8736447" lon="12.0178481"><ele>244.0</ele><time>2026-04-01T10:34:09.566Z</time></trkpt><trkpt lat="42.8737059" lon="12.0180646"><ele>244.0</ele><time>2026-04-01T10:34:10.566Z</time></trkpt><trkpt lat="42.8737832" lon="12.0182967"><ele>244.0</ele><time>2026-04-01T10:34:11.565Z</time></trkpt><trkpt lat="42.8738588" lon="12.0185592"><ele>244.0</ele><time>2026-04-01T10:34:12.565Z</time></trkpt><trkpt lat="42.8739313" lon="12.0188269"><ele>244.0</ele><time>2026-04-01T10:34:13.566Z</time></trkpt><trkpt lat="42.8740134" lon="12.0191117"><ele>244.0</ele><time>2026-04-01T10:34:14.567Z</time></trkpt><trkpt lat="42.8740964" lon="12.0194103"><ele>244.0</ele><time>2026-04-01T10:34:15.566Z</time></trkpt><trkpt lat="42.8741787" lon="12.0197142"><ele>244.0</ele><time>2026-04-01T10:34:16.567Z</time></trkpt><trkpt lat="42.8742599" lon="12.0200146"><ele>242.0</ele><time>2026-04-01T10:34:17.565Z</time></trkpt><trkpt lat="42.8743396" lon="12.0202738"><ele>240.0</ele><time>2026-04-01T10:34:18.567Z</time></trkpt><trkpt lat="42.8744066" lon="12.0205096"><ele>238.0</ele><time>2026-04-01T10:34:19.566Z</time></trkpt><trkpt lat="42.8744777" lon="12.020744"><ele>238.33333333333331</ele><time>2026-04-01T10:34:20.566Z</time></trkpt><trkpt lat="42.8745478" lon="12.0209811"><ele>238.66666666666669</ele><time>2026-04-01T10:34:21.566Z</time></trkpt><trkpt lat="42.8746179" lon="12.0212182"><ele>239.0</ele><time>2026-04-01T10:34:22.566Z</time></trkpt><trkpt lat="42.8746763" lon="12.0214478"><ele>239.66666666666669</ele><time>2026-04-01T10:34:23.566Z</time></trkpt><trkpt lat="42.8747468" lon="12.0216899"><ele>240.33333333333331</ele><time>2026-04-01T10:34:24.567Z</time></trkpt><trkpt lat="42.8748145" lon="12.0219218"><ele>241.0</ele><time>2026-04-01T10:34:25.565Z</time></trkpt><trkpt lat="42.8748798" lon="12.0221348"><ele>241.0</ele><time>2026-04-01T10:34:26.566Z</time></trkpt><trkpt lat="42.8749492" lon="12.0223603"><ele>241.0</ele><time>2026-04-01T10:34:27.565Z</time></trkpt><trkpt lat="42.8750119" lon="12.022577"><ele>241.0</ele><time>2026-04-01T10:34:28.567Z</time></trkpt><trkpt lat="42.8750889" lon="12.0228122"><ele>240.5</ele><time>2026-04-01T10:34:29.565Z</time></trkpt><trkpt lat="42.8751787" lon="12.0230846"><ele>240.0</ele><time>2026-04-01T10:34:30.567Z</time></trkpt><trkpt lat="42.8752706" lon="12.0233909"><ele>239.5</ele><time>2026-04-01T10:34:31.565Z</time></trkpt><trkpt lat="42.8753609" lon="12.0237302"><ele>239.0</ele><time>2026-04-01T10:34:32.565Z</time></trkpt><trkpt lat="42.8754595" lon="12.024102"><ele>238.5</ele><time>2026-04-01T10:34:33.566Z</time></trkpt><trkpt lat="42.8755626" lon="12.024482"><ele>238.0</ele><time>2026-04-01T10:34:34.567Z</time></trkpt><trkpt lat="42.8756653" lon="12.0248603"><ele>239.0</ele><time>2026-04-01T10:34:35.566Z</time></trkpt><trkpt lat="42.875752" lon="12.0252255"><ele>240.0</ele><time>2026-04-01T10:34:36.567Z</time></trkpt><trkpt lat="42.8758134" lon="12.0255705"><ele>240.0</ele><time>2026-04-01T10:34:37.566Z</time></trkpt><trkpt lat="42.8758519" lon="12.025909"><ele>240.0</ele><time>2026-04-01T10:34:38.566Z</time></trkpt><trkpt lat="42.8758863" lon="12.0262497"><ele>240.0</ele><time>2026-04-01T10:34:39.566Z</time></trkpt><trkpt lat="42.8759117" lon="12.0265956"><ele>240.0</ele><time>2026-04-01T10:34:40.566Z</time></trkpt><trkpt lat="42.875942" lon="12.0269507"><ele>239.0</ele><time>2026-04-01T10:34:41.566Z</time></trkpt><trkpt lat="42.8759752" lon="12.0273088"><ele>238.0</ele><time>2026-04-01T10:34:42.564Z</time></trkpt><trkpt lat="42.8760058" lon="12.0276485"><ele>238.0</ele><time>2026-04-01T10:34:43.565Z</time></trkpt><trkpt lat="42.8760335" lon="12.0279741"><ele>238.0</ele><time>2026-04-01T10:34:44.565Z</time></trkpt><trkpt lat="42.8760596" lon="12.0282941"><ele>238.0</ele><time>2026-04-01T10:34:45.566Z</time></trkpt><trkpt lat="42.8760842" lon="12.0286203"><ele>238.0</ele><time>2026-04-01T10:34:46.567Z</time></trkpt><trkpt lat="42.8761108" lon="12.0289399"><ele>238.0</ele><time>2026-04-01T10:34:47.566Z</time></trkpt><trkpt lat="42.8761403" lon="12.0292534"><ele>238.0</ele><time>2026-04-01T10:34:48.565Z</time></trkpt><trkpt lat="42.8761657" lon="12.0295528"><ele>238.0</ele><time>2026-04-01T10:34:49.566Z</time></trkpt><trkpt lat="42.8761939" lon="12.0298501"><ele>238.0</ele><time>2026-04-01T10:34:50.564Z</time></trkpt><trkpt lat="42.8762196" lon="12.0301559"><ele>238.0</ele><time>2026-04-01T10:34:51.566Z</time></trkpt><trkpt lat="42.8762496" lon="12.030466"><ele>237.5</ele><time>2026-04-01T10:34:52.566Z</time></trkpt><trkpt lat="42.8762849" lon="12.0307889"><ele>237.0</ele><time>2026-04-01T10:34:53.566Z</time></trkpt><trkpt lat="42.8763262" lon="12.0311271"><ele>237.0</ele><time>2026-04-01T10:34:54.566Z</time></trkpt><trkpt lat="42.8763643" lon="12.0314785"><ele>237.0</ele><time>2026-04-01T10:34:55.566Z</time></trkpt><trkpt lat="42.8763888" lon="12.0318394"><ele>237.0</ele><time>2026-04-01T10:34:56.566Z</time></trkpt><trkpt lat="42.8764129" lon="12.0321875"><ele>237.0</ele><time>2026-04-01T10:34:57.566Z</time></trkpt><trkpt lat="42.8764333" lon="12.0325073"><ele>237.0</ele><time>2026-04-01T10:34:58.566Z</time></trkpt><trkpt lat="42.8764472" lon="12.032783"><ele>237.0</ele><time>2026-04-01T10:34:59.565Z</time></trkpt><trkpt lat="42.8764714" lon="12.0330228"><ele>237.0</ele><time>2026-04-01T10:35:00.566Z</time></trkpt><trkpt lat="42.8765048" lon="12.0332291"><ele>237.0</ele><time>2026-04-01T10:35:01.566Z</time></trkpt><trkpt lat="42.8765414" lon="12.0333668"><ele>237.0</ele><time>2026-04-01T10:35:02.566Z</time></trkpt><trkpt lat="42.8765789" lon="12.0334739"><ele>237.0</ele><time>2026-04-01T10:35:03.565Z</time></trkpt><trkpt lat="42.8766313" lon="12.0335415"><ele>237.0</ele><time>2026-04-01T10:35:04.566Z</time></trkpt><trkpt lat="42.8767753" lon="12.0335489"><ele>237.0</ele><time>2026-04-01T10:35:06.565Z</time></trkpt><trkpt lat="42.8769073" lon="12.0335695"><ele>237.0</ele><time>2026-04-01T10:35:07.566Z</time></trkpt><trkpt lat="42.8770537" lon="12.0336062"><ele>237.0</ele><time>2026-04-01T10:35:08.567Z</time></trkpt><trkpt lat="42.8772315" lon="12.0336712"><ele>237.0</ele><time>2026-04-01T10:35:09.566Z</time></trkpt><trkpt lat="42.877429" lon="12.0337304"><ele>236.33333333333331</ele><time>2026-04-01T10:35:10.565Z</time></trkpt><trkpt lat="42.8776444" lon="12.0337728"><ele>235.66666666666666</ele><time>2026-04-01T10:35:11.565Z</time></trkpt><trkpt lat="42.8778662" lon="12.0337676"><ele>235.0</ele><time>2026-04-01T10:35:12.566Z</time></trkpt><trkpt lat="42.8780961" lon="12.033705"><ele>235.0</ele><time>2026-04-01T10:35:13.566Z</time></trkpt><trkpt lat="42.8783272" lon="12.0335848"><ele>235.0</ele><time>2026-04-01T10:35:14.566Z</time></trkpt><trkpt lat="42.8785652" lon="12.0334349"><ele>236.0</ele><time>2026-04-01T10:35:15.566Z</time></trkpt><trkpt lat="42.878803" lon="12.0332605"><ele>237.0</ele><time>2026-04-01T10:35:16.565Z</time></trkpt><trkpt lat="42.8790399" lon="12.0330758"><ele>236.0</ele><time>2026-04-01T10:35:17.566Z</time></trkpt><trkpt lat="42.8792867" lon="12.0328898"><ele>235.0</ele><time>2026-04-01T10:35:18.566Z</time></trkpt><trkpt lat="42.8795439" lon="12.032695"><ele>235.0</ele><time>2026-04-01T10:35:19.565Z</time></trkpt><trkpt lat="42.879788" lon="12.032526"><ele>235.0</ele><time>2026-04-01T10:35:20.565Z</time></trkpt><trkpt lat="42.8800223" lon="12.0323677"><ele>235.0</ele><time>2026-04-01T10:35:21.565Z</time></trkpt><trkpt lat="42.8802465" lon="12.0322082"><ele>235.0</ele><time>2026-04-01T10:35:22.565Z</time></trkpt><trkpt lat="42.8804629" lon="12.0320431"><ele>235.0</ele><time>2026-04-01T10:35:23.565Z</time></trkpt><trkpt lat="42.8806777" lon="12.0318829"><ele>235.0</ele><time>2026-04-01T10:35:24.566Z</time></trkpt><trkpt lat="42.8808884" lon="12.0317259"><ele>235.5</ele><time>2026-04-01T10:35:25.566Z</time></trkpt><trkpt lat="42.8810957" lon="12.0315755"><ele>236.0</ele><time>2026-04-01T10:35:26.567Z</time></trkpt><trkpt lat="42.8812924" lon="12.0314343"><ele>236.0</ele><time>2026-04-01T10:35:27.566Z</time></trkpt><trkpt lat="42.8814954" lon="12.031279"><ele>236.0</ele><time>2026-04-01T10:35:28.566Z</time></trkpt><trkpt lat="42.8817332" lon="12.0311218"><ele>236.0</ele><time>2026-04-01T10:35:29.567Z</time></trkpt><trkpt lat="42.881964" lon="12.0309486"><ele>236.0</ele><time>2026-04-01T10:35:30.567Z</time></trkpt><trkpt lat="42.8822133" lon="12.0307613"><ele>236.0</ele><time>2026-04-01T10:35:31.566Z</time></trkpt><trkpt lat="42.8825001" lon="12.0305589"><ele>236.0</ele><time>2026-04-01T10:35:32.565Z</time></trkpt><trkpt lat="42.8827819" lon="12.0303542"><ele>236.0</ele><time>2026-04-01T10:35:33.566Z</time></trkpt><trkpt lat="42.8830776" lon="12.0301412"><ele>236.0</ele><time>2026-04-01T10:35:34.567Z</time></trkpt><trkpt lat="42.8833555" lon="12.0299469"><ele>235.5</ele><time>2026-04-01T10:35:35.565Z</time></trkpt><trkpt lat="42.8836294" lon="12.0297619"><ele>235.0</ele><time>2026-04-01T10:35:36.566Z</time></trkpt><trkpt lat="42.8838877" lon="12.0295809"><ele>235.0</ele><time>2026-04-01T10:35:37.566Z</time></trkpt><trkpt lat="42.8841361" lon="12.0293962"><ele>235.0</ele><time>2026-04-01T10:35:38.566Z</time></trkpt><trkpt lat="42.8843852" lon="12.0292261"><ele>236.0</ele><time>2026-04-01T10:35:39.566Z</time></trkpt><trkpt lat="42.884615" lon="12.0290457"><ele>237.0</ele><time>2026-04-01T10:35:40.564Z</time></trkpt><trkpt lat="42.8848574" lon="12.02887"><ele>236.5</ele><time>2026-04-01T10:35:41.564Z</time></trkpt><trkpt lat="42.8850973" lon="12.028693"><ele>236.0</ele><time>2026-04-01T10:35:42.567Z</time></trkpt><trkpt lat="42.8853332" lon="12.0285163"><ele>236.0</ele><time>2026-04-01T10:35:43.566Z</time></trkpt><trkpt lat="42.8855695" lon="12.0283352"><ele>236.0</ele><time>2026-04-01T10:35:44.567Z</time></trkpt><trkpt lat="42.8858089" lon="12.0281578"><ele>235.5</ele><time>2026-04-01T10:35:45.565Z</time></trkpt><trkpt lat="42.8860253" lon="12.0280001"><ele>235.0</ele><time>2026-04-01T10:35:46.566Z</time></trkpt><trkpt lat="42.8862542" lon="12.0278317"><ele>235.0</ele><time>2026-04-01T10:35:47.566Z</time></trkpt><trkpt lat="42.8864818" lon="12.0276701"><ele>235.0</ele><time>2026-04-01T10:35:48.567Z</time></trkpt><trkpt lat="42.886713" lon="12.0275115"><ele>235.5</ele><time>2026-04-01T10:35:49.566Z</time></trkpt><trkpt lat="42.8869471" lon="12.0273476"><ele>236.0</ele><time>2026-04-01T10:35:50.565Z</time></trkpt><trkpt lat="42.8871691" lon="12.0271898"><ele>236.0</ele><time>2026-04-01T10:35:51.565Z</time></trkpt><trkpt lat="42.8873978" lon="12.0270229"><ele>236.0</ele><time>2026-04-01T10:35:52.566Z</time></trkpt><trkpt lat="42.887628" lon="12.026858"><ele>236.0</ele><time>2026-04-01T10:35:53.566Z</time></trkpt><trkpt lat="42.8878606" lon="12.0266959"><ele>236.0</ele><time>2026-04-01T10:35:54.564Z</time></trkpt><trkpt lat="42.8880902" lon="12.0265336"><ele>236.0</ele><time>2026-04-01T10:35:55.566Z</time></trkpt><trkpt lat="42.8883194" lon="12.0263705"><ele>236.0</ele><time>2026-04-01T10:35:56.566Z</time></trkpt><trkpt lat="42.8885451" lon="12.0262056"><ele>236.5</ele><time>2026-04-01T10:35:57.565Z</time></trkpt><trkpt lat="42.8887798" lon="12.0260465"><ele>237.0</ele><time>2026-04-01T10:35:58.567Z</time></trkpt><trkpt lat="42.8890114" lon="12.0258864"><ele>237.0</ele><time>2026-04-01T10:35:59.567Z</time></trkpt><trkpt lat="42.8892401" lon="12.0257195"><ele>237.0</ele><time>2026-04-01T10:36:00.567Z</time></trkpt><trkpt lat="42.8894729" lon="12.0255538"><ele>237.0</ele><time>2026-04-01T10:36:01.567Z</time></trkpt><trkpt lat="42.8897049" lon="12.0253873"><ele>237.0</ele><time>2026-04-01T10:36:02.566Z</time></trkpt><trkpt lat="42.8899372" lon="12.0252291"><ele>237.0</ele><time>2026-04-01T10:36:03.566Z</time></trkpt><trkpt lat="42.8901649" lon="12.0250542"><ele>237.0</ele><time>2026-04-01T10:36:04.567Z</time></trkpt><trkpt lat="42.8903956" lon="12.0248864"><ele>237.0</ele><time>2026-04-01T10:36:05.567Z</time></trkpt><trkpt lat="42.8906327" lon="12.0247203"><ele>237.0</ele><time>2026-04-01T10:36:06.565Z</time></trkpt><trkpt lat="42.8908632" lon="12.0245605"><ele>236.5</ele><time>2026-04-01T10:36:07.566Z</time></trkpt><trkpt lat="42.8910932" lon="12.024398"><ele>236.0</ele><time>2026-04-01T10:36:08.566Z</time></trkpt><trkpt lat="42.8913274" lon="12.0242309"><ele>236.0</ele><time>2026-04-01T10:36:09.566Z</time></trkpt><trkpt lat="42.8915531" lon="12.0240595"><ele>236.0</ele><time>2026-04-01T10:36:10.566Z</time></trkpt><trkpt lat="42.891771" lon="12.0239113"><ele>235.5</ele><time>2026-04-01T10:36:11.566Z</time></trkpt><trkpt lat="42.8920013" lon="12.0237457"><ele>235.0</ele><time>2026-04-01T10:36:12.566Z</time></trkpt><trkpt lat="42.8922314" lon="12.0235819"><ele>235.0</ele><time>2026-04-01T10:36:13.566Z</time></trkpt><trkpt lat="42.8924673" lon="12.0234198"><ele>235.0</ele><time>2026-04-01T10:36:14.566Z</time></trkpt><trkpt lat="42.8926964" lon="12.0232539"><ele>236.0</ele><time>2026-04-01T10:36:15.566Z</time></trkpt><trkpt lat="42.8929261" lon="12.0230904"><ele>237.0</ele><time>2026-04-01T10:36:16.567Z</time></trkpt><trkpt lat="42.8931602" lon="12.0229308"><ele>237.0</ele><time>2026-04-01T10:36:17.565Z</time></trkpt><trkpt lat="42.8933794" lon="12.02278"><ele>237.0</ele><time>2026-04-01T10:36:18.565Z</time></trkpt><trkpt lat="42.8936124" lon="12.0226189"><ele>236.5</ele><time>2026-04-01T10:36:19.566Z</time></trkpt><trkpt lat="42.8938448" lon="12.0224587"><ele>236.0</ele><time>2026-04-01T10:36:20.567Z</time></trkpt><trkpt lat="42.8940774" lon="12.0222829"><ele>237.0</ele><time>2026-04-01T10:36:21.566Z</time></trkpt><trkpt lat="42.8942869" lon="12.0221226"><ele>238.0</ele><time>2026-04-01T10:36:22.566Z</time></trkpt><trkpt lat="42.8945076" lon="12.0219488"><ele>238.0</ele><time>2026-04-01T10:36:23.566Z</time></trkpt><trkpt lat="42.8947096" lon="12.0218"><ele>238.0</ele><time>2026-04-01T10:36:24.566Z</time></trkpt><trkpt lat="42.8948678" lon="12.0216811"><ele>238.0</ele><time>2026-04-01T10:36:25.567Z</time></trkpt><trkpt lat="42.8950285" lon="12.0215651"><ele>238.0</ele><time>2026-04-01T10:36:26.566Z</time></trkpt><trkpt lat="42.8951808" lon="12.0214508"><ele>238.0</ele><time>2026-04-01T10:36:27.566Z</time></trkpt><trkpt lat="42.8953224" lon="12.0213458"><ele>238.0</ele><time>2026-04-01T10:36:28.566Z</time></trkpt><trkpt lat="42.8954449" lon="12.0212532"><ele>238.0</ele><time>2026-04-01T10:36:29.566Z</time></trkpt><trkpt lat="42.8955602" lon="12.0211643"><ele>238.0</ele><time>2026-04-01T10:36:30.566Z</time></trkpt><trkpt lat="42.8956445" lon="12.0211132"><ele>238.0</ele><time>2026-04-01T10:36:31.567Z</time></trkpt><trkpt lat="42.895712" lon="12.0210937"><ele>238.0</ele><time>2026-04-01T10:36:32.566Z</time></trkpt><trkpt lat="42.8957991" lon="12.0211705"><ele>238.0</ele><time>2026-04-01T10:36:34.565Z</time></trkpt><trkpt lat="42.8958276" lon="12.0212736"><ele>238.0</ele><time>2026-04-01T10:36:35.567Z</time></trkpt><trkpt lat="42.8958735" lon="12.0213927"><ele>238.0</ele><time>2026-04-01T10:36:36.566Z</time></trkpt><trkpt lat="42.895917" lon="12.0215339"><ele>238.0</ele><time>2026-04-01T10:36:37.567Z</time></trkpt><trkpt lat="42.8959766" lon="12.0216859"><ele>238.0</ele><time>2026-04-01T10:36:38.567Z</time></trkpt><trkpt lat="42.8960581" lon="12.0218443"><ele>237.66666666666666</ele><time>2026-04-01T10:36:39.567Z</time></trkpt><trkpt lat="42.8961779" lon="12.0219967"><ele>237.33333333333331</ele><time>2026-04-01T10:36:40.566Z</time></trkpt><trkpt lat="42.8963081" lon="12.0221537"><ele>237.0</ele><time>2026-04-01T10:36:41.566Z</time></trkpt><trkpt lat="42.8964479" lon="12.0223153"><ele>237.0</ele><time>2026-04-01T10:36:42.566Z</time></trkpt><trkpt lat="42.8965783" lon="12.0224703"><ele>237.0</ele><time>2026-04-01T10:36:43.566Z</time></trkpt><trkpt lat="42.8966963" lon="12.0226178"><ele>237.0</ele><time>2026-04-01T10:36:44.567Z</time></trkpt><trkpt lat="42.8968196" lon="12.0227872"><ele>237.66666666666669</ele><time>2026-04-01T10:36:45.566Z</time></trkpt><trkpt lat="42.8969563" lon="12.0229725"><ele>238.33333333333334</ele><time>2026-04-01T10:36:46.566Z</time></trkpt><trkpt lat="42.897108" lon="12.0231852"><ele>239.0</ele><time>2026-04-01T10:36:47.566Z</time></trkpt><trkpt lat="42.8972552" lon="12.0233983"><ele>239.0</ele><time>2026-04-01T10:36:48.566Z</time></trkpt><trkpt lat="42.897399" lon="12.0236342"><ele>239.0</ele><time>2026-04-01T10:36:49.566Z</time></trkpt><trkpt lat="42.89754" lon="12.0238626"><ele>239.0</ele><time>2026-04-01T10:36:50.566Z</time></trkpt><trkpt lat="42.8976674" lon="12.0240852"><ele>239.33333333333334</ele><time>2026-04-01T10:36:51.566Z</time></trkpt><trkpt lat="42.8977831" lon="12.0242886"><ele>239.66666666666669</ele><time>2026-04-01T10:36:52.567Z</time></trkpt><trkpt lat="42.8978917" lon="12.0244811"><ele>240.0</ele><time>2026-04-01T10:36:53.566Z</time></trkpt><trkpt lat="42.8980002" lon="12.0246671"><ele>240.0</ele><time>2026-04-01T10:36:54.566Z</time></trkpt><trkpt lat="42.8980998" lon="12.0248293"><ele>240.0</ele><time>2026-04-01T10:36:55.566Z</time></trkpt><trkpt lat="42.8981985" lon="12.0250033"><ele>240.0</ele><time>2026-04-01T10:36:56.566Z</time></trkpt><trkpt lat="42.8983014" lon="12.0252037"><ele>239.66666666666669</ele><time>2026-04-01T10:36:57.567Z</time></trkpt><trkpt lat="42.8983994" lon="12.025402"><ele>239.33333333333334</ele><time>2026-04-01T10:36:58.567Z</time></trkpt><trkpt lat="42.8985243" lon="12.0256218"><ele>239.0</ele><time>2026-04-01T10:36:59.565Z</time></trkpt><trkpt lat="42.8986491" lon="12.0258745"><ele>238.5</ele><time>2026-04-01T10:37:00.566Z</time></trkpt><trkpt lat="42.8987754" lon="12.0261485"><ele>238.0</ele><time>2026-04-01T10:37:01.566Z</time></trkpt><trkpt lat="42.8988978" lon="12.0264436"><ele>239.0</ele><time>2026-04-01T10:37:02.566Z</time></trkpt><trkpt lat="42.8990158" lon="12.0267586"><ele>240.0</ele><time>2026-04-01T10:37:03.567Z</time></trkpt><trkpt lat="42.8991443" lon="12.0270804"><ele>240.0</ele><time>2026-04-01T10:37:04.565Z</time></trkpt><trkpt lat="42.8992687" lon="12.027416"><ele>240.0</ele><time>2026-04-01T10:37:05.566Z</time></trkpt><trkpt lat="42.8993881" lon="12.0277237"><ele>241.0</ele><time>2026-04-01T10:37:06.566Z</time></trkpt><trkpt lat="42.8994921" lon="12.028025"><ele>242.0</ele><time>2026-04-01T10:37:07.566Z</time></trkpt><trkpt lat="42.8995982" lon="12.0283194"><ele>243.5</ele><time>2026-04-01T10:37:08.566Z</time></trkpt><trkpt lat="42.8997192" lon="12.0285931"><ele>245.0</ele><time>2026-04-01T10:37:09.566Z</time></trkpt><trkpt lat="42.8998253" lon="12.0288569"><ele>245.0</ele><time>2026-04-01T10:37:10.567Z</time></trkpt><trkpt lat="42.8999203" lon="12.0290953"><ele>245.0</ele><time>2026-04-01T10:37:11.566Z</time></trkpt><trkpt lat="42.8999956" lon="12.0293409"><ele>245.0</ele><time>2026-04-01T10:37:12.567Z</time></trkpt><trkpt lat="42.9000675" lon="12.0295751"><ele>245.75</ele><time>2026-04-01T10:37:13.567Z</time></trkpt><trkpt lat="42.900129" lon="12.0297933"><ele>246.5</ele><time>2026-04-01T10:37:14.565Z</time></trkpt><trkpt lat="42.9001705" lon="12.0299808"><ele>247.25</ele><time>2026-04-01T10:37:15.567Z</time></trkpt><trkpt lat="42.9002185" lon="12.0301429"><ele>248.0</ele><time>2026-04-01T10:37:16.567Z</time></trkpt><trkpt lat="42.9002533" lon="12.0302611"><ele>249.0</ele><time>2026-04-01T10:37:17.566Z</time></trkpt><trkpt lat="42.9003148" lon="12.0303576"><ele>250.0</ele><time>2026-04-01T10:37:19.567Z</time></trkpt><trkpt lat="42.9004305" lon="12.030358"><ele>251.0</ele><time>2026-04-01T10:37:21.566Z</time></trkpt><trkpt lat="42.9005512" lon="12.0302748"><ele>252.0</ele><time>2026-04-01T10:37:22.566Z</time></trkpt><trkpt lat="42.9006719" lon="12.0301969"><ele>252.0</ele><time>2026-04-01T10:37:23.566Z</time></trkpt><trkpt lat="42.9007806" lon="12.0301101"><ele>252.0</ele><time>2026-04-01T10:37:24.566Z</time></trkpt><trkpt lat="42.9008422" lon="12.0300868"><ele>252.0</ele><time>2026-04-01T10:37:25.566Z</time></trkpt><trkpt lat="42.9009037" lon="12.0300641"><ele>252.0</ele><time>2026-04-01T10:37:26.566Z</time></trkpt><trkpt lat="42.9009528" lon="12.0301215"><ele>252.0</ele><time>2026-04-01T10:37:27.565Z</time></trkpt><trkpt lat="42.9010103" lon="12.0301636"><ele>252.0</ele><time>2026-04-01T10:37:28.566Z</time></trkpt><trkpt lat="42.9010883" lon="12.0302822"><ele>252.25</ele><time>2026-04-01T10:37:29.567Z</time></trkpt><trkpt lat="42.9011712" lon="12.0303951"><ele>252.5</ele><time>2026-04-01T10:37:30.567Z</time></trkpt><trkpt lat="42.9012655" lon="12.0305373"><ele>252.75</ele><time>2026-04-01T10:37:31.567Z</time></trkpt><trkpt lat="42.9013534" lon="12.0307169"><ele>253.0</ele><time>2026-04-01T10:37:32.567Z</time></trkpt><trkpt lat="42.9014389" lon="12.0309392"><ele>255.0</ele><time>2026-04-01T10:37:33.568Z</time></trkpt><trkpt lat="42.9015325" lon="12.0311333"><ele>257.0</ele><time>2026-04-01T10:37:34.568Z</time></trkpt><trkpt lat="42.9016223" lon="12.0312874"><ele>259.0</ele><time>2026-04-01T10:37:35.566Z</time></trkpt><trkpt lat="42.9017116" lon="12.0314377"><ele>260.3333333333333</ele><time>2026-04-01T10:37:36.567Z</time></trkpt><trkpt lat="42.9017882" lon="12.031616"><ele>261.6666666666667</ele><time>2026-04-01T10:37:37.566Z</time></trkpt><trkpt lat="42.9018368" lon="12.0318346"><ele>263.0</ele><time>2026-04-01T10:37:38.566Z</time></trkpt><trkpt lat="42.9018806" lon="12.032022"><ele>263.0</ele><time>2026-04-01T10:37:39.566Z</time></trkpt><trkpt lat="42.9019438" lon="12.0321918"><ele>263.0</ele><time>2026-04-01T10:37:40.565Z</time></trkpt><trkpt lat="42.9020352" lon="12.0323415"><ele>263.0</ele><time>2026-04-01T10:37:41.565Z</time></trkpt><trkpt lat="42.9021376" lon="12.0324746"><ele>263.0</ele><time>2026-04-01T10:37:42.566Z</time></trkpt><trkpt lat="42.9022879" lon="12.0325707"><ele>264.0</ele><time>2026-04-01T10:37:43.566Z</time></trkpt><trkpt lat="42.9024194" lon="12.0326885"><ele>265.0</ele><time>2026-04-01T10:37:44.566Z</time></trkpt><trkpt lat="42.9025642" lon="12.0328439"><ele>266.0</ele><time>2026-04-01T10:37:45.566Z</time></trkpt><trkpt lat="42.9026968" lon="12.0329993"><ele>266.0</ele><time>2026-04-01T10:37:46.566Z</time></trkpt><trkpt lat="42.9027822" lon="12.0332295"><ele>266.0</ele><time>2026-04-01T10:37:47.568Z</time></trkpt><trkpt lat="42.9028608" lon="12.0334509"><ele>266.0</ele><time>2026-04-01T10:37:48.567Z</time></trkpt><trkpt lat="42.9029463" lon="12.0336815"><ele>269.33333333333337</ele><time>2026-04-01T10:37:49.566Z</time></trkpt><trkpt lat="42.902997" lon="12.0339376"><ele>272.6666666666667</ele><time>2026-04-01T10:37:50.566Z</time></trkpt><trkpt lat="42.9030175" lon="12.0342056"><ele>276.0</ele><time>2026-04-01T10:37:51.567Z</time></trkpt><trkpt lat="42.9030327" lon="12.0344645"><ele>277.6666666666667</ele><time>2026-04-01T10:37:52.565Z</time></trkpt><trkpt lat="42.90304" lon="12.0347027"><ele>279.33333333333337</ele><time>2026-04-01T10:37:53.568Z</time></trkpt><trkpt lat="42.9030926" lon="12.0349548"><ele>281.0</ele><time>2026-04-01T10:37:54.567Z</time></trkpt><trkpt lat="42.9031592" lon="12.0351975"><ele>282.6666666666667</ele><time>2026-04-01T10:37:55.566Z</time></trkpt><trkpt lat="42.9032316" lon="12.0354244"><ele>284.3333333333333</ele><time>2026-04-01T10:37:56.566Z</time></trkpt><trkpt lat="42.9033328" lon="12.0356391"><ele>286.0</ele><time>2026-04-01T10:37:57.566Z</time></trkpt><trkpt lat="42.9034317" lon="12.0358554"><ele>287.0</ele><time>2026-04-01T10:37:58.567Z</time></trkpt><trkpt lat="42.9035325" lon="12.0360434"><ele>288.0</ele><time>2026-04-01T10:37:59.567Z</time></trkpt><trkpt lat="42.9037098" lon="12.0362017"><ele>289.0</ele><time>2026-04-01T10:38:00.567Z</time></trkpt><trkpt lat="42.9038567" lon="12.0363638"><ele>289.0</ele><time>2026-04-01T10:38:01.566Z</time></trkpt><trkpt lat="42.9040277" lon="12.0365092"><ele>289.0</ele><time>2026-04-01T10:38:02.567Z</time></trkpt><trkpt lat="42.9041982" lon="12.0366493"><ele>289.0</ele><time>2026-04-01T10:38:03.567Z</time></trkpt><trkpt lat="42.9043707" lon="12.0367959"><ele>290.0</ele><time>2026-04-01T10:38:04.567Z</time></trkpt><trkpt lat="42.9045472" lon="12.0369455"><ele>291.0</ele><time>2026-04-01T10:38:05.566Z</time></trkpt><trkpt lat="42.9047033" lon="12.0370971"><ele>292.0</ele><time>2026-04-01T10:38:06.566Z</time></trkpt><trkpt lat="42.9048643" lon="12.0372534"><ele>292.0</ele><time>2026-04-01T10:38:07.565Z</time></trkpt><trkpt lat="42.9049998" lon="12.037412"><ele>292.0</ele><time>2026-04-01T10:38:08.566Z</time></trkpt><trkpt lat="42.9051181" lon="12.0375911"><ele>292.0</ele><time>2026-04-01T10:38:09.565Z</time></trkpt><trkpt lat="42.9052061" lon="12.0377908"><ele>296.66666666666663</ele><time>2026-04-01T10:38:10.567Z</time></trkpt><trkpt lat="42.9053019" lon="12.0379842"><ele>301.3333333333333</ele><time>2026-04-01T10:38:11.566Z</time></trkpt><trkpt lat="42.9053992" lon="12.0381576"><ele>306.0</ele><time>2026-04-01T10:38:12.566Z</time></trkpt><trkpt lat="42.9055135" lon="12.0383028"><ele>308.0</ele><time>2026-04-01T10:38:13.567Z</time></trkpt><trkpt lat="42.9056437" lon="12.038437"><ele>310.0</ele><time>2026-04-01T10:38:14.566Z</time></trkpt><trkpt lat="42.9058071" lon="12.0385577"><ele>312.0</ele><time>2026-04-01T10:38:15.566Z</time></trkpt><trkpt lat="42.9059583" lon="12.0386702"><ele>313.6666666666667</ele><time>2026-04-01T10:38:16.567Z</time></trkpt><trkpt lat="42.9061331" lon="12.0387673"><ele>315.33333333333337</ele><time>2026-04-01T10:38:17.566Z</time></trkpt><trkpt lat="42.906316" lon="12.0388421"><ele>317.0</ele><time>2026-04-01T10:38:18.566Z</time></trkpt><trkpt lat="42.9065112" lon="12.0389055"><ele>317.0</ele><time>2026-04-01T10:38:19.566Z</time></trkpt><trkpt lat="42.9067144" lon="12.0389527"><ele>317.0</ele><time>2026-04-01T10:38:20.568Z</time></trkpt><trkpt lat="42.9069295" lon="12.0389853"><ele>317.0</ele><time>2026-04-01T10:38:21.565Z</time></trkpt><trkpt lat="42.9071395" lon="12.0390285"><ele>319.33333333333337</ele><time>2026-04-01T10:38:22.567Z</time></trkpt><trkpt lat="42.9073397" lon="12.0390588"><ele>321.6666666666667</ele><time>2026-04-01T10:38:23.566Z</time></trkpt><trkpt lat="42.9075181" lon="12.0391232"><ele>324.0</ele><time>2026-04-01T10:38:24.566Z</time></trkpt><trkpt lat="42.9077084" lon="12.0391815"><ele>324.0</ele><time>2026-04-01T10:38:25.567Z</time></trkpt><trkpt lat="42.9078858" lon="12.0392826"><ele>324.0</ele><time>2026-04-01T10:38:26.568Z</time></trkpt><trkpt lat="42.9080491" lon="12.0393807"><ele>324.0</ele><time>2026-04-01T10:38:27.567Z</time></trkpt><trkpt lat="42.9082062" lon="12.0395017"><ele>324.0</ele><time>2026-04-01T10:38:28.567Z</time></trkpt><trkpt lat="42.9083639" lon="12.0395835"><ele>324.0</ele><time>2026-04-01T10:38:29.567Z</time></trkpt><trkpt lat="42.9085002" lon="12.0396164"><ele>324.0</ele><time>2026-04-01T10:38:30.567Z</time></trkpt><trkpt lat="42.9086246" lon="12.0395828"><ele>324.0</ele><time>2026-04-01T10:38:31.567Z</time></trkpt><trkpt lat="42.908736" lon="12.0394698"><ele>328.3333333333333</ele><time>2026-04-01T10:38:32.566Z</time></trkpt><trkpt lat="42.9088362" lon="12.0392956"><ele>332.66666666666663</ele><time>2026-04-01T10:38:33.567Z</time></trkpt><trkpt lat="42.9089216" lon="12.0391057"><ele>337.0</ele><time>2026-04-01T10:38:34.567Z</time></trkpt><trkpt lat="42.9090297" lon="12.038933"><ele>337.0</ele><time>2026-04-01T10:38:35.567Z</time></trkpt><trkpt lat="42.9091362" lon="12.0388177"><ele>337.0</ele><time>2026-04-01T10:38:36.566Z</time></trkpt><trkpt lat="42.9092502" lon="12.038749"><ele>337.0</ele><time>2026-04-01T10:38:37.566Z</time></trkpt><trkpt lat="42.9093862" lon="12.0387298"><ele>337.0</ele><time>2026-04-01T10:38:38.567Z</time></trkpt><trkpt lat="42.9095458" lon="12.0387517"><ele>337.3333333333333</ele><time>2026-04-01T10:38:39.566Z</time></trkpt><trkpt lat="42.9097265" lon="12.0388076"><ele>337.6666666666667</ele><time>2026-04-01T10:38:40.567Z</time></trkpt><trkpt lat="42.9099087" lon="12.0388856"><ele>338.0</ele><time>2026-04-01T10:38:41.566Z</time></trkpt><trkpt lat="42.9101083" lon="12.0389772"><ele>337.0</ele><time>2026-04-01T10:38:42.567Z</time></trkpt><trkpt lat="42.9103271" lon="12.039091"><ele>336.0</ele><time>2026-04-01T10:38:43.567Z</time></trkpt><trkpt lat="42.9105231" lon="12.0391931"><ele>335.0</ele><time>2026-04-01T10:38:44.566Z</time></trkpt><trkpt lat="42.9107003" lon="12.039308"><ele>337.5</ele><time>2026-04-01T10:38:45.568Z</time></trkpt><trkpt lat="42.9108491" lon="12.0394268"><ele>340.0</ele><time>2026-04-01T10:38:46.566Z</time></trkpt><trkpt lat="42.9109678" lon="12.0395229"><ele>342.5</ele><time>2026-04-01T10:38:47.567Z</time></trkpt><trkpt lat="42.9110818" lon="12.0395975"><ele>345.0</ele><time>2026-04-01T10:38:48.567Z</time></trkpt><trkpt lat="42.9112041" lon="12.0396838"><ele>345.0</ele><time>2026-04-01T10:38:49.566Z</time></trkpt><trkpt lat="42.9113444" lon="12.0398076"><ele>345.0</ele><time>2026-04-01T10:38:50.566Z</time></trkpt><trkpt lat="42.9114975" lon="12.0399513"><ele>345.0</ele><time>2026-04-01T10:38:51.566Z</time></trkpt><trkpt lat="42.9116702" lon="12.0401099"><ele>349.0</ele><time>2026-04-01T10:38:52.567Z</time></trkpt><trkpt lat="42.9118323" lon="12.0402759"><ele>353.0</ele><time>2026-04-01T10:38:53.568Z</time></trkpt><trkpt lat="42.9119779" lon="12.0404326"><ele>357.0</ele><time>2026-04-01T10:38:54.566Z</time></trkpt><trkpt lat="42.912115" lon="12.0405822"><ele>357.0</ele><time>2026-04-01T10:38:55.566Z</time></trkpt><trkpt lat="42.912247" lon="12.0407157"><ele>357.0</ele><time>2026-04-01T10:38:56.565Z</time></trkpt><trkpt lat="42.9124048" lon="12.0408207"><ele>357.0</ele><time>2026-04-01T10:38:57.567Z</time></trkpt><trkpt lat="42.9126056" lon="12.0409076"><ele>360.5</ele><time>2026-04-01T10:38:58.568Z</time></trkpt><trkpt lat="42.9128296" lon="12.0409907"><ele>364.0</ele><time>2026-04-01T10:38:59.567Z</time></trkpt><trkpt lat="42.9130633" lon="12.0410859"><ele>364.0</ele><time>2026-04-01T10:39:00.568Z</time></trkpt><trkpt lat="42.9132878" lon="12.0411835"><ele>364.0</ele><time>2026-04-01T10:39:01.566Z</time></trkpt><trkpt lat="42.9135067" lon="12.0412633"><ele>360.3333333333333</ele><time>2026-04-01T10:39:02.566Z</time></trkpt><trkpt lat="42.9137127" lon="12.041317"><ele>356.6666666666667</ele><time>2026-04-01T10:39:03.567Z</time></trkpt><trkpt lat="42.9138969" lon="12.0413892"><ele>353.0</ele><time>2026-04-01T10:39:04.566Z</time></trkpt><trkpt lat="42.9140768" lon="12.0414676"><ele>352.33333333333337</ele><time>2026-04-01T10:39:05.566Z</time></trkpt><trkpt lat="42.9142197" lon="12.041657"><ele>351.6666666666667</ele><time>2026-04-01T10:39:06.565Z</time></trkpt><trkpt lat="42.9143487" lon="12.0418677"><ele>351.0</ele><time>2026-04-01T10:39:07.565Z</time></trkpt><trkpt lat="42.9144743" lon="12.0421081"><ele>351.0</ele><time>2026-04-01T10:39:08.566Z</time></trkpt><trkpt lat="42.9145905" lon="12.0423454"><ele>351.0</ele><time>2026-04-01T10:39:09.566Z</time></trkpt><trkpt lat="42.9147105" lon="12.0425312"><ele>351.0</ele><time>2026-04-01T10:39:10.567Z</time></trkpt><trkpt lat="42.9148207" lon="12.0427124"><ele>355.0</ele><time>2026-04-01T10:39:11.567Z</time></trkpt><trkpt lat="42.9149393" lon="12.0428535"><ele>359.0</ele><time>2026-04-01T10:39:12.566Z</time></trkpt><trkpt lat="42.9150688" lon="12.0429894"><ele>363.0</ele><time>2026-04-01T10:39:13.567Z</time></trkpt><trkpt lat="42.9152237" lon="12.0431184"><ele>363.0</ele><time>2026-04-01T10:39:14.567Z</time></trkpt><trkpt lat="42.915394" lon="12.0432142"><ele>363.0</ele><time>2026-04-01T10:39:15.567Z</time></trkpt><trkpt lat="42.9155269" lon="12.04332"><ele>363.0</ele><time>2026-04-01T10:39:16.565Z</time></trkpt><trkpt lat="42.9156836" lon="12.0433809"><ele>363.6666666666667</ele><time>2026-04-01T10:39:17.567Z</time></trkpt><trkpt lat="42.9157878" lon="12.0435607"><ele>364.33333333333337</ele><time>2026-04-01T10:39:18.566Z</time></trkpt><trkpt lat="42.9158615" lon="12.0437858"><ele>365.0</ele><time>2026-04-01T10:39:19.566Z</time></trkpt><trkpt lat="42.9159393" lon="12.0440418"><ele>368.0</ele><time>2026-04-01T10:39:20.566Z</time></trkpt><trkpt lat="42.9160112" lon="12.0442907"><ele>371.0</ele><time>2026-04-01T10:39:21.567Z</time></trkpt><trkpt lat="42.9160835" lon="12.0445214"><ele>374.0</ele><time>2026-04-01T10:39:22.566Z</time></trkpt><trkpt lat="42.9161842" lon="12.0447169"><ele>374.0</ele><time>2026-04-01T10:39:23.568Z</time></trkpt><trkpt lat="42.9162588" lon="12.0448942"><ele>374.0</ele><time>2026-04-01T10:39:24.567Z</time></trkpt><trkpt lat="42.9163228" lon="12.0450774"><ele>374.0</ele><time>2026-04-01T10:39:25.567Z</time></trkpt><trkpt lat="42.91627" lon="12.0453123"><ele>379.6666666666667</ele><time>2026-04-01T10:39:26.568Z</time></trkpt><trkpt lat="42.916239" lon="12.0455514"><ele>385.33333333333337</ele><time>2026-04-01T10:39:27.567Z</time></trkpt><trkpt lat="42.916212" lon="12.0457755"><ele>391.0</ele><time>2026-04-01T10:39:28.567Z</time></trkpt><trkpt lat="42.9162209" lon="12.0459629"><ele>395.5</ele><time>2026-04-01T10:39:29.567Z</time></trkpt><trkpt lat="42.9162512" lon="12.0461386"><ele>400.0</ele><time>2026-04-01T10:39:30.568Z</time></trkpt><trkpt lat="42.9163101" lon="12.0462772"><ele>404.5</ele><time>2026-04-01T10:39:31.568Z</time></trkpt><trkpt lat="42.9163935" lon="12.0463588"><ele>409.0</ele><time>2026-04-01T10:39:32.567Z</time></trkpt><trkpt lat="42.9165026" lon="12.0463879"><ele>409.0</ele><time>2026-04-01T10:39:33.568Z</time></trkpt><trkpt lat="42.9166483" lon="12.0463838"><ele>409.0</ele><time>2026-04-01T10:39:34.567Z</time></trkpt><trkpt lat="42.9168092" lon="12.0464011"><ele>409.0</ele><time>2026-04-01T10:39:35.567Z</time></trkpt><trkpt lat="42.916984" lon="12.0464524"><ele>415.0</ele><time>2026-04-01T10:39:36.568Z</time></trkpt><trkpt lat="42.917163" lon="12.046541"><ele>421.0</ele><time>2026-04-01T10:39:37.567Z</time></trkpt><trkpt lat="42.9173452" lon="12.0466665"><ele>427.0</ele><time>2026-04-01T10:39:38.567Z</time></trkpt><trkpt lat="42.9175302" lon="12.0468013"><ele>437.0</ele><time>2026-04-01T10:39:39.567Z</time></trkpt><trkpt lat="42.9177076" lon="12.0469383"><ele>447.0</ele><time>2026-04-01T10:39:40.567Z</time></trkpt><trkpt lat="42.9178574" lon="12.0470653"><ele>457.0</ele><time>2026-04-01T10:39:41.568Z</time></trkpt><trkpt lat="42.9179861" lon="12.047215"><ele>457.0</ele><time>2026-04-01T10:39:42.567Z</time></trkpt><trkpt lat="42.9181002" lon="12.0473956"><ele>457.0</ele><time>2026-04-01T10:39:43.568Z</time></trkpt><trkpt lat="42.9182023" lon="12.0475958"><ele>457.0</ele><time>2026-04-01T10:39:44.567Z</time></trkpt><trkpt lat="42.9182898" lon="12.0477963"><ele>455.0</ele><time>2026-04-01T10:39:45.566Z</time></trkpt><trkpt lat="42.9183579" lon="12.0479882"><ele>453.0</ele><time>2026-04-01T10:39:46.567Z</time></trkpt><trkpt lat="42.9184144" lon="12.048165"><ele>451.0</ele><time>2026-04-01T10:39:47.567Z</time></trkpt><trkpt lat="42.9184769" lon="12.0483382"><ele>449.0</ele><time>2026-04-01T10:39:48.568Z</time></trkpt><trkpt lat="42.9185577" lon="12.048492"><ele>455.25</ele><time>2026-04-01T10:39:49.568Z</time></trkpt><trkpt lat="42.9186713" lon="12.048586"><ele>461.5</ele><time>2026-04-01T10:39:50.567Z</time></trkpt><trkpt lat="42.9187651" lon="12.0487206"><ele>467.75</ele><time>2026-04-01T10:39:51.566Z</time></trkpt><trkpt lat="42.9188832" lon="12.0488501"><ele>474.0</ele><time>2026-04-01T10:39:52.567Z</time></trkpt><trkpt lat="42.9189981" lon="12.0490465"><ele>470.0</ele><time>2026-04-01T10:39:53.567Z</time></trkpt><trkpt lat="42.9191141" lon="12.049265"><ele>466.0</ele><time>2026-04-01T10:39:54.566Z</time></trkpt><trkpt lat="42.919259" lon="12.0495133"><ele>462.0</ele><time>2026-04-01T10:39:55.566Z</time></trkpt><trkpt lat="42.9193676" lon="12.0497493"><ele>471.66666666666663</ele><time>2026-04-01T10:39:56.567Z</time></trkpt><trkpt lat="42.9194439" lon="12.0499737"><ele>481.3333333333333</ele><time>2026-04-01T10:39:57.567Z</time></trkpt><trkpt lat="42.9194579" lon="12.0501858"><ele>491.0</ele><time>2026-04-01T10:39:58.566Z</time></trkpt><trkpt lat="42.9194606" lon="12.050386"><ele>491.0</ele><time>2026-04-01T10:39:59.568Z</time></trkpt><trkpt lat="42.9194213" lon="12.0505355"><ele>491.0</ele><time>2026-04-01T10:40:00.568Z</time></trkpt><trkpt lat="42.9194382" lon="12.0507064"><ele>491.0</ele><time>2026-04-01T10:40:01.567Z</time></trkpt><trkpt lat="42.9194747" lon="12.0508542"><ele>491.0</ele><time>2026-04-01T10:40:02.568Z</time></trkpt><trkpt lat="42.9195494" lon="12.0509896"><ele>488.75</ele><time>2026-04-01T10:40:03.567Z</time></trkpt><trkpt lat="42.9196068" lon="12.0511419"><ele>486.5</ele><time>2026-04-01T10:40:04.566Z</time></trkpt><trkpt lat="42.9196669" lon="12.0512651"><ele>484.25</ele><time>2026-04-01T10:40:05.568Z</time></trkpt><trkpt lat="42.9197392" lon="12.0513767"><ele>482.0</ele><time>2026-04-01T10:40:06.567Z</time></trkpt><trkpt lat="42.9198152" lon="12.0514871"><ele>481.99999999999994</ele><time>2026-04-01T10:40:07.566Z</time></trkpt><trkpt lat="42.9198397" lon="12.0515708"><ele>482.0</ele><time>2026-04-01T10:40:08.566Z</time></trkpt><trkpt lat="42.9198945" lon="12.0516509"><ele>482.0</ele><time>2026-04-01T10:40:10.565Z</time></trkpt><trkpt lat="42.9199662" lon="12.0517103"><ele>482.0</ele><time>2026-04-01T10:40:32.568Z</time></trkpt><trkpt lat="42.9200949" lon="12.0517347"><ele>481.99999999999994</ele><time>2026-04-01T10:40:34.567Z</time></trkpt><trkpt lat="42.9201774" lon="12.0517261"><ele>482.0</ele><time>2026-04-01T10:40:35.566Z</time></trkpt><trkpt lat="42.9202597" lon="12.051739"><ele>481.8</ele><time>2026-04-01T10:40:36.567Z</time></trkpt><trkpt lat="42.920324" lon="12.0517471"><ele>481.6</ele><time>2026-04-01T10:40:37.568Z</time></trkpt><trkpt lat="42.9203914" lon="12.0517806"><ele>481.40000000000003</ele><time>2026-04-01T10:40:38.567Z</time></trkpt><trkpt lat="42.920469" lon="12.0518471"><ele>481.20000000000005</ele><time>2026-04-01T10:40:39.567Z</time></trkpt><trkpt lat="42.9205451" lon="12.051982"><ele>481.0</ele><time>2026-04-01T10:40:40.567Z</time></trkpt><trkpt lat="42.9206273" lon="12.0521418"><ele>481.0</ele><time>2026-04-01T10:40:41.567Z</time></trkpt><trkpt lat="42.9207126" lon="12.0523131"><ele>481.0</ele><time>2026-04-01T10:40:42.567Z</time></trkpt><trkpt lat="42.9207998" lon="12.0525047"><ele>481.0</ele><time>2026-04-01T10:40:43.568Z</time></trkpt><trkpt lat="42.9209027" lon="12.0526729"><ele>481.5</ele><time>2026-04-01T10:40:44.568Z</time></trkpt><trkpt lat="42.9209554" lon="12.0528434"><ele>482.0</ele><time>2026-04-01T10:40:45.567Z</time></trkpt><trkpt lat="42.9210298" lon="12.0529786"><ele>482.5</ele><time>2026-04-01T10:40:46.566Z</time></trkpt><trkpt lat="42.9210738" lon="12.0531024"><ele>483.0</ele><time>2026-04-01T10:40:47.567Z</time></trkpt><trkpt lat="42.9211317" lon="12.0532238"><ele>485.5</ele><time>2026-04-01T10:40:48.567Z</time></trkpt><trkpt lat="42.9212063" lon="12.0533622"><ele>488.0</ele><time>2026-04-01T10:40:49.568Z</time></trkpt><trkpt lat="42.9212723" lon="12.0535042"><ele>490.5</ele><time>2026-04-01T10:40:50.567Z</time></trkpt><trkpt lat="42.9213347" lon="12.053639"><ele>493.0</ele><time>2026-04-01T10:40:51.567Z</time></trkpt><trkpt lat="42.9213786" lon="12.0537685"><ele>493.0</ele><time>2026-04-01T10:40:52.568Z</time></trkpt><trkpt lat="42.9214162" lon="12.0539007"><ele>492.99999999999994</ele><time>2026-04-01T10:40:53.567Z</time></trkpt><trkpt lat="42.9214108" lon="12.05402"><ele>492.99999999999994</ele><time>2026-04-01T10:40:54.567Z</time></trkpt><trkpt lat="42.9214166" lon="12.0541224"><ele>493.0</ele><time>2026-04-01T10:40:55.568Z</time></trkpt><trkpt lat="42.9214853" lon="12.0542675"><ele>493.0</ele><time>2026-04-01T10:40:57.568Z</time></trkpt><trkpt lat="42.9215584" lon="12.0543103"><ele>492.4</ele><time>2026-04-01T10:40:58.568Z</time></trkpt><trkpt lat="42.9216446" lon="12.0543785"><ele>491.79999999999995</ele><time>2026-04-01T10:40:59.567Z</time></trkpt><trkpt lat="42.9217294" lon="12.054458"><ele>491.2</ele><time>2026-04-01T10:41:00.568Z</time></trkpt><trkpt lat="42.9217855" lon="12.0546099"><ele>490.6</ele><time>2026-04-01T10:41:01.567Z</time></trkpt><trkpt lat="42.9218465" lon="12.0547481"><ele>490.0</ele><time>2026-04-01T10:41:02.567Z</time></trkpt><trkpt lat="42.9219084" lon="12.0548905"><ele>491.75</ele><time>2026-04-01T10:41:03.567Z</time></trkpt><trkpt lat="42.9219839" lon="12.0550393"><ele>493.5</ele><time>2026-04-01T10:41:04.566Z</time></trkpt><trkpt lat="42.9220512" lon="12.0551963"><ele>495.25</ele><time>2026-04-01T10:41:05.568Z</time></trkpt><trkpt lat="42.9221243" lon="12.0553381"><ele>497.0</ele><time>2026-04-01T10:41:06.567Z</time></trkpt><trkpt lat="42.9221972" lon="12.0555051"><ele>497.0</ele><time>2026-04-01T10:41:07.567Z</time></trkpt><trkpt lat="42.9222727" lon="12.0556844"><ele>497.0</ele><time>2026-04-01T10:41:08.567Z</time></trkpt><trkpt lat="42.9223558" lon="12.0558616"><ele>497.0</ele><time>2026-04-01T10:41:09.567Z</time></trkpt><trkpt lat="42.9224425" lon="12.0560463"><ele>496.3333333333333</ele><time>2026-04-01T10:41:10.568Z</time></trkpt><trkpt lat="42.922534" lon="12.0562352"><ele>495.66666666666663</ele><time>2026-04-01T10:41:11.568Z</time></trkpt><trkpt lat="42.9226319" lon="12.0564323"><ele>495.0</ele><time>2026-04-01T10:41:12.569Z</time></trkpt><trkpt lat="42.9227342" lon="12.0566161"><ele>493.66666666666663</ele><time>2026-04-01T10:41:13.567Z</time></trkpt><trkpt lat="42.922855" lon="12.0567971"><ele>492.3333333333333</ele><time>2026-04-01T10:41:14.567Z</time></trkpt><trkpt lat="42.9229782" lon="12.0569587"><ele>491.0</ele><time>2026-04-01T10:41:15.566Z</time></trkpt><trkpt lat="42.923105" lon="12.0571112"><ele>491.0</ele><time>2026-04-01T10:41:16.567Z</time></trkpt><trkpt lat="42.9232382" lon="12.0572494"><ele>491.0</ele><time>2026-04-01T10:41:17.567Z</time></trkpt><trkpt lat="42.923374" lon="12.0573741"><ele>491.0</ele><time>2026-04-01T10:41:18.566Z</time></trkpt><trkpt lat="42.9235053" lon="12.0574776"><ele>489.25</ele><time>2026-04-01T10:41:19.568Z</time></trkpt><trkpt lat="42.9236376" lon="12.0575732"><ele>487.5</ele><time>2026-04-01T10:41:20.568Z</time></trkpt><trkpt lat="42.9237726" lon="12.0576543"><ele>485.75</ele><time>2026-04-01T10:41:21.568Z</time></trkpt><trkpt lat="42.9239105" lon="12.0577293"><ele>484.0</ele><time>2026-04-01T10:41:22.566Z</time></trkpt><trkpt lat="42.9240449" lon="12.0578025"><ele>484.0</ele><time>2026-04-01T10:41:23.568Z</time></trkpt><trkpt lat="42.9241706" lon="12.0578815"><ele>484.0</ele><time>2026-04-01T10:41:24.567Z</time></trkpt><trkpt lat="42.9242833" lon="12.057954"><ele>484.0</ele><time>2026-04-01T10:41:25.567Z</time></trkpt><trkpt lat="42.9243708" lon="12.0580431"><ele>484.0</ele><time>2026-04-01T10:41:26.567Z</time></trkpt><trkpt lat="42.9244369" lon="12.0581319"><ele>483.33333333333337</ele><time>2026-04-01T10:41:27.567Z</time></trkpt><trkpt lat="42.924517" lon="12.0581925"><ele>482.6666666666667</ele><time>2026-04-01T10:41:28.567Z</time></trkpt><trkpt lat="42.9245888" lon="12.0582088"><ele>482.0</ele><time>2026-04-01T10:41:29.566Z</time></trkpt><trkpt lat="42.9246579" lon="12.0581838"><ele>481.33333333333337</ele><time>2026-04-01T10:41:30.567Z</time></trkpt><trkpt lat="42.9247084" lon="12.058103"><ele>480.6666666666667</ele><time>2026-04-01T10:41:31.567Z</time></trkpt><trkpt lat="42.9247894" lon="12.0580322"><ele>480.0</ele><time>2026-04-01T10:41:32.569Z</time></trkpt><trkpt lat="42.9248926" lon="12.0579771"><ele>480.0</ele><time>2026-04-01T10:41:33.567Z</time></trkpt><trkpt lat="42.9250565" lon="12.0579644"><ele>480.0</ele><time>2026-04-01T10:41:34.567Z</time></trkpt><trkpt lat="42.9252409" lon="12.0579479"><ele>480.0</ele><time>2026-04-01T10:41:35.568Z</time></trkpt><trkpt lat="42.9254395" lon="12.0579527"><ele>480.0</ele><time>2026-04-01T10:41:36.566Z</time></trkpt><trkpt lat="42.9256476" lon="12.0579975"><ele>480.0</ele><time>2026-04-01T10:41:37.567Z</time></trkpt><trkpt lat="42.9258631" lon="12.0580759"><ele>480.0</ele><time>2026-04-01T10:41:38.567Z</time></trkpt><trkpt lat="42.9260831" lon="12.0581718"><ele>482.33333333333337</ele><time>2026-04-01T10:41:39.568Z</time></trkpt><trkpt lat="42.9262734" lon="12.0582911"><ele>484.6666666666667</ele><time>2026-04-01T10:41:40.567Z</time></trkpt><trkpt lat="42.9264629" lon="12.0584003"><ele>487.0</ele><time>2026-04-01T10:41:41.568Z</time></trkpt><trkpt lat="42.9266502" lon="12.0584718"><ele>488.0</ele><time>2026-04-01T10:41:42.567Z</time></trkpt><trkpt lat="42.9268294" lon="12.0584824"><ele>489.0</ele><time>2026-04-01T10:41:43.567Z</time></trkpt><trkpt lat="42.9270153" lon="12.058419"><ele>490.0</ele><time>2026-04-01T10:41:44.567Z</time></trkpt><trkpt lat="42.9272003" lon="12.0583104"><ele>491.33333333333337</ele><time>2026-04-01T10:41:45.567Z</time></trkpt><trkpt lat="42.9273722" lon="12.0581919"><ele>492.66666666666663</ele><time>2026-04-01T10:41:46.567Z</time></trkpt><trkpt lat="42.9275484" lon="12.0580791"><ele>494.0</ele><time>2026-04-01T10:41:47.566Z</time></trkpt><trkpt lat="42.9277525" lon="12.0580494"><ele>495.0</ele><time>2026-04-01T10:41:48.566Z</time></trkpt><trkpt lat="42.9279658" lon="12.0580387"><ele>496.0</ele><time>2026-04-01T10:41:49.567Z</time></trkpt><trkpt lat="42.9281881" lon="12.0580427"><ele>497.0</ele><time>2026-04-01T10:41:50.568Z</time></trkpt><trkpt lat="42.9283985" lon="12.0580564"><ele>497.0</ele><time>2026-04-01T10:41:51.567Z</time></trkpt><trkpt lat="42.9285885" lon="12.0581105"><ele>497.0</ele><time>2026-04-01T10:41:52.567Z</time></trkpt><trkpt lat="42.9287657" lon="12.058187"><ele>497.0</ele><time>2026-04-01T10:41:53.568Z</time></trkpt><trkpt lat="42.9289409" lon="12.0583231"><ele>495.0</ele><time>2026-04-01T10:41:54.569Z</time></trkpt><trkpt lat="42.9291251" lon="12.0584842"><ele>493.0</ele><time>2026-04-01T10:41:55.567Z</time></trkpt><trkpt lat="42.929313" lon="12.0586627"><ele>491.0</ele><time>2026-04-01T10:41:56.567Z</time></trkpt><trkpt lat="42.9294914" lon="12.0588627"><ele>491.0</ele><time>2026-04-01T10:41:57.568Z</time></trkpt><trkpt lat="42.9296757" lon="12.0590843"><ele>491.0</ele><time>2026-04-01T10:41:58.567Z</time></trkpt><trkpt lat="42.929856" lon="12.0593145"><ele>488.5</ele><time>2026-04-01T10:41:59.567Z</time></trkpt><trkpt lat="42.9300242" lon="12.0595847"><ele>486.0</ele><time>2026-04-01T10:42:00.568Z</time></trkpt><trkpt lat="42.9301755" lon="12.0598698"><ele>483.5</ele><time>2026-04-01T10:42:01.568Z</time></trkpt><trkpt lat="42.9302962" lon="12.0601437"><ele>481.0</ele><time>2026-04-01T10:42:02.567Z</time></trkpt><trkpt lat="42.9303912" lon="12.060418"><ele>481.0</ele><time>2026-04-01T10:42:03.568Z</time></trkpt><trkpt lat="42.930485" lon="12.0606807"><ele>481.0</ele><time>2026-04-01T10:42:04.567Z</time></trkpt><trkpt lat="42.9305789" lon="12.0608988"><ele>481.0</ele><time>2026-04-01T10:42:05.567Z</time></trkpt><trkpt lat="42.9306886" lon="12.061074"><ele>482.33333333333337</ele><time>2026-04-01T10:42:06.566Z</time></trkpt><trkpt lat="42.930845" lon="12.0612135"><ele>483.66666666666663</ele><time>2026-04-01T10:42:07.568Z</time></trkpt><trkpt lat="42.931032" lon="12.0613282"><ele>485.0</ele><time>2026-04-01T10:42:08.568Z</time></trkpt><trkpt lat="42.9312441" lon="12.061414"><ele>485.0</ele><time>2026-04-01T10:42:09.567Z</time></trkpt><trkpt lat="42.9314731" lon="12.0614904"><ele>485.0</ele><time>2026-04-01T10:42:10.568Z</time></trkpt><trkpt lat="42.9317002" lon="12.0615191"><ele>485.5</ele><time>2026-04-01T10:42:11.568Z</time></trkpt><trkpt lat="42.9319327" lon="12.0615123"><ele>486.0</ele><time>2026-04-01T10:42:12.567Z</time></trkpt><trkpt lat="42.9321823" lon="12.0614629"><ele>486.0</ele><time>2026-04-01T10:42:13.569Z</time></trkpt><trkpt lat="42.9324405" lon="12.0614243"><ele>486.0</ele><time>2026-04-01T10:42:14.568Z</time></trkpt><trkpt lat="42.9326778" lon="12.0613832"><ele>486.0</ele><time>2026-04-01T10:42:15.567Z</time></trkpt><trkpt lat="42.9329138" lon="12.0613444"><ele>486.0</ele><time>2026-04-01T10:42:16.567Z</time></trkpt><trkpt lat="42.9331287" lon="12.0613209"><ele>486.0</ele><time>2026-04-01T10:42:17.567Z</time></trkpt><trkpt lat="42.9333361" lon="12.0613013"><ele>486.0</ele><time>2026-04-01T10:42:18.568Z</time></trkpt><trkpt lat="42.9335523" lon="12.0613455"><ele>486.0</ele><time>2026-04-01T10:42:19.568Z</time></trkpt><trkpt lat="42.9337667" lon="12.0614249"><ele>486.5</ele><time>2026-04-01T10:42:20.569Z</time></trkpt><trkpt lat="42.9339932" lon="12.0615267"><ele>487.0</ele><time>2026-04-01T10:42:21.567Z</time></trkpt><trkpt lat="42.9342219" lon="12.0616442"><ele>483.5</ele><time>2026-04-01T10:42:22.568Z</time></trkpt><trkpt lat="42.9344591" lon="12.0617585"><ele>480.0</ele><time>2026-04-01T10:42:23.568Z</time></trkpt><trkpt lat="42.9347025" lon="12.0618765"><ele>480.0</ele><time>2026-04-01T10:42:24.568Z</time></trkpt><trkpt lat="42.9349513" lon="12.0619985"><ele>480.0</ele><time>2026-04-01T10:42:25.569Z</time></trkpt><trkpt lat="42.9352" lon="12.0621184"><ele>477.0</ele><time>2026-04-01T10:42:26.568Z</time></trkpt><trkpt lat="42.9354374" lon="12.0622362"><ele>474.0</ele><time>2026-04-01T10:42:27.568Z</time></trkpt><trkpt lat="42.9356494" lon="12.0623292"><ele>474.0</ele><time>2026-04-01T10:42:28.568Z</time></trkpt><trkpt lat="42.9358314" lon="12.0624362"><ele>474.0</ele><time>2026-04-01T10:42:29.569Z</time></trkpt><trkpt lat="42.935997" lon="12.0625581"><ele>474.0</ele><time>2026-04-01T10:42:30.568Z</time></trkpt><trkpt lat="42.9360938" lon="12.0627447"><ele>474.0</ele><time>2026-04-01T10:42:31.568Z</time></trkpt><trkpt lat="42.9361977" lon="12.0629299"><ele>474.0</ele><time>2026-04-01T10:42:32.567Z</time></trkpt><trkpt lat="42.9362592" lon="12.0631789"><ele>474.0</ele><time>2026-04-01T10:42:33.568Z</time></trkpt><trkpt lat="42.9362909" lon="12.0634721"><ele>474.0</ele><time>2026-04-01T10:42:34.568Z</time></trkpt><trkpt lat="42.9363076" lon="12.0637833"><ele>474.0</ele><time>2026-04-01T10:42:35.567Z</time></trkpt><trkpt lat="42.9363206" lon="12.0641242"><ele>473.5</ele><time>2026-04-01T10:42:36.567Z</time></trkpt><trkpt lat="42.9363377" lon="12.0644707"><ele>473.0</ele><time>2026-04-01T10:42:37.567Z</time></trkpt><trkpt lat="42.9363629" lon="12.0647916"><ele>472.3333333333333</ele><time>2026-04-01T10:42:38.567Z</time></trkpt><trkpt lat="42.9363855" lon="12.0650894"><ele>471.66666666666663</ele><time>2026-04-01T10:42:39.568Z</time></trkpt><trkpt lat="42.9363838" lon="12.0653798"><ele>471.0</ele><time>2026-04-01T10:42:40.567Z</time></trkpt><trkpt lat="42.9363438" lon="12.0656754"><ele>470.5</ele><time>2026-04-01T10:42:41.567Z</time></trkpt><trkpt lat="42.936257" lon="12.065967"><ele>470.0</ele><time>2026-04-01T10:42:42.567Z</time></trkpt><trkpt lat="42.9361041" lon="12.0662424"><ele>470.0</ele><time>2026-04-01T10:42:43.567Z</time></trkpt><trkpt lat="42.9359226" lon="12.066505"><ele>470.0</ele><time>2026-04-01T10:42:44.567Z</time></trkpt><trkpt lat="42.9357213" lon="12.0667584"><ele>469.5</ele><time>2026-04-01T10:42:45.567Z</time></trkpt><trkpt lat="42.9355217" lon="12.0670061"><ele>469.0</ele><time>2026-04-01T10:42:46.567Z</time></trkpt><trkpt lat="42.9353363" lon="12.067255"><ele>469.0</ele><time>2026-04-01T10:42:47.567Z</time></trkpt><trkpt lat="42.9351595" lon="12.0674713"><ele>469.0</ele><time>2026-04-01T10:42:48.567Z</time></trkpt><trkpt lat="42.9349984" lon="12.067681"><ele>469.0</ele><time>2026-04-01T10:42:49.567Z</time></trkpt><trkpt lat="42.934874" lon="12.0678849"><ele>469.0</ele><time>2026-04-01T10:42:50.568Z</time></trkpt><trkpt lat="42.9347701" lon="12.0680904"><ele>469.0</ele><time>2026-04-01T10:42:51.566Z</time></trkpt><trkpt lat="42.9347221" lon="12.0683371"><ele>469.0</ele><time>2026-04-01T10:42:52.567Z</time></trkpt><trkpt lat="42.9347073" lon="12.0685992"><ele>469.0</ele><time>2026-04-01T10:42:53.567Z</time></trkpt><trkpt lat="42.9347443" lon="12.0688504"><ele>469.0</ele><time>2026-04-01T10:42:54.568Z</time></trkpt><trkpt lat="42.9348277" lon="12.0690982"><ele>469.0</ele><time>2026-04-01T10:42:55.567Z</time></trkpt><trkpt lat="42.9349721" lon="12.0693344"><ele>469.0</ele><time>2026-04-01T10:42:56.567Z</time></trkpt><trkpt lat="42.9351448" lon="12.0695544"><ele>469.0</ele><time>2026-04-01T10:42:57.566Z</time></trkpt><trkpt lat="42.935333" lon="12.0697778"><ele>469.0</ele><time>2026-04-01T10:42:58.567Z</time></trkpt><trkpt lat="42.9355245" lon="12.0700181"><ele>471.0</ele><time>2026-04-01T10:42:59.568Z</time></trkpt><trkpt lat="42.9357181" lon="12.0702501"><ele>473.0</ele><time>2026-04-01T10:43:00.567Z</time></trkpt><trkpt lat="42.9359145" lon="12.0705081"><ele>473.0</ele><time>2026-04-01T10:43:01.568Z</time></trkpt><trkpt lat="42.93612" lon="12.070774"><ele>473.0</ele><time>2026-04-01T10:43:02.567Z</time></trkpt><trkpt lat="42.9363245" lon="12.0710316"><ele>476.0</ele><time>2026-04-01T10:43:03.567Z</time></trkpt><trkpt lat="42.9365366" lon="12.0712955"><ele>479.0</ele><time>2026-04-01T10:43:04.568Z</time></trkpt><trkpt lat="42.9367461" lon="12.0715603"><ele>481.5</ele><time>2026-04-01T10:43:05.568Z</time></trkpt><trkpt lat="42.93696" lon="12.071825"><ele>484.0</ele><time>2026-04-01T10:43:06.568Z</time></trkpt><trkpt lat="42.9373417" lon="12.0722972"><ele>484.5</ele><time>2026-04-01T10:43:08.314Z</time></trkpt><trkpt lat="42.9375941" lon="12.0726025"><ele>485.0</ele><time>2026-04-01T10:43:09.569Z</time></trkpt><trkpt lat="42.9377874" lon="12.0728298"><ele>485.0</ele><time>2026-04-01T10:43:10.568Z</time></trkpt><trkpt lat="42.9379666" lon="12.0730855"><ele>485.0</ele><time>2026-04-01T10:43:11.568Z</time></trkpt><trkpt lat="42.9381203" lon="12.0733765"><ele>486.5</ele><time>2026-04-01T10:43:12.569Z</time></trkpt><trkpt lat="42.9382615" lon="12.0736991"><ele>488.0</ele><time>2026-04-01T10:43:13.568Z</time></trkpt><trkpt lat="42.9383832" lon="12.0740441"><ele>490.0</ele><time>2026-04-01T10:43:14.568Z</time></trkpt><trkpt lat="42.9385017" lon="12.0743984"><ele>492.0</ele><time>2026-04-01T10:43:15.568Z</time></trkpt><trkpt lat="42.9386221" lon="12.0747561"><ele>492.0</ele><time>2026-04-01T10:43:16.567Z</time></trkpt><trkpt lat="42.9387366" lon="12.0751021"><ele>492.0</ele><time>2026-04-01T10:43:17.568Z</time></trkpt><trkpt lat="42.9388425" lon="12.0754185"><ele>492.0</ele><time>2026-04-01T10:43:18.567Z</time></trkpt><trkpt lat="42.9389434" lon="12.0757281"><ele>492.0</ele><time>2026-04-01T10:43:19.569Z</time></trkpt><trkpt lat="42.9390431" lon="12.0760339"><ele>493.0</ele><time>2026-04-01T10:43:20.568Z</time></trkpt><trkpt lat="42.9391388" lon="12.0763369"><ele>494.0</ele><time>2026-04-01T10:43:21.568Z</time></trkpt><trkpt lat="42.9392314" lon="12.076632"><ele>494.66666666666663</ele><time>2026-04-01T10:43:22.568Z</time></trkpt><trkpt lat="42.9393259" lon="12.0769292"><ele>495.33333333333337</ele><time>2026-04-01T10:43:23.567Z</time></trkpt><trkpt lat="42.9394138" lon="12.0771416"><ele>496.0</ele><time>2026-04-01T10:43:24.568Z</time></trkpt><trkpt lat="42.9395172" lon="12.0773253"><ele>497.6666666666667</ele><time>2026-04-01T10:43:25.567Z</time></trkpt><trkpt lat="42.939648" lon="12.077457"><ele>499.33333333333337</ele><time>2026-04-01T10:43:26.568Z</time></trkpt><trkpt lat="42.9398153" lon="12.0775417"><ele>501.0</ele><time>2026-04-01T10:43:27.568Z</time></trkpt><trkpt lat="42.940005" lon="12.077601"><ele>503.33333333333337</ele><time>2026-04-01T10:43:28.568Z</time></trkpt><trkpt lat="42.9402048" lon="12.0776698"><ele>505.6666666666667</ele><time>2026-04-01T10:43:29.569Z</time></trkpt><trkpt lat="42.9404042" lon="12.0777364"><ele>508.0</ele><time>2026-04-01T10:43:30.568Z</time></trkpt><trkpt lat="42.9405915" lon="12.0777955"><ele>508.0</ele><time>2026-04-01T10:43:31.567Z</time></trkpt><trkpt lat="42.9407448" lon="12.0777539"><ele>508.0</ele><time>2026-04-01T10:43:32.568Z</time></trkpt><trkpt lat="42.9409201" lon="12.0776784"><ele>508.0</ele><time>2026-04-01T10:43:33.568Z</time></trkpt><trkpt lat="42.9410893" lon="12.0775329"><ele>509.0</ele><time>2026-04-01T10:43:34.568Z</time></trkpt><trkpt lat="42.9412546" lon="12.0773451"><ele>510.0</ele><time>2026-04-01T10:43:35.567Z</time></trkpt><trkpt lat="42.941408" lon="12.0771718"><ele>511.0</ele><time>2026-04-01T10:43:36.568Z</time></trkpt><trkpt lat="42.9415581" lon="12.077011"><ele>511.0</ele><time>2026-04-01T10:43:37.567Z</time></trkpt><trkpt lat="42.9417018" lon="12.0769049"><ele>511.0</ele><time>2026-04-01T10:43:38.568Z</time></trkpt><trkpt lat="42.9418559" lon="12.0768615"><ele>511.0</ele><time>2026-04-01T10:43:39.568Z</time></trkpt><trkpt lat="42.9420209" lon="12.0768721"><ele>510.33333333333337</ele><time>2026-04-01T10:43:40.568Z</time></trkpt><trkpt lat="42.9421873" lon="12.0769309"><ele>509.66666666666663</ele><time>2026-04-01T10:43:41.568Z</time></trkpt><trkpt lat="42.9423698" lon="12.0770453"><ele>509.0</ele><time>2026-04-01T10:43:42.568Z</time></trkpt><trkpt lat="42.9425644" lon="12.0771657"><ele>509.0</ele><time>2026-04-01T10:43:43.568Z</time></trkpt><trkpt lat="42.9427604" lon="12.0772378"><ele>509.0</ele><time>2026-04-01T10:43:44.569Z</time></trkpt><trkpt lat="42.9429395" lon="12.0772738"><ele>509.0</ele><time>2026-04-01T10:43:45.567Z</time></trkpt><trkpt lat="42.9431136" lon="12.0772308"><ele>509.0</ele><time>2026-04-01T10:43:46.567Z</time></trkpt><trkpt lat="42.9432889" lon="12.0771245"><ele>509.0</ele><time>2026-04-01T10:43:47.568Z</time></trkpt><trkpt lat="42.9434635" lon="12.0769733"><ele>509.0</ele><time>2026-04-01T10:43:48.568Z</time></trkpt><trkpt lat="42.9436318" lon="12.076791"><ele>509.3333333333333</ele><time>2026-04-01T10:43:49.568Z</time></trkpt><trkpt lat="42.9437741" lon="12.0765864"><ele>509.66666666666663</ele><time>2026-04-01T10:43:50.568Z</time></trkpt><trkpt lat="42.9438833" lon="12.0763636"><ele>510.0</ele><time>2026-04-01T10:43:51.568Z</time></trkpt><trkpt lat="42.9439788" lon="12.0761335"><ele>510.0</ele><time>2026-04-01T10:43:52.569Z</time></trkpt><trkpt lat="42.9440697" lon="12.0759337"><ele>510.0</ele><time>2026-04-01T10:43:53.567Z</time></trkpt><trkpt lat="42.9441866" lon="12.0757519"><ele>510.0</ele><time>2026-04-01T10:43:54.567Z</time></trkpt><trkpt lat="42.9443329" lon="12.0755881"><ele>507.0</ele><time>2026-04-01T10:43:55.567Z</time></trkpt><trkpt lat="42.9445185" lon="12.0754532"><ele>504.0</ele><time>2026-04-01T10:43:56.567Z</time></trkpt><trkpt lat="42.944703" lon="12.075303"><ele>501.0</ele><time>2026-04-01T10:43:57.568Z</time></trkpt><trkpt lat="42.9449082" lon="12.0751702"><ele>499.33333333333337</ele><time>2026-04-01T10:43:58.567Z</time></trkpt><trkpt lat="42.9450916" lon="12.0750622"><ele>497.6666666666667</ele><time>2026-04-01T10:43:59.568Z</time></trkpt><trkpt lat="42.9452812" lon="12.0749737"><ele>496.0</ele><time>2026-04-01T10:44:00.568Z</time></trkpt><trkpt lat="42.9454026" lon="12.0749735"><ele>496.0</ele><time>2026-04-01T10:44:01.568Z</time></trkpt><trkpt lat="42.9455302" lon="12.0750101"><ele>496.0</ele><time>2026-04-01T10:44:02.568Z</time></trkpt><trkpt lat="42.9456473" lon="12.0750819"><ele>496.0</ele><time>2026-04-01T10:44:03.568Z</time></trkpt><trkpt lat="42.9457376" lon="12.0752667"><ele>496.0</ele><time>2026-04-01T10:44:04.568Z</time></trkpt><trkpt lat="42.9458056" lon="12.0755136"><ele>495.5</ele><time>2026-04-01T10:44:05.569Z</time></trkpt><trkpt lat="42.9458518" lon="12.0758095"><ele>495.0</ele><time>2026-04-01T10:44:06.567Z</time></trkpt><trkpt lat="42.9458807" lon="12.0761204"><ele>488.33333333333337</ele><time>2026-04-01T10:44:07.566Z</time></trkpt><trkpt lat="42.945919" lon="12.0764155"><ele>481.6666666666667</ele><time>2026-04-01T10:44:08.568Z</time></trkpt><trkpt lat="42.9459412" lon="12.0766945"><ele>475.0</ele><time>2026-04-01T10:44:09.567Z</time></trkpt><trkpt lat="42.9459368" lon="12.0769834"><ele>474.6666666666667</ele><time>2026-04-01T10:44:10.568Z</time></trkpt><trkpt lat="42.9458936" lon="12.0772202"><ele>474.33333333333337</ele><time>2026-04-01T10:44:11.567Z</time></trkpt><trkpt lat="42.9458676" lon="12.077476"><ele>474.0</ele><time>2026-04-01T10:44:12.567Z</time></trkpt><trkpt lat="42.9458803" lon="12.0777323"><ele>474.0</ele><time>2026-04-01T10:44:13.566Z</time></trkpt><trkpt lat="42.9459215" lon="12.0779931"><ele>474.0</ele><time>2026-04-01T10:44:14.568Z</time></trkpt><trkpt lat="42.9460442" lon="12.0783126"><ele>474.0</ele><time>2026-04-01T10:44:15.567Z</time></trkpt><trkpt lat="42.9461023" lon="12.078602"><ele>474.0</ele><time>2026-04-01T10:44:16.568Z</time></trkpt><trkpt lat="42.9461899" lon="12.0788772"><ele>474.0</ele><time>2026-04-01T10:44:17.569Z</time></trkpt><trkpt lat="42.9462665" lon="12.0791131"><ele>475.0</ele><time>2026-04-01T10:44:18.569Z</time></trkpt><trkpt lat="42.9463483" lon="12.0793604"><ele>476.0</ele><time>2026-04-01T10:44:19.568Z</time></trkpt><trkpt lat="42.9464511" lon="12.0795594"><ele>477.0</ele><time>2026-04-01T10:44:20.567Z</time></trkpt><trkpt lat="42.9465504" lon="12.0797468"><ele>472.33333333333337</ele><time>2026-04-01T10:44:21.567Z</time></trkpt><trkpt lat="42.9467262" lon="12.079826"><ele>467.6666666666667</ele><time>2026-04-01T10:44:22.569Z</time></trkpt><trkpt lat="42.9468954" lon="12.0798729"><ele>463.0</ele><time>2026-04-01T10:44:23.567Z</time></trkpt><trkpt lat="42.9470643" lon="12.0799535"><ele>462.0</ele><time>2026-04-01T10:44:24.568Z</time></trkpt><trkpt lat="42.947216" lon="12.0800674"><ele>461.0</ele><time>2026-04-01T10:44:25.568Z</time></trkpt><trkpt lat="42.9473238" lon="12.080214"><ele>460.0</ele><time>2026-04-01T10:44:26.568Z</time></trkpt><trkpt lat="42.9474053" lon="12.080415"><ele>460.0</ele><time>2026-04-01T10:44:27.568Z</time></trkpt><trkpt lat="42.9474436" lon="12.0806527"><ele>460.0</ele><time>2026-04-01T10:44:28.568Z</time></trkpt><trkpt lat="42.9474871" lon="12.0809123"><ele>460.0</ele><time>2026-04-01T10:44:29.568Z</time></trkpt><trkpt lat="42.9475178" lon="12.0811685"><ele>460.33333333333337</ele><time>2026-04-01T10:44:30.568Z</time></trkpt><trkpt lat="42.9475048" lon="12.08142"><ele>460.66666666666663</ele><time>2026-04-01T10:44:31.568Z</time></trkpt><trkpt lat="42.9475043" lon="12.0816729"><ele>461.0</ele><time>2026-04-01T10:44:32.568Z</time></trkpt><trkpt lat="42.9474238" lon="12.0818996"><ele>461.0</ele><time>2026-04-01T10:44:33.568Z</time></trkpt><trkpt lat="42.9474185" lon="12.0821317"><ele>461.0</ele><time>2026-04-01T10:44:34.568Z</time></trkpt><trkpt lat="42.9474354" lon="12.0823543"><ele>461.0</ele><time>2026-04-01T10:44:35.568Z</time></trkpt><trkpt lat="42.9475155" lon="12.0825604"><ele>457.3333333333333</ele><time>2026-04-01T10:44:36.566Z</time></trkpt><trkpt lat="42.9476301" lon="12.0827716"><ele>453.66666666666663</ele><time>2026-04-01T10:44:37.568Z</time></trkpt><trkpt lat="42.9477655" lon="12.0829562"><ele>450.0</ele><time>2026-04-01T10:44:38.567Z</time></trkpt><trkpt lat="42.9479207" lon="12.0830943"><ele>450.0</ele><time>2026-04-01T10:44:39.568Z</time></trkpt><trkpt lat="42.9481218" lon="12.0831641"><ele>450.0</ele><time>2026-04-01T10:44:40.568Z</time></trkpt><trkpt lat="42.948331" lon="12.0832042"><ele>450.0</ele><time>2026-04-01T10:44:41.568Z</time></trkpt><trkpt lat="42.9485372" lon="12.0832374"><ele>448.66666666666663</ele><time>2026-04-01T10:44:42.568Z</time></trkpt><trkpt lat="42.9487434" lon="12.0832738"><ele>447.3333333333333</ele><time>2026-04-01T10:44:43.568Z</time></trkpt><trkpt lat="42.948911" lon="12.0834019"><ele>446.0</ele><time>2026-04-01T10:44:44.569Z</time></trkpt><trkpt lat="42.9490447" lon="12.0835448"><ele>446.0</ele><time>2026-04-01T10:44:45.568Z</time></trkpt><trkpt lat="42.9492042" lon="12.0836251"><ele>446.0</ele><time>2026-04-01T10:44:46.569Z</time></trkpt><trkpt lat="42.9493777" lon="12.0837055"><ele>446.0</ele><time>2026-04-01T10:44:47.568Z</time></trkpt><trkpt lat="42.9495365" lon="12.0837359"><ele>444.3333333333333</ele><time>2026-04-01T10:44:48.567Z</time></trkpt><trkpt lat="42.9496942" lon="12.0837397"><ele>442.66666666666663</ele><time>2026-04-01T10:44:49.568Z</time></trkpt><trkpt lat="42.9498432" lon="12.083709"><ele>441.0</ele><time>2026-04-01T10:44:50.567Z</time></trkpt><trkpt lat="42.9499016" lon="12.0835305"><ele>441.0</ele><time>2026-04-01T10:44:51.568Z</time></trkpt><trkpt lat="42.9499406" lon="12.0833543"><ele>441.0</ele><time>2026-04-01T10:44:52.567Z</time></trkpt><trkpt lat="42.9499317" lon="12.0831534"><ele>441.0</ele><time>2026-04-01T10:44:53.568Z</time></trkpt><trkpt lat="42.9498998" lon="12.0829367"><ele>441.0</ele><time>2026-04-01T10:44:54.568Z</time></trkpt><trkpt lat="42.9498646" lon="12.0827121"><ele>436.0</ele><time>2026-04-01T10:44:55.568Z</time></trkpt><trkpt lat="42.9499312" lon="12.0824177"><ele>431.0</ele><time>2026-04-01T10:44:56.569Z</time></trkpt><trkpt lat="42.9499676" lon="12.0821116"><ele>431.0</ele><time>2026-04-01T10:44:57.568Z</time></trkpt><trkpt lat="42.950019" lon="12.0818434"><ele>431.0</ele><time>2026-04-01T10:44:58.568Z</time></trkpt><trkpt lat="42.9500885" lon="12.0815849"><ele>431.0</ele><time>2026-04-01T10:44:59.568Z</time></trkpt><trkpt lat="42.950206" lon="12.0813192"><ele>428.66666666666663</ele><time>2026-04-01T10:45:00.568Z</time></trkpt><trkpt lat="42.9503429" lon="12.0810808"><ele>426.33333333333337</ele><time>2026-04-01T10:45:01.568Z</time></trkpt><trkpt lat="42.9504761" lon="12.0808525"><ele>424.0</ele><time>2026-04-01T10:45:02.568Z</time></trkpt><trkpt lat="42.9506052" lon="12.0806403"><ele>422.33333333333337</ele><time>2026-04-01T10:45:03.567Z</time></trkpt><trkpt lat="42.9507127" lon="12.0804476"><ele>420.66666666666663</ele><time>2026-04-01T10:45:04.569Z</time></trkpt><trkpt lat="42.9508089" lon="12.0802888"><ele>419.0</ele><time>2026-04-01T10:45:05.569Z</time></trkpt><trkpt lat="42.9509068" lon="12.0801622"><ele>418.6</ele><time>2026-04-01T10:45:06.568Z</time></trkpt><trkpt lat="42.9510095" lon="12.0801685"><ele>418.2</ele><time>2026-04-01T10:45:07.568Z</time></trkpt><trkpt lat="42.9511201" lon="12.0801861"><ele>417.8</ele><time>2026-04-01T10:45:08.568Z</time></trkpt><trkpt lat="42.9511332" lon="12.0803238"><ele>417.40000000000003</ele><time>2026-04-01T10:45:09.568Z</time></trkpt><trkpt lat="42.9511577" lon="12.0804745"><ele>417.0</ele><time>2026-04-01T10:45:10.568Z</time></trkpt><trkpt lat="42.9511431" lon="12.0806164"><ele>417.0</ele><time>2026-04-01T10:45:11.568Z</time></trkpt><trkpt lat="42.9510601" lon="12.0807961"><ele>417.0</ele><time>2026-04-01T10:45:12.568Z</time></trkpt><trkpt lat="42.9509303" lon="12.08088"><ele>417.0</ele><time>2026-04-01T10:45:13.568Z</time></trkpt><trkpt lat="42.9508607" lon="12.0810076"><ele>417.0</ele><time>2026-04-01T10:45:14.568Z</time></trkpt><trkpt lat="42.9508476" lon="12.0811606"><ele>417.0</ele><time>2026-04-01T10:45:15.567Z</time></trkpt><trkpt lat="42.9508841" lon="12.0813032"><ele>417.0</ele><time>2026-04-01T10:45:16.568Z</time></trkpt><trkpt lat="42.9509397" lon="12.0814489"><ele>417.0</ele><time>2026-04-01T10:45:17.568Z</time></trkpt><trkpt lat="42.9511065" lon="12.0815007"><ele>417.0</ele><time>2026-04-01T10:45:18.568Z</time></trkpt><trkpt lat="42.9512463" lon="12.0815255"><ele>417.0</ele><time>2026-04-01T10:45:19.568Z</time></trkpt><trkpt lat="42.9514405" lon="12.0815206"><ele>417.0</ele><time>2026-04-01T10:45:20.569Z</time></trkpt><trkpt lat="42.9516167" lon="12.0815141"><ele>417.0</ele><time>2026-04-01T10:45:21.568Z</time></trkpt><trkpt lat="42.9518012" lon="12.0815027"><ele>414.0</ele><time>2026-04-01T10:45:22.568Z</time></trkpt><trkpt lat="42.9519781" lon="12.0815098"><ele>411.0</ele><time>2026-04-01T10:45:23.568Z</time></trkpt><trkpt lat="42.9521457" lon="12.0815597"><ele>408.0</ele><time>2026-04-01T10:45:24.567Z</time></trkpt><trkpt lat="42.9523088" lon="12.0816546"><ele>407.66666666666663</ele><time>2026-04-01T10:45:25.569Z</time></trkpt><trkpt lat="42.9524878" lon="12.0817887"><ele>407.3333333333333</ele><time>2026-04-01T10:45:26.569Z</time></trkpt><trkpt lat="42.9526648" lon="12.0819357"><ele>407.0</ele><time>2026-04-01T10:45:27.568Z</time></trkpt><trkpt lat="42.9528425" lon="12.0820473"><ele>404.66666666666663</ele><time>2026-04-01T10:45:28.569Z</time></trkpt><trkpt lat="42.9530251" lon="12.0821656"><ele>402.33333333333337</ele><time>2026-04-01T10:45:29.567Z</time></trkpt><trkpt lat="42.9532437" lon="12.0822082"><ele>400.0</ele><time>2026-04-01T10:45:30.568Z</time></trkpt><trkpt lat="42.9534755" lon="12.0822424"><ele>397.0</ele><time>2026-04-01T10:45:31.568Z</time></trkpt><trkpt lat="42.9537144" lon="12.0822957"><ele>394.0</ele><time>2026-04-01T10:45:32.568Z</time></trkpt><trkpt lat="42.953949" lon="12.0823114"><ele>394.0</ele><time>2026-04-01T10:45:33.568Z</time></trkpt><trkpt lat="42.9541875" lon="12.0823202"><ele>394.0</ele><time>2026-04-01T10:45:34.568Z</time></trkpt><trkpt lat="42.9544069" lon="12.0823444"><ele>391.6666666666667</ele><time>2026-04-01T10:45:35.568Z</time></trkpt><trkpt lat="42.9546276" lon="12.0823639"><ele>389.33333333333337</ele><time>2026-04-01T10:45:36.568Z</time></trkpt><trkpt lat="42.9548457" lon="12.0823787"><ele>387.0</ele><time>2026-04-01T10:45:37.569Z</time></trkpt><trkpt lat="42.9550452" lon="12.082311"><ele>386.5</ele><time>2026-04-01T10:45:38.568Z</time></trkpt><trkpt lat="42.9552373" lon="12.0822262"><ele>386.0</ele><time>2026-04-01T10:45:39.569Z</time></trkpt><trkpt lat="42.9554382" lon="12.0819854"><ele>386.0</ele><time>2026-04-01T10:45:40.568Z</time></trkpt><trkpt lat="42.9556218" lon="12.0817714"><ele>386.0</ele><time>2026-04-01T10:45:41.568Z</time></trkpt><trkpt lat="42.9558145" lon="12.0815482"><ele>383.66666666666663</ele><time>2026-04-01T10:45:42.568Z</time></trkpt><trkpt lat="42.9559881" lon="12.0813359"><ele>381.3333333333333</ele><time>2026-04-01T10:45:43.568Z</time></trkpt><trkpt lat="42.9561437" lon="12.0811679"><ele>379.0</ele><time>2026-04-01T10:45:44.569Z</time></trkpt><trkpt lat="42.9563124" lon="12.0809782"><ele>379.0</ele><time>2026-04-01T10:45:45.569Z</time></trkpt><trkpt lat="42.9564756" lon="12.0808367"><ele>379.0</ele><time>2026-04-01T10:45:46.568Z</time></trkpt><trkpt lat="42.9565616" lon="12.0808431"><ele>379.0</ele><time>2026-04-01T10:45:47.568Z</time></trkpt><trkpt lat="42.956663" lon="12.0808682"><ele>379.0</ele><time>2026-04-01T10:45:48.568Z</time></trkpt><trkpt lat="42.9567275" lon="12.0809711"><ele>376.0</ele><time>2026-04-01T10:45:49.569Z</time></trkpt><trkpt lat="42.956777" lon="12.0811383"><ele>373.0</ele><time>2026-04-01T10:45:50.568Z</time></trkpt><trkpt lat="42.9568196" lon="12.08136"><ele>370.0</ele><time>2026-04-01T10:45:51.568Z</time></trkpt><trkpt lat="42.9568738" lon="12.0815975"><ele>372.3333333333333</ele><time>2026-04-01T10:45:52.569Z</time></trkpt><trkpt lat="42.9569489" lon="12.0818268"><ele>374.6666666666667</ele><time>2026-04-01T10:45:53.568Z</time></trkpt><trkpt lat="42.9570355" lon="12.0820586"><ele>377.0</ele><time>2026-04-01T10:45:54.568Z</time></trkpt><trkpt lat="42.9571489" lon="12.0822476"><ele>377.0</ele><time>2026-04-01T10:45:55.569Z</time></trkpt><trkpt lat="42.9572991" lon="12.0824251"><ele>377.0</ele><time>2026-04-01T10:45:56.569Z</time></trkpt><trkpt lat="42.9574409" lon="12.0826032"><ele>377.0</ele><time>2026-04-01T10:45:57.567Z</time></trkpt><trkpt lat="42.9576753" lon="12.0827638"><ele>370.5</ele><time>2026-04-01T10:45:58.569Z</time></trkpt><trkpt lat="42.9578736" lon="12.0828644"><ele>364.0</ele><time>2026-04-01T10:45:59.568Z</time></trkpt><trkpt lat="42.9581575" lon="12.0829229"><ele>364.0</ele><time>2026-04-01T10:46:00.568Z</time></trkpt><trkpt lat="42.9584114" lon="12.0829205"><ele>364.0</ele><time>2026-04-01T10:46:01.568Z</time></trkpt><trkpt lat="42.9586665" lon="12.0829144"><ele>364.0</ele><time>2026-04-01T10:46:02.568Z</time></trkpt><trkpt lat="42.9588966" lon="12.0828789"><ele>364.0</ele><time>2026-04-01T10:46:03.568Z</time></trkpt><trkpt lat="42.9591157" lon="12.0828676"><ele>364.3333333333333</ele><time>2026-04-01T10:46:04.567Z</time></trkpt><trkpt lat="42.9593267" lon="12.0828543"><ele>364.6666666666667</ele><time>2026-04-01T10:46:05.568Z</time></trkpt><trkpt lat="42.9595371" lon="12.0828613"><ele>365.0</ele><time>2026-04-01T10:46:06.568Z</time></trkpt><trkpt lat="42.9597374" lon="12.0828677"><ele>365.0</ele><time>2026-04-01T10:46:07.569Z</time></trkpt><trkpt lat="42.9599216" lon="12.0828824"><ele>365.0</ele><time>2026-04-01T10:46:08.568Z</time></trkpt><trkpt lat="42.960095" lon="12.0828896"><ele>365.0</ele><time>2026-04-01T10:46:09.568Z</time></trkpt><trkpt lat="42.9602696" lon="12.0829017"><ele>363.6666666666667</ele><time>2026-04-01T10:46:10.569Z</time></trkpt><trkpt lat="42.9604508" lon="12.0829219"><ele>362.3333333333333</ele><time>2026-04-01T10:46:11.567Z</time></trkpt><trkpt lat="42.9606358" lon="12.082945"><ele>361.0</ele><time>2026-04-01T10:46:12.57Z</time></trkpt><trkpt lat="42.9608242" lon="12.0829784"><ele>360.3333333333333</ele><time>2026-04-01T10:46:13.568Z</time></trkpt><trkpt lat="42.9610132" lon="12.0830109"><ele>359.6666666666667</ele><time>2026-04-01T10:46:14.568Z</time></trkpt><trkpt lat="42.9612007" lon="12.083038"><ele>359.0</ele><time>2026-04-01T10:46:15.568Z</time></trkpt><trkpt lat="42.961395" lon="12.0830643"><ele>359.0</ele><time>2026-04-01T10:46:16.569Z</time></trkpt><trkpt lat="42.9615816" lon="12.0830863"><ele>359.0</ele><time>2026-04-01T10:46:17.569Z</time></trkpt><trkpt lat="42.9617577" lon="12.0830891"><ele>359.0</ele><time>2026-04-01T10:46:18.568Z</time></trkpt><trkpt lat="42.9619233" lon="12.0830555"><ele>358.33333333333337</ele><time>2026-04-01T10:46:19.57Z</time></trkpt><trkpt lat="42.9620893" lon="12.0829648"><ele>357.6666666666667</ele><time>2026-04-01T10:46:20.568Z</time></trkpt><trkpt lat="42.9622481" lon="12.0828315"><ele>357.0</ele><time>2026-04-01T10:46:21.569Z</time></trkpt><trkpt lat="42.9624082" lon="12.0826758"><ele>357.0</ele><time>2026-04-01T10:46:22.569Z</time></trkpt><trkpt lat="42.962567" lon="12.0825293"><ele>357.0</ele><time>2026-04-01T10:46:23.568Z</time></trkpt><trkpt lat="42.9627388" lon="12.0823985"><ele>357.0</ele><time>2026-04-01T10:46:24.568Z</time></trkpt><trkpt lat="42.9629289" lon="12.0822774"><ele>356.6666666666667</ele><time>2026-04-01T10:46:25.57Z</time></trkpt><trkpt lat="42.9631325" lon="12.0822231"><ele>356.33333333333337</ele><time>2026-04-01T10:46:26.568Z</time></trkpt><trkpt lat="42.9633314" lon="12.0821928"><ele>356.0</ele><time>2026-04-01T10:46:27.569Z</time></trkpt><trkpt lat="42.9635318" lon="12.082166"><ele>355.0</ele><time>2026-04-01T10:46:28.568Z</time></trkpt><trkpt lat="42.9637201" lon="12.0821651"><ele>354.0</ele><time>2026-04-01T10:46:29.569Z</time></trkpt><trkpt lat="42.9639052" lon="12.0821785"><ele>353.0</ele><time>2026-04-01T10:46:30.568Z</time></trkpt><trkpt lat="42.9640856" lon="12.0822402"><ele>352.0</ele><time>2026-04-01T10:46:31.57Z</time></trkpt><trkpt lat="42.9642471" lon="12.0823205"><ele>351.0</ele><time>2026-04-01T10:46:32.569Z</time></trkpt><trkpt lat="42.9644062" lon="12.0824147"><ele>350.0</ele><time>2026-04-01T10:46:33.568Z</time></trkpt><trkpt lat="42.9645578" lon="12.0824987"><ele>353.6666666666667</ele><time>2026-04-01T10:46:34.567Z</time></trkpt><trkpt lat="42.9647035" lon="12.0825946"><ele>357.3333333333333</ele><time>2026-04-01T10:46:35.568Z</time></trkpt><trkpt lat="42.9648499" lon="12.0827043"><ele>361.0</ele><time>2026-04-01T10:46:36.568Z</time></trkpt><trkpt lat="42.9649876" lon="12.0828105"><ele>357.75</ele><time>2026-04-01T10:46:37.569Z</time></trkpt><trkpt lat="42.9651163" lon="12.0829211"><ele>354.5</ele><time>2026-04-01T10:46:38.568Z</time></trkpt><trkpt lat="42.9652466" lon="12.0830209"><ele>351.25</ele><time>2026-04-01T10:46:39.568Z</time></trkpt><trkpt lat="42.9653646" lon="12.0831107"><ele>348.0</ele><time>2026-04-01T10:46:40.568Z</time></trkpt><trkpt lat="42.9654915" lon="12.0832039"><ele>351.0</ele><time>2026-04-01T10:46:41.57Z</time></trkpt><trkpt lat="42.9656168" lon="12.0832911"><ele>354.0</ele><time>2026-04-01T10:46:42.568Z</time></trkpt><trkpt lat="42.9657521" lon="12.0833739"><ele>357.0</ele><time>2026-04-01T10:46:43.569Z</time></trkpt><trkpt lat="42.9658857" lon="12.0834466"><ele>360.0</ele><time>2026-04-01T10:46:44.569Z</time></trkpt><trkpt lat="42.9660242" lon="12.0835055"><ele>360.0</ele><time>2026-04-01T10:46:45.569Z</time></trkpt><trkpt lat="42.9661653" lon="12.0835608"><ele>360.0</ele><time>2026-04-01T10:46:46.568Z</time></trkpt><trkpt lat="42.9663068" lon="12.0836042"><ele>360.0</ele><time>2026-04-01T10:46:47.569Z</time></trkpt><trkpt lat="42.9664341" lon="12.0836431"><ele>360.0</ele><time>2026-04-01T10:46:48.568Z</time></trkpt><trkpt lat="42.9665593" lon="12.0836754"><ele>360.0</ele><time>2026-04-01T10:46:49.569Z</time></trkpt><trkpt lat="42.9666719" lon="12.0837102"><ele>360.0</ele><time>2026-04-01T10:46:50.57Z</time></trkpt><trkpt lat="42.9667759" lon="12.083751"><ele>360.0</ele><time>2026-04-01T10:46:51.567Z</time></trkpt><trkpt lat="42.9668678" lon="12.083765"><ele>360.0</ele><time>2026-04-01T10:46:52.568Z</time></trkpt><trkpt lat="42.966962" lon="12.0837946"><ele>360.0</ele><time>2026-04-01T10:46:53.57Z</time></trkpt><trkpt lat="42.9670438" lon="12.0838235"><ele>359.6666666666667</ele><time>2026-04-01T10:46:54.569Z</time></trkpt><trkpt lat="42.9671167" lon="12.0838627"><ele>359.3333333333333</ele><time>2026-04-01T10:46:55.568Z</time></trkpt><trkpt lat="42.9671925" lon="12.0838934"><ele>359.0</ele><time>2026-04-01T10:46:56.569Z</time></trkpt><trkpt lat="42.9672608" lon="12.0839193"><ele>358.66666666666663</ele><time>2026-04-01T10:46:57.57Z</time></trkpt><trkpt lat="42.9673451" lon="12.0839464"><ele>358.3333333333333</ele><time>2026-04-01T10:46:58.568Z</time></trkpt><trkpt lat="42.9674439" lon="12.0839804"><ele>358.0</ele><time>2026-04-01T10:46:59.569Z</time></trkpt><trkpt lat="42.9675455" lon="12.0840182"><ele>358.0</ele><time>2026-04-01T10:47:00.569Z</time></trkpt><trkpt lat="42.9676797" lon="12.0840793"><ele>358.0</ele><time>2026-04-01T10:47:01.569Z</time></trkpt><trkpt lat="42.9678342" lon="12.0841678"><ele>358.0</ele><time>2026-04-01T10:47:02.567Z</time></trkpt><trkpt lat="42.9680067" lon="12.0842532"><ele>358.0</ele><time>2026-04-01T10:47:03.569Z</time></trkpt><trkpt lat="42.9681785" lon="12.0843399"><ele>358.0</ele><time>2026-04-01T10:47:04.568Z</time></trkpt><trkpt lat="42.9683483" lon="12.0844177"><ele>358.0</ele><time>2026-04-01T10:47:05.569Z</time></trkpt><trkpt lat="42.9685185" lon="12.0845022"><ele>353.0</ele><time>2026-04-01T10:47:06.568Z</time></trkpt><trkpt lat="42.9686805" lon="12.0845797"><ele>348.0</ele><time>2026-04-01T10:47:07.568Z</time></trkpt><trkpt lat="42.9688381" lon="12.0846912"><ele>343.0</ele><time>2026-04-01T10:47:08.568Z</time></trkpt><trkpt lat="42.9689769" lon="12.0848078"><ele>343.0</ele><time>2026-04-01T10:47:09.568Z</time></trkpt><trkpt lat="42.9691127" lon="12.0849284"><ele>343.0</ele><time>2026-04-01T10:47:10.568Z</time></trkpt><trkpt lat="42.9691988" lon="12.085054"><ele>343.0</ele><time>2026-04-01T10:47:11.567Z</time></trkpt><trkpt lat="42.9692931" lon="12.0851937"><ele>343.0</ele><time>2026-04-01T10:47:12.569Z</time></trkpt><trkpt lat="42.9693423" lon="12.0852978"><ele>343.25</ele><time>2026-04-01T10:47:13.568Z</time></trkpt><trkpt lat="42.9693464" lon="12.0854508"><ele>343.5</ele><time>2026-04-01T10:47:14.57Z</time></trkpt><trkpt lat="42.9693386" lon="12.085615"><ele>343.75</ele><time>2026-04-01T10:47:15.57Z</time></trkpt><trkpt lat="42.9692921" lon="12.0857523"><ele>344.0</ele><time>2026-04-01T10:47:16.568Z</time></trkpt><trkpt lat="42.9691753" lon="12.0859137"><ele>344.0</ele><time>2026-04-01T10:47:17.569Z</time></trkpt><trkpt lat="42.9690288" lon="12.0860158"><ele>344.0</ele><time>2026-04-01T10:47:18.569Z</time></trkpt><trkpt lat="42.9689318" lon="12.0861423"><ele>344.0</ele><time>2026-04-01T10:47:19.569Z</time></trkpt><trkpt lat="42.9688551" lon="12.0862657"><ele>344.0</ele><time>2026-04-01T10:47:20.57Z</time></trkpt><trkpt lat="42.9688114" lon="12.0864082"><ele>344.0</ele><time>2026-04-01T10:47:21.57Z</time></trkpt><trkpt lat="42.9687854" lon="12.0865654"><ele>344.0</ele><time>2026-04-01T10:47:22.569Z</time></trkpt><trkpt lat="42.9688759" lon="12.0866899"><ele>344.0</ele><time>2026-04-01T10:47:23.569Z</time></trkpt><trkpt lat="42.9689681" lon="12.0867983"><ele>344.0</ele><time>2026-04-01T10:47:24.567Z</time></trkpt><trkpt lat="42.9691004" lon="12.0868629"><ele>345.33333333333337</ele><time>2026-04-01T10:47:25.568Z</time></trkpt><trkpt lat="42.9692566" lon="12.0869239"><ele>346.6666666666667</ele><time>2026-04-01T10:47:26.57Z</time></trkpt><trkpt lat="42.9694424" lon="12.0869712"><ele>348.0</ele><time>2026-04-01T10:47:27.569Z</time></trkpt><trkpt lat="42.9696483" lon="12.0870273"><ele>348.0</ele><time>2026-04-01T10:47:28.568Z</time></trkpt><trkpt lat="42.9698741" lon="12.0870905"><ele>348.0</ele><time>2026-04-01T10:47:29.569Z</time></trkpt><trkpt lat="42.9700977" lon="12.0871529"><ele>347.6666666666667</ele><time>2026-04-01T10:47:30.569Z</time></trkpt><trkpt lat="42.9703148" lon="12.0872189"><ele>347.33333333333337</ele><time>2026-04-01T10:47:31.569Z</time></trkpt><trkpt lat="42.9705252" lon="12.0872747"><ele>347.0</ele><time>2026-04-01T10:47:32.57Z</time></trkpt><trkpt lat="42.9707215" lon="12.0873292"><ele>339.6666666666667</ele><time>2026-04-01T10:47:33.568Z</time></trkpt><trkpt lat="42.9709056" lon="12.087395"><ele>332.3333333333333</ele><time>2026-04-01T10:47:34.568Z</time></trkpt><trkpt lat="42.9710755" lon="12.0874494"><ele>325.0</ele><time>2026-04-01T10:47:35.569Z</time></trkpt><trkpt lat="42.9712313" lon="12.0874993"><ele>325.0</ele><time>2026-04-01T10:47:36.569Z</time></trkpt><trkpt lat="42.9713578" lon="12.0875286"><ele>325.0</ele><time>2026-04-01T10:47:37.568Z</time></trkpt><trkpt lat="42.9714811" lon="12.0874887"><ele>325.0</ele><time>2026-04-01T10:47:38.569Z</time></trkpt><trkpt lat="42.9715775" lon="12.0874238"><ele>325.0</ele><time>2026-04-01T10:47:39.569Z</time></trkpt><trkpt lat="42.971668" lon="12.0873239"><ele>316.5</ele><time>2026-04-01T10:47:40.569Z</time></trkpt><trkpt lat="42.9717512" lon="12.0871919"><ele>308.0</ele><time>2026-04-01T10:47:41.569Z</time></trkpt><trkpt lat="42.9718168" lon="12.0870332"><ele>299.5</ele><time>2026-04-01T10:47:42.569Z</time></trkpt><trkpt lat="42.9718418" lon="12.086801"><ele>291.0</ele><time>2026-04-01T10:47:43.569Z</time></trkpt><trkpt lat="42.9717959" lon="12.0865874"><ele>296.6666666666667</ele><time>2026-04-01T10:47:44.569Z</time></trkpt><trkpt lat="42.9716678" lon="12.0863941"><ele>302.33333333333337</ele><time>2026-04-01T10:47:45.568Z</time></trkpt><trkpt lat="42.9715641" lon="12.0862178"><ele>308.0</ele><time>2026-04-01T10:47:46.568Z</time></trkpt><trkpt lat="42.9714737" lon="12.0860504"><ele>308.0</ele><time>2026-04-01T10:47:47.569Z</time></trkpt><trkpt lat="42.9714022" lon="12.0858866"><ele>308.0</ele><time>2026-04-01T10:47:48.57Z</time></trkpt><trkpt lat="42.9713278" lon="12.0857582"><ele>308.0</ele><time>2026-04-01T10:47:49.569Z</time></trkpt><trkpt lat="42.9712674" lon="12.0856134"><ele>308.0</ele><time>2026-04-01T10:47:51.569Z</time></trkpt><trkpt lat="42.9713598" lon="12.0856048"><ele>308.0</ele><time>2026-04-01T10:47:52.568Z</time></trkpt><trkpt lat="42.9714282" lon="12.0855996"><ele>308.0</ele><time>2026-04-01T10:47:53.57Z</time></trkpt><trkpt lat="42.9715076" lon="12.0857501"><ele>308.0</ele><time>2026-04-01T10:47:54.57Z</time></trkpt><trkpt lat="42.9715853" lon="12.0858777"><ele>308.0</ele><time>2026-04-01T10:47:55.568Z</time></trkpt><trkpt lat="42.9716771" lon="12.0860337"><ele>302.33333333333337</ele><time>2026-04-01T10:47:56.567Z</time></trkpt><trkpt lat="42.9717594" lon="12.0861974"><ele>296.6666666666667</ele><time>2026-04-01T10:47:57.569Z</time></trkpt><trkpt lat="42.9718791" lon="12.0864417"><ele>291.0</ele><time>2026-04-01T10:47:58.569Z</time></trkpt><trkpt lat="42.9719741" lon="12.0866397"><ele>291.0</ele><time>2026-04-01T10:47:59.569Z</time></trkpt><trkpt lat="42.9720511" lon="12.0868331"><ele>291.0</ele><time>2026-04-01T10:48:00.568Z</time></trkpt><trkpt lat="42.9721186" lon="12.0869996"><ele>291.0</ele><time>2026-04-01T10:48:01.569Z</time></trkpt><trkpt lat="42.972147" lon="12.0871765"><ele>291.0</ele><time>2026-04-01T10:48:02.568Z</time></trkpt><trkpt lat="42.9721295" lon="12.0873415"><ele>291.8</ele><time>2026-04-01T10:48:03.568Z</time></trkpt><trkpt lat="42.9720877" lon="12.0874942"><ele>292.6</ele><time>2026-04-01T10:48:04.57Z</time></trkpt><trkpt lat="42.9720281" lon="12.0875949"><ele>293.4</ele><time>2026-04-01T10:48:05.569Z</time></trkpt><trkpt lat="42.9719746" lon="12.087692"><ele>294.2</ele><time>2026-04-01T10:48:06.57Z</time></trkpt><trkpt lat="42.9719342" lon="12.0878128"><ele>295.0</ele><time>2026-04-01T10:48:07.568Z</time></trkpt><trkpt lat="42.9720045" lon="12.087922"><ele>295.0</ele><time>2026-04-01T10:48:08.569Z</time></trkpt><trkpt lat="42.9721465" lon="12.0879603"><ele>295.0</ele><time>2026-04-01T10:48:10.569Z</time></trkpt><trkpt lat="42.9722428" lon="12.0878973"><ele>295.0</ele><time>2026-04-01T10:48:11.568Z</time></trkpt><trkpt lat="42.9723441" lon="12.0877532"><ele>295.0</ele><time>2026-04-01T10:48:12.567Z</time></trkpt><trkpt lat="42.9724214" lon="12.087561"><ele>293.66666666666663</ele><time>2026-04-01T10:48:13.569Z</time></trkpt><trkpt lat="42.9724762" lon="12.0873301"><ele>292.3333333333333</ele><time>2026-04-01T10:48:14.568Z</time></trkpt><trkpt lat="42.9725141" lon="12.087079"><ele>291.0</ele><time>2026-04-01T10:48:15.568Z</time></trkpt><trkpt lat="42.9724207" lon="12.0868877"><ele>291.0</ele><time>2026-04-01T10:48:16.57Z</time></trkpt><trkpt lat="42.972355" lon="12.0867035"><ele>291.0</ele><time>2026-04-01T10:48:17.569Z</time></trkpt><trkpt lat="42.9722907" lon="12.0865035"><ele>291.0</ele><time>2026-04-01T10:48:18.568Z</time></trkpt><trkpt lat="42.9723086" lon="12.0862687"><ele>288.6666666666667</ele><time>2026-04-01T10:48:19.57Z</time></trkpt><trkpt lat="42.9723176" lon="12.0859868"><ele>286.33333333333337</ele><time>2026-04-01T10:48:20.569Z</time></trkpt><trkpt lat="42.9723888" lon="12.0856994"><ele>284.0</ele><time>2026-04-01T10:48:21.568Z</time></trkpt><trkpt lat="42.972478" lon="12.0854194"><ele>285.0</ele><time>2026-04-01T10:48:22.57Z</time></trkpt><trkpt lat="42.9725707" lon="12.0851557"><ele>286.0</ele><time>2026-04-01T10:48:23.568Z</time></trkpt><trkpt lat="42.9726473" lon="12.0849458"><ele>287.0</ele><time>2026-04-01T10:48:24.569Z</time></trkpt><trkpt lat="42.9727402" lon="12.0847715"><ele>287.8</ele><time>2026-04-01T10:48:25.569Z</time></trkpt><trkpt lat="42.972831" lon="12.0846276"><ele>288.6</ele><time>2026-04-01T10:48:26.569Z</time></trkpt><trkpt lat="42.9729187" lon="12.084549"><ele>289.40000000000003</ele><time>2026-04-01T10:48:27.568Z</time></trkpt><trkpt lat="42.9729951" lon="12.0845269"><ele>290.2</ele><time>2026-04-01T10:48:28.569Z</time></trkpt><trkpt lat="42.97308" lon="12.0845706"><ele>291.0</ele><time>2026-04-01T10:48:29.57Z</time></trkpt><trkpt lat="42.9731689" lon="12.0846635"><ele>291.0</ele><time>2026-04-01T10:48:30.568Z</time></trkpt><trkpt lat="42.9732678" lon="12.0847978"><ele>291.0</ele><time>2026-04-01T10:48:31.569Z</time></trkpt><trkpt lat="42.9733749" lon="12.0849659"><ele>291.0</ele><time>2026-04-01T10:48:32.569Z</time></trkpt><trkpt lat="42.9735045" lon="12.0851452"><ele>291.3333333333333</ele><time>2026-04-01T10:48:33.568Z</time></trkpt><trkpt lat="42.9736451" lon="12.085342"><ele>291.66666666666663</ele><time>2026-04-01T10:48:34.568Z</time></trkpt><trkpt lat="42.9737967" lon="12.0855578"><ele>292.0</ele><time>2026-04-01T10:48:35.569Z</time></trkpt><trkpt lat="42.9739619" lon="12.0857787"><ele>290.0</ele><time>2026-04-01T10:48:36.567Z</time></trkpt><trkpt lat="42.9741314" lon="12.0859975"><ele>288.0</ele><time>2026-04-01T10:48:37.569Z</time></trkpt><trkpt lat="42.9742901" lon="12.0862022"><ele>288.0</ele><time>2026-04-01T10:48:38.569Z</time></trkpt><trkpt lat="42.9744296" lon="12.0863977"><ele>288.0</ele><time>2026-04-01T10:48:39.569Z</time></trkpt><trkpt lat="42.9745467" lon="12.0865972"><ele>288.0</ele><time>2026-04-01T10:48:40.57Z</time></trkpt><trkpt lat="42.9746189" lon="12.0868188"><ele>287.3333333333333</ele><time>2026-04-01T10:48:41.568Z</time></trkpt><trkpt lat="42.9746778" lon="12.0870761"><ele>286.66666666666663</ele><time>2026-04-01T10:48:42.569Z</time></trkpt><trkpt lat="42.9747131" lon="12.0873383"><ele>286.0</ele><time>2026-04-01T10:48:43.569Z</time></trkpt><trkpt lat="42.9747255" lon="12.0876424"><ele>285.66666666666663</ele><time>2026-04-01T10:48:44.57Z</time></trkpt><trkpt lat="42.9747197" lon="12.0879353"><ele>285.3333333333333</ele><time>2026-04-01T10:48:45.569Z</time></trkpt><trkpt lat="42.9747253" lon="12.0882317"><ele>285.0</ele><time>2026-04-01T10:48:46.569Z</time></trkpt><trkpt lat="42.9747518" lon="12.0885267"><ele>284.0</ele><time>2026-04-01T10:48:47.569Z</time></trkpt><trkpt lat="42.974816" lon="12.0888124"><ele>283.0</ele><time>2026-04-01T10:48:48.57Z</time></trkpt><trkpt lat="42.9749225" lon="12.0890901"><ele>282.0</ele><time>2026-04-01T10:48:49.568Z</time></trkpt><trkpt lat="42.9750678" lon="12.0893336"><ele>282.0</ele><time>2026-04-01T10:48:50.57Z</time></trkpt><trkpt lat="42.9752514" lon="12.0895443"><ele>282.0</ele><time>2026-04-01T10:48:51.57Z</time></trkpt><trkpt lat="42.9754615" lon="12.0897246"><ele>282.0</ele><time>2026-04-01T10:48:52.569Z</time></trkpt><trkpt lat="42.9756801" lon="12.0898976"><ele>282.0</ele><time>2026-04-01T10:48:53.568Z</time></trkpt><trkpt lat="42.9759011" lon="12.0900795"><ele>282.0</ele><time>2026-04-01T10:48:54.57Z</time></trkpt><trkpt lat="42.976128" lon="12.0902573"><ele>282.0</ele><time>2026-04-01T10:48:55.57Z</time></trkpt><trkpt lat="42.9763425" lon="12.0904197"><ele>282.0</ele><time>2026-04-01T10:48:56.568Z</time></trkpt><trkpt lat="42.9765681" lon="12.090581"><ele>282.0</ele><time>2026-04-01T10:48:57.57Z</time></trkpt><trkpt lat="42.9767858" lon="12.0907608"><ele>282.0</ele><time>2026-04-01T10:48:58.57Z</time></trkpt><trkpt lat="42.9769821" lon="12.0909712"><ele>282.0</ele><time>2026-04-01T10:48:59.57Z</time></trkpt><trkpt lat="42.9771913" lon="12.0911837"><ele>282.0</ele><time>2026-04-01T10:49:00.57Z</time></trkpt><trkpt lat="42.9773909" lon="12.0914165"><ele>282.0</ele><time>2026-04-01T10:49:01.569Z</time></trkpt><trkpt lat="42.9775529" lon="12.0916641"><ele>281.0</ele><time>2026-04-01T10:49:02.569Z</time></trkpt><trkpt lat="42.9777479" lon="12.0919088"><ele>280.0</ele><time>2026-04-01T10:49:03.57Z</time></trkpt><trkpt lat="42.9779355" lon="12.0921382"><ele>280.0</ele><time>2026-04-01T10:49:04.57Z</time></trkpt><trkpt lat="42.9781291" lon="12.0923827"><ele>280.0</ele><time>2026-04-01T10:49:05.569Z</time></trkpt><trkpt lat="42.9783308" lon="12.0926178"><ele>282.0</ele><time>2026-04-01T10:49:06.569Z</time></trkpt><trkpt lat="42.9785536" lon="12.0928093"><ele>284.0</ele><time>2026-04-01T10:49:07.569Z</time></trkpt><trkpt lat="42.9787861" lon="12.0929611"><ele>284.0</ele><time>2026-04-01T10:49:08.569Z</time></trkpt><trkpt lat="42.9790258" lon="12.0930921"><ele>284.0</ele><time>2026-04-01T10:49:09.568Z</time></trkpt><trkpt lat="42.9792755" lon="12.0931831"><ele>281.5</ele><time>2026-04-01T10:49:10.568Z</time></trkpt><trkpt lat="42.9795259" lon="12.0932877"><ele>279.0</ele><time>2026-04-01T10:49:11.568Z</time></trkpt><trkpt lat="42.9797723" lon="12.0933938"><ele>277.5</ele><time>2026-04-01T10:49:12.568Z</time></trkpt><trkpt lat="42.980018" lon="12.0934985"><ele>276.0</ele><time>2026-04-01T10:49:13.568Z</time></trkpt><trkpt lat="42.9802671" lon="12.0936102"><ele>276.0</ele><time>2026-04-01T10:49:14.57Z</time></trkpt><trkpt lat="42.9805126" lon="12.0937284"><ele>276.0</ele><time>2026-04-01T10:49:15.569Z</time></trkpt><trkpt lat="42.9807532" lon="12.0938498"><ele>273.5</ele><time>2026-04-01T10:49:16.569Z</time></trkpt><trkpt lat="42.9809901" lon="12.0939892"><ele>271.0</ele><time>2026-04-01T10:49:17.569Z</time></trkpt><trkpt lat="42.9812194" lon="12.0941583"><ele>269.0</ele><time>2026-04-01T10:49:18.569Z</time></trkpt><trkpt lat="42.981444" lon="12.0943333"><ele>267.0</ele><time>2026-04-01T10:49:19.57Z</time></trkpt><trkpt lat="42.9816719" lon="12.0945116"><ele>271.0</ele><time>2026-04-01T10:49:20.569Z</time></trkpt><trkpt lat="42.9818971" lon="12.0947035"><ele>275.0</ele><time>2026-04-01T10:49:21.57Z</time></trkpt><trkpt lat="42.9821102" lon="12.0948882"><ele>271.0</ele><time>2026-04-01T10:49:22.569Z</time></trkpt><trkpt lat="42.982338" lon="12.0950634"><ele>267.0</ele><time>2026-04-01T10:49:23.569Z</time></trkpt><trkpt lat="42.9825626" lon="12.0952299"><ele>275.0</ele><time>2026-04-01T10:49:24.569Z</time></trkpt><trkpt lat="42.9827897" lon="12.0954213"><ele>283.0</ele><time>2026-04-01T10:49:25.568Z</time></trkpt><trkpt lat="42.9830145" lon="12.095609"><ele>283.0</ele><time>2026-04-01T10:49:26.569Z</time></trkpt><trkpt lat="42.9832315" lon="12.0957975"><ele>283.0</ele><time>2026-04-01T10:49:27.569Z</time></trkpt><trkpt lat="42.9834418" lon="12.0960111"><ele>283.0</ele><time>2026-04-01T10:49:28.569Z</time></trkpt><trkpt lat="42.9836291" lon="12.0962425"><ele>283.0</ele><time>2026-04-01T10:49:29.569Z</time></trkpt><trkpt lat="42.9838015" lon="12.0965034"><ele>275.5</ele><time>2026-04-01T10:49:30.57Z</time></trkpt><trkpt lat="42.9839579" lon="12.0967944"><ele>268.0</ele><time>2026-04-01T10:49:31.569Z</time></trkpt><trkpt lat="42.9840975" lon="12.097087"><ele>269.5</ele><time>2026-04-01T10:49:32.568Z</time></trkpt><trkpt lat="42.9842464" lon="12.0973616"><ele>271.0</ele><time>2026-04-01T10:49:33.57Z</time></trkpt><trkpt lat="42.9844212" lon="12.0976024"><ele>271.0</ele><time>2026-04-01T10:49:34.569Z</time></trkpt><trkpt lat="42.9846175" lon="12.0978145"><ele>271.0</ele><time>2026-04-01T10:49:35.57Z</time></trkpt><trkpt lat="42.9848284" lon="12.0980106"><ele>272.5</ele><time>2026-04-01T10:49:36.569Z</time></trkpt><trkpt lat="42.9850395" lon="12.0981996"><ele>274.0</ele><time>2026-04-01T10:49:37.57Z</time></trkpt><trkpt lat="42.9852304" lon="12.0984312"><ele>270.5</ele><time>2026-04-01T10:49:38.569Z</time></trkpt><trkpt lat="42.9854132" lon="12.0986761"><ele>267.0</ele><time>2026-04-01T10:49:39.569Z</time></trkpt><trkpt lat="42.9855697" lon="12.09895"><ele>267.0</ele><time>2026-04-01T10:49:40.57Z</time></trkpt><trkpt lat="42.9857146" lon="12.0992169"><ele>267.0</ele><time>2026-04-01T10:49:41.568Z</time></trkpt><trkpt lat="42.9858571" lon="12.0994694"><ele>267.0</ele><time>2026-04-01T10:49:42.568Z</time></trkpt><trkpt lat="42.9860161" lon="12.0996969"><ele>267.0</ele><time>2026-04-01T10:49:43.569Z</time></trkpt><trkpt lat="42.9861903" lon="12.0999008"><ele>264.5</ele><time>2026-04-01T10:49:44.569Z</time></trkpt><trkpt lat="42.9863834" lon="12.1000921"><ele>262.0</ele><time>2026-04-01T10:49:45.57Z</time></trkpt><trkpt lat="42.986582" lon="12.1002687"><ele>260.0</ele><time>2026-04-01T10:49:46.57Z</time></trkpt><trkpt lat="42.9867943" lon="12.1004351"><ele>258.0</ele><time>2026-04-01T10:49:47.569Z</time></trkpt><trkpt lat="42.9870079" lon="12.1005966"><ele>257.5</ele><time>2026-04-01T10:49:48.569Z</time></trkpt><trkpt lat="42.9872292" lon="12.1007673"><ele>257.0</ele><time>2026-04-01T10:49:49.569Z</time></trkpt><trkpt lat="42.98745" lon="12.1009387"><ele>257.0</ele><time>2026-04-01T10:49:50.569Z</time></trkpt><trkpt lat="42.9876647" lon="12.1011151"><ele>257.0</ele><time>2026-04-01T10:49:51.569Z</time></trkpt><trkpt lat="42.9878765" lon="12.1013118"><ele>257.0</ele><time>2026-04-01T10:49:52.569Z</time></trkpt><trkpt lat="42.9880604" lon="12.1015417"><ele>257.0</ele><time>2026-04-01T10:49:53.57Z</time></trkpt><trkpt lat="42.9882307" lon="12.1018116"><ele>258.0</ele><time>2026-04-01T10:49:54.57Z</time></trkpt><trkpt lat="42.9883798" lon="12.1020882"><ele>259.0</ele><time>2026-04-01T10:49:55.569Z</time></trkpt><trkpt lat="42.9885068" lon="12.1023947"><ele>258.0</ele><time>2026-04-01T10:49:56.568Z</time></trkpt><trkpt lat="42.9886207" lon="12.1026987"><ele>257.0</ele><time>2026-04-01T10:49:57.57Z</time></trkpt><trkpt lat="42.9887384" lon="12.1030255"><ele>255.5</ele><time>2026-04-01T10:49:58.57Z</time></trkpt><trkpt lat="42.988853" lon="12.1033467"><ele>254.0</ele><time>2026-04-01T10:49:59.569Z</time></trkpt><trkpt lat="42.9889671" lon="12.1036674"><ele>254.0</ele><time>2026-04-01T10:50:00.57Z</time></trkpt><trkpt lat="42.9890872" lon="12.1039948"><ele>254.0</ele><time>2026-04-01T10:50:01.569Z</time></trkpt><trkpt lat="42.9892078" lon="12.1043181"><ele>254.0</ele><time>2026-04-01T10:50:02.568Z</time></trkpt><trkpt lat="42.9893244" lon="12.1046337"><ele>254.0</ele><time>2026-04-01T10:50:03.569Z</time></trkpt><trkpt lat="42.9894422" lon="12.104962"><ele>254.0</ele><time>2026-04-01T10:50:04.569Z</time></trkpt><trkpt lat="42.9895543" lon="12.1052893"><ele>254.0</ele><time>2026-04-01T10:50:05.569Z</time></trkpt><trkpt lat="42.9896714" lon="12.1056066"><ele>253.0</ele><time>2026-04-01T10:50:06.569Z</time></trkpt><trkpt lat="42.9897837" lon="12.1059322"><ele>252.0</ele><time>2026-04-01T10:50:07.57Z</time></trkpt><trkpt lat="42.9899049" lon="12.1062512"><ele>253.0</ele><time>2026-04-01T10:50:08.569Z</time></trkpt><trkpt lat="42.9900192" lon="12.106572"><ele>254.0</ele><time>2026-04-01T10:50:09.568Z</time></trkpt><trkpt lat="42.9901313" lon="12.1068956"><ele>254.0</ele><time>2026-04-01T10:50:10.57Z</time></trkpt><trkpt lat="42.9902447" lon="12.107215"><ele>254.0</ele><time>2026-04-01T10:50:11.57Z</time></trkpt><trkpt lat="42.9903565" lon="12.107535"><ele>252.5</ele><time>2026-04-01T10:50:12.569Z</time></trkpt><trkpt lat="42.9904737" lon="12.107854"><ele>251.0</ele><time>2026-04-01T10:50:13.569Z</time></trkpt><trkpt lat="42.9905905" lon="12.1081739"><ele>251.0</ele><time>2026-04-01T10:50:14.569Z</time></trkpt><trkpt lat="42.9907127" lon="12.1084978"><ele>251.0</ele><time>2026-04-01T10:50:15.57Z</time></trkpt><trkpt lat="42.9908268" lon="12.1088231"><ele>249.5</ele><time>2026-04-01T10:50:16.569Z</time></trkpt><trkpt lat="42.9909411" lon="12.1091418"><ele>248.0</ele><time>2026-04-01T10:50:17.569Z</time></trkpt><trkpt lat="42.9910536" lon="12.1094665"><ele>248.0</ele><time>2026-04-01T10:50:18.57Z</time></trkpt><trkpt lat="42.9911634" lon="12.1097815"><ele>248.0</ele><time>2026-04-01T10:50:19.57Z</time></trkpt><trkpt lat="42.9912653" lon="12.1101036"><ele>247.0</ele><time>2026-04-01T10:50:20.57Z</time></trkpt><trkpt lat="42.9913686" lon="12.1104287"><ele>246.0</ele><time>2026-04-01T10:50:21.57Z</time></trkpt><trkpt lat="42.9914639" lon="12.1107551"><ele>245.0</ele><time>2026-04-01T10:50:22.569Z</time></trkpt><trkpt lat="42.9915426" lon="12.1110996"><ele>244.0</ele><time>2026-04-01T10:50:23.569Z</time></trkpt><trkpt lat="42.9916066" lon="12.1114409"><ele>244.0</ele><time>2026-04-01T10:50:24.569Z</time></trkpt><trkpt lat="42.9916575" lon="12.1117632"><ele>244.0</ele><time>2026-04-01T10:50:25.569Z</time></trkpt><trkpt lat="42.9916886" lon="12.1120697"><ele>244.0</ele><time>2026-04-01T10:50:26.568Z</time></trkpt><trkpt lat="42.9917178" lon="12.1123542"><ele>244.0</ele><time>2026-04-01T10:50:27.568Z</time></trkpt><trkpt lat="42.9917357" lon="12.1126157"><ele>244.0</ele><time>2026-04-01T10:50:28.571Z</time></trkpt><trkpt lat="42.9917321" lon="12.1128403"><ele>244.0</ele><time>2026-04-01T10:50:29.568Z</time></trkpt><trkpt lat="42.9917119" lon="12.1130638"><ele>244.0</ele><time>2026-04-01T10:50:30.569Z</time></trkpt><trkpt lat="42.9916664" lon="12.1132402"><ele>244.0</ele><time>2026-04-01T10:50:31.569Z</time></trkpt><trkpt lat="42.9916156" lon="12.1134243"><ele>244.0</ele><time>2026-04-01T10:50:32.568Z</time></trkpt><trkpt lat="42.9915685" lon="12.1135976"><ele>244.0</ele><time>2026-04-01T10:50:33.569Z</time></trkpt><trkpt lat="42.9915558" lon="12.1137738"><ele>244.0</ele><time>2026-04-01T10:50:34.57Z</time></trkpt><trkpt lat="42.9915852" lon="12.1139436"><ele>244.0</ele><time>2026-04-01T10:50:35.57Z</time></trkpt><trkpt lat="42.9916258" lon="12.1140931"><ele>244.0</ele><time>2026-04-01T10:50:36.57Z</time></trkpt><trkpt lat="42.9917452" lon="12.1142211"><ele>243.33333333333331</ele><time>2026-04-01T10:50:37.57Z</time></trkpt><trkpt lat="42.9918586" lon="12.114371"><ele>242.66666666666669</ele><time>2026-04-01T10:50:38.571Z</time></trkpt><trkpt lat="42.9919628" lon="12.1145567"><ele>242.0</ele><time>2026-04-01T10:50:39.569Z</time></trkpt><trkpt lat="42.9920556" lon="12.1147733"><ele>242.33333333333334</ele><time>2026-04-01T10:50:40.57Z</time></trkpt><trkpt lat="42.9921358" lon="12.1150278"><ele>242.66666666666669</ele><time>2026-04-01T10:50:41.569Z</time></trkpt><trkpt lat="42.9922215" lon="12.1152921"><ele>243.0</ele><time>2026-04-01T10:50:42.569Z</time></trkpt><trkpt lat="42.992302" lon="12.1155673"><ele>244.0</ele><time>2026-04-01T10:50:43.571Z</time></trkpt><trkpt lat="42.9923854" lon="12.1158528"><ele>245.0</ele><time>2026-04-01T10:50:44.568Z</time></trkpt><trkpt lat="42.992476" lon="12.1161466"><ele>245.5</ele><time>2026-04-01T10:50:45.57Z</time></trkpt><trkpt lat="42.9925606" lon="12.1164461"><ele>246.0</ele><time>2026-04-01T10:50:46.569Z</time></trkpt><trkpt lat="42.9926505" lon="12.1167699"><ele>246.0</ele><time>2026-04-01T10:50:47.57Z</time></trkpt><trkpt lat="42.9927538" lon="12.1170746"><ele>246.0</ele><time>2026-04-01T10:50:48.569Z</time></trkpt><trkpt lat="42.9928699" lon="12.1173734"><ele>245.0</ele><time>2026-04-01T10:50:49.569Z</time></trkpt><trkpt lat="42.9929993" lon="12.117666"><ele>244.0</ele><time>2026-04-01T10:50:50.571Z</time></trkpt><trkpt lat="42.9931412" lon="12.1179478"><ele>243.5</ele><time>2026-04-01T10:50:51.57Z</time></trkpt><trkpt lat="42.9932959" lon="12.1182372"><ele>243.0</ele><time>2026-04-01T10:50:52.57Z</time></trkpt><trkpt lat="42.9934522" lon="12.1185136"><ele>243.0</ele><time>2026-04-01T10:50:53.571Z</time></trkpt><trkpt lat="42.9936264" lon="12.1187903"><ele>243.0</ele><time>2026-04-01T10:50:54.569Z</time></trkpt><trkpt lat="42.9937865" lon="12.1190653"><ele>243.0</ele><time>2026-04-01T10:50:55.57Z</time></trkpt><trkpt lat="42.9939451" lon="12.1193371"><ele>243.0</ele><time>2026-04-01T10:50:56.57Z</time></trkpt><trkpt lat="42.9940979" lon="12.1196125"><ele>243.0</ele><time>2026-04-01T10:50:57.568Z</time></trkpt><trkpt lat="42.9942698" lon="12.119888"><ele>243.0</ele><time>2026-04-01T10:50:58.569Z</time></trkpt><trkpt lat="42.9944348" lon="12.1201558"><ele>242.5</ele><time>2026-04-01T10:50:59.57Z</time></trkpt><trkpt lat="42.9946007" lon="12.1204268"><ele>242.0</ele><time>2026-04-01T10:51:00.57Z</time></trkpt><trkpt lat="42.9947741" lon="12.1207067"><ele>242.0</ele><time>2026-04-01T10:51:01.57Z</time></trkpt><trkpt lat="42.9949273" lon="12.1209927"><ele>242.0</ele><time>2026-04-01T10:51:02.571Z</time></trkpt><trkpt lat="42.9950643" lon="12.1212881"><ele>241.0</ele><time>2026-04-01T10:51:03.57Z</time></trkpt><trkpt lat="42.995189" lon="12.1215938"><ele>240.0</ele><time>2026-04-01T10:51:04.57Z</time></trkpt><trkpt lat="42.9953016" lon="12.1219192"><ele>240.0</ele><time>2026-04-01T10:51:05.569Z</time></trkpt><trkpt lat="42.9953973" lon="12.1222514"><ele>240.0</ele><time>2026-04-01T10:51:06.569Z</time></trkpt><trkpt lat="42.9954717" lon="12.1225918"><ele>240.0</ele><time>2026-04-01T10:51:07.569Z</time></trkpt><trkpt lat="42.9955324" lon="12.1229404"><ele>240.0</ele><time>2026-04-01T10:51:08.568Z</time></trkpt><trkpt lat="42.995587" lon="12.1232903"><ele>240.5</ele><time>2026-04-01T10:51:09.57Z</time></trkpt><trkpt lat="42.9956427" lon="12.1236382"><ele>241.0</ele><time>2026-04-01T10:51:10.569Z</time></trkpt><trkpt lat="42.9957005" lon="12.12399"><ele>241.5</ele><time>2026-04-01T10:51:11.569Z</time></trkpt><trkpt lat="42.9957565" lon="12.1243423"><ele>242.0</ele><time>2026-04-01T10:51:12.57Z</time></trkpt><trkpt lat="42.9958119" lon="12.124696"><ele>239.0</ele><time>2026-04-01T10:51:13.569Z</time></trkpt><trkpt lat="42.9958632" lon="12.1250486"><ele>236.0</ele><time>2026-04-01T10:51:14.571Z</time></trkpt><trkpt lat="42.9959153" lon="12.1253992"><ele>236.0</ele><time>2026-04-01T10:51:15.57Z</time></trkpt><trkpt lat="42.9959658" lon="12.1257505"><ele>236.0</ele><time>2026-04-01T10:51:16.571Z</time></trkpt><trkpt lat="42.9960234" lon="12.1260988"><ele>236.0</ele><time>2026-04-01T10:51:17.57Z</time></trkpt><trkpt lat="42.9960747" lon="12.1264428"><ele>236.0</ele><time>2026-04-01T10:51:18.57Z</time></trkpt><trkpt lat="42.9961308" lon="12.1267867"><ele>236.5</ele><time>2026-04-01T10:51:19.57Z</time></trkpt><trkpt lat="42.9961874" lon="12.127145"><ele>237.0</ele><time>2026-04-01T10:51:20.568Z</time></trkpt><trkpt lat="42.9962339" lon="12.1274883"><ele>237.5</ele><time>2026-04-01T10:51:21.57Z</time></trkpt><trkpt lat="42.9962906" lon="12.1278402"><ele>238.0</ele><time>2026-04-01T10:51:22.571Z</time></trkpt><trkpt lat="42.9963438" lon="12.1281932"><ele>237.5</ele><time>2026-04-01T10:51:23.569Z</time></trkpt><trkpt lat="42.9963942" lon="12.1285458"><ele>237.0</ele><time>2026-04-01T10:51:24.569Z</time></trkpt><trkpt lat="42.9964506" lon="12.1289038"><ele>236.5</ele><time>2026-04-01T10:51:25.57Z</time></trkpt><trkpt lat="42.9965025" lon="12.1292607"><ele>236.0</ele><time>2026-04-01T10:51:26.569Z</time></trkpt><trkpt lat="42.9965585" lon="12.1296208"><ele>236.0</ele><time>2026-04-01T10:51:27.569Z</time></trkpt><trkpt lat="42.996614" lon="12.1299676"><ele>236.0</ele><time>2026-04-01T10:51:28.57Z</time></trkpt><trkpt lat="42.996668" lon="12.1303163"><ele>235.5</ele><time>2026-04-01T10:51:29.57Z</time></trkpt><trkpt lat="42.9967172" lon="12.1306612"><ele>235.0</ele><time>2026-04-01T10:51:30.569Z</time></trkpt><trkpt lat="42.9967675" lon="12.1310052"><ele>235.0</ele><time>2026-04-01T10:51:31.57Z</time></trkpt><trkpt lat="42.9968225" lon="12.1313516"><ele>235.0</ele><time>2026-04-01T10:51:32.571Z</time></trkpt><trkpt lat="42.9968783" lon="12.1316997"><ele>235.0</ele><time>2026-04-01T10:51:33.57Z</time></trkpt><trkpt lat="42.996932" lon="12.1320458"><ele>235.0</ele><time>2026-04-01T10:51:34.57Z</time></trkpt><trkpt lat="42.996987" lon="12.1323927"><ele>235.0</ele><time>2026-04-01T10:51:35.571Z</time></trkpt><trkpt lat="42.9970366" lon="12.132734"><ele>235.0</ele><time>2026-04-01T10:51:36.569Z</time></trkpt><trkpt lat="42.997087" lon="12.1330834"><ele>235.0</ele><time>2026-04-01T10:51:37.569Z</time></trkpt><trkpt lat="42.9971311" lon="12.1334256"><ele>235.0</ele><time>2026-04-01T10:51:38.57Z</time></trkpt><trkpt lat="42.9971805" lon="12.1337705"><ele>234.5</ele><time>2026-04-01T10:51:39.571Z</time></trkpt><trkpt lat="42.9972318" lon="12.1341193"><ele>234.0</ele><time>2026-04-01T10:51:40.57Z</time></trkpt><trkpt lat="42.9972835" lon="12.134468"><ele>234.0</ele><time>2026-04-01T10:51:41.571Z</time></trkpt><trkpt lat="42.9973315" lon="12.1348103"><ele>234.0</ele><time>2026-04-01T10:51:42.57Z</time></trkpt><trkpt lat="42.9973863" lon="12.1351563"><ele>234.0</ele><time>2026-04-01T10:51:43.571Z</time></trkpt><trkpt lat="42.997437" lon="12.1355066"><ele>234.0</ele><time>2026-04-01T10:51:44.57Z</time></trkpt><trkpt lat="42.9974905" lon="12.1358559"><ele>234.0</ele><time>2026-04-01T10:51:45.57Z</time></trkpt><trkpt lat="42.9975463" lon="12.136213"><ele>234.0</ele><time>2026-04-01T10:51:46.568Z</time></trkpt><trkpt lat="42.9975983" lon="12.1365644"><ele>234.0</ele><time>2026-04-01T10:51:47.57Z</time></trkpt><trkpt lat="42.9976488" lon="12.1369125"><ele>234.0</ele><time>2026-04-01T10:51:48.57Z</time></trkpt><trkpt lat="42.9976978" lon="12.1372581"><ele>234.5</ele><time>2026-04-01T10:51:49.569Z</time></trkpt><trkpt lat="42.9977497" lon="12.1376121"><ele>235.0</ele><time>2026-04-01T10:51:50.57Z</time></trkpt><trkpt lat="42.9978014" lon="12.137966"><ele>234.5</ele><time>2026-04-01T10:51:51.571Z</time></trkpt><trkpt lat="42.9978502" lon="12.1383148"><ele>234.0</ele><time>2026-04-01T10:51:52.569Z</time></trkpt><trkpt lat="42.997904" lon="12.1386656"><ele>234.0</ele><time>2026-04-01T10:51:53.57Z</time></trkpt><trkpt lat="42.9979566" lon="12.1390148"><ele>234.0</ele><time>2026-04-01T10:51:54.569Z</time></trkpt><trkpt lat="42.9980082" lon="12.1393621"><ele>233.5</ele><time>2026-04-01T10:51:55.57Z</time></trkpt><trkpt lat="42.9980612" lon="12.1397056"><ele>233.0</ele><time>2026-04-01T10:51:56.57Z</time></trkpt><trkpt lat="42.9981063" lon="12.1400497"><ele>233.5</ele><time>2026-04-01T10:51:57.569Z</time></trkpt><trkpt lat="42.9981418" lon="12.1403999"><ele>234.0</ele><time>2026-04-01T10:51:58.569Z</time></trkpt><trkpt lat="42.9981733" lon="12.1407552"><ele>234.0</ele><time>2026-04-01T10:51:59.57Z</time></trkpt><trkpt lat="42.9982045" lon="12.1411131"><ele>234.0</ele><time>2026-04-01T10:52:00.57Z</time></trkpt><trkpt lat="42.9982349" lon="12.1414681"><ele>234.0</ele><time>2026-04-01T10:52:01.568Z</time></trkpt><trkpt lat="42.998257" lon="12.1418203"><ele>234.0</ele><time>2026-04-01T10:52:02.569Z</time></trkpt><trkpt lat="42.9982697" lon="12.1421761"><ele>233.5</ele><time>2026-04-01T10:52:03.57Z</time></trkpt><trkpt lat="42.9982787" lon="12.1425291"><ele>233.0</ele><time>2026-04-01T10:52:04.57Z</time></trkpt><trkpt lat="42.9982991" lon="12.1428838"><ele>233.0</ele><time>2026-04-01T10:52:05.57Z</time></trkpt><trkpt lat="42.998319" lon="12.1432357"><ele>233.0</ele><time>2026-04-01T10:52:06.57Z</time></trkpt><trkpt lat="42.9983354" lon="12.1435934"><ele>233.5</ele><time>2026-04-01T10:52:07.571Z</time></trkpt><trkpt lat="42.9983436" lon="12.1439441"><ele>234.0</ele><time>2026-04-01T10:52:08.57Z</time></trkpt><trkpt lat="42.9983533" lon="12.1443006"><ele>234.0</ele><time>2026-04-01T10:52:09.569Z</time></trkpt><trkpt lat="42.99836" lon="12.1446486"><ele>234.0</ele><time>2026-04-01T10:52:10.569Z</time></trkpt><trkpt lat="42.9983677" lon="12.145005"><ele>232.5</ele><time>2026-04-01T10:52:11.57Z</time></trkpt><trkpt lat="42.9983742" lon="12.1453644"><ele>231.0</ele><time>2026-04-01T10:52:12.571Z</time></trkpt><trkpt lat="42.998381" lon="12.1457281"><ele>230.5</ele><time>2026-04-01T10:52:13.569Z</time></trkpt><trkpt lat="42.9983862" lon="12.1460873"><ele>230.0</ele><time>2026-04-01T10:52:14.571Z</time></trkpt><trkpt lat="42.9983934" lon="12.1464481"><ele>231.5</ele><time>2026-04-01T10:52:15.57Z</time></trkpt><trkpt lat="42.9984032" lon="12.1468028"><ele>233.0</ele><time>2026-04-01T10:52:16.57Z</time></trkpt><trkpt lat="42.998418" lon="12.1471578"><ele>232.0</ele><time>2026-04-01T10:52:17.569Z</time></trkpt><trkpt lat="42.998424" lon="12.1475186"><ele>231.0</ele><time>2026-04-01T10:52:18.569Z</time></trkpt><trkpt lat="42.9984346" lon="12.1478769"><ele>231.0</ele><time>2026-04-01T10:52:19.569Z</time></trkpt><trkpt lat="42.9984416" lon="12.1482201"><ele>231.0</ele><time>2026-04-01T10:52:20.57Z</time></trkpt><trkpt lat="42.9984477" lon="12.148561"><ele>231.0</ele><time>2026-04-01T10:52:21.569Z</time></trkpt><trkpt lat="42.9984574" lon="12.1489154"><ele>231.0</ele><time>2026-04-01T10:52:22.569Z</time></trkpt><trkpt lat="42.998467" lon="12.1492701"><ele>230.5</ele><time>2026-04-01T10:52:23.571Z</time></trkpt><trkpt lat="42.998481" lon="12.1496261"><ele>230.0</ele><time>2026-04-01T10:52:24.571Z</time></trkpt><trkpt lat="42.998495" lon="12.1499864"><ele>229.5</ele><time>2026-04-01T10:52:25.57Z</time></trkpt><trkpt lat="42.9985091" lon="12.1503444"><ele>229.0</ele><time>2026-04-01T10:52:26.57Z</time></trkpt><trkpt lat="42.9985218" lon="12.1506881"><ele>230.0</ele><time>2026-04-01T10:52:27.571Z</time></trkpt><trkpt lat="42.998527" lon="12.1510439"><ele>231.0</ele><time>2026-04-01T10:52:28.569Z</time></trkpt><trkpt lat="42.9985411" lon="12.1513934"><ele>230.5</ele><time>2026-04-01T10:52:29.57Z</time></trkpt><trkpt lat="42.9985661" lon="12.1517481"><ele>230.0</ele><time>2026-04-01T10:52:30.569Z</time></trkpt><trkpt lat="42.9985965" lon="12.1521036"><ele>229.5</ele><time>2026-04-01T10:52:31.57Z</time></trkpt><trkpt lat="42.9986282" lon="12.1524533"><ele>229.0</ele><time>2026-04-01T10:52:32.569Z</time></trkpt><trkpt lat="42.9986659" lon="12.1528059"><ele>229.0</ele><time>2026-04-01T10:52:33.571Z</time></trkpt><trkpt lat="42.99871" lon="12.1531528"><ele>229.0</ele><time>2026-04-01T10:52:34.571Z</time></trkpt><trkpt lat="42.9987599" lon="12.1534988"><ele>229.0</ele><time>2026-04-01T10:52:35.571Z</time></trkpt><trkpt lat="42.9988166" lon="12.1538436"><ele>229.0</ele><time>2026-04-01T10:52:36.57Z</time></trkpt><trkpt lat="42.9988778" lon="12.1541896"><ele>229.0</ele><time>2026-04-01T10:52:37.57Z</time></trkpt><trkpt lat="42.9989502" lon="12.1545263"><ele>229.0</ele><time>2026-04-01T10:52:38.571Z</time></trkpt><trkpt lat="42.999021" lon="12.1548692"><ele>229.0</ele><time>2026-04-01T10:52:39.57Z</time></trkpt><trkpt lat="42.9990945" lon="12.1552126"><ele>229.0</ele><time>2026-04-01T10:52:40.571Z</time></trkpt><trkpt lat="42.9991865" lon="12.1555454"><ele>229.5</ele><time>2026-04-01T10:52:41.569Z</time></trkpt><trkpt lat="42.9992714" lon="12.1558668"><ele>230.0</ele><time>2026-04-01T10:52:42.57Z</time></trkpt><trkpt lat="42.9993516" lon="12.1561611"><ele>230.0</ele><time>2026-04-01T10:52:43.571Z</time></trkpt><trkpt lat="42.9994302" lon="12.1564427"><ele>230.0</ele><time>2026-04-01T10:52:44.57Z</time></trkpt><trkpt lat="42.9995029" lon="12.1567024"><ele>230.0</ele><time>2026-04-01T10:52:45.57Z</time></trkpt><trkpt lat="42.9995732" lon="12.1569629"><ele>229.66666666666669</ele><time>2026-04-01T10:52:46.569Z</time></trkpt><trkpt lat="42.9996471" lon="12.157219"><ele>229.33333333333331</ele><time>2026-04-01T10:52:47.57Z</time></trkpt><trkpt lat="42.9997207" lon="12.1574816"><ele>229.0</ele><time>2026-04-01T10:52:48.569Z</time></trkpt><trkpt lat="42.9997933" lon="12.1577469"><ele>229.0</ele><time>2026-04-01T10:52:49.57Z</time></trkpt><trkpt lat="42.9998668" lon="12.1580061"><ele>229.0</ele><time>2026-04-01T10:52:50.57Z</time></trkpt><trkpt lat="42.9999414" lon="12.1582684"><ele>229.0</ele><time>2026-04-01T10:52:51.569Z</time></trkpt><trkpt lat="43.0000197" lon="12.158532"><ele>229.33333333333331</ele><time>2026-04-01T10:52:52.571Z</time></trkpt><trkpt lat="43.0000949" lon="12.1587873"><ele>229.66666666666669</ele><time>2026-04-01T10:52:53.57Z</time></trkpt><trkpt lat="43.0001689" lon="12.1590408"><ele>230.0</ele><time>2026-04-01T10:52:54.57Z</time></trkpt><trkpt lat="43.0002413" lon="12.1592993"><ele>230.0</ele><time>2026-04-01T10:52:55.571Z</time></trkpt><trkpt lat="43.0003121" lon="12.1595592"><ele>230.0</ele><time>2026-04-01T10:52:56.57Z</time></trkpt><trkpt lat="43.0003861" lon="12.1598221"><ele>230.0</ele><time>2026-04-01T10:52:57.57Z</time></trkpt><trkpt lat="43.000461" lon="12.1600781"><ele>230.0</ele><time>2026-04-01T10:52:58.57Z</time></trkpt><trkpt lat="43.0005361" lon="12.1603367"><ele>230.0</ele><time>2026-04-01T10:52:59.571Z</time></trkpt><trkpt lat="43.0006125" lon="12.1605781"><ele>230.0</ele><time>2026-04-01T10:53:00.571Z</time></trkpt><trkpt lat="43.000688" lon="12.1608402"><ele>230.0</ele><time>2026-04-01T10:53:01.569Z</time></trkpt><trkpt lat="43.0007641" lon="12.1611017"><ele>230.0</ele><time>2026-04-01T10:53:02.57Z</time></trkpt><trkpt lat="43.0008357" lon="12.1613614"><ele>230.0</ele><time>2026-04-01T10:53:03.57Z</time></trkpt><trkpt lat="43.0009099" lon="12.1616205"><ele>230.0</ele><time>2026-04-01T10:53:04.571Z</time></trkpt><trkpt lat="43.000984" lon="12.1618806"><ele>230.0</ele><time>2026-04-01T10:53:05.571Z</time></trkpt><trkpt lat="43.0010587" lon="12.1621419"><ele>230.0</ele><time>2026-04-01T10:53:06.57Z</time></trkpt><trkpt lat="43.0011293" lon="12.1624039"><ele>229.66666666666669</ele><time>2026-04-01T10:53:07.57Z</time></trkpt><trkpt lat="43.0012028" lon="12.1626633"><ele>229.33333333333331</ele><time>2026-04-01T10:53:08.57Z</time></trkpt><trkpt lat="43.0012711" lon="12.1629213"><ele>229.0</ele><time>2026-04-01T10:53:09.571Z</time></trkpt><trkpt lat="43.0013417" lon="12.1631848"><ele>228.33333333333331</ele><time>2026-04-01T10:53:10.57Z</time></trkpt><trkpt lat="43.0014175" lon="12.1634493"><ele>227.66666666666669</ele><time>2026-04-01T10:53:11.57Z</time></trkpt><trkpt lat="43.0014955" lon="12.1637181"><ele>227.0</ele><time>2026-04-01T10:53:12.571Z</time></trkpt><trkpt lat="43.0015728" lon="12.1639917"><ele>226.66666666666669</ele><time>2026-04-01T10:53:13.57Z</time></trkpt><trkpt lat="43.0016479" lon="12.1642661"><ele>226.33333333333331</ele><time>2026-04-01T10:53:14.57Z</time></trkpt><trkpt lat="43.0017274" lon="12.1645499"><ele>226.0</ele><time>2026-04-01T10:53:15.57Z</time></trkpt><trkpt lat="43.0018091" lon="12.1648309"><ele>226.5</ele><time>2026-04-01T10:53:16.57Z</time></trkpt><trkpt lat="43.0018943" lon="12.1651153"><ele>227.0</ele><time>2026-04-01T10:53:17.57Z</time></trkpt><trkpt lat="43.0019786" lon="12.1654003"><ele>227.0</ele><time>2026-04-01T10:53:18.57Z</time></trkpt><trkpt lat="43.0020645" lon="12.1656849"><ele>227.0</ele><time>2026-04-01T10:53:19.57Z</time></trkpt><trkpt lat="43.0021459" lon="12.1659778"><ele>227.5</ele><time>2026-04-01T10:53:20.571Z</time></trkpt><trkpt lat="43.0022256" lon="12.166266"><ele>228.0</ele><time>2026-04-01T10:53:21.57Z</time></trkpt><trkpt lat="43.0023069" lon="12.1665531"><ele>227.0</ele><time>2026-04-01T10:53:22.57Z</time></trkpt><trkpt lat="43.0023889" lon="12.1668465"><ele>226.0</ele><time>2026-04-01T10:53:23.57Z</time></trkpt><trkpt lat="43.0024689" lon="12.1671323"><ele>225.5</ele><time>2026-04-01T10:53:24.57Z</time></trkpt><trkpt lat="43.002548" lon="12.1674223"><ele>225.0</ele><time>2026-04-01T10:53:25.57Z</time></trkpt><trkpt lat="43.0026331" lon="12.1677089"><ele>225.0</ele><time>2026-04-01T10:53:26.57Z</time></trkpt><trkpt lat="43.0027162" lon="12.1679946"><ele>225.0</ele><time>2026-04-01T10:53:27.57Z</time></trkpt><trkpt lat="43.002798" lon="12.1682806"><ele>225.0</ele><time>2026-04-01T10:53:28.57Z</time></trkpt><trkpt lat="43.0028784" lon="12.1685713"><ele>225.0</ele><time>2026-04-01T10:53:29.57Z</time></trkpt><trkpt lat="43.0029599" lon="12.1688549"><ele>225.0</ele><time>2026-04-01T10:53:30.57Z</time></trkpt><trkpt lat="43.0030359" lon="12.1691391"><ele>225.0</ele><time>2026-04-01T10:53:31.57Z</time></trkpt><trkpt lat="43.0031122" lon="12.1694254"><ele>225.0</ele><time>2026-04-01T10:53:32.57Z</time></trkpt><trkpt lat="43.0031918" lon="12.1697137"><ele>225.0</ele><time>2026-04-01T10:53:33.571Z</time></trkpt><trkpt lat="43.0032738" lon="12.1700065"><ele>224.66666666666669</ele><time>2026-04-01T10:53:34.569Z</time></trkpt><trkpt lat="43.0033557" lon="12.1702941"><ele>224.33333333333334</ele><time>2026-04-01T10:53:35.57Z</time></trkpt><trkpt lat="43.0034382" lon="12.1705769"><ele>224.0</ele><time>2026-04-01T10:53:36.569Z</time></trkpt><trkpt lat="43.0035265" lon="12.1708562"><ele>224.0</ele><time>2026-04-01T10:53:37.571Z</time></trkpt><trkpt lat="43.0036079" lon="12.1711453"><ele>224.0</ele><time>2026-04-01T10:53:38.569Z</time></trkpt><trkpt lat="43.0036886" lon="12.1714268"><ele>224.0</ele><time>2026-04-01T10:53:39.571Z</time></trkpt><trkpt lat="43.0037831" lon="12.1717216"><ele>224.0</ele><time>2026-04-01T10:53:40.57Z</time></trkpt><trkpt lat="43.0038645" lon="12.1720089"><ele>224.0</ele><time>2026-04-01T10:53:41.57Z</time></trkpt><trkpt lat="43.0039471" lon="12.1722988"><ele>224.0</ele><time>2026-04-01T10:53:42.57Z</time></trkpt><trkpt lat="43.0040305" lon="12.1725811"><ele>224.0</ele><time>2026-04-01T10:53:43.571Z</time></trkpt><trkpt lat="43.0041133" lon="12.1728678"><ele>224.0</ele><time>2026-04-01T10:53:44.569Z</time></trkpt><trkpt lat="43.0041911" lon="12.1731511"><ele>225.0</ele><time>2026-04-01T10:53:45.572Z</time></trkpt><trkpt lat="43.0042724" lon="12.1734358"><ele>226.0</ele><time>2026-04-01T10:53:46.57Z</time></trkpt><trkpt lat="43.0043488" lon="12.173725"><ele>227.0</ele><time>2026-04-01T10:53:47.569Z</time></trkpt><trkpt lat="43.0044253" lon="12.1740137"><ele>226.5</ele><time>2026-04-01T10:53:48.57Z</time></trkpt><trkpt lat="43.0045074" lon="12.174303"><ele>226.0</ele><time>2026-04-01T10:53:49.57Z</time></trkpt><trkpt lat="43.0045868" lon="12.174596"><ele>226.0</ele><time>2026-04-01T10:53:50.569Z</time></trkpt><trkpt lat="43.0046649" lon="12.1748818"><ele>226.0</ele><time>2026-04-01T10:53:51.569Z</time></trkpt><trkpt lat="43.0047458" lon="12.1751666"><ele>226.0</ele><time>2026-04-01T10:53:52.57Z</time></trkpt><trkpt lat="43.0048301" lon="12.1754573"><ele>225.33333333333331</ele><time>2026-04-01T10:53:53.57Z</time></trkpt><trkpt lat="43.0049116" lon="12.1757386"><ele>224.66666666666669</ele><time>2026-04-01T10:53:54.571Z</time></trkpt><trkpt lat="43.0049939" lon="12.1760275"><ele>224.0</ele><time>2026-04-01T10:53:55.571Z</time></trkpt><trkpt lat="43.0050771" lon="12.1763135"><ele>223.5</ele><time>2026-04-01T10:53:56.57Z</time></trkpt><trkpt lat="43.0051571" lon="12.1765995"><ele>223.0</ele><time>2026-04-01T10:53:57.57Z</time></trkpt><trkpt lat="43.005237" lon="12.1768906"><ele>223.0</ele><time>2026-04-01T10:53:58.57Z</time></trkpt><trkpt lat="43.005314" lon="12.1771777"><ele>223.0</ele><time>2026-04-01T10:53:59.57Z</time></trkpt><trkpt lat="43.0053939" lon="12.1774652"><ele>223.0</ele><time>2026-04-01T10:54:00.57Z</time></trkpt><trkpt lat="43.005476" lon="12.1777489"><ele>223.0</ele><time>2026-04-01T10:54:01.57Z</time></trkpt><trkpt lat="43.0055602" lon="12.1780328"><ele>223.0</ele><time>2026-04-01T10:54:02.57Z</time></trkpt><trkpt lat="43.0056459" lon="12.1783202"><ele>223.0</ele><time>2026-04-01T10:54:03.571Z</time></trkpt><trkpt lat="43.0057296" lon="12.1786091"><ele>223.0</ele><time>2026-04-01T10:54:04.57Z</time></trkpt><trkpt lat="43.0058156" lon="12.1789059"><ele>220.5</ele><time>2026-04-01T10:54:05.57Z</time></trkpt><trkpt lat="43.0059122" lon="12.179191"><ele>218.0</ele><time>2026-04-01T10:54:06.57Z</time></trkpt><trkpt lat="43.0059981" lon="12.1794998"><ele>218.0</ele><time>2026-04-01T10:54:07.571Z</time></trkpt><trkpt lat="43.0060854" lon="12.1798059"><ele>218.0</ele><time>2026-04-01T10:54:08.571Z</time></trkpt><trkpt lat="43.006173" lon="12.180124"><ele>218.5</ele><time>2026-04-01T10:54:09.57Z</time></trkpt><trkpt lat="43.0062661" lon="12.1804483"><ele>219.0</ele><time>2026-04-01T10:54:10.571Z</time></trkpt><trkpt lat="43.0063629" lon="12.1807682"><ele>219.5</ele><time>2026-04-01T10:54:11.571Z</time></trkpt><trkpt lat="43.0064553" lon="12.1811005"><ele>220.0</ele><time>2026-04-01T10:54:12.572Z</time></trkpt><trkpt lat="43.0065507" lon="12.1814329"><ele>221.0</ele><time>2026-04-01T10:54:13.57Z</time></trkpt><trkpt lat="43.006645" lon="12.1817688"><ele>222.0</ele><time>2026-04-01T10:54:14.571Z</time></trkpt><trkpt lat="43.0067371" lon="12.1821022"><ele>223.0</ele><time>2026-04-01T10:54:15.57Z</time></trkpt><trkpt lat="43.0068278" lon="12.1824349"><ele>224.0</ele><time>2026-04-01T10:54:16.57Z</time></trkpt><trkpt lat="43.0069165" lon="12.1827657"><ele>224.0</ele><time>2026-04-01T10:54:17.571Z</time></trkpt><trkpt lat="43.007003" lon="12.1831014"><ele>224.0</ele><time>2026-04-01T10:54:18.571Z</time></trkpt><trkpt lat="43.0070968" lon="12.1834367"><ele>223.0</ele><time>2026-04-01T10:54:19.569Z</time></trkpt><trkpt lat="43.0071858" lon="12.183762"><ele>222.0</ele><time>2026-04-01T10:54:20.572Z</time></trkpt><trkpt lat="43.0072844" lon="12.1840931"><ele>221.5</ele><time>2026-04-01T10:54:21.572Z</time></trkpt><trkpt lat="43.0073749" lon="12.1844243"><ele>221.0</ele><time>2026-04-01T10:54:22.57Z</time></trkpt><trkpt lat="43.0074692" lon="12.1847621"><ele>221.5</ele><time>2026-04-01T10:54:23.571Z</time></trkpt><trkpt lat="43.0075568" lon="12.1850984"><ele>222.0</ele><time>2026-04-01T10:54:24.571Z</time></trkpt><trkpt lat="43.0076568" lon="12.1854382"><ele>222.5</ele><time>2026-04-01T10:54:25.571Z</time></trkpt><trkpt lat="43.0077384" lon="12.1857695"><ele>223.0</ele><time>2026-04-01T10:54:26.57Z</time></trkpt><trkpt lat="43.0078246" lon="12.1861017"><ele>223.0</ele><time>2026-04-01T10:54:27.571Z</time></trkpt><trkpt lat="43.0079006" lon="12.186434"><ele>223.0</ele><time>2026-04-01T10:54:28.571Z</time></trkpt><trkpt lat="43.0079743" lon="12.1867705"><ele>223.0</ele><time>2026-04-01T10:54:29.571Z</time></trkpt><trkpt lat="43.0080391" lon="12.1871013"><ele>223.0</ele><time>2026-04-01T10:54:30.571Z</time></trkpt><trkpt lat="43.0081019" lon="12.1874446"><ele>223.5</ele><time>2026-04-01T10:54:31.571Z</time></trkpt><trkpt lat="43.0081757" lon="12.187788"><ele>224.0</ele><time>2026-04-01T10:54:32.57Z</time></trkpt><trkpt lat="43.0082428" lon="12.1881263"><ele>224.0</ele><time>2026-04-01T10:54:33.571Z</time></trkpt><trkpt lat="43.0083096" lon="12.1884669"><ele>224.0</ele><time>2026-04-01T10:54:34.57Z</time></trkpt><trkpt lat="43.0083775" lon="12.1888036"><ele>225.0</ele><time>2026-04-01T10:54:35.57Z</time></trkpt><trkpt lat="43.0084425" lon="12.1891451"><ele>226.0</ele><time>2026-04-01T10:54:36.57Z</time></trkpt><trkpt lat="43.0085177" lon="12.1894849"><ele>226.0</ele><time>2026-04-01T10:54:37.57Z</time></trkpt><trkpt lat="43.0085918" lon="12.1898263"><ele>226.0</ele><time>2026-04-01T10:54:38.569Z</time></trkpt><trkpt lat="43.0086646" lon="12.1901668"><ele>226.5</ele><time>2026-04-01T10:54:39.569Z</time></trkpt><trkpt lat="43.0087337" lon="12.1905098"><ele>227.0</ele><time>2026-04-01T10:54:40.57Z</time></trkpt><trkpt lat="43.0088029" lon="12.190846"><ele>225.5</ele><time>2026-04-01T10:54:41.57Z</time></trkpt><trkpt lat="43.0088667" lon="12.1911857"><ele>224.0</ele><time>2026-04-01T10:54:42.57Z</time></trkpt><trkpt lat="43.0089438" lon="12.1915268"><ele>223.5</ele><time>2026-04-01T10:54:43.57Z</time></trkpt><trkpt lat="43.0090185" lon="12.191867"><ele>223.0</ele><time>2026-04-01T10:54:44.571Z</time></trkpt><trkpt lat="43.0090955" lon="12.1922008"><ele>222.5</ele><time>2026-04-01T10:54:45.571Z</time></trkpt><trkpt lat="43.009169" lon="12.1925407"><ele>222.0</ele><time>2026-04-01T10:54:46.57Z</time></trkpt><trkpt lat="43.0092459" lon="12.1928736"><ele>223.0</ele><time>2026-04-01T10:54:47.571Z</time></trkpt><trkpt lat="43.0093314" lon="12.1932114"><ele>224.0</ele><time>2026-04-01T10:54:48.571Z</time></trkpt><trkpt lat="43.0094294" lon="12.193528"><ele>224.0</ele><time>2026-04-01T10:54:49.571Z</time></trkpt><trkpt lat="43.0095455" lon="12.1938448"><ele>224.0</ele><time>2026-04-01T10:54:50.571Z</time></trkpt><trkpt lat="43.0096691" lon="12.1941477"><ele>223.0</ele><time>2026-04-01T10:54:51.57Z</time></trkpt><trkpt lat="43.0098123" lon="12.1944489"><ele>222.0</ele><time>2026-04-01T10:54:52.57Z</time></trkpt><trkpt lat="43.0099615" lon="12.194728"><ele>224.5</ele><time>2026-04-01T10:54:53.571Z</time></trkpt><trkpt lat="43.0101439" lon="12.1949973"><ele>227.0</ele><time>2026-04-01T10:54:54.57Z</time></trkpt><trkpt lat="43.0103267" lon="12.195249"><ele>227.0</ele><time>2026-04-01T10:54:55.57Z</time></trkpt><trkpt lat="43.0105172" lon="12.1954857"><ele>227.0</ele><time>2026-04-01T10:54:56.572Z</time></trkpt><trkpt lat="43.0107166" lon="12.1957119"><ele>225.5</ele><time>2026-04-01T10:54:57.571Z</time></trkpt><trkpt lat="43.0109324" lon="12.1959087"><ele>224.0</ele><time>2026-04-01T10:54:58.572Z</time></trkpt><trkpt lat="43.0111539" lon="12.1960869"><ele>224.0</ele><time>2026-04-01T10:54:59.572Z</time></trkpt><trkpt lat="43.0113797" lon="12.1962487"><ele>224.0</ele><time>2026-04-01T10:55:00.572Z</time></trkpt><trkpt lat="43.0116151" lon="12.1963914"><ele>225.0</ele><time>2026-04-01T10:55:01.57Z</time></trkpt><trkpt lat="43.0118555" lon="12.1965138"><ele>226.0</ele><time>2026-04-01T10:55:02.571Z</time></trkpt><trkpt lat="43.0120976" lon="12.1966131"><ele>226.0</ele><time>2026-04-01T10:55:03.57Z</time></trkpt><trkpt lat="43.012349" lon="12.1967018"><ele>226.0</ele><time>2026-04-01T10:55:04.57Z</time></trkpt><trkpt lat="43.0126025" lon="12.1967814"><ele>228.0</ele><time>2026-04-01T10:55:05.57Z</time></trkpt><trkpt lat="43.0128571" lon="12.196854"><ele>230.0</ele><time>2026-04-01T10:55:06.57Z</time></trkpt><trkpt lat="43.0131083" lon="12.1969269"><ele>230.5</ele><time>2026-04-01T10:55:07.569Z</time></trkpt><trkpt lat="43.0133594" lon="12.1970007"><ele>231.0</ele><time>2026-04-01T10:55:08.57Z</time></trkpt><trkpt lat="43.013615" lon="12.1970765"><ele>231.0</ele><time>2026-04-01T10:55:09.57Z</time></trkpt><trkpt lat="43.0138677" lon="12.1971511"><ele>231.0</ele><time>2026-04-01T10:55:10.571Z</time></trkpt><trkpt lat="43.0141203" lon="12.1972242"><ele>231.0</ele><time>2026-04-01T10:55:11.57Z</time></trkpt><trkpt lat="43.0143769" lon="12.1972969"><ele>231.0</ele><time>2026-04-01T10:55:12.57Z</time></trkpt><trkpt lat="43.0146334" lon="12.1973647"><ele>231.0</ele><time>2026-04-01T10:55:13.57Z</time></trkpt><trkpt lat="43.0148907" lon="12.1974354"><ele>231.0</ele><time>2026-04-01T10:55:14.571Z</time></trkpt><trkpt lat="43.0151481" lon="12.1975004"><ele>232.5</ele><time>2026-04-01T10:55:15.57Z</time></trkpt><trkpt lat="43.0154102" lon="12.1975698"><ele>234.0</ele><time>2026-04-01T10:55:16.571Z</time></trkpt><trkpt lat="43.0156716" lon="12.1976446"><ele>236.0</ele><time>2026-04-01T10:55:17.571Z</time></trkpt><trkpt lat="43.0159281" lon="12.1977165"><ele>238.0</ele><time>2026-04-01T10:55:18.57Z</time></trkpt><trkpt lat="43.0161812" lon="12.197785"><ele>238.0</ele><time>2026-04-01T10:55:19.571Z</time></trkpt><trkpt lat="43.016441" lon="12.197857"><ele>238.0</ele><time>2026-04-01T10:55:20.57Z</time></trkpt><trkpt lat="43.0166981" lon="12.1979293"><ele>241.5</ele><time>2026-04-01T10:55:21.571Z</time></trkpt><trkpt lat="43.0169427" lon="12.1979975"><ele>245.0</ele><time>2026-04-01T10:55:22.572Z</time></trkpt><trkpt lat="43.0171979" lon="12.1980687"><ele>245.0</ele><time>2026-04-01T10:55:23.571Z</time></trkpt><trkpt lat="43.017453" lon="12.1981399"><ele>245.0</ele><time>2026-04-01T10:55:24.572Z</time></trkpt><trkpt lat="43.0184593" lon="12.1984832"><ele>244.0</ele><time>2026-04-01T10:55:28.571Z</time></trkpt><trkpt lat="43.0187172" lon="12.1985909"><ele>243.0</ele><time>2026-04-01T10:55:29.57Z</time></trkpt><trkpt lat="43.0189679" lon="12.1987189"><ele>240.5</ele><time>2026-04-01T10:55:30.571Z</time></trkpt><trkpt lat="43.0192008" lon="12.1988747"><ele>238.0</ele><time>2026-04-01T10:55:31.571Z</time></trkpt><trkpt lat="43.0194353" lon="12.1990474"><ele>237.0</ele><time>2026-04-01T10:55:32.571Z</time></trkpt><trkpt lat="43.0196543" lon="12.1992377"><ele>236.0</ele><time>2026-04-01T10:55:33.57Z</time></trkpt><trkpt lat="43.019869" lon="12.1994372"><ele>236.0</ele><time>2026-04-01T10:55:34.572Z</time></trkpt><trkpt lat="43.0200737" lon="12.1996555"><ele>236.0</ele><time>2026-04-01T10:55:35.571Z</time></trkpt><trkpt lat="43.0202709" lon="12.1998878"><ele>234.5</ele><time>2026-04-01T10:55:36.571Z</time></trkpt><trkpt lat="43.0204578" lon="12.2001299"><ele>233.0</ele><time>2026-04-01T10:55:37.571Z</time></trkpt><trkpt lat="43.0206342" lon="12.2003885"><ele>233.0</ele><time>2026-04-01T10:55:38.571Z</time></trkpt><trkpt lat="43.0208018" lon="12.2006583"><ele>233.0</ele><time>2026-04-01T10:55:39.571Z</time></trkpt><trkpt lat="43.0209624" lon="12.2009336"><ele>233.5</ele><time>2026-04-01T10:55:40.572Z</time></trkpt><trkpt lat="43.0211179" lon="12.2012133"><ele>234.0</ele><time>2026-04-01T10:55:41.571Z</time></trkpt><trkpt lat="43.0212876" lon="12.2014852"><ele>233.0</ele><time>2026-04-01T10:55:42.571Z</time></trkpt><trkpt lat="43.0214533" lon="12.2017542"><ele>232.0</ele><time>2026-04-01T10:55:43.57Z</time></trkpt><trkpt lat="43.0216193" lon="12.202023"><ele>234.5</ele><time>2026-04-01T10:55:44.569Z</time></trkpt><trkpt lat="43.0217866" lon="12.2022795"><ele>237.0</ele><time>2026-04-01T10:55:45.571Z</time></trkpt><trkpt lat="43.0219533" lon="12.2025538"><ele>237.0</ele><time>2026-04-01T10:55:46.571Z</time></trkpt><trkpt lat="43.0221183" lon="12.2028267"><ele>237.0</ele><time>2026-04-01T10:55:47.57Z</time></trkpt><trkpt lat="43.0222858" lon="12.2031009"><ele>236.5</ele><time>2026-04-01T10:55:48.57Z</time></trkpt><trkpt lat="43.0224467" lon="12.2033739"><ele>236.0</ele><time>2026-04-01T10:55:49.571Z</time></trkpt><trkpt lat="43.0226145" lon="12.203649"><ele>237.5</ele><time>2026-04-01T10:55:50.572Z</time></trkpt><trkpt lat="43.0227812" lon="12.203922"><ele>239.0</ele><time>2026-04-01T10:55:51.571Z</time></trkpt><trkpt lat="43.0229444" lon="12.2042015"><ele>239.5</ele><time>2026-04-01T10:55:52.57Z</time></trkpt><trkpt lat="43.0231123" lon="12.2044883"><ele>240.0</ele><time>2026-04-01T10:55:53.571Z</time></trkpt><trkpt lat="43.0232778" lon="12.2047546"><ele>239.0</ele><time>2026-04-01T10:55:54.57Z</time></trkpt><trkpt lat="43.0234547" lon="12.2050169"><ele>238.0</ele><time>2026-04-01T10:55:55.57Z</time></trkpt><trkpt lat="43.0236343" lon="12.2052792"><ele>238.0</ele><time>2026-04-01T10:55:56.57Z</time></trkpt><trkpt lat="43.0238128" lon="12.2055232"><ele>238.0</ele><time>2026-04-01T10:55:57.57Z</time></trkpt><trkpt lat="43.0240048" lon="12.2057662"><ele>234.5</ele><time>2026-04-01T10:55:58.57Z</time></trkpt><trkpt lat="43.0241957" lon="12.2059993"><ele>231.0</ele><time>2026-04-01T10:55:59.572Z</time></trkpt><trkpt lat="43.0243944" lon="12.2062239"><ele>231.0</ele><time>2026-04-01T10:56:00.571Z</time></trkpt><trkpt lat="43.0245984" lon="12.2064402"><ele>231.0</ele><time>2026-04-01T10:56:01.569Z</time></trkpt><trkpt lat="43.0248054" lon="12.2066613"><ele>229.0</ele><time>2026-04-01T10:56:02.572Z</time></trkpt><trkpt lat="43.0250174" lon="12.2068782"><ele>227.0</ele><time>2026-04-01T10:56:03.57Z</time></trkpt><trkpt lat="43.0252178" lon="12.2070863"><ele>227.0</ele><time>2026-04-01T10:56:04.571Z</time></trkpt><trkpt lat="43.0254053" lon="12.2072833"><ele>227.0</ele><time>2026-04-01T10:56:05.571Z</time></trkpt><trkpt lat="43.0255912" lon="12.2074713"><ele>227.0</ele><time>2026-04-01T10:56:06.571Z</time></trkpt><trkpt lat="43.0257718" lon="12.2076588"><ele>227.0</ele><time>2026-04-01T10:56:07.57Z</time></trkpt><trkpt lat="43.0259499" lon="12.2078479"><ele>227.0</ele><time>2026-04-01T10:56:08.57Z</time></trkpt><trkpt lat="43.0261321" lon="12.2080347"><ele>227.0</ele><time>2026-04-01T10:56:09.569Z</time></trkpt><trkpt lat="43.0263247" lon="12.2082284"><ele>227.0</ele><time>2026-04-01T10:56:10.569Z</time></trkpt><trkpt lat="43.0265243" lon="12.2084271"><ele>227.0</ele><time>2026-04-01T10:56:11.57Z</time></trkpt><trkpt lat="43.0267307" lon="12.2086286"><ele>227.0</ele><time>2026-04-01T10:56:12.57Z</time></trkpt><trkpt lat="43.0269369" lon="12.2088307"><ele>227.0</ele><time>2026-04-01T10:56:13.572Z</time></trkpt><trkpt lat="43.0271398" lon="12.2090354"><ele>226.5</ele><time>2026-04-01T10:56:14.571Z</time></trkpt><trkpt lat="43.0273439" lon="12.2092406"><ele>226.0</ele><time>2026-04-01T10:56:15.572Z</time></trkpt><trkpt lat="43.0275495" lon="12.209445"><ele>226.0</ele><time>2026-04-01T10:56:16.572Z</time></trkpt><trkpt lat="43.0277702" lon="12.2096714"><ele>226.0</ele><time>2026-04-01T10:56:17.572Z</time></trkpt><trkpt lat="43.0279924" lon="12.2099056"><ele>225.5</ele><time>2026-04-01T10:56:18.571Z</time></trkpt><trkpt lat="43.0282104" lon="12.2101412"><ele>225.0</ele><time>2026-04-01T10:56:19.571Z</time></trkpt><trkpt lat="43.0284242" lon="12.2103763"><ele>226.0</ele><time>2026-04-01T10:56:20.571Z</time></trkpt><trkpt lat="43.028631" lon="12.2106007"><ele>227.0</ele><time>2026-04-01T10:56:21.57Z</time></trkpt><trkpt lat="43.028844" lon="12.2108225"><ele>227.0</ele><time>2026-04-01T10:56:22.57Z</time></trkpt><trkpt lat="43.0290548" lon="12.2110358"><ele>227.0</ele><time>2026-04-01T10:56:23.571Z</time></trkpt><trkpt lat="43.029263" lon="12.2112496"><ele>226.5</ele><time>2026-04-01T10:56:24.571Z</time></trkpt><trkpt lat="43.0294776" lon="12.2114591"><ele>226.0</ele><time>2026-04-01T10:56:25.571Z</time></trkpt><trkpt lat="43.0296849" lon="12.2116825"><ele>226.5</ele><time>2026-04-01T10:56:26.571Z</time></trkpt><trkpt lat="43.0298827" lon="12.2118709"><ele>227.0</ele><time>2026-04-01T10:56:27.571Z</time></trkpt><trkpt lat="43.0300696" lon="12.2120596"><ele>227.0</ele><time>2026-04-01T10:56:28.572Z</time></trkpt><trkpt lat="43.0302331" lon="12.2122384"><ele>227.0</ele><time>2026-04-01T10:56:29.571Z</time></trkpt><trkpt lat="43.0303731" lon="12.21239"><ele>227.0</ele><time>2026-04-01T10:56:30.571Z</time></trkpt><trkpt lat="43.0305007" lon="12.2125712"><ele>227.25</ele><time>2026-04-01T10:56:31.57Z</time></trkpt><trkpt lat="43.0306149" lon="12.2127395"><ele>227.5</ele><time>2026-04-01T10:56:32.572Z</time></trkpt><trkpt lat="43.0307094" lon="12.2128579"><ele>227.75</ele><time>2026-04-01T10:56:33.569Z</time></trkpt><trkpt lat="43.0307942" lon="12.2129346"><ele>228.0</ele><time>2026-04-01T10:56:34.571Z</time></trkpt><trkpt lat="43.0308772" lon="12.2129996"><ele>227.4</ele><time>2026-04-01T10:56:35.571Z</time></trkpt><trkpt lat="43.03095" lon="12.213069"><ele>226.8</ele><time>2026-04-01T10:56:36.571Z</time></trkpt><trkpt lat="43.0310227" lon="12.2131465"><ele>226.2</ele><time>2026-04-01T10:56:37.571Z</time></trkpt><trkpt lat="43.0311177" lon="12.2132295"><ele>225.6</ele><time>2026-04-01T10:56:38.571Z</time></trkpt><trkpt lat="43.0312172" lon="12.2133305"><ele>225.0</ele><time>2026-04-01T10:56:39.57Z</time></trkpt><trkpt lat="43.0313301" lon="12.2134485"><ele>225.0</ele><time>2026-04-01T10:56:40.571Z</time></trkpt><trkpt lat="43.0314532" lon="12.2135816"><ele>225.0</ele><time>2026-04-01T10:56:41.57Z</time></trkpt><trkpt lat="43.0315912" lon="12.2137253"><ele>225.0</ele><time>2026-04-01T10:56:42.57Z</time></trkpt><trkpt lat="43.0317271" lon="12.2138677"><ele>224.33333333333331</ele><time>2026-04-01T10:56:43.571Z</time></trkpt><trkpt lat="43.031875" lon="12.2140275"><ele>223.66666666666666</ele><time>2026-04-01T10:56:44.571Z</time></trkpt><trkpt lat="43.0320386" lon="12.2142025"><ele>223.0</ele><time>2026-04-01T10:56:45.57Z</time></trkpt><trkpt lat="43.0322102" lon="12.2143876"><ele>223.0</ele><time>2026-04-01T10:56:46.571Z</time></trkpt><trkpt lat="43.0323903" lon="12.2145717"><ele>223.0</ele><time>2026-04-01T10:56:47.571Z</time></trkpt><trkpt lat="43.0325757" lon="12.2147637"><ele>222.0</ele><time>2026-04-01T10:56:48.57Z</time></trkpt><trkpt lat="43.0327656" lon="12.2149605"><ele>221.0</ele><time>2026-04-01T10:56:49.571Z</time></trkpt><trkpt lat="43.0329612" lon="12.2151636"><ele>221.0</ele><time>2026-04-01T10:56:50.571Z</time></trkpt><trkpt lat="43.0331585" lon="12.2153775"><ele>221.0</ele><time>2026-04-01T10:56:51.571Z</time></trkpt><trkpt lat="43.0333564" lon="12.2155888"><ele>220.5</ele><time>2026-04-01T10:56:52.572Z</time></trkpt><trkpt lat="43.0335629" lon="12.2158045"><ele>220.0</ele><time>2026-04-01T10:56:53.571Z</time></trkpt><trkpt lat="43.0337834" lon="12.2160271"><ele>220.0</ele><time>2026-04-01T10:56:54.571Z</time></trkpt><trkpt lat="43.0339887" lon="12.216246"><ele>220.0</ele><time>2026-04-01T10:56:55.569Z</time></trkpt><trkpt lat="43.03418" lon="12.2164469"><ele>220.33333333333331</ele><time>2026-04-01T10:56:56.571Z</time></trkpt><trkpt lat="43.0343447" lon="12.2166234"><ele>220.66666666666669</ele><time>2026-04-01T10:56:57.571Z</time></trkpt><trkpt lat="43.0345245" lon="12.2168301"><ele>221.0</ele><time>2026-04-01T10:56:58.571Z</time></trkpt><trkpt lat="43.0346734" lon="12.2170394"><ele>221.0</ele><time>2026-04-01T10:56:59.571Z</time></trkpt><trkpt lat="43.0347906" lon="12.2172915"><ele>221.0</ele><time>2026-04-01T10:57:00.571Z</time></trkpt><trkpt lat="43.0348827" lon="12.2176009"><ele>221.5</ele><time>2026-04-01T10:57:01.57Z</time></trkpt><trkpt lat="43.0349677" lon="12.2179373"><ele>222.0</ele><time>2026-04-01T10:57:02.57Z</time></trkpt><trkpt lat="43.0350419" lon="12.2182731"><ele>223.0</ele><time>2026-04-01T10:57:03.571Z</time></trkpt><trkpt lat="43.0350993" lon="12.2186089"><ele>224.0</ele><time>2026-04-01T10:57:04.572Z</time></trkpt><trkpt lat="43.0351571" lon="12.2189508"><ele>223.0</ele><time>2026-04-01T10:57:05.571Z</time></trkpt><trkpt lat="43.0352169" lon="12.2192931"><ele>222.0</ele><time>2026-04-01T10:57:06.57Z</time></trkpt><trkpt lat="43.0352796" lon="12.2196292"><ele>222.0</ele><time>2026-04-01T10:57:07.572Z</time></trkpt><trkpt lat="43.035345" lon="12.2199651"><ele>222.0</ele><time>2026-04-01T10:57:08.571Z</time></trkpt><trkpt lat="43.035413" lon="12.2203109"><ele>223.0</ele><time>2026-04-01T10:57:09.57Z</time></trkpt><trkpt lat="43.0354938" lon="12.22065"><ele>224.0</ele><time>2026-04-01T10:57:10.572Z</time></trkpt><trkpt lat="43.0355757" lon="12.2209765"><ele>224.0</ele><time>2026-04-01T10:57:11.571Z</time></trkpt><trkpt lat="43.0356855" lon="12.2212861"><ele>224.0</ele><time>2026-04-01T10:57:12.571Z</time></trkpt><trkpt lat="43.0358244" lon="12.2215732"><ele>225.5</ele><time>2026-04-01T10:57:13.572Z</time></trkpt><trkpt lat="43.0359831" lon="12.2218455"><ele>227.0</ele><time>2026-04-01T10:57:14.57Z</time></trkpt><trkpt lat="43.0361521" lon="12.2221044"><ele>228.5</ele><time>2026-04-01T10:57:15.572Z</time></trkpt><trkpt lat="43.0363259" lon="12.222362"><ele>230.0</ele><time>2026-04-01T10:57:16.571Z</time></trkpt><trkpt lat="43.0364967" lon="12.2226231"><ele>232.5</ele><time>2026-04-01T10:57:17.571Z</time></trkpt><trkpt lat="43.0366715" lon="12.2228879"><ele>235.0</ele><time>2026-04-01T10:57:18.571Z</time></trkpt><trkpt lat="43.0368472" lon="12.2231335"><ele>235.0</ele><time>2026-04-01T10:57:19.571Z</time></trkpt><trkpt lat="43.0370236" lon="12.2233817"><ele>235.0</ele><time>2026-04-01T10:57:20.571Z</time></trkpt><trkpt lat="43.0371994" lon="12.2236388"><ele>235.0</ele><time>2026-04-01T10:57:21.571Z</time></trkpt><trkpt lat="43.0373775" lon="12.2239011"><ele>235.0</ele><time>2026-04-01T10:57:22.571Z</time></trkpt><trkpt lat="43.0375578" lon="12.2241698"><ele>237.0</ele><time>2026-04-01T10:57:23.57Z</time></trkpt><trkpt lat="43.0377279" lon="12.2244178"><ele>239.0</ele><time>2026-04-01T10:57:24.57Z</time></trkpt><trkpt lat="43.0378787" lon="12.224639"><ele>238.0</ele><time>2026-04-01T10:57:25.57Z</time></trkpt><trkpt lat="43.037993" lon="12.2248422"><ele>237.0</ele><time>2026-04-01T10:57:26.571Z</time></trkpt><trkpt lat="43.0381044" lon="12.2250223"><ele>236.0</ele><time>2026-04-01T10:57:27.571Z</time></trkpt><trkpt lat="43.0382139" lon="12.225196"><ele>236.66666666666669</ele><time>2026-04-01T10:57:28.571Z</time></trkpt><trkpt lat="43.0383213" lon="12.2253619"><ele>237.33333333333331</ele><time>2026-04-01T10:57:29.571Z</time></trkpt><trkpt lat="43.0384431" lon="12.2255443"><ele>238.0</ele><time>2026-04-01T10:57:30.571Z</time></trkpt><trkpt lat="43.0385844" lon="12.2257425"><ele>238.0</ele><time>2026-04-01T10:57:31.571Z</time></trkpt><trkpt lat="43.0387406" lon="12.2259702"><ele>238.0</ele><time>2026-04-01T10:57:32.571Z</time></trkpt><trkpt lat="43.0388913" lon="12.2262062"><ele>238.0</ele><time>2026-04-01T10:57:33.571Z</time></trkpt><trkpt lat="43.0390356" lon="12.2264277"><ele>238.0</ele><time>2026-04-01T10:57:34.572Z</time></trkpt><trkpt lat="43.0391672" lon="12.226646"><ele>238.0</ele><time>2026-04-01T10:57:35.571Z</time></trkpt><trkpt lat="43.0393034" lon="12.2268705"><ele>238.0</ele><time>2026-04-01T10:57:36.571Z</time></trkpt><trkpt lat="43.0394559" lon="12.2270955"><ele>238.0</ele><time>2026-04-01T10:57:37.571Z</time></trkpt><trkpt lat="43.0396287" lon="12.2273251"><ele>237.5</ele><time>2026-04-01T10:57:38.572Z</time></trkpt><trkpt lat="43.0398152" lon="12.2275821"><ele>237.0</ele><time>2026-04-01T10:57:39.571Z</time></trkpt><trkpt lat="43.040017" lon="12.2278558"><ele>238.0</ele><time>2026-04-01T10:57:40.571Z</time></trkpt><trkpt lat="43.0402314" lon="12.2281341"><ele>239.0</ele><time>2026-04-01T10:57:41.57Z</time></trkpt><trkpt lat="43.0404429" lon="12.2284001"><ele>239.5</ele><time>2026-04-01T10:57:42.573Z</time></trkpt><trkpt lat="43.0406506" lon="12.2286605"><ele>240.0</ele><time>2026-04-01T10:57:43.571Z</time></trkpt><trkpt lat="43.0408384" lon="12.2289024"><ele>241.0</ele><time>2026-04-01T10:57:44.571Z</time></trkpt><trkpt lat="43.0410159" lon="12.2291338"><ele>242.0</ele><time>2026-04-01T10:57:45.571Z</time></trkpt><trkpt lat="43.0411848" lon="12.2293519"><ele>242.0</ele><time>2026-04-01T10:57:46.57Z</time></trkpt><trkpt lat="43.0413496" lon="12.2295587"><ele>242.0</ele><time>2026-04-01T10:57:47.572Z</time></trkpt><trkpt lat="43.0415026" lon="12.2297818"><ele>242.0</ele><time>2026-04-01T10:57:48.571Z</time></trkpt><trkpt lat="43.0416551" lon="12.2300294"><ele>243.0</ele><time>2026-04-01T10:57:49.57Z</time></trkpt><trkpt lat="43.0418094" lon="12.2303337"><ele>244.0</ele><time>2026-04-01T10:57:50.572Z</time></trkpt><trkpt lat="43.0419626" lon="12.230637"><ele>244.0</ele><time>2026-04-01T10:57:51.572Z</time></trkpt><trkpt lat="43.0421296" lon="12.2309719"><ele>244.0</ele><time>2026-04-01T10:57:52.571Z</time></trkpt><trkpt lat="43.042279" lon="12.2313143"><ele>243.5</ele><time>2026-04-01T10:57:53.572Z</time></trkpt><trkpt lat="43.0424304" lon="12.2316483"><ele>243.0</ele><time>2026-04-01T10:57:54.57Z</time></trkpt><trkpt lat="43.0425766" lon="12.231965"><ele>243.0</ele><time>2026-04-01T10:57:55.57Z</time></trkpt><trkpt lat="43.0427197" lon="12.2322702"><ele>243.0</ele><time>2026-04-01T10:57:56.572Z</time></trkpt><trkpt lat="43.0428658" lon="12.2325724"><ele>242.5</ele><time>2026-04-01T10:57:57.572Z</time></trkpt><trkpt lat="43.0430143" lon="12.232869"><ele>242.0</ele><time>2026-04-01T10:57:58.57Z</time></trkpt><trkpt lat="43.0431681" lon="12.2331727"><ele>241.0</ele><time>2026-04-01T10:57:59.571Z</time></trkpt><trkpt lat="43.0433094" lon="12.2334636"><ele>240.0</ele><time>2026-04-01T10:58:00.571Z</time></trkpt><trkpt lat="43.0434536" lon="12.2337557"><ele>241.5</ele><time>2026-04-01T10:58:01.571Z</time></trkpt><trkpt lat="43.0436003" lon="12.2340434"><ele>243.0</ele><time>2026-04-01T10:58:02.573Z</time></trkpt><trkpt lat="43.0437447" lon="12.2343392"><ele>243.0</ele><time>2026-04-01T10:58:03.571Z</time></trkpt><trkpt lat="43.0438836" lon="12.2346281"><ele>243.0</ele><time>2026-04-01T10:58:04.572Z</time></trkpt><trkpt lat="43.0440214" lon="12.2349226"><ele>245.5</ele><time>2026-04-01T10:58:05.571Z</time></trkpt><trkpt lat="43.0441719" lon="12.2351981"><ele>248.0</ele><time>2026-04-01T10:58:06.571Z</time></trkpt><trkpt lat="43.0443138" lon="12.2354888"><ele>248.5</ele><time>2026-04-01T10:58:07.571Z</time></trkpt><trkpt lat="43.0444575" lon="12.2357866"><ele>249.0</ele><time>2026-04-01T10:58:08.571Z</time></trkpt><trkpt lat="43.0446064" lon="12.2360658"><ele>249.0</ele><time>2026-04-01T10:58:09.571Z</time></trkpt><trkpt lat="43.044772" lon="12.2363336"><ele>249.0</ele><time>2026-04-01T10:58:10.573Z</time></trkpt><trkpt lat="43.044951" lon="12.2365862"><ele>252.5</ele><time>2026-04-01T10:58:11.572Z</time></trkpt><trkpt lat="43.0451494" lon="12.2368045"><ele>256.0</ele><time>2026-04-01T10:58:12.573Z</time></trkpt><trkpt lat="43.0453559" lon="12.236999"><ele>256.0</ele><time>2026-04-01T10:58:13.572Z</time></trkpt><trkpt lat="43.0455761" lon="12.2371744"><ele>256.0</ele><time>2026-04-01T10:58:14.573Z</time></trkpt><trkpt lat="43.0458019" lon="12.2373307"><ele>258.5</ele><time>2026-04-01T10:58:15.572Z</time></trkpt><trkpt lat="43.0460333" lon="12.2374889"><ele>261.0</ele><time>2026-04-01T10:58:16.572Z</time></trkpt><trkpt lat="43.0462677" lon="12.2376373"><ele>261.0</ele><time>2026-04-01T10:58:17.571Z</time></trkpt><trkpt lat="43.0465019" lon="12.2377885"><ele>261.0</ele><time>2026-04-01T10:58:18.57Z</time></trkpt><trkpt lat="43.0467366" lon="12.2379429"><ele>264.5</ele><time>2026-04-01T10:58:19.571Z</time></trkpt><trkpt lat="43.0469687" lon="12.2380927"><ele>268.0</ele><time>2026-04-01T10:58:20.572Z</time></trkpt><trkpt lat="43.0472124" lon="12.2382443"><ele>268.5</ele><time>2026-04-01T10:58:21.571Z</time></trkpt><trkpt lat="43.0474474" lon="12.2384028"><ele>269.0</ele><time>2026-04-01T10:58:22.571Z</time></trkpt><trkpt lat="43.0476818" lon="12.238556"><ele>271.0</ele><time>2026-04-01T10:58:23.571Z</time></trkpt><trkpt lat="43.0479232" lon="12.2387027"><ele>273.0</ele><time>2026-04-01T10:58:24.572Z</time></trkpt><trkpt lat="43.0481597" lon="12.2388489"><ele>271.0</ele><time>2026-04-01T10:58:25.572Z</time></trkpt><trkpt lat="43.0483994" lon="12.2389999"><ele>269.0</ele><time>2026-04-01T10:58:26.571Z</time></trkpt><trkpt lat="43.0486386" lon="12.2391542"><ele>269.0</ele><time>2026-04-01T10:58:27.572Z</time></trkpt><trkpt lat="43.0488733" lon="12.2393066"><ele>269.0</ele><time>2026-04-01T10:58:28.572Z</time></trkpt><trkpt lat="43.0490975" lon="12.2394803"><ele>269.5</ele><time>2026-04-01T10:58:29.571Z</time></trkpt><trkpt lat="43.0493103" lon="12.239662"><ele>270.0</ele><time>2026-04-01T10:58:30.571Z</time></trkpt><trkpt lat="43.0495235" lon="12.2398431"><ele>266.5</ele><time>2026-04-01T10:58:31.572Z</time></trkpt><trkpt lat="43.0497395" lon="12.2400286"><ele>263.0</ele><time>2026-04-01T10:58:32.571Z</time></trkpt><trkpt lat="43.0499662" lon="12.2402095"><ele>262.0</ele><time>2026-04-01T10:58:33.57Z</time></trkpt><trkpt lat="43.050176" lon="12.2403789"><ele>261.0</ele><time>2026-04-01T10:58:34.57Z</time></trkpt><trkpt lat="43.0503862" lon="12.2405154"><ele>261.0</ele><time>2026-04-01T10:58:35.573Z</time></trkpt><trkpt lat="43.0505862" lon="12.2406198"><ele>261.0</ele><time>2026-04-01T10:58:36.571Z</time></trkpt><trkpt lat="43.0507906" lon="12.2406904"><ele>261.0</ele><time>2026-04-01T10:58:37.571Z</time></trkpt><trkpt lat="43.0509875" lon="12.2407493"><ele>257.3333333333333</ele><time>2026-04-01T10:58:38.572Z</time></trkpt><trkpt lat="43.051177" lon="12.240792"><ele>253.66666666666666</ele><time>2026-04-01T10:58:39.571Z</time></trkpt><trkpt lat="43.0513543" lon="12.2408336"><ele>250.0</ele><time>2026-04-01T10:58:40.572Z</time></trkpt><trkpt lat="43.0515272" lon="12.2408915"><ele>250.0</ele><time>2026-04-01T10:58:41.571Z</time></trkpt><trkpt lat="43.0516815" lon="12.240974"><ele>250.0</ele><time>2026-04-01T10:58:42.571Z</time></trkpt><trkpt lat="43.051837" lon="12.241076"><ele>250.0</ele><time>2026-04-01T10:58:43.571Z</time></trkpt><trkpt lat="43.0519133" lon="12.2412732"><ele>250.0</ele><time>2026-04-01T10:58:44.572Z</time></trkpt><trkpt lat="43.0519727" lon="12.2414605"><ele>250.0</ele><time>2026-04-01T10:58:45.571Z</time></trkpt><trkpt lat="43.0519721" lon="12.2416895"><ele>250.0</ele><time>2026-04-01T10:58:46.571Z</time></trkpt><trkpt lat="43.0519218" lon="12.2419341"><ele>247.33333333333331</ele><time>2026-04-01T10:58:47.572Z</time></trkpt><trkpt lat="43.051839" lon="12.2421748"><ele>244.66666666666669</ele><time>2026-04-01T10:58:48.573Z</time></trkpt><trkpt lat="43.0517464" lon="12.2424116"><ele>242.0</ele><time>2026-04-01T10:58:49.572Z</time></trkpt><trkpt lat="43.051663" lon="12.2426507"><ele>241.66666666666669</ele><time>2026-04-01T10:58:50.572Z</time></trkpt><trkpt lat="43.0515991" lon="12.2428898"><ele>241.33333333333331</ele><time>2026-04-01T10:58:51.572Z</time></trkpt><trkpt lat="43.0515636" lon="12.2431541"><ele>241.0</ele><time>2026-04-01T10:58:52.573Z</time></trkpt><trkpt lat="43.0515778" lon="12.2434367"><ele>241.0</ele><time>2026-04-01T10:58:53.57Z</time></trkpt><trkpt lat="43.0516224" lon="12.2437127"><ele>241.0</ele><time>2026-04-01T10:58:54.571Z</time></trkpt><trkpt lat="43.0516878" lon="12.2440061"><ele>241.0</ele><time>2026-04-01T10:58:55.571Z</time></trkpt><trkpt lat="43.0517467" lon="12.2442805"><ele>239.33333333333331</ele><time>2026-04-01T10:58:56.571Z</time></trkpt><trkpt lat="43.0518011" lon="12.244546"><ele>237.66666666666669</ele><time>2026-04-01T10:58:57.571Z</time></trkpt><trkpt lat="43.0518661" lon="12.244821"><ele>236.0</ele><time>2026-04-01T10:58:58.571Z</time></trkpt><trkpt lat="43.0519327" lon="12.2451094"><ele>234.5</ele><time>2026-04-01T10:58:59.571Z</time></trkpt><trkpt lat="43.0519976" lon="12.2454177"><ele>233.0</ele><time>2026-04-01T10:59:00.571Z</time></trkpt><trkpt lat="43.0520582" lon="12.2457554"><ele>232.5</ele><time>2026-04-01T10:59:01.571Z</time></trkpt><trkpt lat="43.0521011" lon="12.2461044"><ele>232.0</ele><time>2026-04-01T10:59:02.571Z</time></trkpt><trkpt lat="43.0521469" lon="12.2464609"><ele>231.5</ele><time>2026-04-01T10:59:03.571Z</time></trkpt><trkpt lat="43.0521863" lon="12.2468165"><ele>231.0</ele><time>2026-04-01T10:59:04.572Z</time></trkpt><trkpt lat="43.0522208" lon="12.247171"><ele>232.5</ele><time>2026-04-01T10:59:05.57Z</time></trkpt><trkpt lat="43.052266" lon="12.2475273"><ele>234.0</ele><time>2026-04-01T10:59:06.572Z</time></trkpt><trkpt lat="43.0523232" lon="12.2478681"><ele>236.0</ele><time>2026-04-01T10:59:07.571Z</time></trkpt><trkpt lat="43.0523883" lon="12.2482186"><ele>238.0</ele><time>2026-04-01T10:59:08.573Z</time></trkpt><trkpt lat="43.0524594" lon="12.248549"><ele>231.5</ele><time>2026-04-01T10:59:09.571Z</time></trkpt><trkpt lat="43.052526" lon="12.2488611"><ele>225.0</ele><time>2026-04-01T10:59:10.573Z</time></trkpt><trkpt lat="43.0525834" lon="12.2491525"><ele>225.0</ele><time>2026-04-01T10:59:11.571Z</time></trkpt><trkpt lat="43.0526298" lon="12.2494203"><ele>225.0</ele><time>2026-04-01T10:59:12.572Z</time></trkpt><trkpt lat="43.0526845" lon="12.2496872"><ele>225.0</ele><time>2026-04-01T10:59:13.571Z</time></trkpt><trkpt lat="43.0527287" lon="12.2499323"><ele>224.66666666666669</ele><time>2026-04-01T10:59:14.571Z</time></trkpt><trkpt lat="43.0527799" lon="12.2501707"><ele>224.33333333333334</ele><time>2026-04-01T10:59:15.571Z</time></trkpt><trkpt lat="43.052824" lon="12.250399"><ele>224.0</ele><time>2026-04-01T10:59:16.571Z</time></trkpt><trkpt lat="43.0528712" lon="12.2506163"><ele>223.5</ele><time>2026-04-01T10:59:17.573Z</time></trkpt><trkpt lat="43.0529168" lon="12.2508095"><ele>223.0</ele><time>2026-04-01T10:59:18.571Z</time></trkpt><trkpt lat="43.0529572" lon="12.2509868"><ele>222.5</ele><time>2026-04-01T10:59:19.572Z</time></trkpt><trkpt lat="43.0529948" lon="12.2511532"><ele>222.0</ele><time>2026-04-01T10:59:20.571Z</time></trkpt><trkpt lat="43.0530281" lon="12.2512886"><ele>222.0</ele><time>2026-04-01T10:59:21.57Z</time></trkpt><trkpt lat="43.0530489" lon="12.2513852"><ele>222.0</ele><time>2026-04-01T10:59:22.57Z</time></trkpt><trkpt lat="43.053066" lon="12.2514893"><ele>222.0</ele><time>2026-04-01T10:59:24.573Z</time></trkpt><trkpt lat="43.0531041" lon="12.2515953"><ele>222.0</ele><time>2026-04-01T10:59:27.572Z</time></trkpt><trkpt lat="43.0531149" lon="12.251715"><ele>222.0</ele><time>2026-04-01T10:59:29.572Z</time></trkpt><trkpt lat="43.0531237" lon="12.2518324"><ele>222.0</ele><time>2026-04-01T10:59:31.571Z</time></trkpt><trkpt lat="43.0531599" lon="12.251969"><ele>221.8</ele><time>2026-04-01T10:59:33.573Z</time></trkpt><trkpt lat="43.053187" lon="12.2521085"><ele>221.6</ele><time>2026-04-01T10:59:35.572Z</time></trkpt><trkpt lat="43.0532112" lon="12.2522228"><ele>221.40000000000003</ele><time>2026-04-01T10:59:36.571Z</time></trkpt><trkpt lat="43.0532412" lon="12.2523581"><ele>221.20000000000002</ele><time>2026-04-01T10:59:37.572Z</time></trkpt><trkpt lat="43.0532781" lon="12.25251"><ele>221.0</ele><time>2026-04-01T10:59:38.571Z</time></trkpt><trkpt lat="43.0533132" lon="12.2526794"><ele>220.33333333333334</ele><time>2026-04-01T10:59:39.572Z</time></trkpt><trkpt lat="43.0533526" lon="12.2528612"><ele>219.66666666666669</ele><time>2026-04-01T10:59:40.573Z</time></trkpt><trkpt lat="43.0533947" lon="12.2530627"><ele>219.0</ele><time>2026-04-01T10:59:41.571Z</time></trkpt><trkpt lat="43.0534497" lon="12.2532985"><ele>218.66666666666669</ele><time>2026-04-01T10:59:42.571Z</time></trkpt><trkpt lat="43.053501" lon="12.2535756"><ele>218.33333333333334</ele><time>2026-04-01T10:59:43.571Z</time></trkpt><trkpt lat="43.0535573" lon="12.2538757"><ele>218.0</ele><time>2026-04-01T10:59:44.573Z</time></trkpt><trkpt lat="43.0536315" lon="12.2542138"><ele>217.0</ele><time>2026-04-01T10:59:45.57Z</time></trkpt><trkpt lat="43.0537043" lon="12.2545522"><ele>216.0</ele><time>2026-04-01T10:59:46.571Z</time></trkpt><trkpt lat="43.0537794" lon="12.2548836"><ele>216.0</ele><time>2026-04-01T10:59:47.572Z</time></trkpt><trkpt lat="43.0538436" lon="12.2552006"><ele>216.0</ele><time>2026-04-01T10:59:48.572Z</time></trkpt><trkpt lat="43.0539098" lon="12.2555123"><ele>216.33333333333331</ele><time>2026-04-01T10:59:49.572Z</time></trkpt><trkpt lat="43.0539746" lon="12.2558125"><ele>216.66666666666666</ele><time>2026-04-01T10:59:50.572Z</time></trkpt><trkpt lat="43.0540323" lon="12.2560999"><ele>217.0</ele><time>2026-04-01T10:59:51.572Z</time></trkpt><trkpt lat="43.0540939" lon="12.2563773"><ele>217.0</ele><time>2026-04-01T10:59:52.571Z</time></trkpt><trkpt lat="43.0541548" lon="12.2566613"><ele>217.0</ele><time>2026-04-01T10:59:53.573Z</time></trkpt><trkpt lat="43.0542093" lon="12.2569302"><ele>217.0</ele><time>2026-04-01T10:59:54.572Z</time></trkpt><trkpt lat="43.0542655" lon="12.2571988"><ele>216.66666666666666</ele><time>2026-04-01T10:59:55.57Z</time></trkpt><trkpt lat="43.0543166" lon="12.2574558"><ele>216.33333333333331</ele><time>2026-04-01T10:59:56.572Z</time></trkpt><trkpt lat="43.0543657" lon="12.2576946"><ele>216.0</ele><time>2026-04-01T10:59:57.572Z</time></trkpt><trkpt lat="43.0544168" lon="12.2579162"><ele>215.75</ele><time>2026-04-01T10:59:58.571Z</time></trkpt><trkpt lat="43.0544663" lon="12.2581214"><ele>215.5</ele><time>2026-04-01T10:59:59.572Z</time></trkpt><trkpt lat="43.0545106" lon="12.2583228"><ele>215.25</ele><time>2026-04-01T11:00:00.572Z</time></trkpt><trkpt lat="43.0545406" lon="12.2584954"><ele>215.0</ele><time>2026-04-01T11:00:01.572Z</time></trkpt><trkpt lat="43.0545644" lon="12.2586691"><ele>215.00000000000003</ele><time>2026-04-01T11:00:02.573Z</time></trkpt><trkpt lat="43.0545771" lon="12.2588097"><ele>215.0</ele><time>2026-04-01T11:00:03.571Z</time></trkpt><trkpt lat="43.0545823" lon="12.2589453"><ele>215.0</ele><time>2026-04-01T11:00:04.571Z</time></trkpt><trkpt lat="43.054579" lon="12.2590633"><ele>215.0</ele><time>2026-04-01T11:00:05.572Z</time></trkpt><trkpt lat="43.0545665" lon="12.2591576"><ele>215.00000000000003</ele><time>2026-04-01T11:00:06.572Z</time></trkpt><trkpt lat="43.0545434" lon="12.2592393"><ele>215.0</ele><time>2026-04-01T11:00:07.571Z</time></trkpt><trkpt lat="43.0545078" lon="12.2593157"><ele>215.00000000000003</ele><time>2026-04-01T11:00:08.571Z</time></trkpt><trkpt lat="43.0544947" lon="12.2594482"><ele>215.0</ele><time>2026-04-01T11:00:10.297Z</time></trkpt><trkpt lat="43.0545312" lon="12.2595454"><ele>215.0</ele><time>2026-04-01T11:00:11.573Z</time></trkpt><trkpt lat="43.0545903" lon="12.2596147"><ele>215.0</ele><time>2026-04-01T11:00:12.572Z</time></trkpt><trkpt lat="43.0546623" lon="12.2596889"><ele>215.00000000000003</ele><time>2026-04-01T11:00:13.571Z</time></trkpt><trkpt lat="43.0547272" lon="12.2597911"><ele>215.0</ele><time>2026-04-01T11:00:14.572Z</time></trkpt><trkpt lat="43.054798" lon="12.2598994"><ele>215.0</ele><time>2026-04-01T11:00:15.571Z</time></trkpt><trkpt lat="43.0548491" lon="12.2600825"><ele>215.0</ele><time>2026-04-01T11:00:16.572Z</time></trkpt><trkpt lat="43.0548868" lon="12.260221"><ele>215.0</ele><time>2026-04-01T11:00:17.572Z</time></trkpt><trkpt lat="43.054921" lon="12.260357"><ele>215.0</ele><time>2026-04-01T11:00:18.572Z</time></trkpt><trkpt lat="43.0549594" lon="12.2605226"><ele>215.0</ele><time>2026-04-01T11:00:19.572Z</time></trkpt><trkpt lat="43.0549933" lon="12.260693"><ele>215.0</ele><time>2026-04-01T11:00:20.573Z</time></trkpt><trkpt lat="43.0550341" lon="12.2608716"><ele>215.0</ele><time>2026-04-01T11:00:21.573Z</time></trkpt><trkpt lat="43.0550865" lon="12.2610763"><ele>215.0</ele><time>2026-04-01T11:00:22.572Z</time></trkpt><trkpt lat="43.055145" lon="12.2613147"><ele>215.0</ele><time>2026-04-01T11:00:23.572Z</time></trkpt><trkpt lat="43.055199" lon="12.2615867"><ele>215.0</ele><time>2026-04-01T11:00:24.572Z</time></trkpt><trkpt lat="43.0552526" lon="12.2618797"><ele>215.0</ele><time>2026-04-01T11:00:25.572Z</time></trkpt><trkpt lat="43.0553091" lon="12.2621856"><ele>215.0</ele><time>2026-04-01T11:00:26.572Z</time></trkpt><trkpt lat="43.0553698" lon="12.2625076"><ele>215.0</ele><time>2026-04-01T11:00:27.572Z</time></trkpt><trkpt lat="43.0554393" lon="12.2628381"><ele>215.0</ele><time>2026-04-01T11:00:28.573Z</time></trkpt><trkpt lat="43.0555119" lon="12.2631742"><ele>215.0</ele><time>2026-04-01T11:00:29.572Z</time></trkpt><trkpt lat="43.0555872" lon="12.2635011"><ele>215.0</ele><time>2026-04-01T11:00:30.572Z</time></trkpt><trkpt lat="43.0556523" lon="12.2638106"><ele>215.0</ele><time>2026-04-01T11:00:31.572Z</time></trkpt><trkpt lat="43.0557091" lon="12.2640955"><ele>215.33333333333334</ele><time>2026-04-01T11:00:32.572Z</time></trkpt><trkpt lat="43.0557653" lon="12.2643661"><ele>215.66666666666669</ele><time>2026-04-01T11:00:33.571Z</time></trkpt><trkpt lat="43.0558277" lon="12.2646225"><ele>216.0</ele><time>2026-04-01T11:00:34.573Z</time></trkpt><trkpt lat="43.0558994" lon="12.2649091"><ele>216.5</ele><time>2026-04-01T11:00:35.572Z</time></trkpt><trkpt lat="43.0559709" lon="12.2652295"><ele>217.0</ele><time>2026-04-01T11:00:36.573Z</time></trkpt><trkpt lat="43.0560305" lon="12.2655469"><ele>216.5</ele><time>2026-04-01T11:00:37.573Z</time></trkpt><trkpt lat="43.0560854" lon="12.2658559"><ele>216.0</ele><time>2026-04-01T11:00:38.57Z</time></trkpt><trkpt lat="43.0561464" lon="12.2661526"><ele>216.0</ele><time>2026-04-01T11:00:39.572Z</time></trkpt><trkpt lat="43.0562088" lon="12.2664335"><ele>216.0</ele><time>2026-04-01T11:00:40.571Z</time></trkpt><trkpt lat="43.0562623" lon="12.2666878"><ele>216.0</ele><time>2026-04-01T11:00:41.573Z</time></trkpt><trkpt lat="43.0563154" lon="12.26693"><ele>215.66666666666669</ele><time>2026-04-01T11:00:42.572Z</time></trkpt><trkpt lat="43.0563617" lon="12.2671564"><ele>215.33333333333334</ele><time>2026-04-01T11:00:43.572Z</time></trkpt><trkpt lat="43.0564062" lon="12.2673759"><ele>215.0</ele><time>2026-04-01T11:00:44.573Z</time></trkpt><trkpt lat="43.0564533" lon="12.2675926"><ele>215.0</ele><time>2026-04-01T11:00:45.572Z</time></trkpt><trkpt lat="43.056501" lon="12.2678054"><ele>215.0</ele><time>2026-04-01T11:00:46.572Z</time></trkpt><trkpt lat="43.0565453" lon="12.2680203"><ele>215.0</ele><time>2026-04-01T11:00:47.572Z</time></trkpt><trkpt lat="43.0566092" lon="12.2682438"><ele>215.0</ele><time>2026-04-01T11:00:48.572Z</time></trkpt><trkpt lat="43.0566988" lon="12.2685022"><ele>215.0</ele><time>2026-04-01T11:00:49.572Z</time></trkpt><trkpt lat="43.056774" lon="12.2687627"><ele>215.0</ele><time>2026-04-01T11:00:50.572Z</time></trkpt><trkpt lat="43.056858" lon="12.2690566"><ele>214.0</ele><time>2026-04-01T11:00:51.572Z</time></trkpt><trkpt lat="43.0569607" lon="12.2693528"><ele>213.0</ele><time>2026-04-01T11:00:52.571Z</time></trkpt><trkpt lat="43.0570965" lon="12.2696513"><ele>212.0</ele><time>2026-04-01T11:00:53.573Z</time></trkpt><trkpt lat="43.0572489" lon="12.2699447"><ele>211.0</ele><time>2026-04-01T11:00:54.572Z</time></trkpt><trkpt lat="43.0574228" lon="12.2702314"><ele>211.5</ele><time>2026-04-01T11:00:55.572Z</time></trkpt><trkpt lat="43.0575965" lon="12.2704998"><ele>212.0</ele><time>2026-04-01T11:00:56.573Z</time></trkpt><trkpt lat="43.0577745" lon="12.2707547"><ele>212.0</ele><time>2026-04-01T11:00:57.573Z</time></trkpt><trkpt lat="43.0579503" lon="12.2710022"><ele>212.0</ele><time>2026-04-01T11:00:58.573Z</time></trkpt><trkpt lat="43.0581286" lon="12.2712496"><ele>213.0</ele><time>2026-04-01T11:00:59.572Z</time></trkpt><trkpt lat="43.0583013" lon="12.2714954"><ele>214.0</ele><time>2026-04-01T11:01:00.572Z</time></trkpt><trkpt lat="43.0584804" lon="12.2717462"><ele>214.0</ele><time>2026-04-01T11:01:01.571Z</time></trkpt><trkpt lat="43.0586441" lon="12.27198"><ele>214.0</ele><time>2026-04-01T11:01:02.572Z</time></trkpt><trkpt lat="43.0587989" lon="12.2721882"><ele>213.66666666666666</ele><time>2026-04-01T11:01:03.572Z</time></trkpt><trkpt lat="43.0589385" lon="12.2723818"><ele>213.33333333333331</ele><time>2026-04-01T11:01:04.571Z</time></trkpt><trkpt lat="43.0590723" lon="12.2725647"><ele>213.0</ele><time>2026-04-01T11:01:05.572Z</time></trkpt><trkpt lat="43.0591934" lon="12.27272"><ele>213.0</ele><time>2026-04-01T11:01:06.571Z</time></trkpt><trkpt lat="43.0593227" lon="12.2728941"><ele>213.0</ele><time>2026-04-01T11:01:07.571Z</time></trkpt><trkpt lat="43.0594622" lon="12.2730954"><ele>213.0</ele><time>2026-04-01T11:01:08.572Z</time></trkpt><trkpt lat="43.0596024" lon="12.2733128"><ele>213.0</ele><time>2026-04-01T11:01:09.571Z</time></trkpt><trkpt lat="43.0597345" lon="12.273609"><ele>213.0</ele><time>2026-04-01T11:01:10.572Z</time></trkpt><trkpt lat="43.0598727" lon="12.2739145"><ele>212.5</ele><time>2026-04-01T11:01:11.572Z</time></trkpt><trkpt lat="43.0599983" lon="12.2742333"><ele>212.0</ele><time>2026-04-01T11:01:12.572Z</time></trkpt><trkpt lat="43.0601012" lon="12.2745885"><ele>212.0</ele><time>2026-04-01T11:01:13.572Z</time></trkpt><trkpt lat="43.0601685" lon="12.2749048"><ele>212.0</ele><time>2026-04-01T11:01:14.573Z</time></trkpt><trkpt lat="43.0602315" lon="12.2751684"><ele>212.0</ele><time>2026-04-01T11:01:15.573Z</time></trkpt><trkpt lat="43.0602801" lon="12.2753766"><ele>212.0</ele><time>2026-04-01T11:01:16.572Z</time></trkpt><trkpt lat="43.0603169" lon="12.2755705"><ele>212.0</ele><time>2026-04-01T11:01:17.572Z</time></trkpt><trkpt lat="43.0603304" lon="12.2757668"><ele>212.0</ele><time>2026-04-01T11:01:18.572Z</time></trkpt><trkpt lat="43.0603388" lon="12.2759739"><ele>212.0</ele><time>2026-04-01T11:01:19.571Z</time></trkpt><trkpt lat="43.0603452" lon="12.276202"><ele>212.0</ele><time>2026-04-01T11:01:20.572Z</time></trkpt><trkpt lat="43.0603191" lon="12.2764622"><ele>212.0</ele><time>2026-04-01T11:01:21.572Z</time></trkpt><trkpt lat="43.0602802" lon="12.27674"><ele>212.0</ele><time>2026-04-01T11:01:22.572Z</time></trkpt><trkpt lat="43.0602237" lon="12.2770548"><ele>211.5</ele><time>2026-04-01T11:01:23.572Z</time></trkpt><trkpt lat="43.0601719" lon="12.2773839"><ele>211.0</ele><time>2026-04-01T11:01:24.573Z</time></trkpt><trkpt lat="43.060109" lon="12.2777213"><ele>211.0</ele><time>2026-04-01T11:01:25.572Z</time></trkpt><trkpt lat="43.0600415" lon="12.2780724"><ele>211.0</ele><time>2026-04-01T11:01:26.573Z</time></trkpt><trkpt lat="43.0599696" lon="12.2784431"><ele>211.0</ele><time>2026-04-01T11:01:27.573Z</time></trkpt><trkpt lat="43.0598973" lon="12.2788135"><ele>211.0</ele><time>2026-04-01T11:01:28.573Z</time></trkpt><trkpt lat="43.0598264" lon="12.2791804"><ele>211.0</ele><time>2026-04-01T11:01:29.571Z</time></trkpt><trkpt lat="43.0597548" lon="12.2795406"><ele>211.0</ele><time>2026-04-01T11:01:30.572Z</time></trkpt><trkpt lat="43.0596817" lon="12.2798913"><ele>211.5</ele><time>2026-04-01T11:01:31.573Z</time></trkpt><trkpt lat="43.0596164" lon="12.2802288"><ele>212.0</ele><time>2026-04-01T11:01:32.572Z</time></trkpt><trkpt lat="43.0595425" lon="12.2805559"><ele>212.0</ele><time>2026-04-01T11:01:33.572Z</time></trkpt><trkpt lat="43.0594762" lon="12.2808554"><ele>212.0</ele><time>2026-04-01T11:01:34.572Z</time></trkpt><trkpt lat="43.0594107" lon="12.2811421"><ele>212.0</ele><time>2026-04-01T11:01:35.573Z</time></trkpt><trkpt lat="43.0593494" lon="12.2813894"><ele>212.0</ele><time>2026-04-01T11:01:36.572Z</time></trkpt><trkpt lat="43.0592837" lon="12.2816216"><ele>212.0</ele><time>2026-04-01T11:01:37.571Z</time></trkpt><trkpt lat="43.0592432" lon="12.2818468"><ele>212.0</ele><time>2026-04-01T11:01:38.561Z</time></trkpt><trkpt lat="43.0591347" lon="12.2822658"><ele>212.33333333333334</ele><time>2026-04-01T11:01:40.571Z</time></trkpt><trkpt lat="43.059082" lon="12.2824789"><ele>212.66666666666669</ele><time>2026-04-01T11:01:41.573Z</time></trkpt><trkpt lat="43.0590313" lon="12.282698"><ele>213.0</ele><time>2026-04-01T11:01:42.571Z</time></trkpt><trkpt lat="43.0589762" lon="12.282922"><ele>213.0</ele><time>2026-04-01T11:01:43.572Z</time></trkpt><trkpt lat="43.0589252" lon="12.2831391"><ele>213.0</ele><time>2026-04-01T11:01:44.573Z</time></trkpt><trkpt lat="43.0588736" lon="12.2833545"><ele>213.0</ele><time>2026-04-01T11:01:45.572Z</time></trkpt><trkpt lat="43.0588224" lon="12.2835706"><ele>213.0</ele><time>2026-04-01T11:01:46.573Z</time></trkpt><trkpt lat="43.0587715" lon="12.2837791"><ele>213.0</ele><time>2026-04-01T11:01:47.571Z</time></trkpt><trkpt lat="43.0587229" lon="12.284002"><ele>213.0</ele><time>2026-04-01T11:01:48.572Z</time></trkpt><trkpt lat="43.0586783" lon="12.2842335"><ele>213.0</ele><time>2026-04-01T11:01:49.573Z</time></trkpt><trkpt lat="43.058642" lon="12.2844664"><ele>213.0</ele><time>2026-04-01T11:01:50.572Z</time></trkpt><trkpt lat="43.0586129" lon="12.2847144"><ele>213.0</ele><time>2026-04-01T11:01:51.572Z</time></trkpt><trkpt lat="43.0585945" lon="12.2849635"><ele>213.33333333333331</ele><time>2026-04-01T11:01:52.571Z</time></trkpt><trkpt lat="43.0585763" lon="12.2852113"><ele>213.66666666666666</ele><time>2026-04-01T11:01:53.573Z</time></trkpt><trkpt lat="43.0585972" lon="12.2854905"><ele>214.0</ele><time>2026-04-01T11:01:54.571Z</time></trkpt><trkpt lat="43.0586185" lon="12.2857558"><ele>214.0</ele><time>2026-04-01T11:01:55.573Z</time></trkpt><trkpt lat="43.0586716" lon="12.2860317"><ele>214.0</ele><time>2026-04-01T11:01:56.572Z</time></trkpt><trkpt lat="43.0587443" lon="12.2863277"><ele>214.0</ele><time>2026-04-01T11:01:57.572Z</time></trkpt><trkpt lat="43.0588061" lon="12.2866403"><ele>214.5</ele><time>2026-04-01T11:01:58.572Z</time></trkpt><trkpt lat="43.0588758" lon="12.2869927"><ele>215.0</ele><time>2026-04-01T11:01:59.572Z</time></trkpt><trkpt lat="43.0589648" lon="12.2873709"><ele>216.5</ele><time>2026-04-01T11:02:00.572Z</time></trkpt><trkpt lat="43.0590607" lon="12.2877589"><ele>218.0</ele><time>2026-04-01T11:02:01.572Z</time></trkpt><trkpt lat="43.0591615" lon="12.2881619"><ele>218.0</ele><time>2026-04-01T11:02:02.572Z</time></trkpt><trkpt lat="43.059266" lon="12.2885724"><ele>218.0</ele><time>2026-04-01T11:02:03.572Z</time></trkpt><trkpt lat="43.0593658" lon="12.2889886"><ele>218.5</ele><time>2026-04-01T11:02:04.572Z</time></trkpt><trkpt lat="43.0594529" lon="12.2893864"><ele>219.0</ele><time>2026-04-01T11:02:05.572Z</time></trkpt><trkpt lat="43.0595355" lon="12.2897586"><ele>220.5</ele><time>2026-04-01T11:02:06.573Z</time></trkpt><trkpt lat="43.0596133" lon="12.2901186"><ele>222.0</ele><time>2026-04-01T11:02:07.573Z</time></trkpt><trkpt lat="43.0596977" lon="12.2904717"><ele>222.5</ele><time>2026-04-01T11:02:08.572Z</time></trkpt><trkpt lat="43.059778" lon="12.2908135"><ele>223.0</ele><time>2026-04-01T11:02:09.571Z</time></trkpt><trkpt lat="43.0598632" lon="12.2911299"><ele>223.5</ele><time>2026-04-01T11:02:10.571Z</time></trkpt><trkpt lat="43.0599381" lon="12.2914393"><ele>224.0</ele><time>2026-04-01T11:02:11.572Z</time></trkpt><trkpt lat="43.060013" lon="12.2917437"><ele>224.5</ele><time>2026-04-01T11:02:12.572Z</time></trkpt><trkpt lat="43.0600868" lon="12.2920491"><ele>225.0</ele><time>2026-04-01T11:02:13.573Z</time></trkpt><trkpt lat="43.0601674" lon="12.2923269"><ele>225.0</ele><time>2026-04-01T11:02:14.572Z</time></trkpt><trkpt lat="43.0602535" lon="12.2925912"><ele>225.0</ele><time>2026-04-01T11:02:15.572Z</time></trkpt><trkpt lat="43.0603467" lon="12.2928509"><ele>225.0</ele><time>2026-04-01T11:02:16.572Z</time></trkpt><trkpt lat="43.0604517" lon="12.2931019"><ele>225.33333333333331</ele><time>2026-04-01T11:02:17.573Z</time></trkpt><trkpt lat="43.0605463" lon="12.2933324"><ele>225.66666666666666</ele><time>2026-04-01T11:02:18.572Z</time></trkpt><trkpt lat="43.0606304" lon="12.2935368"><ele>226.0</ele><time>2026-04-01T11:02:19.573Z</time></trkpt><trkpt lat="43.060715" lon="12.2937052"><ele>226.5</ele><time>2026-04-01T11:02:20.572Z</time></trkpt><trkpt lat="43.0607961" lon="12.2938772"><ele>227.0</ele><time>2026-04-01T11:02:21.572Z</time></trkpt><trkpt lat="43.0608729" lon="12.2940374"><ele>227.5</ele><time>2026-04-01T11:02:22.572Z</time></trkpt><trkpt lat="43.0609381" lon="12.2942"><ele>228.0</ele><time>2026-04-01T11:02:23.572Z</time></trkpt><trkpt lat="43.0610095" lon="12.294354"><ele>228.0</ele><time>2026-04-01T11:02:24.573Z</time></trkpt><trkpt lat="43.061091" lon="12.2945137"><ele>228.0</ele><time>2026-04-01T11:02:25.571Z</time></trkpt><trkpt lat="43.0611635" lon="12.2946693"><ele>228.0</ele><time>2026-04-01T11:02:26.572Z</time></trkpt><trkpt lat="43.0612259" lon="12.2948278"><ele>228.0</ele><time>2026-04-01T11:02:27.572Z</time></trkpt><trkpt lat="43.0612899" lon="12.2949795"><ele>228.75</ele><time>2026-04-01T11:02:28.572Z</time></trkpt><trkpt lat="43.0613534" lon="12.295133"><ele>229.5</ele><time>2026-04-01T11:02:29.573Z</time></trkpt><trkpt lat="43.0614176" lon="12.2952886"><ele>230.25</ele><time>2026-04-01T11:02:30.571Z</time></trkpt><trkpt lat="43.0614889" lon="12.2954366"><ele>231.0</ele><time>2026-04-01T11:02:31.574Z</time></trkpt><trkpt lat="43.0615664" lon="12.2955993"><ele>232.25</ele><time>2026-04-01T11:02:32.573Z</time></trkpt><trkpt lat="43.0616386" lon="12.2957546"><ele>233.5</ele><time>2026-04-01T11:02:33.573Z</time></trkpt><trkpt lat="43.0617099" lon="12.2958833"><ele>234.75</ele><time>2026-04-01T11:02:34.573Z</time></trkpt><trkpt lat="43.0617795" lon="12.2960317"><ele>236.0</ele><time>2026-04-01T11:02:35.573Z</time></trkpt><trkpt lat="43.0618395" lon="12.2961773"><ele>236.0</ele><time>2026-04-01T11:02:36.572Z</time></trkpt><trkpt lat="43.0619062" lon="12.2963337"><ele>236.0</ele><time>2026-04-01T11:02:37.573Z</time></trkpt><trkpt lat="43.0619728" lon="12.2964873"><ele>236.0</ele><time>2026-04-01T11:02:38.571Z</time></trkpt><trkpt lat="43.0620412" lon="12.2966464"><ele>236.0</ele><time>2026-04-01T11:02:39.574Z</time></trkpt><trkpt lat="43.0621355" lon="12.2968563"><ele>236.33333333333334</ele><time>2026-04-01T11:02:40.572Z</time></trkpt><trkpt lat="43.0622175" lon="12.2970654"><ele>236.66666666666669</ele><time>2026-04-01T11:02:41.572Z</time></trkpt><trkpt lat="43.0622952" lon="12.2972415"><ele>237.0</ele><time>2026-04-01T11:02:42.572Z</time></trkpt><trkpt lat="43.0623809" lon="12.2974171"><ele>237.2</ele><time>2026-04-01T11:02:43.573Z</time></trkpt><trkpt lat="43.0624429" lon="12.297557"><ele>237.39999999999998</ele><time>2026-04-01T11:02:44.572Z</time></trkpt><trkpt lat="43.0624977" lon="12.2976758"><ele>237.60000000000002</ele><time>2026-04-01T11:02:45.573Z</time></trkpt><trkpt lat="43.0625464" lon="12.2977694"><ele>237.8</ele><time>2026-04-01T11:02:46.571Z</time></trkpt><trkpt lat="43.0625885" lon="12.297857"><ele>238.0</ele><time>2026-04-01T11:02:47.573Z</time></trkpt><trkpt lat="43.0626493" lon="12.297981"><ele>238.0</ele><time>2026-04-01T11:02:49.572Z</time></trkpt><trkpt lat="43.0626842" lon="12.2980709"><ele>238.0</ele><time>2026-04-01T11:02:50.573Z</time></trkpt><trkpt lat="43.0627404" lon="12.2981938"><ele>238.0</ele><time>2026-04-01T11:02:51.573Z</time></trkpt><trkpt lat="43.062803" lon="12.29835"><ele>238.0</ele><time>2026-04-01T11:02:52.573Z</time></trkpt><trkpt lat="43.0628792" lon="12.2985307"><ele>238.0</ele><time>2026-04-01T11:02:53.573Z</time></trkpt><trkpt lat="43.0629699" lon="12.2987043"><ele>238.0</ele><time>2026-04-01T11:02:54.571Z</time></trkpt><trkpt lat="43.0630651" lon="12.2989147"><ele>238.0</ele><time>2026-04-01T11:02:55.571Z</time></trkpt><trkpt lat="43.0631771" lon="12.2991547"><ele>237.5</ele><time>2026-04-01T11:02:56.572Z</time></trkpt><trkpt lat="43.0632879" lon="12.2994109"><ele>237.0</ele><time>2026-04-01T11:02:57.573Z</time></trkpt><trkpt lat="43.0634107" lon="12.2996866"><ele>236.5</ele><time>2026-04-01T11:02:58.572Z</time></trkpt><trkpt lat="43.0635373" lon="12.2999659"><ele>236.0</ele><time>2026-04-01T11:02:59.571Z</time></trkpt><trkpt lat="43.0636694" lon="12.3002534"><ele>236.0</ele><time>2026-04-01T11:03:00.573Z</time></trkpt><trkpt lat="43.0637929" lon="12.3005361"><ele>236.0</ele><time>2026-04-01T11:03:01.573Z</time></trkpt><trkpt lat="43.0639079" lon="12.3007886"><ele>236.33333333333334</ele><time>2026-04-01T11:03:02.572Z</time></trkpt><trkpt lat="43.0640204" lon="12.3010447"><ele>236.66666666666669</ele><time>2026-04-01T11:03:03.574Z</time></trkpt><trkpt lat="43.0641256" lon="12.30129"><ele>237.0</ele><time>2026-04-01T11:03:04.572Z</time></trkpt><trkpt lat="43.0642309" lon="12.3015446"><ele>237.66666666666669</ele><time>2026-04-01T11:03:05.572Z</time></trkpt><trkpt lat="43.0643431" lon="12.3017941"><ele>238.33333333333334</ele><time>2026-04-01T11:03:06.574Z</time></trkpt><trkpt lat="43.0644619" lon="12.3020324"><ele>239.0</ele><time>2026-04-01T11:03:07.573Z</time></trkpt><trkpt lat="43.0645697" lon="12.3022859"><ele>239.0</ele><time>2026-04-01T11:03:08.571Z</time></trkpt><trkpt lat="43.0646796" lon="12.3025229"><ele>239.0</ele><time>2026-04-01T11:03:09.573Z</time></trkpt><trkpt lat="43.064779" lon="12.3027538"><ele>239.0</ele><time>2026-04-01T11:03:10.573Z</time></trkpt><trkpt lat="43.0648796" lon="12.3029832"><ele>239.0</ele><time>2026-04-01T11:03:11.573Z</time></trkpt><trkpt lat="43.0649767" lon="12.3031985"><ele>239.0</ele><time>2026-04-01T11:03:12.573Z</time></trkpt><trkpt lat="43.0650723" lon="12.3034344"><ele>239.0</ele><time>2026-04-01T11:03:13.572Z</time></trkpt><trkpt lat="43.0651679" lon="12.3036779"><ele>238.0</ele><time>2026-04-01T11:03:14.572Z</time></trkpt><trkpt lat="43.0652751" lon="12.3039238"><ele>237.0</ele><time>2026-04-01T11:03:15.573Z</time></trkpt><trkpt lat="43.0654052" lon="12.3042025"><ele>237.0</ele><time>2026-04-01T11:03:16.574Z</time></trkpt><trkpt lat="43.0655358" lon="12.3044916"><ele>237.0</ele><time>2026-04-01T11:03:17.572Z</time></trkpt><trkpt lat="43.0656677" lon="12.3047847"><ele>237.0</ele><time>2026-04-01T11:03:18.573Z</time></trkpt><trkpt lat="43.065803" lon="12.3050845"><ele>237.0</ele><time>2026-04-01T11:03:19.574Z</time></trkpt><trkpt lat="43.0659334" lon="12.3053819"><ele>238.0</ele><time>2026-04-01T11:03:20.572Z</time></trkpt><trkpt lat="43.0660524" lon="12.3056538"><ele>239.0</ele><time>2026-04-01T11:03:21.573Z</time></trkpt><trkpt lat="43.0661698" lon="12.3059241"><ele>239.0</ele><time>2026-04-01T11:03:22.572Z</time></trkpt><trkpt lat="43.0662734" lon="12.3061734"><ele>239.0</ele><time>2026-04-01T11:03:23.573Z</time></trkpt><trkpt lat="43.0663911" lon="12.3064348"><ele>239.0</ele><time>2026-04-01T11:03:24.573Z</time></trkpt><trkpt lat="43.0665046" lon="12.3066959"><ele>240.33333333333334</ele><time>2026-04-01T11:03:25.574Z</time></trkpt><trkpt lat="43.0666154" lon="12.3069795"><ele>241.66666666666669</ele><time>2026-04-01T11:03:26.573Z</time></trkpt><trkpt lat="43.0667172" lon="12.3072213"><ele>243.0</ele><time>2026-04-01T11:03:27.573Z</time></trkpt><trkpt lat="43.0668129" lon="12.3074346"><ele>243.33333333333331</ele><time>2026-04-01T11:03:28.573Z</time></trkpt><trkpt lat="43.066901" lon="12.3076471"><ele>243.66666666666666</ele><time>2026-04-01T11:03:29.573Z</time></trkpt><trkpt lat="43.0669816" lon="12.3078263"><ele>244.0</ele><time>2026-04-01T11:03:30.572Z</time></trkpt><trkpt lat="43.0670705" lon="12.3080008"><ele>245.0</ele><time>2026-04-01T11:03:31.574Z</time></trkpt><trkpt lat="43.0671624" lon="12.3081779"><ele>246.0</ele><time>2026-04-01T11:03:32.571Z</time></trkpt><trkpt lat="43.0672493" lon="12.3083885"><ele>247.0</ele><time>2026-04-01T11:03:33.573Z</time></trkpt><trkpt lat="43.0673632" lon="12.3086407"><ele>246.5</ele><time>2026-04-01T11:03:34.571Z</time></trkpt><trkpt lat="43.0674828" lon="12.3089083"><ele>246.0</ele><time>2026-04-01T11:03:35.574Z</time></trkpt><trkpt lat="43.0676087" lon="12.309191"><ele>246.0</ele><time>2026-04-01T11:03:36.573Z</time></trkpt><trkpt lat="43.0677416" lon="12.3094527"><ele>246.0</ele><time>2026-04-01T11:03:37.572Z</time></trkpt><trkpt lat="43.0678592" lon="12.3097149"><ele>244.0</ele><time>2026-04-01T11:03:38.574Z</time></trkpt><trkpt lat="43.0679692" lon="12.309965"><ele>242.0</ele><time>2026-04-01T11:03:39.573Z</time></trkpt><trkpt lat="43.0680764" lon="12.3101924"><ele>240.0</ele><time>2026-04-01T11:03:40.574Z</time></trkpt><trkpt lat="43.0681813" lon="12.3104076"><ele>240.0</ele><time>2026-04-01T11:03:41.573Z</time></trkpt><trkpt lat="43.068272" lon="12.3106096"><ele>240.0</ele><time>2026-04-01T11:03:42.572Z</time></trkpt><trkpt lat="43.0683488" lon="12.3107936"><ele>240.0</ele><time>2026-04-01T11:03:43.572Z</time></trkpt><trkpt lat="43.0684146" lon="12.310968"><ele>240.0</ele><time>2026-04-01T11:03:44.572Z</time></trkpt><trkpt lat="43.0684568" lon="12.3111611"><ele>240.0</ele><time>2026-04-01T11:03:45.573Z</time></trkpt><trkpt lat="43.0684736" lon="12.3113442"><ele>240.0</ele><time>2026-04-01T11:03:46.571Z</time></trkpt><trkpt lat="43.068468" lon="12.3115148"><ele>240.0</ele><time>2026-04-01T11:03:47.572Z</time></trkpt><trkpt lat="43.0684545" lon="12.3116642"><ele>239.8</ele><time>2026-04-01T11:03:48.573Z</time></trkpt><trkpt lat="43.0684665" lon="12.3117928"><ele>239.6</ele><time>2026-04-01T11:03:49.572Z</time></trkpt><trkpt lat="43.0685119" lon="12.3118931"><ele>239.39999999999998</ele><time>2026-04-01T11:03:50.572Z</time></trkpt><trkpt lat="43.0685837" lon="12.3119574"><ele>239.2</ele><time>2026-04-01T11:03:51.571Z</time></trkpt><trkpt lat="43.0686818" lon="12.3119997"><ele>239.0</ele><time>2026-04-01T11:03:52.574Z</time></trkpt><trkpt lat="43.0687958" lon="12.3120601"><ele>239.0</ele><time>2026-04-01T11:03:53.572Z</time></trkpt><trkpt lat="43.0689102" lon="12.3121741"><ele>239.0</ele><time>2026-04-01T11:03:54.572Z</time></trkpt><trkpt lat="43.0690205" lon="12.3123092"><ele>239.0</ele><time>2026-04-01T11:03:55.572Z</time></trkpt><trkpt lat="43.0691291" lon="12.3125358"><ele>239.0</ele><time>2026-04-01T11:03:56.574Z</time></trkpt><trkpt lat="43.0692582" lon="12.3127731"><ele>239.0</ele><time>2026-04-01T11:03:57.573Z</time></trkpt><trkpt lat="43.0693862" lon="12.313048"><ele>236.0</ele><time>2026-04-01T11:03:58.573Z</time></trkpt><trkpt lat="43.069525" lon="12.3133342"><ele>233.0</ele><time>2026-04-01T11:03:59.572Z</time></trkpt><trkpt lat="43.069648" lon="12.3136018"><ele>233.0</ele><time>2026-04-01T11:04:00.573Z</time></trkpt><trkpt lat="43.0697643" lon="12.3138475"><ele>233.0</ele><time>2026-04-01T11:04:01.573Z</time></trkpt><trkpt lat="43.0698657" lon="12.3140748"><ele>233.0</ele><time>2026-04-01T11:04:02.571Z</time></trkpt><trkpt lat="43.069967" lon="12.3143018"><ele>233.33333333333334</ele><time>2026-04-01T11:04:03.573Z</time></trkpt><trkpt lat="43.070058" lon="12.3145092"><ele>233.66666666666669</ele><time>2026-04-01T11:04:04.573Z</time></trkpt><trkpt lat="43.07015" lon="12.3147066"><ele>234.0</ele><time>2026-04-01T11:04:05.573Z</time></trkpt><trkpt lat="43.0702355" lon="12.3148928"><ele>235.0</ele><time>2026-04-01T11:04:06.572Z</time></trkpt><trkpt lat="43.0703157" lon="12.3150752"><ele>236.0</ele><time>2026-04-01T11:04:07.572Z</time></trkpt><trkpt lat="43.0704012" lon="12.315261"><ele>237.0</ele><time>2026-04-01T11:04:08.573Z</time></trkpt><trkpt lat="43.0704904" lon="12.3154578"><ele>238.0</ele><time>2026-04-01T11:04:09.572Z</time></trkpt><trkpt lat="43.0705757" lon="12.3156446"><ele>239.0</ele><time>2026-04-01T11:04:10.573Z</time></trkpt><trkpt lat="43.0706645" lon="12.315837"><ele>240.0</ele><time>2026-04-01T11:04:11.574Z</time></trkpt><trkpt lat="43.070741" lon="12.3160077"><ele>239.75</ele><time>2026-04-01T11:04:12.573Z</time></trkpt><trkpt lat="43.0708158" lon="12.3161771"><ele>239.5</ele><time>2026-04-01T11:04:13.573Z</time></trkpt><trkpt lat="43.0708757" lon="12.3163276"><ele>239.25</ele><time>2026-04-01T11:04:14.573Z</time></trkpt><trkpt lat="43.0709439" lon="12.3164742"><ele>239.0</ele><time>2026-04-01T11:04:15.573Z</time></trkpt><trkpt lat="43.0709973" lon="12.3165969"><ele>239.00000000000003</ele><time>2026-04-01T11:04:16.573Z</time></trkpt><trkpt lat="43.071063" lon="12.3166997"><ele>239.0</ele><time>2026-04-01T11:04:17.573Z</time></trkpt><trkpt lat="43.0711073" lon="12.3168062"><ele>239.0</ele><time>2026-04-01T11:04:18.572Z</time></trkpt><trkpt lat="43.0711487" lon="12.316899"><ele>239.0</ele><time>2026-04-01T11:04:19.574Z</time></trkpt><trkpt lat="43.0711871" lon="12.3169848"><ele>239.00000000000003</ele><time>2026-04-01T11:04:20.573Z</time></trkpt><trkpt lat="43.0712044" lon="12.317082"><ele>239.0</ele><time>2026-04-01T11:04:21.574Z</time></trkpt><trkpt lat="43.0712127" lon="12.3171922"><ele>239.16666666666669</ele><time>2026-04-01T11:04:22.572Z</time></trkpt><trkpt lat="43.0712188" lon="12.3172888"><ele>239.33333333333334</ele><time>2026-04-01T11:04:23.572Z</time></trkpt><trkpt lat="43.071247" lon="12.317391"><ele>239.5</ele><time>2026-04-01T11:04:24.573Z</time></trkpt><trkpt lat="43.0713004" lon="12.3174928"><ele>239.66666666666669</ele><time>2026-04-01T11:04:25.573Z</time></trkpt><trkpt lat="43.0713756" lon="12.317581"><ele>239.83333333333334</ele><time>2026-04-01T11:04:26.572Z</time></trkpt><trkpt lat="43.071458" lon="12.3176649"><ele>240.0</ele><time>2026-04-01T11:04:27.573Z</time></trkpt><trkpt lat="43.0715342" lon="12.3177534"><ele>240.0</ele><time>2026-04-01T11:04:28.574Z</time></trkpt><trkpt lat="43.0715919" lon="12.3178568"><ele>240.0</ele><time>2026-04-01T11:04:29.572Z</time></trkpt><trkpt lat="43.0716527" lon="12.3179735"><ele>240.0</ele><time>2026-04-01T11:04:30.573Z</time></trkpt><trkpt lat="43.0717205" lon="12.3181131"><ele>240.0</ele><time>2026-04-01T11:04:31.572Z</time></trkpt><trkpt lat="43.0717835" lon="12.3182659"><ele>240.25</ele><time>2026-04-01T11:04:32.573Z</time></trkpt><trkpt lat="43.0718598" lon="12.3184254"><ele>240.5</ele><time>2026-04-01T11:04:33.573Z</time></trkpt><trkpt lat="43.0719204" lon="12.3185672"><ele>240.75</ele><time>2026-04-01T11:04:34.573Z</time></trkpt><trkpt lat="43.0719747" lon="12.3186836"><ele>241.0</ele><time>2026-04-01T11:04:35.574Z</time></trkpt><trkpt lat="43.0720362" lon="12.3187961"><ele>241.20000000000002</ele><time>2026-04-01T11:04:36.571Z</time></trkpt><trkpt lat="43.0720925" lon="12.3189159"><ele>241.40000000000003</ele><time>2026-04-01T11:04:37.573Z</time></trkpt><trkpt lat="43.072151" lon="12.3190268"><ele>241.6</ele><time>2026-04-01T11:04:38.573Z</time></trkpt><trkpt lat="43.0722067" lon="12.3191396"><ele>241.8</ele><time>2026-04-01T11:04:39.572Z</time></trkpt><trkpt lat="43.0722751" lon="12.3192686"><ele>242.0</ele><time>2026-04-01T11:04:40.572Z</time></trkpt><trkpt lat="43.0723378" lon="12.319412"><ele>242.0</ele><time>2026-04-01T11:04:41.573Z</time></trkpt><trkpt lat="43.0724082" lon="12.3195725"><ele>242.0</ele><time>2026-04-01T11:04:42.571Z</time></trkpt><trkpt lat="43.0724979" lon="12.3197574"><ele>242.0</ele><time>2026-04-01T11:04:43.573Z</time></trkpt><trkpt lat="43.0725874" lon="12.3199482"><ele>242.25</ele><time>2026-04-01T11:04:44.573Z</time></trkpt><trkpt lat="43.072667" lon="12.3201145"><ele>242.5</ele><time>2026-04-01T11:04:45.574Z</time></trkpt><trkpt lat="43.072737" lon="12.320262"><ele>242.75</ele><time>2026-04-01T11:04:46.572Z</time></trkpt><trkpt lat="43.0727898" lon="12.3203865"><ele>243.0</ele><time>2026-04-01T11:04:47.572Z</time></trkpt><trkpt lat="43.0728443" lon="12.3205095"><ele>243.4</ele><time>2026-04-01T11:04:48.574Z</time></trkpt><trkpt lat="43.0728922" lon="12.3206179"><ele>243.8</ele><time>2026-04-01T11:04:49.572Z</time></trkpt><trkpt lat="43.0729397" lon="12.3207134"><ele>244.2</ele><time>2026-04-01T11:04:50.575Z</time></trkpt><trkpt lat="43.0729988" lon="12.3208397"><ele>244.6</ele><time>2026-04-01T11:04:51.574Z</time></trkpt><trkpt lat="43.0730631" lon="12.3209738"><ele>245.0</ele><time>2026-04-01T11:04:52.573Z</time></trkpt><trkpt lat="43.0731257" lon="12.3211032"><ele>245.0</ele><time>2026-04-01T11:04:53.574Z</time></trkpt><trkpt lat="43.0731918" lon="12.3212489"><ele>245.0</ele><time>2026-04-01T11:04:54.574Z</time></trkpt><trkpt lat="43.0732616" lon="12.3213917"><ele>245.0</ele><time>2026-04-01T11:04:55.573Z</time></trkpt><trkpt lat="43.0733308" lon="12.3215068"><ele>245.0</ele><time>2026-04-01T11:04:56.573Z</time></trkpt><trkpt lat="43.0734009" lon="12.3216448"><ele>246.0</ele><time>2026-04-01T11:04:57.572Z</time></trkpt><trkpt lat="43.0734552" lon="12.3217828"><ele>247.0</ele><time>2026-04-01T11:04:58.573Z</time></trkpt><trkpt lat="43.0735225" lon="12.3219364"><ele>248.0</ele><time>2026-04-01T11:04:59.573Z</time></trkpt><trkpt lat="43.0735919" lon="12.3220841"><ele>249.0</ele><time>2026-04-01T11:05:00.574Z</time></trkpt><trkpt lat="43.0736684" lon="12.3222422"><ele>249.0</ele><time>2026-04-01T11:05:01.574Z</time></trkpt><trkpt lat="43.0737454" lon="12.3224013"><ele>249.0</ele><time>2026-04-01T11:05:02.574Z</time></trkpt><trkpt lat="43.0738191" lon="12.3225774"><ele>249.0</ele><time>2026-04-01T11:05:03.573Z</time></trkpt><trkpt lat="43.0738982" lon="12.3227604"><ele>249.0</ele><time>2026-04-01T11:05:04.573Z</time></trkpt><trkpt lat="43.0739794" lon="12.3229317"><ele>249.25</ele><time>2026-04-01T11:05:05.574Z</time></trkpt><trkpt lat="43.0740587" lon="12.3230931"><ele>249.5</ele><time>2026-04-01T11:05:06.573Z</time></trkpt><trkpt lat="43.0741358" lon="12.3232572"><ele>249.75</ele><time>2026-04-01T11:05:07.573Z</time></trkpt><trkpt lat="43.0742058" lon="12.3234019"><ele>250.0</ele><time>2026-04-01T11:05:08.572Z</time></trkpt><trkpt lat="43.0742745" lon="12.3235645"><ele>250.25</ele><time>2026-04-01T11:05:09.574Z</time></trkpt><trkpt lat="43.07434" lon="12.3237137"><ele>250.5</ele><time>2026-04-01T11:05:10.573Z</time></trkpt><trkpt lat="43.0743957" lon="12.3238496"><ele>250.75</ele><time>2026-04-01T11:05:11.572Z</time></trkpt><trkpt lat="43.0744601" lon="12.3239977"><ele>251.0</ele><time>2026-04-01T11:05:12.574Z</time></trkpt><trkpt lat="43.0745503" lon="12.3241761"><ele>251.0</ele><time>2026-04-01T11:05:13.573Z</time></trkpt><trkpt lat="43.0746489" lon="12.3243553"><ele>251.0</ele><time>2026-04-01T11:05:14.573Z</time></trkpt><trkpt lat="43.0747314" lon="12.3245306"><ele>251.0</ele><time>2026-04-01T11:05:15.573Z</time></trkpt><trkpt lat="43.0748015" lon="12.3246887"><ele>251.25</ele><time>2026-04-01T11:05:16.573Z</time></trkpt><trkpt lat="43.0748786" lon="12.3248532"><ele>251.5</ele><time>2026-04-01T11:05:17.573Z</time></trkpt><trkpt lat="43.0749528" lon="12.3250133"><ele>251.75</ele><time>2026-04-01T11:05:18.574Z</time></trkpt><trkpt lat="43.0750258" lon="12.3251803"><ele>252.0</ele><time>2026-04-01T11:05:19.574Z</time></trkpt><trkpt lat="43.0751015" lon="12.3253305"><ele>251.25</ele><time>2026-04-01T11:05:20.573Z</time></trkpt><trkpt lat="43.0751685" lon="12.3254778"><ele>250.5</ele><time>2026-04-01T11:05:21.573Z</time></trkpt><trkpt lat="43.0752323" lon="12.3256277"><ele>249.75</ele><time>2026-04-01T11:05:22.573Z</time></trkpt><trkpt lat="43.075296" lon="12.3257797"><ele>249.0</ele><time>2026-04-01T11:05:23.574Z</time></trkpt><trkpt lat="43.0753586" lon="12.3259313"><ele>248.75</ele><time>2026-04-01T11:05:24.574Z</time></trkpt><trkpt lat="43.0754121" lon="12.3260782"><ele>248.5</ele><time>2026-04-01T11:05:25.574Z</time></trkpt><trkpt lat="43.075478" lon="12.3262175"><ele>248.25</ele><time>2026-04-01T11:05:26.573Z</time></trkpt><trkpt lat="43.0755421" lon="12.326349"><ele>248.0</ele><time>2026-04-01T11:05:27.573Z</time></trkpt><trkpt lat="43.0755963" lon="12.3264751"><ele>248.0</ele><time>2026-04-01T11:05:28.573Z</time></trkpt><trkpt lat="43.0756655" lon="12.3266048"><ele>248.0</ele><time>2026-04-01T11:05:29.573Z</time></trkpt><trkpt lat="43.0757218" lon="12.3267235"><ele>248.0</ele><time>2026-04-01T11:05:30.574Z</time></trkpt><trkpt lat="43.0757797" lon="12.3268434"><ele>248.0</ele><time>2026-04-01T11:05:31.573Z</time></trkpt><trkpt lat="43.0758343" lon="12.3269707"><ele>248.0</ele><time>2026-04-01T11:05:32.572Z</time></trkpt><trkpt lat="43.0758984" lon="12.3270925"><ele>247.75</ele><time>2026-04-01T11:05:33.572Z</time></trkpt><trkpt lat="43.0759606" lon="12.3272427"><ele>247.5</ele><time>2026-04-01T11:05:34.573Z</time></trkpt><trkpt lat="43.0760328" lon="12.3273799"><ele>247.25</ele><time>2026-04-01T11:05:35.573Z</time></trkpt><trkpt lat="43.0760946" lon="12.3275047"><ele>247.0</ele><time>2026-04-01T11:05:36.573Z</time></trkpt><trkpt lat="43.0761637" lon="12.3276326"><ele>247.0</ele><time>2026-04-01T11:05:37.573Z</time></trkpt><trkpt lat="43.0762334" lon="12.3277654"><ele>247.0</ele><time>2026-04-01T11:05:38.573Z</time></trkpt><trkpt lat="43.0762885" lon="12.327893"><ele>247.0</ele><time>2026-04-01T11:05:39.573Z</time></trkpt><trkpt lat="43.0763413" lon="12.3280193"><ele>247.0</ele><time>2026-04-01T11:05:40.573Z</time></trkpt><trkpt lat="43.0763963" lon="12.3281451"><ele>247.0</ele><time>2026-04-01T11:05:41.573Z</time></trkpt><trkpt lat="43.0764612" lon="12.3282735"><ele>247.2</ele><time>2026-04-01T11:05:42.573Z</time></trkpt><trkpt lat="43.0765267" lon="12.3284048"><ele>247.39999999999998</ele><time>2026-04-01T11:05:43.573Z</time></trkpt><trkpt lat="43.0765909" lon="12.3285302"><ele>247.60000000000002</ele><time>2026-04-01T11:05:44.574Z</time></trkpt><trkpt lat="43.0766442" lon="12.3286395"><ele>247.8</ele><time>2026-04-01T11:05:45.573Z</time></trkpt><trkpt lat="43.0766942" lon="12.3287517"><ele>248.0</ele><time>2026-04-01T11:05:46.573Z</time></trkpt><trkpt lat="43.0767544" lon="12.3288873"><ele>247.0</ele><time>2026-04-01T11:05:47.573Z</time></trkpt><trkpt lat="43.0768188" lon="12.3290106"><ele>246.0</ele><time>2026-04-01T11:05:48.574Z</time></trkpt><trkpt lat="43.0768833" lon="12.3291331"><ele>245.0</ele><time>2026-04-01T11:05:49.573Z</time></trkpt><trkpt lat="43.0769398" lon="12.329275"><ele>244.0</ele><time>2026-04-01T11:05:50.574Z</time></trkpt><trkpt lat="43.0770028" lon="12.3294041"><ele>243.99999999999997</ele><time>2026-04-01T11:05:51.573Z</time></trkpt><trkpt lat="43.0770547" lon="12.3295195"><ele>244.0</ele><time>2026-04-01T11:05:52.573Z</time></trkpt><trkpt lat="43.0770934" lon="12.3296032"><ele>244.0</ele><time>2026-04-01T11:05:53.574Z</time></trkpt><trkpt lat="43.077134" lon="12.3296958"><ele>244.0</ele><time>2026-04-01T11:05:55.573Z</time></trkpt><trkpt lat="43.0771669" lon="12.3297714"><ele>243.99999999999997</ele><time>2026-04-01T11:05:57.573Z</time></trkpt><trkpt lat="43.0772271" lon="12.3298793"><ele>244.0</ele><time>2026-04-01T11:05:59.573Z</time></trkpt><trkpt lat="43.0772665" lon="12.3299681"><ele>244.16666666666666</ele><time>2026-04-01T11:06:01.574Z</time></trkpt><trkpt lat="43.0773094" lon="12.330101"><ele>244.33333333333331</ele><time>2026-04-01T11:06:04.573Z</time></trkpt><trkpt lat="43.0773845" lon="12.3302325"><ele>244.5</ele><time>2026-04-01T11:06:06.572Z</time></trkpt><trkpt lat="43.0774326" lon="12.3303103"><ele>244.66666666666669</ele><time>2026-04-01T11:06:07.575Z</time></trkpt><trkpt lat="43.0774884" lon="12.3303744"><ele>244.83333333333334</ele><time>2026-04-01T11:06:08.574Z</time></trkpt><trkpt lat="43.0775524" lon="12.3304216"><ele>245.0</ele><time>2026-04-01T11:06:09.574Z</time></trkpt><trkpt lat="43.0776365" lon="12.3304638"><ele>244.50000000000003</ele><time>2026-04-01T11:06:10.573Z</time></trkpt><trkpt lat="43.0777145" lon="12.3305199"><ele>244.0</ele><time>2026-04-01T11:06:11.573Z</time></trkpt><trkpt lat="43.0777726" lon="12.3305743"><ele>243.5</ele><time>2026-04-01T11:06:12.573Z</time></trkpt><trkpt lat="43.0778417" lon="12.3306543"><ele>243.0</ele><time>2026-04-01T11:06:14.573Z</time></trkpt><trkpt lat="43.0778963" lon="12.3307802"><ele>242.50000000000003</ele><time>2026-04-01T11:06:16.573Z</time></trkpt><trkpt lat="43.0779394" lon="12.3308933"><ele>242.0</ele><time>2026-04-01T11:06:17.574Z</time></trkpt><trkpt lat="43.0780121" lon="12.3310227"><ele>241.8</ele><time>2026-04-01T11:06:18.573Z</time></trkpt><trkpt lat="43.078086" lon="12.3311507"><ele>241.6</ele><time>2026-04-01T11:06:19.575Z</time></trkpt><trkpt lat="43.0781397" lon="12.3312936"><ele>241.40000000000003</ele><time>2026-04-01T11:06:20.573Z</time></trkpt><trkpt lat="43.0781721" lon="12.3314263"><ele>241.20000000000002</ele><time>2026-04-01T11:06:21.573Z</time></trkpt><trkpt lat="43.0781821" lon="12.3315582"><ele>241.0</ele><time>2026-04-01T11:06:22.572Z</time></trkpt><trkpt lat="43.0781849" lon="12.3317039"><ele>241.75</ele><time>2026-04-01T11:06:23.574Z</time></trkpt><trkpt lat="43.0781962" lon="12.3318499"><ele>242.5</ele><time>2026-04-01T11:06:24.573Z</time></trkpt><trkpt lat="43.0782248" lon="12.3320045"><ele>243.25</ele><time>2026-04-01T11:06:25.573Z</time></trkpt><trkpt lat="43.0782878" lon="12.3321554"><ele>244.0</ele><time>2026-04-01T11:06:26.573Z</time></trkpt><trkpt lat="43.0783774" lon="12.3323325"><ele>245.66666666666666</ele><time>2026-04-01T11:06:27.574Z</time></trkpt><trkpt lat="43.0784532" lon="12.3325329"><ele>247.33333333333331</ele><time>2026-04-01T11:06:28.573Z</time></trkpt><trkpt lat="43.0785385" lon="12.3327352"><ele>249.0</ele><time>2026-04-01T11:06:29.574Z</time></trkpt><trkpt lat="43.0786312" lon="12.3329262"><ele>249.5</ele><time>2026-04-01T11:06:30.573Z</time></trkpt><trkpt lat="43.0787094" lon="12.3330928"><ele>250.0</ele><time>2026-04-01T11:06:31.574Z</time></trkpt><trkpt lat="43.0787844" lon="12.3332481"><ele>250.5</ele><time>2026-04-01T11:06:32.573Z</time></trkpt><trkpt lat="43.0788314" lon="12.3333998"><ele>251.0</ele><time>2026-04-01T11:06:33.573Z</time></trkpt><trkpt lat="43.0788728" lon="12.333552"><ele>251.0</ele><time>2026-04-01T11:06:34.574Z</time></trkpt><trkpt lat="43.0789013" lon="12.3337181"><ele>251.0</ele><time>2026-04-01T11:06:35.574Z</time></trkpt><trkpt lat="43.0789111" lon="12.3338884"><ele>251.0</ele><time>2026-04-01T11:06:36.573Z</time></trkpt><trkpt lat="43.0789073" lon="12.3340647"><ele>251.0</ele><time>2026-04-01T11:06:37.573Z</time></trkpt><trkpt lat="43.0788951" lon="12.3342439"><ele>251.0</ele><time>2026-04-01T11:06:38.574Z</time></trkpt><trkpt lat="43.0788825" lon="12.3344559"><ele>251.0</ele><time>2026-04-01T11:06:39.574Z</time></trkpt><trkpt lat="43.0788873" lon="12.3346958"><ele>251.0</ele><time>2026-04-01T11:06:40.575Z</time></trkpt><trkpt lat="43.0788918" lon="12.3349555"><ele>250.33333333333334</ele><time>2026-04-01T11:06:41.574Z</time></trkpt><trkpt lat="43.0788939" lon="12.3352415"><ele>249.66666666666669</ele><time>2026-04-01T11:06:42.573Z</time></trkpt><trkpt lat="43.0788951" lon="12.3355447"><ele>249.0</ele><time>2026-04-01T11:06:43.573Z</time></trkpt><trkpt lat="43.0788994" lon="12.3358248"><ele>249.0</ele><time>2026-04-01T11:06:44.575Z</time></trkpt><trkpt lat="43.0788994" lon="12.3360932"><ele>249.0</ele><time>2026-04-01T11:06:45.573Z</time></trkpt><trkpt lat="43.0789005" lon="12.3363469"><ele>249.0</ele><time>2026-04-01T11:06:46.574Z</time></trkpt><trkpt lat="43.078906" lon="12.3365984"><ele>250.33333333333331</ele><time>2026-04-01T11:06:47.573Z</time></trkpt><trkpt lat="43.0789098" lon="12.3368468"><ele>251.66666666666666</ele><time>2026-04-01T11:06:48.573Z</time></trkpt><trkpt lat="43.0789068" lon="12.3370775"><ele>253.0</ele><time>2026-04-01T11:06:49.574Z</time></trkpt><trkpt lat="43.078898" lon="12.3372864"><ele>253.25</ele><time>2026-04-01T11:06:50.574Z</time></trkpt><trkpt lat="43.0788855" lon="12.3374792"><ele>253.5</ele><time>2026-04-01T11:06:51.573Z</time></trkpt><trkpt lat="43.0788643" lon="12.3376707"><ele>253.75</ele><time>2026-04-01T11:06:52.574Z</time></trkpt><trkpt lat="43.0788475" lon="12.3378565"><ele>254.0</ele><time>2026-04-01T11:06:53.575Z</time></trkpt><trkpt lat="43.0788284" lon="12.3380506"><ele>253.79999999999998</ele><time>2026-04-01T11:06:54.574Z</time></trkpt><trkpt lat="43.0787938" lon="12.3382247"><ele>253.59999999999997</ele><time>2026-04-01T11:06:55.573Z</time></trkpt><trkpt lat="43.0787703" lon="12.3383753"><ele>253.4</ele><time>2026-04-01T11:06:56.574Z</time></trkpt><trkpt lat="43.0787471" lon="12.338514"><ele>253.2</ele><time>2026-04-01T11:06:57.575Z</time></trkpt><trkpt lat="43.0787323" lon="12.3386444"><ele>253.0</ele><time>2026-04-01T11:06:58.573Z</time></trkpt><trkpt lat="43.0787429" lon="12.3387669"><ele>252.75</ele><time>2026-04-01T11:06:59.572Z</time></trkpt><trkpt lat="43.0787898" lon="12.3388917"><ele>252.5</ele><time>2026-04-01T11:07:00.573Z</time></trkpt><trkpt lat="43.0788686" lon="12.3389998"><ele>252.25</ele><time>2026-04-01T11:07:01.574Z</time></trkpt><trkpt lat="43.0789836" lon="12.3390736"><ele>252.0</ele><time>2026-04-01T11:07:02.575Z</time></trkpt><trkpt lat="43.0791051" lon="12.3391006"><ele>252.66666666666669</ele><time>2026-04-01T11:07:03.574Z</time></trkpt><trkpt lat="43.0792441" lon="12.3390822"><ele>253.33333333333334</ele><time>2026-04-01T11:07:04.573Z</time></trkpt><trkpt lat="43.0793912" lon="12.3390268"><ele>254.0</ele><time>2026-04-01T11:07:05.573Z</time></trkpt><trkpt lat="43.0795743" lon="12.3389754"><ele>254.0</ele><time>2026-04-01T11:07:06.573Z</time></trkpt><trkpt lat="43.0797795" lon="12.3389035"><ele>254.0</ele><time>2026-04-01T11:07:07.574Z</time></trkpt><trkpt lat="43.07997" lon="12.338832"><ele>254.0</ele><time>2026-04-01T11:07:08.573Z</time></trkpt><trkpt lat="43.0801429" lon="12.3387614"><ele>254.33333333333334</ele><time>2026-04-01T11:07:09.575Z</time></trkpt><trkpt lat="43.0803048" lon="12.3386945"><ele>254.66666666666669</ele><time>2026-04-01T11:07:10.573Z</time></trkpt><trkpt lat="43.0804585" lon="12.3386397"><ele>255.0</ele><time>2026-04-01T11:07:11.575Z</time></trkpt><trkpt lat="43.0805989" lon="12.3385792"><ele>255.0</ele><time>2026-04-01T11:07:12.575Z</time></trkpt><trkpt lat="43.0807369" lon="12.3385424"><ele>255.0</ele><time>2026-04-01T11:07:13.575Z</time></trkpt><trkpt lat="43.0808724" lon="12.3385374"><ele>255.0</ele><time>2026-04-01T11:07:14.574Z</time></trkpt><trkpt lat="43.0809996" lon="12.3385693"><ele>255.0</ele><time>2026-04-01T11:07:15.574Z</time></trkpt><trkpt lat="43.0811243" lon="12.3386419"><ele>255.5</ele><time>2026-04-01T11:07:16.574Z</time></trkpt><trkpt lat="43.0812412" lon="12.338735"><ele>256.0</ele><time>2026-04-01T11:07:17.574Z</time></trkpt><trkpt lat="43.0813305" lon="12.3388782"><ele>256.5</ele><time>2026-04-01T11:07:18.573Z</time></trkpt><trkpt lat="43.0814217" lon="12.3390539"><ele>257.0</ele><time>2026-04-01T11:07:19.574Z</time></trkpt><trkpt lat="43.081497" lon="12.3392136"><ele>257.0</ele><time>2026-04-01T11:07:20.574Z</time></trkpt><trkpt lat="43.0815738" lon="12.3393797"><ele>257.0</ele><time>2026-04-01T11:07:21.572Z</time></trkpt><trkpt lat="43.0816557" lon="12.3395575"><ele>257.0</ele><time>2026-04-01T11:07:22.574Z</time></trkpt><trkpt lat="43.0817342" lon="12.3397312"><ele>257.0</ele><time>2026-04-01T11:07:23.573Z</time></trkpt><trkpt lat="43.0818142" lon="12.3399032"><ele>257.75</ele><time>2026-04-01T11:07:24.572Z</time></trkpt><trkpt lat="43.081889" lon="12.3400621"><ele>258.5</ele><time>2026-04-01T11:07:25.573Z</time></trkpt><trkpt lat="43.0819683" lon="12.3402309"><ele>259.25</ele><time>2026-04-01T11:07:26.574Z</time></trkpt><trkpt lat="43.0820484" lon="12.3404114"><ele>260.0</ele><time>2026-04-01T11:07:27.573Z</time></trkpt><trkpt lat="43.0821335" lon="12.3405785"><ele>261.25</ele><time>2026-04-01T11:07:28.574Z</time></trkpt><trkpt lat="43.0822076" lon="12.3407218"><ele>262.5</ele><time>2026-04-01T11:07:29.573Z</time></trkpt><trkpt lat="43.0822885" lon="12.340881"><ele>263.75</ele><time>2026-04-01T11:07:30.575Z</time></trkpt><trkpt lat="43.0823849" lon="12.3410502"><ele>265.0</ele><time>2026-04-01T11:07:31.575Z</time></trkpt><trkpt lat="43.0824652" lon="12.3412139"><ele>265.0</ele><time>2026-04-01T11:07:32.573Z</time></trkpt><trkpt lat="43.0825523" lon="12.3413712"><ele>265.0</ele><time>2026-04-01T11:07:33.573Z</time></trkpt><trkpt lat="43.0826327" lon="12.3415451"><ele>265.0</ele><time>2026-04-01T11:07:34.574Z</time></trkpt><trkpt lat="43.0827194" lon="12.3417177"><ele>265.0</ele><time>2026-04-01T11:07:35.573Z</time></trkpt><trkpt lat="43.0828153" lon="12.341883"><ele>265.0</ele><time>2026-04-01T11:07:36.573Z</time></trkpt><trkpt lat="43.0828807" lon="12.3420392"><ele>265.0</ele><time>2026-04-01T11:07:37.575Z</time></trkpt><trkpt lat="43.0829533" lon="12.3421956"><ele>265.0</ele><time>2026-04-01T11:07:38.573Z</time></trkpt><trkpt lat="43.0830281" lon="12.3423247"><ele>265.0</ele><time>2026-04-01T11:07:39.574Z</time></trkpt><trkpt lat="43.0830828" lon="12.3424351"><ele>265.5</ele><time>2026-04-01T11:07:40.574Z</time></trkpt><trkpt lat="43.0831241" lon="12.3425293"><ele>266.0</ele><time>2026-04-01T11:07:41.575Z</time></trkpt><trkpt lat="43.0831711" lon="12.3426124"><ele>266.5</ele><time>2026-04-01T11:07:42.573Z</time></trkpt><trkpt lat="43.0832197" lon="12.3427515"><ele>267.0</ele><time>2026-04-01T11:07:44.574Z</time></trkpt><trkpt lat="43.0832418" lon="12.3428356"><ele>267.5</ele><time>2026-04-01T11:07:45.574Z</time></trkpt><trkpt lat="43.0832725" lon="12.3429302"><ele>268.0</ele><time>2026-04-01T11:07:46.573Z</time></trkpt><trkpt lat="43.083306" lon="12.3430098"><ele>268.8333333333333</ele><time>2026-04-01T11:07:47.575Z</time></trkpt><trkpt lat="43.0833413" lon="12.3430892"><ele>269.66666666666663</ele><time>2026-04-01T11:07:48.573Z</time></trkpt><trkpt lat="43.0833747" lon="12.3431698"><ele>270.5</ele><time>2026-04-01T11:07:49.575Z</time></trkpt><trkpt lat="43.0834295" lon="12.3432938"><ele>271.3333333333333</ele><time>2026-04-01T11:07:51.573Z</time></trkpt><trkpt lat="43.0834673" lon="12.3433737"><ele>272.1666666666667</ele><time>2026-04-01T11:07:53.573Z</time></trkpt><trkpt lat="43.0834992" lon="12.3434593"><ele>273.0</ele><time>2026-04-01T11:07:54.574Z</time></trkpt><trkpt lat="43.0835827" lon="12.3436144"><ele>273.0</ele><time>2026-04-01T11:07:56.573Z</time></trkpt><trkpt lat="43.0836104" lon="12.3436942"><ele>273.0</ele><time>2026-04-01T11:07:57.573Z</time></trkpt><trkpt lat="43.0836883" lon="12.3438353"><ele>273.0</ele><time>2026-04-01T11:07:59.572Z</time></trkpt><trkpt lat="43.0837589" lon="12.3439416"><ele>273.0</ele><time>2026-04-01T11:08:01.574Z</time></trkpt><trkpt lat="43.0837964" lon="12.3440164"><ele>273.0</ele><time>2026-04-01T11:08:02.574Z</time></trkpt><trkpt lat="43.0838364" lon="12.3441042"><ele>273.0</ele><time>2026-04-01T11:08:03.572Z</time></trkpt><trkpt lat="43.083879" lon="12.3442046"><ele>273.6</ele><time>2026-04-01T11:08:04.574Z</time></trkpt><trkpt lat="43.0839138" lon="12.3442915"><ele>274.20000000000005</ele><time>2026-04-01T11:08:05.574Z</time></trkpt><trkpt lat="43.0839486" lon="12.3443781"><ele>274.8</ele><time>2026-04-01T11:08:06.573Z</time></trkpt><trkpt lat="43.0840262" lon="12.3444986"><ele>275.40000000000003</ele><time>2026-04-01T11:08:07.575Z</time></trkpt><trkpt lat="43.0840825" lon="12.3446151"><ele>276.0</ele><time>2026-04-01T11:08:08.575Z</time></trkpt><trkpt lat="43.0841326" lon="12.3447237"><ele>277.2</ele><time>2026-04-01T11:08:09.574Z</time></trkpt><trkpt lat="43.0841788" lon="12.3448401"><ele>278.40000000000003</ele><time>2026-04-01T11:08:10.575Z</time></trkpt><trkpt lat="43.0842264" lon="12.3449605"><ele>279.6</ele><time>2026-04-01T11:08:11.573Z</time></trkpt><trkpt lat="43.0842829" lon="12.3451026"><ele>280.8</ele><time>2026-04-01T11:08:12.573Z</time></trkpt><trkpt lat="43.0843256" lon="12.3452016"><ele>282.0</ele><time>2026-04-01T11:08:13.574Z</time></trkpt><trkpt lat="43.0843752" lon="12.3453041"><ele>282.0</ele><time>2026-04-01T11:08:14.573Z</time></trkpt><trkpt lat="43.0844206" lon="12.3453847"><ele>282.0</ele><time>2026-04-01T11:08:15.575Z</time></trkpt><trkpt lat="43.0844806" lon="12.345522"><ele>282.0</ele><time>2026-04-01T11:08:17.575Z</time></trkpt><trkpt lat="43.0845209" lon="12.3456091"><ele>282.0</ele><time>2026-04-01T11:08:18.574Z</time></trkpt><trkpt lat="43.0845603" lon="12.3456801"><ele>282.0</ele><time>2026-04-01T11:08:19.573Z</time></trkpt><trkpt lat="43.0845924" lon="12.3457658"><ele>282.0</ele><time>2026-04-01T11:08:20.574Z</time></trkpt><trkpt lat="43.0846641" lon="12.3459047"><ele>282.5</ele><time>2026-04-01T11:08:22.574Z</time></trkpt><trkpt lat="43.0847189" lon="12.3460327"><ele>283.0</ele><time>2026-04-01T11:08:24.574Z</time></trkpt><trkpt lat="43.0847793" lon="12.3461487"><ele>283.5</ele><time>2026-04-01T11:08:26.575Z</time></trkpt><trkpt lat="43.0848178" lon="12.346224"><ele>284.0</ele><time>2026-04-01T11:08:27.574Z</time></trkpt><trkpt lat="43.0848585" lon="12.3463051"><ele>284.5</ele><time>2026-04-01T11:08:28.574Z</time></trkpt><trkpt lat="43.0848897" lon="12.3463938"><ele>285.0</ele><time>2026-04-01T11:08:29.574Z</time></trkpt><trkpt lat="43.0849331" lon="12.3464786"><ele>285.8333333333333</ele><time>2026-04-01T11:08:31.574Z</time></trkpt><trkpt lat="43.0849724" lon="12.346581"><ele>286.6666666666667</ele><time>2026-04-01T11:08:43.574Z</time></trkpt><trkpt lat="43.0850007" lon="12.346686"><ele>287.5</ele><time>2026-04-01T11:08:46.574Z</time></trkpt><trkpt lat="43.0850545" lon="12.3467353"><ele>288.33333333333337</ele><time>2026-04-01T11:08:47.573Z</time></trkpt><trkpt lat="43.0851011" lon="12.346853"><ele>289.1666666666667</ele><time>2026-04-01T11:08:49.575Z</time></trkpt><trkpt lat="43.0851596" lon="12.3469865"><ele>290.0</ele><time>2026-04-01T11:08:50.727Z</time></trkpt><trkpt lat="43.0852433" lon="12.3472786"><ele>290.6666666666667</ele><time>2026-04-01T11:08:53.726Z</time></trkpt><trkpt lat="43.0854164" lon="12.3476079"><ele>291.3333333333333</ele><time>2026-04-01T11:08:54.726Z</time></trkpt><trkpt lat="43.085522" lon="12.3477339"><ele>292.0</ele><time>2026-04-01T11:08:55.727Z</time></trkpt><trkpt lat="43.0856093" lon="12.3478441"><ele>292.3333333333333</ele><time>2026-04-01T11:08:56.725Z</time></trkpt><trkpt lat="43.0857803" lon="12.3481922"><ele>292.6666666666667</ele><time>2026-04-01T11:08:58.573Z</time></trkpt><trkpt lat="43.0858354" lon="12.3483517"><ele>293.0</ele><time>2026-04-01T11:08:59.573Z</time></trkpt><trkpt lat="43.0858811" lon="12.3484914"><ele>293.0</ele><time>2026-04-01T11:09:00.574Z</time></trkpt><trkpt lat="43.0859401" lon="12.348584"><ele>293.0</ele><time>2026-04-01T11:09:01.574Z</time></trkpt><trkpt lat="43.0859847" lon="12.348678"><ele>293.0</ele><time>2026-04-01T11:09:02.575Z</time></trkpt><trkpt lat="43.0860247" lon="12.3487477"><ele>293.0</ele><time>2026-04-01T11:09:03.574Z</time></trkpt><trkpt lat="43.0860992" lon="12.3488656"><ele>293.0</ele><time>2026-04-01T11:09:05.575Z</time></trkpt><trkpt lat="43.0861388" lon="12.3489363"><ele>293.0</ele><time>2026-04-01T11:09:06.574Z</time></trkpt><trkpt lat="43.0861913" lon="12.3490672"><ele>293.75</ele><time>2026-04-01T11:09:07.574Z</time></trkpt><trkpt lat="43.0862463" lon="12.3491945"><ele>294.5</ele><time>2026-04-01T11:09:08.573Z</time></trkpt><trkpt lat="43.0863055" lon="12.3493233"><ele>295.25</ele><time>2026-04-01T11:09:09.574Z</time></trkpt><trkpt lat="43.0863795" lon="12.3494693"><ele>296.0</ele><time>2026-04-01T11:09:10.575Z</time></trkpt><trkpt lat="43.0864403" lon="12.3496015"><ele>296.6</ele><time>2026-04-01T11:09:11.574Z</time></trkpt><trkpt lat="43.0864968" lon="12.3497211"><ele>297.20000000000005</ele><time>2026-04-01T11:09:12.575Z</time></trkpt><trkpt lat="43.0865524" lon="12.3498413"><ele>297.79999999999995</ele><time>2026-04-01T11:09:13.573Z</time></trkpt><trkpt lat="43.086597" lon="12.3499465"><ele>298.4</ele><time>2026-04-01T11:09:14.574Z</time></trkpt><trkpt lat="43.0866377" lon="12.3500218"><ele>299.0</ele><time>2026-04-01T11:09:15.575Z</time></trkpt><trkpt lat="43.0867135" lon="12.3501531"><ele>299.75</ele><time>2026-04-01T11:09:17.574Z</time></trkpt><trkpt lat="43.0867813" lon="12.3503322"><ele>300.5</ele><time>2026-04-01T11:09:19.575Z</time></trkpt><trkpt lat="43.086848" lon="12.3504369"><ele>301.25</ele><time>2026-04-01T11:09:20.573Z</time></trkpt><trkpt lat="43.086907" lon="12.3505643"><ele>302.0</ele><time>2026-04-01T11:09:21.574Z</time></trkpt><trkpt lat="43.0869531" lon="12.3507044"><ele>302.5</ele><time>2026-04-01T11:09:22.575Z</time></trkpt><trkpt lat="43.0870127" lon="12.3508449"><ele>303.0</ele><time>2026-04-01T11:09:23.574Z</time></trkpt><trkpt lat="43.087104" lon="12.3510239"><ele>303.5</ele><time>2026-04-01T11:09:24.575Z</time></trkpt><trkpt lat="43.0871947" lon="12.3512222"><ele>304.0</ele><time>2026-04-01T11:09:25.575Z</time></trkpt><trkpt lat="43.0873035" lon="12.3514249"><ele>304.0</ele><time>2026-04-01T11:09:26.573Z</time></trkpt><trkpt lat="43.0874125" lon="12.3516271"><ele>304.0</ele><time>2026-04-01T11:09:27.574Z</time></trkpt><trkpt lat="43.0875114" lon="12.3518326"><ele>304.0</ele><time>2026-04-01T11:09:28.574Z</time></trkpt><trkpt lat="43.0875984" lon="12.3520367"><ele>301.0</ele><time>2026-04-01T11:09:29.574Z</time></trkpt><trkpt lat="43.0876977" lon="12.3522333"><ele>298.0</ele><time>2026-04-01T11:09:30.575Z</time></trkpt><trkpt lat="43.0877911" lon="12.3524166"><ele>295.0</ele><time>2026-04-01T11:09:31.574Z</time></trkpt><trkpt lat="43.0878787" lon="12.3525913"><ele>295.0</ele><time>2026-04-01T11:09:32.575Z</time></trkpt><trkpt lat="43.0879566" lon="12.3527523"><ele>295.0</ele><time>2026-04-01T11:09:33.575Z</time></trkpt><trkpt lat="43.0880383" lon="12.3529093"><ele>295.0</ele><time>2026-04-01T11:09:34.574Z</time></trkpt><trkpt lat="43.0881023" lon="12.3530584"><ele>295.0</ele><time>2026-04-01T11:09:35.574Z</time></trkpt><trkpt lat="43.0881737" lon="12.3531958"><ele>294.8</ele><time>2026-04-01T11:09:36.574Z</time></trkpt><trkpt lat="43.0882218" lon="12.353323"><ele>294.6</ele><time>2026-04-01T11:09:37.574Z</time></trkpt><trkpt lat="43.0882835" lon="12.3534546"><ele>294.4</ele><time>2026-04-01T11:09:38.573Z</time></trkpt><trkpt lat="43.0883537" lon="12.3535802"><ele>294.2</ele><time>2026-04-01T11:09:39.574Z</time></trkpt><trkpt lat="43.0884202" lon="12.3536938"><ele>294.0</ele><time>2026-04-01T11:09:40.574Z</time></trkpt><trkpt lat="43.088489" lon="12.3538174"><ele>293.2</ele><time>2026-04-01T11:09:41.574Z</time></trkpt><trkpt lat="43.0885676" lon="12.3538947"><ele>292.4</ele><time>2026-04-01T11:09:42.574Z</time></trkpt><trkpt lat="43.0886612" lon="12.3539612"><ele>291.6</ele><time>2026-04-01T11:09:43.574Z</time></trkpt><trkpt lat="43.0887638" lon="12.3540047"><ele>290.8</ele><time>2026-04-01T11:09:44.574Z</time></trkpt><trkpt lat="43.0888664" lon="12.35402"><ele>290.0</ele><time>2026-04-01T11:09:45.574Z</time></trkpt><trkpt lat="43.0889702" lon="12.3540678"><ele>290.0</ele><time>2026-04-01T11:09:46.575Z</time></trkpt><trkpt lat="43.0890494" lon="12.3541278"><ele>290.0</ele><time>2026-04-01T11:09:47.574Z</time></trkpt><trkpt lat="43.0891258" lon="12.3542031"><ele>290.0</ele><time>2026-04-01T11:09:48.574Z</time></trkpt><trkpt lat="43.0891538" lon="12.3543275"><ele>290.0</ele><time>2026-04-01T11:09:49.576Z</time></trkpt><trkpt lat="43.089152" lon="12.354454"><ele>290.0</ele><time>2026-04-01T11:09:50.573Z</time></trkpt><trkpt lat="43.089153" lon="12.354592"><ele>289.5</ele><time>2026-04-01T11:09:51.575Z</time></trkpt><trkpt lat="43.0891699" lon="12.3547774"><ele>289.0</ele><time>2026-04-01T11:09:52.573Z</time></trkpt><trkpt lat="43.0891701" lon="12.3549648"><ele>288.5</ele><time>2026-04-01T11:09:53.574Z</time></trkpt><trkpt lat="43.0891863" lon="12.3551492"><ele>288.0</ele><time>2026-04-01T11:09:54.575Z</time></trkpt><trkpt lat="43.0892054" lon="12.3553439"><ele>288.0</ele><time>2026-04-01T11:09:55.576Z</time></trkpt><trkpt lat="43.0892337" lon="12.3555315"><ele>288.0</ele><time>2026-04-01T11:09:56.575Z</time></trkpt><trkpt lat="43.0892745" lon="12.3557161"><ele>288.0</ele><time>2026-04-01T11:09:57.574Z</time></trkpt><trkpt lat="43.0893488" lon="12.3558798"><ele>288.0</ele><time>2026-04-01T11:09:58.574Z</time></trkpt><trkpt lat="43.0894375" lon="12.3560134"><ele>284.25</ele><time>2026-04-01T11:09:59.575Z</time></trkpt><trkpt lat="43.0895419" lon="12.3561232"><ele>280.5</ele><time>2026-04-01T11:10:00.574Z</time></trkpt><trkpt lat="43.0896608" lon="12.3562141"><ele>276.75</ele><time>2026-04-01T11:10:01.575Z</time></trkpt><trkpt lat="43.0897957" lon="12.356273"><ele>273.0</ele><time>2026-04-01T11:10:02.575Z</time></trkpt><trkpt lat="43.089932" lon="12.3563069"><ele>273.0</ele><time>2026-04-01T11:10:03.574Z</time></trkpt><trkpt lat="43.0900688" lon="12.3563121"><ele>273.0</ele><time>2026-04-01T11:10:04.574Z</time></trkpt><trkpt lat="43.090209" lon="12.3562935"><ele>273.0</ele><time>2026-04-01T11:10:05.574Z</time></trkpt><trkpt lat="43.0903437" lon="12.3562397"><ele>273.0</ele><time>2026-04-01T11:10:06.575Z</time></trkpt><trkpt lat="43.0904842" lon="12.3561847"><ele>273.0</ele><time>2026-04-01T11:10:07.575Z</time></trkpt><trkpt lat="43.0906415" lon="12.3561002"><ele>273.0</ele><time>2026-04-01T11:10:08.574Z</time></trkpt><trkpt lat="43.0908223" lon="12.3560154"><ele>273.0</ele><time>2026-04-01T11:10:09.574Z</time></trkpt><trkpt lat="43.0910187" lon="12.3559563"><ele>270.6666666666667</ele><time>2026-04-01T11:10:10.574Z</time></trkpt><trkpt lat="43.0912049" lon="12.355879"><ele>268.33333333333337</ele><time>2026-04-01T11:10:11.574Z</time></trkpt><trkpt lat="43.091393" lon="12.3557962"><ele>266.0</ele><time>2026-04-01T11:10:12.574Z</time></trkpt><trkpt lat="43.0915659" lon="12.355737"><ele>265.33333333333337</ele><time>2026-04-01T11:10:13.573Z</time></trkpt><trkpt lat="43.091712" lon="12.3557"><ele>264.6666666666667</ele><time>2026-04-01T11:10:14.575Z</time></trkpt><trkpt lat="43.091853" lon="12.3556782"><ele>264.0</ele><time>2026-04-01T11:10:15.574Z</time></trkpt><trkpt lat="43.0920206" lon="12.3556587"><ele>264.0</ele><time>2026-04-01T11:10:16.573Z</time></trkpt><trkpt lat="43.0922056" lon="12.3556576"><ele>264.0</ele><time>2026-04-01T11:10:17.574Z</time></trkpt><trkpt lat="43.0923913" lon="12.3556629"><ele>264.0</ele><time>2026-04-01T11:10:18.574Z</time></trkpt><trkpt lat="43.0925572" lon="12.355678"><ele>263.75</ele><time>2026-04-01T11:10:19.575Z</time></trkpt><trkpt lat="43.0926999" lon="12.3556804"><ele>263.5</ele><time>2026-04-01T11:10:20.573Z</time></trkpt><trkpt lat="43.0928199" lon="12.3556814"><ele>263.25</ele><time>2026-04-01T11:10:21.574Z</time></trkpt><trkpt lat="43.0929339" lon="12.3556911"><ele>263.0</ele><time>2026-04-01T11:10:22.573Z</time></trkpt><trkpt lat="43.0930398" lon="12.3557018"><ele>263.0</ele><time>2026-04-01T11:10:23.575Z</time></trkpt><trkpt lat="43.0931399" lon="12.3557038"><ele>263.0</ele><time>2026-04-01T11:10:24.575Z</time></trkpt><trkpt lat="43.0932312" lon="12.3557009"><ele>263.0</ele><time>2026-04-01T11:10:25.574Z</time></trkpt><trkpt lat="43.0933173" lon="12.3557077"><ele>263.0</ele><time>2026-04-01T11:10:26.575Z</time></trkpt><trkpt lat="43.0933858" lon="12.3557048"><ele>263.0</ele><time>2026-04-01T11:10:27.575Z</time></trkpt><trkpt lat="43.0934529" lon="12.3557224"><ele>263.0</ele><time>2026-04-01T11:10:28.574Z</time></trkpt><trkpt lat="43.0935155" lon="12.3557463"><ele>262.4</ele><time>2026-04-01T11:10:29.574Z</time></trkpt><trkpt lat="43.0936389" lon="12.355852"><ele>261.8</ele><time>2026-04-01T11:10:31.575Z</time></trkpt><trkpt lat="43.0936977" lon="12.3559464"><ele>261.2</ele><time>2026-04-01T11:10:32.574Z</time></trkpt><trkpt lat="43.0937432" lon="12.3560835"><ele>260.6</ele><time>2026-04-01T11:10:33.574Z</time></trkpt><trkpt lat="43.093784" lon="12.356212"><ele>260.0</ele><time>2026-04-01T11:10:34.573Z</time></trkpt><trkpt lat="43.0938163" lon="12.3563182"><ele>259.1666666666667</ele><time>2026-04-01T11:10:35.573Z</time></trkpt><trkpt lat="43.0938421" lon="12.3564052"><ele>258.33333333333337</ele><time>2026-04-01T11:10:36.575Z</time></trkpt><trkpt lat="43.0938286" lon="12.3565439"><ele>257.5</ele><time>2026-04-01T11:10:38.575Z</time></trkpt><trkpt lat="43.0938083" lon="12.3566433"><ele>256.6666666666667</ele><time>2026-04-01T11:10:39.574Z</time></trkpt><trkpt lat="43.0937786" lon="12.356748"><ele>255.83333333333334</ele><time>2026-04-01T11:10:40.575Z</time></trkpt><trkpt lat="43.0937582" lon="12.3568489"><ele>255.0</ele><time>2026-04-01T11:10:41.574Z</time></trkpt><trkpt lat="43.0937889" lon="12.3570123"><ele>255.0</ele><time>2026-04-01T11:10:43.574Z</time></trkpt><trkpt lat="43.0938356" lon="12.3570877"><ele>255.0</ele><time>2026-04-01T11:10:44.574Z</time></trkpt><trkpt lat="43.0939121" lon="12.3571355"><ele>255.0</ele><time>2026-04-01T11:10:45.574Z</time></trkpt><trkpt lat="43.0939932" lon="12.3571387"><ele>255.0</ele><time>2026-04-01T11:10:46.574Z</time></trkpt><trkpt lat="43.0940627" lon="12.3571134"><ele>255.0</ele><time>2026-04-01T11:10:47.575Z</time></trkpt><trkpt lat="43.0941122" lon="12.3570485"><ele>255.0</ele><time>2026-04-01T11:10:48.573Z</time></trkpt><trkpt lat="43.0941657" lon="12.3569711"><ele>255.25</ele><time>2026-04-01T11:10:49.574Z</time></trkpt><trkpt lat="43.0942255" lon="12.3568737"><ele>255.5</ele><time>2026-04-01T11:10:50.574Z</time></trkpt><trkpt lat="43.0942813" lon="12.3567627"><ele>255.75</ele><time>2026-04-01T11:10:51.575Z</time></trkpt><trkpt lat="43.0943815" lon="12.3566749"><ele>256.0</ele><time>2026-04-01T11:10:52.577Z</time></trkpt><trkpt lat="43.0945334" lon="12.3566779"><ele>256.0</ele><time>2026-04-01T11:10:53.574Z</time></trkpt><trkpt lat="43.0946628" lon="12.3566643"><ele>256.0</ele><time>2026-04-01T11:10:54.575Z</time></trkpt><trkpt lat="43.0948214" lon="12.3566583"><ele>256.0</ele><time>2026-04-01T11:10:55.575Z</time></trkpt><trkpt lat="43.0949658" lon="12.35665"><ele>256.0</ele><time>2026-04-01T11:10:56.576Z</time></trkpt><trkpt lat="43.0950991" lon="12.356662"><ele>256.75</ele><time>2026-04-01T11:10:57.574Z</time></trkpt><trkpt lat="43.0952246" lon="12.3566494"><ele>257.5</ele><time>2026-04-01T11:10:58.574Z</time></trkpt><trkpt lat="43.0953514" lon="12.3566326"><ele>258.25</ele><time>2026-04-01T11:10:59.573Z</time></trkpt><trkpt lat="43.095479" lon="12.3566266"><ele>259.0</ele><time>2026-04-01T11:11:00.575Z</time></trkpt><trkpt lat="43.0956071" lon="12.3566209"><ele>259.0</ele><time>2026-04-01T11:11:01.573Z</time></trkpt><trkpt lat="43.0957332" lon="12.3566175"><ele>259.0</ele><time>2026-04-01T11:11:02.575Z</time></trkpt><trkpt lat="43.0958582" lon="12.3566069"><ele>259.0</ele><time>2026-04-01T11:11:03.575Z</time></trkpt><trkpt lat="43.0959932" lon="12.3566016"><ele>259.0</ele><time>2026-04-01T11:11:04.574Z</time></trkpt><trkpt lat="43.0961289" lon="12.3566022"><ele>259.5</ele><time>2026-04-01T11:11:05.574Z</time></trkpt><trkpt lat="43.096269" lon="12.3566007"><ele>260.0</ele><time>2026-04-01T11:11:06.576Z</time></trkpt><trkpt lat="43.096401" lon="12.3565957"><ele>260.5</ele><time>2026-04-01T11:11:07.574Z</time></trkpt><trkpt lat="43.0965483" lon="12.3565944"><ele>261.0</ele><time>2026-04-01T11:11:08.573Z</time></trkpt><trkpt lat="43.0966889" lon="12.3565837"><ele>261.5</ele><time>2026-04-01T11:11:09.575Z</time></trkpt><trkpt lat="43.0968321" lon="12.3565836"><ele>262.0</ele><time>2026-04-01T11:11:10.574Z</time></trkpt><trkpt lat="43.0969756" lon="12.3565781"><ele>262.5</ele><time>2026-04-01T11:11:11.574Z</time></trkpt><trkpt lat="43.0971063" lon="12.3565765"><ele>263.0</ele><time>2026-04-01T11:11:12.576Z</time></trkpt><trkpt lat="43.0972199" lon="12.356563"><ele>263.0</ele><time>2026-04-01T11:11:13.575Z</time></trkpt><trkpt lat="43.09734" lon="12.3565471"><ele>263.0</ele><time>2026-04-01T11:11:14.575Z</time></trkpt><trkpt lat="43.0974453" lon="12.3565386"><ele>263.0</ele><time>2026-04-01T11:11:15.575Z</time></trkpt><trkpt lat="43.0975151" lon="12.3565285"><ele>263.0</ele><time>2026-04-01T11:11:16.575Z</time></trkpt><trkpt lat="43.0976208" lon="12.3565398"><ele>263.0</ele><time>2026-04-01T11:11:18.573Z</time></trkpt><trkpt lat="43.0977041" lon="12.3566034"><ele>263.33333333333337</ele><time>2026-04-01T11:11:20.576Z</time></trkpt><trkpt lat="43.0977633" lon="12.356663"><ele>263.6666666666667</ele><time>2026-04-01T11:11:21.574Z</time></trkpt><trkpt lat="43.0978359" lon="12.3567313"><ele>264.0</ele><time>2026-04-01T11:11:22.575Z</time></trkpt><trkpt lat="43.0979082" lon="12.3567786"><ele>264.3333333333333</ele><time>2026-04-01T11:11:23.575Z</time></trkpt><trkpt lat="43.0979952" lon="12.3568011"><ele>264.66666666666663</ele><time>2026-04-01T11:11:24.575Z</time></trkpt><trkpt lat="43.0980789" lon="12.3567848"><ele>265.0</ele><time>2026-04-01T11:11:25.575Z</time></trkpt><trkpt lat="43.0981594" lon="12.3567259"><ele>265.0</ele><time>2026-04-01T11:11:26.574Z</time></trkpt><trkpt lat="43.0982352" lon="12.3566358"><ele>265.0</ele><time>2026-04-01T11:11:27.575Z</time></trkpt><trkpt lat="43.0983128" lon="12.3565614"><ele>265.0</ele><time>2026-04-01T11:11:28.573Z</time></trkpt><trkpt lat="43.0983967" lon="12.3565062"><ele>265.0</ele><time>2026-04-01T11:11:29.575Z</time></trkpt><trkpt lat="43.0984901" lon="12.3564844"><ele>265.0</ele><time>2026-04-01T11:11:30.575Z</time></trkpt><trkpt lat="43.0985914" lon="12.3564848"><ele>264.6</ele><time>2026-04-01T11:11:31.573Z</time></trkpt><trkpt lat="43.0986945" lon="12.3564921"><ele>264.2</ele><time>2026-04-01T11:11:32.575Z</time></trkpt><trkpt lat="43.0987984" lon="12.3565059"><ele>263.8</ele><time>2026-04-01T11:11:33.575Z</time></trkpt><trkpt lat="43.0989015" lon="12.3565249"><ele>263.4</ele><time>2026-04-01T11:11:34.574Z</time></trkpt><trkpt lat="43.0989994" lon="12.3565555"><ele>263.0</ele><time>2026-04-01T11:11:35.575Z</time></trkpt><trkpt lat="43.0990986" lon="12.3565861"><ele>262.5</ele><time>2026-04-01T11:11:36.575Z</time></trkpt><trkpt lat="43.0992208" lon="12.3566158"><ele>262.0</ele><time>2026-04-01T11:11:37.574Z</time></trkpt><trkpt lat="43.0993416" lon="12.3566609"><ele>261.5</ele><time>2026-04-01T11:11:38.574Z</time></trkpt><trkpt lat="43.0994608" lon="12.3567296"><ele>261.0</ele><time>2026-04-01T11:11:39.575Z</time></trkpt><trkpt lat="43.0995769" lon="12.3567927"><ele>261.0</ele><time>2026-04-01T11:11:40.575Z</time></trkpt><trkpt lat="43.0997017" lon="12.3568506"><ele>261.0</ele><time>2026-04-01T11:11:41.574Z</time></trkpt><trkpt lat="43.0998234" lon="12.3569235"><ele>261.0</ele><time>2026-04-01T11:11:42.575Z</time></trkpt><trkpt lat="43.0999427" lon="12.356996"><ele>261.0</ele><time>2026-04-01T11:11:43.575Z</time></trkpt><trkpt lat="43.1000604" lon="12.3570606"><ele>261.0</ele><time>2026-04-01T11:11:44.576Z</time></trkpt><trkpt lat="43.1001694" lon="12.3571028"><ele>261.0</ele><time>2026-04-01T11:11:45.575Z</time></trkpt><trkpt lat="43.1002786" lon="12.3571525"><ele>261.0</ele><time>2026-04-01T11:11:46.575Z</time></trkpt><trkpt lat="43.1003701" lon="12.3572035"><ele>261.0</ele><time>2026-04-01T11:11:47.575Z</time></trkpt><trkpt lat="43.1004423" lon="12.3572787"><ele>261.0</ele><time>2026-04-01T11:11:48.574Z</time></trkpt><trkpt lat="43.1004811" lon="12.3573523"><ele>261.0</ele><time>2026-04-01T11:11:49.575Z</time></trkpt><trkpt lat="43.1004942" lon="12.3574501"><ele>261.0</ele><time>2026-04-01T11:11:50.575Z</time></trkpt><trkpt lat="43.1004829" lon="12.3576066"><ele>261.0</ele><time>2026-04-01T11:11:52.575Z</time></trkpt><trkpt lat="43.1005107" lon="12.3577444"><ele>261.0</ele><time>2026-04-01T11:11:54.576Z</time></trkpt><trkpt lat="43.1005734" lon="12.3578183"><ele>261.0</ele><time>2026-04-01T11:11:56.574Z</time></trkpt><trkpt lat="43.1006475" lon="12.3578463"><ele>261.0</ele><time>2026-04-01T11:11:58.575Z</time></trkpt><trkpt lat="43.1007268" lon="12.3578269"><ele>261.0</ele><time>2026-04-01T11:12:00.576Z</time></trkpt><trkpt lat="43.100819" lon="12.3577762"><ele>261.0</ele><time>2026-04-01T11:12:02.576Z</time></trkpt><trkpt lat="43.1009365" lon="12.3577578"><ele>261.0</ele><time>2026-04-01T11:12:04.575Z</time></trkpt><trkpt lat="43.1010088" lon="12.3577771"><ele>261.0</ele><time>2026-04-01T11:12:05.574Z</time></trkpt><trkpt lat="43.1010827" lon="12.3578133"><ele>261.8</ele><time>2026-04-01T11:12:06.575Z</time></trkpt><trkpt lat="43.1011638" lon="12.3578857"><ele>262.6</ele><time>2026-04-01T11:12:07.574Z</time></trkpt><trkpt lat="43.101252" lon="12.3579609"><ele>263.4</ele><time>2026-04-01T11:12:08.576Z</time></trkpt><trkpt lat="43.1013209" lon="12.3580424"><ele>264.2</ele><time>2026-04-01T11:12:09.575Z</time></trkpt><trkpt lat="43.1013896" lon="12.3581113"><ele>265.0</ele><time>2026-04-01T11:12:10.575Z</time></trkpt><trkpt lat="43.1014559" lon="12.3581787"><ele>265.2</ele><time>2026-04-01T11:12:11.574Z</time></trkpt><trkpt lat="43.1015391" lon="12.3582534"><ele>265.4</ele><time>2026-04-01T11:12:12.576Z</time></trkpt><trkpt lat="43.1016251" lon="12.3583272"><ele>265.6</ele><time>2026-04-01T11:12:13.574Z</time></trkpt><trkpt lat="43.1017067" lon="12.3584139"><ele>265.8</ele><time>2026-04-01T11:12:14.575Z</time></trkpt><trkpt lat="43.1017871" lon="12.3584794"><ele>266.0</ele><time>2026-04-01T11:12:15.576Z</time></trkpt><trkpt lat="43.1018457" lon="12.3585334"><ele>266.0</ele><time>2026-04-01T11:12:16.574Z</time></trkpt><trkpt lat="43.101904" lon="12.3585802"><ele>266.0</ele><time>2026-04-01T11:12:17.575Z</time></trkpt><trkpt lat="43.101979" lon="12.3586405"><ele>266.0</ele><time>2026-04-01T11:12:19.574Z</time></trkpt><trkpt lat="43.1020487" lon="12.3587132"><ele>266.0</ele><time>2026-04-01T11:12:21.575Z</time></trkpt><trkpt lat="43.1021143" lon="12.3587647"><ele>266.0</ele><time>2026-04-01T11:12:22.575Z</time></trkpt><trkpt lat="43.1021967" lon="12.358832"><ele>266.0</ele><time>2026-04-01T11:12:23.574Z</time></trkpt><trkpt lat="43.1023071" lon="12.3589206"><ele>266.0</ele><time>2026-04-01T11:12:24.575Z</time></trkpt><trkpt lat="43.1024454" lon="12.3590366"><ele>266.0</ele><time>2026-04-01T11:12:25.574Z</time></trkpt><trkpt lat="43.1026035" lon="12.3591679"><ele>266.0</ele><time>2026-04-01T11:12:26.574Z</time></trkpt><trkpt lat="43.1027634" lon="12.3593069"><ele>266.0</ele><time>2026-04-01T11:12:27.574Z</time></trkpt><trkpt lat="43.1029446" lon="12.3594478"><ele>266.0</ele><time>2026-04-01T11:12:28.576Z</time></trkpt><trkpt lat="43.1030905" lon="12.3595311"><ele>266.0</ele><time>2026-04-01T11:12:29.574Z</time></trkpt><trkpt lat="43.1032376" lon="12.3596277"><ele>265.6666666666667</ele><time>2026-04-01T11:12:30.575Z</time></trkpt><trkpt lat="43.1033913" lon="12.3597318"><ele>265.3333333333333</ele><time>2026-04-01T11:12:31.574Z</time></trkpt><trkpt lat="43.1035566" lon="12.3598031"><ele>265.0</ele><time>2026-04-01T11:12:32.575Z</time></trkpt><trkpt lat="43.1036997" lon="12.3598649"><ele>265.0</ele><time>2026-04-01T11:12:33.574Z</time></trkpt><trkpt lat="43.1038407" lon="12.3598989"><ele>265.0</ele><time>2026-04-01T11:12:34.576Z</time></trkpt><trkpt lat="43.1039802" lon="12.359925"><ele>265.0</ele><time>2026-04-01T11:12:35.574Z</time></trkpt><trkpt lat="43.1041136" lon="12.3599362"><ele>265.0</ele><time>2026-04-01T11:12:36.575Z</time></trkpt><trkpt lat="43.1042437" lon="12.3599438"><ele>265.5</ele><time>2026-04-01T11:12:37.575Z</time></trkpt><trkpt lat="43.104363" lon="12.3599478"><ele>266.0</ele><time>2026-04-01T11:12:38.575Z</time></trkpt><trkpt lat="43.1044938" lon="12.3599445"><ele>266.5</ele><time>2026-04-01T11:12:39.574Z</time></trkpt><trkpt lat="43.1046133" lon="12.3599351"><ele>267.0</ele><time>2026-04-01T11:12:40.575Z</time></trkpt><trkpt lat="43.1047366" lon="12.3599009"><ele>267.0</ele><time>2026-04-01T11:12:41.574Z</time></trkpt><trkpt lat="43.104851" lon="12.3598451"><ele>267.0</ele><time>2026-04-01T11:12:42.575Z</time></trkpt><trkpt lat="43.1049617" lon="12.3597987"><ele>267.0</ele><time>2026-04-01T11:12:43.576Z</time></trkpt><trkpt lat="43.1050724" lon="12.3597488"><ele>267.0</ele><time>2026-04-01T11:12:44.575Z</time></trkpt><trkpt lat="43.1051777" lon="12.3597009"><ele>266.75</ele><time>2026-04-01T11:12:45.575Z</time></trkpt><trkpt lat="43.1052816" lon="12.3596641"><ele>266.5</ele><time>2026-04-01T11:12:46.575Z</time></trkpt><trkpt lat="43.1053941" lon="12.3596129"><ele>266.25</ele><time>2026-04-01T11:12:47.576Z</time></trkpt><trkpt lat="43.1055196" lon="12.3595432"><ele>266.0</ele><time>2026-04-01T11:12:48.574Z</time></trkpt><trkpt lat="43.1056729" lon="12.3594745"><ele>265.6666666666667</ele><time>2026-04-01T11:12:49.575Z</time></trkpt><trkpt lat="43.1058597" lon="12.3593981"><ele>265.3333333333333</ele><time>2026-04-01T11:12:50.575Z</time></trkpt><trkpt lat="43.1060437" lon="12.3593278"><ele>265.0</ele><time>2026-04-01T11:12:51.575Z</time></trkpt><trkpt lat="43.1062275" lon="12.3592481"><ele>265.0</ele><time>2026-04-01T11:12:52.574Z</time></trkpt><trkpt lat="43.1063916" lon="12.359167"><ele>265.0</ele><time>2026-04-01T11:12:53.576Z</time></trkpt><trkpt lat="43.106553" lon="12.3590881"><ele>265.0</ele><time>2026-04-01T11:12:54.575Z</time></trkpt><trkpt lat="43.1067055" lon="12.3590098"><ele>265.3333333333333</ele><time>2026-04-01T11:12:55.574Z</time></trkpt><trkpt lat="43.1068613" lon="12.3589216"><ele>265.6666666666667</ele><time>2026-04-01T11:12:56.575Z</time></trkpt><trkpt lat="43.1070189" lon="12.3588345"><ele>266.0</ele><time>2026-04-01T11:12:57.575Z</time></trkpt><trkpt lat="43.1071802" lon="12.3587357"><ele>266.6666666666667</ele><time>2026-04-01T11:12:58.575Z</time></trkpt><trkpt lat="43.1073438" lon="12.3586433"><ele>267.3333333333333</ele><time>2026-04-01T11:12:59.575Z</time></trkpt><trkpt lat="43.1075204" lon="12.358537"><ele>268.0</ele><time>2026-04-01T11:13:00.574Z</time></trkpt><trkpt lat="43.1076971" lon="12.3584335"><ele>268.0</ele><time>2026-04-01T11:13:01.575Z</time></trkpt><trkpt lat="43.1078711" lon="12.3583292"><ele>268.0</ele><time>2026-04-01T11:13:02.575Z</time></trkpt><trkpt lat="43.1080492" lon="12.3582152"><ele>268.0</ele><time>2026-04-01T11:13:03.575Z</time></trkpt><trkpt lat="43.1082196" lon="12.3581212"><ele>268.0</ele><time>2026-04-01T11:13:04.576Z</time></trkpt><trkpt lat="43.1083709" lon="12.3580716"><ele>268.0</ele><time>2026-04-01T11:13:05.576Z</time></trkpt><trkpt lat="43.1085054" lon="12.3580515"><ele>268.0</ele><time>2026-04-01T11:13:06.575Z</time></trkpt><trkpt lat="43.1086368" lon="12.3580301"><ele>268.0</ele><time>2026-04-01T11:13:07.575Z</time></trkpt><trkpt lat="43.1087454" lon="12.3580299"><ele>268.2</ele><time>2026-04-01T11:13:08.575Z</time></trkpt><trkpt lat="43.108818" lon="12.3580598"><ele>268.4</ele><time>2026-04-01T11:13:09.575Z</time></trkpt><trkpt lat="43.1089078" lon="12.3580923"><ele>268.59999999999997</ele><time>2026-04-01T11:13:10.575Z</time></trkpt><trkpt lat="43.1090063" lon="12.3581321"><ele>268.8</ele><time>2026-04-01T11:13:11.574Z</time></trkpt><trkpt lat="43.1090932" lon="12.3581924"><ele>269.0</ele><time>2026-04-01T11:13:12.574Z</time></trkpt><trkpt lat="43.1091785" lon="12.3582531"><ele>270.0</ele><time>2026-04-01T11:13:13.575Z</time></trkpt><trkpt lat="43.1092544" lon="12.35834"><ele>271.0</ele><time>2026-04-01T11:13:14.575Z</time></trkpt><trkpt lat="43.1093295" lon="12.358447"><ele>272.0</ele><time>2026-04-01T11:13:15.575Z</time></trkpt><trkpt lat="43.1094021" lon="12.3585736"><ele>273.0</ele><time>2026-04-01T11:13:16.575Z</time></trkpt><trkpt lat="43.1094935" lon="12.3587192"><ele>272.6666666666667</ele><time>2026-04-01T11:13:17.575Z</time></trkpt><trkpt lat="43.1096065" lon="12.3588873"><ele>272.33333333333337</ele><time>2026-04-01T11:13:18.574Z</time></trkpt><trkpt lat="43.1097543" lon="12.3590453"><ele>272.0</ele><time>2026-04-01T11:13:19.574Z</time></trkpt><trkpt lat="43.1099188" lon="12.3592303"><ele>272.0</ele><time>2026-04-01T11:13:20.575Z</time></trkpt><trkpt lat="43.1100901" lon="12.3594123"><ele>272.0</ele><time>2026-04-01T11:13:21.575Z</time></trkpt><trkpt lat="43.1102581" lon="12.3595777"><ele>272.0</ele><time>2026-04-01T11:13:22.575Z</time></trkpt><trkpt lat="43.1104148" lon="12.3597287"><ele>272.0</ele><time>2026-04-01T11:13:23.574Z</time></trkpt><trkpt lat="43.1105573" lon="12.3598684"><ele>272.0</ele><time>2026-04-01T11:13:24.575Z</time></trkpt><trkpt lat="43.1106903" lon="12.3599923"><ele>272.0</ele><time>2026-04-01T11:13:25.575Z</time></trkpt><trkpt lat="43.1107975" lon="12.3600891"><ele>272.4</ele><time>2026-04-01T11:13:26.575Z</time></trkpt><trkpt lat="43.1108731" lon="12.3601713"><ele>272.79999999999995</ele><time>2026-04-01T11:13:27.575Z</time></trkpt><trkpt lat="43.1109331" lon="12.3602654"><ele>273.2</ele><time>2026-04-01T11:13:29.575Z</time></trkpt><trkpt lat="43.1109773" lon="12.3603728"><ele>273.59999999999997</ele><time>2026-04-01T11:13:31.575Z</time></trkpt><trkpt lat="43.1110649" lon="12.3605167"><ele>274.0</ele><time>2026-04-01T11:13:33.574Z</time></trkpt><trkpt lat="43.1111372" lon="12.3605565"><ele>274.0</ele><time>2026-04-01T11:13:34.575Z</time></trkpt><trkpt lat="43.1112144" lon="12.3605636"><ele>274.0</ele><time>2026-04-01T11:13:35.576Z</time></trkpt><trkpt lat="43.111304" lon="12.3605353"><ele>274.0</ele><time>2026-04-01T11:13:36.576Z</time></trkpt><trkpt lat="43.1113998" lon="12.3604622"><ele>274.0</ele><time>2026-04-01T11:13:37.575Z</time></trkpt><trkpt lat="43.1114929" lon="12.3604274"><ele>274.0</ele><time>2026-04-01T11:13:38.575Z</time></trkpt><trkpt lat="43.1115774" lon="12.360447"><ele>274.75</ele><time>2026-04-01T11:13:39.574Z</time></trkpt><trkpt lat="43.111665" lon="12.3605174"><ele>275.5</ele><time>2026-04-01T11:13:40.574Z</time></trkpt><trkpt lat="43.1117625" lon="12.3606198"><ele>276.25</ele><time>2026-04-01T11:13:41.575Z</time></trkpt><trkpt lat="43.1118647" lon="12.3607259"><ele>277.0</ele><time>2026-04-01T11:13:42.576Z</time></trkpt><trkpt lat="43.1119801" lon="12.3608507"><ele>277.0</ele><time>2026-04-01T11:13:43.575Z</time></trkpt><trkpt lat="43.1121097" lon="12.3609918"><ele>277.0</ele><time>2026-04-01T11:13:44.574Z</time></trkpt><trkpt lat="43.1122305" lon="12.3611444"><ele>277.0</ele><time>2026-04-01T11:13:45.575Z</time></trkpt><trkpt lat="43.1123265" lon="12.3612914"><ele>277.6</ele><time>2026-04-01T11:13:46.575Z</time></trkpt><trkpt lat="43.1124243" lon="12.3614027"><ele>278.2</ele><time>2026-04-01T11:13:47.575Z</time></trkpt><trkpt lat="43.1124954" lon="12.3614799"><ele>278.8</ele><time>2026-04-01T11:13:48.575Z</time></trkpt><trkpt lat="43.1125572" lon="12.3615497"><ele>279.4</ele><time>2026-04-01T11:13:50.575Z</time></trkpt><trkpt lat="43.1126076" lon="12.3616368"><ele>280.0</ele><time>2026-04-01T11:13:53.575Z</time></trkpt><trkpt lat="43.1127011" lon="12.3617325"><ele>280.0</ele><time>2026-04-01T11:13:55.575Z</time></trkpt><trkpt lat="43.1127664" lon="12.3617896"><ele>280.0</ele><time>2026-04-01T11:13:56.576Z</time></trkpt><trkpt lat="43.1128605" lon="12.3618686"><ele>280.0</ele><time>2026-04-01T11:13:58.575Z</time></trkpt><trkpt lat="43.1129429" lon="12.3618702"><ele>280.0</ele><time>2026-04-01T11:14:00.574Z</time></trkpt><trkpt lat="43.1129849" lon="12.361762"><ele>280.0</ele><time>2026-04-01T11:14:02.574Z</time></trkpt><trkpt lat="43.1130014" lon="12.3615966"><ele>280.0</ele><time>2026-04-01T11:14:04.575Z</time></trkpt><trkpt lat="43.1130163" lon="12.3614809"><ele>280.0</ele><time>2026-04-01T11:14:05.577Z</time></trkpt><trkpt lat="43.1130473" lon="12.3612996"><ele>280.0</ele><time>2026-04-01T11:14:06.574Z</time></trkpt><trkpt lat="43.1130964" lon="12.3610534"><ele>280.0</ele><time>2026-04-01T11:14:07.576Z</time></trkpt><trkpt lat="43.1131537" lon="12.3607912"><ele>279.3333333333333</ele><time>2026-04-01T11:14:08.576Z</time></trkpt><trkpt lat="43.1132143" lon="12.3605084"><ele>278.6666666666667</ele><time>2026-04-01T11:14:09.575Z</time></trkpt><trkpt lat="43.1132674" lon="12.360244"><ele>278.0</ele><time>2026-04-01T11:14:10.576Z</time></trkpt><trkpt lat="43.1133017" lon="12.3599891"><ele>279.0</ele><time>2026-04-01T11:14:11.576Z</time></trkpt><trkpt lat="43.1133552" lon="12.3597374"><ele>280.0</ele><time>2026-04-01T11:14:12.575Z</time></trkpt><trkpt lat="43.1134056" lon="12.3594884"><ele>281.0</ele><time>2026-04-01T11:14:13.575Z</time></trkpt><trkpt lat="43.1134541" lon="12.3592409"><ele>281.0</ele><time>2026-04-01T11:14:14.574Z</time></trkpt><trkpt lat="43.1135128" lon="12.359019"><ele>281.0</ele><time>2026-04-01T11:14:15.576Z</time></trkpt><trkpt lat="43.1135674" lon="12.3588067"><ele>281.0</ele><time>2026-04-01T11:14:16.576Z</time></trkpt><trkpt lat="43.1136192" lon="12.3586013"><ele>281.0</ele><time>2026-04-01T11:14:17.575Z</time></trkpt><trkpt lat="43.1136797" lon="12.3584069"><ele>281.0</ele><time>2026-04-01T11:14:18.576Z</time></trkpt><trkpt lat="43.1137448" lon="12.3582388"><ele>281.0</ele><time>2026-04-01T11:14:19.576Z</time></trkpt><trkpt lat="43.1137954" lon="12.3580653"><ele>281.0</ele><time>2026-04-01T11:14:20.575Z</time></trkpt><trkpt lat="43.1138308" lon="12.3578878"><ele>280.25</ele><time>2026-04-01T11:14:21.575Z</time></trkpt><trkpt lat="43.1138827" lon="12.3577099"><ele>279.5</ele><time>2026-04-01T11:14:22.577Z</time></trkpt><trkpt lat="43.113935" lon="12.3575343"><ele>278.75</ele><time>2026-04-01T11:14:23.576Z</time></trkpt><trkpt lat="43.1139897" lon="12.3573517"><ele>278.0</ele><time>2026-04-01T11:14:24.576Z</time></trkpt><trkpt lat="43.1140456" lon="12.3571828"><ele>278.33333333333337</ele><time>2026-04-01T11:14:25.575Z</time></trkpt><trkpt lat="43.1140987" lon="12.3569978"><ele>278.6666666666667</ele><time>2026-04-01T11:14:26.575Z</time></trkpt><trkpt lat="43.1141544" lon="12.3567899"><ele>279.0</ele><time>2026-04-01T11:14:27.576Z</time></trkpt><trkpt lat="43.1142072" lon="12.3565563"><ele>279.0</ele><time>2026-04-01T11:14:28.575Z</time></trkpt><trkpt lat="43.1142891" lon="12.356318"><ele>279.0</ele><time>2026-04-01T11:14:29.575Z</time></trkpt><trkpt lat="43.1143872" lon="12.3560438"><ele>279.0</ele><time>2026-04-01T11:14:30.575Z</time></trkpt><trkpt lat="43.1144883" lon="12.3557631"><ele>278.5</ele><time>2026-04-01T11:14:31.575Z</time></trkpt><trkpt lat="43.1145931" lon="12.3554861"><ele>278.0</ele><time>2026-04-01T11:14:32.576Z</time></trkpt><trkpt lat="43.1146946" lon="12.3552073"><ele>278.0</ele><time>2026-04-01T11:14:33.575Z</time></trkpt><trkpt lat="43.1148164" lon="12.3549566"><ele>278.0</ele><time>2026-04-01T11:14:34.577Z</time></trkpt><trkpt lat="43.1150235" lon="12.3547555"><ele>278.6666666666667</ele><time>2026-04-01T11:14:35.577Z</time></trkpt><trkpt lat="43.115173" lon="12.3545503"><ele>279.3333333333333</ele><time>2026-04-01T11:14:36.575Z</time></trkpt><trkpt lat="43.115333" lon="12.3543746"><ele>280.0</ele><time>2026-04-01T11:14:37.575Z</time></trkpt><trkpt lat="43.1154966" lon="12.3542053"><ele>280.0</ele><time>2026-04-01T11:14:38.576Z</time></trkpt><trkpt lat="43.1156559" lon="12.3541136"><ele>280.0</ele><time>2026-04-01T11:14:39.576Z</time></trkpt><trkpt lat="43.1158274" lon="12.3539691"><ele>280.0</ele><time>2026-04-01T11:14:40.575Z</time></trkpt><trkpt lat="43.1159988" lon="12.3538226"><ele>281.3333333333333</ele><time>2026-04-01T11:14:41.575Z</time></trkpt><trkpt lat="43.1161712" lon="12.3536913"><ele>282.6666666666667</ele><time>2026-04-01T11:14:42.576Z</time></trkpt><trkpt lat="43.116307" lon="12.3535782"><ele>284.0</ele><time>2026-04-01T11:14:43.576Z</time></trkpt><trkpt lat="43.1164399" lon="12.353472"><ele>284.0</ele><time>2026-04-01T11:14:44.575Z</time></trkpt><trkpt lat="43.1165595" lon="12.3533973"><ele>284.0</ele><time>2026-04-01T11:14:45.575Z</time></trkpt><trkpt lat="43.1166607" lon="12.3533654"><ele>284.0</ele><time>2026-04-01T11:14:46.576Z</time></trkpt><trkpt lat="43.1167391" lon="12.3532972"><ele>284.0</ele><time>2026-04-01T11:14:47.576Z</time></trkpt><trkpt lat="43.1168196" lon="12.353219"><ele>284.0</ele><time>2026-04-01T11:14:48.576Z</time></trkpt><trkpt lat="43.1169009" lon="12.3531332"><ele>284.0</ele><time>2026-04-01T11:14:49.576Z</time></trkpt><trkpt lat="43.1169974" lon="12.3530466"><ele>284.0</ele><time>2026-04-01T11:14:50.574Z</time></trkpt><trkpt lat="43.1171097" lon="12.3529276"><ele>284.0</ele><time>2026-04-01T11:14:51.574Z</time></trkpt><trkpt lat="43.1173164" lon="12.3528651"><ele>283.0</ele><time>2026-04-01T11:14:52.576Z</time></trkpt><trkpt lat="43.1175271" lon="12.3527894"><ele>282.0</ele><time>2026-04-01T11:14:53.575Z</time></trkpt><trkpt lat="43.1177398" lon="12.3527018"><ele>281.0</ele><time>2026-04-01T11:14:54.576Z</time></trkpt><trkpt lat="43.1179465" lon="12.3526123"><ele>281.0</ele><time>2026-04-01T11:14:55.575Z</time></trkpt><trkpt lat="43.1181263" lon="12.3525286"><ele>281.0</ele><time>2026-04-01T11:14:56.574Z</time></trkpt><trkpt lat="43.1183147" lon="12.3524563"><ele>281.0</ele><time>2026-04-01T11:14:57.576Z</time></trkpt><trkpt lat="43.1184742" lon="12.3523666"><ele>282.6666666666667</ele><time>2026-04-01T11:14:58.574Z</time></trkpt><trkpt lat="43.1186295" lon="12.3522951"><ele>284.3333333333333</ele><time>2026-04-01T11:14:59.575Z</time></trkpt><trkpt lat="43.1187694" lon="12.3522139"><ele>286.0</ele><time>2026-04-01T11:15:00.575Z</time></trkpt><trkpt lat="43.118898" lon="12.3521571"><ele>286.2</ele><time>2026-04-01T11:15:01.575Z</time></trkpt><trkpt lat="43.1190154" lon="12.3520979"><ele>286.40000000000003</ele><time>2026-04-01T11:15:02.576Z</time></trkpt><trkpt lat="43.1191214" lon="12.352033"><ele>286.6</ele><time>2026-04-01T11:15:03.575Z</time></trkpt><trkpt lat="43.1192228" lon="12.3519808"><ele>286.8</ele><time>2026-04-01T11:15:04.576Z</time></trkpt><trkpt lat="43.1193109" lon="12.3519389"><ele>287.0</ele><time>2026-04-01T11:15:05.575Z</time></trkpt><trkpt lat="43.1194121" lon="12.3518956"><ele>287.1666666666667</ele><time>2026-04-01T11:15:06.575Z</time></trkpt><trkpt lat="43.1194951" lon="12.3518715"><ele>287.33333333333337</ele><time>2026-04-01T11:15:07.575Z</time></trkpt><trkpt lat="43.1195743" lon="12.3518512"><ele>287.5</ele><time>2026-04-01T11:15:09.575Z</time></trkpt><trkpt lat="43.1196554" lon="12.3518192"><ele>287.6666666666667</ele><time>2026-04-01T11:15:12.576Z</time></trkpt><trkpt lat="43.1197177" lon="12.3517857"><ele>287.8333333333333</ele><time>2026-04-01T11:15:14.576Z</time></trkpt><trkpt lat="43.1198324" lon="12.3517471"><ele>288.0</ele><time>2026-04-01T11:15:16.576Z</time></trkpt><trkpt lat="43.1198785" lon="12.3516855"><ele>288.75</ele><time>2026-04-01T11:15:17.575Z</time></trkpt><trkpt lat="43.1199515" lon="12.3515829"><ele>289.5</ele><time>2026-04-01T11:15:18.576Z</time></trkpt><trkpt lat="43.1200274" lon="12.351453"><ele>290.25</ele><time>2026-04-01T11:15:19.576Z</time></trkpt><trkpt lat="43.1201177" lon="12.3512864"><ele>291.0</ele><time>2026-04-01T11:15:20.575Z</time></trkpt><trkpt lat="43.1202032" lon="12.3511162"><ele>291.0</ele><time>2026-04-01T11:15:21.575Z</time></trkpt><trkpt lat="43.1202984" lon="12.3509389"><ele>291.0</ele><time>2026-04-01T11:15:22.576Z</time></trkpt><trkpt lat="43.1204079" lon="12.3507318"><ele>291.0</ele><time>2026-04-01T11:15:23.574Z</time></trkpt><trkpt lat="43.1205257" lon="12.3505236"><ele>291.6666666666667</ele><time>2026-04-01T11:15:24.576Z</time></trkpt><trkpt lat="43.1206783" lon="12.3503112"><ele>292.33333333333337</ele><time>2026-04-01T11:15:25.577Z</time></trkpt><trkpt lat="43.1207995" lon="12.3501229"><ele>293.0</ele><time>2026-04-01T11:15:26.576Z</time></trkpt><trkpt lat="43.1209115" lon="12.3499482"><ele>293.6666666666667</ele><time>2026-04-01T11:15:27.576Z</time></trkpt><trkpt lat="43.1210144" lon="12.3497774"><ele>294.3333333333333</ele><time>2026-04-01T11:15:28.577Z</time></trkpt><trkpt lat="43.121119" lon="12.3496134"><ele>295.0</ele><time>2026-04-01T11:15:29.576Z</time></trkpt><trkpt lat="43.1212159" lon="12.3494492"><ele>296.66666666666663</ele><time>2026-04-01T11:15:30.575Z</time></trkpt><trkpt lat="43.1213152" lon="12.3492869"><ele>298.3333333333333</ele><time>2026-04-01T11:15:31.575Z</time></trkpt><trkpt lat="43.1214157" lon="12.3491299"><ele>300.0</ele><time>2026-04-01T11:15:32.575Z</time></trkpt><trkpt lat="43.1215086" lon="12.3489749"><ele>301.6666666666667</ele><time>2026-04-01T11:15:33.575Z</time></trkpt><trkpt lat="43.1216287" lon="12.3488446"><ele>303.33333333333337</ele><time>2026-04-01T11:15:34.576Z</time></trkpt><trkpt lat="43.121747" lon="12.3487091"><ele>305.0</ele><time>2026-04-01T11:15:35.576Z</time></trkpt><trkpt lat="43.1218712" lon="12.3485808"><ele>305.0</ele><time>2026-04-01T11:15:36.574Z</time></trkpt><trkpt lat="43.1220241" lon="12.3484755"><ele>305.0</ele><time>2026-04-01T11:15:37.576Z</time></trkpt><trkpt lat="43.1221674" lon="12.348391"><ele>305.0</ele><time>2026-04-01T11:15:38.576Z</time></trkpt><trkpt lat="43.1223172" lon="12.3482987"><ele>305.33333333333337</ele><time>2026-04-01T11:15:39.576Z</time></trkpt><trkpt lat="43.1224623" lon="12.3482167"><ele>305.6666666666667</ele><time>2026-04-01T11:15:40.576Z</time></trkpt><trkpt lat="43.1226048" lon="12.3481281"><ele>306.0</ele><time>2026-04-01T11:15:41.577Z</time></trkpt><trkpt lat="43.1227873" lon="12.3480678"><ele>307.5</ele><time>2026-04-01T11:15:42.727Z</time></trkpt><trkpt lat="43.1231423" lon="12.3479795"><ele>309.0</ele><time>2026-04-01T11:15:44.725Z</time></trkpt><trkpt lat="43.1233178" lon="12.347934"><ele>309.5</ele><time>2026-04-01T11:15:45.726Z</time></trkpt><trkpt lat="43.1235065" lon="12.3478705"><ele>310.0</ele><time>2026-04-01T11:15:46.726Z</time></trkpt><trkpt lat="43.123767" lon="12.3477282"><ele>310.0</ele><time>2026-04-01T11:15:47.726Z</time></trkpt><trkpt lat="43.1239287" lon="12.3475671"><ele>310.0</ele><time>2026-04-01T11:15:48.726Z</time></trkpt><trkpt lat="43.124087" lon="12.3474861"><ele>310.0</ele><time>2026-04-01T11:15:49.726Z</time></trkpt><trkpt lat="43.1240252" lon="12.3476005"><ele>311.0</ele><time>2026-04-01T11:15:50.726Z</time></trkpt><trkpt lat="43.1244564" lon="12.3472292"><ele>310.0</ele><time>2026-04-01T11:15:52.577Z</time></trkpt><trkpt lat="43.1245953" lon="12.3470121"><ele>309.0</ele><time>2026-04-01T11:15:53.576Z</time></trkpt><trkpt lat="43.1246882" lon="12.3467714"><ele>308.0</ele><time>2026-04-01T11:15:54.576Z</time></trkpt><trkpt lat="43.1247924" lon="12.3465483"><ele>309.0</ele><time>2026-04-01T11:15:55.577Z</time></trkpt><trkpt lat="43.1248905" lon="12.3462875"><ele>310.0</ele><time>2026-04-01T11:15:56.575Z</time></trkpt><trkpt lat="43.125008" lon="12.3460334"><ele>311.0</ele><time>2026-04-01T11:15:57.577Z</time></trkpt><trkpt lat="43.125153" lon="12.345861"><ele>314.6666666666667</ele><time>2026-04-01T11:15:58.576Z</time></trkpt><trkpt lat="43.1252801" lon="12.3456382"><ele>318.3333333333333</ele><time>2026-04-01T11:15:59.575Z</time></trkpt><trkpt lat="43.125359" lon="12.3454772"><ele>322.0</ele><time>2026-04-01T11:16:00.577Z</time></trkpt><trkpt lat="43.125414" lon="12.3452869"><ele>324.3333333333333</ele><time>2026-04-01T11:16:01.576Z</time></trkpt><trkpt lat="43.1254744" lon="12.3450804"><ele>326.6666666666667</ele><time>2026-04-01T11:16:02.576Z</time></trkpt><trkpt lat="43.1254434" lon="12.34487"><ele>329.0</ele><time>2026-04-01T11:16:03.576Z</time></trkpt><trkpt lat="43.1254553" lon="12.344661"><ele>330.0</ele><time>2026-04-01T11:16:04.576Z</time></trkpt><trkpt lat="43.1254692" lon="12.344454"><ele>331.0</ele><time>2026-04-01T11:16:05.576Z</time></trkpt><trkpt lat="43.1254982" lon="12.3442266"><ele>332.0</ele><time>2026-04-01T11:16:06.576Z</time></trkpt><trkpt lat="43.1255499" lon="12.3439932"><ele>333.75</ele><time>2026-04-01T11:16:07.576Z</time></trkpt><trkpt lat="43.1256069" lon="12.3438062"><ele>335.5</ele><time>2026-04-01T11:16:08.576Z</time></trkpt><trkpt lat="43.1256752" lon="12.3436106"><ele>337.25</ele><time>2026-04-01T11:16:09.576Z</time></trkpt><trkpt lat="43.1257436" lon="12.3434433"><ele>339.0</ele><time>2026-04-01T11:16:10.577Z</time></trkpt><trkpt lat="43.1258138" lon="12.3432812"><ele>339.0</ele><time>2026-04-01T11:16:11.576Z</time></trkpt><trkpt lat="43.1258978" lon="12.3432537"><ele>339.0</ele><time>2026-04-01T11:16:12.577Z</time></trkpt><trkpt lat="43.1259787" lon="12.3431828"><ele>339.0</ele><time>2026-04-01T11:16:13.576Z</time></trkpt><trkpt lat="43.1260603" lon="12.3432832"><ele>339.0</ele><time>2026-04-01T11:16:14.577Z</time></trkpt><trkpt lat="43.1261428" lon="12.3433212"><ele>339.0</ele><time>2026-04-01T11:16:15.575Z</time></trkpt><trkpt lat="43.1262785" lon="12.3434627"><ele>339.0</ele><time>2026-04-01T11:16:16.576Z</time></trkpt><trkpt lat="43.1264028" lon="12.3435632"><ele>339.0</ele><time>2026-04-01T11:16:17.576Z</time></trkpt><trkpt lat="43.1265259" lon="12.3436718"><ele>339.0</ele><time>2026-04-01T11:16:18.576Z</time></trkpt><trkpt lat="43.1266066" lon="12.3437731"><ele>339.0</ele><time>2026-04-01T11:16:19.575Z</time></trkpt><trkpt lat="43.1266982" lon="12.3438818"><ele>340.0</ele><time>2026-04-01T11:16:20.574Z</time></trkpt><trkpt lat="43.1267806" lon="12.3439861"><ele>341.0</ele><time>2026-04-01T11:16:21.575Z</time></trkpt><trkpt lat="43.1268197" lon="12.3441074"><ele>342.0</ele><time>2026-04-01T11:16:22.575Z</time></trkpt><trkpt lat="43.1268592" lon="12.3442275"><ele>343.0</ele><time>2026-04-01T11:16:23.577Z</time></trkpt><trkpt lat="43.1269174" lon="12.3443481"><ele>344.0</ele><time>2026-04-01T11:16:24.576Z</time></trkpt><trkpt lat="43.1268695" lon="12.3445216"><ele>344.0</ele><time>2026-04-01T11:16:25.575Z</time></trkpt><trkpt lat="43.1268414" lon="12.3446752"><ele>344.0</ele><time>2026-04-01T11:16:26.577Z</time></trkpt><trkpt lat="43.1267389" lon="12.3448487"><ele>344.0</ele><time>2026-04-01T11:16:27.574Z</time></trkpt><trkpt lat="43.126694" lon="12.345015"><ele>344.0</ele><time>2026-04-01T11:16:28.575Z</time></trkpt><trkpt lat="43.1266276" lon="12.345125"><ele>344.6</ele><time>2026-04-01T11:16:29.576Z</time></trkpt><trkpt lat="43.1265977" lon="12.3452375"><ele>345.2</ele><time>2026-04-01T11:16:30.577Z</time></trkpt><trkpt lat="43.1266425" lon="12.3453491"><ele>345.8</ele><time>2026-04-01T11:16:32.576Z</time></trkpt><trkpt lat="43.1267554" lon="12.3452763"><ele>346.40000000000003</ele><time>2026-04-01T11:16:34.576Z</time></trkpt><trkpt lat="43.1268105" lon="12.3451551"><ele>347.0</ele><time>2026-04-01T11:16:35.576Z</time></trkpt><trkpt lat="43.1268715" lon="12.3450283"><ele>347.0</ele><time>2026-04-01T11:16:36.576Z</time></trkpt><trkpt lat="43.1269272" lon="12.3449533"><ele>347.0</ele><time>2026-04-01T11:16:37.575Z</time></trkpt><trkpt lat="43.1269821" lon="12.3450466"><ele>347.0</ele><time>2026-04-01T11:16:39.575Z</time></trkpt><trkpt lat="43.1269642" lon="12.345145"><ele>347.0</ele><time>2026-04-01T11:16:40.577Z</time></trkpt><trkpt lat="43.1269424" lon="12.3452927"><ele>347.0</ele><time>2026-04-01T11:16:41.576Z</time></trkpt><trkpt lat="43.1269059" lon="12.3454575"><ele>348.0</ele><time>2026-04-01T11:16:42.576Z</time></trkpt><trkpt lat="43.1268556" lon="12.3456801"><ele>349.0</ele><time>2026-04-01T11:16:43.576Z</time></trkpt><trkpt lat="43.1268077" lon="12.345884"><ele>350.0</ele><time>2026-04-01T11:16:44.575Z</time></trkpt><trkpt lat="43.1267606" lon="12.3460932"><ele>350.0</ele><time>2026-04-01T11:16:45.575Z</time></trkpt><trkpt lat="43.1267205" lon="12.3463086"><ele>350.0</ele><time>2026-04-01T11:16:46.575Z</time></trkpt><trkpt lat="43.1266912" lon="12.3465322"><ele>350.0</ele><time>2026-04-01T11:16:47.576Z</time></trkpt><trkpt lat="43.1266644" lon="12.3467717"><ele>350.6666666666667</ele><time>2026-04-01T11:16:48.577Z</time></trkpt><trkpt lat="43.1266366" lon="12.3469974"><ele>351.3333333333333</ele><time>2026-04-01T11:16:49.575Z</time></trkpt><trkpt lat="43.1266166" lon="12.3472143"><ele>352.0</ele><time>2026-04-01T11:16:50.577Z</time></trkpt><trkpt lat="43.1265945" lon="12.3474224"><ele>352.5</ele><time>2026-04-01T11:16:51.575Z</time></trkpt><trkpt lat="43.1265697" lon="12.3476192"><ele>353.0</ele><time>2026-04-01T11:16:52.576Z</time></trkpt><trkpt lat="43.1265325" lon="12.3478106"><ele>353.5</ele><time>2026-04-01T11:16:53.575Z</time></trkpt><trkpt lat="43.1264898" lon="12.3479827"><ele>354.0</ele><time>2026-04-01T11:16:54.577Z</time></trkpt><trkpt lat="43.1264289" lon="12.3481417"><ele>350.79999999999995</ele><time>2026-04-01T11:16:55.576Z</time></trkpt><trkpt lat="43.1263665" lon="12.3482864"><ele>347.59999999999997</ele><time>2026-04-01T11:16:56.574Z</time></trkpt><trkpt lat="43.1263052" lon="12.3484168"><ele>344.4</ele><time>2026-04-01T11:16:57.575Z</time></trkpt><trkpt lat="43.126259" lon="12.3485105"><ele>341.2</ele><time>2026-04-01T11:16:58.577Z</time></trkpt><trkpt lat="43.1262042" lon="12.348595"><ele>338.0</ele><time>2026-04-01T11:16:59.575Z</time></trkpt><trkpt lat="43.1261574" lon="12.3486723"><ele>338.0</ele><time>2026-04-01T11:17:00.576Z</time></trkpt><trkpt lat="43.1261553" lon="12.3488019"><ele>338.0</ele><time>2026-04-01T11:17:02.575Z</time></trkpt><trkpt lat="43.1262702" lon="12.3488999"><ele>338.0</ele><time>2026-04-01T11:17:04.576Z</time></trkpt><trkpt lat="43.1263782" lon="12.3489755"><ele>338.0</ele><time>2026-04-01T11:17:05.576Z</time></trkpt><trkpt lat="43.1264859" lon="12.3490669"><ele>341.6666666666667</ele><time>2026-04-01T11:17:06.575Z</time></trkpt><trkpt lat="43.126619" lon="12.3491606"><ele>345.3333333333333</ele><time>2026-04-01T11:17:07.576Z</time></trkpt><trkpt lat="43.1267538" lon="12.3492571"><ele>349.0</ele><time>2026-04-01T11:17:08.577Z</time></trkpt><trkpt lat="43.1268859" lon="12.3493697"><ele>349.0</ele><time>2026-04-01T11:17:09.576Z</time></trkpt><trkpt lat="43.1270163" lon="12.34948"><ele>349.0</ele><time>2026-04-01T11:17:10.575Z</time></trkpt><trkpt lat="43.1271222" lon="12.3495749"><ele>349.0</ele><time>2026-04-01T11:17:11.576Z</time></trkpt><trkpt lat="43.1272116" lon="12.3496651"><ele>349.0</ele><time>2026-04-01T11:17:12.575Z</time></trkpt><trkpt lat="43.12729" lon="12.3497383"><ele>348.5</ele><time>2026-04-01T11:17:13.576Z</time></trkpt><trkpt lat="43.1273679" lon="12.3497936"><ele>348.0</ele><time>2026-04-01T11:17:14.577Z</time></trkpt><trkpt lat="43.1274216" lon="12.3498711"><ele>347.5</ele><time>2026-04-01T11:17:15.576Z</time></trkpt><trkpt lat="43.12744" lon="12.3499626"><ele>347.0</ele><time>2026-04-01T11:17:16.577Z</time></trkpt><trkpt lat="43.127426" lon="12.3500882"><ele>346.5</ele><time>2026-04-01T11:17:17.576Z</time></trkpt><trkpt lat="43.1273746" lon="12.3502379"><ele>346.0</ele><time>2026-04-01T11:17:18.575Z</time></trkpt><trkpt lat="43.1273125" lon="12.3503916"><ele>346.5</ele><time>2026-04-01T11:17:19.576Z</time></trkpt><trkpt lat="43.1272556" lon="12.3505554"><ele>347.0</ele><time>2026-04-01T11:17:20.576Z</time></trkpt><trkpt lat="43.1271687" lon="12.3507588"><ele>347.5</ele><time>2026-04-01T11:17:21.578Z</time></trkpt><trkpt lat="43.12711" lon="12.3509136"><ele>348.0</ele><time>2026-04-01T11:17:22.577Z</time></trkpt><trkpt lat="43.1270487" lon="12.351064"><ele>348.0</ele><time>2026-04-01T11:17:23.574Z</time></trkpt><trkpt lat="43.1269804" lon="12.3510876"><ele>348.0</ele><time>2026-04-01T11:17:24.577Z</time></trkpt><trkpt lat="43.1268947" lon="12.3511126"><ele>348.0</ele><time>2026-04-01T11:17:25.576Z</time></trkpt><trkpt lat="43.1267528" lon="12.3510761"><ele>348.0</ele><time>2026-04-01T11:17:26.576Z</time></trkpt><trkpt lat="43.1266121" lon="12.3510545"><ele>348.0</ele><time>2026-04-01T11:17:27.576Z</time></trkpt><trkpt lat="43.1264695" lon="12.3510128"><ele>349.5</ele><time>2026-04-01T11:17:28.576Z</time></trkpt><trkpt lat="43.126326" lon="12.3509779"><ele>351.0</ele><time>2026-04-01T11:17:29.576Z</time></trkpt><trkpt lat="43.1261771" lon="12.350931"><ele>352.5</ele><time>2026-04-01T11:17:30.576Z</time></trkpt><trkpt lat="43.1260345" lon="12.3508839"><ele>354.0</ele><time>2026-04-01T11:17:31.575Z</time></trkpt><trkpt lat="43.1259038" lon="12.3508495"><ele>354.0</ele><time>2026-04-01T11:17:32.576Z</time></trkpt><trkpt lat="43.1257653" lon="12.350844"><ele>354.0</ele><time>2026-04-01T11:17:33.576Z</time></trkpt><trkpt lat="43.1256508" lon="12.3508562"><ele>354.0</ele><time>2026-04-01T11:17:34.577Z</time></trkpt><trkpt lat="43.1255467" lon="12.3508679"><ele>354.0</ele><time>2026-04-01T11:17:35.576Z</time></trkpt><trkpt lat="43.1254604" lon="12.3508785"><ele>354.0</ele><time>2026-04-01T11:17:36.576Z</time></trkpt><trkpt lat="43.1253783" lon="12.3508942"><ele>353.8333333333333</ele><time>2026-04-01T11:17:37.575Z</time></trkpt><trkpt lat="43.1252963" lon="12.3509249"><ele>353.6666666666667</ele><time>2026-04-01T11:17:38.576Z</time></trkpt><trkpt lat="43.1252149" lon="12.3509424"><ele>353.5</ele><time>2026-04-01T11:17:39.576Z</time></trkpt><trkpt lat="43.1251462" lon="12.3509527"><ele>353.33333333333337</ele><time>2026-04-01T11:17:40.576Z</time></trkpt><trkpt lat="43.1250359" lon="12.3509725"><ele>353.1666666666667</ele><time>2026-04-01T11:17:42.576Z</time></trkpt><trkpt lat="43.124966" lon="12.3510097"><ele>353.0</ele><time>2026-04-01T11:17:44.576Z</time></trkpt><trkpt lat="43.12492" lon="12.351078"><ele>352.0</ele><time>2026-04-01T11:18:35.576Z</time></trkpt><trkpt lat="43.1248803" lon="12.3512031"><ele>351.0</ele><time>2026-04-01T11:18:37.577Z</time></trkpt><trkpt lat="43.1248668" lon="12.3513405"><ele>350.0</ele><time>2026-04-01T11:18:39.575Z</time></trkpt><trkpt lat="43.1248636" lon="12.3515207"><ele>349.0</ele><time>2026-04-01T11:18:41.577Z</time></trkpt><trkpt lat="43.1248689" lon="12.3516079"><ele>348.0</ele><time>2026-04-01T11:18:42.578Z</time></trkpt><trkpt lat="43.1249052" lon="12.3517726"><ele>361.0</ele><time>2026-04-01T11:18:44.575Z</time></trkpt><trkpt lat="43.124964" lon="12.3518985"><ele>361.0</ele><time>2026-04-01T11:18:46.576Z</time></trkpt><trkpt lat="43.1250337" lon="12.3519545"><ele>361.0</ele><time>2026-04-01T11:18:48.577Z</time></trkpt><trkpt lat="43.1251261" lon="12.3519386"><ele>361.0</ele><time>2026-04-01T11:18:50.576Z</time></trkpt><trkpt lat="43.1251866" lon="12.3518983"><ele>361.0</ele><time>2026-04-01T11:18:52.576Z</time></trkpt><trkpt lat="43.1252201" lon="12.3518178"><ele>361.0</ele><time>2026-04-01T11:19:37.576Z</time></trkpt></trkseg></trk></gpx>